<?xml version="1.0" encoding="UTF-8" standalone="no" ?>
<gpx xmlns="http://www.topografix.com/GPX/1/1" xmlns:xsi="http://www.w3.org/2001/XMLSchema-instance" xsi:schemaLocation="http://www.topografix.com/GPX/1/1 http://www.topografix.com/GPX/1/1/gpx.xsd" version="1.1" creator="VisuGPX - https://www.visugpx.com">
  <metadata>
    <name>83-Ve-le Thoronet</name>
    <desc><![CDATA[grp_trc:]]></desc>
  </metadata>
  <trk>
    <name><![CDATA[Le Thoronet canal St Croix Petelin.]]></name>
    <cmt><![CDATA[13:56:46]]></cmt>
    <desc><![CDATA[comment ...]]></desc>
    <trkseg>
      <trkpt lat="43.46114" lon="6.3007">
        <ele>221</ele>
        <time>2023-04-28T11:56:46Z</time>
      </trkpt>
      <trkpt lat="43.46114" lon="6.3007">
        <ele>221</ele>
        <time>2023-04-28T11:56:47Z</time>
      </trkpt>
      <trkpt lat="43.46114" lon="6.3007">
        <ele>220</ele>
        <time>2023-04-28T11:56:48Z</time>
      </trkpt>
      <trkpt lat="43.46114" lon="6.3007">
        <ele>220</ele>
        <time>2023-04-28T11:56:49Z</time>
      </trkpt>
      <trkpt lat="43.46114" lon="6.3007">
        <ele>220</ele>
        <time>2023-04-28T11:56:50Z</time>
      </trkpt>
      <trkpt lat="43.46114" lon="6.3007">
        <ele>220</ele>
        <time>2023-04-28T11:56:51Z</time>
      </trkpt>
      <trkpt lat="43.46114" lon="6.3007">
        <ele>220</ele>
        <time>2023-04-28T11:56:52Z</time>
      </trkpt>
      <trkpt lat="43.46116" lon="6.30074">
        <ele>220</ele>
        <time>2023-04-28T11:56:53Z</time>
      </trkpt>
      <trkpt lat="43.46117" lon="6.30077">
        <ele>220</ele>
        <time>2023-04-28T11:56:54Z</time>
      </trkpt>
      <trkpt lat="43.46118" lon="6.30078">
        <ele>220</ele>
        <time>2023-04-28T11:56:55Z</time>
      </trkpt>
      <trkpt lat="43.46119" lon="6.30079">
        <ele>220</ele>
        <time>2023-04-28T11:56:56Z</time>
      </trkpt>
      <trkpt lat="43.46119" lon="6.3008">
        <ele>220</ele>
        <time>2023-04-28T11:56:57Z</time>
      </trkpt>
      <trkpt lat="43.4612" lon="6.30081">
        <ele>220</ele>
        <time>2023-04-28T11:56:58Z</time>
      </trkpt>
      <trkpt lat="43.4612" lon="6.30083">
        <ele>220</ele>
        <time>2023-04-28T11:56:59Z</time>
      </trkpt>
      <trkpt lat="43.46121" lon="6.30084">
        <ele>220</ele>
        <time>2023-04-28T11:57:00Z</time>
      </trkpt>
      <trkpt lat="43.46121" lon="6.30085">
        <ele>220</ele>
        <time>2023-04-28T11:57:01Z</time>
      </trkpt>
      <trkpt lat="43.46122" lon="6.30086">
        <ele>220</ele>
        <time>2023-04-28T11:57:02Z</time>
      </trkpt>
      <trkpt lat="43.46123" lon="6.30088">
        <ele>219</ele>
        <time>2023-04-28T11:57:03Z</time>
      </trkpt>
      <trkpt lat="43.46124" lon="6.3009">
        <ele>219</ele>
        <time>2023-04-28T11:57:04Z</time>
      </trkpt>
      <trkpt lat="43.46124" lon="6.30092">
        <ele>219</ele>
        <time>2023-04-28T11:57:05Z</time>
      </trkpt>
      <trkpt lat="43.46125" lon="6.30094">
        <ele>219</ele>
        <time>2023-04-28T11:57:06Z</time>
      </trkpt>
      <trkpt lat="43.46126" lon="6.30096">
        <ele>219</ele>
        <time>2023-04-28T11:57:07Z</time>
      </trkpt>
      <trkpt lat="43.46126" lon="6.30098">
        <ele>219</ele>
        <time>2023-04-28T11:57:08Z</time>
      </trkpt>
      <trkpt lat="43.46127" lon="6.30099">
        <ele>218</ele>
        <time>2023-04-28T11:57:09Z</time>
      </trkpt>
      <trkpt lat="43.46127" lon="6.30101">
        <ele>218</ele>
        <time>2023-04-28T11:57:10Z</time>
      </trkpt>
      <trkpt lat="43.46128" lon="6.30102">
        <ele>218</ele>
        <time>2023-04-28T11:57:11Z</time>
      </trkpt>
      <trkpt lat="43.46128" lon="6.30103">
        <ele>218</ele>
        <time>2023-04-28T11:57:12Z</time>
      </trkpt>
      <trkpt lat="43.46128" lon="6.30104">
        <ele>218</ele>
        <time>2023-04-28T11:57:13Z</time>
      </trkpt>
      <trkpt lat="43.46128" lon="6.30104">
        <ele>218</ele>
        <time>2023-04-28T11:57:14Z</time>
      </trkpt>
      <trkpt lat="43.46128" lon="6.30105">
        <ele>218</ele>
        <time>2023-04-28T11:57:15Z</time>
      </trkpt>
      <trkpt lat="43.46129" lon="6.30105">
        <ele>218</ele>
        <time>2023-04-28T11:57:16Z</time>
      </trkpt>
      <trkpt lat="43.46129" lon="6.30106">
        <ele>218</ele>
        <time>2023-04-28T11:57:17Z</time>
      </trkpt>
      <trkpt lat="43.4613" lon="6.30108">
        <ele>218</ele>
        <time>2023-04-28T11:57:18Z</time>
      </trkpt>
      <trkpt lat="43.4613" lon="6.3011">
        <ele>218</ele>
        <time>2023-04-28T11:57:19Z</time>
      </trkpt>
      <trkpt lat="43.4613" lon="6.30111">
        <ele>218</ele>
        <time>2023-04-28T11:57:20Z</time>
      </trkpt>
      <trkpt lat="43.46131" lon="6.30113">
        <ele>218</ele>
        <time>2023-04-28T11:57:21Z</time>
      </trkpt>
      <trkpt lat="43.46131" lon="6.30114">
        <ele>218</ele>
        <time>2023-04-28T11:57:22Z</time>
      </trkpt>
      <trkpt lat="43.46131" lon="6.30115">
        <ele>218</ele>
        <time>2023-04-28T11:57:23Z</time>
      </trkpt>
      <trkpt lat="43.46132" lon="6.30118">
        <ele>218</ele>
        <time>2023-04-28T11:57:24Z</time>
      </trkpt>
      <trkpt lat="43.46133" lon="6.3012">
        <ele>218</ele>
        <time>2023-04-28T11:57:25Z</time>
      </trkpt>
      <trkpt lat="43.46133" lon="6.30123">
        <ele>218</ele>
        <time>2023-04-28T11:57:26Z</time>
      </trkpt>
      <trkpt lat="43.46134" lon="6.30124">
        <ele>218</ele>
        <time>2023-04-28T11:57:27Z</time>
      </trkpt>
      <trkpt lat="43.46134" lon="6.30126">
        <ele>218</ele>
        <time>2023-04-28T11:57:28Z</time>
      </trkpt>
      <trkpt lat="43.46135" lon="6.30128">
        <ele>218</ele>
        <time>2023-04-28T11:57:29Z</time>
      </trkpt>
      <trkpt lat="43.46135" lon="6.3013">
        <ele>218</ele>
        <time>2023-04-28T11:57:30Z</time>
      </trkpt>
      <trkpt lat="43.46136" lon="6.30131">
        <ele>218</ele>
        <time>2023-04-28T11:57:31Z</time>
      </trkpt>
      <trkpt lat="43.46136" lon="6.30133">
        <ele>218</ele>
        <time>2023-04-28T11:57:32Z</time>
      </trkpt>
      <trkpt lat="43.46136" lon="6.30135">
        <ele>218</ele>
        <time>2023-04-28T11:57:33Z</time>
      </trkpt>
      <trkpt lat="43.46136" lon="6.30137">
        <ele>218</ele>
        <time>2023-04-28T11:57:34Z</time>
      </trkpt>
      <trkpt lat="43.46136" lon="6.30138">
        <ele>218</ele>
        <time>2023-04-28T11:57:35Z</time>
      </trkpt>
      <trkpt lat="43.46137" lon="6.3014">
        <ele>218</ele>
        <time>2023-04-28T11:57:36Z</time>
      </trkpt>
      <trkpt lat="43.46137" lon="6.30141">
        <ele>218</ele>
        <time>2023-04-28T11:57:37Z</time>
      </trkpt>
      <trkpt lat="43.46137" lon="6.30142">
        <ele>219</ele>
        <time>2023-04-28T11:57:38Z</time>
      </trkpt>
      <trkpt lat="43.46137" lon="6.30144">
        <ele>219</ele>
        <time>2023-04-28T11:57:39Z</time>
      </trkpt>
      <trkpt lat="43.46138" lon="6.30145">
        <ele>220</ele>
        <time>2023-04-28T11:57:40Z</time>
      </trkpt>
      <trkpt lat="43.46138" lon="6.30147">
        <ele>220</ele>
        <time>2023-04-28T11:57:41Z</time>
      </trkpt>
      <trkpt lat="43.46139" lon="6.30148">
        <ele>220</ele>
        <time>2023-04-28T11:57:42Z</time>
      </trkpt>
      <trkpt lat="43.4614" lon="6.30149">
        <ele>220</ele>
        <time>2023-04-28T11:57:43Z</time>
      </trkpt>
      <trkpt lat="43.46141" lon="6.30149">
        <ele>220</ele>
        <time>2023-04-28T11:57:44Z</time>
      </trkpt>
      <trkpt lat="43.46141" lon="6.30149">
        <ele>220</ele>
        <time>2023-04-28T11:57:45Z</time>
      </trkpt>
      <trkpt lat="43.46142" lon="6.3015">
        <ele>220</ele>
        <time>2023-04-28T11:57:46Z</time>
      </trkpt>
      <trkpt lat="43.46143" lon="6.3015">
        <ele>220</ele>
        <time>2023-04-28T11:57:47Z</time>
      </trkpt>
      <trkpt lat="43.46143" lon="6.30151">
        <ele>221</ele>
        <time>2023-04-28T11:57:48Z</time>
      </trkpt>
      <trkpt lat="43.46145" lon="6.30151">
        <ele>221</ele>
        <time>2023-04-28T11:57:49Z</time>
      </trkpt>
      <trkpt lat="43.46146" lon="6.30152">
        <ele>222</ele>
        <time>2023-04-28T11:57:50Z</time>
      </trkpt>
      <trkpt lat="43.46147" lon="6.30152">
        <ele>222</ele>
        <time>2023-04-28T11:57:51Z</time>
      </trkpt>
      <trkpt lat="43.46148" lon="6.30152">
        <ele>222</ele>
        <time>2023-04-28T11:57:52Z</time>
      </trkpt>
      <trkpt lat="43.46149" lon="6.30153">
        <ele>222</ele>
        <time>2023-04-28T11:57:53Z</time>
      </trkpt>
      <trkpt lat="43.46149" lon="6.30153">
        <ele>222</ele>
        <time>2023-04-28T11:57:54Z</time>
      </trkpt>
      <trkpt lat="43.4615" lon="6.30153">
        <ele>222</ele>
        <time>2023-04-28T11:57:55Z</time>
      </trkpt>
      <trkpt lat="43.46151" lon="6.30154">
        <ele>222</ele>
        <time>2023-04-28T11:57:56Z</time>
      </trkpt>
      <trkpt lat="43.46152" lon="6.30154">
        <ele>222</ele>
        <time>2023-04-28T11:57:57Z</time>
      </trkpt>
      <trkpt lat="43.46153" lon="6.30154">
        <ele>222</ele>
        <time>2023-04-28T11:57:58Z</time>
      </trkpt>
      <trkpt lat="43.46154" lon="6.30155">
        <ele>222</ele>
        <time>2023-04-28T11:57:59Z</time>
      </trkpt>
      <trkpt lat="43.46155" lon="6.30155">
        <ele>222</ele>
        <time>2023-04-28T11:58:00Z</time>
      </trkpt>
      <trkpt lat="43.46155" lon="6.30155">
        <ele>222</ele>
        <time>2023-04-28T11:58:01Z</time>
      </trkpt>
      <trkpt lat="43.46156" lon="6.30156">
        <ele>222</ele>
        <time>2023-04-28T11:58:02Z</time>
      </trkpt>
      <trkpt lat="43.46157" lon="6.30156">
        <ele>222</ele>
        <time>2023-04-28T11:58:03Z</time>
      </trkpt>
      <trkpt lat="43.46158" lon="6.30157">
        <ele>222</ele>
        <time>2023-04-28T11:58:04Z</time>
      </trkpt>
      <trkpt lat="43.46159" lon="6.30157">
        <ele>222</ele>
        <time>2023-04-28T11:58:05Z</time>
      </trkpt>
      <trkpt lat="43.4616" lon="6.30157">
        <ele>222</ele>
        <time>2023-04-28T11:58:06Z</time>
      </trkpt>
      <trkpt lat="43.4616" lon="6.30158">
        <ele>222</ele>
        <time>2023-04-28T11:58:07Z</time>
      </trkpt>
      <trkpt lat="43.46161" lon="6.30158">
        <ele>222</ele>
        <time>2023-04-28T11:58:08Z</time>
      </trkpt>
      <trkpt lat="43.46162" lon="6.30158">
        <ele>222</ele>
        <time>2023-04-28T11:58:09Z</time>
      </trkpt>
      <trkpt lat="43.46164" lon="6.30158">
        <ele>222</ele>
        <time>2023-04-28T11:58:10Z</time>
      </trkpt>
      <trkpt lat="43.46164" lon="6.30158">
        <ele>222</ele>
        <time>2023-04-28T11:58:11Z</time>
      </trkpt>
      <trkpt lat="43.46165" lon="6.30158">
        <ele>222</ele>
        <time>2023-04-28T11:58:12Z</time>
      </trkpt>
      <trkpt lat="43.46166" lon="6.30158">
        <ele>222</ele>
        <time>2023-04-28T11:58:13Z</time>
      </trkpt>
      <trkpt lat="43.46167" lon="6.30158">
        <ele>222</ele>
        <time>2023-04-28T11:58:14Z</time>
      </trkpt>
      <trkpt lat="43.46169" lon="6.30158">
        <ele>222</ele>
        <time>2023-04-28T11:58:15Z</time>
      </trkpt>
      <trkpt lat="43.4617" lon="6.30158">
        <ele>222</ele>
        <time>2023-04-28T11:58:16Z</time>
      </trkpt>
      <trkpt lat="43.46171" lon="6.30158">
        <ele>222</ele>
        <time>2023-04-28T11:58:17Z</time>
      </trkpt>
      <trkpt lat="43.46172" lon="6.30158">
        <ele>222</ele>
        <time>2023-04-28T11:58:18Z</time>
      </trkpt>
      <trkpt lat="43.46173" lon="6.30158">
        <ele>222</ele>
        <time>2023-04-28T11:58:19Z</time>
      </trkpt>
      <trkpt lat="43.46174" lon="6.30158">
        <ele>222</ele>
        <time>2023-04-28T11:58:20Z</time>
      </trkpt>
      <trkpt lat="43.46175" lon="6.30158">
        <ele>222</ele>
        <time>2023-04-28T11:58:21Z</time>
      </trkpt>
      <trkpt lat="43.46175" lon="6.30158">
        <ele>222</ele>
        <time>2023-04-28T11:58:22Z</time>
      </trkpt>
      <trkpt lat="43.46176" lon="6.30158">
        <ele>222</ele>
        <time>2023-04-28T11:58:23Z</time>
      </trkpt>
      <trkpt lat="43.46177" lon="6.30158">
        <ele>222</ele>
        <time>2023-04-28T11:58:24Z</time>
      </trkpt>
      <trkpt lat="43.46178" lon="6.30158">
        <ele>221</ele>
        <time>2023-04-28T11:58:25Z</time>
      </trkpt>
      <trkpt lat="43.46179" lon="6.30158">
        <ele>221</ele>
        <time>2023-04-28T11:58:26Z</time>
      </trkpt>
      <trkpt lat="43.4618" lon="6.30157">
        <ele>221</ele>
        <time>2023-04-28T11:58:27Z</time>
      </trkpt>
      <trkpt lat="43.46181" lon="6.30157">
        <ele>221</ele>
        <time>2023-04-28T11:58:28Z</time>
      </trkpt>
      <trkpt lat="43.46182" lon="6.30157">
        <ele>221</ele>
        <time>2023-04-28T11:58:29Z</time>
      </trkpt>
      <trkpt lat="43.46184" lon="6.30156">
        <ele>221</ele>
        <time>2023-04-28T11:58:30Z</time>
      </trkpt>
      <trkpt lat="43.46185" lon="6.30156">
        <ele>221</ele>
        <time>2023-04-28T11:58:31Z</time>
      </trkpt>
      <trkpt lat="43.46187" lon="6.30155">
        <ele>221</ele>
        <time>2023-04-28T11:58:32Z</time>
      </trkpt>
      <trkpt lat="43.46188" lon="6.30155">
        <ele>221</ele>
        <time>2023-04-28T11:58:33Z</time>
      </trkpt>
      <trkpt lat="43.4619" lon="6.30154">
        <ele>221</ele>
        <time>2023-04-28T11:58:34Z</time>
      </trkpt>
      <trkpt lat="43.46191" lon="6.30154">
        <ele>221</ele>
        <time>2023-04-28T11:58:35Z</time>
      </trkpt>
      <trkpt lat="43.46192" lon="6.30153">
        <ele>221</ele>
        <time>2023-04-28T11:58:36Z</time>
      </trkpt>
      <trkpt lat="43.46194" lon="6.30153">
        <ele>221</ele>
        <time>2023-04-28T11:58:37Z</time>
      </trkpt>
      <trkpt lat="43.46195" lon="6.30152">
        <ele>222</ele>
        <time>2023-04-28T11:58:38Z</time>
      </trkpt>
      <trkpt lat="43.46197" lon="6.30152">
        <ele>222</ele>
        <time>2023-04-28T11:58:39Z</time>
      </trkpt>
      <trkpt lat="43.46199" lon="6.30151">
        <ele>222</ele>
        <time>2023-04-28T11:58:40Z</time>
      </trkpt>
      <trkpt lat="43.462" lon="6.30151">
        <ele>222</ele>
        <time>2023-04-28T11:58:41Z</time>
      </trkpt>
      <trkpt lat="43.46201" lon="6.30151">
        <ele>223</ele>
        <time>2023-04-28T11:58:42Z</time>
      </trkpt>
      <trkpt lat="43.46202" lon="6.3015">
        <ele>223</ele>
        <time>2023-04-28T11:58:43Z</time>
      </trkpt>
      <trkpt lat="43.46203" lon="6.3015">
        <ele>223</ele>
        <time>2023-04-28T11:58:44Z</time>
      </trkpt>
      <trkpt lat="43.46205" lon="6.3015">
        <ele>224</ele>
        <time>2023-04-28T11:58:45Z</time>
      </trkpt>
      <trkpt lat="43.46206" lon="6.30149">
        <ele>224</ele>
        <time>2023-04-28T11:58:46Z</time>
      </trkpt>
      <trkpt lat="43.46207" lon="6.30149">
        <ele>224</ele>
        <time>2023-04-28T11:58:47Z</time>
      </trkpt>
      <trkpt lat="43.46208" lon="6.30149">
        <ele>224</ele>
        <time>2023-04-28T11:58:48Z</time>
      </trkpt>
      <trkpt lat="43.46209" lon="6.30149">
        <ele>224</ele>
        <time>2023-04-28T11:58:49Z</time>
      </trkpt>
      <trkpt lat="43.4621" lon="6.30148">
        <ele>224</ele>
        <time>2023-04-28T11:58:50Z</time>
      </trkpt>
      <trkpt lat="43.46211" lon="6.30147">
        <ele>224</ele>
        <time>2023-04-28T11:58:51Z</time>
      </trkpt>
      <trkpt lat="43.46212" lon="6.30146">
        <ele>224</ele>
        <time>2023-04-28T11:58:52Z</time>
      </trkpt>
      <trkpt lat="43.46213" lon="6.30145">
        <ele>224</ele>
        <time>2023-04-28T11:58:53Z</time>
      </trkpt>
      <trkpt lat="43.46214" lon="6.30144">
        <ele>224</ele>
        <time>2023-04-28T11:58:54Z</time>
      </trkpt>
      <trkpt lat="43.46215" lon="6.30144">
        <ele>224</ele>
        <time>2023-04-28T11:58:55Z</time>
      </trkpt>
      <trkpt lat="43.46216" lon="6.30143">
        <ele>224</ele>
        <time>2023-04-28T11:58:56Z</time>
      </trkpt>
      <trkpt lat="43.46217" lon="6.30142">
        <ele>224</ele>
        <time>2023-04-28T11:58:57Z</time>
      </trkpt>
      <trkpt lat="43.46218" lon="6.30141">
        <ele>224</ele>
        <time>2023-04-28T11:58:58Z</time>
      </trkpt>
      <trkpt lat="43.46218" lon="6.3014">
        <ele>224</ele>
        <time>2023-04-28T11:58:59Z</time>
      </trkpt>
      <trkpt lat="43.46219" lon="6.30139">
        <ele>224</ele>
        <time>2023-04-28T11:59:00Z</time>
      </trkpt>
      <trkpt lat="43.4622" lon="6.30139">
        <ele>224</ele>
        <time>2023-04-28T11:59:01Z</time>
      </trkpt>
      <trkpt lat="43.4622" lon="6.30138">
        <ele>225</ele>
        <time>2023-04-28T11:59:02Z</time>
      </trkpt>
      <trkpt lat="43.46221" lon="6.30137">
        <ele>225</ele>
        <time>2023-04-28T11:59:03Z</time>
      </trkpt>
      <trkpt lat="43.46222" lon="6.30136">
        <ele>225</ele>
        <time>2023-04-28T11:59:04Z</time>
      </trkpt>
      <trkpt lat="43.46223" lon="6.30135">
        <ele>225</ele>
        <time>2023-04-28T11:59:05Z</time>
      </trkpt>
      <trkpt lat="43.46224" lon="6.30134">
        <ele>225</ele>
        <time>2023-04-28T11:59:06Z</time>
      </trkpt>
      <trkpt lat="43.46225" lon="6.30134">
        <ele>225</ele>
        <time>2023-04-28T11:59:07Z</time>
      </trkpt>
      <trkpt lat="43.46225" lon="6.30133">
        <ele>225</ele>
        <time>2023-04-28T11:59:08Z</time>
      </trkpt>
      <trkpt lat="43.46226" lon="6.30132">
        <ele>225</ele>
        <time>2023-04-28T11:59:09Z</time>
      </trkpt>
      <trkpt lat="43.46227" lon="6.30131">
        <ele>225</ele>
        <time>2023-04-28T11:59:10Z</time>
      </trkpt>
      <trkpt lat="43.46228" lon="6.30131">
        <ele>225</ele>
        <time>2023-04-28T11:59:11Z</time>
      </trkpt>
      <trkpt lat="43.46229" lon="6.30131">
        <ele>225</ele>
        <time>2023-04-28T11:59:12Z</time>
      </trkpt>
      <trkpt lat="43.4623" lon="6.3013">
        <ele>225</ele>
        <time>2023-04-28T11:59:13Z</time>
      </trkpt>
      <trkpt lat="43.46231" lon="6.3013">
        <ele>225</ele>
        <time>2023-04-28T11:59:14Z</time>
      </trkpt>
      <trkpt lat="43.46232" lon="6.30129">
        <ele>225</ele>
        <time>2023-04-28T11:59:15Z</time>
      </trkpt>
      <trkpt lat="43.46232" lon="6.30129">
        <ele>225</ele>
        <time>2023-04-28T11:59:16Z</time>
      </trkpt>
      <trkpt lat="43.46233" lon="6.30128">
        <ele>225</ele>
        <time>2023-04-28T11:59:17Z</time>
      </trkpt>
      <trkpt lat="43.46234" lon="6.30127">
        <ele>225</ele>
        <time>2023-04-28T11:59:18Z</time>
      </trkpt>
      <trkpt lat="43.46234" lon="6.30126">
        <ele>225</ele>
        <time>2023-04-28T11:59:19Z</time>
      </trkpt>
      <trkpt lat="43.46235" lon="6.30125">
        <ele>225</ele>
        <time>2023-04-28T11:59:20Z</time>
      </trkpt>
      <trkpt lat="43.46236" lon="6.30123">
        <ele>225</ele>
        <time>2023-04-28T11:59:21Z</time>
      </trkpt>
      <trkpt lat="43.46237" lon="6.30122">
        <ele>225</ele>
        <time>2023-04-28T11:59:22Z</time>
      </trkpt>
      <trkpt lat="43.46238" lon="6.30121">
        <ele>225</ele>
        <time>2023-04-28T11:59:23Z</time>
      </trkpt>
      <trkpt lat="43.46238" lon="6.3012">
        <ele>225</ele>
        <time>2023-04-28T11:59:24Z</time>
      </trkpt>
      <trkpt lat="43.46239" lon="6.30119">
        <ele>225</ele>
        <time>2023-04-28T11:59:25Z</time>
      </trkpt>
      <trkpt lat="43.4624" lon="6.30118">
        <ele>225</ele>
        <time>2023-04-28T11:59:26Z</time>
      </trkpt>
      <trkpt lat="43.46241" lon="6.30117">
        <ele>225</ele>
        <time>2023-04-28T11:59:27Z</time>
      </trkpt>
      <trkpt lat="43.46242" lon="6.30116">
        <ele>225</ele>
        <time>2023-04-28T11:59:28Z</time>
      </trkpt>
      <trkpt lat="43.46243" lon="6.30115">
        <ele>225</ele>
        <time>2023-04-28T11:59:29Z</time>
      </trkpt>
      <trkpt lat="43.46244" lon="6.30114">
        <ele>224</ele>
        <time>2023-04-28T11:59:30Z</time>
      </trkpt>
      <trkpt lat="43.46246" lon="6.30113">
        <ele>224</ele>
        <time>2023-04-28T11:59:31Z</time>
      </trkpt>
      <trkpt lat="43.46247" lon="6.30112">
        <ele>224</ele>
        <time>2023-04-28T11:59:32Z</time>
      </trkpt>
      <trkpt lat="43.46247" lon="6.30111">
        <ele>224</ele>
        <time>2023-04-28T11:59:33Z</time>
      </trkpt>
      <trkpt lat="43.46248" lon="6.30111">
        <ele>224</ele>
        <time>2023-04-28T11:59:34Z</time>
      </trkpt>
      <trkpt lat="43.46249" lon="6.3011">
        <ele>224</ele>
        <time>2023-04-28T11:59:35Z</time>
      </trkpt>
      <trkpt lat="43.4625" lon="6.30109">
        <ele>224</ele>
        <time>2023-04-28T11:59:36Z</time>
      </trkpt>
      <trkpt lat="43.46251" lon="6.30108">
        <ele>224</ele>
        <time>2023-04-28T11:59:37Z</time>
      </trkpt>
      <trkpt lat="43.46252" lon="6.30108">
        <ele>223</ele>
        <time>2023-04-28T11:59:38Z</time>
      </trkpt>
      <trkpt lat="43.46253" lon="6.30107">
        <ele>223</ele>
        <time>2023-04-28T11:59:39Z</time>
      </trkpt>
      <trkpt lat="43.46254" lon="6.30107">
        <ele>223</ele>
        <time>2023-04-28T11:59:40Z</time>
      </trkpt>
      <trkpt lat="43.46255" lon="6.30107">
        <ele>224</ele>
        <time>2023-04-28T11:59:41Z</time>
      </trkpt>
      <trkpt lat="43.46256" lon="6.30108">
        <ele>224</ele>
        <time>2023-04-28T11:59:42Z</time>
      </trkpt>
      <trkpt lat="43.46257" lon="6.30108">
        <ele>224</ele>
        <time>2023-04-28T11:59:43Z</time>
      </trkpt>
      <trkpt lat="43.46258" lon="6.30109">
        <ele>224</ele>
        <time>2023-04-28T11:59:44Z</time>
      </trkpt>
      <trkpt lat="43.46259" lon="6.30109">
        <ele>224</ele>
        <time>2023-04-28T11:59:45Z</time>
      </trkpt>
      <trkpt lat="43.4626" lon="6.30109">
        <ele>225</ele>
        <time>2023-04-28T11:59:46Z</time>
      </trkpt>
      <trkpt lat="43.46261" lon="6.30108">
        <ele>225</ele>
        <time>2023-04-28T11:59:47Z</time>
      </trkpt>
      <trkpt lat="43.46262" lon="6.30108">
        <ele>225</ele>
        <time>2023-04-28T11:59:48Z</time>
      </trkpt>
      <trkpt lat="43.46263" lon="6.30108">
        <ele>225</ele>
        <time>2023-04-28T11:59:49Z</time>
      </trkpt>
      <trkpt lat="43.46264" lon="6.30107">
        <ele>225</ele>
        <time>2023-04-28T11:59:50Z</time>
      </trkpt>
      <trkpt lat="43.46265" lon="6.30108">
        <ele>225</ele>
        <time>2023-04-28T11:59:51Z</time>
      </trkpt>
      <trkpt lat="43.46266" lon="6.30108">
        <ele>225</ele>
        <time>2023-04-28T11:59:52Z</time>
      </trkpt>
      <trkpt lat="43.46267" lon="6.30107">
        <ele>225</ele>
        <time>2023-04-28T11:59:53Z</time>
      </trkpt>
      <trkpt lat="43.46268" lon="6.30107">
        <ele>225</ele>
        <time>2023-04-28T11:59:54Z</time>
      </trkpt>
      <trkpt lat="43.46269" lon="6.30106">
        <ele>225</ele>
        <time>2023-04-28T11:59:55Z</time>
      </trkpt>
      <trkpt lat="43.4627" lon="6.30106">
        <ele>224</ele>
        <time>2023-04-28T11:59:56Z</time>
      </trkpt>
      <trkpt lat="43.46272" lon="6.30105">
        <ele>224</ele>
        <time>2023-04-28T11:59:57Z</time>
      </trkpt>
      <trkpt lat="43.46273" lon="6.30104">
        <ele>224</ele>
        <time>2023-04-28T11:59:58Z</time>
      </trkpt>
      <trkpt lat="43.46274" lon="6.30103">
        <ele>224</ele>
        <time>2023-04-28T11:59:59Z</time>
      </trkpt>
      <trkpt lat="43.46274" lon="6.30102">
        <ele>224</ele>
        <time>2023-04-28T12:00:00Z</time>
      </trkpt>
      <trkpt lat="43.46275" lon="6.30101">
        <ele>224</ele>
        <time>2023-04-28T12:00:01Z</time>
      </trkpt>
      <trkpt lat="43.46276" lon="6.301">
        <ele>224</ele>
        <time>2023-04-28T12:00:02Z</time>
      </trkpt>
      <trkpt lat="43.46277" lon="6.30098">
        <ele>224</ele>
        <time>2023-04-28T12:00:03Z</time>
      </trkpt>
      <trkpt lat="43.46278" lon="6.30097">
        <ele>224</ele>
        <time>2023-04-28T12:00:04Z</time>
      </trkpt>
      <trkpt lat="43.46279" lon="6.30096">
        <ele>224</ele>
        <time>2023-04-28T12:00:05Z</time>
      </trkpt>
      <trkpt lat="43.4628" lon="6.30094">
        <ele>223</ele>
        <time>2023-04-28T12:00:06Z</time>
      </trkpt>
      <trkpt lat="43.4628" lon="6.30093">
        <ele>223</ele>
        <time>2023-04-28T12:00:07Z</time>
      </trkpt>
      <trkpt lat="43.46281" lon="6.30091">
        <ele>223</ele>
        <time>2023-04-28T12:00:08Z</time>
      </trkpt>
      <trkpt lat="43.46282" lon="6.3009">
        <ele>223</ele>
        <time>2023-04-28T12:00:09Z</time>
      </trkpt>
      <trkpt lat="43.46283" lon="6.30089">
        <ele>223</ele>
        <time>2023-04-28T12:00:10Z</time>
      </trkpt>
      <trkpt lat="43.46283" lon="6.30088">
        <ele>223</ele>
        <time>2023-04-28T12:00:11Z</time>
      </trkpt>
      <trkpt lat="43.46284" lon="6.30087">
        <ele>223</ele>
        <time>2023-04-28T12:00:12Z</time>
      </trkpt>
      <trkpt lat="43.46285" lon="6.30086">
        <ele>223</ele>
        <time>2023-04-28T12:00:13Z</time>
      </trkpt>
      <trkpt lat="43.46286" lon="6.30085">
        <ele>223</ele>
        <time>2023-04-28T12:00:14Z</time>
      </trkpt>
      <trkpt lat="43.46286" lon="6.30084">
        <ele>223</ele>
        <time>2023-04-28T12:00:15Z</time>
      </trkpt>
      <trkpt lat="43.46287" lon="6.30082">
        <ele>223</ele>
        <time>2023-04-28T12:00:16Z</time>
      </trkpt>
      <trkpt lat="43.46288" lon="6.30081">
        <ele>223</ele>
        <time>2023-04-28T12:00:17Z</time>
      </trkpt>
      <trkpt lat="43.46288" lon="6.3008">
        <ele>223</ele>
        <time>2023-04-28T12:00:18Z</time>
      </trkpt>
      <trkpt lat="43.46289" lon="6.30079">
        <ele>224</ele>
        <time>2023-04-28T12:00:19Z</time>
      </trkpt>
      <trkpt lat="43.4629" lon="6.30077">
        <ele>224</ele>
        <time>2023-04-28T12:00:20Z</time>
      </trkpt>
      <trkpt lat="43.4629" lon="6.30076">
        <ele>224</ele>
        <time>2023-04-28T12:00:21Z</time>
      </trkpt>
      <trkpt lat="43.46291" lon="6.30075">
        <ele>224</ele>
        <time>2023-04-28T12:00:22Z</time>
      </trkpt>
      <trkpt lat="43.46291" lon="6.30074">
        <ele>224</ele>
        <time>2023-04-28T12:00:23Z</time>
      </trkpt>
      <trkpt lat="43.46292" lon="6.30072">
        <ele>224</ele>
        <time>2023-04-28T12:00:24Z</time>
      </trkpt>
      <trkpt lat="43.46292" lon="6.30071">
        <ele>224</ele>
        <time>2023-04-28T12:00:25Z</time>
      </trkpt>
      <trkpt lat="43.46293" lon="6.3007">
        <ele>223</ele>
        <time>2023-04-28T12:00:26Z</time>
      </trkpt>
      <trkpt lat="43.46294" lon="6.30069">
        <ele>223</ele>
        <time>2023-04-28T12:00:27Z</time>
      </trkpt>
      <trkpt lat="43.46295" lon="6.30068">
        <ele>223</ele>
        <time>2023-04-28T12:00:28Z</time>
      </trkpt>
      <trkpt lat="43.46296" lon="6.30067">
        <ele>223</ele>
        <time>2023-04-28T12:00:29Z</time>
      </trkpt>
      <trkpt lat="43.46297" lon="6.30066">
        <ele>223</ele>
        <time>2023-04-28T12:00:30Z</time>
      </trkpt>
      <trkpt lat="43.46298" lon="6.30065">
        <ele>223</ele>
        <time>2023-04-28T12:00:31Z</time>
      </trkpt>
      <trkpt lat="43.46299" lon="6.30065">
        <ele>223</ele>
        <time>2023-04-28T12:00:32Z</time>
      </trkpt>
      <trkpt lat="43.463" lon="6.30065">
        <ele>223</ele>
        <time>2023-04-28T12:00:33Z</time>
      </trkpt>
      <trkpt lat="43.46301" lon="6.30065">
        <ele>223</ele>
        <time>2023-04-28T12:00:34Z</time>
      </trkpt>
      <trkpt lat="43.46302" lon="6.30064">
        <ele>222</ele>
        <time>2023-04-28T12:00:35Z</time>
      </trkpt>
      <trkpt lat="43.46302" lon="6.30064">
        <ele>222</ele>
        <time>2023-04-28T12:00:36Z</time>
      </trkpt>
      <trkpt lat="43.46303" lon="6.30063">
        <ele>222</ele>
        <time>2023-04-28T12:00:37Z</time>
      </trkpt>
      <trkpt lat="43.46304" lon="6.30063">
        <ele>221</ele>
        <time>2023-04-28T12:00:38Z</time>
      </trkpt>
      <trkpt lat="43.46305" lon="6.30062">
        <ele>221</ele>
        <time>2023-04-28T12:00:39Z</time>
      </trkpt>
      <trkpt lat="43.46306" lon="6.30062">
        <ele>221</ele>
        <time>2023-04-28T12:00:40Z</time>
      </trkpt>
      <trkpt lat="43.46307" lon="6.30062">
        <ele>221</ele>
        <time>2023-04-28T12:00:41Z</time>
      </trkpt>
      <trkpt lat="43.46308" lon="6.30062">
        <ele>221</ele>
        <time>2023-04-28T12:00:42Z</time>
      </trkpt>
      <trkpt lat="43.46309" lon="6.30063">
        <ele>220</ele>
        <time>2023-04-28T12:00:43Z</time>
      </trkpt>
      <trkpt lat="43.46309" lon="6.30063">
        <ele>220</ele>
        <time>2023-04-28T12:00:44Z</time>
      </trkpt>
      <trkpt lat="43.4631" lon="6.30063">
        <ele>220</ele>
        <time>2023-04-28T12:00:45Z</time>
      </trkpt>
      <trkpt lat="43.46311" lon="6.30062">
        <ele>220</ele>
        <time>2023-04-28T12:00:46Z</time>
      </trkpt>
      <trkpt lat="43.46311" lon="6.30061">
        <ele>220</ele>
        <time>2023-04-28T12:00:47Z</time>
      </trkpt>
      <trkpt lat="43.46312" lon="6.3006">
        <ele>220</ele>
        <time>2023-04-28T12:00:48Z</time>
      </trkpt>
      <trkpt lat="43.46313" lon="6.30059">
        <ele>219</ele>
        <time>2023-04-28T12:00:49Z</time>
      </trkpt>
      <trkpt lat="43.46313" lon="6.30059">
        <ele>219</ele>
        <time>2023-04-28T12:00:50Z</time>
      </trkpt>
      <trkpt lat="43.46314" lon="6.30058">
        <ele>219</ele>
        <time>2023-04-28T12:00:51Z</time>
      </trkpt>
      <trkpt lat="43.46314" lon="6.30058">
        <ele>219</ele>
        <time>2023-04-28T12:00:52Z</time>
      </trkpt>
      <trkpt lat="43.46315" lon="6.30057">
        <ele>219</ele>
        <time>2023-04-28T12:00:53Z</time>
      </trkpt>
      <trkpt lat="43.46316" lon="6.30056">
        <ele>219</ele>
        <time>2023-04-28T12:00:54Z</time>
      </trkpt>
      <trkpt lat="43.46317" lon="6.30055">
        <ele>219</ele>
        <time>2023-04-28T12:00:55Z</time>
      </trkpt>
      <trkpt lat="43.46318" lon="6.30054">
        <ele>219</ele>
        <time>2023-04-28T12:00:56Z</time>
      </trkpt>
      <trkpt lat="43.46318" lon="6.30054">
        <ele>219</ele>
        <time>2023-04-28T12:00:57Z</time>
      </trkpt>
      <trkpt lat="43.46319" lon="6.30053">
        <ele>218</ele>
        <time>2023-04-28T12:00:58Z</time>
      </trkpt>
      <trkpt lat="43.4632" lon="6.30052">
        <ele>218</ele>
        <time>2023-04-28T12:00:59Z</time>
      </trkpt>
      <trkpt lat="43.46321" lon="6.30052">
        <ele>218</ele>
        <time>2023-04-28T12:01:00Z</time>
      </trkpt>
      <trkpt lat="43.46322" lon="6.30051">
        <ele>218</ele>
        <time>2023-04-28T12:01:01Z</time>
      </trkpt>
      <trkpt lat="43.46323" lon="6.30051">
        <ele>218</ele>
        <time>2023-04-28T12:01:02Z</time>
      </trkpt>
      <trkpt lat="43.46324" lon="6.3005">
        <ele>218</ele>
        <time>2023-04-28T12:01:03Z</time>
      </trkpt>
      <trkpt lat="43.46325" lon="6.30049">
        <ele>218</ele>
        <time>2023-04-28T12:01:04Z</time>
      </trkpt>
      <trkpt lat="43.46325" lon="6.30048">
        <ele>218</ele>
        <time>2023-04-28T12:01:05Z</time>
      </trkpt>
      <trkpt lat="43.46327" lon="6.30047">
        <ele>218</ele>
        <time>2023-04-28T12:01:06Z</time>
      </trkpt>
      <trkpt lat="43.46328" lon="6.30046">
        <ele>217</ele>
        <time>2023-04-28T12:01:07Z</time>
      </trkpt>
      <trkpt lat="43.46329" lon="6.30046">
        <ele>217</ele>
        <time>2023-04-28T12:01:08Z</time>
      </trkpt>
      <trkpt lat="43.4633" lon="6.30045">
        <ele>217</ele>
        <time>2023-04-28T12:01:09Z</time>
      </trkpt>
      <trkpt lat="43.46331" lon="6.30045">
        <ele>217</ele>
        <time>2023-04-28T12:01:10Z</time>
      </trkpt>
      <trkpt lat="43.46332" lon="6.30045">
        <ele>217</ele>
        <time>2023-04-28T12:01:11Z</time>
      </trkpt>
      <trkpt lat="43.46333" lon="6.30044">
        <ele>217</ele>
        <time>2023-04-28T12:01:12Z</time>
      </trkpt>
      <trkpt lat="43.46334" lon="6.30044">
        <ele>217</ele>
        <time>2023-04-28T12:01:13Z</time>
      </trkpt>
      <trkpt lat="43.46335" lon="6.30043">
        <ele>217</ele>
        <time>2023-04-28T12:01:14Z</time>
      </trkpt>
      <trkpt lat="43.46336" lon="6.30042">
        <ele>217</ele>
        <time>2023-04-28T12:01:15Z</time>
      </trkpt>
      <trkpt lat="43.46337" lon="6.30041">
        <ele>217</ele>
        <time>2023-04-28T12:01:16Z</time>
      </trkpt>
      <trkpt lat="43.46338" lon="6.3004">
        <ele>217</ele>
        <time>2023-04-28T12:01:17Z</time>
      </trkpt>
      <trkpt lat="43.46339" lon="6.30039">
        <ele>217</ele>
        <time>2023-04-28T12:01:18Z</time>
      </trkpt>
      <trkpt lat="43.4634" lon="6.30038">
        <ele>217</ele>
        <time>2023-04-28T12:01:19Z</time>
      </trkpt>
      <trkpt lat="43.46341" lon="6.30037">
        <ele>217</ele>
        <time>2023-04-28T12:01:20Z</time>
      </trkpt>
      <trkpt lat="43.46342" lon="6.30037">
        <ele>217</ele>
        <time>2023-04-28T12:01:21Z</time>
      </trkpt>
      <trkpt lat="43.46343" lon="6.30036">
        <ele>217</ele>
        <time>2023-04-28T12:01:22Z</time>
      </trkpt>
      <trkpt lat="43.46344" lon="6.30035">
        <ele>218</ele>
        <time>2023-04-28T12:01:23Z</time>
      </trkpt>
      <trkpt lat="43.46345" lon="6.30035">
        <ele>218</ele>
        <time>2023-04-28T12:01:24Z</time>
      </trkpt>
      <trkpt lat="43.46346" lon="6.30034">
        <ele>218</ele>
        <time>2023-04-28T12:01:25Z</time>
      </trkpt>
      <trkpt lat="43.46347" lon="6.30033">
        <ele>218</ele>
        <time>2023-04-28T12:01:26Z</time>
      </trkpt>
      <trkpt lat="43.46348" lon="6.30032">
        <ele>218</ele>
        <time>2023-04-28T12:01:27Z</time>
      </trkpt>
      <trkpt lat="43.46349" lon="6.30032">
        <ele>218</ele>
        <time>2023-04-28T12:01:28Z</time>
      </trkpt>
      <trkpt lat="43.4635" lon="6.30031">
        <ele>218</ele>
        <time>2023-04-28T12:01:29Z</time>
      </trkpt>
      <trkpt lat="43.46351" lon="6.3003">
        <ele>218</ele>
        <time>2023-04-28T12:01:30Z</time>
      </trkpt>
      <trkpt lat="43.46352" lon="6.30028">
        <ele>218</ele>
        <time>2023-04-28T12:01:31Z</time>
      </trkpt>
      <trkpt lat="43.46353" lon="6.30028">
        <ele>218</ele>
        <time>2023-04-28T12:01:32Z</time>
      </trkpt>
      <trkpt lat="43.46354" lon="6.30027">
        <ele>217</ele>
        <time>2023-04-28T12:01:33Z</time>
      </trkpt>
      <trkpt lat="43.46355" lon="6.30027">
        <ele>217</ele>
        <time>2023-04-28T12:01:34Z</time>
      </trkpt>
      <trkpt lat="43.46356" lon="6.30026">
        <ele>217</ele>
        <time>2023-04-28T12:01:35Z</time>
      </trkpt>
      <trkpt lat="43.46357" lon="6.30025">
        <ele>217</ele>
        <time>2023-04-28T12:01:36Z</time>
      </trkpt>
      <trkpt lat="43.46359" lon="6.30025">
        <ele>217</ele>
        <time>2023-04-28T12:01:37Z</time>
      </trkpt>
      <trkpt lat="43.4636" lon="6.30024">
        <ele>217</ele>
        <time>2023-04-28T12:01:38Z</time>
      </trkpt>
      <trkpt lat="43.46361" lon="6.30023">
        <ele>217</ele>
        <time>2023-04-28T12:01:39Z</time>
      </trkpt>
      <trkpt lat="43.46362" lon="6.30022">
        <ele>217</ele>
        <time>2023-04-28T12:01:40Z</time>
      </trkpt>
      <trkpt lat="43.46363" lon="6.30021">
        <ele>217</ele>
        <time>2023-04-28T12:01:41Z</time>
      </trkpt>
      <trkpt lat="43.46364" lon="6.30021">
        <ele>217</ele>
        <time>2023-04-28T12:01:42Z</time>
      </trkpt>
      <trkpt lat="43.46366" lon="6.3002">
        <ele>217</ele>
        <time>2023-04-28T12:01:43Z</time>
      </trkpt>
      <trkpt lat="43.46367" lon="6.30019">
        <ele>217</ele>
        <time>2023-04-28T12:01:44Z</time>
      </trkpt>
      <trkpt lat="43.46368" lon="6.30019">
        <ele>217</ele>
        <time>2023-04-28T12:01:45Z</time>
      </trkpt>
      <trkpt lat="43.46369" lon="6.30018">
        <ele>217</ele>
        <time>2023-04-28T12:01:46Z</time>
      </trkpt>
      <trkpt lat="43.4637" lon="6.30017">
        <ele>217</ele>
        <time>2023-04-28T12:01:47Z</time>
      </trkpt>
      <trkpt lat="43.46371" lon="6.30017">
        <ele>217</ele>
        <time>2023-04-28T12:01:48Z</time>
      </trkpt>
      <trkpt lat="43.46372" lon="6.30016">
        <ele>217</ele>
        <time>2023-04-28T12:01:49Z</time>
      </trkpt>
      <trkpt lat="43.46373" lon="6.30015">
        <ele>217</ele>
        <time>2023-04-28T12:01:50Z</time>
      </trkpt>
      <trkpt lat="43.46374" lon="6.30015">
        <ele>217</ele>
        <time>2023-04-28T12:01:51Z</time>
      </trkpt>
      <trkpt lat="43.46375" lon="6.30014">
        <ele>217</ele>
        <time>2023-04-28T12:01:52Z</time>
      </trkpt>
      <trkpt lat="43.46376" lon="6.30013">
        <ele>217</ele>
        <time>2023-04-28T12:01:53Z</time>
      </trkpt>
      <trkpt lat="43.46378" lon="6.30012">
        <ele>217</ele>
        <time>2023-04-28T12:01:54Z</time>
      </trkpt>
      <trkpt lat="43.46379" lon="6.30012">
        <ele>216</ele>
        <time>2023-04-28T12:01:55Z</time>
      </trkpt>
      <trkpt lat="43.4638" lon="6.30011">
        <ele>216</ele>
        <time>2023-04-28T12:01:56Z</time>
      </trkpt>
      <trkpt lat="43.46381" lon="6.30009">
        <ele>216</ele>
        <time>2023-04-28T12:01:57Z</time>
      </trkpt>
      <trkpt lat="43.46382" lon="6.30009">
        <ele>216</ele>
        <time>2023-04-28T12:01:58Z</time>
      </trkpt>
      <trkpt lat="43.46383" lon="6.30008">
        <ele>216</ele>
        <time>2023-04-28T12:01:59Z</time>
      </trkpt>
      <trkpt lat="43.46384" lon="6.30006">
        <ele>215</ele>
        <time>2023-04-28T12:02:00Z</time>
      </trkpt>
      <trkpt lat="43.46385" lon="6.30005">
        <ele>215</ele>
        <time>2023-04-28T12:02:01Z</time>
      </trkpt>
      <trkpt lat="43.46386" lon="6.30005">
        <ele>215</ele>
        <time>2023-04-28T12:02:02Z</time>
      </trkpt>
      <trkpt lat="43.46387" lon="6.30004">
        <ele>215</ele>
        <time>2023-04-28T12:02:03Z</time>
      </trkpt>
      <trkpt lat="43.46388" lon="6.30003">
        <ele>215</ele>
        <time>2023-04-28T12:02:04Z</time>
      </trkpt>
      <trkpt lat="43.46389" lon="6.30003">
        <ele>215</ele>
        <time>2023-04-28T12:02:05Z</time>
      </trkpt>
      <trkpt lat="43.4639" lon="6.30002">
        <ele>215</ele>
        <time>2023-04-28T12:02:06Z</time>
      </trkpt>
      <trkpt lat="43.46391" lon="6.30001">
        <ele>215</ele>
        <time>2023-04-28T12:02:07Z</time>
      </trkpt>
      <trkpt lat="43.46392" lon="6.3">
        <ele>214</ele>
        <time>2023-04-28T12:02:08Z</time>
      </trkpt>
      <trkpt lat="43.46393" lon="6.29999">
        <ele>214</ele>
        <time>2023-04-28T12:02:09Z</time>
      </trkpt>
      <trkpt lat="43.46394" lon="6.29999">
        <ele>213</ele>
        <time>2023-04-28T12:02:10Z</time>
      </trkpt>
      <trkpt lat="43.46396" lon="6.29998">
        <ele>213</ele>
        <time>2023-04-28T12:02:11Z</time>
      </trkpt>
      <trkpt lat="43.46397" lon="6.29997">
        <ele>213</ele>
        <time>2023-04-28T12:02:12Z</time>
      </trkpt>
      <trkpt lat="43.46398" lon="6.29996">
        <ele>213</ele>
        <time>2023-04-28T12:02:13Z</time>
      </trkpt>
      <trkpt lat="43.46399" lon="6.29995">
        <ele>213</ele>
        <time>2023-04-28T12:02:14Z</time>
      </trkpt>
      <trkpt lat="43.464" lon="6.29995">
        <ele>212</ele>
        <time>2023-04-28T12:02:15Z</time>
      </trkpt>
      <trkpt lat="43.46401" lon="6.29994">
        <ele>212</ele>
        <time>2023-04-28T12:02:16Z</time>
      </trkpt>
      <trkpt lat="43.46402" lon="6.29993">
        <ele>212</ele>
        <time>2023-04-28T12:02:17Z</time>
      </trkpt>
      <trkpt lat="43.46403" lon="6.29993">
        <ele>212</ele>
        <time>2023-04-28T12:02:18Z</time>
      </trkpt>
      <trkpt lat="43.46404" lon="6.29992">
        <ele>211</ele>
        <time>2023-04-28T12:02:19Z</time>
      </trkpt>
      <trkpt lat="43.46405" lon="6.29992">
        <ele>211</ele>
        <time>2023-04-28T12:02:20Z</time>
      </trkpt>
      <trkpt lat="43.46406" lon="6.29991">
        <ele>211</ele>
        <time>2023-04-28T12:02:21Z</time>
      </trkpt>
      <trkpt lat="43.46406" lon="6.2999">
        <ele>211</ele>
        <time>2023-04-28T12:02:22Z</time>
      </trkpt>
      <trkpt lat="43.46407" lon="6.29989">
        <ele>211</ele>
        <time>2023-04-28T12:02:23Z</time>
      </trkpt>
      <trkpt lat="43.46408" lon="6.29989">
        <ele>210</ele>
        <time>2023-04-28T12:02:24Z</time>
      </trkpt>
      <trkpt lat="43.46409" lon="6.29988">
        <ele>210</ele>
        <time>2023-04-28T12:02:25Z</time>
      </trkpt>
      <trkpt lat="43.4641" lon="6.29987">
        <ele>210</ele>
        <time>2023-04-28T12:02:26Z</time>
      </trkpt>
      <trkpt lat="43.46411" lon="6.29987">
        <ele>210</ele>
        <time>2023-04-28T12:02:27Z</time>
      </trkpt>
      <trkpt lat="43.46412" lon="6.29986">
        <ele>209</ele>
        <time>2023-04-28T12:02:28Z</time>
      </trkpt>
      <trkpt lat="43.46412" lon="6.29985">
        <ele>209</ele>
        <time>2023-04-28T12:02:29Z</time>
      </trkpt>
      <trkpt lat="43.46413" lon="6.29985">
        <ele>209</ele>
        <time>2023-04-28T12:02:30Z</time>
      </trkpt>
      <trkpt lat="43.46414" lon="6.29984">
        <ele>209</ele>
        <time>2023-04-28T12:02:31Z</time>
      </trkpt>
      <trkpt lat="43.46415" lon="6.29984">
        <ele>209</ele>
        <time>2023-04-28T12:02:32Z</time>
      </trkpt>
      <trkpt lat="43.46417" lon="6.29983">
        <ele>209</ele>
        <time>2023-04-28T12:02:33Z</time>
      </trkpt>
      <trkpt lat="43.46418" lon="6.29983">
        <ele>208</ele>
        <time>2023-04-28T12:02:34Z</time>
      </trkpt>
      <trkpt lat="43.46419" lon="6.29983">
        <ele>208</ele>
        <time>2023-04-28T12:02:35Z</time>
      </trkpt>
      <trkpt lat="43.4642" lon="6.29982">
        <ele>208</ele>
        <time>2023-04-28T12:02:36Z</time>
      </trkpt>
      <trkpt lat="43.46421" lon="6.29981">
        <ele>208</ele>
        <time>2023-04-28T12:02:37Z</time>
      </trkpt>
      <trkpt lat="43.46422" lon="6.2998">
        <ele>208</ele>
        <time>2023-04-28T12:02:38Z</time>
      </trkpt>
      <trkpt lat="43.46423" lon="6.2998">
        <ele>207</ele>
        <time>2023-04-28T12:02:39Z</time>
      </trkpt>
      <trkpt lat="43.46424" lon="6.29979">
        <ele>207</ele>
        <time>2023-04-28T12:02:40Z</time>
      </trkpt>
      <trkpt lat="43.46424" lon="6.29979">
        <ele>207</ele>
        <time>2023-04-28T12:02:41Z</time>
      </trkpt>
      <trkpt lat="43.46425" lon="6.29979">
        <ele>206</ele>
        <time>2023-04-28T12:02:42Z</time>
      </trkpt>
      <trkpt lat="43.46426" lon="6.29978">
        <ele>205</ele>
        <time>2023-04-28T12:02:43Z</time>
      </trkpt>
      <trkpt lat="43.46427" lon="6.29978">
        <ele>205</ele>
        <time>2023-04-28T12:02:44Z</time>
      </trkpt>
      <trkpt lat="43.46428" lon="6.29977">
        <ele>205</ele>
        <time>2023-04-28T12:02:45Z</time>
      </trkpt>
      <trkpt lat="43.46428" lon="6.29977">
        <ele>205</ele>
        <time>2023-04-28T12:02:46Z</time>
      </trkpt>
      <trkpt lat="43.46429" lon="6.29977">
        <ele>205</ele>
        <time>2023-04-28T12:02:47Z</time>
      </trkpt>
      <trkpt lat="43.4643" lon="6.29976">
        <ele>205</ele>
        <time>2023-04-28T12:02:48Z</time>
      </trkpt>
      <trkpt lat="43.4643" lon="6.29976">
        <ele>204</ele>
        <time>2023-04-28T12:02:49Z</time>
      </trkpt>
      <trkpt lat="43.46431" lon="6.29975">
        <ele>204</ele>
        <time>2023-04-28T12:02:50Z</time>
      </trkpt>
      <trkpt lat="43.46431" lon="6.29975">
        <ele>204</ele>
        <time>2023-04-28T12:02:51Z</time>
      </trkpt>
      <trkpt lat="43.46432" lon="6.29975">
        <ele>204</ele>
        <time>2023-04-28T12:02:52Z</time>
      </trkpt>
      <trkpt lat="43.46432" lon="6.29974">
        <ele>204</ele>
        <time>2023-04-28T12:02:53Z</time>
      </trkpt>
      <trkpt lat="43.46432" lon="6.29974">
        <ele>204</ele>
        <time>2023-04-28T12:02:54Z</time>
      </trkpt>
      <trkpt lat="43.46433" lon="6.29974">
        <ele>204</ele>
        <time>2023-04-28T12:02:55Z</time>
      </trkpt>
      <trkpt lat="43.46433" lon="6.29973">
        <ele>204</ele>
        <time>2023-04-28T12:02:56Z</time>
      </trkpt>
      <trkpt lat="43.46434" lon="6.29973">
        <ele>204</ele>
        <time>2023-04-28T12:02:57Z</time>
      </trkpt>
      <trkpt lat="43.46434" lon="6.29973">
        <ele>204</ele>
        <time>2023-04-28T12:02:58Z</time>
      </trkpt>
      <trkpt lat="43.46434" lon="6.29972">
        <ele>204</ele>
        <time>2023-04-28T12:02:59Z</time>
      </trkpt>
      <trkpt lat="43.46435" lon="6.29972">
        <ele>204</ele>
        <time>2023-04-28T12:03:00Z</time>
      </trkpt>
      <trkpt lat="43.46435" lon="6.29972">
        <ele>204</ele>
        <time>2023-04-28T12:03:01Z</time>
      </trkpt>
      <trkpt lat="43.46435" lon="6.29972">
        <ele>204</ele>
        <time>2023-04-28T12:03:02Z</time>
      </trkpt>
      <trkpt lat="43.46435" lon="6.29972">
        <ele>204</ele>
        <time>2023-04-28T12:03:03Z</time>
      </trkpt>
      <trkpt lat="43.46435" lon="6.29972">
        <ele>204</ele>
        <time>2023-04-28T12:03:04Z</time>
      </trkpt>
      <trkpt lat="43.46435" lon="6.29972">
        <ele>204</ele>
        <time>2023-04-28T12:03:05Z</time>
      </trkpt>
      <trkpt lat="43.46435" lon="6.29971">
        <ele>204</ele>
        <time>2023-04-28T12:03:06Z</time>
      </trkpt>
      <trkpt lat="43.46435" lon="6.29971">
        <ele>204</ele>
        <time>2023-04-28T12:03:07Z</time>
      </trkpt>
      <trkpt lat="43.46435" lon="6.29971">
        <ele>204</ele>
        <time>2023-04-28T12:03:08Z</time>
      </trkpt>
      <trkpt lat="43.46436" lon="6.29971">
        <ele>204</ele>
        <time>2023-04-28T12:03:09Z</time>
      </trkpt>
      <trkpt lat="43.46436" lon="6.29971">
        <ele>204</ele>
        <time>2023-04-28T12:03:10Z</time>
      </trkpt>
      <trkpt lat="43.46436" lon="6.29971">
        <ele>204</ele>
        <time>2023-04-28T12:03:11Z</time>
      </trkpt>
      <trkpt lat="43.46436" lon="6.2997">
        <ele>204</ele>
        <time>2023-04-28T12:03:12Z</time>
      </trkpt>
      <trkpt lat="43.46436" lon="6.2997">
        <ele>204</ele>
        <time>2023-04-28T12:03:13Z</time>
      </trkpt>
      <trkpt lat="43.46437" lon="6.2997">
        <ele>204</ele>
        <time>2023-04-28T12:03:14Z</time>
      </trkpt>
      <trkpt lat="43.46437" lon="6.2997">
        <ele>204</ele>
        <time>2023-04-28T12:03:15Z</time>
      </trkpt>
      <trkpt lat="43.46437" lon="6.2997">
        <ele>204</ele>
        <time>2023-04-28T12:03:16Z</time>
      </trkpt>
      <trkpt lat="43.46437" lon="6.2997">
        <ele>204</ele>
        <time>2023-04-28T12:03:17Z</time>
      </trkpt>
      <trkpt lat="43.46437" lon="6.2997">
        <ele>204</ele>
        <time>2023-04-28T12:03:18Z</time>
      </trkpt>
      <trkpt lat="43.46438" lon="6.2997">
        <ele>204</ele>
        <time>2023-04-28T12:03:19Z</time>
      </trkpt>
      <trkpt lat="43.46439" lon="6.2997">
        <ele>204</ele>
        <time>2023-04-28T12:03:20Z</time>
      </trkpt>
      <trkpt lat="43.46439" lon="6.2997">
        <ele>204</ele>
        <time>2023-04-28T12:03:21Z</time>
      </trkpt>
      <trkpt lat="43.4644" lon="6.2997">
        <ele>204</ele>
        <time>2023-04-28T12:03:22Z</time>
      </trkpt>
      <trkpt lat="43.4644" lon="6.2997">
        <ele>204</ele>
        <time>2023-04-28T12:03:23Z</time>
      </trkpt>
      <trkpt lat="43.46441" lon="6.2997">
        <ele>204</ele>
        <time>2023-04-28T12:03:24Z</time>
      </trkpt>
      <trkpt lat="43.46442" lon="6.2997">
        <ele>204</ele>
        <time>2023-04-28T12:03:25Z</time>
      </trkpt>
      <trkpt lat="43.46442" lon="6.2997">
        <ele>205</ele>
        <time>2023-04-28T12:03:26Z</time>
      </trkpt>
      <trkpt lat="43.46442" lon="6.2997">
        <ele>205</ele>
        <time>2023-04-28T12:03:27Z</time>
      </trkpt>
      <trkpt lat="43.46443" lon="6.2997">
        <ele>205</ele>
        <time>2023-04-28T12:03:28Z</time>
      </trkpt>
      <trkpt lat="43.46443" lon="6.2997">
        <ele>205</ele>
        <time>2023-04-28T12:03:29Z</time>
      </trkpt>
      <trkpt lat="43.46444" lon="6.2997">
        <ele>205</ele>
        <time>2023-04-28T12:03:30Z</time>
      </trkpt>
      <trkpt lat="43.46444" lon="6.2997">
        <ele>205</ele>
        <time>2023-04-28T12:03:31Z</time>
      </trkpt>
      <trkpt lat="43.46445" lon="6.29969">
        <ele>206</ele>
        <time>2023-04-28T12:03:32Z</time>
      </trkpt>
      <trkpt lat="43.46446" lon="6.29969">
        <ele>206</ele>
        <time>2023-04-28T12:03:33Z</time>
      </trkpt>
      <trkpt lat="43.46447" lon="6.29969">
        <ele>206</ele>
        <time>2023-04-28T12:03:34Z</time>
      </trkpt>
      <trkpt lat="43.46448" lon="6.29969">
        <ele>206</ele>
        <time>2023-04-28T12:03:35Z</time>
      </trkpt>
      <trkpt lat="43.46448" lon="6.29968">
        <ele>206</ele>
        <time>2023-04-28T12:03:36Z</time>
      </trkpt>
      <trkpt lat="43.46449" lon="6.29968">
        <ele>206</ele>
        <time>2023-04-28T12:03:37Z</time>
      </trkpt>
      <trkpt lat="43.4645" lon="6.29968">
        <ele>206</ele>
        <time>2023-04-28T12:03:38Z</time>
      </trkpt>
      <trkpt lat="43.4645" lon="6.29968">
        <ele>206</ele>
        <time>2023-04-28T12:03:39Z</time>
      </trkpt>
      <trkpt lat="43.46451" lon="6.29967">
        <ele>206</ele>
        <time>2023-04-28T12:03:40Z</time>
      </trkpt>
      <trkpt lat="43.46451" lon="6.29967">
        <ele>206</ele>
        <time>2023-04-28T12:03:41Z</time>
      </trkpt>
      <trkpt lat="43.46452" lon="6.29966">
        <ele>206</ele>
        <time>2023-04-28T12:03:42Z</time>
      </trkpt>
      <trkpt lat="43.46453" lon="6.29966">
        <ele>205</ele>
        <time>2023-04-28T12:03:43Z</time>
      </trkpt>
      <trkpt lat="43.46454" lon="6.29966">
        <ele>205</ele>
        <time>2023-04-28T12:03:44Z</time>
      </trkpt>
      <trkpt lat="43.46455" lon="6.29965">
        <ele>205</ele>
        <time>2023-04-28T12:03:45Z</time>
      </trkpt>
      <trkpt lat="43.46456" lon="6.29965">
        <ele>205</ele>
        <time>2023-04-28T12:03:46Z</time>
      </trkpt>
      <trkpt lat="43.46457" lon="6.29964">
        <ele>205</ele>
        <time>2023-04-28T12:03:47Z</time>
      </trkpt>
      <trkpt lat="43.46458" lon="6.29964">
        <ele>205</ele>
        <time>2023-04-28T12:03:48Z</time>
      </trkpt>
      <trkpt lat="43.46459" lon="6.29963">
        <ele>205</ele>
        <time>2023-04-28T12:03:49Z</time>
      </trkpt>
      <trkpt lat="43.46459" lon="6.29962">
        <ele>205</ele>
        <time>2023-04-28T12:03:50Z</time>
      </trkpt>
      <trkpt lat="43.4646" lon="6.29962">
        <ele>205</ele>
        <time>2023-04-28T12:03:51Z</time>
      </trkpt>
      <trkpt lat="43.46461" lon="6.29961">
        <ele>205</ele>
        <time>2023-04-28T12:03:52Z</time>
      </trkpt>
      <trkpt lat="43.46462" lon="6.2996">
        <ele>205</ele>
        <time>2023-04-28T12:03:53Z</time>
      </trkpt>
      <trkpt lat="43.46463" lon="6.2996">
        <ele>204</ele>
        <time>2023-04-28T12:03:54Z</time>
      </trkpt>
      <trkpt lat="43.46464" lon="6.29959">
        <ele>204</ele>
        <time>2023-04-28T12:03:55Z</time>
      </trkpt>
      <trkpt lat="43.46464" lon="6.29959">
        <ele>204</ele>
        <time>2023-04-28T12:03:56Z</time>
      </trkpt>
      <trkpt lat="43.46465" lon="6.29958">
        <ele>203</ele>
        <time>2023-04-28T12:03:57Z</time>
      </trkpt>
      <trkpt lat="43.46466" lon="6.29957">
        <ele>203</ele>
        <time>2023-04-28T12:03:58Z</time>
      </trkpt>
      <trkpt lat="43.46467" lon="6.29957">
        <ele>203</ele>
        <time>2023-04-28T12:03:59Z</time>
      </trkpt>
      <trkpt lat="43.46468" lon="6.29956">
        <ele>203</ele>
        <time>2023-04-28T12:04:00Z</time>
      </trkpt>
      <trkpt lat="43.46469" lon="6.29955">
        <ele>203</ele>
        <time>2023-04-28T12:04:01Z</time>
      </trkpt>
      <trkpt lat="43.46469" lon="6.29955">
        <ele>203</ele>
        <time>2023-04-28T12:04:02Z</time>
      </trkpt>
      <trkpt lat="43.4647" lon="6.29954">
        <ele>203</ele>
        <time>2023-04-28T12:04:03Z</time>
      </trkpt>
      <trkpt lat="43.46471" lon="6.29953">
        <ele>203</ele>
        <time>2023-04-28T12:04:04Z</time>
      </trkpt>
      <trkpt lat="43.46472" lon="6.29953">
        <ele>203</ele>
        <time>2023-04-28T12:04:05Z</time>
      </trkpt>
      <trkpt lat="43.46473" lon="6.29952">
        <ele>202</ele>
        <time>2023-04-28T12:04:06Z</time>
      </trkpt>
      <trkpt lat="43.46474" lon="6.29952">
        <ele>202</ele>
        <time>2023-04-28T12:04:07Z</time>
      </trkpt>
      <trkpt lat="43.46475" lon="6.29951">
        <ele>202</ele>
        <time>2023-04-28T12:04:08Z</time>
      </trkpt>
      <trkpt lat="43.46475" lon="6.2995">
        <ele>201</ele>
        <time>2023-04-28T12:04:09Z</time>
      </trkpt>
      <trkpt lat="43.46476" lon="6.2995">
        <ele>201</ele>
        <time>2023-04-28T12:04:10Z</time>
      </trkpt>
      <trkpt lat="43.46477" lon="6.29949">
        <ele>201</ele>
        <time>2023-04-28T12:04:11Z</time>
      </trkpt>
      <trkpt lat="43.46478" lon="6.29948">
        <ele>201</ele>
        <time>2023-04-28T12:04:12Z</time>
      </trkpt>
      <trkpt lat="43.46479" lon="6.29948">
        <ele>201</ele>
        <time>2023-04-28T12:04:13Z</time>
      </trkpt>
      <trkpt lat="43.4648" lon="6.29948">
        <ele>201</ele>
        <time>2023-04-28T12:04:14Z</time>
      </trkpt>
      <trkpt lat="43.46481" lon="6.29947">
        <ele>201</ele>
        <time>2023-04-28T12:04:15Z</time>
      </trkpt>
      <trkpt lat="43.46482" lon="6.29947">
        <ele>200</ele>
        <time>2023-04-28T12:04:16Z</time>
      </trkpt>
      <trkpt lat="43.46483" lon="6.29946">
        <ele>200</ele>
        <time>2023-04-28T12:04:17Z</time>
      </trkpt>
      <trkpt lat="43.46484" lon="6.29946">
        <ele>200</ele>
        <time>2023-04-28T12:04:18Z</time>
      </trkpt>
      <trkpt lat="43.46484" lon="6.29945">
        <ele>200</ele>
        <time>2023-04-28T12:04:19Z</time>
      </trkpt>
      <trkpt lat="43.46485" lon="6.29945">
        <ele>200</ele>
        <time>2023-04-28T12:04:20Z</time>
      </trkpt>
      <trkpt lat="43.46486" lon="6.29944">
        <ele>200</ele>
        <time>2023-04-28T12:04:21Z</time>
      </trkpt>
      <trkpt lat="43.46487" lon="6.29943">
        <ele>200</ele>
        <time>2023-04-28T12:04:22Z</time>
      </trkpt>
      <trkpt lat="43.46487" lon="6.29942">
        <ele>200</ele>
        <time>2023-04-28T12:04:23Z</time>
      </trkpt>
      <trkpt lat="43.46488" lon="6.29942">
        <ele>200</ele>
        <time>2023-04-28T12:04:24Z</time>
      </trkpt>
      <trkpt lat="43.46489" lon="6.29941">
        <ele>200</ele>
        <time>2023-04-28T12:04:25Z</time>
      </trkpt>
      <trkpt lat="43.4649" lon="6.2994">
        <ele>200</ele>
        <time>2023-04-28T12:04:26Z</time>
      </trkpt>
      <trkpt lat="43.4649" lon="6.2994">
        <ele>200</ele>
        <time>2023-04-28T12:04:27Z</time>
      </trkpt>
      <trkpt lat="43.46491" lon="6.29939">
        <ele>200</ele>
        <time>2023-04-28T12:04:28Z</time>
      </trkpt>
      <trkpt lat="43.46492" lon="6.29938">
        <ele>200</ele>
        <time>2023-04-28T12:04:29Z</time>
      </trkpt>
      <trkpt lat="43.46493" lon="6.29938">
        <ele>200</ele>
        <time>2023-04-28T12:04:30Z</time>
      </trkpt>
      <trkpt lat="43.46493" lon="6.29938">
        <ele>200</ele>
        <time>2023-04-28T12:04:31Z</time>
      </trkpt>
      <trkpt lat="43.46494" lon="6.29937">
        <ele>200</ele>
        <time>2023-04-28T12:04:32Z</time>
      </trkpt>
      <trkpt lat="43.46495" lon="6.29937">
        <ele>200</ele>
        <time>2023-04-28T12:04:33Z</time>
      </trkpt>
      <trkpt lat="43.46496" lon="6.29936">
        <ele>200</ele>
        <time>2023-04-28T12:04:34Z</time>
      </trkpt>
      <trkpt lat="43.46497" lon="6.29935">
        <ele>199</ele>
        <time>2023-04-28T12:04:35Z</time>
      </trkpt>
      <trkpt lat="43.46498" lon="6.29935">
        <ele>199</ele>
        <time>2023-04-28T12:04:36Z</time>
      </trkpt>
      <trkpt lat="43.46499" lon="6.29933">
        <ele>199</ele>
        <time>2023-04-28T12:04:37Z</time>
      </trkpt>
      <trkpt lat="43.46499" lon="6.29932">
        <ele>199</ele>
        <time>2023-04-28T12:04:38Z</time>
      </trkpt>
      <trkpt lat="43.465" lon="6.29931">
        <ele>198</ele>
        <time>2023-04-28T12:04:39Z</time>
      </trkpt>
      <trkpt lat="43.46501" lon="6.2993">
        <ele>198</ele>
        <time>2023-04-28T12:04:40Z</time>
      </trkpt>
      <trkpt lat="43.46502" lon="6.2993">
        <ele>198</ele>
        <time>2023-04-28T12:04:41Z</time>
      </trkpt>
      <trkpt lat="43.46503" lon="6.29929">
        <ele>198</ele>
        <time>2023-04-28T12:04:42Z</time>
      </trkpt>
      <trkpt lat="43.46503" lon="6.29929">
        <ele>197</ele>
        <time>2023-04-28T12:04:43Z</time>
      </trkpt>
      <trkpt lat="43.46504" lon="6.29928">
        <ele>197</ele>
        <time>2023-04-28T12:04:44Z</time>
      </trkpt>
      <trkpt lat="43.46504" lon="6.29928">
        <ele>197</ele>
        <time>2023-04-28T12:04:45Z</time>
      </trkpt>
      <trkpt lat="43.46505" lon="6.29927">
        <ele>197</ele>
        <time>2023-04-28T12:04:46Z</time>
      </trkpt>
      <trkpt lat="43.46506" lon="6.29926">
        <ele>197</ele>
        <time>2023-04-28T12:04:47Z</time>
      </trkpt>
      <trkpt lat="43.46507" lon="6.29926">
        <ele>197</ele>
        <time>2023-04-28T12:04:48Z</time>
      </trkpt>
      <trkpt lat="43.46507" lon="6.29925">
        <ele>197</ele>
        <time>2023-04-28T12:04:49Z</time>
      </trkpt>
      <trkpt lat="43.46508" lon="6.29924">
        <ele>195</ele>
        <time>2023-04-28T12:04:50Z</time>
      </trkpt>
      <trkpt lat="43.46508" lon="6.29923">
        <ele>195</ele>
        <time>2023-04-28T12:04:51Z</time>
      </trkpt>
      <trkpt lat="43.46509" lon="6.29922">
        <ele>194</ele>
        <time>2023-04-28T12:04:52Z</time>
      </trkpt>
      <trkpt lat="43.4651" lon="6.29921">
        <ele>194</ele>
        <time>2023-04-28T12:04:53Z</time>
      </trkpt>
      <trkpt lat="43.46511" lon="6.29921">
        <ele>194</ele>
        <time>2023-04-28T12:04:54Z</time>
      </trkpt>
      <trkpt lat="43.46512" lon="6.2992">
        <ele>194</ele>
        <time>2023-04-28T12:04:55Z</time>
      </trkpt>
      <trkpt lat="43.46512" lon="6.29919">
        <ele>193</ele>
        <time>2023-04-28T12:04:56Z</time>
      </trkpt>
      <trkpt lat="43.46513" lon="6.29918">
        <ele>193</ele>
        <time>2023-04-28T12:04:57Z</time>
      </trkpt>
      <trkpt lat="43.46514" lon="6.29918">
        <ele>193</ele>
        <time>2023-04-28T12:04:58Z</time>
      </trkpt>
      <trkpt lat="43.46515" lon="6.29917">
        <ele>193</ele>
        <time>2023-04-28T12:04:59Z</time>
      </trkpt>
      <trkpt lat="43.46516" lon="6.29917">
        <ele>193</ele>
        <time>2023-04-28T12:05:00Z</time>
      </trkpt>
      <trkpt lat="43.46517" lon="6.29916">
        <ele>193</ele>
        <time>2023-04-28T12:05:01Z</time>
      </trkpt>
      <trkpt lat="43.46518" lon="6.29915">
        <ele>193</ele>
        <time>2023-04-28T12:05:02Z</time>
      </trkpt>
      <trkpt lat="43.46518" lon="6.29915">
        <ele>192</ele>
        <time>2023-04-28T12:05:03Z</time>
      </trkpt>
      <trkpt lat="43.46519" lon="6.29914">
        <ele>192</ele>
        <time>2023-04-28T12:05:04Z</time>
      </trkpt>
      <trkpt lat="43.4652" lon="6.29913">
        <ele>192</ele>
        <time>2023-04-28T12:05:05Z</time>
      </trkpt>
      <trkpt lat="43.46521" lon="6.29913">
        <ele>192</ele>
        <time>2023-04-28T12:05:06Z</time>
      </trkpt>
      <trkpt lat="43.46522" lon="6.29912">
        <ele>192</ele>
        <time>2023-04-28T12:05:07Z</time>
      </trkpt>
      <trkpt lat="43.46523" lon="6.29912">
        <ele>192</ele>
        <time>2023-04-28T12:05:08Z</time>
      </trkpt>
      <trkpt lat="43.46523" lon="6.29911">
        <ele>192</ele>
        <time>2023-04-28T12:05:09Z</time>
      </trkpt>
      <trkpt lat="43.46524" lon="6.2991">
        <ele>192</ele>
        <time>2023-04-28T12:05:10Z</time>
      </trkpt>
      <trkpt lat="43.46525" lon="6.2991">
        <ele>192</ele>
        <time>2023-04-28T12:05:11Z</time>
      </trkpt>
      <trkpt lat="43.46525" lon="6.29909">
        <ele>192</ele>
        <time>2023-04-28T12:05:12Z</time>
      </trkpt>
      <trkpt lat="43.46525" lon="6.29909">
        <ele>192</ele>
        <time>2023-04-28T12:05:13Z</time>
      </trkpt>
      <trkpt lat="43.46526" lon="6.29909">
        <ele>192</ele>
        <time>2023-04-28T12:05:14Z</time>
      </trkpt>
      <trkpt lat="43.46527" lon="6.29909">
        <ele>192</ele>
        <time>2023-04-28T12:05:15Z</time>
      </trkpt>
      <trkpt lat="43.46527" lon="6.29908">
        <ele>192</ele>
        <time>2023-04-28T12:05:16Z</time>
      </trkpt>
      <trkpt lat="43.46528" lon="6.29908">
        <ele>192</ele>
        <time>2023-04-28T12:05:17Z</time>
      </trkpt>
      <trkpt lat="43.46529" lon="6.29907">
        <ele>193</ele>
        <time>2023-04-28T12:05:18Z</time>
      </trkpt>
      <trkpt lat="43.4653" lon="6.29907">
        <ele>193</ele>
        <time>2023-04-28T12:05:19Z</time>
      </trkpt>
      <trkpt lat="43.46531" lon="6.29906">
        <ele>193</ele>
        <time>2023-04-28T12:05:20Z</time>
      </trkpt>
      <trkpt lat="43.46532" lon="6.29906">
        <ele>193</ele>
        <time>2023-04-28T12:05:21Z</time>
      </trkpt>
      <trkpt lat="43.46533" lon="6.29907">
        <ele>193</ele>
        <time>2023-04-28T12:05:22Z</time>
      </trkpt>
      <trkpt lat="43.46533" lon="6.29907">
        <ele>193</ele>
        <time>2023-04-28T12:05:23Z</time>
      </trkpt>
      <trkpt lat="43.46534" lon="6.29907">
        <ele>193</ele>
        <time>2023-04-28T12:05:24Z</time>
      </trkpt>
      <trkpt lat="43.46534" lon="6.29907">
        <ele>194</ele>
        <time>2023-04-28T12:05:25Z</time>
      </trkpt>
      <trkpt lat="43.46535" lon="6.29906">
        <ele>194</ele>
        <time>2023-04-28T12:05:26Z</time>
      </trkpt>
      <trkpt lat="43.46535" lon="6.29906">
        <ele>194</ele>
        <time>2023-04-28T12:05:27Z</time>
      </trkpt>
      <trkpt lat="43.46536" lon="6.29906">
        <ele>194</ele>
        <time>2023-04-28T12:05:28Z</time>
      </trkpt>
      <trkpt lat="43.46537" lon="6.29906">
        <ele>194</ele>
        <time>2023-04-28T12:05:29Z</time>
      </trkpt>
      <trkpt lat="43.46537" lon="6.29905">
        <ele>194</ele>
        <time>2023-04-28T12:05:30Z</time>
      </trkpt>
      <trkpt lat="43.46538" lon="6.29905">
        <ele>194</ele>
        <time>2023-04-28T12:05:31Z</time>
      </trkpt>
      <trkpt lat="43.46539" lon="6.29904">
        <ele>194</ele>
        <time>2023-04-28T12:05:32Z</time>
      </trkpt>
      <trkpt lat="43.46539" lon="6.29904">
        <ele>194</ele>
        <time>2023-04-28T12:05:33Z</time>
      </trkpt>
      <trkpt lat="43.4654" lon="6.29904">
        <ele>194</ele>
        <time>2023-04-28T12:05:34Z</time>
      </trkpt>
      <trkpt lat="43.4654" lon="6.29903">
        <ele>193</ele>
        <time>2023-04-28T12:05:35Z</time>
      </trkpt>
      <trkpt lat="43.46541" lon="6.29904">
        <ele>193</ele>
        <time>2023-04-28T12:05:36Z</time>
      </trkpt>
      <trkpt lat="43.46541" lon="6.29903">
        <ele>193</ele>
        <time>2023-04-28T12:05:37Z</time>
      </trkpt>
      <trkpt lat="43.46542" lon="6.29903">
        <ele>193</ele>
        <time>2023-04-28T12:05:38Z</time>
      </trkpt>
      <trkpt lat="43.46543" lon="6.29903">
        <ele>193</ele>
        <time>2023-04-28T12:05:39Z</time>
      </trkpt>
      <trkpt lat="43.46544" lon="6.29903">
        <ele>193</ele>
        <time>2023-04-28T12:05:40Z</time>
      </trkpt>
      <trkpt lat="43.46545" lon="6.29903">
        <ele>193</ele>
        <time>2023-04-28T12:05:41Z</time>
      </trkpt>
      <trkpt lat="43.46545" lon="6.29902">
        <ele>193</ele>
        <time>2023-04-28T12:05:42Z</time>
      </trkpt>
      <trkpt lat="43.46546" lon="6.29902">
        <ele>192</ele>
        <time>2023-04-28T12:05:43Z</time>
      </trkpt>
      <trkpt lat="43.46547" lon="6.29902">
        <ele>192</ele>
        <time>2023-04-28T12:05:44Z</time>
      </trkpt>
      <trkpt lat="43.46548" lon="6.29902">
        <ele>192</ele>
        <time>2023-04-28T12:05:45Z</time>
      </trkpt>
      <trkpt lat="43.46549" lon="6.29901">
        <ele>192</ele>
        <time>2023-04-28T12:05:46Z</time>
      </trkpt>
      <trkpt lat="43.46549" lon="6.29901">
        <ele>192</ele>
        <time>2023-04-28T12:05:47Z</time>
      </trkpt>
      <trkpt lat="43.4655" lon="6.29901">
        <ele>192</ele>
        <time>2023-04-28T12:05:48Z</time>
      </trkpt>
      <trkpt lat="43.46551" lon="6.29901">
        <ele>192</ele>
        <time>2023-04-28T12:05:49Z</time>
      </trkpt>
      <trkpt lat="43.46551" lon="6.29901">
        <ele>192</ele>
        <time>2023-04-28T12:05:50Z</time>
      </trkpt>
      <trkpt lat="43.46552" lon="6.29901">
        <ele>192</ele>
        <time>2023-04-28T12:05:51Z</time>
      </trkpt>
      <trkpt lat="43.46553" lon="6.29901">
        <ele>192</ele>
        <time>2023-04-28T12:05:52Z</time>
      </trkpt>
      <trkpt lat="43.46554" lon="6.299">
        <ele>192</ele>
        <time>2023-04-28T12:05:53Z</time>
      </trkpt>
      <trkpt lat="43.46554" lon="6.299">
        <ele>192</ele>
        <time>2023-04-28T12:05:54Z</time>
      </trkpt>
      <trkpt lat="43.46555" lon="6.29901">
        <ele>192</ele>
        <time>2023-04-28T12:05:55Z</time>
      </trkpt>
      <trkpt lat="43.46556" lon="6.29901">
        <ele>192</ele>
        <time>2023-04-28T12:05:56Z</time>
      </trkpt>
      <trkpt lat="43.46557" lon="6.29901">
        <ele>192</ele>
        <time>2023-04-28T12:05:57Z</time>
      </trkpt>
      <trkpt lat="43.46557" lon="6.29901">
        <ele>192</ele>
        <time>2023-04-28T12:05:58Z</time>
      </trkpt>
      <trkpt lat="43.46558" lon="6.29902">
        <ele>192</ele>
        <time>2023-04-28T12:05:59Z</time>
      </trkpt>
      <trkpt lat="43.46558" lon="6.29902">
        <ele>192</ele>
        <time>2023-04-28T12:06:00Z</time>
      </trkpt>
      <trkpt lat="43.46559" lon="6.29902">
        <ele>192</ele>
        <time>2023-04-28T12:06:01Z</time>
      </trkpt>
      <trkpt lat="43.46559" lon="6.29902">
        <ele>192</ele>
        <time>2023-04-28T12:06:02Z</time>
      </trkpt>
      <trkpt lat="43.4656" lon="6.29902">
        <ele>192</ele>
        <time>2023-04-28T12:06:03Z</time>
      </trkpt>
      <trkpt lat="43.46561" lon="6.29902">
        <ele>192</ele>
        <time>2023-04-28T12:06:04Z</time>
      </trkpt>
      <trkpt lat="43.46561" lon="6.29902">
        <ele>192</ele>
        <time>2023-04-28T12:06:05Z</time>
      </trkpt>
      <trkpt lat="43.46562" lon="6.29902">
        <ele>192</ele>
        <time>2023-04-28T12:06:06Z</time>
      </trkpt>
      <trkpt lat="43.46563" lon="6.29901">
        <ele>192</ele>
        <time>2023-04-28T12:06:07Z</time>
      </trkpt>
      <trkpt lat="43.46563" lon="6.29901">
        <ele>192</ele>
        <time>2023-04-28T12:06:08Z</time>
      </trkpt>
      <trkpt lat="43.46563" lon="6.29901">
        <ele>192</ele>
        <time>2023-04-28T12:06:09Z</time>
      </trkpt>
      <trkpt lat="43.46564" lon="6.299">
        <ele>192</ele>
        <time>2023-04-28T12:06:10Z</time>
      </trkpt>
      <trkpt lat="43.46563" lon="6.29899">
        <ele>192</ele>
        <time>2023-04-28T12:06:11Z</time>
      </trkpt>
      <trkpt lat="43.46563" lon="6.29897">
        <ele>192</ele>
        <time>2023-04-28T12:06:12Z</time>
      </trkpt>
      <trkpt lat="43.46563" lon="6.29896">
        <ele>192</ele>
        <time>2023-04-28T12:06:13Z</time>
      </trkpt>
      <trkpt lat="43.46563" lon="6.29896">
        <ele>191</ele>
        <time>2023-04-28T12:06:14Z</time>
      </trkpt>
      <trkpt lat="43.46564" lon="6.29896">
        <ele>191</ele>
        <time>2023-04-28T12:06:15Z</time>
      </trkpt>
      <trkpt lat="43.46565" lon="6.29896">
        <ele>191</ele>
        <time>2023-04-28T12:06:16Z</time>
      </trkpt>
      <trkpt lat="43.46566" lon="6.29896">
        <ele>191</ele>
        <time>2023-04-28T12:06:17Z</time>
      </trkpt>
      <trkpt lat="43.46566" lon="6.29896">
        <ele>191</ele>
        <time>2023-04-28T12:06:18Z</time>
      </trkpt>
      <trkpt lat="43.46567" lon="6.29896">
        <ele>191</ele>
        <time>2023-04-28T12:06:19Z</time>
      </trkpt>
      <trkpt lat="43.46568" lon="6.29896">
        <ele>191</ele>
        <time>2023-04-28T12:06:20Z</time>
      </trkpt>
      <trkpt lat="43.46569" lon="6.29896">
        <ele>191</ele>
        <time>2023-04-28T12:06:21Z</time>
      </trkpt>
      <trkpt lat="43.46569" lon="6.29896">
        <ele>191</ele>
        <time>2023-04-28T12:06:22Z</time>
      </trkpt>
      <trkpt lat="43.4657" lon="6.29896">
        <ele>191</ele>
        <time>2023-04-28T12:06:23Z</time>
      </trkpt>
      <trkpt lat="43.46571" lon="6.29896">
        <ele>191</ele>
        <time>2023-04-28T12:06:24Z</time>
      </trkpt>
      <trkpt lat="43.46571" lon="6.29896">
        <ele>191</ele>
        <time>2023-04-28T12:06:25Z</time>
      </trkpt>
      <trkpt lat="43.46572" lon="6.29897">
        <ele>191</ele>
        <time>2023-04-28T12:06:26Z</time>
      </trkpt>
      <trkpt lat="43.46572" lon="6.29897">
        <ele>191</ele>
        <time>2023-04-28T12:06:27Z</time>
      </trkpt>
      <trkpt lat="43.46572" lon="6.29897">
        <ele>191</ele>
        <time>2023-04-28T12:06:28Z</time>
      </trkpt>
      <trkpt lat="43.46573" lon="6.29897">
        <ele>191</ele>
        <time>2023-04-28T12:06:29Z</time>
      </trkpt>
      <trkpt lat="43.46573" lon="6.29898">
        <ele>191</ele>
        <time>2023-04-28T12:06:30Z</time>
      </trkpt>
      <trkpt lat="43.46574" lon="6.29898">
        <ele>191</ele>
        <time>2023-04-28T12:06:31Z</time>
      </trkpt>
      <trkpt lat="43.46574" lon="6.29899">
        <ele>191</ele>
        <time>2023-04-28T12:06:32Z</time>
      </trkpt>
      <trkpt lat="43.46575" lon="6.29899">
        <ele>191</ele>
        <time>2023-04-28T12:06:33Z</time>
      </trkpt>
      <trkpt lat="43.46576" lon="6.299">
        <ele>190</ele>
        <time>2023-04-28T12:06:34Z</time>
      </trkpt>
      <trkpt lat="43.46576" lon="6.29901">
        <ele>190</ele>
        <time>2023-04-28T12:06:35Z</time>
      </trkpt>
      <trkpt lat="43.46577" lon="6.29902">
        <ele>190</ele>
        <time>2023-04-28T12:06:36Z</time>
      </trkpt>
      <trkpt lat="43.46578" lon="6.29903">
        <ele>190</ele>
        <time>2023-04-28T12:06:37Z</time>
      </trkpt>
      <trkpt lat="43.46579" lon="6.29903">
        <ele>189</ele>
        <time>2023-04-28T12:06:38Z</time>
      </trkpt>
      <trkpt lat="43.4658" lon="6.29903">
        <ele>189</ele>
        <time>2023-04-28T12:06:39Z</time>
      </trkpt>
      <trkpt lat="43.46581" lon="6.29903">
        <ele>189</ele>
        <time>2023-04-28T12:06:40Z</time>
      </trkpt>
      <trkpt lat="43.46581" lon="6.29903">
        <ele>189</ele>
        <time>2023-04-28T12:06:41Z</time>
      </trkpt>
      <trkpt lat="43.46582" lon="6.29903">
        <ele>189</ele>
        <time>2023-04-28T12:06:42Z</time>
      </trkpt>
      <trkpt lat="43.46583" lon="6.29903">
        <ele>189</ele>
        <time>2023-04-28T12:06:43Z</time>
      </trkpt>
      <trkpt lat="43.46583" lon="6.29902">
        <ele>189</ele>
        <time>2023-04-28T12:06:44Z</time>
      </trkpt>
      <trkpt lat="43.46584" lon="6.29902">
        <ele>189</ele>
        <time>2023-04-28T12:06:45Z</time>
      </trkpt>
      <trkpt lat="43.46584" lon="6.29902">
        <ele>189</ele>
        <time>2023-04-28T12:06:46Z</time>
      </trkpt>
      <trkpt lat="43.46585" lon="6.29901">
        <ele>189</ele>
        <time>2023-04-28T12:06:47Z</time>
      </trkpt>
      <trkpt lat="43.46585" lon="6.29901">
        <ele>189</ele>
        <time>2023-04-28T12:06:48Z</time>
      </trkpt>
      <trkpt lat="43.46586" lon="6.29901">
        <ele>189</ele>
        <time>2023-04-28T12:06:49Z</time>
      </trkpt>
      <trkpt lat="43.46587" lon="6.29901">
        <ele>188</ele>
        <time>2023-04-28T12:06:50Z</time>
      </trkpt>
      <trkpt lat="43.46588" lon="6.29901">
        <ele>188</ele>
        <time>2023-04-28T12:06:51Z</time>
      </trkpt>
      <trkpt lat="43.46589" lon="6.29901">
        <ele>188</ele>
        <time>2023-04-28T12:06:52Z</time>
      </trkpt>
      <trkpt lat="43.4659" lon="6.29902">
        <ele>188</ele>
        <time>2023-04-28T12:06:53Z</time>
      </trkpt>
      <trkpt lat="43.4659" lon="6.29902">
        <ele>188</ele>
        <time>2023-04-28T12:06:54Z</time>
      </trkpt>
      <trkpt lat="43.46591" lon="6.29902">
        <ele>188</ele>
        <time>2023-04-28T12:06:55Z</time>
      </trkpt>
      <trkpt lat="43.46592" lon="6.29903">
        <ele>188</ele>
        <time>2023-04-28T12:06:56Z</time>
      </trkpt>
      <trkpt lat="43.46593" lon="6.29903">
        <ele>187</ele>
        <time>2023-04-28T12:06:57Z</time>
      </trkpt>
      <trkpt lat="43.46594" lon="6.29903">
        <ele>187</ele>
        <time>2023-04-28T12:06:58Z</time>
      </trkpt>
      <trkpt lat="43.46594" lon="6.29904">
        <ele>187</ele>
        <time>2023-04-28T12:06:59Z</time>
      </trkpt>
      <trkpt lat="43.46595" lon="6.29904">
        <ele>187</ele>
        <time>2023-04-28T12:07:00Z</time>
      </trkpt>
      <trkpt lat="43.46596" lon="6.29905">
        <ele>187</ele>
        <time>2023-04-28T12:07:01Z</time>
      </trkpt>
      <trkpt lat="43.46597" lon="6.29905">
        <ele>187</ele>
        <time>2023-04-28T12:07:02Z</time>
      </trkpt>
      <trkpt lat="43.46597" lon="6.29905">
        <ele>187</ele>
        <time>2023-04-28T12:07:03Z</time>
      </trkpt>
      <trkpt lat="43.46598" lon="6.29906">
        <ele>187</ele>
        <time>2023-04-28T12:07:04Z</time>
      </trkpt>
      <trkpt lat="43.46598" lon="6.29906">
        <ele>187</ele>
        <time>2023-04-28T12:07:05Z</time>
      </trkpt>
      <trkpt lat="43.46599" lon="6.29907">
        <ele>187</ele>
        <time>2023-04-28T12:07:06Z</time>
      </trkpt>
      <trkpt lat="43.466" lon="6.29907">
        <ele>186</ele>
        <time>2023-04-28T12:07:07Z</time>
      </trkpt>
      <trkpt lat="43.466" lon="6.29908">
        <ele>186</ele>
        <time>2023-04-28T12:07:08Z</time>
      </trkpt>
      <trkpt lat="43.46601" lon="6.29908">
        <ele>186</ele>
        <time>2023-04-28T12:07:09Z</time>
      </trkpt>
      <trkpt lat="43.46602" lon="6.29909">
        <ele>186</ele>
        <time>2023-04-28T12:07:10Z</time>
      </trkpt>
      <trkpt lat="43.46603" lon="6.29909">
        <ele>186</ele>
        <time>2023-04-28T12:07:11Z</time>
      </trkpt>
      <trkpt lat="43.46604" lon="6.2991">
        <ele>186</ele>
        <time>2023-04-28T12:07:12Z</time>
      </trkpt>
      <trkpt lat="43.46605" lon="6.2991">
        <ele>185</ele>
        <time>2023-04-28T12:07:13Z</time>
      </trkpt>
      <trkpt lat="43.46605" lon="6.29911">
        <ele>185</ele>
        <time>2023-04-28T12:07:14Z</time>
      </trkpt>
      <trkpt lat="43.46606" lon="6.29911">
        <ele>185</ele>
        <time>2023-04-28T12:07:15Z</time>
      </trkpt>
      <trkpt lat="43.46607" lon="6.29912">
        <ele>184</ele>
        <time>2023-04-28T12:07:16Z</time>
      </trkpt>
      <trkpt lat="43.46608" lon="6.29913">
        <ele>184</ele>
        <time>2023-04-28T12:07:17Z</time>
      </trkpt>
      <trkpt lat="43.46608" lon="6.29913">
        <ele>184</ele>
        <time>2023-04-28T12:07:18Z</time>
      </trkpt>
      <trkpt lat="43.46609" lon="6.29914">
        <ele>184</ele>
        <time>2023-04-28T12:07:19Z</time>
      </trkpt>
      <trkpt lat="43.46609" lon="6.29915">
        <ele>184</ele>
        <time>2023-04-28T12:07:20Z</time>
      </trkpt>
      <trkpt lat="43.4661" lon="6.29916">
        <ele>184</ele>
        <time>2023-04-28T12:07:21Z</time>
      </trkpt>
      <trkpt lat="43.46611" lon="6.29917">
        <ele>183</ele>
        <time>2023-04-28T12:07:22Z</time>
      </trkpt>
      <trkpt lat="43.46611" lon="6.29918">
        <ele>183</ele>
        <time>2023-04-28T12:07:23Z</time>
      </trkpt>
      <trkpt lat="43.46612" lon="6.29919">
        <ele>183</ele>
        <time>2023-04-28T12:07:24Z</time>
      </trkpt>
      <trkpt lat="43.46613" lon="6.2992">
        <ele>182</ele>
        <time>2023-04-28T12:07:25Z</time>
      </trkpt>
      <trkpt lat="43.46614" lon="6.29921">
        <ele>182</ele>
        <time>2023-04-28T12:07:26Z</time>
      </trkpt>
      <trkpt lat="43.46614" lon="6.29922">
        <ele>182</ele>
        <time>2023-04-28T12:07:27Z</time>
      </trkpt>
      <trkpt lat="43.46615" lon="6.29923">
        <ele>181</ele>
        <time>2023-04-28T12:07:28Z</time>
      </trkpt>
      <trkpt lat="43.46615" lon="6.29924">
        <ele>181</ele>
        <time>2023-04-28T12:07:29Z</time>
      </trkpt>
      <trkpt lat="43.46616" lon="6.29925">
        <ele>181</ele>
        <time>2023-04-28T12:07:30Z</time>
      </trkpt>
      <trkpt lat="43.46616" lon="6.29926">
        <ele>181</ele>
        <time>2023-04-28T12:07:31Z</time>
      </trkpt>
      <trkpt lat="43.46617" lon="6.29927">
        <ele>181</ele>
        <time>2023-04-28T12:07:32Z</time>
      </trkpt>
      <trkpt lat="43.46617" lon="6.29928">
        <ele>181</ele>
        <time>2023-04-28T12:07:33Z</time>
      </trkpt>
      <trkpt lat="43.46618" lon="6.29928">
        <ele>181</ele>
        <time>2023-04-28T12:07:34Z</time>
      </trkpt>
      <trkpt lat="43.46618" lon="6.29929">
        <ele>181</ele>
        <time>2023-04-28T12:07:35Z</time>
      </trkpt>
      <trkpt lat="43.46619" lon="6.29929">
        <ele>181</ele>
        <time>2023-04-28T12:07:36Z</time>
      </trkpt>
      <trkpt lat="43.46619" lon="6.29929">
        <ele>181</ele>
        <time>2023-04-28T12:07:37Z</time>
      </trkpt>
      <trkpt lat="43.46619" lon="6.29928">
        <ele>181</ele>
        <time>2023-04-28T12:07:38Z</time>
      </trkpt>
      <trkpt lat="43.4662" lon="6.29929">
        <ele>181</ele>
        <time>2023-04-28T12:07:39Z</time>
      </trkpt>
      <trkpt lat="43.4662" lon="6.29929">
        <ele>181</ele>
        <time>2023-04-28T12:07:40Z</time>
      </trkpt>
      <trkpt lat="43.46621" lon="6.2993">
        <ele>181</ele>
        <time>2023-04-28T12:07:41Z</time>
      </trkpt>
      <trkpt lat="43.46622" lon="6.2993">
        <ele>181</ele>
        <time>2023-04-28T12:07:42Z</time>
      </trkpt>
      <trkpt lat="43.46622" lon="6.29931">
        <ele>181</ele>
        <time>2023-04-28T12:07:43Z</time>
      </trkpt>
      <trkpt lat="43.46623" lon="6.29931">
        <ele>181</ele>
        <time>2023-04-28T12:07:44Z</time>
      </trkpt>
      <trkpt lat="43.46624" lon="6.29932">
        <ele>181</ele>
        <time>2023-04-28T12:07:45Z</time>
      </trkpt>
      <trkpt lat="43.46624" lon="6.29932">
        <ele>181</ele>
        <time>2023-04-28T12:07:46Z</time>
      </trkpt>
      <trkpt lat="43.46625" lon="6.29933">
        <ele>181</ele>
        <time>2023-04-28T12:07:47Z</time>
      </trkpt>
      <trkpt lat="43.46626" lon="6.29933">
        <ele>181</ele>
        <time>2023-04-28T12:07:48Z</time>
      </trkpt>
      <trkpt lat="43.46627" lon="6.29934">
        <ele>181</ele>
        <time>2023-04-28T12:07:49Z</time>
      </trkpt>
      <trkpt lat="43.46628" lon="6.29934">
        <ele>182</ele>
        <time>2023-04-28T12:07:50Z</time>
      </trkpt>
      <trkpt lat="43.46629" lon="6.29935">
        <ele>182</ele>
        <time>2023-04-28T12:07:51Z</time>
      </trkpt>
      <trkpt lat="43.4663" lon="6.29936">
        <ele>182</ele>
        <time>2023-04-28T12:07:52Z</time>
      </trkpt>
      <trkpt lat="43.46631" lon="6.29936">
        <ele>182</ele>
        <time>2023-04-28T12:07:53Z</time>
      </trkpt>
      <trkpt lat="43.46632" lon="6.29937">
        <ele>182</ele>
        <time>2023-04-28T12:07:54Z</time>
      </trkpt>
      <trkpt lat="43.46633" lon="6.29938">
        <ele>182</ele>
        <time>2023-04-28T12:07:55Z</time>
      </trkpt>
      <trkpt lat="43.46634" lon="6.29939">
        <ele>181</ele>
        <time>2023-04-28T12:07:56Z</time>
      </trkpt>
      <trkpt lat="43.46634" lon="6.29941">
        <ele>181</ele>
        <time>2023-04-28T12:07:57Z</time>
      </trkpt>
      <trkpt lat="43.46635" lon="6.29942">
        <ele>181</ele>
        <time>2023-04-28T12:07:58Z</time>
      </trkpt>
      <trkpt lat="43.46636" lon="6.29943">
        <ele>181</ele>
        <time>2023-04-28T12:07:59Z</time>
      </trkpt>
      <trkpt lat="43.46636" lon="6.29944">
        <ele>181</ele>
        <time>2023-04-28T12:08:00Z</time>
      </trkpt>
      <trkpt lat="43.46636" lon="6.29945">
        <ele>180</ele>
        <time>2023-04-28T12:08:01Z</time>
      </trkpt>
      <trkpt lat="43.46637" lon="6.29946">
        <ele>180</ele>
        <time>2023-04-28T12:08:02Z</time>
      </trkpt>
      <trkpt lat="43.46638" lon="6.29948">
        <ele>179</ele>
        <time>2023-04-28T12:08:03Z</time>
      </trkpt>
      <trkpt lat="43.46638" lon="6.29949">
        <ele>179</ele>
        <time>2023-04-28T12:08:04Z</time>
      </trkpt>
      <trkpt lat="43.46639" lon="6.2995">
        <ele>179</ele>
        <time>2023-04-28T12:08:05Z</time>
      </trkpt>
      <trkpt lat="43.46639" lon="6.29952">
        <ele>179</ele>
        <time>2023-04-28T12:08:06Z</time>
      </trkpt>
      <trkpt lat="43.4664" lon="6.29953">
        <ele>179</ele>
        <time>2023-04-28T12:08:07Z</time>
      </trkpt>
      <trkpt lat="43.4664" lon="6.29954">
        <ele>178</ele>
        <time>2023-04-28T12:08:08Z</time>
      </trkpt>
      <trkpt lat="43.46641" lon="6.29955">
        <ele>178</ele>
        <time>2023-04-28T12:08:09Z</time>
      </trkpt>
      <trkpt lat="43.46641" lon="6.29957">
        <ele>178</ele>
        <time>2023-04-28T12:08:10Z</time>
      </trkpt>
      <trkpt lat="43.46642" lon="6.29958">
        <ele>178</ele>
        <time>2023-04-28T12:08:11Z</time>
      </trkpt>
      <trkpt lat="43.46642" lon="6.2996">
        <ele>178</ele>
        <time>2023-04-28T12:08:12Z</time>
      </trkpt>
      <trkpt lat="43.46642" lon="6.29962">
        <ele>178</ele>
        <time>2023-04-28T12:08:13Z</time>
      </trkpt>
      <trkpt lat="43.46642" lon="6.29963">
        <ele>178</ele>
        <time>2023-04-28T12:08:14Z</time>
      </trkpt>
      <trkpt lat="43.46643" lon="6.29965">
        <ele>178</ele>
        <time>2023-04-28T12:08:15Z</time>
      </trkpt>
      <trkpt lat="43.46643" lon="6.29967">
        <ele>177</ele>
        <time>2023-04-28T12:08:16Z</time>
      </trkpt>
      <trkpt lat="43.46643" lon="6.29968">
        <ele>177</ele>
        <time>2023-04-28T12:08:17Z</time>
      </trkpt>
      <trkpt lat="43.46643" lon="6.29969">
        <ele>177</ele>
        <time>2023-04-28T12:08:18Z</time>
      </trkpt>
      <trkpt lat="43.46643" lon="6.2997">
        <ele>176</ele>
        <time>2023-04-28T12:08:19Z</time>
      </trkpt>
      <trkpt lat="43.46643" lon="6.29972">
        <ele>176</ele>
        <time>2023-04-28T12:08:20Z</time>
      </trkpt>
      <trkpt lat="43.46643" lon="6.29973">
        <ele>176</ele>
        <time>2023-04-28T12:08:21Z</time>
      </trkpt>
      <trkpt lat="43.46643" lon="6.29975">
        <ele>176</ele>
        <time>2023-04-28T12:08:22Z</time>
      </trkpt>
      <trkpt lat="43.46644" lon="6.29976">
        <ele>176</ele>
        <time>2023-04-28T12:08:23Z</time>
      </trkpt>
      <trkpt lat="43.46644" lon="6.29978">
        <ele>176</ele>
        <time>2023-04-28T12:08:24Z</time>
      </trkpt>
      <trkpt lat="43.46644" lon="6.29979">
        <ele>176</ele>
        <time>2023-04-28T12:08:25Z</time>
      </trkpt>
      <trkpt lat="43.46644" lon="6.29981">
        <ele>176</ele>
        <time>2023-04-28T12:08:26Z</time>
      </trkpt>
      <trkpt lat="43.46644" lon="6.29982">
        <ele>176</ele>
        <time>2023-04-28T12:08:27Z</time>
      </trkpt>
      <trkpt lat="43.46644" lon="6.29983">
        <ele>176</ele>
        <time>2023-04-28T12:08:28Z</time>
      </trkpt>
      <trkpt lat="43.46645" lon="6.29983">
        <ele>176</ele>
        <time>2023-04-28T12:08:29Z</time>
      </trkpt>
      <trkpt lat="43.46645" lon="6.29984">
        <ele>176</ele>
        <time>2023-04-28T12:08:30Z</time>
      </trkpt>
      <trkpt lat="43.46646" lon="6.29985">
        <ele>176</ele>
        <time>2023-04-28T12:08:31Z</time>
      </trkpt>
      <trkpt lat="43.46646" lon="6.29986">
        <ele>176</ele>
        <time>2023-04-28T12:08:32Z</time>
      </trkpt>
      <trkpt lat="43.46646" lon="6.29988">
        <ele>176</ele>
        <time>2023-04-28T12:08:33Z</time>
      </trkpt>
      <trkpt lat="43.46647" lon="6.29989">
        <ele>177</ele>
        <time>2023-04-28T12:08:34Z</time>
      </trkpt>
      <trkpt lat="43.46647" lon="6.2999">
        <ele>177</ele>
        <time>2023-04-28T12:08:35Z</time>
      </trkpt>
      <trkpt lat="43.46647" lon="6.29991">
        <ele>177</ele>
        <time>2023-04-28T12:08:36Z</time>
      </trkpt>
      <trkpt lat="43.46648" lon="6.29992">
        <ele>177</ele>
        <time>2023-04-28T12:08:37Z</time>
      </trkpt>
      <trkpt lat="43.46648" lon="6.29993">
        <ele>178</ele>
        <time>2023-04-28T12:08:38Z</time>
      </trkpt>
      <trkpt lat="43.46649" lon="6.29993">
        <ele>178</ele>
        <time>2023-04-28T12:08:39Z</time>
      </trkpt>
      <trkpt lat="43.46649" lon="6.29994">
        <ele>178</ele>
        <time>2023-04-28T12:08:40Z</time>
      </trkpt>
      <trkpt lat="43.4665" lon="6.29995">
        <ele>178</ele>
        <time>2023-04-28T12:08:41Z</time>
      </trkpt>
      <trkpt lat="43.4665" lon="6.29997">
        <ele>178</ele>
        <time>2023-04-28T12:08:42Z</time>
      </trkpt>
      <trkpt lat="43.46651" lon="6.29998">
        <ele>178</ele>
        <time>2023-04-28T12:08:43Z</time>
      </trkpt>
      <trkpt lat="43.46651" lon="6.29999">
        <ele>178</ele>
        <time>2023-04-28T12:08:44Z</time>
      </trkpt>
      <trkpt lat="43.46652" lon="6.3">
        <ele>178</ele>
        <time>2023-04-28T12:08:45Z</time>
      </trkpt>
      <trkpt lat="43.46653" lon="6.30001">
        <ele>178</ele>
        <time>2023-04-28T12:08:46Z</time>
      </trkpt>
      <trkpt lat="43.46653" lon="6.30002">
        <ele>178</ele>
        <time>2023-04-28T12:08:47Z</time>
      </trkpt>
      <trkpt lat="43.46654" lon="6.30003">
        <ele>179</ele>
        <time>2023-04-28T12:08:48Z</time>
      </trkpt>
      <trkpt lat="43.46655" lon="6.30003">
        <ele>179</ele>
        <time>2023-04-28T12:08:49Z</time>
      </trkpt>
      <trkpt lat="43.46655" lon="6.30004">
        <ele>179</ele>
        <time>2023-04-28T12:08:50Z</time>
      </trkpt>
      <trkpt lat="43.46656" lon="6.30005">
        <ele>179</ele>
        <time>2023-04-28T12:08:51Z</time>
      </trkpt>
      <trkpt lat="43.46657" lon="6.30006">
        <ele>179</ele>
        <time>2023-04-28T12:08:52Z</time>
      </trkpt>
      <trkpt lat="43.46657" lon="6.30007">
        <ele>179</ele>
        <time>2023-04-28T12:08:53Z</time>
      </trkpt>
      <trkpt lat="43.46658" lon="6.30008">
        <ele>179</ele>
        <time>2023-04-28T12:08:54Z</time>
      </trkpt>
      <trkpt lat="43.46659" lon="6.30009">
        <ele>179</ele>
        <time>2023-04-28T12:08:55Z</time>
      </trkpt>
      <trkpt lat="43.4666" lon="6.30009">
        <ele>179</ele>
        <time>2023-04-28T12:08:56Z</time>
      </trkpt>
      <trkpt lat="43.46661" lon="6.3001">
        <ele>179</ele>
        <time>2023-04-28T12:08:57Z</time>
      </trkpt>
      <trkpt lat="43.46661" lon="6.30011">
        <ele>179</ele>
        <time>2023-04-28T12:08:58Z</time>
      </trkpt>
      <trkpt lat="43.46662" lon="6.30012">
        <ele>179</ele>
        <time>2023-04-28T12:08:59Z</time>
      </trkpt>
      <trkpt lat="43.46663" lon="6.30013">
        <ele>179</ele>
        <time>2023-04-28T12:09:00Z</time>
      </trkpt>
      <trkpt lat="43.46664" lon="6.30014">
        <ele>179</ele>
        <time>2023-04-28T12:09:01Z</time>
      </trkpt>
      <trkpt lat="43.46664" lon="6.30015">
        <ele>179</ele>
        <time>2023-04-28T12:09:02Z</time>
      </trkpt>
      <trkpt lat="43.46665" lon="6.30017">
        <ele>178</ele>
        <time>2023-04-28T12:09:03Z</time>
      </trkpt>
      <trkpt lat="43.46666" lon="6.30018">
        <ele>178</ele>
        <time>2023-04-28T12:09:04Z</time>
      </trkpt>
      <trkpt lat="43.46666" lon="6.30019">
        <ele>178</ele>
        <time>2023-04-28T12:09:05Z</time>
      </trkpt>
      <trkpt lat="43.46667" lon="6.3002">
        <ele>178</ele>
        <time>2023-04-28T12:09:06Z</time>
      </trkpt>
      <trkpt lat="43.46667" lon="6.30021">
        <ele>178</ele>
        <time>2023-04-28T12:09:07Z</time>
      </trkpt>
      <trkpt lat="43.46668" lon="6.30023">
        <ele>178</ele>
        <time>2023-04-28T12:09:08Z</time>
      </trkpt>
      <trkpt lat="43.46668" lon="6.30024">
        <ele>178</ele>
        <time>2023-04-28T12:09:09Z</time>
      </trkpt>
      <trkpt lat="43.46669" lon="6.30026">
        <ele>178</ele>
        <time>2023-04-28T12:09:10Z</time>
      </trkpt>
      <trkpt lat="43.46669" lon="6.30027">
        <ele>178</ele>
        <time>2023-04-28T12:09:11Z</time>
      </trkpt>
      <trkpt lat="43.46669" lon="6.30029">
        <ele>178</ele>
        <time>2023-04-28T12:09:12Z</time>
      </trkpt>
      <trkpt lat="43.46669" lon="6.3003">
        <ele>178</ele>
        <time>2023-04-28T12:09:13Z</time>
      </trkpt>
      <trkpt lat="43.4667" lon="6.30031">
        <ele>178</ele>
        <time>2023-04-28T12:09:14Z</time>
      </trkpt>
      <trkpt lat="43.4667" lon="6.30032">
        <ele>178</ele>
        <time>2023-04-28T12:09:15Z</time>
      </trkpt>
      <trkpt lat="43.46671" lon="6.30034">
        <ele>177</ele>
        <time>2023-04-28T12:09:16Z</time>
      </trkpt>
      <trkpt lat="43.46671" lon="6.30035">
        <ele>177</ele>
        <time>2023-04-28T12:09:17Z</time>
      </trkpt>
      <trkpt lat="43.46672" lon="6.30036">
        <ele>177</ele>
        <time>2023-04-28T12:09:18Z</time>
      </trkpt>
      <trkpt lat="43.46672" lon="6.30037">
        <ele>177</ele>
        <time>2023-04-28T12:09:19Z</time>
      </trkpt>
      <trkpt lat="43.46673" lon="6.30038">
        <ele>177</ele>
        <time>2023-04-28T12:09:20Z</time>
      </trkpt>
      <trkpt lat="43.46673" lon="6.30039">
        <ele>177</ele>
        <time>2023-04-28T12:09:21Z</time>
      </trkpt>
      <trkpt lat="43.46674" lon="6.3004">
        <ele>177</ele>
        <time>2023-04-28T12:09:22Z</time>
      </trkpt>
      <trkpt lat="43.46674" lon="6.30041">
        <ele>177</ele>
        <time>2023-04-28T12:09:23Z</time>
      </trkpt>
      <trkpt lat="43.46674" lon="6.30042">
        <ele>177</ele>
        <time>2023-04-28T12:09:24Z</time>
      </trkpt>
      <trkpt lat="43.46674" lon="6.30043">
        <ele>177</ele>
        <time>2023-04-28T12:09:25Z</time>
      </trkpt>
      <trkpt lat="43.46674" lon="6.30045">
        <ele>177</ele>
        <time>2023-04-28T12:09:26Z</time>
      </trkpt>
      <trkpt lat="43.46674" lon="6.30046">
        <ele>177</ele>
        <time>2023-04-28T12:09:27Z</time>
      </trkpt>
      <trkpt lat="43.46675" lon="6.30047">
        <ele>177</ele>
        <time>2023-04-28T12:09:28Z</time>
      </trkpt>
      <trkpt lat="43.46675" lon="6.30048">
        <ele>177</ele>
        <time>2023-04-28T12:09:29Z</time>
      </trkpt>
      <trkpt lat="43.46676" lon="6.30048">
        <ele>177</ele>
        <time>2023-04-28T12:09:30Z</time>
      </trkpt>
      <trkpt lat="43.46676" lon="6.30049">
        <ele>177</ele>
        <time>2023-04-28T12:09:31Z</time>
      </trkpt>
      <trkpt lat="43.46678" lon="6.30048">
        <ele>178</ele>
        <time>2023-04-28T12:09:32Z</time>
      </trkpt>
      <trkpt lat="43.46679" lon="6.30048">
        <ele>178</ele>
        <time>2023-04-28T12:09:33Z</time>
      </trkpt>
      <trkpt lat="43.4668" lon="6.30047">
        <ele>178</ele>
        <time>2023-04-28T12:09:34Z</time>
      </trkpt>
      <trkpt lat="43.46681" lon="6.30047">
        <ele>178</ele>
        <time>2023-04-28T12:09:35Z</time>
      </trkpt>
      <trkpt lat="43.46682" lon="6.30048">
        <ele>178</ele>
        <time>2023-04-28T12:09:36Z</time>
      </trkpt>
      <trkpt lat="43.46683" lon="6.30049">
        <ele>178</ele>
        <time>2023-04-28T12:09:37Z</time>
      </trkpt>
      <trkpt lat="43.46683" lon="6.3005">
        <ele>178</ele>
        <time>2023-04-28T12:09:38Z</time>
      </trkpt>
      <trkpt lat="43.46684" lon="6.30051">
        <ele>178</ele>
        <time>2023-04-28T12:09:39Z</time>
      </trkpt>
      <trkpt lat="43.46685" lon="6.30053">
        <ele>178</ele>
        <time>2023-04-28T12:09:40Z</time>
      </trkpt>
      <trkpt lat="43.46685" lon="6.30054">
        <ele>178</ele>
        <time>2023-04-28T12:09:41Z</time>
      </trkpt>
      <trkpt lat="43.46686" lon="6.30056">
        <ele>178</ele>
        <time>2023-04-28T12:09:42Z</time>
      </trkpt>
      <trkpt lat="43.46686" lon="6.30058">
        <ele>178</ele>
        <time>2023-04-28T12:09:43Z</time>
      </trkpt>
      <trkpt lat="43.46687" lon="6.30059">
        <ele>178</ele>
        <time>2023-04-28T12:09:44Z</time>
      </trkpt>
      <trkpt lat="43.46688" lon="6.3006">
        <ele>178</ele>
        <time>2023-04-28T12:09:45Z</time>
      </trkpt>
      <trkpt lat="43.46689" lon="6.30062">
        <ele>177</ele>
        <time>2023-04-28T12:09:46Z</time>
      </trkpt>
      <trkpt lat="43.4669" lon="6.30063">
        <ele>177</ele>
        <time>2023-04-28T12:09:47Z</time>
      </trkpt>
      <trkpt lat="43.46691" lon="6.30063">
        <ele>177</ele>
        <time>2023-04-28T12:09:48Z</time>
      </trkpt>
      <trkpt lat="43.46692" lon="6.30064">
        <ele>177</ele>
        <time>2023-04-28T12:09:49Z</time>
      </trkpt>
      <trkpt lat="43.46693" lon="6.30064">
        <ele>177</ele>
        <time>2023-04-28T12:09:50Z</time>
      </trkpt>
      <trkpt lat="43.46693" lon="6.30065">
        <ele>177</ele>
        <time>2023-04-28T12:09:51Z</time>
      </trkpt>
      <trkpt lat="43.46694" lon="6.30066">
        <ele>177</ele>
        <time>2023-04-28T12:09:52Z</time>
      </trkpt>
      <trkpt lat="43.46694" lon="6.30068">
        <ele>177</ele>
        <time>2023-04-28T12:09:53Z</time>
      </trkpt>
      <trkpt lat="43.46695" lon="6.30069">
        <ele>177</ele>
        <time>2023-04-28T12:09:54Z</time>
      </trkpt>
      <trkpt lat="43.46695" lon="6.3007">
        <ele>177</ele>
        <time>2023-04-28T12:09:55Z</time>
      </trkpt>
      <trkpt lat="43.46696" lon="6.30071">
        <ele>177</ele>
        <time>2023-04-28T12:09:56Z</time>
      </trkpt>
      <trkpt lat="43.46696" lon="6.30072">
        <ele>177</ele>
        <time>2023-04-28T12:09:57Z</time>
      </trkpt>
      <trkpt lat="43.46696" lon="6.30074">
        <ele>177</ele>
        <time>2023-04-28T12:09:58Z</time>
      </trkpt>
      <trkpt lat="43.46697" lon="6.30075">
        <ele>177</ele>
        <time>2023-04-28T12:09:59Z</time>
      </trkpt>
      <trkpt lat="43.46697" lon="6.30076">
        <ele>177</ele>
        <time>2023-04-28T12:10:00Z</time>
      </trkpt>
      <trkpt lat="43.46697" lon="6.30077">
        <ele>177</ele>
        <time>2023-04-28T12:10:01Z</time>
      </trkpt>
      <trkpt lat="43.46698" lon="6.30078">
        <ele>177</ele>
        <time>2023-04-28T12:10:02Z</time>
      </trkpt>
      <trkpt lat="43.46698" lon="6.30079">
        <ele>176</ele>
        <time>2023-04-28T12:10:03Z</time>
      </trkpt>
      <trkpt lat="43.46699" lon="6.3008">
        <ele>176</ele>
        <time>2023-04-28T12:10:04Z</time>
      </trkpt>
      <trkpt lat="43.467" lon="6.30081">
        <ele>176</ele>
        <time>2023-04-28T12:10:05Z</time>
      </trkpt>
      <trkpt lat="43.467" lon="6.30081">
        <ele>176</ele>
        <time>2023-04-28T12:10:06Z</time>
      </trkpt>
      <trkpt lat="43.46701" lon="6.30082">
        <ele>176</ele>
        <time>2023-04-28T12:10:07Z</time>
      </trkpt>
      <trkpt lat="43.46702" lon="6.30083">
        <ele>176</ele>
        <time>2023-04-28T12:10:08Z</time>
      </trkpt>
      <trkpt lat="43.46703" lon="6.30084">
        <ele>176</ele>
        <time>2023-04-28T12:10:09Z</time>
      </trkpt>
      <trkpt lat="43.46704" lon="6.30085">
        <ele>176</ele>
        <time>2023-04-28T12:10:10Z</time>
      </trkpt>
      <trkpt lat="43.46705" lon="6.30085">
        <ele>175</ele>
        <time>2023-04-28T12:10:11Z</time>
      </trkpt>
      <trkpt lat="43.46705" lon="6.30087">
        <ele>175</ele>
        <time>2023-04-28T12:10:12Z</time>
      </trkpt>
      <trkpt lat="43.46706" lon="6.30087">
        <ele>175</ele>
        <time>2023-04-28T12:10:13Z</time>
      </trkpt>
      <trkpt lat="43.46707" lon="6.30088">
        <ele>175</ele>
        <time>2023-04-28T12:10:14Z</time>
      </trkpt>
      <trkpt lat="43.46708" lon="6.30089">
        <ele>175</ele>
        <time>2023-04-28T12:10:15Z</time>
      </trkpt>
      <trkpt lat="43.46709" lon="6.3009">
        <ele>175</ele>
        <time>2023-04-28T12:10:16Z</time>
      </trkpt>
      <trkpt lat="43.4671" lon="6.30091">
        <ele>175</ele>
        <time>2023-04-28T12:10:17Z</time>
      </trkpt>
      <trkpt lat="43.46711" lon="6.30092">
        <ele>175</ele>
        <time>2023-04-28T12:10:18Z</time>
      </trkpt>
      <trkpt lat="43.46711" lon="6.30093">
        <ele>175</ele>
        <time>2023-04-28T12:10:19Z</time>
      </trkpt>
      <trkpt lat="43.46712" lon="6.30094">
        <ele>174</ele>
        <time>2023-04-28T12:10:20Z</time>
      </trkpt>
      <trkpt lat="43.46713" lon="6.30095">
        <ele>174</ele>
        <time>2023-04-28T12:10:21Z</time>
      </trkpt>
      <trkpt lat="43.46714" lon="6.30096">
        <ele>174</ele>
        <time>2023-04-28T12:10:22Z</time>
      </trkpt>
      <trkpt lat="43.46715" lon="6.30097">
        <ele>174</ele>
        <time>2023-04-28T12:10:23Z</time>
      </trkpt>
      <trkpt lat="43.46715" lon="6.30098">
        <ele>174</ele>
        <time>2023-04-28T12:10:24Z</time>
      </trkpt>
      <trkpt lat="43.46716" lon="6.30099">
        <ele>174</ele>
        <time>2023-04-28T12:10:25Z</time>
      </trkpt>
      <trkpt lat="43.46717" lon="6.301">
        <ele>174</ele>
        <time>2023-04-28T12:10:26Z</time>
      </trkpt>
      <trkpt lat="43.46718" lon="6.30101">
        <ele>174</ele>
        <time>2023-04-28T12:10:27Z</time>
      </trkpt>
      <trkpt lat="43.46718" lon="6.30102">
        <ele>174</ele>
        <time>2023-04-28T12:10:28Z</time>
      </trkpt>
      <trkpt lat="43.46719" lon="6.30103">
        <ele>174</ele>
        <time>2023-04-28T12:10:29Z</time>
      </trkpt>
      <trkpt lat="43.4672" lon="6.30104">
        <ele>174</ele>
        <time>2023-04-28T12:10:30Z</time>
      </trkpt>
      <trkpt lat="43.46721" lon="6.30105">
        <ele>174</ele>
        <time>2023-04-28T12:10:31Z</time>
      </trkpt>
      <trkpt lat="43.46722" lon="6.30106">
        <ele>174</ele>
        <time>2023-04-28T12:10:32Z</time>
      </trkpt>
      <trkpt lat="43.46723" lon="6.30106">
        <ele>174</ele>
        <time>2023-04-28T12:10:33Z</time>
      </trkpt>
      <trkpt lat="43.46723" lon="6.30107">
        <ele>174</ele>
        <time>2023-04-28T12:10:34Z</time>
      </trkpt>
      <trkpt lat="43.46724" lon="6.30109">
        <ele>174</ele>
        <time>2023-04-28T12:10:35Z</time>
      </trkpt>
      <trkpt lat="43.46725" lon="6.3011">
        <ele>174</ele>
        <time>2023-04-28T12:10:36Z</time>
      </trkpt>
      <trkpt lat="43.46725" lon="6.30111">
        <ele>174</ele>
        <time>2023-04-28T12:10:37Z</time>
      </trkpt>
      <trkpt lat="43.46726" lon="6.30112">
        <ele>174</ele>
        <time>2023-04-28T12:10:38Z</time>
      </trkpt>
      <trkpt lat="43.46726" lon="6.30114">
        <ele>174</ele>
        <time>2023-04-28T12:10:39Z</time>
      </trkpt>
      <trkpt lat="43.46727" lon="6.30115">
        <ele>174</ele>
        <time>2023-04-28T12:10:40Z</time>
      </trkpt>
      <trkpt lat="43.46727" lon="6.30116">
        <ele>174</ele>
        <time>2023-04-28T12:10:41Z</time>
      </trkpt>
      <trkpt lat="43.46727" lon="6.30116">
        <ele>174</ele>
        <time>2023-04-28T12:10:42Z</time>
      </trkpt>
      <trkpt lat="43.46728" lon="6.30117">
        <ele>174</ele>
        <time>2023-04-28T12:10:43Z</time>
      </trkpt>
      <trkpt lat="43.46728" lon="6.30118">
        <ele>174</ele>
        <time>2023-04-28T12:10:44Z</time>
      </trkpt>
      <trkpt lat="43.46729" lon="6.30119">
        <ele>174</ele>
        <time>2023-04-28T12:10:45Z</time>
      </trkpt>
      <trkpt lat="43.46729" lon="6.30121">
        <ele>174</ele>
        <time>2023-04-28T12:10:46Z</time>
      </trkpt>
      <trkpt lat="43.4673" lon="6.30122">
        <ele>174</ele>
        <time>2023-04-28T12:10:47Z</time>
      </trkpt>
      <trkpt lat="43.4673" lon="6.30123">
        <ele>174</ele>
        <time>2023-04-28T12:10:48Z</time>
      </trkpt>
      <trkpt lat="43.46731" lon="6.30124">
        <ele>174</ele>
        <time>2023-04-28T12:10:49Z</time>
      </trkpt>
      <trkpt lat="43.46731" lon="6.30125">
        <ele>174</ele>
        <time>2023-04-28T12:10:50Z</time>
      </trkpt>
      <trkpt lat="43.46731" lon="6.30126">
        <ele>174</ele>
        <time>2023-04-28T12:10:51Z</time>
      </trkpt>
      <trkpt lat="43.46732" lon="6.30127">
        <ele>174</ele>
        <time>2023-04-28T12:10:52Z</time>
      </trkpt>
      <trkpt lat="43.46732" lon="6.30128">
        <ele>175</ele>
        <time>2023-04-28T12:10:53Z</time>
      </trkpt>
      <trkpt lat="43.46733" lon="6.30129">
        <ele>175</ele>
        <time>2023-04-28T12:10:54Z</time>
      </trkpt>
      <trkpt lat="43.46733" lon="6.30131">
        <ele>175</ele>
        <time>2023-04-28T12:10:55Z</time>
      </trkpt>
      <trkpt lat="43.46734" lon="6.30132">
        <ele>175</ele>
        <time>2023-04-28T12:10:56Z</time>
      </trkpt>
      <trkpt lat="43.46734" lon="6.30134">
        <ele>175</ele>
        <time>2023-04-28T12:10:57Z</time>
      </trkpt>
      <trkpt lat="43.46734" lon="6.30135">
        <ele>175</ele>
        <time>2023-04-28T12:10:58Z</time>
      </trkpt>
      <trkpt lat="43.46735" lon="6.30137">
        <ele>175</ele>
        <time>2023-04-28T12:10:59Z</time>
      </trkpt>
      <trkpt lat="43.46735" lon="6.30138">
        <ele>175</ele>
        <time>2023-04-28T12:11:00Z</time>
      </trkpt>
      <trkpt lat="43.46736" lon="6.30138">
        <ele>175</ele>
        <time>2023-04-28T12:11:01Z</time>
      </trkpt>
      <trkpt lat="43.46736" lon="6.30139">
        <ele>175</ele>
        <time>2023-04-28T12:11:02Z</time>
      </trkpt>
      <trkpt lat="43.46736" lon="6.30139">
        <ele>175</ele>
        <time>2023-04-28T12:11:03Z</time>
      </trkpt>
      <trkpt lat="43.46737" lon="6.3014">
        <ele>174</ele>
        <time>2023-04-28T12:11:04Z</time>
      </trkpt>
      <trkpt lat="43.46737" lon="6.30141">
        <ele>174</ele>
        <time>2023-04-28T12:11:05Z</time>
      </trkpt>
      <trkpt lat="43.46738" lon="6.30142">
        <ele>174</ele>
        <time>2023-04-28T12:11:06Z</time>
      </trkpt>
      <trkpt lat="43.46738" lon="6.30143">
        <ele>174</ele>
        <time>2023-04-28T12:11:07Z</time>
      </trkpt>
      <trkpt lat="43.46739" lon="6.30144">
        <ele>174</ele>
        <time>2023-04-28T12:11:08Z</time>
      </trkpt>
      <trkpt lat="43.46739" lon="6.30144">
        <ele>174</ele>
        <time>2023-04-28T12:11:09Z</time>
      </trkpt>
      <trkpt lat="43.46739" lon="6.30145">
        <ele>173</ele>
        <time>2023-04-28T12:11:10Z</time>
      </trkpt>
      <trkpt lat="43.4674" lon="6.30146">
        <ele>171</ele>
        <time>2023-04-28T12:11:11Z</time>
      </trkpt>
      <trkpt lat="43.4674" lon="6.30148">
        <ele>170</ele>
        <time>2023-04-28T12:11:12Z</time>
      </trkpt>
      <trkpt lat="43.46741" lon="6.30149">
        <ele>170</ele>
        <time>2023-04-28T12:11:13Z</time>
      </trkpt>
      <trkpt lat="43.46741" lon="6.3015">
        <ele>169</ele>
        <time>2023-04-28T12:11:14Z</time>
      </trkpt>
      <trkpt lat="43.46742" lon="6.30152">
        <ele>169</ele>
        <time>2023-04-28T12:11:15Z</time>
      </trkpt>
      <trkpt lat="43.46743" lon="6.30153">
        <ele>169</ele>
        <time>2023-04-28T12:11:16Z</time>
      </trkpt>
      <trkpt lat="43.46743" lon="6.30154">
        <ele>169</ele>
        <time>2023-04-28T12:11:17Z</time>
      </trkpt>
      <trkpt lat="43.46744" lon="6.30155">
        <ele>168</ele>
        <time>2023-04-28T12:11:18Z</time>
      </trkpt>
      <trkpt lat="43.46744" lon="6.30156">
        <ele>168</ele>
        <time>2023-04-28T12:11:19Z</time>
      </trkpt>
      <trkpt lat="43.46745" lon="6.30157">
        <ele>168</ele>
        <time>2023-04-28T12:11:20Z</time>
      </trkpt>
      <trkpt lat="43.46745" lon="6.30158">
        <ele>168</ele>
        <time>2023-04-28T12:11:21Z</time>
      </trkpt>
      <trkpt lat="43.46746" lon="6.30159">
        <ele>168</ele>
        <time>2023-04-28T12:11:22Z</time>
      </trkpt>
      <trkpt lat="43.46747" lon="6.3016">
        <ele>167</ele>
        <time>2023-04-28T12:11:23Z</time>
      </trkpt>
      <trkpt lat="43.46748" lon="6.30161">
        <ele>167</ele>
        <time>2023-04-28T12:11:24Z</time>
      </trkpt>
      <trkpt lat="43.46748" lon="6.30162">
        <ele>167</ele>
        <time>2023-04-28T12:11:25Z</time>
      </trkpt>
      <trkpt lat="43.46748" lon="6.30163">
        <ele>167</ele>
        <time>2023-04-28T12:11:26Z</time>
      </trkpt>
      <trkpt lat="43.46749" lon="6.30164">
        <ele>167</ele>
        <time>2023-04-28T12:11:27Z</time>
      </trkpt>
      <trkpt lat="43.46749" lon="6.30165">
        <ele>167</ele>
        <time>2023-04-28T12:11:28Z</time>
      </trkpt>
      <trkpt lat="43.46749" lon="6.30165">
        <ele>167</ele>
        <time>2023-04-28T12:11:29Z</time>
      </trkpt>
      <trkpt lat="43.46749" lon="6.30166">
        <ele>167</ele>
        <time>2023-04-28T12:11:30Z</time>
      </trkpt>
      <trkpt lat="43.4675" lon="6.30167">
        <ele>167</ele>
        <time>2023-04-28T12:11:31Z</time>
      </trkpt>
      <trkpt lat="43.4675" lon="6.30168">
        <ele>167</ele>
        <time>2023-04-28T12:11:32Z</time>
      </trkpt>
      <trkpt lat="43.4675" lon="6.30169">
        <ele>167</ele>
        <time>2023-04-28T12:11:33Z</time>
      </trkpt>
      <trkpt lat="43.46751" lon="6.3017">
        <ele>167</ele>
        <time>2023-04-28T12:11:34Z</time>
      </trkpt>
      <trkpt lat="43.46751" lon="6.30172">
        <ele>167</ele>
        <time>2023-04-28T12:11:35Z</time>
      </trkpt>
      <trkpt lat="43.46752" lon="6.30173">
        <ele>167</ele>
        <time>2023-04-28T12:11:36Z</time>
      </trkpt>
      <trkpt lat="43.46753" lon="6.30174">
        <ele>167</ele>
        <time>2023-04-28T12:11:37Z</time>
      </trkpt>
      <trkpt lat="43.46754" lon="6.30175">
        <ele>167</ele>
        <time>2023-04-28T12:11:38Z</time>
      </trkpt>
      <trkpt lat="43.46755" lon="6.30177">
        <ele>167</ele>
        <time>2023-04-28T12:11:39Z</time>
      </trkpt>
      <trkpt lat="43.46755" lon="6.30178">
        <ele>167</ele>
        <time>2023-04-28T12:11:40Z</time>
      </trkpt>
      <trkpt lat="43.46756" lon="6.30179">
        <ele>167</ele>
        <time>2023-04-28T12:11:41Z</time>
      </trkpt>
      <trkpt lat="43.46757" lon="6.3018">
        <ele>167</ele>
        <time>2023-04-28T12:11:42Z</time>
      </trkpt>
      <trkpt lat="43.46757" lon="6.30181">
        <ele>167</ele>
        <time>2023-04-28T12:11:43Z</time>
      </trkpt>
      <trkpt lat="43.46757" lon="6.30182">
        <ele>167</ele>
        <time>2023-04-28T12:11:44Z</time>
      </trkpt>
      <trkpt lat="43.46757" lon="6.30183">
        <ele>167</ele>
        <time>2023-04-28T12:11:45Z</time>
      </trkpt>
      <trkpt lat="43.46757" lon="6.30184">
        <ele>167</ele>
        <time>2023-04-28T12:11:46Z</time>
      </trkpt>
      <trkpt lat="43.46758" lon="6.30185">
        <ele>167</ele>
        <time>2023-04-28T12:11:47Z</time>
      </trkpt>
      <trkpt lat="43.46758" lon="6.30186">
        <ele>167</ele>
        <time>2023-04-28T12:11:48Z</time>
      </trkpt>
      <trkpt lat="43.46758" lon="6.30186">
        <ele>167</ele>
        <time>2023-04-28T12:11:49Z</time>
      </trkpt>
      <trkpt lat="43.46759" lon="6.30187">
        <ele>167</ele>
        <time>2023-04-28T12:11:50Z</time>
      </trkpt>
      <trkpt lat="43.46759" lon="6.30188">
        <ele>168</ele>
        <time>2023-04-28T12:11:51Z</time>
      </trkpt>
      <trkpt lat="43.4676" lon="6.30189">
        <ele>168</ele>
        <time>2023-04-28T12:11:52Z</time>
      </trkpt>
      <trkpt lat="43.4676" lon="6.30189">
        <ele>168</ele>
        <time>2023-04-28T12:11:53Z</time>
      </trkpt>
      <trkpt lat="43.4676" lon="6.3019">
        <ele>168</ele>
        <time>2023-04-28T12:11:54Z</time>
      </trkpt>
      <trkpt lat="43.46761" lon="6.30191">
        <ele>168</ele>
        <time>2023-04-28T12:11:55Z</time>
      </trkpt>
      <trkpt lat="43.46762" lon="6.30193">
        <ele>168</ele>
        <time>2023-04-28T12:11:56Z</time>
      </trkpt>
      <trkpt lat="43.46762" lon="6.30194">
        <ele>168</ele>
        <time>2023-04-28T12:11:57Z</time>
      </trkpt>
      <trkpt lat="43.46762" lon="6.30195">
        <ele>168</ele>
        <time>2023-04-28T12:11:58Z</time>
      </trkpt>
      <trkpt lat="43.46763" lon="6.30196">
        <ele>169</ele>
        <time>2023-04-28T12:11:59Z</time>
      </trkpt>
      <trkpt lat="43.46763" lon="6.30197">
        <ele>169</ele>
        <time>2023-04-28T12:12:00Z</time>
      </trkpt>
      <trkpt lat="43.46763" lon="6.30198">
        <ele>169</ele>
        <time>2023-04-28T12:12:01Z</time>
      </trkpt>
      <trkpt lat="43.46764" lon="6.30199">
        <ele>169</ele>
        <time>2023-04-28T12:12:02Z</time>
      </trkpt>
      <trkpt lat="43.46764" lon="6.302">
        <ele>169</ele>
        <time>2023-04-28T12:12:03Z</time>
      </trkpt>
      <trkpt lat="43.46765" lon="6.30201">
        <ele>169</ele>
        <time>2023-04-28T12:12:04Z</time>
      </trkpt>
      <trkpt lat="43.46765" lon="6.30202">
        <ele>169</ele>
        <time>2023-04-28T12:12:05Z</time>
      </trkpt>
      <trkpt lat="43.46765" lon="6.30203">
        <ele>169</ele>
        <time>2023-04-28T12:12:06Z</time>
      </trkpt>
      <trkpt lat="43.46766" lon="6.30203">
        <ele>169</ele>
        <time>2023-04-28T12:12:07Z</time>
      </trkpt>
      <trkpt lat="43.46766" lon="6.30204">
        <ele>169</ele>
        <time>2023-04-28T12:12:08Z</time>
      </trkpt>
      <trkpt lat="43.46766" lon="6.30205">
        <ele>169</ele>
        <time>2023-04-28T12:12:09Z</time>
      </trkpt>
      <trkpt lat="43.46767" lon="6.30206">
        <ele>169</ele>
        <time>2023-04-28T12:12:10Z</time>
      </trkpt>
      <trkpt lat="43.46767" lon="6.30207">
        <ele>169</ele>
        <time>2023-04-28T12:12:11Z</time>
      </trkpt>
      <trkpt lat="43.46767" lon="6.30208">
        <ele>169</ele>
        <time>2023-04-28T12:12:12Z</time>
      </trkpt>
      <trkpt lat="43.46767" lon="6.3021">
        <ele>169</ele>
        <time>2023-04-28T12:12:13Z</time>
      </trkpt>
      <trkpt lat="43.46768" lon="6.30211">
        <ele>169</ele>
        <time>2023-04-28T12:12:14Z</time>
      </trkpt>
      <trkpt lat="43.46768" lon="6.30212">
        <ele>169</ele>
        <time>2023-04-28T12:12:15Z</time>
      </trkpt>
      <trkpt lat="43.46769" lon="6.30214">
        <ele>169</ele>
        <time>2023-04-28T12:12:16Z</time>
      </trkpt>
      <trkpt lat="43.46769" lon="6.30215">
        <ele>169</ele>
        <time>2023-04-28T12:12:17Z</time>
      </trkpt>
      <trkpt lat="43.4677" lon="6.30216">
        <ele>169</ele>
        <time>2023-04-28T12:12:18Z</time>
      </trkpt>
      <trkpt lat="43.4677" lon="6.30217">
        <ele>169</ele>
        <time>2023-04-28T12:12:19Z</time>
      </trkpt>
      <trkpt lat="43.4677" lon="6.30218">
        <ele>169</ele>
        <time>2023-04-28T12:12:20Z</time>
      </trkpt>
      <trkpt lat="43.46771" lon="6.30219">
        <ele>169</ele>
        <time>2023-04-28T12:12:21Z</time>
      </trkpt>
      <trkpt lat="43.46771" lon="6.3022">
        <ele>169</ele>
        <time>2023-04-28T12:12:22Z</time>
      </trkpt>
      <trkpt lat="43.46772" lon="6.30221">
        <ele>168</ele>
        <time>2023-04-28T12:12:23Z</time>
      </trkpt>
      <trkpt lat="43.46772" lon="6.30223">
        <ele>168</ele>
        <time>2023-04-28T12:12:24Z</time>
      </trkpt>
      <trkpt lat="43.46773" lon="6.30224">
        <ele>168</ele>
        <time>2023-04-28T12:12:25Z</time>
      </trkpt>
      <trkpt lat="43.46773" lon="6.30226">
        <ele>168</ele>
        <time>2023-04-28T12:12:26Z</time>
      </trkpt>
      <trkpt lat="43.46774" lon="6.30227">
        <ele>168</ele>
        <time>2023-04-28T12:12:27Z</time>
      </trkpt>
      <trkpt lat="43.46774" lon="6.30228">
        <ele>168</ele>
        <time>2023-04-28T12:12:28Z</time>
      </trkpt>
      <trkpt lat="43.46774" lon="6.30229">
        <ele>168</ele>
        <time>2023-04-28T12:12:29Z</time>
      </trkpt>
      <trkpt lat="43.46775" lon="6.30231">
        <ele>168</ele>
        <time>2023-04-28T12:12:30Z</time>
      </trkpt>
      <trkpt lat="43.46775" lon="6.30232">
        <ele>168</ele>
        <time>2023-04-28T12:12:31Z</time>
      </trkpt>
      <trkpt lat="43.46776" lon="6.30234">
        <ele>168</ele>
        <time>2023-04-28T12:12:32Z</time>
      </trkpt>
      <trkpt lat="43.46776" lon="6.30235">
        <ele>168</ele>
        <time>2023-04-28T12:12:33Z</time>
      </trkpt>
      <trkpt lat="43.46777" lon="6.30237">
        <ele>168</ele>
        <time>2023-04-28T12:12:34Z</time>
      </trkpt>
      <trkpt lat="43.46778" lon="6.30238">
        <ele>168</ele>
        <time>2023-04-28T12:12:35Z</time>
      </trkpt>
      <trkpt lat="43.46778" lon="6.30239">
        <ele>168</ele>
        <time>2023-04-28T12:12:36Z</time>
      </trkpt>
      <trkpt lat="43.46779" lon="6.3024">
        <ele>168</ele>
        <time>2023-04-28T12:12:37Z</time>
      </trkpt>
      <trkpt lat="43.4678" lon="6.30241">
        <ele>168</ele>
        <time>2023-04-28T12:12:38Z</time>
      </trkpt>
      <trkpt lat="43.46781" lon="6.30242">
        <ele>167</ele>
        <time>2023-04-28T12:12:39Z</time>
      </trkpt>
      <trkpt lat="43.46782" lon="6.30243">
        <ele>167</ele>
        <time>2023-04-28T12:12:40Z</time>
      </trkpt>
      <trkpt lat="43.46782" lon="6.30244">
        <ele>167</ele>
        <time>2023-04-28T12:12:41Z</time>
      </trkpt>
      <trkpt lat="43.46782" lon="6.30246">
        <ele>166</ele>
        <time>2023-04-28T12:12:42Z</time>
      </trkpt>
      <trkpt lat="43.46782" lon="6.30247">
        <ele>166</ele>
        <time>2023-04-28T12:12:43Z</time>
      </trkpt>
      <trkpt lat="43.46781" lon="6.30249">
        <ele>166</ele>
        <time>2023-04-28T12:12:44Z</time>
      </trkpt>
      <trkpt lat="43.46781" lon="6.3025">
        <ele>166</ele>
        <time>2023-04-28T12:12:45Z</time>
      </trkpt>
      <trkpt lat="43.46781" lon="6.30251">
        <ele>166</ele>
        <time>2023-04-28T12:12:46Z</time>
      </trkpt>
      <trkpt lat="43.46781" lon="6.30253">
        <ele>166</ele>
        <time>2023-04-28T12:12:47Z</time>
      </trkpt>
      <trkpt lat="43.46782" lon="6.30254">
        <ele>166</ele>
        <time>2023-04-28T12:12:48Z</time>
      </trkpt>
      <trkpt lat="43.46782" lon="6.30255">
        <ele>166</ele>
        <time>2023-04-28T12:12:49Z</time>
      </trkpt>
      <trkpt lat="43.46782" lon="6.30257">
        <ele>166</ele>
        <time>2023-04-28T12:12:50Z</time>
      </trkpt>
      <trkpt lat="43.46783" lon="6.30258">
        <ele>166</ele>
        <time>2023-04-28T12:12:51Z</time>
      </trkpt>
      <trkpt lat="43.46783" lon="6.30259">
        <ele>166</ele>
        <time>2023-04-28T12:12:52Z</time>
      </trkpt>
      <trkpt lat="43.46784" lon="6.30261">
        <ele>166</ele>
        <time>2023-04-28T12:12:53Z</time>
      </trkpt>
      <trkpt lat="43.46784" lon="6.30262">
        <ele>166</ele>
        <time>2023-04-28T12:12:54Z</time>
      </trkpt>
      <trkpt lat="43.46785" lon="6.30264">
        <ele>166</ele>
        <time>2023-04-28T12:12:55Z</time>
      </trkpt>
      <trkpt lat="43.46785" lon="6.30265">
        <ele>165</ele>
        <time>2023-04-28T12:12:56Z</time>
      </trkpt>
      <trkpt lat="43.46786" lon="6.30266">
        <ele>165</ele>
        <time>2023-04-28T12:12:57Z</time>
      </trkpt>
      <trkpt lat="43.46786" lon="6.30267">
        <ele>165</ele>
        <time>2023-04-28T12:12:58Z</time>
      </trkpt>
      <trkpt lat="43.46786" lon="6.30269">
        <ele>165</ele>
        <time>2023-04-28T12:12:59Z</time>
      </trkpt>
      <trkpt lat="43.46787" lon="6.3027">
        <ele>166</ele>
        <time>2023-04-28T12:13:00Z</time>
      </trkpt>
      <trkpt lat="43.46788" lon="6.30272">
        <ele>166</ele>
        <time>2023-04-28T12:13:01Z</time>
      </trkpt>
      <trkpt lat="43.46788" lon="6.30273">
        <ele>166</ele>
        <time>2023-04-28T12:13:02Z</time>
      </trkpt>
      <trkpt lat="43.46789" lon="6.30275">
        <ele>166</ele>
        <time>2023-04-28T12:13:03Z</time>
      </trkpt>
      <trkpt lat="43.46789" lon="6.30276">
        <ele>166</ele>
        <time>2023-04-28T12:13:04Z</time>
      </trkpt>
      <trkpt lat="43.4679" lon="6.30278">
        <ele>166</ele>
        <time>2023-04-28T12:13:05Z</time>
      </trkpt>
      <trkpt lat="43.4679" lon="6.30279">
        <ele>166</ele>
        <time>2023-04-28T12:13:06Z</time>
      </trkpt>
      <trkpt lat="43.46791" lon="6.3028">
        <ele>166</ele>
        <time>2023-04-28T12:13:07Z</time>
      </trkpt>
      <trkpt lat="43.46791" lon="6.30281">
        <ele>166</ele>
        <time>2023-04-28T12:13:08Z</time>
      </trkpt>
      <trkpt lat="43.46792" lon="6.30282">
        <ele>166</ele>
        <time>2023-04-28T12:13:09Z</time>
      </trkpt>
      <trkpt lat="43.46792" lon="6.30284">
        <ele>166</ele>
        <time>2023-04-28T12:13:10Z</time>
      </trkpt>
      <trkpt lat="43.46793" lon="6.30285">
        <ele>166</ele>
        <time>2023-04-28T12:13:11Z</time>
      </trkpt>
      <trkpt lat="43.46794" lon="6.30287">
        <ele>167</ele>
        <time>2023-04-28T12:13:12Z</time>
      </trkpt>
      <trkpt lat="43.46794" lon="6.30288">
        <ele>167</ele>
        <time>2023-04-28T12:13:13Z</time>
      </trkpt>
      <trkpt lat="43.46795" lon="6.30289">
        <ele>167</ele>
        <time>2023-04-28T12:13:14Z</time>
      </trkpt>
      <trkpt lat="43.46796" lon="6.3029">
        <ele>167</ele>
        <time>2023-04-28T12:13:15Z</time>
      </trkpt>
      <trkpt lat="43.46796" lon="6.30292">
        <ele>167</ele>
        <time>2023-04-28T12:13:16Z</time>
      </trkpt>
      <trkpt lat="43.46797" lon="6.30293">
        <ele>167</ele>
        <time>2023-04-28T12:13:17Z</time>
      </trkpt>
      <trkpt lat="43.46797" lon="6.30294">
        <ele>167</ele>
        <time>2023-04-28T12:13:18Z</time>
      </trkpt>
      <trkpt lat="43.46798" lon="6.30295">
        <ele>167</ele>
        <time>2023-04-28T12:13:19Z</time>
      </trkpt>
      <trkpt lat="43.46799" lon="6.30296">
        <ele>167</ele>
        <time>2023-04-28T12:13:20Z</time>
      </trkpt>
      <trkpt lat="43.468" lon="6.30297">
        <ele>167</ele>
        <time>2023-04-28T12:13:21Z</time>
      </trkpt>
      <trkpt lat="43.468" lon="6.30299">
        <ele>168</ele>
        <time>2023-04-28T12:13:22Z</time>
      </trkpt>
      <trkpt lat="43.46801" lon="6.303">
        <ele>168</ele>
        <time>2023-04-28T12:13:23Z</time>
      </trkpt>
      <trkpt lat="43.46801" lon="6.30301">
        <ele>168</ele>
        <time>2023-04-28T12:13:24Z</time>
      </trkpt>
      <trkpt lat="43.46802" lon="6.30301">
        <ele>168</ele>
        <time>2023-04-28T12:13:25Z</time>
      </trkpt>
      <trkpt lat="43.46803" lon="6.30302">
        <ele>168</ele>
        <time>2023-04-28T12:13:26Z</time>
      </trkpt>
      <trkpt lat="43.46804" lon="6.30303">
        <ele>168</ele>
        <time>2023-04-28T12:13:27Z</time>
      </trkpt>
      <trkpt lat="43.46805" lon="6.30304">
        <ele>168</ele>
        <time>2023-04-28T12:13:28Z</time>
      </trkpt>
      <trkpt lat="43.46805" lon="6.30304">
        <ele>168</ele>
        <time>2023-04-28T12:13:29Z</time>
      </trkpt>
      <trkpt lat="43.46806" lon="6.30305">
        <ele>168</ele>
        <time>2023-04-28T12:13:30Z</time>
      </trkpt>
      <trkpt lat="43.46807" lon="6.30306">
        <ele>168</ele>
        <time>2023-04-28T12:13:31Z</time>
      </trkpt>
      <trkpt lat="43.46808" lon="6.30307">
        <ele>168</ele>
        <time>2023-04-28T12:13:32Z</time>
      </trkpt>
      <trkpt lat="43.46808" lon="6.30308">
        <ele>168</ele>
        <time>2023-04-28T12:13:33Z</time>
      </trkpt>
      <trkpt lat="43.46809" lon="6.30309">
        <ele>168</ele>
        <time>2023-04-28T12:13:34Z</time>
      </trkpt>
      <trkpt lat="43.46809" lon="6.3031">
        <ele>168</ele>
        <time>2023-04-28T12:13:35Z</time>
      </trkpt>
      <trkpt lat="43.4681" lon="6.3031">
        <ele>168</ele>
        <time>2023-04-28T12:13:36Z</time>
      </trkpt>
      <trkpt lat="43.46811" lon="6.30311">
        <ele>168</ele>
        <time>2023-04-28T12:13:37Z</time>
      </trkpt>
      <trkpt lat="43.46812" lon="6.30312">
        <ele>169</ele>
        <time>2023-04-28T12:13:38Z</time>
      </trkpt>
      <trkpt lat="43.46813" lon="6.30313">
        <ele>169</ele>
        <time>2023-04-28T12:13:39Z</time>
      </trkpt>
      <trkpt lat="43.46814" lon="6.30314">
        <ele>170</ele>
        <time>2023-04-28T12:13:40Z</time>
      </trkpt>
      <trkpt lat="43.46815" lon="6.30315">
        <ele>170</ele>
        <time>2023-04-28T12:13:41Z</time>
      </trkpt>
      <trkpt lat="43.46816" lon="6.30316">
        <ele>170</ele>
        <time>2023-04-28T12:13:42Z</time>
      </trkpt>
      <trkpt lat="43.46816" lon="6.30317">
        <ele>170</ele>
        <time>2023-04-28T12:13:43Z</time>
      </trkpt>
      <trkpt lat="43.46817" lon="6.30318">
        <ele>170</ele>
        <time>2023-04-28T12:13:44Z</time>
      </trkpt>
      <trkpt lat="43.46818" lon="6.3032">
        <ele>170</ele>
        <time>2023-04-28T12:13:45Z</time>
      </trkpt>
      <trkpt lat="43.46819" lon="6.30321">
        <ele>170</ele>
        <time>2023-04-28T12:13:46Z</time>
      </trkpt>
      <trkpt lat="43.4682" lon="6.30322">
        <ele>170</ele>
        <time>2023-04-28T12:13:47Z</time>
      </trkpt>
      <trkpt lat="43.46821" lon="6.30323">
        <ele>170</ele>
        <time>2023-04-28T12:13:48Z</time>
      </trkpt>
      <trkpt lat="43.46822" lon="6.30324">
        <ele>170</ele>
        <time>2023-04-28T12:13:49Z</time>
      </trkpt>
      <trkpt lat="43.46823" lon="6.30325">
        <ele>170</ele>
        <time>2023-04-28T12:13:50Z</time>
      </trkpt>
      <trkpt lat="43.46824" lon="6.30327">
        <ele>170</ele>
        <time>2023-04-28T12:13:51Z</time>
      </trkpt>
      <trkpt lat="43.46825" lon="6.30328">
        <ele>170</ele>
        <time>2023-04-28T12:13:52Z</time>
      </trkpt>
      <trkpt lat="43.46826" lon="6.30329">
        <ele>170</ele>
        <time>2023-04-28T12:13:53Z</time>
      </trkpt>
      <trkpt lat="43.46827" lon="6.3033">
        <ele>170</ele>
        <time>2023-04-28T12:13:54Z</time>
      </trkpt>
      <trkpt lat="43.46827" lon="6.30331">
        <ele>169</ele>
        <time>2023-04-28T12:13:55Z</time>
      </trkpt>
      <trkpt lat="43.46828" lon="6.30332">
        <ele>169</ele>
        <time>2023-04-28T12:13:56Z</time>
      </trkpt>
      <trkpt lat="43.46829" lon="6.30333">
        <ele>169</ele>
        <time>2023-04-28T12:13:57Z</time>
      </trkpt>
      <trkpt lat="43.4683" lon="6.30334">
        <ele>169</ele>
        <time>2023-04-28T12:13:58Z</time>
      </trkpt>
      <trkpt lat="43.46831" lon="6.30335">
        <ele>169</ele>
        <time>2023-04-28T12:13:59Z</time>
      </trkpt>
      <trkpt lat="43.46832" lon="6.30336">
        <ele>169</ele>
        <time>2023-04-28T12:14:00Z</time>
      </trkpt>
      <trkpt lat="43.46833" lon="6.30337">
        <ele>169</ele>
        <time>2023-04-28T12:14:01Z</time>
      </trkpt>
      <trkpt lat="43.46834" lon="6.30338">
        <ele>169</ele>
        <time>2023-04-28T12:14:02Z</time>
      </trkpt>
      <trkpt lat="43.46835" lon="6.30339">
        <ele>169</ele>
        <time>2023-04-28T12:14:03Z</time>
      </trkpt>
      <trkpt lat="43.46836" lon="6.3034">
        <ele>169</ele>
        <time>2023-04-28T12:14:04Z</time>
      </trkpt>
      <trkpt lat="43.46836" lon="6.30341">
        <ele>169</ele>
        <time>2023-04-28T12:14:05Z</time>
      </trkpt>
      <trkpt lat="43.46837" lon="6.30342">
        <ele>168</ele>
        <time>2023-04-28T12:14:06Z</time>
      </trkpt>
      <trkpt lat="43.46838" lon="6.30342">
        <ele>168</ele>
        <time>2023-04-28T12:14:07Z</time>
      </trkpt>
      <trkpt lat="43.46839" lon="6.30343">
        <ele>167</ele>
        <time>2023-04-28T12:14:08Z</time>
      </trkpt>
      <trkpt lat="43.46839" lon="6.30344">
        <ele>167</ele>
        <time>2023-04-28T12:14:09Z</time>
      </trkpt>
      <trkpt lat="43.4684" lon="6.30345">
        <ele>167</ele>
        <time>2023-04-28T12:14:10Z</time>
      </trkpt>
      <trkpt lat="43.46841" lon="6.30346">
        <ele>167</ele>
        <time>2023-04-28T12:14:11Z</time>
      </trkpt>
      <trkpt lat="43.46842" lon="6.30347">
        <ele>167</ele>
        <time>2023-04-28T12:14:12Z</time>
      </trkpt>
      <trkpt lat="43.46843" lon="6.30348">
        <ele>167</ele>
        <time>2023-04-28T12:14:13Z</time>
      </trkpt>
      <trkpt lat="43.46844" lon="6.30349">
        <ele>167</ele>
        <time>2023-04-28T12:14:14Z</time>
      </trkpt>
      <trkpt lat="43.46844" lon="6.3035">
        <ele>167</ele>
        <time>2023-04-28T12:14:15Z</time>
      </trkpt>
      <trkpt lat="43.46845" lon="6.3035">
        <ele>167</ele>
        <time>2023-04-28T12:14:16Z</time>
      </trkpt>
      <trkpt lat="43.46846" lon="6.3035">
        <ele>167</ele>
        <time>2023-04-28T12:14:17Z</time>
      </trkpt>
      <trkpt lat="43.46847" lon="6.30351">
        <ele>167</ele>
        <time>2023-04-28T12:14:18Z</time>
      </trkpt>
      <trkpt lat="43.46847" lon="6.30352">
        <ele>167</ele>
        <time>2023-04-28T12:14:19Z</time>
      </trkpt>
      <trkpt lat="43.46848" lon="6.30352">
        <ele>167</ele>
        <time>2023-04-28T12:14:20Z</time>
      </trkpt>
      <trkpt lat="43.46849" lon="6.30353">
        <ele>166</ele>
        <time>2023-04-28T12:14:21Z</time>
      </trkpt>
      <trkpt lat="43.4685" lon="6.30354">
        <ele>166</ele>
        <time>2023-04-28T12:14:22Z</time>
      </trkpt>
      <trkpt lat="43.46851" lon="6.30355">
        <ele>166</ele>
        <time>2023-04-28T12:14:23Z</time>
      </trkpt>
      <trkpt lat="43.46851" lon="6.30356">
        <ele>165</ele>
        <time>2023-04-28T12:14:24Z</time>
      </trkpt>
      <trkpt lat="43.46852" lon="6.30357">
        <ele>165</ele>
        <time>2023-04-28T12:14:25Z</time>
      </trkpt>
      <trkpt lat="43.46852" lon="6.30358">
        <ele>164</ele>
        <time>2023-04-28T12:14:26Z</time>
      </trkpt>
      <trkpt lat="43.46853" lon="6.30359">
        <ele>164</ele>
        <time>2023-04-28T12:14:27Z</time>
      </trkpt>
      <trkpt lat="43.46854" lon="6.30359">
        <ele>164</ele>
        <time>2023-04-28T12:14:28Z</time>
      </trkpt>
      <trkpt lat="43.46855" lon="6.3036">
        <ele>164</ele>
        <time>2023-04-28T12:14:29Z</time>
      </trkpt>
      <trkpt lat="43.46855" lon="6.30361">
        <ele>164</ele>
        <time>2023-04-28T12:14:30Z</time>
      </trkpt>
      <trkpt lat="43.46856" lon="6.30361">
        <ele>163</ele>
        <time>2023-04-28T12:14:31Z</time>
      </trkpt>
      <trkpt lat="43.46856" lon="6.30362">
        <ele>163</ele>
        <time>2023-04-28T12:14:32Z</time>
      </trkpt>
      <trkpt lat="43.46857" lon="6.30363">
        <ele>163</ele>
        <time>2023-04-28T12:14:33Z</time>
      </trkpt>
      <trkpt lat="43.46857" lon="6.30364">
        <ele>163</ele>
        <time>2023-04-28T12:14:34Z</time>
      </trkpt>
      <trkpt lat="43.46858" lon="6.30365">
        <ele>163</ele>
        <time>2023-04-28T12:14:35Z</time>
      </trkpt>
      <trkpt lat="43.46858" lon="6.30366">
        <ele>161</ele>
        <time>2023-04-28T12:14:36Z</time>
      </trkpt>
      <trkpt lat="43.46858" lon="6.30366">
        <ele>161</ele>
        <time>2023-04-28T12:14:37Z</time>
      </trkpt>
      <trkpt lat="43.46859" lon="6.30367">
        <ele>160</ele>
        <time>2023-04-28T12:14:38Z</time>
      </trkpt>
      <trkpt lat="43.46859" lon="6.30368">
        <ele>160</ele>
        <time>2023-04-28T12:14:39Z</time>
      </trkpt>
      <trkpt lat="43.46859" lon="6.30368">
        <ele>160</ele>
        <time>2023-04-28T12:14:40Z</time>
      </trkpt>
      <trkpt lat="43.4686" lon="6.30369">
        <ele>159</ele>
        <time>2023-04-28T12:14:41Z</time>
      </trkpt>
      <trkpt lat="43.4686" lon="6.30369">
        <ele>159</ele>
        <time>2023-04-28T12:14:42Z</time>
      </trkpt>
      <trkpt lat="43.4686" lon="6.30369">
        <ele>159</ele>
        <time>2023-04-28T12:14:43Z</time>
      </trkpt>
      <trkpt lat="43.4686" lon="6.30369">
        <ele>159</ele>
        <time>2023-04-28T12:14:44Z</time>
      </trkpt>
      <trkpt lat="43.4686" lon="6.30369">
        <ele>159</ele>
        <time>2023-04-28T12:14:45Z</time>
      </trkpt>
      <trkpt lat="43.4686" lon="6.30369">
        <ele>159</ele>
        <time>2023-04-28T12:14:46Z</time>
      </trkpt>
      <trkpt lat="43.4686" lon="6.30369">
        <ele>159</ele>
        <time>2023-04-28T12:14:47Z</time>
      </trkpt>
      <trkpt lat="43.4686" lon="6.30369">
        <ele>159</ele>
        <time>2023-04-28T12:14:48Z</time>
      </trkpt>
      <trkpt lat="43.4686" lon="6.30369">
        <ele>159</ele>
        <time>2023-04-28T12:14:49Z</time>
      </trkpt>
      <trkpt lat="43.4686" lon="6.30369">
        <ele>159</ele>
        <time>2023-04-28T12:14:50Z</time>
      </trkpt>
      <trkpt lat="43.4686" lon="6.30369">
        <ele>159</ele>
        <time>2023-04-28T12:14:51Z</time>
      </trkpt>
      <trkpt lat="43.4686" lon="6.30369">
        <ele>159</ele>
        <time>2023-04-28T12:14:52Z</time>
      </trkpt>
      <trkpt lat="43.4686" lon="6.30369">
        <ele>159</ele>
        <time>2023-04-28T12:14:53Z</time>
      </trkpt>
      <trkpt lat="43.4686" lon="6.30369">
        <ele>159</ele>
        <time>2023-04-28T12:14:54Z</time>
      </trkpt>
      <trkpt lat="43.4686" lon="6.30369">
        <ele>159</ele>
        <time>2023-04-28T12:14:55Z</time>
      </trkpt>
      <trkpt lat="43.4686" lon="6.30369">
        <ele>159</ele>
        <time>2023-04-28T12:14:56Z</time>
      </trkpt>
      <trkpt lat="43.4686" lon="6.30369">
        <ele>159</ele>
        <time>2023-04-28T12:14:57Z</time>
      </trkpt>
      <trkpt lat="43.46859" lon="6.30361">
        <ele>159</ele>
        <time>2023-04-28T12:14:58Z</time>
      </trkpt>
      <trkpt lat="43.46859" lon="6.3036">
        <ele>159</ele>
        <time>2023-04-28T12:14:59Z</time>
      </trkpt>
      <trkpt lat="43.46859" lon="6.3036">
        <ele>159</ele>
        <time>2023-04-28T12:15:00Z</time>
      </trkpt>
      <trkpt lat="43.46859" lon="6.3036">
        <ele>159</ele>
        <time>2023-04-28T12:15:01Z</time>
      </trkpt>
      <trkpt lat="43.46859" lon="6.30359">
        <ele>159</ele>
        <time>2023-04-28T12:15:02Z</time>
      </trkpt>
      <trkpt lat="43.46859" lon="6.30359">
        <ele>159</ele>
        <time>2023-04-28T12:15:03Z</time>
      </trkpt>
      <trkpt lat="43.46859" lon="6.30359">
        <ele>159</ele>
        <time>2023-04-28T12:15:04Z</time>
      </trkpt>
      <trkpt lat="43.46859" lon="6.30359">
        <ele>159</ele>
        <time>2023-04-28T12:15:05Z</time>
      </trkpt>
      <trkpt lat="43.4686" lon="6.30359">
        <ele>159</ele>
        <time>2023-04-28T12:15:06Z</time>
      </trkpt>
      <trkpt lat="43.4686" lon="6.30359">
        <ele>159</ele>
        <time>2023-04-28T12:15:07Z</time>
      </trkpt>
      <trkpt lat="43.4686" lon="6.30359">
        <ele>159</ele>
        <time>2023-04-28T12:15:08Z</time>
      </trkpt>
      <trkpt lat="43.4686" lon="6.30359">
        <ele>159</ele>
        <time>2023-04-28T12:15:09Z</time>
      </trkpt>
      <trkpt lat="43.4686" lon="6.30359">
        <ele>159</ele>
        <time>2023-04-28T12:15:10Z</time>
      </trkpt>
      <trkpt lat="43.4686" lon="6.30359">
        <ele>159</ele>
        <time>2023-04-28T12:15:11Z</time>
      </trkpt>
      <trkpt lat="43.4686" lon="6.30359">
        <ele>159</ele>
        <time>2023-04-28T12:15:12Z</time>
      </trkpt>
      <trkpt lat="43.4686" lon="6.30359">
        <ele>159</ele>
        <time>2023-04-28T12:15:13Z</time>
      </trkpt>
      <trkpt lat="43.4686" lon="6.30359">
        <ele>159</ele>
        <time>2023-04-28T12:15:14Z</time>
      </trkpt>
      <trkpt lat="43.4686" lon="6.30359">
        <ele>159</ele>
        <time>2023-04-28T12:15:15Z</time>
      </trkpt>
      <trkpt lat="43.4686" lon="6.30359">
        <ele>159</ele>
        <time>2023-04-28T12:15:16Z</time>
      </trkpt>
      <trkpt lat="43.4686" lon="6.30359">
        <ele>159</ele>
        <time>2023-04-28T12:15:17Z</time>
      </trkpt>
      <trkpt lat="43.4686" lon="6.30359">
        <ele>159</ele>
        <time>2023-04-28T12:15:18Z</time>
      </trkpt>
      <trkpt lat="43.4686" lon="6.30359">
        <ele>159</ele>
        <time>2023-04-28T12:15:19Z</time>
      </trkpt>
      <trkpt lat="43.4686" lon="6.30359">
        <ele>159</ele>
        <time>2023-04-28T12:15:20Z</time>
      </trkpt>
      <trkpt lat="43.4686" lon="6.30359">
        <ele>159</ele>
        <time>2023-04-28T12:15:21Z</time>
      </trkpt>
      <trkpt lat="43.4686" lon="6.30359">
        <ele>159</ele>
        <time>2023-04-28T12:15:22Z</time>
      </trkpt>
      <trkpt lat="43.4686" lon="6.30359">
        <ele>159</ele>
        <time>2023-04-28T12:15:23Z</time>
      </trkpt>
      <trkpt lat="43.4686" lon="6.30359">
        <ele>159</ele>
        <time>2023-04-28T12:15:24Z</time>
      </trkpt>
      <trkpt lat="43.4686" lon="6.30359">
        <ele>159</ele>
        <time>2023-04-28T12:15:25Z</time>
      </trkpt>
      <trkpt lat="43.4686" lon="6.30359">
        <ele>159</ele>
        <time>2023-04-28T12:15:26Z</time>
      </trkpt>
      <trkpt lat="43.4686" lon="6.30359">
        <ele>159</ele>
        <time>2023-04-28T12:15:27Z</time>
      </trkpt>
      <trkpt lat="43.4686" lon="6.30359">
        <ele>159</ele>
        <time>2023-04-28T12:15:28Z</time>
      </trkpt>
      <trkpt lat="43.4686" lon="6.30359">
        <ele>159</ele>
        <time>2023-04-28T12:15:29Z</time>
      </trkpt>
      <trkpt lat="43.4686" lon="6.30359">
        <ele>159</ele>
        <time>2023-04-28T12:15:30Z</time>
      </trkpt>
      <trkpt lat="43.4686" lon="6.30359">
        <ele>159</ele>
        <time>2023-04-28T12:15:31Z</time>
      </trkpt>
      <trkpt lat="43.46862" lon="6.30355">
        <ele>159</ele>
        <time>2023-04-28T12:15:32Z</time>
      </trkpt>
      <trkpt lat="43.46862" lon="6.30355">
        <ele>159</ele>
        <time>2023-04-28T12:15:33Z</time>
      </trkpt>
      <trkpt lat="43.46862" lon="6.30355">
        <ele>159</ele>
        <time>2023-04-28T12:15:34Z</time>
      </trkpt>
      <trkpt lat="43.46862" lon="6.30355">
        <ele>159</ele>
        <time>2023-04-28T12:15:35Z</time>
      </trkpt>
      <trkpt lat="43.46862" lon="6.30355">
        <ele>159</ele>
        <time>2023-04-28T12:15:36Z</time>
      </trkpt>
      <trkpt lat="43.46862" lon="6.30355">
        <ele>159</ele>
        <time>2023-04-28T12:15:37Z</time>
      </trkpt>
      <trkpt lat="43.46862" lon="6.30355">
        <ele>159</ele>
        <time>2023-04-28T12:15:38Z</time>
      </trkpt>
      <trkpt lat="43.46862" lon="6.30355">
        <ele>159</ele>
        <time>2023-04-28T12:15:39Z</time>
      </trkpt>
      <trkpt lat="43.46862" lon="6.30355">
        <ele>159</ele>
        <time>2023-04-28T12:15:40Z</time>
      </trkpt>
      <trkpt lat="43.46862" lon="6.30355">
        <ele>159</ele>
        <time>2023-04-28T12:15:41Z</time>
      </trkpt>
      <trkpt lat="43.46862" lon="6.30355">
        <ele>159</ele>
        <time>2023-04-28T12:15:42Z</time>
      </trkpt>
      <trkpt lat="43.46862" lon="6.30356">
        <ele>159</ele>
        <time>2023-04-28T12:15:43Z</time>
      </trkpt>
      <trkpt lat="43.46862" lon="6.30356">
        <ele>159</ele>
        <time>2023-04-28T12:15:44Z</time>
      </trkpt>
      <trkpt lat="43.46862" lon="6.30356">
        <ele>159</ele>
        <time>2023-04-28T12:15:45Z</time>
      </trkpt>
      <trkpt lat="43.46862" lon="6.30356">
        <ele>159</ele>
        <time>2023-04-28T12:15:46Z</time>
      </trkpt>
      <trkpt lat="43.46862" lon="6.30356">
        <ele>159</ele>
        <time>2023-04-28T12:15:47Z</time>
      </trkpt>
      <trkpt lat="43.46862" lon="6.30356">
        <ele>159</ele>
        <time>2023-04-28T12:15:48Z</time>
      </trkpt>
      <trkpt lat="43.46862" lon="6.30356">
        <ele>160</ele>
        <time>2023-04-28T12:15:49Z</time>
      </trkpt>
      <trkpt lat="43.46862" lon="6.30356">
        <ele>160</ele>
        <time>2023-04-28T12:15:50Z</time>
      </trkpt>
      <trkpt lat="43.46862" lon="6.30356">
        <ele>160</ele>
        <time>2023-04-28T12:15:51Z</time>
      </trkpt>
      <trkpt lat="43.46862" lon="6.30356">
        <ele>160</ele>
        <time>2023-04-28T12:15:52Z</time>
      </trkpt>
      <trkpt lat="43.46862" lon="6.30356">
        <ele>160</ele>
        <time>2023-04-28T12:15:53Z</time>
      </trkpt>
      <trkpt lat="43.46862" lon="6.30357">
        <ele>160</ele>
        <time>2023-04-28T12:15:54Z</time>
      </trkpt>
      <trkpt lat="43.46863" lon="6.30357">
        <ele>160</ele>
        <time>2023-04-28T12:15:55Z</time>
      </trkpt>
      <trkpt lat="43.46863" lon="6.30357">
        <ele>160</ele>
        <time>2023-04-28T12:15:56Z</time>
      </trkpt>
      <trkpt lat="43.46864" lon="6.30358">
        <ele>160</ele>
        <time>2023-04-28T12:15:57Z</time>
      </trkpt>
      <trkpt lat="43.46864" lon="6.30358">
        <ele>160</ele>
        <time>2023-04-28T12:15:58Z</time>
      </trkpt>
      <trkpt lat="43.46864" lon="6.30358">
        <ele>160</ele>
        <time>2023-04-28T12:15:59Z</time>
      </trkpt>
      <trkpt lat="43.46864" lon="6.30359">
        <ele>160</ele>
        <time>2023-04-28T12:16:00Z</time>
      </trkpt>
      <trkpt lat="43.46864" lon="6.30359">
        <ele>160</ele>
        <time>2023-04-28T12:16:01Z</time>
      </trkpt>
      <trkpt lat="43.46864" lon="6.30359">
        <ele>160</ele>
        <time>2023-04-28T12:16:02Z</time>
      </trkpt>
      <trkpt lat="43.46864" lon="6.30359">
        <ele>160</ele>
        <time>2023-04-28T12:16:03Z</time>
      </trkpt>
      <trkpt lat="43.46864" lon="6.30359">
        <ele>160</ele>
        <time>2023-04-28T12:16:04Z</time>
      </trkpt>
      <trkpt lat="43.46864" lon="6.30359">
        <ele>160</ele>
        <time>2023-04-28T12:16:05Z</time>
      </trkpt>
      <trkpt lat="43.46864" lon="6.30359">
        <ele>160</ele>
        <time>2023-04-28T12:16:06Z</time>
      </trkpt>
      <trkpt lat="43.46864" lon="6.30359">
        <ele>160</ele>
        <time>2023-04-28T12:16:07Z</time>
      </trkpt>
      <trkpt lat="43.46864" lon="6.30359">
        <ele>160</ele>
        <time>2023-04-28T12:16:08Z</time>
      </trkpt>
      <trkpt lat="43.46864" lon="6.30359">
        <ele>160</ele>
        <time>2023-04-28T12:16:09Z</time>
      </trkpt>
      <trkpt lat="43.46864" lon="6.30359">
        <ele>160</ele>
        <time>2023-04-28T12:16:10Z</time>
      </trkpt>
      <trkpt lat="43.46864" lon="6.30359">
        <ele>160</ele>
        <time>2023-04-28T12:16:11Z</time>
      </trkpt>
      <trkpt lat="43.46864" lon="6.30359">
        <ele>160</ele>
        <time>2023-04-28T12:16:12Z</time>
      </trkpt>
      <trkpt lat="43.46864" lon="6.30359">
        <ele>160</ele>
        <time>2023-04-28T12:16:13Z</time>
      </trkpt>
      <trkpt lat="43.46865" lon="6.3036">
        <ele>160</ele>
        <time>2023-04-28T12:16:14Z</time>
      </trkpt>
      <trkpt lat="43.46865" lon="6.3036">
        <ele>160</ele>
        <time>2023-04-28T12:16:15Z</time>
      </trkpt>
      <trkpt lat="43.46865" lon="6.3036">
        <ele>160</ele>
        <time>2023-04-28T12:16:16Z</time>
      </trkpt>
      <trkpt lat="43.46865" lon="6.3036">
        <ele>160</ele>
        <time>2023-04-28T12:16:17Z</time>
      </trkpt>
      <trkpt lat="43.46865" lon="6.3036">
        <ele>160</ele>
        <time>2023-04-28T12:16:18Z</time>
      </trkpt>
      <trkpt lat="43.46865" lon="6.3036">
        <ele>160</ele>
        <time>2023-04-28T12:16:19Z</time>
      </trkpt>
      <trkpt lat="43.46865" lon="6.30361">
        <ele>160</ele>
        <time>2023-04-28T12:16:20Z</time>
      </trkpt>
      <trkpt lat="43.46865" lon="6.30361">
        <ele>160</ele>
        <time>2023-04-28T12:16:21Z</time>
      </trkpt>
      <trkpt lat="43.46866" lon="6.30362">
        <ele>160</ele>
        <time>2023-04-28T12:16:22Z</time>
      </trkpt>
      <trkpt lat="43.46866" lon="6.30362">
        <ele>160</ele>
        <time>2023-04-28T12:16:23Z</time>
      </trkpt>
      <trkpt lat="43.46866" lon="6.30363">
        <ele>160</ele>
        <time>2023-04-28T12:16:24Z</time>
      </trkpt>
      <trkpt lat="43.46866" lon="6.30363">
        <ele>160</ele>
        <time>2023-04-28T12:16:25Z</time>
      </trkpt>
      <trkpt lat="43.46866" lon="6.30364">
        <ele>160</ele>
        <time>2023-04-28T12:16:26Z</time>
      </trkpt>
      <trkpt lat="43.46867" lon="6.30364">
        <ele>160</ele>
        <time>2023-04-28T12:16:27Z</time>
      </trkpt>
      <trkpt lat="43.46867" lon="6.30364">
        <ele>160</ele>
        <time>2023-04-28T12:16:28Z</time>
      </trkpt>
      <trkpt lat="43.46867" lon="6.30364">
        <ele>160</ele>
        <time>2023-04-28T12:16:29Z</time>
      </trkpt>
      <trkpt lat="43.46867" lon="6.30364">
        <ele>160</ele>
        <time>2023-04-28T12:16:30Z</time>
      </trkpt>
      <trkpt lat="43.46867" lon="6.30364">
        <ele>160</ele>
        <time>2023-04-28T12:16:31Z</time>
      </trkpt>
      <trkpt lat="43.46867" lon="6.30364">
        <ele>160</ele>
        <time>2023-04-28T12:16:32Z</time>
      </trkpt>
      <trkpt lat="43.46867" lon="6.30364">
        <ele>160</ele>
        <time>2023-04-28T12:16:33Z</time>
      </trkpt>
      <trkpt lat="43.46867" lon="6.30364">
        <ele>160</ele>
        <time>2023-04-28T12:16:34Z</time>
      </trkpt>
      <trkpt lat="43.46867" lon="6.30364">
        <ele>160</ele>
        <time>2023-04-28T12:16:35Z</time>
      </trkpt>
      <trkpt lat="43.46867" lon="6.30364">
        <ele>160</ele>
        <time>2023-04-28T12:16:36Z</time>
      </trkpt>
      <trkpt lat="43.46867" lon="6.30364">
        <ele>160</ele>
        <time>2023-04-28T12:16:37Z</time>
      </trkpt>
      <trkpt lat="43.46867" lon="6.30364">
        <ele>160</ele>
        <time>2023-04-28T12:16:38Z</time>
      </trkpt>
      <trkpt lat="43.46867" lon="6.30364">
        <ele>160</ele>
        <time>2023-04-28T12:16:39Z</time>
      </trkpt>
      <trkpt lat="43.46867" lon="6.30364">
        <ele>160</ele>
        <time>2023-04-28T12:16:40Z</time>
      </trkpt>
      <trkpt lat="43.46867" lon="6.30364">
        <ele>160</ele>
        <time>2023-04-28T12:16:41Z</time>
      </trkpt>
      <trkpt lat="43.46867" lon="6.30364">
        <ele>160</ele>
        <time>2023-04-28T12:16:42Z</time>
      </trkpt>
      <trkpt lat="43.46867" lon="6.30366">
        <ele>160</ele>
        <time>2023-04-28T12:16:43Z</time>
      </trkpt>
      <trkpt lat="43.46867" lon="6.30366">
        <ele>160</ele>
        <time>2023-04-28T12:16:44Z</time>
      </trkpt>
      <trkpt lat="43.46868" lon="6.30366">
        <ele>160</ele>
        <time>2023-04-28T12:16:45Z</time>
      </trkpt>
      <trkpt lat="43.46868" lon="6.30367">
        <ele>160</ele>
        <time>2023-04-28T12:16:46Z</time>
      </trkpt>
      <trkpt lat="43.46868" lon="6.30367">
        <ele>160</ele>
        <time>2023-04-28T12:16:47Z</time>
      </trkpt>
      <trkpt lat="43.46868" lon="6.30367">
        <ele>160</ele>
        <time>2023-04-28T12:16:48Z</time>
      </trkpt>
      <trkpt lat="43.46869" lon="6.30367">
        <ele>160</ele>
        <time>2023-04-28T12:16:49Z</time>
      </trkpt>
      <trkpt lat="43.46869" lon="6.30368">
        <ele>160</ele>
        <time>2023-04-28T12:16:50Z</time>
      </trkpt>
      <trkpt lat="43.46869" lon="6.30368">
        <ele>159</ele>
        <time>2023-04-28T12:16:51Z</time>
      </trkpt>
      <trkpt lat="43.4687" lon="6.30368">
        <ele>159</ele>
        <time>2023-04-28T12:16:52Z</time>
      </trkpt>
      <trkpt lat="43.4687" lon="6.30368">
        <ele>159</ele>
        <time>2023-04-28T12:16:53Z</time>
      </trkpt>
      <trkpt lat="43.4687" lon="6.30368">
        <ele>159</ele>
        <time>2023-04-28T12:16:54Z</time>
      </trkpt>
      <trkpt lat="43.4687" lon="6.30368">
        <ele>159</ele>
        <time>2023-04-28T12:16:55Z</time>
      </trkpt>
      <trkpt lat="43.4687" lon="6.30368">
        <ele>159</ele>
        <time>2023-04-28T12:16:56Z</time>
      </trkpt>
      <trkpt lat="43.4687" lon="6.30368">
        <ele>159</ele>
        <time>2023-04-28T12:16:57Z</time>
      </trkpt>
      <trkpt lat="43.4687" lon="6.30368">
        <ele>159</ele>
        <time>2023-04-28T12:16:58Z</time>
      </trkpt>
      <trkpt lat="43.4687" lon="6.30368">
        <ele>159</ele>
        <time>2023-04-28T12:16:59Z</time>
      </trkpt>
      <trkpt lat="43.4687" lon="6.30368">
        <ele>159</ele>
        <time>2023-04-28T12:17:00Z</time>
      </trkpt>
      <trkpt lat="43.4687" lon="6.30368">
        <ele>159</ele>
        <time>2023-04-28T12:17:01Z</time>
      </trkpt>
      <trkpt lat="43.4687" lon="6.30368">
        <ele>159</ele>
        <time>2023-04-28T12:17:02Z</time>
      </trkpt>
      <trkpt lat="43.4687" lon="6.30368">
        <ele>159</ele>
        <time>2023-04-28T12:17:03Z</time>
      </trkpt>
      <trkpt lat="43.4687" lon="6.30368">
        <ele>159</ele>
        <time>2023-04-28T12:17:04Z</time>
      </trkpt>
      <trkpt lat="43.4687" lon="6.30368">
        <ele>159</ele>
        <time>2023-04-28T12:17:05Z</time>
      </trkpt>
      <trkpt lat="43.4687" lon="6.30368">
        <ele>159</ele>
        <time>2023-04-28T12:17:06Z</time>
      </trkpt>
      <trkpt lat="43.4687" lon="6.30368">
        <ele>159</ele>
        <time>2023-04-28T12:17:07Z</time>
      </trkpt>
      <trkpt lat="43.4687" lon="6.30368">
        <ele>159</ele>
        <time>2023-04-28T12:17:08Z</time>
      </trkpt>
      <trkpt lat="43.4687" lon="6.30368">
        <ele>159</ele>
        <time>2023-04-28T12:17:09Z</time>
      </trkpt>
      <trkpt lat="43.4687" lon="6.30368">
        <ele>159</ele>
        <time>2023-04-28T12:17:10Z</time>
      </trkpt>
      <trkpt lat="43.4687" lon="6.30368">
        <ele>159</ele>
        <time>2023-04-28T12:17:11Z</time>
      </trkpt>
      <trkpt lat="43.4687" lon="6.30368">
        <ele>159</ele>
        <time>2023-04-28T12:17:12Z</time>
      </trkpt>
      <trkpt lat="43.4687" lon="6.30368">
        <ele>159</ele>
        <time>2023-04-28T12:17:13Z</time>
      </trkpt>
      <trkpt lat="43.4687" lon="6.30368">
        <ele>159</ele>
        <time>2023-04-28T12:17:14Z</time>
      </trkpt>
      <trkpt lat="43.4687" lon="6.30368">
        <ele>159</ele>
        <time>2023-04-28T12:17:15Z</time>
      </trkpt>
      <trkpt lat="43.4687" lon="6.30368">
        <ele>159</ele>
        <time>2023-04-28T12:17:16Z</time>
      </trkpt>
      <trkpt lat="43.4687" lon="6.30368">
        <ele>159</ele>
        <time>2023-04-28T12:17:17Z</time>
      </trkpt>
      <trkpt lat="43.4687" lon="6.30368">
        <ele>159</ele>
        <time>2023-04-28T12:17:18Z</time>
      </trkpt>
      <trkpt lat="43.4687" lon="6.30368">
        <ele>159</ele>
        <time>2023-04-28T12:17:19Z</time>
      </trkpt>
      <trkpt lat="43.4687" lon="6.30368">
        <ele>159</ele>
        <time>2023-04-28T12:17:20Z</time>
      </trkpt>
      <trkpt lat="43.4687" lon="6.30368">
        <ele>159</ele>
        <time>2023-04-28T12:17:21Z</time>
      </trkpt>
      <trkpt lat="43.4687" lon="6.30368">
        <ele>159</ele>
        <time>2023-04-28T12:17:22Z</time>
      </trkpt>
      <trkpt lat="43.4687" lon="6.30368">
        <ele>159</ele>
        <time>2023-04-28T12:17:23Z</time>
      </trkpt>
      <trkpt lat="43.4687" lon="6.30368">
        <ele>159</ele>
        <time>2023-04-28T12:17:24Z</time>
      </trkpt>
      <trkpt lat="43.4687" lon="6.30368">
        <ele>159</ele>
        <time>2023-04-28T12:17:25Z</time>
      </trkpt>
      <trkpt lat="43.46871" lon="6.30369">
        <ele>159</ele>
        <time>2023-04-28T12:17:26Z</time>
      </trkpt>
      <trkpt lat="43.46871" lon="6.30369">
        <ele>159</ele>
        <time>2023-04-28T12:17:27Z</time>
      </trkpt>
      <trkpt lat="43.46871" lon="6.30369">
        <ele>159</ele>
        <time>2023-04-28T12:17:28Z</time>
      </trkpt>
      <trkpt lat="43.46871" lon="6.30369">
        <ele>159</ele>
        <time>2023-04-28T12:17:29Z</time>
      </trkpt>
      <trkpt lat="43.46871" lon="6.30369">
        <ele>159</ele>
        <time>2023-04-28T12:17:30Z</time>
      </trkpt>
      <trkpt lat="43.46871" lon="6.30369">
        <ele>159</ele>
        <time>2023-04-28T12:17:31Z</time>
      </trkpt>
      <trkpt lat="43.46871" lon="6.30369">
        <ele>159</ele>
        <time>2023-04-28T12:17:32Z</time>
      </trkpt>
      <trkpt lat="43.46871" lon="6.30369">
        <ele>159</ele>
        <time>2023-04-28T12:17:33Z</time>
      </trkpt>
      <trkpt lat="43.46871" lon="6.30369">
        <ele>159</ele>
        <time>2023-04-28T12:17:34Z</time>
      </trkpt>
      <trkpt lat="43.46871" lon="6.30369">
        <ele>159</ele>
        <time>2023-04-28T12:17:35Z</time>
      </trkpt>
      <trkpt lat="43.46871" lon="6.30369">
        <ele>159</ele>
        <time>2023-04-28T12:17:36Z</time>
      </trkpt>
      <trkpt lat="43.46871" lon="6.30369">
        <ele>159</ele>
        <time>2023-04-28T12:17:37Z</time>
      </trkpt>
      <trkpt lat="43.46871" lon="6.30369">
        <ele>159</ele>
        <time>2023-04-28T12:17:38Z</time>
      </trkpt>
      <trkpt lat="43.46871" lon="6.30369">
        <ele>159</ele>
        <time>2023-04-28T12:17:39Z</time>
      </trkpt>
      <trkpt lat="43.46871" lon="6.30369">
        <ele>159</ele>
        <time>2023-04-28T12:17:40Z</time>
      </trkpt>
      <trkpt lat="43.46871" lon="6.30369">
        <ele>159</ele>
        <time>2023-04-28T12:17:41Z</time>
      </trkpt>
      <trkpt lat="43.46871" lon="6.30369">
        <ele>159</ele>
        <time>2023-04-28T12:17:42Z</time>
      </trkpt>
      <trkpt lat="43.46871" lon="6.30369">
        <ele>159</ele>
        <time>2023-04-28T12:17:43Z</time>
      </trkpt>
      <trkpt lat="43.46871" lon="6.30369">
        <ele>159</ele>
        <time>2023-04-28T12:17:44Z</time>
      </trkpt>
      <trkpt lat="43.46871" lon="6.30369">
        <ele>159</ele>
        <time>2023-04-28T12:17:45Z</time>
      </trkpt>
      <trkpt lat="43.46871" lon="6.30369">
        <ele>159</ele>
        <time>2023-04-28T12:17:46Z</time>
      </trkpt>
      <trkpt lat="43.46871" lon="6.30369">
        <ele>159</ele>
        <time>2023-04-28T12:17:47Z</time>
      </trkpt>
      <trkpt lat="43.46871" lon="6.30369">
        <ele>159</ele>
        <time>2023-04-28T12:17:48Z</time>
      </trkpt>
      <trkpt lat="43.46871" lon="6.30369">
        <ele>159</ele>
        <time>2023-04-28T12:17:49Z</time>
      </trkpt>
      <trkpt lat="43.46871" lon="6.30369">
        <ele>159</ele>
        <time>2023-04-28T12:17:50Z</time>
      </trkpt>
      <trkpt lat="43.46871" lon="6.30369">
        <ele>159</ele>
        <time>2023-04-28T12:17:51Z</time>
      </trkpt>
      <trkpt lat="43.46871" lon="6.30369">
        <ele>159</ele>
        <time>2023-04-28T12:17:52Z</time>
      </trkpt>
      <trkpt lat="43.46871" lon="6.30369">
        <ele>159</ele>
        <time>2023-04-28T12:17:53Z</time>
      </trkpt>
      <trkpt lat="43.46871" lon="6.30369">
        <ele>159</ele>
        <time>2023-04-28T12:17:54Z</time>
      </trkpt>
      <trkpt lat="43.46871" lon="6.30369">
        <ele>159</ele>
        <time>2023-04-28T12:17:55Z</time>
      </trkpt>
      <trkpt lat="43.46871" lon="6.30369">
        <ele>159</ele>
        <time>2023-04-28T12:17:56Z</time>
      </trkpt>
      <trkpt lat="43.46871" lon="6.30369">
        <ele>159</ele>
        <time>2023-04-28T12:17:57Z</time>
      </trkpt>
      <trkpt lat="43.46871" lon="6.30369">
        <ele>159</ele>
        <time>2023-04-28T12:17:58Z</time>
      </trkpt>
      <trkpt lat="43.46871" lon="6.30369">
        <ele>159</ele>
        <time>2023-04-28T12:17:59Z</time>
      </trkpt>
      <trkpt lat="43.46871" lon="6.30369">
        <ele>159</ele>
        <time>2023-04-28T12:18:00Z</time>
      </trkpt>
      <trkpt lat="43.46871" lon="6.30369">
        <ele>159</ele>
        <time>2023-04-28T12:18:01Z</time>
      </trkpt>
      <trkpt lat="43.46871" lon="6.30369">
        <ele>159</ele>
        <time>2023-04-28T12:18:02Z</time>
      </trkpt>
      <trkpt lat="43.46871" lon="6.30369">
        <ele>159</ele>
        <time>2023-04-28T12:18:03Z</time>
      </trkpt>
      <trkpt lat="43.46871" lon="6.30369">
        <ele>159</ele>
        <time>2023-04-28T12:18:04Z</time>
      </trkpt>
      <trkpt lat="43.46871" lon="6.30369">
        <ele>159</ele>
        <time>2023-04-28T12:18:05Z</time>
      </trkpt>
      <trkpt lat="43.46871" lon="6.30369">
        <ele>159</ele>
        <time>2023-04-28T12:18:06Z</time>
      </trkpt>
      <trkpt lat="43.46871" lon="6.30369">
        <ele>159</ele>
        <time>2023-04-28T12:18:07Z</time>
      </trkpt>
      <trkpt lat="43.46871" lon="6.30369">
        <ele>159</ele>
        <time>2023-04-28T12:18:08Z</time>
      </trkpt>
      <trkpt lat="43.46871" lon="6.30369">
        <ele>159</ele>
        <time>2023-04-28T12:18:09Z</time>
      </trkpt>
      <trkpt lat="43.46871" lon="6.30369">
        <ele>159</ele>
        <time>2023-04-28T12:18:10Z</time>
      </trkpt>
      <trkpt lat="43.46871" lon="6.30369">
        <ele>159</ele>
        <time>2023-04-28T12:18:11Z</time>
      </trkpt>
      <trkpt lat="43.46871" lon="6.30369">
        <ele>159</ele>
        <time>2023-04-28T12:18:12Z</time>
      </trkpt>
      <trkpt lat="43.46871" lon="6.30369">
        <ele>159</ele>
        <time>2023-04-28T12:18:13Z</time>
      </trkpt>
      <trkpt lat="43.46871" lon="6.30369">
        <ele>159</ele>
        <time>2023-04-28T12:18:14Z</time>
      </trkpt>
      <trkpt lat="43.46871" lon="6.30369">
        <ele>159</ele>
        <time>2023-04-28T12:18:15Z</time>
      </trkpt>
      <trkpt lat="43.46871" lon="6.30369">
        <ele>159</ele>
        <time>2023-04-28T12:18:16Z</time>
      </trkpt>
      <trkpt lat="43.46871" lon="6.30369">
        <ele>159</ele>
        <time>2023-04-28T12:18:17Z</time>
      </trkpt>
      <trkpt lat="43.46871" lon="6.30369">
        <ele>159</ele>
        <time>2023-04-28T12:18:18Z</time>
      </trkpt>
      <trkpt lat="43.46871" lon="6.30369">
        <ele>159</ele>
        <time>2023-04-28T12:18:19Z</time>
      </trkpt>
      <trkpt lat="43.46871" lon="6.30369">
        <ele>159</ele>
        <time>2023-04-28T12:18:20Z</time>
      </trkpt>
      <trkpt lat="43.46871" lon="6.30369">
        <ele>159</ele>
        <time>2023-04-28T12:18:21Z</time>
      </trkpt>
      <trkpt lat="43.46871" lon="6.30369">
        <ele>159</ele>
        <time>2023-04-28T12:18:22Z</time>
      </trkpt>
      <trkpt lat="43.46871" lon="6.30369">
        <ele>159</ele>
        <time>2023-04-28T12:18:23Z</time>
      </trkpt>
      <trkpt lat="43.46871" lon="6.30369">
        <ele>159</ele>
        <time>2023-04-28T12:18:24Z</time>
      </trkpt>
      <trkpt lat="43.46871" lon="6.30369">
        <ele>159</ele>
        <time>2023-04-28T12:18:25Z</time>
      </trkpt>
      <trkpt lat="43.46871" lon="6.30369">
        <ele>159</ele>
        <time>2023-04-28T12:18:26Z</time>
      </trkpt>
      <trkpt lat="43.46871" lon="6.30369">
        <ele>159</ele>
        <time>2023-04-28T12:18:27Z</time>
      </trkpt>
      <trkpt lat="43.46871" lon="6.30369">
        <ele>159</ele>
        <time>2023-04-28T12:18:28Z</time>
      </trkpt>
      <trkpt lat="43.46871" lon="6.30369">
        <ele>159</ele>
        <time>2023-04-28T12:18:29Z</time>
      </trkpt>
      <trkpt lat="43.46871" lon="6.30369">
        <ele>159</ele>
        <time>2023-04-28T12:18:30Z</time>
      </trkpt>
      <trkpt lat="43.46871" lon="6.30369">
        <ele>159</ele>
        <time>2023-04-28T12:18:31Z</time>
      </trkpt>
      <trkpt lat="43.46871" lon="6.30369">
        <ele>159</ele>
        <time>2023-04-28T12:18:32Z</time>
      </trkpt>
      <trkpt lat="43.46871" lon="6.30369">
        <ele>159</ele>
        <time>2023-04-28T12:18:33Z</time>
      </trkpt>
      <trkpt lat="43.46871" lon="6.30369">
        <ele>159</ele>
        <time>2023-04-28T12:18:34Z</time>
      </trkpt>
      <trkpt lat="43.46871" lon="6.30369">
        <ele>159</ele>
        <time>2023-04-28T12:18:35Z</time>
      </trkpt>
      <trkpt lat="43.46871" lon="6.30369">
        <ele>159</ele>
        <time>2023-04-28T12:18:36Z</time>
      </trkpt>
      <trkpt lat="43.46871" lon="6.30369">
        <ele>159</ele>
        <time>2023-04-28T12:18:37Z</time>
      </trkpt>
      <trkpt lat="43.46871" lon="6.30369">
        <ele>159</ele>
        <time>2023-04-28T12:18:38Z</time>
      </trkpt>
      <trkpt lat="43.46871" lon="6.30369">
        <ele>159</ele>
        <time>2023-04-28T12:18:39Z</time>
      </trkpt>
      <trkpt lat="43.46871" lon="6.30369">
        <ele>159</ele>
        <time>2023-04-28T12:18:40Z</time>
      </trkpt>
      <trkpt lat="43.46871" lon="6.30369">
        <ele>159</ele>
        <time>2023-04-28T12:18:41Z</time>
      </trkpt>
      <trkpt lat="43.46871" lon="6.30369">
        <ele>159</ele>
        <time>2023-04-28T12:18:42Z</time>
      </trkpt>
      <trkpt lat="43.46871" lon="6.30369">
        <ele>159</ele>
        <time>2023-04-28T12:18:43Z</time>
      </trkpt>
      <trkpt lat="43.46871" lon="6.30369">
        <ele>159</ele>
        <time>2023-04-28T12:18:44Z</time>
      </trkpt>
      <trkpt lat="43.46871" lon="6.30369">
        <ele>159</ele>
        <time>2023-04-28T12:18:45Z</time>
      </trkpt>
      <trkpt lat="43.46871" lon="6.30369">
        <ele>159</ele>
        <time>2023-04-28T12:18:46Z</time>
      </trkpt>
      <trkpt lat="43.46871" lon="6.30369">
        <ele>159</ele>
        <time>2023-04-28T12:18:47Z</time>
      </trkpt>
      <trkpt lat="43.46871" lon="6.30369">
        <ele>159</ele>
        <time>2023-04-28T12:18:48Z</time>
      </trkpt>
      <trkpt lat="43.46871" lon="6.30369">
        <ele>159</ele>
        <time>2023-04-28T12:18:49Z</time>
      </trkpt>
      <trkpt lat="43.46871" lon="6.30368">
        <ele>159</ele>
        <time>2023-04-28T12:18:50Z</time>
      </trkpt>
      <trkpt lat="43.46871" lon="6.30368">
        <ele>159</ele>
        <time>2023-04-28T12:18:51Z</time>
      </trkpt>
      <trkpt lat="43.4687" lon="6.30368">
        <ele>159</ele>
        <time>2023-04-28T12:18:52Z</time>
      </trkpt>
      <trkpt lat="43.4687" lon="6.30367">
        <ele>159</ele>
        <time>2023-04-28T12:18:53Z</time>
      </trkpt>
      <trkpt lat="43.4687" lon="6.30367">
        <ele>159</ele>
        <time>2023-04-28T12:18:54Z</time>
      </trkpt>
      <trkpt lat="43.4687" lon="6.30367">
        <ele>159</ele>
        <time>2023-04-28T12:18:55Z</time>
      </trkpt>
      <trkpt lat="43.4687" lon="6.30367">
        <ele>159</ele>
        <time>2023-04-28T12:18:56Z</time>
      </trkpt>
      <trkpt lat="43.4687" lon="6.30367">
        <ele>159</ele>
        <time>2023-04-28T12:18:57Z</time>
      </trkpt>
      <trkpt lat="43.4687" lon="6.30367">
        <ele>159</ele>
        <time>2023-04-28T12:18:58Z</time>
      </trkpt>
      <trkpt lat="43.4687" lon="6.30367">
        <ele>159</ele>
        <time>2023-04-28T12:18:59Z</time>
      </trkpt>
      <trkpt lat="43.4687" lon="6.30367">
        <ele>159</ele>
        <time>2023-04-28T12:19:00Z</time>
      </trkpt>
      <trkpt lat="43.4687" lon="6.30367">
        <ele>159</ele>
        <time>2023-04-28T12:19:01Z</time>
      </trkpt>
      <trkpt lat="43.4687" lon="6.30367">
        <ele>159</ele>
        <time>2023-04-28T12:19:02Z</time>
      </trkpt>
      <trkpt lat="43.4687" lon="6.30367">
        <ele>159</ele>
        <time>2023-04-28T12:19:03Z</time>
      </trkpt>
      <trkpt lat="43.4687" lon="6.30367">
        <ele>159</ele>
        <time>2023-04-28T12:19:04Z</time>
      </trkpt>
      <trkpt lat="43.4687" lon="6.30367">
        <ele>159</ele>
        <time>2023-04-28T12:19:05Z</time>
      </trkpt>
      <trkpt lat="43.4687" lon="6.30367">
        <ele>159</ele>
        <time>2023-04-28T12:19:06Z</time>
      </trkpt>
      <trkpt lat="43.4687" lon="6.30367">
        <ele>159</ele>
        <time>2023-04-28T12:19:07Z</time>
      </trkpt>
      <trkpt lat="43.46871" lon="6.30367">
        <ele>159</ele>
        <time>2023-04-28T12:19:08Z</time>
      </trkpt>
      <trkpt lat="43.46871" lon="6.30367">
        <ele>159</ele>
        <time>2023-04-28T12:19:09Z</time>
      </trkpt>
      <trkpt lat="43.46871" lon="6.30367">
        <ele>159</ele>
        <time>2023-04-28T12:19:10Z</time>
      </trkpt>
      <trkpt lat="43.46871" lon="6.30367">
        <ele>159</ele>
        <time>2023-04-28T12:19:11Z</time>
      </trkpt>
      <trkpt lat="43.46871" lon="6.30367">
        <ele>159</ele>
        <time>2023-04-28T12:19:12Z</time>
      </trkpt>
      <trkpt lat="43.46871" lon="6.30367">
        <ele>159</ele>
        <time>2023-04-28T12:19:13Z</time>
      </trkpt>
      <trkpt lat="43.46871" lon="6.30367">
        <ele>159</ele>
        <time>2023-04-28T12:19:14Z</time>
      </trkpt>
      <trkpt lat="43.46871" lon="6.30367">
        <ele>159</ele>
        <time>2023-04-28T12:19:15Z</time>
      </trkpt>
      <trkpt lat="43.46871" lon="6.30367">
        <ele>159</ele>
        <time>2023-04-28T12:19:16Z</time>
      </trkpt>
      <trkpt lat="43.46871" lon="6.30367">
        <ele>159</ele>
        <time>2023-04-28T12:19:17Z</time>
      </trkpt>
      <trkpt lat="43.46871" lon="6.30367">
        <ele>159</ele>
        <time>2023-04-28T12:19:18Z</time>
      </trkpt>
      <trkpt lat="43.46871" lon="6.30367">
        <ele>159</ele>
        <time>2023-04-28T12:19:19Z</time>
      </trkpt>
      <trkpt lat="43.46871" lon="6.30367">
        <ele>159</ele>
        <time>2023-04-28T12:19:20Z</time>
      </trkpt>
      <trkpt lat="43.46871" lon="6.30367">
        <ele>159</ele>
        <time>2023-04-28T12:19:21Z</time>
      </trkpt>
      <trkpt lat="43.46871" lon="6.30367">
        <ele>159</ele>
        <time>2023-04-28T12:19:22Z</time>
      </trkpt>
      <trkpt lat="43.46871" lon="6.30367">
        <ele>159</ele>
        <time>2023-04-28T12:19:23Z</time>
      </trkpt>
      <trkpt lat="43.46871" lon="6.30367">
        <ele>159</ele>
        <time>2023-04-28T12:19:24Z</time>
      </trkpt>
      <trkpt lat="43.46871" lon="6.30367">
        <ele>159</ele>
        <time>2023-04-28T12:19:25Z</time>
      </trkpt>
      <trkpt lat="43.46871" lon="6.30367">
        <ele>159</ele>
        <time>2023-04-28T12:19:26Z</time>
      </trkpt>
      <trkpt lat="43.46871" lon="6.30367">
        <ele>159</ele>
        <time>2023-04-28T12:19:27Z</time>
      </trkpt>
      <trkpt lat="43.46871" lon="6.30367">
        <ele>159</ele>
        <time>2023-04-28T12:19:28Z</time>
      </trkpt>
      <trkpt lat="43.46871" lon="6.30367">
        <ele>159</ele>
        <time>2023-04-28T12:19:29Z</time>
      </trkpt>
      <trkpt lat="43.46871" lon="6.30367">
        <ele>159</ele>
        <time>2023-04-28T12:19:30Z</time>
      </trkpt>
      <trkpt lat="43.46871" lon="6.30367">
        <ele>159</ele>
        <time>2023-04-28T12:19:31Z</time>
      </trkpt>
      <trkpt lat="43.46871" lon="6.30367">
        <ele>159</ele>
        <time>2023-04-28T12:19:32Z</time>
      </trkpt>
      <trkpt lat="43.46871" lon="6.30367">
        <ele>159</ele>
        <time>2023-04-28T12:19:33Z</time>
      </trkpt>
      <trkpt lat="43.46871" lon="6.30367">
        <ele>159</ele>
        <time>2023-04-28T12:19:34Z</time>
      </trkpt>
      <trkpt lat="43.46871" lon="6.30367">
        <ele>159</ele>
        <time>2023-04-28T12:19:35Z</time>
      </trkpt>
      <trkpt lat="43.46871" lon="6.30367">
        <ele>159</ele>
        <time>2023-04-28T12:19:36Z</time>
      </trkpt>
      <trkpt lat="43.46871" lon="6.30367">
        <ele>159</ele>
        <time>2023-04-28T12:19:37Z</time>
      </trkpt>
      <trkpt lat="43.46871" lon="6.30367">
        <ele>159</ele>
        <time>2023-04-28T12:19:38Z</time>
      </trkpt>
      <trkpt lat="43.46871" lon="6.30367">
        <ele>159</ele>
        <time>2023-04-28T12:19:39Z</time>
      </trkpt>
      <trkpt lat="43.46871" lon="6.30367">
        <ele>159</ele>
        <time>2023-04-28T12:19:40Z</time>
      </trkpt>
      <trkpt lat="43.46871" lon="6.30367">
        <ele>159</ele>
        <time>2023-04-28T12:19:41Z</time>
      </trkpt>
      <trkpt lat="43.46871" lon="6.30367">
        <ele>159</ele>
        <time>2023-04-28T12:19:42Z</time>
      </trkpt>
      <trkpt lat="43.46871" lon="6.30367">
        <ele>159</ele>
        <time>2023-04-28T12:19:43Z</time>
      </trkpt>
      <trkpt lat="43.46871" lon="6.30367">
        <ele>159</ele>
        <time>2023-04-28T12:19:44Z</time>
      </trkpt>
      <trkpt lat="43.46871" lon="6.30367">
        <ele>159</ele>
        <time>2023-04-28T12:19:45Z</time>
      </trkpt>
      <trkpt lat="43.46871" lon="6.30367">
        <ele>159</ele>
        <time>2023-04-28T12:19:46Z</time>
      </trkpt>
      <trkpt lat="43.46871" lon="6.30367">
        <ele>159</ele>
        <time>2023-04-28T12:19:47Z</time>
      </trkpt>
      <trkpt lat="43.46871" lon="6.30367">
        <ele>159</ele>
        <time>2023-04-28T12:19:48Z</time>
      </trkpt>
      <trkpt lat="43.46871" lon="6.30367">
        <ele>159</ele>
        <time>2023-04-28T12:19:49Z</time>
      </trkpt>
      <trkpt lat="43.46871" lon="6.30367">
        <ele>159</ele>
        <time>2023-04-28T12:19:50Z</time>
      </trkpt>
      <trkpt lat="43.46871" lon="6.30367">
        <ele>159</ele>
        <time>2023-04-28T12:19:51Z</time>
      </trkpt>
      <trkpt lat="43.46871" lon="6.30367">
        <ele>159</ele>
        <time>2023-04-28T12:19:52Z</time>
      </trkpt>
      <trkpt lat="43.46871" lon="6.30367">
        <ele>159</ele>
        <time>2023-04-28T12:19:53Z</time>
      </trkpt>
      <trkpt lat="43.46871" lon="6.30367">
        <ele>159</ele>
        <time>2023-04-28T12:19:54Z</time>
      </trkpt>
      <trkpt lat="43.46871" lon="6.30367">
        <ele>159</ele>
        <time>2023-04-28T12:19:55Z</time>
      </trkpt>
      <trkpt lat="43.46871" lon="6.30367">
        <ele>159</ele>
        <time>2023-04-28T12:19:56Z</time>
      </trkpt>
      <trkpt lat="43.46871" lon="6.30367">
        <ele>159</ele>
        <time>2023-04-28T12:19:57Z</time>
      </trkpt>
      <trkpt lat="43.46871" lon="6.30367">
        <ele>159</ele>
        <time>2023-04-28T12:19:58Z</time>
      </trkpt>
      <trkpt lat="43.46871" lon="6.30367">
        <ele>159</ele>
        <time>2023-04-28T12:19:59Z</time>
      </trkpt>
      <trkpt lat="43.46871" lon="6.30367">
        <ele>159</ele>
        <time>2023-04-28T12:20:00Z</time>
      </trkpt>
      <trkpt lat="43.46871" lon="6.30367">
        <ele>159</ele>
        <time>2023-04-28T12:20:01Z</time>
      </trkpt>
      <trkpt lat="43.46871" lon="6.30367">
        <ele>159</ele>
        <time>2023-04-28T12:20:02Z</time>
      </trkpt>
      <trkpt lat="43.46871" lon="6.30367">
        <ele>159</ele>
        <time>2023-04-28T12:20:03Z</time>
      </trkpt>
      <trkpt lat="43.46871" lon="6.30367">
        <ele>159</ele>
        <time>2023-04-28T12:20:04Z</time>
      </trkpt>
      <trkpt lat="43.46871" lon="6.30367">
        <ele>159</ele>
        <time>2023-04-28T12:20:05Z</time>
      </trkpt>
      <trkpt lat="43.46871" lon="6.30367">
        <ele>159</ele>
        <time>2023-04-28T12:20:06Z</time>
      </trkpt>
      <trkpt lat="43.46871" lon="6.30367">
        <ele>159</ele>
        <time>2023-04-28T12:20:07Z</time>
      </trkpt>
      <trkpt lat="43.46871" lon="6.30367">
        <ele>159</ele>
        <time>2023-04-28T12:20:08Z</time>
      </trkpt>
      <trkpt lat="43.46871" lon="6.30367">
        <ele>159</ele>
        <time>2023-04-28T12:20:09Z</time>
      </trkpt>
      <trkpt lat="43.46872" lon="6.30372">
        <ele>159</ele>
        <time>2023-04-28T12:20:10Z</time>
      </trkpt>
      <trkpt lat="43.46872" lon="6.30372">
        <ele>159</ele>
        <time>2023-04-28T12:20:11Z</time>
      </trkpt>
      <trkpt lat="43.46872" lon="6.30372">
        <ele>159</ele>
        <time>2023-04-28T12:20:12Z</time>
      </trkpt>
      <trkpt lat="43.46872" lon="6.30371">
        <ele>159</ele>
        <time>2023-04-28T12:20:13Z</time>
      </trkpt>
      <trkpt lat="43.46872" lon="6.30371">
        <ele>159</ele>
        <time>2023-04-28T12:20:14Z</time>
      </trkpt>
      <trkpt lat="43.46872" lon="6.30371">
        <ele>159</ele>
        <time>2023-04-28T12:20:15Z</time>
      </trkpt>
      <trkpt lat="43.46872" lon="6.30371">
        <ele>159</ele>
        <time>2023-04-28T12:20:16Z</time>
      </trkpt>
      <trkpt lat="43.46872" lon="6.30371">
        <ele>159</ele>
        <time>2023-04-28T12:20:17Z</time>
      </trkpt>
      <trkpt lat="43.46873" lon="6.30371">
        <ele>159</ele>
        <time>2023-04-28T12:20:18Z</time>
      </trkpt>
      <trkpt lat="43.46873" lon="6.30371">
        <ele>159</ele>
        <time>2023-04-28T12:20:19Z</time>
      </trkpt>
      <trkpt lat="43.46873" lon="6.30371">
        <ele>159</ele>
        <time>2023-04-28T12:20:20Z</time>
      </trkpt>
      <trkpt lat="43.46873" lon="6.30371">
        <ele>159</ele>
        <time>2023-04-28T12:20:21Z</time>
      </trkpt>
      <trkpt lat="43.46873" lon="6.30371">
        <ele>159</ele>
        <time>2023-04-28T12:20:22Z</time>
      </trkpt>
      <trkpt lat="43.46873" lon="6.30371">
        <ele>159</ele>
        <time>2023-04-28T12:20:23Z</time>
      </trkpt>
      <trkpt lat="43.46873" lon="6.30371">
        <ele>159</ele>
        <time>2023-04-28T12:20:24Z</time>
      </trkpt>
      <trkpt lat="43.46874" lon="6.30371">
        <ele>159</ele>
        <time>2023-04-28T12:20:25Z</time>
      </trkpt>
      <trkpt lat="43.46874" lon="6.30371">
        <ele>159</ele>
        <time>2023-04-28T12:20:26Z</time>
      </trkpt>
      <trkpt lat="43.46874" lon="6.30371">
        <ele>159</ele>
        <time>2023-04-28T12:20:27Z</time>
      </trkpt>
      <trkpt lat="43.46874" lon="6.30371">
        <ele>159</ele>
        <time>2023-04-28T12:20:28Z</time>
      </trkpt>
      <trkpt lat="43.46874" lon="6.30371">
        <ele>159</ele>
        <time>2023-04-28T12:20:29Z</time>
      </trkpt>
      <trkpt lat="43.46874" lon="6.30371">
        <ele>159</ele>
        <time>2023-04-28T12:20:30Z</time>
      </trkpt>
      <trkpt lat="43.46874" lon="6.30371">
        <ele>159</ele>
        <time>2023-04-28T12:20:31Z</time>
      </trkpt>
      <trkpt lat="43.46874" lon="6.30371">
        <ele>159</ele>
        <time>2023-04-28T12:20:32Z</time>
      </trkpt>
      <trkpt lat="43.46874" lon="6.30371">
        <ele>159</ele>
        <time>2023-04-28T12:20:33Z</time>
      </trkpt>
      <trkpt lat="43.46874" lon="6.30371">
        <ele>159</ele>
        <time>2023-04-28T12:20:34Z</time>
      </trkpt>
      <trkpt lat="43.46874" lon="6.30371">
        <ele>159</ele>
        <time>2023-04-28T12:20:35Z</time>
      </trkpt>
      <trkpt lat="43.46873" lon="6.3037">
        <ele>159</ele>
        <time>2023-04-28T12:20:36Z</time>
      </trkpt>
      <trkpt lat="43.46873" lon="6.3037">
        <ele>159</ele>
        <time>2023-04-28T12:20:37Z</time>
      </trkpt>
      <trkpt lat="43.46874" lon="6.30371">
        <ele>159</ele>
        <time>2023-04-28T12:20:38Z</time>
      </trkpt>
      <trkpt lat="43.46874" lon="6.30372">
        <ele>159</ele>
        <time>2023-04-28T12:20:39Z</time>
      </trkpt>
      <trkpt lat="43.46875" lon="6.30373">
        <ele>159</ele>
        <time>2023-04-28T12:20:40Z</time>
      </trkpt>
      <trkpt lat="43.46875" lon="6.30374">
        <ele>157</ele>
        <time>2023-04-28T12:20:41Z</time>
      </trkpt>
      <trkpt lat="43.46875" lon="6.30374">
        <ele>156</ele>
        <time>2023-04-28T12:20:42Z</time>
      </trkpt>
      <trkpt lat="43.46876" lon="6.30375">
        <ele>156</ele>
        <time>2023-04-28T12:20:43Z</time>
      </trkpt>
      <trkpt lat="43.46876" lon="6.30375">
        <ele>156</ele>
        <time>2023-04-28T12:20:44Z</time>
      </trkpt>
      <trkpt lat="43.46876" lon="6.30375">
        <ele>156</ele>
        <time>2023-04-28T12:20:45Z</time>
      </trkpt>
      <trkpt lat="43.46876" lon="6.30375">
        <ele>156</ele>
        <time>2023-04-28T12:20:46Z</time>
      </trkpt>
      <trkpt lat="43.46876" lon="6.30376">
        <ele>156</ele>
        <time>2023-04-28T12:20:47Z</time>
      </trkpt>
      <trkpt lat="43.46877" lon="6.30377">
        <ele>156</ele>
        <time>2023-04-28T12:20:48Z</time>
      </trkpt>
      <trkpt lat="43.46877" lon="6.30378">
        <ele>155</ele>
        <time>2023-04-28T12:20:49Z</time>
      </trkpt>
      <trkpt lat="43.46877" lon="6.30379">
        <ele>155</ele>
        <time>2023-04-28T12:20:50Z</time>
      </trkpt>
      <trkpt lat="43.46877" lon="6.30379">
        <ele>155</ele>
        <time>2023-04-28T12:20:51Z</time>
      </trkpt>
      <trkpt lat="43.46877" lon="6.30379">
        <ele>155</ele>
        <time>2023-04-28T12:20:52Z</time>
      </trkpt>
      <trkpt lat="43.46877" lon="6.3038">
        <ele>155</ele>
        <time>2023-04-28T12:20:53Z</time>
      </trkpt>
      <trkpt lat="43.46877" lon="6.3038">
        <ele>155</ele>
        <time>2023-04-28T12:20:54Z</time>
      </trkpt>
      <trkpt lat="43.46878" lon="6.3038">
        <ele>155</ele>
        <time>2023-04-28T12:20:55Z</time>
      </trkpt>
      <trkpt lat="43.46878" lon="6.30381">
        <ele>155</ele>
        <time>2023-04-28T12:20:56Z</time>
      </trkpt>
      <trkpt lat="43.46878" lon="6.30381">
        <ele>155</ele>
        <time>2023-04-28T12:20:57Z</time>
      </trkpt>
      <trkpt lat="43.46878" lon="6.30381">
        <ele>155</ele>
        <time>2023-04-28T12:20:58Z</time>
      </trkpt>
      <trkpt lat="43.46878" lon="6.30381">
        <ele>155</ele>
        <time>2023-04-28T12:20:59Z</time>
      </trkpt>
      <trkpt lat="43.46879" lon="6.30382">
        <ele>155</ele>
        <time>2023-04-28T12:21:00Z</time>
      </trkpt>
      <trkpt lat="43.46879" lon="6.30382">
        <ele>155</ele>
        <time>2023-04-28T12:21:01Z</time>
      </trkpt>
      <trkpt lat="43.4688" lon="6.30383">
        <ele>155</ele>
        <time>2023-04-28T12:21:02Z</time>
      </trkpt>
      <trkpt lat="43.4688" lon="6.30384">
        <ele>155</ele>
        <time>2023-04-28T12:21:03Z</time>
      </trkpt>
      <trkpt lat="43.4688" lon="6.30385">
        <ele>155</ele>
        <time>2023-04-28T12:21:04Z</time>
      </trkpt>
      <trkpt lat="43.46881" lon="6.30386">
        <ele>155</ele>
        <time>2023-04-28T12:21:05Z</time>
      </trkpt>
      <trkpt lat="43.46882" lon="6.30387">
        <ele>155</ele>
        <time>2023-04-28T12:21:06Z</time>
      </trkpt>
      <trkpt lat="43.46882" lon="6.30388">
        <ele>155</ele>
        <time>2023-04-28T12:21:07Z</time>
      </trkpt>
      <trkpt lat="43.46883" lon="6.30389">
        <ele>155</ele>
        <time>2023-04-28T12:21:08Z</time>
      </trkpt>
      <trkpt lat="43.46883" lon="6.3039">
        <ele>155</ele>
        <time>2023-04-28T12:21:09Z</time>
      </trkpt>
      <trkpt lat="43.46884" lon="6.30391">
        <ele>155</ele>
        <time>2023-04-28T12:21:10Z</time>
      </trkpt>
      <trkpt lat="43.46884" lon="6.30391">
        <ele>156</ele>
        <time>2023-04-28T12:21:11Z</time>
      </trkpt>
      <trkpt lat="43.46884" lon="6.30392">
        <ele>156</ele>
        <time>2023-04-28T12:21:12Z</time>
      </trkpt>
      <trkpt lat="43.46885" lon="6.30393">
        <ele>157</ele>
        <time>2023-04-28T12:21:13Z</time>
      </trkpt>
      <trkpt lat="43.46885" lon="6.30393">
        <ele>157</ele>
        <time>2023-04-28T12:21:14Z</time>
      </trkpt>
      <trkpt lat="43.46885" lon="6.30394">
        <ele>157</ele>
        <time>2023-04-28T12:21:15Z</time>
      </trkpt>
      <trkpt lat="43.46886" lon="6.30395">
        <ele>157</ele>
        <time>2023-04-28T12:21:16Z</time>
      </trkpt>
      <trkpt lat="43.46887" lon="6.30397">
        <ele>157</ele>
        <time>2023-04-28T12:21:17Z</time>
      </trkpt>
      <trkpt lat="43.46887" lon="6.30398">
        <ele>157</ele>
        <time>2023-04-28T12:21:18Z</time>
      </trkpt>
      <trkpt lat="43.46888" lon="6.30399">
        <ele>157</ele>
        <time>2023-04-28T12:21:19Z</time>
      </trkpt>
      <trkpt lat="43.46888" lon="6.304">
        <ele>157</ele>
        <time>2023-04-28T12:21:20Z</time>
      </trkpt>
      <trkpt lat="43.46889" lon="6.304">
        <ele>157</ele>
        <time>2023-04-28T12:21:21Z</time>
      </trkpt>
      <trkpt lat="43.46889" lon="6.30401">
        <ele>157</ele>
        <time>2023-04-28T12:21:22Z</time>
      </trkpt>
      <trkpt lat="43.46889" lon="6.30401">
        <ele>157</ele>
        <time>2023-04-28T12:21:23Z</time>
      </trkpt>
      <trkpt lat="43.46889" lon="6.30402">
        <ele>157</ele>
        <time>2023-04-28T12:21:24Z</time>
      </trkpt>
      <trkpt lat="43.46889" lon="6.30402">
        <ele>157</ele>
        <time>2023-04-28T12:21:25Z</time>
      </trkpt>
      <trkpt lat="43.4689" lon="6.30403">
        <ele>157</ele>
        <time>2023-04-28T12:21:26Z</time>
      </trkpt>
      <trkpt lat="43.4689" lon="6.30403">
        <ele>157</ele>
        <time>2023-04-28T12:21:27Z</time>
      </trkpt>
      <trkpt lat="43.4689" lon="6.30403">
        <ele>157</ele>
        <time>2023-04-28T12:21:28Z</time>
      </trkpt>
      <trkpt lat="43.4689" lon="6.30403">
        <ele>157</ele>
        <time>2023-04-28T12:21:29Z</time>
      </trkpt>
      <trkpt lat="43.4689" lon="6.30404">
        <ele>157</ele>
        <time>2023-04-28T12:21:30Z</time>
      </trkpt>
      <trkpt lat="43.4689" lon="6.30404">
        <ele>157</ele>
        <time>2023-04-28T12:21:31Z</time>
      </trkpt>
      <trkpt lat="43.4689" lon="6.30404">
        <ele>157</ele>
        <time>2023-04-28T12:21:32Z</time>
      </trkpt>
      <trkpt lat="43.4689" lon="6.30404">
        <ele>157</ele>
        <time>2023-04-28T12:21:33Z</time>
      </trkpt>
      <trkpt lat="43.4689" lon="6.30404">
        <ele>157</ele>
        <time>2023-04-28T12:21:34Z</time>
      </trkpt>
      <trkpt lat="43.4689" lon="6.30404">
        <ele>157</ele>
        <time>2023-04-28T12:21:35Z</time>
      </trkpt>
      <trkpt lat="43.4689" lon="6.30404">
        <ele>157</ele>
        <time>2023-04-28T12:21:36Z</time>
      </trkpt>
      <trkpt lat="43.4689" lon="6.30404">
        <ele>157</ele>
        <time>2023-04-28T12:21:37Z</time>
      </trkpt>
      <trkpt lat="43.4689" lon="6.30405">
        <ele>157</ele>
        <time>2023-04-28T12:21:38Z</time>
      </trkpt>
      <trkpt lat="43.4689" lon="6.30405">
        <ele>157</ele>
        <time>2023-04-28T12:21:39Z</time>
      </trkpt>
      <trkpt lat="43.46891" lon="6.30405">
        <ele>157</ele>
        <time>2023-04-28T12:21:40Z</time>
      </trkpt>
      <trkpt lat="43.46891" lon="6.30405">
        <ele>157</ele>
        <time>2023-04-28T12:21:41Z</time>
      </trkpt>
      <trkpt lat="43.46892" lon="6.30406">
        <ele>157</ele>
        <time>2023-04-28T12:21:42Z</time>
      </trkpt>
      <trkpt lat="43.46893" lon="6.30407">
        <ele>157</ele>
        <time>2023-04-28T12:21:43Z</time>
      </trkpt>
      <trkpt lat="43.46894" lon="6.30408">
        <ele>157</ele>
        <time>2023-04-28T12:21:44Z</time>
      </trkpt>
      <trkpt lat="43.46895" lon="6.30409">
        <ele>157</ele>
        <time>2023-04-28T12:21:45Z</time>
      </trkpt>
      <trkpt lat="43.46896" lon="6.3041">
        <ele>156</ele>
        <time>2023-04-28T12:21:46Z</time>
      </trkpt>
      <trkpt lat="43.46897" lon="6.30412">
        <ele>156</ele>
        <time>2023-04-28T12:21:47Z</time>
      </trkpt>
      <trkpt lat="43.46897" lon="6.30412">
        <ele>156</ele>
        <time>2023-04-28T12:21:48Z</time>
      </trkpt>
      <trkpt lat="43.46898" lon="6.30413">
        <ele>156</ele>
        <time>2023-04-28T12:21:49Z</time>
      </trkpt>
      <trkpt lat="43.46898" lon="6.30414">
        <ele>156</ele>
        <time>2023-04-28T12:21:50Z</time>
      </trkpt>
      <trkpt lat="43.46899" lon="6.30415">
        <ele>156</ele>
        <time>2023-04-28T12:21:51Z</time>
      </trkpt>
      <trkpt lat="43.46899" lon="6.30416">
        <ele>156</ele>
        <time>2023-04-28T12:21:52Z</time>
      </trkpt>
      <trkpt lat="43.469" lon="6.30417">
        <ele>156</ele>
        <time>2023-04-28T12:21:53Z</time>
      </trkpt>
      <trkpt lat="43.46901" lon="6.30418">
        <ele>155</ele>
        <time>2023-04-28T12:21:54Z</time>
      </trkpt>
      <trkpt lat="43.46901" lon="6.30419">
        <ele>155</ele>
        <time>2023-04-28T12:21:55Z</time>
      </trkpt>
      <trkpt lat="43.46901" lon="6.3042">
        <ele>155</ele>
        <time>2023-04-28T12:21:56Z</time>
      </trkpt>
      <trkpt lat="43.46902" lon="6.3042">
        <ele>155</ele>
        <time>2023-04-28T12:21:57Z</time>
      </trkpt>
      <trkpt lat="43.46902" lon="6.30421">
        <ele>155</ele>
        <time>2023-04-28T12:21:58Z</time>
      </trkpt>
      <trkpt lat="43.46902" lon="6.30421">
        <ele>155</ele>
        <time>2023-04-28T12:21:59Z</time>
      </trkpt>
      <trkpt lat="43.46903" lon="6.30422">
        <ele>155</ele>
        <time>2023-04-28T12:22:00Z</time>
      </trkpt>
      <trkpt lat="43.46903" lon="6.30423">
        <ele>155</ele>
        <time>2023-04-28T12:22:01Z</time>
      </trkpt>
      <trkpt lat="43.46903" lon="6.30423">
        <ele>155</ele>
        <time>2023-04-28T12:22:02Z</time>
      </trkpt>
      <trkpt lat="43.46903" lon="6.30424">
        <ele>155</ele>
        <time>2023-04-28T12:22:03Z</time>
      </trkpt>
      <trkpt lat="43.46904" lon="6.30424">
        <ele>155</ele>
        <time>2023-04-28T12:22:04Z</time>
      </trkpt>
      <trkpt lat="43.46904" lon="6.30425">
        <ele>155</ele>
        <time>2023-04-28T12:22:05Z</time>
      </trkpt>
      <trkpt lat="43.46904" lon="6.30426">
        <ele>155</ele>
        <time>2023-04-28T12:22:06Z</time>
      </trkpt>
      <trkpt lat="43.46904" lon="6.30427">
        <ele>155</ele>
        <time>2023-04-28T12:22:07Z</time>
      </trkpt>
      <trkpt lat="43.46905" lon="6.30428">
        <ele>155</ele>
        <time>2023-04-28T12:22:08Z</time>
      </trkpt>
      <trkpt lat="43.46905" lon="6.3043">
        <ele>155</ele>
        <time>2023-04-28T12:22:09Z</time>
      </trkpt>
      <trkpt lat="43.46905" lon="6.30431">
        <ele>155</ele>
        <time>2023-04-28T12:22:10Z</time>
      </trkpt>
      <trkpt lat="43.46906" lon="6.30431">
        <ele>155</ele>
        <time>2023-04-28T12:22:11Z</time>
      </trkpt>
      <trkpt lat="43.46906" lon="6.30432">
        <ele>155</ele>
        <time>2023-04-28T12:22:12Z</time>
      </trkpt>
      <trkpt lat="43.46906" lon="6.30433">
        <ele>155</ele>
        <time>2023-04-28T12:22:13Z</time>
      </trkpt>
      <trkpt lat="43.46906" lon="6.30434">
        <ele>155</ele>
        <time>2023-04-28T12:22:14Z</time>
      </trkpt>
      <trkpt lat="43.46906" lon="6.30435">
        <ele>155</ele>
        <time>2023-04-28T12:22:15Z</time>
      </trkpt>
      <trkpt lat="43.46906" lon="6.30437">
        <ele>155</ele>
        <time>2023-04-28T12:22:16Z</time>
      </trkpt>
      <trkpt lat="43.46906" lon="6.30438">
        <ele>156</ele>
        <time>2023-04-28T12:22:17Z</time>
      </trkpt>
      <trkpt lat="43.46906" lon="6.30439">
        <ele>156</ele>
        <time>2023-04-28T12:22:18Z</time>
      </trkpt>
      <trkpt lat="43.46907" lon="6.3044">
        <ele>156</ele>
        <time>2023-04-28T12:22:19Z</time>
      </trkpt>
      <trkpt lat="43.46907" lon="6.3044">
        <ele>156</ele>
        <time>2023-04-28T12:22:20Z</time>
      </trkpt>
      <trkpt lat="43.46907" lon="6.30441">
        <ele>156</ele>
        <time>2023-04-28T12:22:21Z</time>
      </trkpt>
      <trkpt lat="43.46907" lon="6.30441">
        <ele>156</ele>
        <time>2023-04-28T12:22:22Z</time>
      </trkpt>
      <trkpt lat="43.46908" lon="6.30441">
        <ele>156</ele>
        <time>2023-04-28T12:22:23Z</time>
      </trkpt>
      <trkpt lat="43.46908" lon="6.30442">
        <ele>156</ele>
        <time>2023-04-28T12:22:24Z</time>
      </trkpt>
      <trkpt lat="43.46908" lon="6.30442">
        <ele>156</ele>
        <time>2023-04-28T12:22:25Z</time>
      </trkpt>
      <trkpt lat="43.46908" lon="6.30442">
        <ele>156</ele>
        <time>2023-04-28T12:22:26Z</time>
      </trkpt>
      <trkpt lat="43.46908" lon="6.30442">
        <ele>156</ele>
        <time>2023-04-28T12:22:27Z</time>
      </trkpt>
      <trkpt lat="43.46908" lon="6.30442">
        <ele>156</ele>
        <time>2023-04-28T12:22:28Z</time>
      </trkpt>
      <trkpt lat="43.46908" lon="6.30442">
        <ele>156</ele>
        <time>2023-04-28T12:22:29Z</time>
      </trkpt>
      <trkpt lat="43.46908" lon="6.30442">
        <ele>156</ele>
        <time>2023-04-28T12:22:30Z</time>
      </trkpt>
      <trkpt lat="43.46908" lon="6.30442">
        <ele>156</ele>
        <time>2023-04-28T12:22:31Z</time>
      </trkpt>
      <trkpt lat="43.46908" lon="6.30443">
        <ele>156</ele>
        <time>2023-04-28T12:22:32Z</time>
      </trkpt>
      <trkpt lat="43.46909" lon="6.30443">
        <ele>157</ele>
        <time>2023-04-28T12:22:33Z</time>
      </trkpt>
      <trkpt lat="43.4691" lon="6.30444">
        <ele>157</ele>
        <time>2023-04-28T12:22:34Z</time>
      </trkpt>
      <trkpt lat="43.4691" lon="6.30444">
        <ele>157</ele>
        <time>2023-04-28T12:22:35Z</time>
      </trkpt>
      <trkpt lat="43.46912" lon="6.30444">
        <ele>157</ele>
        <time>2023-04-28T12:22:36Z</time>
      </trkpt>
      <trkpt lat="43.46912" lon="6.30445">
        <ele>158</ele>
        <time>2023-04-28T12:22:37Z</time>
      </trkpt>
      <trkpt lat="43.46913" lon="6.30445">
        <ele>158</ele>
        <time>2023-04-28T12:22:38Z</time>
      </trkpt>
      <trkpt lat="43.46914" lon="6.30445">
        <ele>158</ele>
        <time>2023-04-28T12:22:39Z</time>
      </trkpt>
      <trkpt lat="43.46914" lon="6.30445">
        <ele>159</ele>
        <time>2023-04-28T12:22:40Z</time>
      </trkpt>
      <trkpt lat="43.46915" lon="6.30445">
        <ele>159</ele>
        <time>2023-04-28T12:22:41Z</time>
      </trkpt>
      <trkpt lat="43.46915" lon="6.30446">
        <ele>159</ele>
        <time>2023-04-28T12:22:42Z</time>
      </trkpt>
      <trkpt lat="43.46916" lon="6.30446">
        <ele>160</ele>
        <time>2023-04-28T12:22:43Z</time>
      </trkpt>
      <trkpt lat="43.46917" lon="6.30446">
        <ele>160</ele>
        <time>2023-04-28T12:22:44Z</time>
      </trkpt>
      <trkpt lat="43.46918" lon="6.30445">
        <ele>160</ele>
        <time>2023-04-28T12:22:45Z</time>
      </trkpt>
      <trkpt lat="43.46919" lon="6.30445">
        <ele>161</ele>
        <time>2023-04-28T12:22:46Z</time>
      </trkpt>
      <trkpt lat="43.4692" lon="6.30445">
        <ele>165</ele>
        <time>2023-04-28T12:22:47Z</time>
      </trkpt>
      <trkpt lat="43.46921" lon="6.30444">
        <ele>167</ele>
        <time>2023-04-28T12:22:48Z</time>
      </trkpt>
      <trkpt lat="43.46922" lon="6.30443">
        <ele>167</ele>
        <time>2023-04-28T12:22:49Z</time>
      </trkpt>
      <trkpt lat="43.46922" lon="6.30442">
        <ele>167</ele>
        <time>2023-04-28T12:22:50Z</time>
      </trkpt>
      <trkpt lat="43.46923" lon="6.30441">
        <ele>167</ele>
        <time>2023-04-28T12:22:51Z</time>
      </trkpt>
      <trkpt lat="43.46924" lon="6.3044">
        <ele>168</ele>
        <time>2023-04-28T12:22:52Z</time>
      </trkpt>
      <trkpt lat="43.46925" lon="6.30439">
        <ele>168</ele>
        <time>2023-04-28T12:22:53Z</time>
      </trkpt>
      <trkpt lat="43.46926" lon="6.30438">
        <ele>168</ele>
        <time>2023-04-28T12:22:54Z</time>
      </trkpt>
      <trkpt lat="43.46927" lon="6.30438">
        <ele>168</ele>
        <time>2023-04-28T12:22:55Z</time>
      </trkpt>
      <trkpt lat="43.46927" lon="6.30437">
        <ele>168</ele>
        <time>2023-04-28T12:22:56Z</time>
      </trkpt>
      <trkpt lat="43.46928" lon="6.30436">
        <ele>169</ele>
        <time>2023-04-28T12:22:57Z</time>
      </trkpt>
      <trkpt lat="43.46929" lon="6.30435">
        <ele>169</ele>
        <time>2023-04-28T12:22:58Z</time>
      </trkpt>
      <trkpt lat="43.46929" lon="6.30435">
        <ele>169</ele>
        <time>2023-04-28T12:22:59Z</time>
      </trkpt>
      <trkpt lat="43.4693" lon="6.30434">
        <ele>169</ele>
        <time>2023-04-28T12:23:00Z</time>
      </trkpt>
      <trkpt lat="43.46931" lon="6.30433">
        <ele>169</ele>
        <time>2023-04-28T12:23:01Z</time>
      </trkpt>
      <trkpt lat="43.46932" lon="6.30431">
        <ele>169</ele>
        <time>2023-04-28T12:23:02Z</time>
      </trkpt>
      <trkpt lat="43.46933" lon="6.3043">
        <ele>169</ele>
        <time>2023-04-28T12:23:03Z</time>
      </trkpt>
      <trkpt lat="43.46935" lon="6.30429">
        <ele>170</ele>
        <time>2023-04-28T12:23:04Z</time>
      </trkpt>
      <trkpt lat="43.46936" lon="6.30428">
        <ele>170</ele>
        <time>2023-04-28T12:23:05Z</time>
      </trkpt>
      <trkpt lat="43.46937" lon="6.30426">
        <ele>171</ele>
        <time>2023-04-28T12:23:06Z</time>
      </trkpt>
      <trkpt lat="43.46938" lon="6.30425">
        <ele>171</ele>
        <time>2023-04-28T12:23:07Z</time>
      </trkpt>
      <trkpt lat="43.46939" lon="6.30424">
        <ele>171</ele>
        <time>2023-04-28T12:23:08Z</time>
      </trkpt>
      <trkpt lat="43.4694" lon="6.30423">
        <ele>171</ele>
        <time>2023-04-28T12:23:09Z</time>
      </trkpt>
      <trkpt lat="43.46941" lon="6.30423">
        <ele>171</ele>
        <time>2023-04-28T12:23:10Z</time>
      </trkpt>
      <trkpt lat="43.46942" lon="6.30422">
        <ele>172</ele>
        <time>2023-04-28T12:23:11Z</time>
      </trkpt>
      <trkpt lat="43.46942" lon="6.30421">
        <ele>172</ele>
        <time>2023-04-28T12:23:12Z</time>
      </trkpt>
      <trkpt lat="43.46943" lon="6.30421">
        <ele>172</ele>
        <time>2023-04-28T12:23:13Z</time>
      </trkpt>
      <trkpt lat="43.46944" lon="6.3042">
        <ele>172</ele>
        <time>2023-04-28T12:23:14Z</time>
      </trkpt>
      <trkpt lat="43.46944" lon="6.30419">
        <ele>172</ele>
        <time>2023-04-28T12:23:15Z</time>
      </trkpt>
      <trkpt lat="43.46945" lon="6.30418">
        <ele>173</ele>
        <time>2023-04-28T12:23:16Z</time>
      </trkpt>
      <trkpt lat="43.46946" lon="6.30417">
        <ele>173</ele>
        <time>2023-04-28T12:23:17Z</time>
      </trkpt>
      <trkpt lat="43.46946" lon="6.30416">
        <ele>173</ele>
        <time>2023-04-28T12:23:18Z</time>
      </trkpt>
      <trkpt lat="43.46947" lon="6.30415">
        <ele>174</ele>
        <time>2023-04-28T12:23:19Z</time>
      </trkpt>
      <trkpt lat="43.46948" lon="6.30414">
        <ele>174</ele>
        <time>2023-04-28T12:23:20Z</time>
      </trkpt>
      <trkpt lat="43.46949" lon="6.30413">
        <ele>174</ele>
        <time>2023-04-28T12:23:21Z</time>
      </trkpt>
      <trkpt lat="43.4695" lon="6.30412">
        <ele>174</ele>
        <time>2023-04-28T12:23:22Z</time>
      </trkpt>
      <trkpt lat="43.4695" lon="6.30411">
        <ele>174</ele>
        <time>2023-04-28T12:23:23Z</time>
      </trkpt>
      <trkpt lat="43.46951" lon="6.3041">
        <ele>174</ele>
        <time>2023-04-28T12:23:24Z</time>
      </trkpt>
      <trkpt lat="43.46951" lon="6.30408">
        <ele>173</ele>
        <time>2023-04-28T12:23:25Z</time>
      </trkpt>
      <trkpt lat="43.46952" lon="6.30407">
        <ele>173</ele>
        <time>2023-04-28T12:23:26Z</time>
      </trkpt>
      <trkpt lat="43.46952" lon="6.30405">
        <ele>173</ele>
        <time>2023-04-28T12:23:27Z</time>
      </trkpt>
      <trkpt lat="43.46953" lon="6.30404">
        <ele>173</ele>
        <time>2023-04-28T12:23:28Z</time>
      </trkpt>
      <trkpt lat="43.46953" lon="6.30403">
        <ele>173</ele>
        <time>2023-04-28T12:23:29Z</time>
      </trkpt>
      <trkpt lat="43.46954" lon="6.30402">
        <ele>173</ele>
        <time>2023-04-28T12:23:30Z</time>
      </trkpt>
      <trkpt lat="43.46954" lon="6.304">
        <ele>173</ele>
        <time>2023-04-28T12:23:31Z</time>
      </trkpt>
      <trkpt lat="43.46955" lon="6.30399">
        <ele>172</ele>
        <time>2023-04-28T12:23:32Z</time>
      </trkpt>
      <trkpt lat="43.46955" lon="6.30397">
        <ele>172</ele>
        <time>2023-04-28T12:23:33Z</time>
      </trkpt>
      <trkpt lat="43.46955" lon="6.30396">
        <ele>171</ele>
        <time>2023-04-28T12:23:34Z</time>
      </trkpt>
      <trkpt lat="43.46956" lon="6.30394">
        <ele>171</ele>
        <time>2023-04-28T12:23:35Z</time>
      </trkpt>
      <trkpt lat="43.46956" lon="6.30392">
        <ele>171</ele>
        <time>2023-04-28T12:23:36Z</time>
      </trkpt>
      <trkpt lat="43.46956" lon="6.3039">
        <ele>170</ele>
        <time>2023-04-28T12:23:37Z</time>
      </trkpt>
      <trkpt lat="43.46957" lon="6.30388">
        <ele>170</ele>
        <time>2023-04-28T12:23:38Z</time>
      </trkpt>
      <trkpt lat="43.46957" lon="6.30386">
        <ele>170</ele>
        <time>2023-04-28T12:23:39Z</time>
      </trkpt>
      <trkpt lat="43.46957" lon="6.30385">
        <ele>169</ele>
        <time>2023-04-28T12:23:40Z</time>
      </trkpt>
      <trkpt lat="43.46957" lon="6.30383">
        <ele>168</ele>
        <time>2023-04-28T12:23:41Z</time>
      </trkpt>
      <trkpt lat="43.46958" lon="6.30381">
        <ele>168</ele>
        <time>2023-04-28T12:23:42Z</time>
      </trkpt>
      <trkpt lat="43.46958" lon="6.30379">
        <ele>168</ele>
        <time>2023-04-28T12:23:43Z</time>
      </trkpt>
      <trkpt lat="43.46958" lon="6.30378">
        <ele>168</ele>
        <time>2023-04-28T12:23:44Z</time>
      </trkpt>
      <trkpt lat="43.46958" lon="6.30376">
        <ele>168</ele>
        <time>2023-04-28T12:23:45Z</time>
      </trkpt>
      <trkpt lat="43.46958" lon="6.30374">
        <ele>168</ele>
        <time>2023-04-28T12:23:46Z</time>
      </trkpt>
      <trkpt lat="43.46958" lon="6.30373">
        <ele>168</ele>
        <time>2023-04-28T12:23:47Z</time>
      </trkpt>
      <trkpt lat="43.46959" lon="6.30371">
        <ele>168</ele>
        <time>2023-04-28T12:23:48Z</time>
      </trkpt>
      <trkpt lat="43.46959" lon="6.3037">
        <ele>168</ele>
        <time>2023-04-28T12:23:49Z</time>
      </trkpt>
      <trkpt lat="43.46959" lon="6.30369">
        <ele>169</ele>
        <time>2023-04-28T12:23:50Z</time>
      </trkpt>
      <trkpt lat="43.46959" lon="6.30368">
        <ele>169</ele>
        <time>2023-04-28T12:23:51Z</time>
      </trkpt>
      <trkpt lat="43.46959" lon="6.30366">
        <ele>169</ele>
        <time>2023-04-28T12:23:52Z</time>
      </trkpt>
      <trkpt lat="43.46959" lon="6.30365">
        <ele>169</ele>
        <time>2023-04-28T12:23:53Z</time>
      </trkpt>
      <trkpt lat="43.46959" lon="6.30364">
        <ele>169</ele>
        <time>2023-04-28T12:23:54Z</time>
      </trkpt>
      <trkpt lat="43.46959" lon="6.30363">
        <ele>169</ele>
        <time>2023-04-28T12:23:55Z</time>
      </trkpt>
      <trkpt lat="43.46959" lon="6.30362">
        <ele>169</ele>
        <time>2023-04-28T12:23:56Z</time>
      </trkpt>
      <trkpt lat="43.46959" lon="6.30361">
        <ele>170</ele>
        <time>2023-04-28T12:23:57Z</time>
      </trkpt>
      <trkpt lat="43.46959" lon="6.30359">
        <ele>171</ele>
        <time>2023-04-28T12:23:58Z</time>
      </trkpt>
      <trkpt lat="43.46959" lon="6.30358">
        <ele>171</ele>
        <time>2023-04-28T12:23:59Z</time>
      </trkpt>
      <trkpt lat="43.46959" lon="6.30357">
        <ele>171</ele>
        <time>2023-04-28T12:24:00Z</time>
      </trkpt>
      <trkpt lat="43.46959" lon="6.30356">
        <ele>171</ele>
        <time>2023-04-28T12:24:01Z</time>
      </trkpt>
      <trkpt lat="43.46959" lon="6.30355">
        <ele>171</ele>
        <time>2023-04-28T12:24:02Z</time>
      </trkpt>
      <trkpt lat="43.46959" lon="6.30353">
        <ele>171</ele>
        <time>2023-04-28T12:24:03Z</time>
      </trkpt>
      <trkpt lat="43.46959" lon="6.30352">
        <ele>171</ele>
        <time>2023-04-28T12:24:04Z</time>
      </trkpt>
      <trkpt lat="43.46959" lon="6.3035">
        <ele>171</ele>
        <time>2023-04-28T12:24:05Z</time>
      </trkpt>
      <trkpt lat="43.46958" lon="6.30348">
        <ele>171</ele>
        <time>2023-04-28T12:24:06Z</time>
      </trkpt>
      <trkpt lat="43.46958" lon="6.30347">
        <ele>170</ele>
        <time>2023-04-28T12:24:07Z</time>
      </trkpt>
      <trkpt lat="43.46958" lon="6.30346">
        <ele>170</ele>
        <time>2023-04-28T12:24:08Z</time>
      </trkpt>
      <trkpt lat="43.46958" lon="6.30344">
        <ele>170</ele>
        <time>2023-04-28T12:24:09Z</time>
      </trkpt>
      <trkpt lat="43.46958" lon="6.30342">
        <ele>170</ele>
        <time>2023-04-28T12:24:10Z</time>
      </trkpt>
      <trkpt lat="43.46958" lon="6.3034">
        <ele>170</ele>
        <time>2023-04-28T12:24:11Z</time>
      </trkpt>
      <trkpt lat="43.46958" lon="6.30338">
        <ele>169</ele>
        <time>2023-04-28T12:24:12Z</time>
      </trkpt>
      <trkpt lat="43.46958" lon="6.30336">
        <ele>169</ele>
        <time>2023-04-28T12:24:13Z</time>
      </trkpt>
      <trkpt lat="43.46958" lon="6.30335">
        <ele>169</ele>
        <time>2023-04-28T12:24:14Z</time>
      </trkpt>
      <trkpt lat="43.46958" lon="6.30333">
        <ele>169</ele>
        <time>2023-04-28T12:24:15Z</time>
      </trkpt>
      <trkpt lat="43.46958" lon="6.30331">
        <ele>168</ele>
        <time>2023-04-28T12:24:16Z</time>
      </trkpt>
      <trkpt lat="43.46958" lon="6.30329">
        <ele>168</ele>
        <time>2023-04-28T12:24:17Z</time>
      </trkpt>
      <trkpt lat="43.46958" lon="6.30327">
        <ele>168</ele>
        <time>2023-04-28T12:24:18Z</time>
      </trkpt>
      <trkpt lat="43.46959" lon="6.30325">
        <ele>168</ele>
        <time>2023-04-28T12:24:19Z</time>
      </trkpt>
      <trkpt lat="43.46959" lon="6.30323">
        <ele>168</ele>
        <time>2023-04-28T12:24:20Z</time>
      </trkpt>
      <trkpt lat="43.46959" lon="6.30321">
        <ele>168</ele>
        <time>2023-04-28T12:24:21Z</time>
      </trkpt>
      <trkpt lat="43.46959" lon="6.30319">
        <ele>168</ele>
        <time>2023-04-28T12:24:22Z</time>
      </trkpt>
      <trkpt lat="43.46959" lon="6.30317">
        <ele>168</ele>
        <time>2023-04-28T12:24:23Z</time>
      </trkpt>
      <trkpt lat="43.46959" lon="6.30316">
        <ele>167</ele>
        <time>2023-04-28T12:24:24Z</time>
      </trkpt>
      <trkpt lat="43.46959" lon="6.30314">
        <ele>167</ele>
        <time>2023-04-28T12:24:25Z</time>
      </trkpt>
      <trkpt lat="43.46959" lon="6.30313">
        <ele>167</ele>
        <time>2023-04-28T12:24:26Z</time>
      </trkpt>
      <trkpt lat="43.46959" lon="6.30311">
        <ele>166</ele>
        <time>2023-04-28T12:24:27Z</time>
      </trkpt>
      <trkpt lat="43.46959" lon="6.30309">
        <ele>166</ele>
        <time>2023-04-28T12:24:28Z</time>
      </trkpt>
      <trkpt lat="43.46959" lon="6.30308">
        <ele>166</ele>
        <time>2023-04-28T12:24:29Z</time>
      </trkpt>
      <trkpt lat="43.46959" lon="6.30306">
        <ele>166</ele>
        <time>2023-04-28T12:24:30Z</time>
      </trkpt>
      <trkpt lat="43.46959" lon="6.30304">
        <ele>166</ele>
        <time>2023-04-28T12:24:31Z</time>
      </trkpt>
      <trkpt lat="43.46959" lon="6.30303">
        <ele>166</ele>
        <time>2023-04-28T12:24:32Z</time>
      </trkpt>
      <trkpt lat="43.4696" lon="6.30302">
        <ele>165</ele>
        <time>2023-04-28T12:24:33Z</time>
      </trkpt>
      <trkpt lat="43.4696" lon="6.303">
        <ele>165</ele>
        <time>2023-04-28T12:24:34Z</time>
      </trkpt>
      <trkpt lat="43.46961" lon="6.30299">
        <ele>164</ele>
        <time>2023-04-28T12:24:35Z</time>
      </trkpt>
      <trkpt lat="43.46961" lon="6.30298">
        <ele>164</ele>
        <time>2023-04-28T12:24:36Z</time>
      </trkpt>
      <trkpt lat="43.46962" lon="6.30297">
        <ele>164</ele>
        <time>2023-04-28T12:24:37Z</time>
      </trkpt>
      <trkpt lat="43.46962" lon="6.30296">
        <ele>164</ele>
        <time>2023-04-28T12:24:38Z</time>
      </trkpt>
      <trkpt lat="43.46962" lon="6.30296">
        <ele>164</ele>
        <time>2023-04-28T12:24:39Z</time>
      </trkpt>
      <trkpt lat="43.46963" lon="6.30295">
        <ele>164</ele>
        <time>2023-04-28T12:24:40Z</time>
      </trkpt>
      <trkpt lat="43.46963" lon="6.30295">
        <ele>164</ele>
        <time>2023-04-28T12:24:41Z</time>
      </trkpt>
      <trkpt lat="43.46963" lon="6.30295">
        <ele>164</ele>
        <time>2023-04-28T12:24:42Z</time>
      </trkpt>
      <trkpt lat="43.46963" lon="6.30295">
        <ele>164</ele>
        <time>2023-04-28T12:24:43Z</time>
      </trkpt>
      <trkpt lat="43.46963" lon="6.30295">
        <ele>164</ele>
        <time>2023-04-28T12:24:44Z</time>
      </trkpt>
      <trkpt lat="43.46963" lon="6.30295">
        <ele>164</ele>
        <time>2023-04-28T12:24:45Z</time>
      </trkpt>
      <trkpt lat="43.46962" lon="6.30295">
        <ele>164</ele>
        <time>2023-04-28T12:24:46Z</time>
      </trkpt>
      <trkpt lat="43.46961" lon="6.30295">
        <ele>164</ele>
        <time>2023-04-28T12:24:47Z</time>
      </trkpt>
      <trkpt lat="43.46961" lon="6.30296">
        <ele>164</ele>
        <time>2023-04-28T12:24:48Z</time>
      </trkpt>
      <trkpt lat="43.46961" lon="6.30296">
        <ele>164</ele>
        <time>2023-04-28T12:24:49Z</time>
      </trkpt>
      <trkpt lat="43.46961" lon="6.30297">
        <ele>164</ele>
        <time>2023-04-28T12:24:50Z</time>
      </trkpt>
      <trkpt lat="43.46961" lon="6.30297">
        <ele>164</ele>
        <time>2023-04-28T12:24:51Z</time>
      </trkpt>
      <trkpt lat="43.46961" lon="6.30297">
        <ele>164</ele>
        <time>2023-04-28T12:24:52Z</time>
      </trkpt>
      <trkpt lat="43.46961" lon="6.30297">
        <ele>164</ele>
        <time>2023-04-28T12:24:53Z</time>
      </trkpt>
      <trkpt lat="43.46961" lon="6.30297">
        <ele>164</ele>
        <time>2023-04-28T12:24:54Z</time>
      </trkpt>
      <trkpt lat="43.46961" lon="6.30297">
        <ele>164</ele>
        <time>2023-04-28T12:24:55Z</time>
      </trkpt>
      <trkpt lat="43.46961" lon="6.30297">
        <ele>164</ele>
        <time>2023-04-28T12:24:56Z</time>
      </trkpt>
      <trkpt lat="43.46961" lon="6.30297">
        <ele>164</ele>
        <time>2023-04-28T12:24:57Z</time>
      </trkpt>
      <trkpt lat="43.4696" lon="6.30297">
        <ele>164</ele>
        <time>2023-04-28T12:24:58Z</time>
      </trkpt>
      <trkpt lat="43.4696" lon="6.30297">
        <ele>164</ele>
        <time>2023-04-28T12:24:59Z</time>
      </trkpt>
      <trkpt lat="43.4696" lon="6.30297">
        <ele>164</ele>
        <time>2023-04-28T12:25:00Z</time>
      </trkpt>
      <trkpt lat="43.4696" lon="6.30297">
        <ele>164</ele>
        <time>2023-04-28T12:25:01Z</time>
      </trkpt>
      <trkpt lat="43.4696" lon="6.30297">
        <ele>164</ele>
        <time>2023-04-28T12:25:02Z</time>
      </trkpt>
      <trkpt lat="43.4696" lon="6.30297">
        <ele>164</ele>
        <time>2023-04-28T12:25:03Z</time>
      </trkpt>
      <trkpt lat="43.4696" lon="6.30297">
        <ele>164</ele>
        <time>2023-04-28T12:25:04Z</time>
      </trkpt>
      <trkpt lat="43.4696" lon="6.30297">
        <ele>164</ele>
        <time>2023-04-28T12:25:05Z</time>
      </trkpt>
      <trkpt lat="43.4696" lon="6.30297">
        <ele>164</ele>
        <time>2023-04-28T12:25:06Z</time>
      </trkpt>
      <trkpt lat="43.4696" lon="6.30297">
        <ele>164</ele>
        <time>2023-04-28T12:25:07Z</time>
      </trkpt>
      <trkpt lat="43.4696" lon="6.30297">
        <ele>164</ele>
        <time>2023-04-28T12:25:08Z</time>
      </trkpt>
      <trkpt lat="43.4696" lon="6.30297">
        <ele>164</ele>
        <time>2023-04-28T12:25:09Z</time>
      </trkpt>
      <trkpt lat="43.4696" lon="6.30297">
        <ele>164</ele>
        <time>2023-04-28T12:25:10Z</time>
      </trkpt>
      <trkpt lat="43.46957" lon="6.30297">
        <ele>164</ele>
        <time>2023-04-28T12:25:11Z</time>
      </trkpt>
      <trkpt lat="43.46956" lon="6.30297">
        <ele>164</ele>
        <time>2023-04-28T12:25:12Z</time>
      </trkpt>
      <trkpt lat="43.46956" lon="6.30296">
        <ele>164</ele>
        <time>2023-04-28T12:25:13Z</time>
      </trkpt>
      <trkpt lat="43.46955" lon="6.30295">
        <ele>164</ele>
        <time>2023-04-28T12:25:14Z</time>
      </trkpt>
      <trkpt lat="43.46955" lon="6.30294">
        <ele>164</ele>
        <time>2023-04-28T12:25:15Z</time>
      </trkpt>
      <trkpt lat="43.46955" lon="6.30293">
        <ele>164</ele>
        <time>2023-04-28T12:25:16Z</time>
      </trkpt>
      <trkpt lat="43.46954" lon="6.30292">
        <ele>164</ele>
        <time>2023-04-28T12:25:17Z</time>
      </trkpt>
      <trkpt lat="43.46954" lon="6.30291">
        <ele>164</ele>
        <time>2023-04-28T12:25:18Z</time>
      </trkpt>
      <trkpt lat="43.46954" lon="6.30289">
        <ele>164</ele>
        <time>2023-04-28T12:25:19Z</time>
      </trkpt>
      <trkpt lat="43.46954" lon="6.30288">
        <ele>164</ele>
        <time>2023-04-28T12:25:20Z</time>
      </trkpt>
      <trkpt lat="43.46954" lon="6.30286">
        <ele>164</ele>
        <time>2023-04-28T12:25:21Z</time>
      </trkpt>
      <trkpt lat="43.46953" lon="6.30285">
        <ele>164</ele>
        <time>2023-04-28T12:25:22Z</time>
      </trkpt>
      <trkpt lat="43.46953" lon="6.30283">
        <ele>164</ele>
        <time>2023-04-28T12:25:23Z</time>
      </trkpt>
      <trkpt lat="43.46953" lon="6.30282">
        <ele>163</ele>
        <time>2023-04-28T12:25:24Z</time>
      </trkpt>
      <trkpt lat="43.46953" lon="6.3028">
        <ele>160</ele>
        <time>2023-04-28T12:25:25Z</time>
      </trkpt>
      <trkpt lat="43.46953" lon="6.30278">
        <ele>158</ele>
        <time>2023-04-28T12:25:26Z</time>
      </trkpt>
      <trkpt lat="43.46952" lon="6.30277">
        <ele>157</ele>
        <time>2023-04-28T12:25:27Z</time>
      </trkpt>
      <trkpt lat="43.46952" lon="6.30276">
        <ele>157</ele>
        <time>2023-04-28T12:25:28Z</time>
      </trkpt>
      <trkpt lat="43.46951" lon="6.30274">
        <ele>156</ele>
        <time>2023-04-28T12:25:29Z</time>
      </trkpt>
      <trkpt lat="43.4695" lon="6.30273">
        <ele>156</ele>
        <time>2023-04-28T12:25:30Z</time>
      </trkpt>
      <trkpt lat="43.4695" lon="6.30271">
        <ele>155</ele>
        <time>2023-04-28T12:25:31Z</time>
      </trkpt>
      <trkpt lat="43.4695" lon="6.3027">
        <ele>155</ele>
        <time>2023-04-28T12:25:32Z</time>
      </trkpt>
      <trkpt lat="43.4695" lon="6.30268">
        <ele>155</ele>
        <time>2023-04-28T12:25:33Z</time>
      </trkpt>
      <trkpt lat="43.4695" lon="6.30267">
        <ele>154</ele>
        <time>2023-04-28T12:25:34Z</time>
      </trkpt>
      <trkpt lat="43.4695" lon="6.30266">
        <ele>154</ele>
        <time>2023-04-28T12:25:35Z</time>
      </trkpt>
      <trkpt lat="43.4695" lon="6.30264">
        <ele>154</ele>
        <time>2023-04-28T12:25:36Z</time>
      </trkpt>
      <trkpt lat="43.46951" lon="6.30263">
        <ele>154</ele>
        <time>2023-04-28T12:25:37Z</time>
      </trkpt>
      <trkpt lat="43.46951" lon="6.30262">
        <ele>152</ele>
        <time>2023-04-28T12:25:38Z</time>
      </trkpt>
      <trkpt lat="43.46951" lon="6.3026">
        <ele>151</ele>
        <time>2023-04-28T12:25:39Z</time>
      </trkpt>
      <trkpt lat="43.46952" lon="6.30259">
        <ele>151</ele>
        <time>2023-04-28T12:25:40Z</time>
      </trkpt>
      <trkpt lat="43.46952" lon="6.30258">
        <ele>151</ele>
        <time>2023-04-28T12:25:41Z</time>
      </trkpt>
      <trkpt lat="43.46953" lon="6.30257">
        <ele>151</ele>
        <time>2023-04-28T12:25:42Z</time>
      </trkpt>
      <trkpt lat="43.46953" lon="6.30256">
        <ele>150</ele>
        <time>2023-04-28T12:25:43Z</time>
      </trkpt>
      <trkpt lat="43.46954" lon="6.30255">
        <ele>150</ele>
        <time>2023-04-28T12:25:44Z</time>
      </trkpt>
      <trkpt lat="43.46954" lon="6.30254">
        <ele>150</ele>
        <time>2023-04-28T12:25:45Z</time>
      </trkpt>
      <trkpt lat="43.46955" lon="6.30252">
        <ele>150</ele>
        <time>2023-04-28T12:25:46Z</time>
      </trkpt>
      <trkpt lat="43.46955" lon="6.30252">
        <ele>150</ele>
        <time>2023-04-28T12:25:47Z</time>
      </trkpt>
      <trkpt lat="43.46955" lon="6.3025">
        <ele>150</ele>
        <time>2023-04-28T12:25:48Z</time>
      </trkpt>
      <trkpt lat="43.46956" lon="6.30249">
        <ele>150</ele>
        <time>2023-04-28T12:25:49Z</time>
      </trkpt>
      <trkpt lat="43.46956" lon="6.30248">
        <ele>150</ele>
        <time>2023-04-28T12:25:50Z</time>
      </trkpt>
      <trkpt lat="43.46957" lon="6.30246">
        <ele>150</ele>
        <time>2023-04-28T12:25:51Z</time>
      </trkpt>
      <trkpt lat="43.46957" lon="6.30245">
        <ele>150</ele>
        <time>2023-04-28T12:25:52Z</time>
      </trkpt>
      <trkpt lat="43.46957" lon="6.30243">
        <ele>149</ele>
        <time>2023-04-28T12:25:53Z</time>
      </trkpt>
      <trkpt lat="43.46957" lon="6.30241">
        <ele>149</ele>
        <time>2023-04-28T12:25:54Z</time>
      </trkpt>
      <trkpt lat="43.46958" lon="6.30239">
        <ele>148</ele>
        <time>2023-04-28T12:25:55Z</time>
      </trkpt>
      <trkpt lat="43.46958" lon="6.30238">
        <ele>148</ele>
        <time>2023-04-28T12:25:56Z</time>
      </trkpt>
      <trkpt lat="43.46958" lon="6.30236">
        <ele>148</ele>
        <time>2023-04-28T12:25:57Z</time>
      </trkpt>
      <trkpt lat="43.46958" lon="6.30234">
        <ele>148</ele>
        <time>2023-04-28T12:25:58Z</time>
      </trkpt>
      <trkpt lat="43.46958" lon="6.30232">
        <ele>148</ele>
        <time>2023-04-28T12:25:59Z</time>
      </trkpt>
      <trkpt lat="43.46958" lon="6.30231">
        <ele>148</ele>
        <time>2023-04-28T12:26:00Z</time>
      </trkpt>
      <trkpt lat="43.46958" lon="6.30229">
        <ele>148</ele>
        <time>2023-04-28T12:26:01Z</time>
      </trkpt>
      <trkpt lat="43.46958" lon="6.30228">
        <ele>148</ele>
        <time>2023-04-28T12:26:02Z</time>
      </trkpt>
      <trkpt lat="43.46958" lon="6.30226">
        <ele>148</ele>
        <time>2023-04-28T12:26:03Z</time>
      </trkpt>
      <trkpt lat="43.46958" lon="6.30224">
        <ele>148</ele>
        <time>2023-04-28T12:26:04Z</time>
      </trkpt>
      <trkpt lat="43.46957" lon="6.30222">
        <ele>148</ele>
        <time>2023-04-28T12:26:05Z</time>
      </trkpt>
      <trkpt lat="43.46957" lon="6.30221">
        <ele>149</ele>
        <time>2023-04-28T12:26:06Z</time>
      </trkpt>
      <trkpt lat="43.46957" lon="6.30219">
        <ele>149</ele>
        <time>2023-04-28T12:26:07Z</time>
      </trkpt>
      <trkpt lat="43.46957" lon="6.30217">
        <ele>149</ele>
        <time>2023-04-28T12:26:08Z</time>
      </trkpt>
      <trkpt lat="43.46956" lon="6.30216">
        <ele>149</ele>
        <time>2023-04-28T12:26:09Z</time>
      </trkpt>
      <trkpt lat="43.46956" lon="6.30214">
        <ele>149</ele>
        <time>2023-04-28T12:26:10Z</time>
      </trkpt>
      <trkpt lat="43.46956" lon="6.30212">
        <ele>149</ele>
        <time>2023-04-28T12:26:11Z</time>
      </trkpt>
      <trkpt lat="43.46956" lon="6.30211">
        <ele>149</ele>
        <time>2023-04-28T12:26:12Z</time>
      </trkpt>
      <trkpt lat="43.46956" lon="6.30209">
        <ele>149</ele>
        <time>2023-04-28T12:26:13Z</time>
      </trkpt>
      <trkpt lat="43.46956" lon="6.30208">
        <ele>149</ele>
        <time>2023-04-28T12:26:14Z</time>
      </trkpt>
      <trkpt lat="43.46956" lon="6.30207">
        <ele>149</ele>
        <time>2023-04-28T12:26:15Z</time>
      </trkpt>
      <trkpt lat="43.46956" lon="6.30205">
        <ele>149</ele>
        <time>2023-04-28T12:26:16Z</time>
      </trkpt>
      <trkpt lat="43.46956" lon="6.30204">
        <ele>149</ele>
        <time>2023-04-28T12:26:17Z</time>
      </trkpt>
      <trkpt lat="43.46956" lon="6.30202">
        <ele>149</ele>
        <time>2023-04-28T12:26:18Z</time>
      </trkpt>
      <trkpt lat="43.46956" lon="6.30201">
        <ele>149</ele>
        <time>2023-04-28T12:26:19Z</time>
      </trkpt>
      <trkpt lat="43.46956" lon="6.302">
        <ele>149</ele>
        <time>2023-04-28T12:26:20Z</time>
      </trkpt>
      <trkpt lat="43.46955" lon="6.30199">
        <ele>149</ele>
        <time>2023-04-28T12:26:21Z</time>
      </trkpt>
      <trkpt lat="43.46955" lon="6.30198">
        <ele>149</ele>
        <time>2023-04-28T12:26:22Z</time>
      </trkpt>
      <trkpt lat="43.46954" lon="6.30198">
        <ele>149</ele>
        <time>2023-04-28T12:26:23Z</time>
      </trkpt>
      <trkpt lat="43.46954" lon="6.30197">
        <ele>149</ele>
        <time>2023-04-28T12:26:24Z</time>
      </trkpt>
      <trkpt lat="43.46954" lon="6.30197">
        <ele>149</ele>
        <time>2023-04-28T12:26:25Z</time>
      </trkpt>
      <trkpt lat="43.46954" lon="6.30197">
        <ele>149</ele>
        <time>2023-04-28T12:26:26Z</time>
      </trkpt>
      <trkpt lat="43.46954" lon="6.30197">
        <ele>149</ele>
        <time>2023-04-28T12:26:27Z</time>
      </trkpt>
      <trkpt lat="43.46954" lon="6.30197">
        <ele>149</ele>
        <time>2023-04-28T12:26:28Z</time>
      </trkpt>
      <trkpt lat="43.46954" lon="6.30197">
        <ele>149</ele>
        <time>2023-04-28T12:26:29Z</time>
      </trkpt>
      <trkpt lat="43.46954" lon="6.30197">
        <ele>149</ele>
        <time>2023-04-28T12:26:30Z</time>
      </trkpt>
      <trkpt lat="43.46954" lon="6.30197">
        <ele>149</ele>
        <time>2023-04-28T12:26:31Z</time>
      </trkpt>
      <trkpt lat="43.46954" lon="6.30197">
        <ele>149</ele>
        <time>2023-04-28T12:26:32Z</time>
      </trkpt>
      <trkpt lat="43.46954" lon="6.30197">
        <ele>149</ele>
        <time>2023-04-28T12:26:33Z</time>
      </trkpt>
      <trkpt lat="43.46954" lon="6.30197">
        <ele>149</ele>
        <time>2023-04-28T12:26:34Z</time>
      </trkpt>
      <trkpt lat="43.46955" lon="6.30195">
        <ele>149</ele>
        <time>2023-04-28T12:26:35Z</time>
      </trkpt>
      <trkpt lat="43.46955" lon="6.30193">
        <ele>149</ele>
        <time>2023-04-28T12:26:36Z</time>
      </trkpt>
      <trkpt lat="43.46955" lon="6.30192">
        <ele>149</ele>
        <time>2023-04-28T12:26:37Z</time>
      </trkpt>
      <trkpt lat="43.46955" lon="6.30191">
        <ele>149</ele>
        <time>2023-04-28T12:26:38Z</time>
      </trkpt>
      <trkpt lat="43.46955" lon="6.3019">
        <ele>149</ele>
        <time>2023-04-28T12:26:39Z</time>
      </trkpt>
      <trkpt lat="43.46955" lon="6.30189">
        <ele>149</ele>
        <time>2023-04-28T12:26:40Z</time>
      </trkpt>
      <trkpt lat="43.46955" lon="6.30187">
        <ele>149</ele>
        <time>2023-04-28T12:26:41Z</time>
      </trkpt>
      <trkpt lat="43.46954" lon="6.30186">
        <ele>149</ele>
        <time>2023-04-28T12:26:42Z</time>
      </trkpt>
      <trkpt lat="43.46954" lon="6.30185">
        <ele>149</ele>
        <time>2023-04-28T12:26:43Z</time>
      </trkpt>
      <trkpt lat="43.46954" lon="6.30183">
        <ele>149</ele>
        <time>2023-04-28T12:26:44Z</time>
      </trkpt>
      <trkpt lat="43.46954" lon="6.30181">
        <ele>149</ele>
        <time>2023-04-28T12:26:45Z</time>
      </trkpt>
      <trkpt lat="43.46954" lon="6.3018">
        <ele>149</ele>
        <time>2023-04-28T12:26:46Z</time>
      </trkpt>
      <trkpt lat="43.46954" lon="6.30178">
        <ele>149</ele>
        <time>2023-04-28T12:26:47Z</time>
      </trkpt>
      <trkpt lat="43.46954" lon="6.30177">
        <ele>149</ele>
        <time>2023-04-28T12:26:48Z</time>
      </trkpt>
      <trkpt lat="43.46954" lon="6.30175">
        <ele>149</ele>
        <time>2023-04-28T12:26:49Z</time>
      </trkpt>
      <trkpt lat="43.46953" lon="6.30174">
        <ele>149</ele>
        <time>2023-04-28T12:26:50Z</time>
      </trkpt>
      <trkpt lat="43.46953" lon="6.30172">
        <ele>149</ele>
        <time>2023-04-28T12:26:51Z</time>
      </trkpt>
      <trkpt lat="43.46953" lon="6.30171">
        <ele>148</ele>
        <time>2023-04-28T12:26:52Z</time>
      </trkpt>
      <trkpt lat="43.46953" lon="6.30169">
        <ele>148</ele>
        <time>2023-04-28T12:26:53Z</time>
      </trkpt>
      <trkpt lat="43.46953" lon="6.30168">
        <ele>148</ele>
        <time>2023-04-28T12:26:54Z</time>
      </trkpt>
      <trkpt lat="43.46953" lon="6.30166">
        <ele>148</ele>
        <time>2023-04-28T12:26:55Z</time>
      </trkpt>
      <trkpt lat="43.46953" lon="6.30165">
        <ele>148</ele>
        <time>2023-04-28T12:26:56Z</time>
      </trkpt>
      <trkpt lat="43.46952" lon="6.30163">
        <ele>148</ele>
        <time>2023-04-28T12:26:57Z</time>
      </trkpt>
      <trkpt lat="43.46952" lon="6.30162">
        <ele>148</ele>
        <time>2023-04-28T12:26:58Z</time>
      </trkpt>
      <trkpt lat="43.46952" lon="6.3016">
        <ele>148</ele>
        <time>2023-04-28T12:26:59Z</time>
      </trkpt>
      <trkpt lat="43.46951" lon="6.30159">
        <ele>147</ele>
        <time>2023-04-28T12:27:00Z</time>
      </trkpt>
      <trkpt lat="43.46951" lon="6.30157">
        <ele>147</ele>
        <time>2023-04-28T12:27:01Z</time>
      </trkpt>
      <trkpt lat="43.46951" lon="6.30155">
        <ele>147</ele>
        <time>2023-04-28T12:27:02Z</time>
      </trkpt>
      <trkpt lat="43.4695" lon="6.30154">
        <ele>147</ele>
        <time>2023-04-28T12:27:03Z</time>
      </trkpt>
      <trkpt lat="43.4695" lon="6.30152">
        <ele>146</ele>
        <time>2023-04-28T12:27:04Z</time>
      </trkpt>
      <trkpt lat="43.46949" lon="6.3015">
        <ele>146</ele>
        <time>2023-04-28T12:27:05Z</time>
      </trkpt>
      <trkpt lat="43.46948" lon="6.30149">
        <ele>146</ele>
        <time>2023-04-28T12:27:06Z</time>
      </trkpt>
      <trkpt lat="43.46948" lon="6.30147">
        <ele>146</ele>
        <time>2023-04-28T12:27:07Z</time>
      </trkpt>
      <trkpt lat="43.46947" lon="6.30146">
        <ele>146</ele>
        <time>2023-04-28T12:27:08Z</time>
      </trkpt>
      <trkpt lat="43.46947" lon="6.30144">
        <ele>146</ele>
        <time>2023-04-28T12:27:09Z</time>
      </trkpt>
      <trkpt lat="43.46946" lon="6.30142">
        <ele>146</ele>
        <time>2023-04-28T12:27:10Z</time>
      </trkpt>
      <trkpt lat="43.46946" lon="6.3014">
        <ele>146</ele>
        <time>2023-04-28T12:27:11Z</time>
      </trkpt>
      <trkpt lat="43.46946" lon="6.30139">
        <ele>146</ele>
        <time>2023-04-28T12:27:12Z</time>
      </trkpt>
      <trkpt lat="43.46946" lon="6.30137">
        <ele>146</ele>
        <time>2023-04-28T12:27:13Z</time>
      </trkpt>
      <trkpt lat="43.46946" lon="6.30135">
        <ele>146</ele>
        <time>2023-04-28T12:27:14Z</time>
      </trkpt>
      <trkpt lat="43.46946" lon="6.30133">
        <ele>146</ele>
        <time>2023-04-28T12:27:15Z</time>
      </trkpt>
      <trkpt lat="43.46946" lon="6.30132">
        <ele>147</ele>
        <time>2023-04-28T12:27:16Z</time>
      </trkpt>
      <trkpt lat="43.46946" lon="6.3013">
        <ele>147</ele>
        <time>2023-04-28T12:27:17Z</time>
      </trkpt>
      <trkpt lat="43.46946" lon="6.30129">
        <ele>147</ele>
        <time>2023-04-28T12:27:18Z</time>
      </trkpt>
      <trkpt lat="43.46946" lon="6.30127">
        <ele>147</ele>
        <time>2023-04-28T12:27:19Z</time>
      </trkpt>
      <trkpt lat="43.46946" lon="6.30126">
        <ele>147</ele>
        <time>2023-04-28T12:27:20Z</time>
      </trkpt>
      <trkpt lat="43.46947" lon="6.30124">
        <ele>147</ele>
        <time>2023-04-28T12:27:21Z</time>
      </trkpt>
      <trkpt lat="43.46947" lon="6.30123">
        <ele>147</ele>
        <time>2023-04-28T12:27:22Z</time>
      </trkpt>
      <trkpt lat="43.46947" lon="6.30122">
        <ele>147</ele>
        <time>2023-04-28T12:27:23Z</time>
      </trkpt>
      <trkpt lat="43.46947" lon="6.30121">
        <ele>147</ele>
        <time>2023-04-28T12:27:24Z</time>
      </trkpt>
      <trkpt lat="43.46947" lon="6.3012">
        <ele>147</ele>
        <time>2023-04-28T12:27:25Z</time>
      </trkpt>
      <trkpt lat="43.46948" lon="6.30118">
        <ele>147</ele>
        <time>2023-04-28T12:27:26Z</time>
      </trkpt>
      <trkpt lat="43.46948" lon="6.30117">
        <ele>147</ele>
        <time>2023-04-28T12:27:27Z</time>
      </trkpt>
      <trkpt lat="43.46948" lon="6.30115">
        <ele>147</ele>
        <time>2023-04-28T12:27:28Z</time>
      </trkpt>
      <trkpt lat="43.46948" lon="6.30114">
        <ele>147</ele>
        <time>2023-04-28T12:27:29Z</time>
      </trkpt>
      <trkpt lat="43.46948" lon="6.30112">
        <ele>147</ele>
        <time>2023-04-28T12:27:30Z</time>
      </trkpt>
      <trkpt lat="43.46948" lon="6.30111">
        <ele>147</ele>
        <time>2023-04-28T12:27:31Z</time>
      </trkpt>
      <trkpt lat="43.46948" lon="6.30109">
        <ele>147</ele>
        <time>2023-04-28T12:27:32Z</time>
      </trkpt>
      <trkpt lat="43.46948" lon="6.30108">
        <ele>147</ele>
        <time>2023-04-28T12:27:33Z</time>
      </trkpt>
      <trkpt lat="43.46949" lon="6.30107">
        <ele>147</ele>
        <time>2023-04-28T12:27:34Z</time>
      </trkpt>
      <trkpt lat="43.46949" lon="6.30106">
        <ele>147</ele>
        <time>2023-04-28T12:27:35Z</time>
      </trkpt>
      <trkpt lat="43.46949" lon="6.30104">
        <ele>147</ele>
        <time>2023-04-28T12:27:36Z</time>
      </trkpt>
      <trkpt lat="43.4695" lon="6.30103">
        <ele>147</ele>
        <time>2023-04-28T12:27:37Z</time>
      </trkpt>
      <trkpt lat="43.4695" lon="6.30102">
        <ele>147</ele>
        <time>2023-04-28T12:27:38Z</time>
      </trkpt>
      <trkpt lat="43.4695" lon="6.301">
        <ele>147</ele>
        <time>2023-04-28T12:27:39Z</time>
      </trkpt>
      <trkpt lat="43.4695" lon="6.30099">
        <ele>147</ele>
        <time>2023-04-28T12:27:40Z</time>
      </trkpt>
      <trkpt lat="43.46951" lon="6.30098">
        <ele>147</ele>
        <time>2023-04-28T12:27:41Z</time>
      </trkpt>
      <trkpt lat="43.46951" lon="6.30096">
        <ele>147</ele>
        <time>2023-04-28T12:27:42Z</time>
      </trkpt>
      <trkpt lat="43.46951" lon="6.30095">
        <ele>147</ele>
        <time>2023-04-28T12:27:43Z</time>
      </trkpt>
      <trkpt lat="43.46951" lon="6.30094">
        <ele>148</ele>
        <time>2023-04-28T12:27:44Z</time>
      </trkpt>
      <trkpt lat="43.46951" lon="6.30093">
        <ele>148</ele>
        <time>2023-04-28T12:27:45Z</time>
      </trkpt>
      <trkpt lat="43.46951" lon="6.30092">
        <ele>149</ele>
        <time>2023-04-28T12:27:46Z</time>
      </trkpt>
      <trkpt lat="43.46951" lon="6.30091">
        <ele>149</ele>
        <time>2023-04-28T12:27:47Z</time>
      </trkpt>
      <trkpt lat="43.46951" lon="6.30089">
        <ele>149</ele>
        <time>2023-04-28T12:27:48Z</time>
      </trkpt>
      <trkpt lat="43.46951" lon="6.30088">
        <ele>149</ele>
        <time>2023-04-28T12:27:49Z</time>
      </trkpt>
      <trkpt lat="43.46951" lon="6.30087">
        <ele>149</ele>
        <time>2023-04-28T12:27:50Z</time>
      </trkpt>
      <trkpt lat="43.4695" lon="6.30085">
        <ele>150</ele>
        <time>2023-04-28T12:27:51Z</time>
      </trkpt>
      <trkpt lat="43.4695" lon="6.30084">
        <ele>150</ele>
        <time>2023-04-28T12:27:52Z</time>
      </trkpt>
      <trkpt lat="43.4695" lon="6.30082">
        <ele>150</ele>
        <time>2023-04-28T12:27:53Z</time>
      </trkpt>
      <trkpt lat="43.4695" lon="6.30081">
        <ele>150</ele>
        <time>2023-04-28T12:27:54Z</time>
      </trkpt>
      <trkpt lat="43.4695" lon="6.30079">
        <ele>150</ele>
        <time>2023-04-28T12:27:55Z</time>
      </trkpt>
      <trkpt lat="43.4695" lon="6.30077">
        <ele>150</ele>
        <time>2023-04-28T12:27:56Z</time>
      </trkpt>
      <trkpt lat="43.4695" lon="6.30076">
        <ele>150</ele>
        <time>2023-04-28T12:27:57Z</time>
      </trkpt>
      <trkpt lat="43.4695" lon="6.30074">
        <ele>150</ele>
        <time>2023-04-28T12:27:58Z</time>
      </trkpt>
      <trkpt lat="43.4695" lon="6.30073">
        <ele>150</ele>
        <time>2023-04-28T12:27:59Z</time>
      </trkpt>
      <trkpt lat="43.4695" lon="6.30071">
        <ele>150</ele>
        <time>2023-04-28T12:28:00Z</time>
      </trkpt>
      <trkpt lat="43.4695" lon="6.3007">
        <ele>150</ele>
        <time>2023-04-28T12:28:01Z</time>
      </trkpt>
      <trkpt lat="43.4695" lon="6.30068">
        <ele>151</ele>
        <time>2023-04-28T12:28:02Z</time>
      </trkpt>
      <trkpt lat="43.46951" lon="6.30067">
        <ele>152</ele>
        <time>2023-04-28T12:28:03Z</time>
      </trkpt>
      <trkpt lat="43.46951" lon="6.30066">
        <ele>152</ele>
        <time>2023-04-28T12:28:04Z</time>
      </trkpt>
      <trkpt lat="43.46951" lon="6.30064">
        <ele>152</ele>
        <time>2023-04-28T12:28:05Z</time>
      </trkpt>
      <trkpt lat="43.46951" lon="6.30063">
        <ele>152</ele>
        <time>2023-04-28T12:28:06Z</time>
      </trkpt>
      <trkpt lat="43.46951" lon="6.30061">
        <ele>152</ele>
        <time>2023-04-28T12:28:07Z</time>
      </trkpt>
      <trkpt lat="43.46951" lon="6.3006">
        <ele>152</ele>
        <time>2023-04-28T12:28:08Z</time>
      </trkpt>
      <trkpt lat="43.46952" lon="6.30058">
        <ele>152</ele>
        <time>2023-04-28T12:28:09Z</time>
      </trkpt>
      <trkpt lat="43.46952" lon="6.30057">
        <ele>153</ele>
        <time>2023-04-28T12:28:10Z</time>
      </trkpt>
      <trkpt lat="43.46952" lon="6.30055">
        <ele>153</ele>
        <time>2023-04-28T12:28:11Z</time>
      </trkpt>
      <trkpt lat="43.46952" lon="6.30054">
        <ele>153</ele>
        <time>2023-04-28T12:28:12Z</time>
      </trkpt>
      <trkpt lat="43.46953" lon="6.30052">
        <ele>153</ele>
        <time>2023-04-28T12:28:13Z</time>
      </trkpt>
      <trkpt lat="43.46953" lon="6.30051">
        <ele>154</ele>
        <time>2023-04-28T12:28:14Z</time>
      </trkpt>
      <trkpt lat="43.46953" lon="6.3005">
        <ele>155</ele>
        <time>2023-04-28T12:28:15Z</time>
      </trkpt>
      <trkpt lat="43.46954" lon="6.30049">
        <ele>155</ele>
        <time>2023-04-28T12:28:16Z</time>
      </trkpt>
      <trkpt lat="43.46954" lon="6.30048">
        <ele>155</ele>
        <time>2023-04-28T12:28:17Z</time>
      </trkpt>
      <trkpt lat="43.46954" lon="6.30047">
        <ele>156</ele>
        <time>2023-04-28T12:28:18Z</time>
      </trkpt>
      <trkpt lat="43.46955" lon="6.30046">
        <ele>156</ele>
        <time>2023-04-28T12:28:19Z</time>
      </trkpt>
      <trkpt lat="43.46955" lon="6.30044">
        <ele>156</ele>
        <time>2023-04-28T12:28:20Z</time>
      </trkpt>
      <trkpt lat="43.46956" lon="6.30043">
        <ele>156</ele>
        <time>2023-04-28T12:28:21Z</time>
      </trkpt>
      <trkpt lat="43.46956" lon="6.30042">
        <ele>157</ele>
        <time>2023-04-28T12:28:22Z</time>
      </trkpt>
      <trkpt lat="43.46957" lon="6.3004">
        <ele>157</ele>
        <time>2023-04-28T12:28:23Z</time>
      </trkpt>
      <trkpt lat="43.46957" lon="6.30039">
        <ele>157</ele>
        <time>2023-04-28T12:28:24Z</time>
      </trkpt>
      <trkpt lat="43.46958" lon="6.30038">
        <ele>157</ele>
        <time>2023-04-28T12:28:25Z</time>
      </trkpt>
      <trkpt lat="43.46958" lon="6.30037">
        <ele>157</ele>
        <time>2023-04-28T12:28:26Z</time>
      </trkpt>
      <trkpt lat="43.46959" lon="6.30036">
        <ele>157</ele>
        <time>2023-04-28T12:28:27Z</time>
      </trkpt>
      <trkpt lat="43.46959" lon="6.30034">
        <ele>159</ele>
        <time>2023-04-28T12:28:28Z</time>
      </trkpt>
      <trkpt lat="43.4696" lon="6.30033">
        <ele>159</ele>
        <time>2023-04-28T12:28:29Z</time>
      </trkpt>
      <trkpt lat="43.4696" lon="6.30032">
        <ele>160</ele>
        <time>2023-04-28T12:28:30Z</time>
      </trkpt>
      <trkpt lat="43.46961" lon="6.30031">
        <ele>160</ele>
        <time>2023-04-28T12:28:31Z</time>
      </trkpt>
      <trkpt lat="43.46961" lon="6.3003">
        <ele>160</ele>
        <time>2023-04-28T12:28:32Z</time>
      </trkpt>
      <trkpt lat="43.46962" lon="6.30029">
        <ele>160</ele>
        <time>2023-04-28T12:28:33Z</time>
      </trkpt>
      <trkpt lat="43.46962" lon="6.30028">
        <ele>160</ele>
        <time>2023-04-28T12:28:34Z</time>
      </trkpt>
      <trkpt lat="43.46963" lon="6.30027">
        <ele>161</ele>
        <time>2023-04-28T12:28:35Z</time>
      </trkpt>
      <trkpt lat="43.46963" lon="6.30026">
        <ele>161</ele>
        <time>2023-04-28T12:28:36Z</time>
      </trkpt>
      <trkpt lat="43.46964" lon="6.30025">
        <ele>161</ele>
        <time>2023-04-28T12:28:37Z</time>
      </trkpt>
      <trkpt lat="43.46964" lon="6.30024">
        <ele>161</ele>
        <time>2023-04-28T12:28:38Z</time>
      </trkpt>
      <trkpt lat="43.46965" lon="6.30022">
        <ele>161</ele>
        <time>2023-04-28T12:28:39Z</time>
      </trkpt>
      <trkpt lat="43.46966" lon="6.30021">
        <ele>161</ele>
        <time>2023-04-28T12:28:40Z</time>
      </trkpt>
      <trkpt lat="43.46966" lon="6.3002">
        <ele>161</ele>
        <time>2023-04-28T12:28:41Z</time>
      </trkpt>
      <trkpt lat="43.46966" lon="6.30019">
        <ele>161</ele>
        <time>2023-04-28T12:28:42Z</time>
      </trkpt>
      <trkpt lat="43.46967" lon="6.30018">
        <ele>161</ele>
        <time>2023-04-28T12:28:43Z</time>
      </trkpt>
      <trkpt lat="43.46967" lon="6.30017">
        <ele>161</ele>
        <time>2023-04-28T12:28:44Z</time>
      </trkpt>
      <trkpt lat="43.46967" lon="6.30015">
        <ele>162</ele>
        <time>2023-04-28T12:28:45Z</time>
      </trkpt>
      <trkpt lat="43.46968" lon="6.30014">
        <ele>162</ele>
        <time>2023-04-28T12:28:46Z</time>
      </trkpt>
      <trkpt lat="43.46968" lon="6.30013">
        <ele>162</ele>
        <time>2023-04-28T12:28:47Z</time>
      </trkpt>
      <trkpt lat="43.46968" lon="6.30012">
        <ele>162</ele>
        <time>2023-04-28T12:28:48Z</time>
      </trkpt>
      <trkpt lat="43.46969" lon="6.3001">
        <ele>162</ele>
        <time>2023-04-28T12:28:49Z</time>
      </trkpt>
      <trkpt lat="43.46969" lon="6.30009">
        <ele>162</ele>
        <time>2023-04-28T12:28:50Z</time>
      </trkpt>
      <trkpt lat="43.4697" lon="6.30008">
        <ele>162</ele>
        <time>2023-04-28T12:28:51Z</time>
      </trkpt>
      <trkpt lat="43.4697" lon="6.30007">
        <ele>162</ele>
        <time>2023-04-28T12:28:52Z</time>
      </trkpt>
      <trkpt lat="43.4697" lon="6.30005">
        <ele>162</ele>
        <time>2023-04-28T12:28:53Z</time>
      </trkpt>
      <trkpt lat="43.4697" lon="6.30004">
        <ele>162</ele>
        <time>2023-04-28T12:28:54Z</time>
      </trkpt>
      <trkpt lat="43.46971" lon="6.30002">
        <ele>162</ele>
        <time>2023-04-28T12:28:55Z</time>
      </trkpt>
      <trkpt lat="43.46971" lon="6.3">
        <ele>162</ele>
        <time>2023-04-28T12:28:56Z</time>
      </trkpt>
      <trkpt lat="43.46971" lon="6.29998">
        <ele>162</ele>
        <time>2023-04-28T12:28:57Z</time>
      </trkpt>
      <trkpt lat="43.46972" lon="6.29996">
        <ele>161</ele>
        <time>2023-04-28T12:28:58Z</time>
      </trkpt>
      <trkpt lat="43.46972" lon="6.29994">
        <ele>161</ele>
        <time>2023-04-28T12:28:59Z</time>
      </trkpt>
      <trkpt lat="43.46972" lon="6.29992">
        <ele>161</ele>
        <time>2023-04-28T12:29:00Z</time>
      </trkpt>
      <trkpt lat="43.46973" lon="6.2999">
        <ele>160</ele>
        <time>2023-04-28T12:29:01Z</time>
      </trkpt>
      <trkpt lat="43.46973" lon="6.29988">
        <ele>160</ele>
        <time>2023-04-28T12:29:02Z</time>
      </trkpt>
      <trkpt lat="43.46974" lon="6.29986">
        <ele>159</ele>
        <time>2023-04-28T12:29:03Z</time>
      </trkpt>
      <trkpt lat="43.46974" lon="6.29984">
        <ele>159</ele>
        <time>2023-04-28T12:29:04Z</time>
      </trkpt>
      <trkpt lat="43.46974" lon="6.29982">
        <ele>159</ele>
        <time>2023-04-28T12:29:05Z</time>
      </trkpt>
      <trkpt lat="43.46974" lon="6.2998">
        <ele>159</ele>
        <time>2023-04-28T12:29:06Z</time>
      </trkpt>
      <trkpt lat="43.46975" lon="6.29978">
        <ele>159</ele>
        <time>2023-04-28T12:29:07Z</time>
      </trkpt>
      <trkpt lat="43.46975" lon="6.29976">
        <ele>158</ele>
        <time>2023-04-28T12:29:08Z</time>
      </trkpt>
      <trkpt lat="43.46976" lon="6.29975">
        <ele>158</ele>
        <time>2023-04-28T12:29:09Z</time>
      </trkpt>
      <trkpt lat="43.46977" lon="6.29974">
        <ele>158</ele>
        <time>2023-04-28T12:29:10Z</time>
      </trkpt>
      <trkpt lat="43.46978" lon="6.29973">
        <ele>158</ele>
        <time>2023-04-28T12:29:11Z</time>
      </trkpt>
      <trkpt lat="43.46979" lon="6.29973">
        <ele>158</ele>
        <time>2023-04-28T12:29:12Z</time>
      </trkpt>
      <trkpt lat="43.4698" lon="6.29973">
        <ele>158</ele>
        <time>2023-04-28T12:29:13Z</time>
      </trkpt>
      <trkpt lat="43.4698" lon="6.29972">
        <ele>157</ele>
        <time>2023-04-28T12:29:14Z</time>
      </trkpt>
      <trkpt lat="43.46981" lon="6.29972">
        <ele>157</ele>
        <time>2023-04-28T12:29:15Z</time>
      </trkpt>
      <trkpt lat="43.46982" lon="6.29972">
        <ele>157</ele>
        <time>2023-04-28T12:29:16Z</time>
      </trkpt>
      <trkpt lat="43.46982" lon="6.29973">
        <ele>157</ele>
        <time>2023-04-28T12:29:17Z</time>
      </trkpt>
      <trkpt lat="43.46982" lon="6.29972">
        <ele>157</ele>
        <time>2023-04-28T12:29:18Z</time>
      </trkpt>
      <trkpt lat="43.46982" lon="6.29971">
        <ele>157</ele>
        <time>2023-04-28T12:29:19Z</time>
      </trkpt>
      <trkpt lat="43.46982" lon="6.2997">
        <ele>157</ele>
        <time>2023-04-28T12:29:20Z</time>
      </trkpt>
      <trkpt lat="43.46982" lon="6.29968">
        <ele>157</ele>
        <time>2023-04-28T12:29:21Z</time>
      </trkpt>
      <trkpt lat="43.46982" lon="6.29966">
        <ele>157</ele>
        <time>2023-04-28T12:29:22Z</time>
      </trkpt>
      <trkpt lat="43.46981" lon="6.29965">
        <ele>157</ele>
        <time>2023-04-28T12:29:23Z</time>
      </trkpt>
      <trkpt lat="43.46981" lon="6.29963">
        <ele>157</ele>
        <time>2023-04-28T12:29:24Z</time>
      </trkpt>
      <trkpt lat="43.46981" lon="6.29962">
        <ele>157</ele>
        <time>2023-04-28T12:29:25Z</time>
      </trkpt>
      <trkpt lat="43.46982" lon="6.2996">
        <ele>157</ele>
        <time>2023-04-28T12:29:26Z</time>
      </trkpt>
      <trkpt lat="43.46982" lon="6.29958">
        <ele>157</ele>
        <time>2023-04-28T12:29:27Z</time>
      </trkpt>
      <trkpt lat="43.46982" lon="6.29957">
        <ele>157</ele>
        <time>2023-04-28T12:29:28Z</time>
      </trkpt>
      <trkpt lat="43.46982" lon="6.29955">
        <ele>157</ele>
        <time>2023-04-28T12:29:29Z</time>
      </trkpt>
      <trkpt lat="43.46983" lon="6.29953">
        <ele>157</ele>
        <time>2023-04-28T12:29:30Z</time>
      </trkpt>
      <trkpt lat="43.46983" lon="6.29951">
        <ele>157</ele>
        <time>2023-04-28T12:29:31Z</time>
      </trkpt>
      <trkpt lat="43.46983" lon="6.2995">
        <ele>157</ele>
        <time>2023-04-28T12:29:32Z</time>
      </trkpt>
      <trkpt lat="43.46984" lon="6.29948">
        <ele>157</ele>
        <time>2023-04-28T12:29:33Z</time>
      </trkpt>
      <trkpt lat="43.46984" lon="6.29947">
        <ele>158</ele>
        <time>2023-04-28T12:29:34Z</time>
      </trkpt>
      <trkpt lat="43.46985" lon="6.29946">
        <ele>158</ele>
        <time>2023-04-28T12:29:35Z</time>
      </trkpt>
      <trkpt lat="43.46985" lon="6.29944">
        <ele>158</ele>
        <time>2023-04-28T12:29:36Z</time>
      </trkpt>
      <trkpt lat="43.46986" lon="6.29943">
        <ele>158</ele>
        <time>2023-04-28T12:29:37Z</time>
      </trkpt>
      <trkpt lat="43.46986" lon="6.29942">
        <ele>158</ele>
        <time>2023-04-28T12:29:38Z</time>
      </trkpt>
      <trkpt lat="43.46986" lon="6.29941">
        <ele>158</ele>
        <time>2023-04-28T12:29:39Z</time>
      </trkpt>
      <trkpt lat="43.46987" lon="6.2994">
        <ele>158</ele>
        <time>2023-04-28T12:29:40Z</time>
      </trkpt>
      <trkpt lat="43.46987" lon="6.29939">
        <ele>159</ele>
        <time>2023-04-28T12:29:41Z</time>
      </trkpt>
      <trkpt lat="43.46988" lon="6.29937">
        <ele>159</ele>
        <time>2023-04-28T12:29:42Z</time>
      </trkpt>
      <trkpt lat="43.46988" lon="6.29936">
        <ele>159</ele>
        <time>2023-04-28T12:29:43Z</time>
      </trkpt>
      <trkpt lat="43.46989" lon="6.29935">
        <ele>159</ele>
        <time>2023-04-28T12:29:44Z</time>
      </trkpt>
      <trkpt lat="43.46989" lon="6.29933">
        <ele>161</ele>
        <time>2023-04-28T12:29:45Z</time>
      </trkpt>
      <trkpt lat="43.4699" lon="6.29932">
        <ele>161</ele>
        <time>2023-04-28T12:29:46Z</time>
      </trkpt>
      <trkpt lat="43.46991" lon="6.29931">
        <ele>161</ele>
        <time>2023-04-28T12:29:47Z</time>
      </trkpt>
      <trkpt lat="43.46991" lon="6.29929">
        <ele>162</ele>
        <time>2023-04-28T12:29:48Z</time>
      </trkpt>
      <trkpt lat="43.46991" lon="6.29928">
        <ele>162</ele>
        <time>2023-04-28T12:29:49Z</time>
      </trkpt>
      <trkpt lat="43.46991" lon="6.29926">
        <ele>162</ele>
        <time>2023-04-28T12:29:50Z</time>
      </trkpt>
      <trkpt lat="43.46992" lon="6.29925">
        <ele>162</ele>
        <time>2023-04-28T12:29:51Z</time>
      </trkpt>
      <trkpt lat="43.46992" lon="6.29923">
        <ele>162</ele>
        <time>2023-04-28T12:29:52Z</time>
      </trkpt>
      <trkpt lat="43.46992" lon="6.29922">
        <ele>163</ele>
        <time>2023-04-28T12:29:53Z</time>
      </trkpt>
      <trkpt lat="43.46993" lon="6.2992">
        <ele>163</ele>
        <time>2023-04-28T12:29:54Z</time>
      </trkpt>
      <trkpt lat="43.46993" lon="6.29919">
        <ele>163</ele>
        <time>2023-04-28T12:29:55Z</time>
      </trkpt>
      <trkpt lat="43.46993" lon="6.29917">
        <ele>163</ele>
        <time>2023-04-28T12:29:56Z</time>
      </trkpt>
      <trkpt lat="43.46994" lon="6.29916">
        <ele>164</ele>
        <time>2023-04-28T12:29:57Z</time>
      </trkpt>
      <trkpt lat="43.46994" lon="6.29914">
        <ele>164</ele>
        <time>2023-04-28T12:29:58Z</time>
      </trkpt>
      <trkpt lat="43.46995" lon="6.29913">
        <ele>164</ele>
        <time>2023-04-28T12:29:59Z</time>
      </trkpt>
      <trkpt lat="43.46995" lon="6.29912">
        <ele>164</ele>
        <time>2023-04-28T12:30:00Z</time>
      </trkpt>
      <trkpt lat="43.46996" lon="6.29911">
        <ele>164</ele>
        <time>2023-04-28T12:30:01Z</time>
      </trkpt>
      <trkpt lat="43.46996" lon="6.2991">
        <ele>164</ele>
        <time>2023-04-28T12:30:02Z</time>
      </trkpt>
      <trkpt lat="43.46997" lon="6.29908">
        <ele>165</ele>
        <time>2023-04-28T12:30:03Z</time>
      </trkpt>
      <trkpt lat="43.46997" lon="6.29907">
        <ele>165</ele>
        <time>2023-04-28T12:30:04Z</time>
      </trkpt>
      <trkpt lat="43.46998" lon="6.29906">
        <ele>165</ele>
        <time>2023-04-28T12:30:05Z</time>
      </trkpt>
      <trkpt lat="43.46999" lon="6.29904">
        <ele>165</ele>
        <time>2023-04-28T12:30:06Z</time>
      </trkpt>
      <trkpt lat="43.46999" lon="6.29903">
        <ele>165</ele>
        <time>2023-04-28T12:30:07Z</time>
      </trkpt>
      <trkpt lat="43.47" lon="6.29902">
        <ele>165</ele>
        <time>2023-04-28T12:30:08Z</time>
      </trkpt>
      <trkpt lat="43.47001" lon="6.29901">
        <ele>166</ele>
        <time>2023-04-28T12:30:09Z</time>
      </trkpt>
      <trkpt lat="43.47002" lon="6.299">
        <ele>167</ele>
        <time>2023-04-28T12:30:10Z</time>
      </trkpt>
      <trkpt lat="43.47002" lon="6.29898">
        <ele>167</ele>
        <time>2023-04-28T12:30:11Z</time>
      </trkpt>
      <trkpt lat="43.47003" lon="6.29897">
        <ele>167</ele>
        <time>2023-04-28T12:30:12Z</time>
      </trkpt>
      <trkpt lat="43.47004" lon="6.29896">
        <ele>168</ele>
        <time>2023-04-28T12:30:13Z</time>
      </trkpt>
      <trkpt lat="43.47004" lon="6.29896">
        <ele>168</ele>
        <time>2023-04-28T12:30:14Z</time>
      </trkpt>
      <trkpt lat="43.47005" lon="6.29895">
        <ele>168</ele>
        <time>2023-04-28T12:30:15Z</time>
      </trkpt>
      <trkpt lat="43.47006" lon="6.29895">
        <ele>168</ele>
        <time>2023-04-28T12:30:16Z</time>
      </trkpt>
      <trkpt lat="43.47006" lon="6.29894">
        <ele>168</ele>
        <time>2023-04-28T12:30:17Z</time>
      </trkpt>
      <trkpt lat="43.47007" lon="6.29892">
        <ele>169</ele>
        <time>2023-04-28T12:30:18Z</time>
      </trkpt>
      <trkpt lat="43.47007" lon="6.29891">
        <ele>169</ele>
        <time>2023-04-28T12:30:19Z</time>
      </trkpt>
      <trkpt lat="43.47008" lon="6.2989">
        <ele>169</ele>
        <time>2023-04-28T12:30:20Z</time>
      </trkpt>
      <trkpt lat="43.47009" lon="6.29889">
        <ele>169</ele>
        <time>2023-04-28T12:30:21Z</time>
      </trkpt>
      <trkpt lat="43.47009" lon="6.29887">
        <ele>170</ele>
        <time>2023-04-28T12:30:22Z</time>
      </trkpt>
      <trkpt lat="43.4701" lon="6.29886">
        <ele>171</ele>
        <time>2023-04-28T12:30:23Z</time>
      </trkpt>
      <trkpt lat="43.4701" lon="6.29885">
        <ele>171</ele>
        <time>2023-04-28T12:30:24Z</time>
      </trkpt>
      <trkpt lat="43.47011" lon="6.29884">
        <ele>171</ele>
        <time>2023-04-28T12:30:25Z</time>
      </trkpt>
      <trkpt lat="43.47011" lon="6.29883">
        <ele>171</ele>
        <time>2023-04-28T12:30:26Z</time>
      </trkpt>
      <trkpt lat="43.47012" lon="6.29882">
        <ele>171</ele>
        <time>2023-04-28T12:30:27Z</time>
      </trkpt>
      <trkpt lat="43.47012" lon="6.29881">
        <ele>171</ele>
        <time>2023-04-28T12:30:28Z</time>
      </trkpt>
      <trkpt lat="43.47013" lon="6.2988">
        <ele>171</ele>
        <time>2023-04-28T12:30:29Z</time>
      </trkpt>
      <trkpt lat="43.47013" lon="6.29879">
        <ele>171</ele>
        <time>2023-04-28T12:30:30Z</time>
      </trkpt>
      <trkpt lat="43.47014" lon="6.29878">
        <ele>171</ele>
        <time>2023-04-28T12:30:31Z</time>
      </trkpt>
      <trkpt lat="43.47014" lon="6.29877">
        <ele>171</ele>
        <time>2023-04-28T12:30:32Z</time>
      </trkpt>
      <trkpt lat="43.47015" lon="6.29876">
        <ele>171</ele>
        <time>2023-04-28T12:30:33Z</time>
      </trkpt>
      <trkpt lat="43.47015" lon="6.29875">
        <ele>171</ele>
        <time>2023-04-28T12:30:34Z</time>
      </trkpt>
      <trkpt lat="43.47015" lon="6.29874">
        <ele>171</ele>
        <time>2023-04-28T12:30:35Z</time>
      </trkpt>
      <trkpt lat="43.47016" lon="6.29873">
        <ele>171</ele>
        <time>2023-04-28T12:30:36Z</time>
      </trkpt>
      <trkpt lat="43.47016" lon="6.29872">
        <ele>171</ele>
        <time>2023-04-28T12:30:37Z</time>
      </trkpt>
      <trkpt lat="43.47015" lon="6.29872">
        <ele>171</ele>
        <time>2023-04-28T12:30:38Z</time>
      </trkpt>
      <trkpt lat="43.47015" lon="6.29871">
        <ele>171</ele>
        <time>2023-04-28T12:30:39Z</time>
      </trkpt>
      <trkpt lat="43.47015" lon="6.29871">
        <ele>171</ele>
        <time>2023-04-28T12:30:40Z</time>
      </trkpt>
      <trkpt lat="43.47015" lon="6.29871">
        <ele>171</ele>
        <time>2023-04-28T12:30:41Z</time>
      </trkpt>
      <trkpt lat="43.47015" lon="6.29871">
        <ele>171</ele>
        <time>2023-04-28T12:30:42Z</time>
      </trkpt>
      <trkpt lat="43.47015" lon="6.29871">
        <ele>171</ele>
        <time>2023-04-28T12:30:43Z</time>
      </trkpt>
      <trkpt lat="43.47015" lon="6.29871">
        <ele>171</ele>
        <time>2023-04-28T12:30:44Z</time>
      </trkpt>
      <trkpt lat="43.47015" lon="6.29871">
        <ele>170</ele>
        <time>2023-04-28T12:30:45Z</time>
      </trkpt>
      <trkpt lat="43.47015" lon="6.29871">
        <ele>170</ele>
        <time>2023-04-28T12:30:46Z</time>
      </trkpt>
      <trkpt lat="43.47016" lon="6.2987">
        <ele>170</ele>
        <time>2023-04-28T12:30:47Z</time>
      </trkpt>
      <trkpt lat="43.47016" lon="6.29869">
        <ele>170</ele>
        <time>2023-04-28T12:30:48Z</time>
      </trkpt>
      <trkpt lat="43.47017" lon="6.29868">
        <ele>170</ele>
        <time>2023-04-28T12:30:49Z</time>
      </trkpt>
      <trkpt lat="43.47017" lon="6.29867">
        <ele>170</ele>
        <time>2023-04-28T12:30:50Z</time>
      </trkpt>
      <trkpt lat="43.47018" lon="6.29866">
        <ele>170</ele>
        <time>2023-04-28T12:30:51Z</time>
      </trkpt>
      <trkpt lat="43.47018" lon="6.29865">
        <ele>170</ele>
        <time>2023-04-28T12:30:52Z</time>
      </trkpt>
      <trkpt lat="43.47019" lon="6.29864">
        <ele>170</ele>
        <time>2023-04-28T12:30:53Z</time>
      </trkpt>
      <trkpt lat="43.4702" lon="6.29863">
        <ele>170</ele>
        <time>2023-04-28T12:30:54Z</time>
      </trkpt>
      <trkpt lat="43.4702" lon="6.29862">
        <ele>170</ele>
        <time>2023-04-28T12:30:55Z</time>
      </trkpt>
      <trkpt lat="43.47021" lon="6.29862">
        <ele>170</ele>
        <time>2023-04-28T12:30:56Z</time>
      </trkpt>
      <trkpt lat="43.47021" lon="6.29861">
        <ele>169</ele>
        <time>2023-04-28T12:30:57Z</time>
      </trkpt>
      <trkpt lat="43.47022" lon="6.2986">
        <ele>169</ele>
        <time>2023-04-28T12:30:58Z</time>
      </trkpt>
      <trkpt lat="43.47023" lon="6.29859">
        <ele>169</ele>
        <time>2023-04-28T12:30:59Z</time>
      </trkpt>
      <trkpt lat="43.47023" lon="6.29857">
        <ele>168</ele>
        <time>2023-04-28T12:31:00Z</time>
      </trkpt>
      <trkpt lat="43.47023" lon="6.29856">
        <ele>168</ele>
        <time>2023-04-28T12:31:01Z</time>
      </trkpt>
      <trkpt lat="43.47023" lon="6.29856">
        <ele>168</ele>
        <time>2023-04-28T12:31:02Z</time>
      </trkpt>
      <trkpt lat="43.47023" lon="6.29855">
        <ele>168</ele>
        <time>2023-04-28T12:31:03Z</time>
      </trkpt>
      <trkpt lat="43.47023" lon="6.29854">
        <ele>168</ele>
        <time>2023-04-28T12:31:04Z</time>
      </trkpt>
      <trkpt lat="43.47024" lon="6.29853">
        <ele>168</ele>
        <time>2023-04-28T12:31:05Z</time>
      </trkpt>
      <trkpt lat="43.47024" lon="6.29852">
        <ele>168</ele>
        <time>2023-04-28T12:31:06Z</time>
      </trkpt>
      <trkpt lat="43.47024" lon="6.29852">
        <ele>168</ele>
        <time>2023-04-28T12:31:07Z</time>
      </trkpt>
      <trkpt lat="43.47024" lon="6.29852">
        <ele>168</ele>
        <time>2023-04-28T12:31:08Z</time>
      </trkpt>
      <trkpt lat="43.47024" lon="6.29852">
        <ele>168</ele>
        <time>2023-04-28T12:31:09Z</time>
      </trkpt>
      <trkpt lat="43.47024" lon="6.29852">
        <ele>168</ele>
        <time>2023-04-28T12:31:10Z</time>
      </trkpt>
      <trkpt lat="43.47024" lon="6.29852">
        <ele>168</ele>
        <time>2023-04-28T12:31:11Z</time>
      </trkpt>
      <trkpt lat="43.47024" lon="6.29852">
        <ele>168</ele>
        <time>2023-04-28T12:31:12Z</time>
      </trkpt>
      <trkpt lat="43.47024" lon="6.29852">
        <ele>168</ele>
        <time>2023-04-28T12:31:13Z</time>
      </trkpt>
      <trkpt lat="43.47024" lon="6.29852">
        <ele>168</ele>
        <time>2023-04-28T12:31:14Z</time>
      </trkpt>
      <trkpt lat="43.47025" lon="6.29852">
        <ele>168</ele>
        <time>2023-04-28T12:31:15Z</time>
      </trkpt>
      <trkpt lat="43.47025" lon="6.29852">
        <ele>168</ele>
        <time>2023-04-28T12:31:16Z</time>
      </trkpt>
      <trkpt lat="43.47025" lon="6.29851">
        <ele>168</ele>
        <time>2023-04-28T12:31:17Z</time>
      </trkpt>
      <trkpt lat="43.47025" lon="6.29851">
        <ele>168</ele>
        <time>2023-04-28T12:31:18Z</time>
      </trkpt>
      <trkpt lat="43.47025" lon="6.29851">
        <ele>168</ele>
        <time>2023-04-28T12:31:19Z</time>
      </trkpt>
      <trkpt lat="43.47026" lon="6.29851">
        <ele>168</ele>
        <time>2023-04-28T12:31:20Z</time>
      </trkpt>
      <trkpt lat="43.47026" lon="6.29851">
        <ele>168</ele>
        <time>2023-04-28T12:31:21Z</time>
      </trkpt>
      <trkpt lat="43.47026" lon="6.29851">
        <ele>167</ele>
        <time>2023-04-28T12:31:22Z</time>
      </trkpt>
      <trkpt lat="43.47027" lon="6.29852">
        <ele>167</ele>
        <time>2023-04-28T12:31:23Z</time>
      </trkpt>
      <trkpt lat="43.47027" lon="6.29852">
        <ele>167</ele>
        <time>2023-04-28T12:31:24Z</time>
      </trkpt>
      <trkpt lat="43.47028" lon="6.29853">
        <ele>167</ele>
        <time>2023-04-28T12:31:25Z</time>
      </trkpt>
      <trkpt lat="43.47028" lon="6.29853">
        <ele>167</ele>
        <time>2023-04-28T12:31:26Z</time>
      </trkpt>
      <trkpt lat="43.47028" lon="6.29853">
        <ele>167</ele>
        <time>2023-04-28T12:31:27Z</time>
      </trkpt>
      <trkpt lat="43.47029" lon="6.29853">
        <ele>167</ele>
        <time>2023-04-28T12:31:28Z</time>
      </trkpt>
      <trkpt lat="43.47029" lon="6.29853">
        <ele>167</ele>
        <time>2023-04-28T12:31:29Z</time>
      </trkpt>
      <trkpt lat="43.47029" lon="6.29853">
        <ele>167</ele>
        <time>2023-04-28T12:31:30Z</time>
      </trkpt>
      <trkpt lat="43.47029" lon="6.29854">
        <ele>167</ele>
        <time>2023-04-28T12:31:31Z</time>
      </trkpt>
      <trkpt lat="43.47029" lon="6.29854">
        <ele>167</ele>
        <time>2023-04-28T12:31:32Z</time>
      </trkpt>
      <trkpt lat="43.47029" lon="6.29855">
        <ele>167</ele>
        <time>2023-04-28T12:31:33Z</time>
      </trkpt>
      <trkpt lat="43.47029" lon="6.29855">
        <ele>167</ele>
        <time>2023-04-28T12:31:34Z</time>
      </trkpt>
      <trkpt lat="43.47029" lon="6.29855">
        <ele>167</ele>
        <time>2023-04-28T12:31:35Z</time>
      </trkpt>
      <trkpt lat="43.47029" lon="6.29855">
        <ele>167</ele>
        <time>2023-04-28T12:31:36Z</time>
      </trkpt>
      <trkpt lat="43.47029" lon="6.29855">
        <ele>167</ele>
        <time>2023-04-28T12:31:37Z</time>
      </trkpt>
      <trkpt lat="43.47029" lon="6.29855">
        <ele>167</ele>
        <time>2023-04-28T12:31:38Z</time>
      </trkpt>
      <trkpt lat="43.47029" lon="6.29855">
        <ele>167</ele>
        <time>2023-04-28T12:31:39Z</time>
      </trkpt>
      <trkpt lat="43.47029" lon="6.29855">
        <ele>167</ele>
        <time>2023-04-28T12:31:40Z</time>
      </trkpt>
      <trkpt lat="43.47029" lon="6.29855">
        <ele>167</ele>
        <time>2023-04-28T12:31:41Z</time>
      </trkpt>
      <trkpt lat="43.47029" lon="6.29855">
        <ele>167</ele>
        <time>2023-04-28T12:31:42Z</time>
      </trkpt>
      <trkpt lat="43.47029" lon="6.29855">
        <ele>167</ele>
        <time>2023-04-28T12:31:43Z</time>
      </trkpt>
      <trkpt lat="43.47029" lon="6.29855">
        <ele>167</ele>
        <time>2023-04-28T12:31:44Z</time>
      </trkpt>
      <trkpt lat="43.47029" lon="6.29855">
        <ele>167</ele>
        <time>2023-04-28T12:31:45Z</time>
      </trkpt>
      <trkpt lat="43.47029" lon="6.29855">
        <ele>167</ele>
        <time>2023-04-28T12:31:46Z</time>
      </trkpt>
      <trkpt lat="43.47029" lon="6.29855">
        <ele>167</ele>
        <time>2023-04-28T12:31:47Z</time>
      </trkpt>
      <trkpt lat="43.47029" lon="6.29855">
        <ele>166</ele>
        <time>2023-04-28T12:31:48Z</time>
      </trkpt>
      <trkpt lat="43.47029" lon="6.29855">
        <ele>166</ele>
        <time>2023-04-28T12:31:49Z</time>
      </trkpt>
      <trkpt lat="43.47029" lon="6.29855">
        <ele>166</ele>
        <time>2023-04-28T12:31:50Z</time>
      </trkpt>
      <trkpt lat="43.47029" lon="6.29855">
        <ele>166</ele>
        <time>2023-04-28T12:31:51Z</time>
      </trkpt>
      <trkpt lat="43.47029" lon="6.29855">
        <ele>166</ele>
        <time>2023-04-28T12:31:52Z</time>
      </trkpt>
      <trkpt lat="43.47029" lon="6.29855">
        <ele>166</ele>
        <time>2023-04-28T12:31:53Z</time>
      </trkpt>
      <trkpt lat="43.47029" lon="6.29855">
        <ele>166</ele>
        <time>2023-04-28T12:31:54Z</time>
      </trkpt>
      <trkpt lat="43.47029" lon="6.29855">
        <ele>166</ele>
        <time>2023-04-28T12:31:55Z</time>
      </trkpt>
      <trkpt lat="43.47029" lon="6.29855">
        <ele>166</ele>
        <time>2023-04-28T12:31:56Z</time>
      </trkpt>
      <trkpt lat="43.47029" lon="6.29855">
        <ele>166</ele>
        <time>2023-04-28T12:31:57Z</time>
      </trkpt>
      <trkpt lat="43.47029" lon="6.29855">
        <ele>166</ele>
        <time>2023-04-28T12:31:58Z</time>
      </trkpt>
      <trkpt lat="43.47029" lon="6.29855">
        <ele>166</ele>
        <time>2023-04-28T12:31:59Z</time>
      </trkpt>
      <trkpt lat="43.47029" lon="6.29855">
        <ele>166</ele>
        <time>2023-04-28T12:32:00Z</time>
      </trkpt>
      <trkpt lat="43.47029" lon="6.29855">
        <ele>166</ele>
        <time>2023-04-28T12:32:01Z</time>
      </trkpt>
      <trkpt lat="43.47029" lon="6.29855">
        <ele>166</ele>
        <time>2023-04-28T12:32:02Z</time>
      </trkpt>
      <trkpt lat="43.47029" lon="6.29855">
        <ele>166</ele>
        <time>2023-04-28T12:32:03Z</time>
      </trkpt>
      <trkpt lat="43.47029" lon="6.29855">
        <ele>166</ele>
        <time>2023-04-28T12:32:04Z</time>
      </trkpt>
      <trkpt lat="43.47029" lon="6.29855">
        <ele>166</ele>
        <time>2023-04-28T12:32:05Z</time>
      </trkpt>
      <trkpt lat="43.47029" lon="6.29855">
        <ele>166</ele>
        <time>2023-04-28T12:32:06Z</time>
      </trkpt>
      <trkpt lat="43.47029" lon="6.29855">
        <ele>166</ele>
        <time>2023-04-28T12:32:07Z</time>
      </trkpt>
      <trkpt lat="43.47029" lon="6.29855">
        <ele>166</ele>
        <time>2023-04-28T12:32:08Z</time>
      </trkpt>
      <trkpt lat="43.4702" lon="6.2984">
        <ele>165</ele>
        <time>2023-04-28T12:32:09Z</time>
      </trkpt>
      <trkpt lat="43.4702" lon="6.29839">
        <ele>165</ele>
        <time>2023-04-28T12:32:10Z</time>
      </trkpt>
      <trkpt lat="43.47021" lon="6.29839">
        <ele>165</ele>
        <time>2023-04-28T12:32:11Z</time>
      </trkpt>
      <trkpt lat="43.47021" lon="6.29838">
        <ele>165</ele>
        <time>2023-04-28T12:32:12Z</time>
      </trkpt>
      <trkpt lat="43.47022" lon="6.29836">
        <ele>165</ele>
        <time>2023-04-28T12:32:13Z</time>
      </trkpt>
      <trkpt lat="43.47023" lon="6.29835">
        <ele>165</ele>
        <time>2023-04-28T12:32:14Z</time>
      </trkpt>
      <trkpt lat="43.47023" lon="6.29834">
        <ele>165</ele>
        <time>2023-04-28T12:32:15Z</time>
      </trkpt>
      <trkpt lat="43.47024" lon="6.29833">
        <ele>165</ele>
        <time>2023-04-28T12:32:16Z</time>
      </trkpt>
      <trkpt lat="43.47024" lon="6.29832">
        <ele>165</ele>
        <time>2023-04-28T12:32:17Z</time>
      </trkpt>
      <trkpt lat="43.47024" lon="6.29832">
        <ele>165</ele>
        <time>2023-04-28T12:32:18Z</time>
      </trkpt>
      <trkpt lat="43.47025" lon="6.29831">
        <ele>165</ele>
        <time>2023-04-28T12:32:19Z</time>
      </trkpt>
      <trkpt lat="43.47025" lon="6.29831">
        <ele>166</ele>
        <time>2023-04-28T12:32:20Z</time>
      </trkpt>
      <trkpt lat="43.47026" lon="6.2983">
        <ele>166</ele>
        <time>2023-04-28T12:32:21Z</time>
      </trkpt>
      <trkpt lat="43.47026" lon="6.2983">
        <ele>166</ele>
        <time>2023-04-28T12:32:22Z</time>
      </trkpt>
      <trkpt lat="43.47027" lon="6.2983">
        <ele>166</ele>
        <time>2023-04-28T12:32:23Z</time>
      </trkpt>
      <trkpt lat="43.47027" lon="6.2983">
        <ele>166</ele>
        <time>2023-04-28T12:32:24Z</time>
      </trkpt>
      <trkpt lat="43.47028" lon="6.2983">
        <ele>166</ele>
        <time>2023-04-28T12:32:25Z</time>
      </trkpt>
      <trkpt lat="43.47028" lon="6.2983">
        <ele>167</ele>
        <time>2023-04-28T12:32:26Z</time>
      </trkpt>
      <trkpt lat="43.47029" lon="6.2983">
        <ele>168</ele>
        <time>2023-04-28T12:32:27Z</time>
      </trkpt>
      <trkpt lat="43.47029" lon="6.2983">
        <ele>169</ele>
        <time>2023-04-28T12:32:28Z</time>
      </trkpt>
      <trkpt lat="43.47029" lon="6.2983">
        <ele>169</ele>
        <time>2023-04-28T12:32:29Z</time>
      </trkpt>
      <trkpt lat="43.4703" lon="6.2983">
        <ele>169</ele>
        <time>2023-04-28T12:32:30Z</time>
      </trkpt>
      <trkpt lat="43.4703" lon="6.2983">
        <ele>169</ele>
        <time>2023-04-28T12:32:31Z</time>
      </trkpt>
      <trkpt lat="43.4703" lon="6.2983">
        <ele>169</ele>
        <time>2023-04-28T12:32:32Z</time>
      </trkpt>
      <trkpt lat="43.47031" lon="6.2983">
        <ele>169</ele>
        <time>2023-04-28T12:32:33Z</time>
      </trkpt>
      <trkpt lat="43.47031" lon="6.2983">
        <ele>170</ele>
        <time>2023-04-28T12:32:34Z</time>
      </trkpt>
      <trkpt lat="43.47031" lon="6.2983">
        <ele>170</ele>
        <time>2023-04-28T12:32:35Z</time>
      </trkpt>
      <trkpt lat="43.47032" lon="6.2983">
        <ele>170</ele>
        <time>2023-04-28T12:32:36Z</time>
      </trkpt>
      <trkpt lat="43.47032" lon="6.29831">
        <ele>170</ele>
        <time>2023-04-28T12:32:37Z</time>
      </trkpt>
      <trkpt lat="43.47033" lon="6.29831">
        <ele>170</ele>
        <time>2023-04-28T12:32:38Z</time>
      </trkpt>
      <trkpt lat="43.47033" lon="6.29831">
        <ele>170</ele>
        <time>2023-04-28T12:32:39Z</time>
      </trkpt>
      <trkpt lat="43.47034" lon="6.29832">
        <ele>170</ele>
        <time>2023-04-28T12:32:40Z</time>
      </trkpt>
      <trkpt lat="43.47034" lon="6.29832">
        <ele>170</ele>
        <time>2023-04-28T12:32:41Z</time>
      </trkpt>
      <trkpt lat="43.47035" lon="6.29832">
        <ele>170</ele>
        <time>2023-04-28T12:32:42Z</time>
      </trkpt>
      <trkpt lat="43.47035" lon="6.29833">
        <ele>170</ele>
        <time>2023-04-28T12:32:43Z</time>
      </trkpt>
      <trkpt lat="43.47036" lon="6.29833">
        <ele>170</ele>
        <time>2023-04-28T12:32:44Z</time>
      </trkpt>
      <trkpt lat="43.47037" lon="6.29833">
        <ele>170</ele>
        <time>2023-04-28T12:32:45Z</time>
      </trkpt>
      <trkpt lat="43.47037" lon="6.29833">
        <ele>171</ele>
        <time>2023-04-28T12:32:46Z</time>
      </trkpt>
      <trkpt lat="43.47038" lon="6.29833">
        <ele>171</ele>
        <time>2023-04-28T12:32:47Z</time>
      </trkpt>
      <trkpt lat="43.47039" lon="6.29833">
        <ele>171</ele>
        <time>2023-04-28T12:32:48Z</time>
      </trkpt>
      <trkpt lat="43.47039" lon="6.29833">
        <ele>171</ele>
        <time>2023-04-28T12:32:49Z</time>
      </trkpt>
      <trkpt lat="43.4704" lon="6.29833">
        <ele>171</ele>
        <time>2023-04-28T12:32:50Z</time>
      </trkpt>
      <trkpt lat="43.47041" lon="6.29833">
        <ele>171</ele>
        <time>2023-04-28T12:32:51Z</time>
      </trkpt>
      <trkpt lat="43.47041" lon="6.29833">
        <ele>171</ele>
        <time>2023-04-28T12:32:52Z</time>
      </trkpt>
      <trkpt lat="43.47041" lon="6.29833">
        <ele>171</ele>
        <time>2023-04-28T12:32:53Z</time>
      </trkpt>
      <trkpt lat="43.47042" lon="6.29834">
        <ele>171</ele>
        <time>2023-04-28T12:32:54Z</time>
      </trkpt>
      <trkpt lat="43.47042" lon="6.29834">
        <ele>171</ele>
        <time>2023-04-28T12:32:55Z</time>
      </trkpt>
      <trkpt lat="43.47043" lon="6.29834">
        <ele>171</ele>
        <time>2023-04-28T12:32:56Z</time>
      </trkpt>
      <trkpt lat="43.47044" lon="6.29834">
        <ele>171</ele>
        <time>2023-04-28T12:32:57Z</time>
      </trkpt>
      <trkpt lat="43.47044" lon="6.29835">
        <ele>171</ele>
        <time>2023-04-28T12:32:58Z</time>
      </trkpt>
      <trkpt lat="43.47045" lon="6.29835">
        <ele>171</ele>
        <time>2023-04-28T12:32:59Z</time>
      </trkpt>
      <trkpt lat="43.47046" lon="6.29834">
        <ele>171</ele>
        <time>2023-04-28T12:33:00Z</time>
      </trkpt>
      <trkpt lat="43.47047" lon="6.29834">
        <ele>171</ele>
        <time>2023-04-28T12:33:01Z</time>
      </trkpt>
      <trkpt lat="43.47048" lon="6.29834">
        <ele>170</ele>
        <time>2023-04-28T12:33:02Z</time>
      </trkpt>
      <trkpt lat="43.47049" lon="6.29833">
        <ele>170</ele>
        <time>2023-04-28T12:33:03Z</time>
      </trkpt>
      <trkpt lat="43.47049" lon="6.29833">
        <ele>170</ele>
        <time>2023-04-28T12:33:04Z</time>
      </trkpt>
      <trkpt lat="43.47049" lon="6.29833">
        <ele>170</ele>
        <time>2023-04-28T12:33:05Z</time>
      </trkpt>
      <trkpt lat="43.4705" lon="6.29833">
        <ele>170</ele>
        <time>2023-04-28T12:33:06Z</time>
      </trkpt>
      <trkpt lat="43.4705" lon="6.29833">
        <ele>170</ele>
        <time>2023-04-28T12:33:07Z</time>
      </trkpt>
      <trkpt lat="43.47051" lon="6.29833">
        <ele>170</ele>
        <time>2023-04-28T12:33:08Z</time>
      </trkpt>
      <trkpt lat="43.47052" lon="6.29833">
        <ele>170</ele>
        <time>2023-04-28T12:33:09Z</time>
      </trkpt>
      <trkpt lat="43.47053" lon="6.29833">
        <ele>170</ele>
        <time>2023-04-28T12:33:10Z</time>
      </trkpt>
      <trkpt lat="43.47053" lon="6.29833">
        <ele>170</ele>
        <time>2023-04-28T12:33:11Z</time>
      </trkpt>
      <trkpt lat="43.47054" lon="6.29833">
        <ele>170</ele>
        <time>2023-04-28T12:33:12Z</time>
      </trkpt>
      <trkpt lat="43.47054" lon="6.29832">
        <ele>170</ele>
        <time>2023-04-28T12:33:13Z</time>
      </trkpt>
      <trkpt lat="43.47055" lon="6.29832">
        <ele>170</ele>
        <time>2023-04-28T12:33:14Z</time>
      </trkpt>
      <trkpt lat="43.47055" lon="6.29832">
        <ele>170</ele>
        <time>2023-04-28T12:33:15Z</time>
      </trkpt>
      <trkpt lat="43.47056" lon="6.29831">
        <ele>170</ele>
        <time>2023-04-28T12:33:16Z</time>
      </trkpt>
      <trkpt lat="43.47057" lon="6.29831">
        <ele>169</ele>
        <time>2023-04-28T12:33:17Z</time>
      </trkpt>
      <trkpt lat="43.47058" lon="6.29831">
        <ele>169</ele>
        <time>2023-04-28T12:33:18Z</time>
      </trkpt>
      <trkpt lat="43.47059" lon="6.29831">
        <ele>169</ele>
        <time>2023-04-28T12:33:19Z</time>
      </trkpt>
      <trkpt lat="43.4706" lon="6.29831">
        <ele>169</ele>
        <time>2023-04-28T12:33:20Z</time>
      </trkpt>
      <trkpt lat="43.4706" lon="6.29832">
        <ele>168</ele>
        <time>2023-04-28T12:33:21Z</time>
      </trkpt>
      <trkpt lat="43.47061" lon="6.29832">
        <ele>168</ele>
        <time>2023-04-28T12:33:22Z</time>
      </trkpt>
      <trkpt lat="43.47061" lon="6.29832">
        <ele>168</ele>
        <time>2023-04-28T12:33:23Z</time>
      </trkpt>
      <trkpt lat="43.47061" lon="6.29832">
        <ele>168</ele>
        <time>2023-04-28T12:33:24Z</time>
      </trkpt>
      <trkpt lat="43.47062" lon="6.29832">
        <ele>168</ele>
        <time>2023-04-28T12:33:25Z</time>
      </trkpt>
      <trkpt lat="43.47062" lon="6.29832">
        <ele>168</ele>
        <time>2023-04-28T12:33:26Z</time>
      </trkpt>
      <trkpt lat="43.47062" lon="6.29832">
        <ele>168</ele>
        <time>2023-04-28T12:33:27Z</time>
      </trkpt>
      <trkpt lat="43.47062" lon="6.29832">
        <ele>168</ele>
        <time>2023-04-28T12:33:28Z</time>
      </trkpt>
      <trkpt lat="43.47062" lon="6.29832">
        <ele>168</ele>
        <time>2023-04-28T12:33:29Z</time>
      </trkpt>
      <trkpt lat="43.47062" lon="6.29832">
        <ele>168</ele>
        <time>2023-04-28T12:33:30Z</time>
      </trkpt>
      <trkpt lat="43.47063" lon="6.29831">
        <ele>168</ele>
        <time>2023-04-28T12:33:31Z</time>
      </trkpt>
      <trkpt lat="43.47064" lon="6.29831">
        <ele>168</ele>
        <time>2023-04-28T12:33:32Z</time>
      </trkpt>
      <trkpt lat="43.47065" lon="6.29831">
        <ele>169</ele>
        <time>2023-04-28T12:33:33Z</time>
      </trkpt>
      <trkpt lat="43.47066" lon="6.2983">
        <ele>169</ele>
        <time>2023-04-28T12:33:34Z</time>
      </trkpt>
      <trkpt lat="43.47066" lon="6.2983">
        <ele>169</ele>
        <time>2023-04-28T12:33:35Z</time>
      </trkpt>
      <trkpt lat="43.47067" lon="6.29829">
        <ele>169</ele>
        <time>2023-04-28T12:33:36Z</time>
      </trkpt>
      <trkpt lat="43.47068" lon="6.29829">
        <ele>169</ele>
        <time>2023-04-28T12:33:37Z</time>
      </trkpt>
      <trkpt lat="43.47069" lon="6.29828">
        <ele>169</ele>
        <time>2023-04-28T12:33:38Z</time>
      </trkpt>
      <trkpt lat="43.4707" lon="6.29827">
        <ele>169</ele>
        <time>2023-04-28T12:33:39Z</time>
      </trkpt>
      <trkpt lat="43.4707" lon="6.29827">
        <ele>170</ele>
        <time>2023-04-28T12:33:40Z</time>
      </trkpt>
      <trkpt lat="43.47071" lon="6.29827">
        <ele>170</ele>
        <time>2023-04-28T12:33:41Z</time>
      </trkpt>
      <trkpt lat="43.47071" lon="6.29826">
        <ele>170</ele>
        <time>2023-04-28T12:33:42Z</time>
      </trkpt>
      <trkpt lat="43.47072" lon="6.29826">
        <ele>170</ele>
        <time>2023-04-28T12:33:43Z</time>
      </trkpt>
      <trkpt lat="43.47072" lon="6.29826">
        <ele>170</ele>
        <time>2023-04-28T12:33:44Z</time>
      </trkpt>
      <trkpt lat="43.47072" lon="6.29825">
        <ele>170</ele>
        <time>2023-04-28T12:33:45Z</time>
      </trkpt>
      <trkpt lat="43.47072" lon="6.29825">
        <ele>170</ele>
        <time>2023-04-28T12:33:46Z</time>
      </trkpt>
      <trkpt lat="43.47072" lon="6.29825">
        <ele>170</ele>
        <time>2023-04-28T12:33:47Z</time>
      </trkpt>
      <trkpt lat="43.47073" lon="6.29824">
        <ele>170</ele>
        <time>2023-04-28T12:33:48Z</time>
      </trkpt>
      <trkpt lat="43.47073" lon="6.29824">
        <ele>170</ele>
        <time>2023-04-28T12:33:49Z</time>
      </trkpt>
      <trkpt lat="43.47073" lon="6.29824">
        <ele>170</ele>
        <time>2023-04-28T12:33:50Z</time>
      </trkpt>
      <trkpt lat="43.47074" lon="6.29823">
        <ele>170</ele>
        <time>2023-04-28T12:33:51Z</time>
      </trkpt>
      <trkpt lat="43.47075" lon="6.29823">
        <ele>170</ele>
        <time>2023-04-28T12:33:52Z</time>
      </trkpt>
      <trkpt lat="43.47075" lon="6.29822">
        <ele>170</ele>
        <time>2023-04-28T12:33:53Z</time>
      </trkpt>
      <trkpt lat="43.47076" lon="6.29822">
        <ele>171</ele>
        <time>2023-04-28T12:33:54Z</time>
      </trkpt>
      <trkpt lat="43.47076" lon="6.29822">
        <ele>172</ele>
        <time>2023-04-28T12:33:55Z</time>
      </trkpt>
      <trkpt lat="43.47077" lon="6.29823">
        <ele>172</ele>
        <time>2023-04-28T12:33:56Z</time>
      </trkpt>
      <trkpt lat="43.47077" lon="6.29823">
        <ele>172</ele>
        <time>2023-04-28T12:33:57Z</time>
      </trkpt>
      <trkpt lat="43.47077" lon="6.29824">
        <ele>172</ele>
        <time>2023-04-28T12:33:58Z</time>
      </trkpt>
      <trkpt lat="43.47077" lon="6.29824">
        <ele>172</ele>
        <time>2023-04-28T12:33:59Z</time>
      </trkpt>
      <trkpt lat="43.47077" lon="6.29824">
        <ele>172</ele>
        <time>2023-04-28T12:34:00Z</time>
      </trkpt>
      <trkpt lat="43.47077" lon="6.29824">
        <ele>172</ele>
        <time>2023-04-28T12:34:01Z</time>
      </trkpt>
      <trkpt lat="43.47077" lon="6.29824">
        <ele>172</ele>
        <time>2023-04-28T12:34:02Z</time>
      </trkpt>
      <trkpt lat="43.47077" lon="6.29824">
        <ele>172</ele>
        <time>2023-04-28T12:34:03Z</time>
      </trkpt>
      <trkpt lat="43.47077" lon="6.29824">
        <ele>172</ele>
        <time>2023-04-28T12:34:04Z</time>
      </trkpt>
      <trkpt lat="43.47077" lon="6.29824">
        <ele>172</ele>
        <time>2023-04-28T12:34:05Z</time>
      </trkpt>
      <trkpt lat="43.47077" lon="6.29824">
        <ele>172</ele>
        <time>2023-04-28T12:34:06Z</time>
      </trkpt>
      <trkpt lat="43.47077" lon="6.29824">
        <ele>172</ele>
        <time>2023-04-28T12:34:07Z</time>
      </trkpt>
      <trkpt lat="43.47077" lon="6.29824">
        <ele>172</ele>
        <time>2023-04-28T12:34:08Z</time>
      </trkpt>
      <trkpt lat="43.47076" lon="6.29821">
        <ele>172</ele>
        <time>2023-04-28T12:34:09Z</time>
      </trkpt>
      <trkpt lat="43.47077" lon="6.29821">
        <ele>173</ele>
        <time>2023-04-28T12:34:10Z</time>
      </trkpt>
      <trkpt lat="43.47077" lon="6.2982">
        <ele>173</ele>
        <time>2023-04-28T12:34:11Z</time>
      </trkpt>
      <trkpt lat="43.47078" lon="6.2982">
        <ele>173</ele>
        <time>2023-04-28T12:34:12Z</time>
      </trkpt>
      <trkpt lat="43.47079" lon="6.29819">
        <ele>173</ele>
        <time>2023-04-28T12:34:13Z</time>
      </trkpt>
      <trkpt lat="43.47081" lon="6.29818">
        <ele>173</ele>
        <time>2023-04-28T12:34:14Z</time>
      </trkpt>
      <trkpt lat="43.47083" lon="6.29816">
        <ele>173</ele>
        <time>2023-04-28T12:34:15Z</time>
      </trkpt>
      <trkpt lat="43.47084" lon="6.29815">
        <ele>173</ele>
        <time>2023-04-28T12:34:16Z</time>
      </trkpt>
      <trkpt lat="43.47086" lon="6.29813">
        <ele>172</ele>
        <time>2023-04-28T12:34:17Z</time>
      </trkpt>
      <trkpt lat="43.47087" lon="6.29812">
        <ele>172</ele>
        <time>2023-04-28T12:34:18Z</time>
      </trkpt>
      <trkpt lat="43.47088" lon="6.29811">
        <ele>171</ele>
        <time>2023-04-28T12:34:19Z</time>
      </trkpt>
      <trkpt lat="43.47089" lon="6.2981">
        <ele>171</ele>
        <time>2023-04-28T12:34:20Z</time>
      </trkpt>
      <trkpt lat="43.4709" lon="6.29809">
        <ele>170</ele>
        <time>2023-04-28T12:34:21Z</time>
      </trkpt>
      <trkpt lat="43.47091" lon="6.29809">
        <ele>170</ele>
        <time>2023-04-28T12:34:22Z</time>
      </trkpt>
      <trkpt lat="43.47092" lon="6.29808">
        <ele>170</ele>
        <time>2023-04-28T12:34:23Z</time>
      </trkpt>
      <trkpt lat="43.47093" lon="6.29807">
        <ele>170</ele>
        <time>2023-04-28T12:34:24Z</time>
      </trkpt>
      <trkpt lat="43.47094" lon="6.29807">
        <ele>170</ele>
        <time>2023-04-28T12:34:25Z</time>
      </trkpt>
      <trkpt lat="43.47095" lon="6.29806">
        <ele>170</ele>
        <time>2023-04-28T12:34:26Z</time>
      </trkpt>
      <trkpt lat="43.47096" lon="6.29805">
        <ele>170</ele>
        <time>2023-04-28T12:34:27Z</time>
      </trkpt>
      <trkpt lat="43.47097" lon="6.29805">
        <ele>169</ele>
        <time>2023-04-28T12:34:28Z</time>
      </trkpt>
      <trkpt lat="43.47098" lon="6.29804">
        <ele>169</ele>
        <time>2023-04-28T12:34:29Z</time>
      </trkpt>
      <trkpt lat="43.47099" lon="6.29803">
        <ele>169</ele>
        <time>2023-04-28T12:34:30Z</time>
      </trkpt>
      <trkpt lat="43.47099" lon="6.29802">
        <ele>169</ele>
        <time>2023-04-28T12:34:31Z</time>
      </trkpt>
      <trkpt lat="43.471" lon="6.29802">
        <ele>169</ele>
        <time>2023-04-28T12:34:32Z</time>
      </trkpt>
      <trkpt lat="43.47101" lon="6.29801">
        <ele>169</ele>
        <time>2023-04-28T12:34:33Z</time>
      </trkpt>
      <trkpt lat="43.47102" lon="6.298">
        <ele>169</ele>
        <time>2023-04-28T12:34:34Z</time>
      </trkpt>
      <trkpt lat="43.47102" lon="6.29799">
        <ele>169</ele>
        <time>2023-04-28T12:34:35Z</time>
      </trkpt>
      <trkpt lat="43.47103" lon="6.29799">
        <ele>169</ele>
        <time>2023-04-28T12:34:36Z</time>
      </trkpt>
      <trkpt lat="43.47104" lon="6.29798">
        <ele>169</ele>
        <time>2023-04-28T12:34:37Z</time>
      </trkpt>
      <trkpt lat="43.47104" lon="6.29797">
        <ele>169</ele>
        <time>2023-04-28T12:34:38Z</time>
      </trkpt>
      <trkpt lat="43.47105" lon="6.29796">
        <ele>169</ele>
        <time>2023-04-28T12:34:39Z</time>
      </trkpt>
      <trkpt lat="43.47105" lon="6.29796">
        <ele>169</ele>
        <time>2023-04-28T12:34:40Z</time>
      </trkpt>
      <trkpt lat="43.47105" lon="6.29795">
        <ele>169</ele>
        <time>2023-04-28T12:34:41Z</time>
      </trkpt>
      <trkpt lat="43.47106" lon="6.29795">
        <ele>169</ele>
        <time>2023-04-28T12:34:42Z</time>
      </trkpt>
      <trkpt lat="43.47106" lon="6.29795">
        <ele>169</ele>
        <time>2023-04-28T12:34:43Z</time>
      </trkpt>
      <trkpt lat="43.47107" lon="6.29795">
        <ele>169</ele>
        <time>2023-04-28T12:34:44Z</time>
      </trkpt>
      <trkpt lat="43.47108" lon="6.29796">
        <ele>169</ele>
        <time>2023-04-28T12:34:45Z</time>
      </trkpt>
      <trkpt lat="43.47109" lon="6.29796">
        <ele>169</ele>
        <time>2023-04-28T12:34:46Z</time>
      </trkpt>
      <trkpt lat="43.4711" lon="6.29796">
        <ele>169</ele>
        <time>2023-04-28T12:34:47Z</time>
      </trkpt>
      <trkpt lat="43.47111" lon="6.29796">
        <ele>169</ele>
        <time>2023-04-28T12:34:48Z</time>
      </trkpt>
      <trkpt lat="43.47111" lon="6.29796">
        <ele>169</ele>
        <time>2023-04-28T12:34:49Z</time>
      </trkpt>
      <trkpt lat="43.47112" lon="6.29796">
        <ele>170</ele>
        <time>2023-04-28T12:34:50Z</time>
      </trkpt>
      <trkpt lat="43.47113" lon="6.29796">
        <ele>170</ele>
        <time>2023-04-28T12:34:51Z</time>
      </trkpt>
      <trkpt lat="43.47114" lon="6.29796">
        <ele>170</ele>
        <time>2023-04-28T12:34:52Z</time>
      </trkpt>
      <trkpt lat="43.47115" lon="6.29795">
        <ele>170</ele>
        <time>2023-04-28T12:34:53Z</time>
      </trkpt>
      <trkpt lat="43.47115" lon="6.29795">
        <ele>170</ele>
        <time>2023-04-28T12:34:54Z</time>
      </trkpt>
      <trkpt lat="43.47115" lon="6.29794">
        <ele>170</ele>
        <time>2023-04-28T12:34:55Z</time>
      </trkpt>
      <trkpt lat="43.47116" lon="6.29794">
        <ele>171</ele>
        <time>2023-04-28T12:34:56Z</time>
      </trkpt>
      <trkpt lat="43.47116" lon="6.29794">
        <ele>171</ele>
        <time>2023-04-28T12:34:57Z</time>
      </trkpt>
      <trkpt lat="43.47117" lon="6.29794">
        <ele>171</ele>
        <time>2023-04-28T12:34:58Z</time>
      </trkpt>
      <trkpt lat="43.47117" lon="6.29794">
        <ele>171</ele>
        <time>2023-04-28T12:34:59Z</time>
      </trkpt>
      <trkpt lat="43.47117" lon="6.29794">
        <ele>171</ele>
        <time>2023-04-28T12:35:00Z</time>
      </trkpt>
      <trkpt lat="43.47117" lon="6.29794">
        <ele>171</ele>
        <time>2023-04-28T12:35:01Z</time>
      </trkpt>
      <trkpt lat="43.47117" lon="6.29794">
        <ele>171</ele>
        <time>2023-04-28T12:35:02Z</time>
      </trkpt>
      <trkpt lat="43.47117" lon="6.29794">
        <ele>171</ele>
        <time>2023-04-28T12:35:03Z</time>
      </trkpt>
      <trkpt lat="43.47117" lon="6.29794">
        <ele>171</ele>
        <time>2023-04-28T12:35:04Z</time>
      </trkpt>
      <trkpt lat="43.47117" lon="6.29794">
        <ele>171</ele>
        <time>2023-04-28T12:35:05Z</time>
      </trkpt>
      <trkpt lat="43.47117" lon="6.29794">
        <ele>171</ele>
        <time>2023-04-28T12:35:06Z</time>
      </trkpt>
      <trkpt lat="43.47116" lon="6.29794">
        <ele>171</ele>
        <time>2023-04-28T12:35:07Z</time>
      </trkpt>
      <trkpt lat="43.47116" lon="6.29794">
        <ele>171</ele>
        <time>2023-04-28T12:35:08Z</time>
      </trkpt>
      <trkpt lat="43.47116" lon="6.29795">
        <ele>171</ele>
        <time>2023-04-28T12:35:09Z</time>
      </trkpt>
      <trkpt lat="43.47116" lon="6.29795">
        <ele>171</ele>
        <time>2023-04-28T12:35:10Z</time>
      </trkpt>
      <trkpt lat="43.47116" lon="6.29794">
        <ele>171</ele>
        <time>2023-04-28T12:35:11Z</time>
      </trkpt>
      <trkpt lat="43.47115" lon="6.29794">
        <ele>171</ele>
        <time>2023-04-28T12:35:12Z</time>
      </trkpt>
      <trkpt lat="43.47115" lon="6.29795">
        <ele>171</ele>
        <time>2023-04-28T12:35:13Z</time>
      </trkpt>
      <trkpt lat="43.47115" lon="6.29796">
        <ele>171</ele>
        <time>2023-04-28T12:35:14Z</time>
      </trkpt>
      <trkpt lat="43.47115" lon="6.29797">
        <ele>171</ele>
        <time>2023-04-28T12:35:15Z</time>
      </trkpt>
      <trkpt lat="43.47115" lon="6.29798">
        <ele>171</ele>
        <time>2023-04-28T12:35:16Z</time>
      </trkpt>
      <trkpt lat="43.47115" lon="6.29799">
        <ele>171</ele>
        <time>2023-04-28T12:35:17Z</time>
      </trkpt>
      <trkpt lat="43.47115" lon="6.298">
        <ele>171</ele>
        <time>2023-04-28T12:35:18Z</time>
      </trkpt>
      <trkpt lat="43.47115" lon="6.29801">
        <ele>171</ele>
        <time>2023-04-28T12:35:19Z</time>
      </trkpt>
      <trkpt lat="43.47115" lon="6.29802">
        <ele>171</ele>
        <time>2023-04-28T12:35:20Z</time>
      </trkpt>
      <trkpt lat="43.47115" lon="6.29803">
        <ele>171</ele>
        <time>2023-04-28T12:35:21Z</time>
      </trkpt>
      <trkpt lat="43.47115" lon="6.29804">
        <ele>171</ele>
        <time>2023-04-28T12:35:22Z</time>
      </trkpt>
      <trkpt lat="43.47115" lon="6.29805">
        <ele>171</ele>
        <time>2023-04-28T12:35:23Z</time>
      </trkpt>
      <trkpt lat="43.47116" lon="6.29805">
        <ele>171</ele>
        <time>2023-04-28T12:35:24Z</time>
      </trkpt>
      <trkpt lat="43.47116" lon="6.29806">
        <ele>171</ele>
        <time>2023-04-28T12:35:25Z</time>
      </trkpt>
      <trkpt lat="43.47116" lon="6.29806">
        <ele>171</ele>
        <time>2023-04-28T12:35:26Z</time>
      </trkpt>
      <trkpt lat="43.47116" lon="6.29806">
        <ele>171</ele>
        <time>2023-04-28T12:35:27Z</time>
      </trkpt>
      <trkpt lat="43.47116" lon="6.29807">
        <ele>171</ele>
        <time>2023-04-28T12:35:28Z</time>
      </trkpt>
      <trkpt lat="43.47117" lon="6.29807">
        <ele>171</ele>
        <time>2023-04-28T12:35:29Z</time>
      </trkpt>
      <trkpt lat="43.47117" lon="6.29807">
        <ele>171</ele>
        <time>2023-04-28T12:35:30Z</time>
      </trkpt>
      <trkpt lat="43.47117" lon="6.29807">
        <ele>171</ele>
        <time>2023-04-28T12:35:31Z</time>
      </trkpt>
      <trkpt lat="43.47117" lon="6.29807">
        <ele>171</ele>
        <time>2023-04-28T12:35:32Z</time>
      </trkpt>
      <trkpt lat="43.47118" lon="6.29807">
        <ele>171</ele>
        <time>2023-04-28T12:35:33Z</time>
      </trkpt>
      <trkpt lat="43.47118" lon="6.29807">
        <ele>171</ele>
        <time>2023-04-28T12:35:34Z</time>
      </trkpt>
      <trkpt lat="43.47118" lon="6.29808">
        <ele>171</ele>
        <time>2023-04-28T12:35:35Z</time>
      </trkpt>
      <trkpt lat="43.47118" lon="6.29808">
        <ele>171</ele>
        <time>2023-04-28T12:35:36Z</time>
      </trkpt>
      <trkpt lat="43.47118" lon="6.29809">
        <ele>171</ele>
        <time>2023-04-28T12:35:37Z</time>
      </trkpt>
      <trkpt lat="43.47118" lon="6.29809">
        <ele>171</ele>
        <time>2023-04-28T12:35:38Z</time>
      </trkpt>
      <trkpt lat="43.47118" lon="6.29809">
        <ele>171</ele>
        <time>2023-04-28T12:35:39Z</time>
      </trkpt>
      <trkpt lat="43.47117" lon="6.29808">
        <ele>171</ele>
        <time>2023-04-28T12:35:40Z</time>
      </trkpt>
      <trkpt lat="43.47117" lon="6.29808">
        <ele>171</ele>
        <time>2023-04-28T12:35:41Z</time>
      </trkpt>
      <trkpt lat="43.47117" lon="6.29807">
        <ele>171</ele>
        <time>2023-04-28T12:35:42Z</time>
      </trkpt>
      <trkpt lat="43.47118" lon="6.29806">
        <ele>171</ele>
        <time>2023-04-28T12:35:43Z</time>
      </trkpt>
      <trkpt lat="43.47119" lon="6.29806">
        <ele>171</ele>
        <time>2023-04-28T12:35:44Z</time>
      </trkpt>
      <trkpt lat="43.4712" lon="6.29806">
        <ele>171</ele>
        <time>2023-04-28T12:35:45Z</time>
      </trkpt>
      <trkpt lat="43.4712" lon="6.29805">
        <ele>171</ele>
        <time>2023-04-28T12:35:46Z</time>
      </trkpt>
      <trkpt lat="43.47121" lon="6.29806">
        <ele>170</ele>
        <time>2023-04-28T12:35:47Z</time>
      </trkpt>
      <trkpt lat="43.47122" lon="6.29806">
        <ele>170</ele>
        <time>2023-04-28T12:35:48Z</time>
      </trkpt>
      <trkpt lat="43.47123" lon="6.29806">
        <ele>170</ele>
        <time>2023-04-28T12:35:49Z</time>
      </trkpt>
      <trkpt lat="43.47124" lon="6.29805">
        <ele>170</ele>
        <time>2023-04-28T12:35:50Z</time>
      </trkpt>
      <trkpt lat="43.47125" lon="6.29803">
        <ele>170</ele>
        <time>2023-04-28T12:35:51Z</time>
      </trkpt>
      <trkpt lat="43.47125" lon="6.298">
        <ele>170</ele>
        <time>2023-04-28T12:35:52Z</time>
      </trkpt>
      <trkpt lat="43.47126" lon="6.29798">
        <ele>170</ele>
        <time>2023-04-28T12:35:53Z</time>
      </trkpt>
      <trkpt lat="43.47127" lon="6.29797">
        <ele>170</ele>
        <time>2023-04-28T12:35:54Z</time>
      </trkpt>
      <trkpt lat="43.47128" lon="6.29797">
        <ele>170</ele>
        <time>2023-04-28T12:35:55Z</time>
      </trkpt>
      <trkpt lat="43.4713" lon="6.29796">
        <ele>170</ele>
        <time>2023-04-28T12:35:56Z</time>
      </trkpt>
      <trkpt lat="43.47131" lon="6.29796">
        <ele>170</ele>
        <time>2023-04-28T12:35:57Z</time>
      </trkpt>
      <trkpt lat="43.47132" lon="6.29796">
        <ele>170</ele>
        <time>2023-04-28T12:35:58Z</time>
      </trkpt>
      <trkpt lat="43.47133" lon="6.29796">
        <ele>170</ele>
        <time>2023-04-28T12:35:59Z</time>
      </trkpt>
      <trkpt lat="43.47134" lon="6.29796">
        <ele>170</ele>
        <time>2023-04-28T12:36:00Z</time>
      </trkpt>
      <trkpt lat="43.47135" lon="6.29796">
        <ele>171</ele>
        <time>2023-04-28T12:36:01Z</time>
      </trkpt>
      <trkpt lat="43.47136" lon="6.29796">
        <ele>172</ele>
        <time>2023-04-28T12:36:02Z</time>
      </trkpt>
      <trkpt lat="43.47137" lon="6.29796">
        <ele>173</ele>
        <time>2023-04-28T12:36:03Z</time>
      </trkpt>
      <trkpt lat="43.47138" lon="6.29796">
        <ele>173</ele>
        <time>2023-04-28T12:36:04Z</time>
      </trkpt>
      <trkpt lat="43.47139" lon="6.29797">
        <ele>173</ele>
        <time>2023-04-28T12:36:05Z</time>
      </trkpt>
      <trkpt lat="43.47141" lon="6.29797">
        <ele>173</ele>
        <time>2023-04-28T12:36:06Z</time>
      </trkpt>
      <trkpt lat="43.47142" lon="6.29797">
        <ele>173</ele>
        <time>2023-04-28T12:36:07Z</time>
      </trkpt>
      <trkpt lat="43.47144" lon="6.29797">
        <ele>173</ele>
        <time>2023-04-28T12:36:08Z</time>
      </trkpt>
      <trkpt lat="43.47145" lon="6.29797">
        <ele>173</ele>
        <time>2023-04-28T12:36:09Z</time>
      </trkpt>
      <trkpt lat="43.47147" lon="6.29798">
        <ele>173</ele>
        <time>2023-04-28T12:36:10Z</time>
      </trkpt>
      <trkpt lat="43.47148" lon="6.29798">
        <ele>173</ele>
        <time>2023-04-28T12:36:11Z</time>
      </trkpt>
      <trkpt lat="43.47149" lon="6.29798">
        <ele>173</ele>
        <time>2023-04-28T12:36:12Z</time>
      </trkpt>
      <trkpt lat="43.4715" lon="6.29798">
        <ele>173</ele>
        <time>2023-04-28T12:36:13Z</time>
      </trkpt>
      <trkpt lat="43.47151" lon="6.29798">
        <ele>173</ele>
        <time>2023-04-28T12:36:14Z</time>
      </trkpt>
      <trkpt lat="43.47153" lon="6.29799">
        <ele>173</ele>
        <time>2023-04-28T12:36:15Z</time>
      </trkpt>
      <trkpt lat="43.47154" lon="6.29799">
        <ele>173</ele>
        <time>2023-04-28T12:36:16Z</time>
      </trkpt>
      <trkpt lat="43.47155" lon="6.29798">
        <ele>174</ele>
        <time>2023-04-28T12:36:17Z</time>
      </trkpt>
      <trkpt lat="43.47156" lon="6.29799">
        <ele>174</ele>
        <time>2023-04-28T12:36:18Z</time>
      </trkpt>
      <trkpt lat="43.47157" lon="6.29799">
        <ele>175</ele>
        <time>2023-04-28T12:36:19Z</time>
      </trkpt>
      <trkpt lat="43.47158" lon="6.29799">
        <ele>175</ele>
        <time>2023-04-28T12:36:20Z</time>
      </trkpt>
      <trkpt lat="43.4716" lon="6.29799">
        <ele>175</ele>
        <time>2023-04-28T12:36:21Z</time>
      </trkpt>
      <trkpt lat="43.47161" lon="6.29799">
        <ele>175</ele>
        <time>2023-04-28T12:36:22Z</time>
      </trkpt>
      <trkpt lat="43.47162" lon="6.298">
        <ele>175</ele>
        <time>2023-04-28T12:36:23Z</time>
      </trkpt>
      <trkpt lat="43.47163" lon="6.298">
        <ele>175</ele>
        <time>2023-04-28T12:36:24Z</time>
      </trkpt>
      <trkpt lat="43.47164" lon="6.29799">
        <ele>174</ele>
        <time>2023-04-28T12:36:25Z</time>
      </trkpt>
      <trkpt lat="43.47164" lon="6.29799">
        <ele>174</ele>
        <time>2023-04-28T12:36:26Z</time>
      </trkpt>
      <trkpt lat="43.47164" lon="6.29799">
        <ele>174</ele>
        <time>2023-04-28T12:36:27Z</time>
      </trkpt>
      <trkpt lat="43.47164" lon="6.29798">
        <ele>174</ele>
        <time>2023-04-28T12:36:28Z</time>
      </trkpt>
      <trkpt lat="43.47164" lon="6.29798">
        <ele>174</ele>
        <time>2023-04-28T12:36:29Z</time>
      </trkpt>
      <trkpt lat="43.47164" lon="6.29798">
        <ele>174</ele>
        <time>2023-04-28T12:36:30Z</time>
      </trkpt>
      <trkpt lat="43.47164" lon="6.29797">
        <ele>174</ele>
        <time>2023-04-28T12:36:31Z</time>
      </trkpt>
      <trkpt lat="43.47164" lon="6.29797">
        <ele>174</ele>
        <time>2023-04-28T12:36:32Z</time>
      </trkpt>
      <trkpt lat="43.47165" lon="6.29797">
        <ele>174</ele>
        <time>2023-04-28T12:36:33Z</time>
      </trkpt>
      <trkpt lat="43.47165" lon="6.29797">
        <ele>173</ele>
        <time>2023-04-28T12:36:34Z</time>
      </trkpt>
      <trkpt lat="43.47165" lon="6.29797">
        <ele>173</ele>
        <time>2023-04-28T12:36:35Z</time>
      </trkpt>
      <trkpt lat="43.47165" lon="6.29797">
        <ele>173</ele>
        <time>2023-04-28T12:36:36Z</time>
      </trkpt>
      <trkpt lat="43.47166" lon="6.29797">
        <ele>173</ele>
        <time>2023-04-28T12:36:37Z</time>
      </trkpt>
      <trkpt lat="43.47166" lon="6.29797">
        <ele>173</ele>
        <time>2023-04-28T12:36:38Z</time>
      </trkpt>
      <trkpt lat="43.47167" lon="6.29797">
        <ele>173</ele>
        <time>2023-04-28T12:36:39Z</time>
      </trkpt>
      <trkpt lat="43.47167" lon="6.29797">
        <ele>173</ele>
        <time>2023-04-28T12:36:40Z</time>
      </trkpt>
      <trkpt lat="43.47168" lon="6.29797">
        <ele>173</ele>
        <time>2023-04-28T12:36:41Z</time>
      </trkpt>
      <trkpt lat="43.4717" lon="6.29797">
        <ele>173</ele>
        <time>2023-04-28T12:36:42Z</time>
      </trkpt>
      <trkpt lat="43.47171" lon="6.29797">
        <ele>173</ele>
        <time>2023-04-28T12:36:43Z</time>
      </trkpt>
      <trkpt lat="43.47172" lon="6.29796">
        <ele>171</ele>
        <time>2023-04-28T12:36:44Z</time>
      </trkpt>
      <trkpt lat="43.47173" lon="6.29796">
        <ele>171</ele>
        <time>2023-04-28T12:36:45Z</time>
      </trkpt>
      <trkpt lat="43.47173" lon="6.29796">
        <ele>171</ele>
        <time>2023-04-28T12:36:46Z</time>
      </trkpt>
      <trkpt lat="43.47173" lon="6.29796">
        <ele>171</ele>
        <time>2023-04-28T12:36:47Z</time>
      </trkpt>
      <trkpt lat="43.47173" lon="6.29796">
        <ele>171</ele>
        <time>2023-04-28T12:36:48Z</time>
      </trkpt>
      <trkpt lat="43.47174" lon="6.29796">
        <ele>171</ele>
        <time>2023-04-28T12:36:49Z</time>
      </trkpt>
      <trkpt lat="43.47174" lon="6.29796">
        <ele>170</ele>
        <time>2023-04-28T12:36:50Z</time>
      </trkpt>
      <trkpt lat="43.47175" lon="6.29796">
        <ele>170</ele>
        <time>2023-04-28T12:36:51Z</time>
      </trkpt>
      <trkpt lat="43.47176" lon="6.29796">
        <ele>170</ele>
        <time>2023-04-28T12:36:52Z</time>
      </trkpt>
      <trkpt lat="43.47177" lon="6.29796">
        <ele>170</ele>
        <time>2023-04-28T12:36:53Z</time>
      </trkpt>
      <trkpt lat="43.47179" lon="6.29796">
        <ele>170</ele>
        <time>2023-04-28T12:36:54Z</time>
      </trkpt>
      <trkpt lat="43.47182" lon="6.29795">
        <ele>170</ele>
        <time>2023-04-28T12:36:55Z</time>
      </trkpt>
      <trkpt lat="43.47183" lon="6.29795">
        <ele>170</ele>
        <time>2023-04-28T12:36:56Z</time>
      </trkpt>
      <trkpt lat="43.47185" lon="6.29795">
        <ele>170</ele>
        <time>2023-04-28T12:36:57Z</time>
      </trkpt>
      <trkpt lat="43.47186" lon="6.29795">
        <ele>171</ele>
        <time>2023-04-28T12:36:58Z</time>
      </trkpt>
      <trkpt lat="43.47187" lon="6.29796">
        <ele>171</ele>
        <time>2023-04-28T12:36:59Z</time>
      </trkpt>
      <trkpt lat="43.47188" lon="6.29796">
        <ele>171</ele>
        <time>2023-04-28T12:37:00Z</time>
      </trkpt>
      <trkpt lat="43.4719" lon="6.29796">
        <ele>171</ele>
        <time>2023-04-28T12:37:01Z</time>
      </trkpt>
      <trkpt lat="43.47191" lon="6.29796">
        <ele>171</ele>
        <time>2023-04-28T12:37:02Z</time>
      </trkpt>
      <trkpt lat="43.47192" lon="6.29797">
        <ele>171</ele>
        <time>2023-04-28T12:37:03Z</time>
      </trkpt>
      <trkpt lat="43.47192" lon="6.29797">
        <ele>172</ele>
        <time>2023-04-28T12:37:04Z</time>
      </trkpt>
      <trkpt lat="43.47193" lon="6.29797">
        <ele>172</ele>
        <time>2023-04-28T12:37:05Z</time>
      </trkpt>
      <trkpt lat="43.47193" lon="6.29797">
        <ele>172</ele>
        <time>2023-04-28T12:37:06Z</time>
      </trkpt>
      <trkpt lat="43.47194" lon="6.29797">
        <ele>172</ele>
        <time>2023-04-28T12:37:07Z</time>
      </trkpt>
      <trkpt lat="43.47194" lon="6.29797">
        <ele>172</ele>
        <time>2023-04-28T12:37:08Z</time>
      </trkpt>
      <trkpt lat="43.47194" lon="6.29797">
        <ele>172</ele>
        <time>2023-04-28T12:37:09Z</time>
      </trkpt>
      <trkpt lat="43.47195" lon="6.29797">
        <ele>172</ele>
        <time>2023-04-28T12:37:10Z</time>
      </trkpt>
      <trkpt lat="43.47196" lon="6.29797">
        <ele>172</ele>
        <time>2023-04-28T12:37:11Z</time>
      </trkpt>
      <trkpt lat="43.47197" lon="6.29797">
        <ele>172</ele>
        <time>2023-04-28T12:37:12Z</time>
      </trkpt>
      <trkpt lat="43.47198" lon="6.29797">
        <ele>172</ele>
        <time>2023-04-28T12:37:13Z</time>
      </trkpt>
      <trkpt lat="43.472" lon="6.29798">
        <ele>172</ele>
        <time>2023-04-28T12:37:14Z</time>
      </trkpt>
      <trkpt lat="43.47203" lon="6.29798">
        <ele>172</ele>
        <time>2023-04-28T12:37:15Z</time>
      </trkpt>
      <trkpt lat="43.47205" lon="6.29799">
        <ele>172</ele>
        <time>2023-04-28T12:37:16Z</time>
      </trkpt>
      <trkpt lat="43.47207" lon="6.29799">
        <ele>172</ele>
        <time>2023-04-28T12:37:17Z</time>
      </trkpt>
      <trkpt lat="43.47208" lon="6.29799">
        <ele>172</ele>
        <time>2023-04-28T12:37:18Z</time>
      </trkpt>
      <trkpt lat="43.47209" lon="6.298">
        <ele>172</ele>
        <time>2023-04-28T12:37:19Z</time>
      </trkpt>
      <trkpt lat="43.47211" lon="6.298">
        <ele>172</ele>
        <time>2023-04-28T12:37:20Z</time>
      </trkpt>
      <trkpt lat="43.47212" lon="6.298">
        <ele>172</ele>
        <time>2023-04-28T12:37:21Z</time>
      </trkpt>
      <trkpt lat="43.47213" lon="6.298">
        <ele>172</ele>
        <time>2023-04-28T12:37:22Z</time>
      </trkpt>
      <trkpt lat="43.47214" lon="6.298">
        <ele>172</ele>
        <time>2023-04-28T12:37:23Z</time>
      </trkpt>
      <trkpt lat="43.47215" lon="6.298">
        <ele>171</ele>
        <time>2023-04-28T12:37:24Z</time>
      </trkpt>
      <trkpt lat="43.47216" lon="6.298">
        <ele>171</ele>
        <time>2023-04-28T12:37:25Z</time>
      </trkpt>
      <trkpt lat="43.47217" lon="6.298">
        <ele>170</ele>
        <time>2023-04-28T12:37:26Z</time>
      </trkpt>
      <trkpt lat="43.47218" lon="6.298">
        <ele>170</ele>
        <time>2023-04-28T12:37:27Z</time>
      </trkpt>
      <trkpt lat="43.47219" lon="6.29799">
        <ele>170</ele>
        <time>2023-04-28T12:37:28Z</time>
      </trkpt>
      <trkpt lat="43.4722" lon="6.29799">
        <ele>170</ele>
        <time>2023-04-28T12:37:29Z</time>
      </trkpt>
      <trkpt lat="43.47222" lon="6.29801">
        <ele>170</ele>
        <time>2023-04-28T12:37:30Z</time>
      </trkpt>
      <trkpt lat="43.47223" lon="6.29802">
        <ele>169</ele>
        <time>2023-04-28T12:37:31Z</time>
      </trkpt>
      <trkpt lat="43.47224" lon="6.29803">
        <ele>169</ele>
        <time>2023-04-28T12:37:32Z</time>
      </trkpt>
      <trkpt lat="43.47225" lon="6.29801">
        <ele>168</ele>
        <time>2023-04-28T12:37:33Z</time>
      </trkpt>
      <trkpt lat="43.47226" lon="6.298">
        <ele>168</ele>
        <time>2023-04-28T12:37:34Z</time>
      </trkpt>
      <trkpt lat="43.47226" lon="6.29799">
        <ele>168</ele>
        <time>2023-04-28T12:37:35Z</time>
      </trkpt>
      <trkpt lat="43.47227" lon="6.29799">
        <ele>168</ele>
        <time>2023-04-28T12:37:36Z</time>
      </trkpt>
      <trkpt lat="43.47228" lon="6.29798">
        <ele>168</ele>
        <time>2023-04-28T12:37:37Z</time>
      </trkpt>
      <trkpt lat="43.4723" lon="6.29798">
        <ele>168</ele>
        <time>2023-04-28T12:37:38Z</time>
      </trkpt>
      <trkpt lat="43.47231" lon="6.29799">
        <ele>168</ele>
        <time>2023-04-28T12:37:39Z</time>
      </trkpt>
      <trkpt lat="43.47232" lon="6.29799">
        <ele>167</ele>
        <time>2023-04-28T12:37:40Z</time>
      </trkpt>
      <trkpt lat="43.47233" lon="6.298">
        <ele>167</ele>
        <time>2023-04-28T12:37:41Z</time>
      </trkpt>
      <trkpt lat="43.47234" lon="6.298">
        <ele>167</ele>
        <time>2023-04-28T12:37:42Z</time>
      </trkpt>
      <trkpt lat="43.47236" lon="6.298">
        <ele>167</ele>
        <time>2023-04-28T12:37:43Z</time>
      </trkpt>
      <trkpt lat="43.47237" lon="6.298">
        <ele>167</ele>
        <time>2023-04-28T12:37:44Z</time>
      </trkpt>
      <trkpt lat="43.47239" lon="6.298">
        <ele>166</ele>
        <time>2023-04-28T12:37:45Z</time>
      </trkpt>
      <trkpt lat="43.4724" lon="6.298">
        <ele>166</ele>
        <time>2023-04-28T12:37:46Z</time>
      </trkpt>
      <trkpt lat="43.47242" lon="6.29801">
        <ele>165</ele>
        <time>2023-04-28T12:37:47Z</time>
      </trkpt>
      <trkpt lat="43.47243" lon="6.29801">
        <ele>164</ele>
        <time>2023-04-28T12:37:48Z</time>
      </trkpt>
      <trkpt lat="43.47245" lon="6.298">
        <ele>164</ele>
        <time>2023-04-28T12:37:49Z</time>
      </trkpt>
      <trkpt lat="43.47246" lon="6.298">
        <ele>163</ele>
        <time>2023-04-28T12:37:50Z</time>
      </trkpt>
      <trkpt lat="43.47247" lon="6.298">
        <ele>163</ele>
        <time>2023-04-28T12:37:51Z</time>
      </trkpt>
      <trkpt lat="43.47249" lon="6.298">
        <ele>163</ele>
        <time>2023-04-28T12:37:52Z</time>
      </trkpt>
      <trkpt lat="43.4725" lon="6.298">
        <ele>163</ele>
        <time>2023-04-28T12:37:53Z</time>
      </trkpt>
      <trkpt lat="43.47251" lon="6.29799">
        <ele>163</ele>
        <time>2023-04-28T12:37:54Z</time>
      </trkpt>
      <trkpt lat="43.47252" lon="6.29799">
        <ele>162</ele>
        <time>2023-04-28T12:37:55Z</time>
      </trkpt>
      <trkpt lat="43.47254" lon="6.29799">
        <ele>162</ele>
        <time>2023-04-28T12:37:56Z</time>
      </trkpt>
      <trkpt lat="43.47255" lon="6.29799">
        <ele>162</ele>
        <time>2023-04-28T12:37:57Z</time>
      </trkpt>
      <trkpt lat="43.47256" lon="6.29799">
        <ele>162</ele>
        <time>2023-04-28T12:37:58Z</time>
      </trkpt>
      <trkpt lat="43.47258" lon="6.29799">
        <ele>161</ele>
        <time>2023-04-28T12:37:59Z</time>
      </trkpt>
      <trkpt lat="43.47259" lon="6.29799">
        <ele>161</ele>
        <time>2023-04-28T12:38:00Z</time>
      </trkpt>
      <trkpt lat="43.4726" lon="6.29799">
        <ele>159</ele>
        <time>2023-04-28T12:38:01Z</time>
      </trkpt>
      <trkpt lat="43.47261" lon="6.29798">
        <ele>159</ele>
        <time>2023-04-28T12:38:02Z</time>
      </trkpt>
      <trkpt lat="43.47262" lon="6.29798">
        <ele>159</ele>
        <time>2023-04-28T12:38:03Z</time>
      </trkpt>
      <trkpt lat="43.47263" lon="6.29798">
        <ele>158</ele>
        <time>2023-04-28T12:38:04Z</time>
      </trkpt>
      <trkpt lat="43.47264" lon="6.29798">
        <ele>158</ele>
        <time>2023-04-28T12:38:05Z</time>
      </trkpt>
      <trkpt lat="43.47265" lon="6.29797">
        <ele>159</ele>
        <time>2023-04-28T12:38:06Z</time>
      </trkpt>
      <trkpt lat="43.47266" lon="6.29797">
        <ele>159</ele>
        <time>2023-04-28T12:38:07Z</time>
      </trkpt>
      <trkpt lat="43.47268" lon="6.29797">
        <ele>159</ele>
        <time>2023-04-28T12:38:08Z</time>
      </trkpt>
      <trkpt lat="43.47269" lon="6.29797">
        <ele>159</ele>
        <time>2023-04-28T12:38:09Z</time>
      </trkpt>
      <trkpt lat="43.4727" lon="6.29797">
        <ele>159</ele>
        <time>2023-04-28T12:38:10Z</time>
      </trkpt>
      <trkpt lat="43.47271" lon="6.29797">
        <ele>159</ele>
        <time>2023-04-28T12:38:11Z</time>
      </trkpt>
      <trkpt lat="43.47272" lon="6.29797">
        <ele>159</ele>
        <time>2023-04-28T12:38:12Z</time>
      </trkpt>
      <trkpt lat="43.47273" lon="6.29797">
        <ele>159</ele>
        <time>2023-04-28T12:38:13Z</time>
      </trkpt>
      <trkpt lat="43.47275" lon="6.29797">
        <ele>159</ele>
        <time>2023-04-28T12:38:14Z</time>
      </trkpt>
      <trkpt lat="43.47275" lon="6.29798">
        <ele>159</ele>
        <time>2023-04-28T12:38:15Z</time>
      </trkpt>
      <trkpt lat="43.47276" lon="6.29799">
        <ele>159</ele>
        <time>2023-04-28T12:38:16Z</time>
      </trkpt>
      <trkpt lat="43.47276" lon="6.29801">
        <ele>160</ele>
        <time>2023-04-28T12:38:17Z</time>
      </trkpt>
      <trkpt lat="43.47277" lon="6.29802">
        <ele>160</ele>
        <time>2023-04-28T12:38:18Z</time>
      </trkpt>
      <trkpt lat="43.47277" lon="6.29803">
        <ele>160</ele>
        <time>2023-04-28T12:38:19Z</time>
      </trkpt>
      <trkpt lat="43.47278" lon="6.29804">
        <ele>160</ele>
        <time>2023-04-28T12:38:20Z</time>
      </trkpt>
      <trkpt lat="43.47279" lon="6.29805">
        <ele>161</ele>
        <time>2023-04-28T12:38:21Z</time>
      </trkpt>
      <trkpt lat="43.4728" lon="6.29806">
        <ele>162</ele>
        <time>2023-04-28T12:38:22Z</time>
      </trkpt>
      <trkpt lat="43.47281" lon="6.29806">
        <ele>162</ele>
        <time>2023-04-28T12:38:23Z</time>
      </trkpt>
      <trkpt lat="43.47282" lon="6.29807">
        <ele>162</ele>
        <time>2023-04-28T12:38:24Z</time>
      </trkpt>
      <trkpt lat="43.47283" lon="6.29807">
        <ele>162</ele>
        <time>2023-04-28T12:38:25Z</time>
      </trkpt>
      <trkpt lat="43.47284" lon="6.29808">
        <ele>163</ele>
        <time>2023-04-28T12:38:26Z</time>
      </trkpt>
      <trkpt lat="43.47285" lon="6.29808">
        <ele>163</ele>
        <time>2023-04-28T12:38:27Z</time>
      </trkpt>
      <trkpt lat="43.47287" lon="6.29808">
        <ele>163</ele>
        <time>2023-04-28T12:38:28Z</time>
      </trkpt>
      <trkpt lat="43.47288" lon="6.29808">
        <ele>163</ele>
        <time>2023-04-28T12:38:29Z</time>
      </trkpt>
      <trkpt lat="43.47288" lon="6.29808">
        <ele>163</ele>
        <time>2023-04-28T12:38:30Z</time>
      </trkpt>
      <trkpt lat="43.47289" lon="6.29809">
        <ele>164</ele>
        <time>2023-04-28T12:38:31Z</time>
      </trkpt>
      <trkpt lat="43.4729" lon="6.29809">
        <ele>164</ele>
        <time>2023-04-28T12:38:32Z</time>
      </trkpt>
      <trkpt lat="43.47291" lon="6.29809">
        <ele>164</ele>
        <time>2023-04-28T12:38:33Z</time>
      </trkpt>
      <trkpt lat="43.47292" lon="6.29809">
        <ele>164</ele>
        <time>2023-04-28T12:38:34Z</time>
      </trkpt>
      <trkpt lat="43.47293" lon="6.29809">
        <ele>164</ele>
        <time>2023-04-28T12:38:35Z</time>
      </trkpt>
      <trkpt lat="43.47294" lon="6.29809">
        <ele>164</ele>
        <time>2023-04-28T12:38:36Z</time>
      </trkpt>
      <trkpt lat="43.47295" lon="6.29809">
        <ele>164</ele>
        <time>2023-04-28T12:38:37Z</time>
      </trkpt>
      <trkpt lat="43.47295" lon="6.29809">
        <ele>164</ele>
        <time>2023-04-28T12:38:38Z</time>
      </trkpt>
      <trkpt lat="43.47296" lon="6.29809">
        <ele>164</ele>
        <time>2023-04-28T12:38:39Z</time>
      </trkpt>
      <trkpt lat="43.47297" lon="6.29809">
        <ele>164</ele>
        <time>2023-04-28T12:38:40Z</time>
      </trkpt>
      <trkpt lat="43.47298" lon="6.29809">
        <ele>164</ele>
        <time>2023-04-28T12:38:41Z</time>
      </trkpt>
      <trkpt lat="43.47299" lon="6.29809">
        <ele>164</ele>
        <time>2023-04-28T12:38:42Z</time>
      </trkpt>
      <trkpt lat="43.473" lon="6.2981">
        <ele>164</ele>
        <time>2023-04-28T12:38:43Z</time>
      </trkpt>
      <trkpt lat="43.47301" lon="6.2981">
        <ele>164</ele>
        <time>2023-04-28T12:38:44Z</time>
      </trkpt>
      <trkpt lat="43.47302" lon="6.2981">
        <ele>164</ele>
        <time>2023-04-28T12:38:45Z</time>
      </trkpt>
      <trkpt lat="43.47303" lon="6.29811">
        <ele>164</ele>
        <time>2023-04-28T12:38:46Z</time>
      </trkpt>
      <trkpt lat="43.47304" lon="6.29811">
        <ele>164</ele>
        <time>2023-04-28T12:38:47Z</time>
      </trkpt>
      <trkpt lat="43.47305" lon="6.29811">
        <ele>164</ele>
        <time>2023-04-28T12:38:48Z</time>
      </trkpt>
      <trkpt lat="43.47306" lon="6.29811">
        <ele>164</ele>
        <time>2023-04-28T12:38:49Z</time>
      </trkpt>
      <trkpt lat="43.47307" lon="6.29811">
        <ele>164</ele>
        <time>2023-04-28T12:38:50Z</time>
      </trkpt>
      <trkpt lat="43.47308" lon="6.29811">
        <ele>163</ele>
        <time>2023-04-28T12:38:51Z</time>
      </trkpt>
      <trkpt lat="43.47309" lon="6.29811">
        <ele>163</ele>
        <time>2023-04-28T12:38:52Z</time>
      </trkpt>
      <trkpt lat="43.47311" lon="6.29811">
        <ele>163</ele>
        <time>2023-04-28T12:38:53Z</time>
      </trkpt>
      <trkpt lat="43.47312" lon="6.29812">
        <ele>163</ele>
        <time>2023-04-28T12:38:54Z</time>
      </trkpt>
      <trkpt lat="43.47313" lon="6.29812">
        <ele>163</ele>
        <time>2023-04-28T12:38:55Z</time>
      </trkpt>
      <trkpt lat="43.47314" lon="6.29812">
        <ele>164</ele>
        <time>2023-04-28T12:38:56Z</time>
      </trkpt>
      <trkpt lat="43.47315" lon="6.29812">
        <ele>164</ele>
        <time>2023-04-28T12:38:57Z</time>
      </trkpt>
      <trkpt lat="43.47317" lon="6.29812">
        <ele>164</ele>
        <time>2023-04-28T12:38:58Z</time>
      </trkpt>
      <trkpt lat="43.47318" lon="6.29812">
        <ele>164</ele>
        <time>2023-04-28T12:38:59Z</time>
      </trkpt>
      <trkpt lat="43.47319" lon="6.29812">
        <ele>164</ele>
        <time>2023-04-28T12:39:00Z</time>
      </trkpt>
      <trkpt lat="43.4732" lon="6.29812">
        <ele>164</ele>
        <time>2023-04-28T12:39:01Z</time>
      </trkpt>
      <trkpt lat="43.47321" lon="6.29812">
        <ele>164</ele>
        <time>2023-04-28T12:39:02Z</time>
      </trkpt>
      <trkpt lat="43.47322" lon="6.29812">
        <ele>164</ele>
        <time>2023-04-28T12:39:03Z</time>
      </trkpt>
      <trkpt lat="43.47323" lon="6.29812">
        <ele>164</ele>
        <time>2023-04-28T12:39:04Z</time>
      </trkpt>
      <trkpt lat="43.47324" lon="6.29812">
        <ele>163</ele>
        <time>2023-04-28T12:39:05Z</time>
      </trkpt>
      <trkpt lat="43.47325" lon="6.29812">
        <ele>163</ele>
        <time>2023-04-28T12:39:06Z</time>
      </trkpt>
      <trkpt lat="43.47326" lon="6.29812">
        <ele>163</ele>
        <time>2023-04-28T12:39:07Z</time>
      </trkpt>
      <trkpt lat="43.47327" lon="6.29812">
        <ele>163</ele>
        <time>2023-04-28T12:39:08Z</time>
      </trkpt>
      <trkpt lat="43.47328" lon="6.29811">
        <ele>162</ele>
        <time>2023-04-28T12:39:09Z</time>
      </trkpt>
      <trkpt lat="43.47329" lon="6.29811">
        <ele>161</ele>
        <time>2023-04-28T12:39:10Z</time>
      </trkpt>
      <trkpt lat="43.47329" lon="6.29809">
        <ele>160</ele>
        <time>2023-04-28T12:39:11Z</time>
      </trkpt>
      <trkpt lat="43.47329" lon="6.29808">
        <ele>160</ele>
        <time>2023-04-28T12:39:12Z</time>
      </trkpt>
      <trkpt lat="43.47329" lon="6.29807">
        <ele>160</ele>
        <time>2023-04-28T12:39:13Z</time>
      </trkpt>
      <trkpt lat="43.47328" lon="6.29807">
        <ele>160</ele>
        <time>2023-04-28T12:39:14Z</time>
      </trkpt>
      <trkpt lat="43.47328" lon="6.29806">
        <ele>160</ele>
        <time>2023-04-28T12:39:15Z</time>
      </trkpt>
      <trkpt lat="43.47328" lon="6.29806">
        <ele>160</ele>
        <time>2023-04-28T12:39:16Z</time>
      </trkpt>
      <trkpt lat="43.47328" lon="6.29806">
        <ele>160</ele>
        <time>2023-04-28T12:39:17Z</time>
      </trkpt>
      <trkpt lat="43.47329" lon="6.29806">
        <ele>160</ele>
        <time>2023-04-28T12:39:18Z</time>
      </trkpt>
      <trkpt lat="43.47329" lon="6.29806">
        <ele>160</ele>
        <time>2023-04-28T12:39:19Z</time>
      </trkpt>
      <trkpt lat="43.4733" lon="6.29806">
        <ele>160</ele>
        <time>2023-04-28T12:39:20Z</time>
      </trkpt>
      <trkpt lat="43.47331" lon="6.29806">
        <ele>159</ele>
        <time>2023-04-28T12:39:21Z</time>
      </trkpt>
      <trkpt lat="43.47333" lon="6.29807">
        <ele>159</ele>
        <time>2023-04-28T12:39:22Z</time>
      </trkpt>
      <trkpt lat="43.47334" lon="6.29808">
        <ele>159</ele>
        <time>2023-04-28T12:39:23Z</time>
      </trkpt>
      <trkpt lat="43.47335" lon="6.29809">
        <ele>159</ele>
        <time>2023-04-28T12:39:24Z</time>
      </trkpt>
      <trkpt lat="43.47336" lon="6.29809">
        <ele>160</ele>
        <time>2023-04-28T12:39:25Z</time>
      </trkpt>
      <trkpt lat="43.47337" lon="6.2981">
        <ele>160</ele>
        <time>2023-04-28T12:39:26Z</time>
      </trkpt>
      <trkpt lat="43.47338" lon="6.2981">
        <ele>160</ele>
        <time>2023-04-28T12:39:27Z</time>
      </trkpt>
      <trkpt lat="43.47339" lon="6.29811">
        <ele>160</ele>
        <time>2023-04-28T12:39:28Z</time>
      </trkpt>
      <trkpt lat="43.4734" lon="6.29811">
        <ele>160</ele>
        <time>2023-04-28T12:39:29Z</time>
      </trkpt>
      <trkpt lat="43.47341" lon="6.29812">
        <ele>161</ele>
        <time>2023-04-28T12:39:30Z</time>
      </trkpt>
      <trkpt lat="43.47342" lon="6.29812">
        <ele>161</ele>
        <time>2023-04-28T12:39:31Z</time>
      </trkpt>
      <trkpt lat="43.47343" lon="6.29812">
        <ele>162</ele>
        <time>2023-04-28T12:39:32Z</time>
      </trkpt>
      <trkpt lat="43.47344" lon="6.29812">
        <ele>162</ele>
        <time>2023-04-28T12:39:33Z</time>
      </trkpt>
      <trkpt lat="43.47345" lon="6.29812">
        <ele>162</ele>
        <time>2023-04-28T12:39:34Z</time>
      </trkpt>
      <trkpt lat="43.47346" lon="6.29812">
        <ele>163</ele>
        <time>2023-04-28T12:39:35Z</time>
      </trkpt>
      <trkpt lat="43.47347" lon="6.29812">
        <ele>163</ele>
        <time>2023-04-28T12:39:36Z</time>
      </trkpt>
      <trkpt lat="43.47347" lon="6.29813">
        <ele>163</ele>
        <time>2023-04-28T12:39:37Z</time>
      </trkpt>
      <trkpt lat="43.47348" lon="6.29813">
        <ele>162</ele>
        <time>2023-04-28T12:39:38Z</time>
      </trkpt>
      <trkpt lat="43.47349" lon="6.29813">
        <ele>162</ele>
        <time>2023-04-28T12:39:39Z</time>
      </trkpt>
      <trkpt lat="43.4735" lon="6.29814">
        <ele>162</ele>
        <time>2023-04-28T12:39:40Z</time>
      </trkpt>
      <trkpt lat="43.4735" lon="6.29814">
        <ele>162</ele>
        <time>2023-04-28T12:39:41Z</time>
      </trkpt>
      <trkpt lat="43.47351" lon="6.29814">
        <ele>162</ele>
        <time>2023-04-28T12:39:42Z</time>
      </trkpt>
      <trkpt lat="43.47351" lon="6.29814">
        <ele>162</ele>
        <time>2023-04-28T12:39:43Z</time>
      </trkpt>
      <trkpt lat="43.47352" lon="6.29815">
        <ele>162</ele>
        <time>2023-04-28T12:39:44Z</time>
      </trkpt>
      <trkpt lat="43.47353" lon="6.29815">
        <ele>162</ele>
        <time>2023-04-28T12:39:45Z</time>
      </trkpt>
      <trkpt lat="43.47353" lon="6.29816">
        <ele>162</ele>
        <time>2023-04-28T12:39:46Z</time>
      </trkpt>
      <trkpt lat="43.47353" lon="6.29816">
        <ele>162</ele>
        <time>2023-04-28T12:39:47Z</time>
      </trkpt>
      <trkpt lat="43.47354" lon="6.29816">
        <ele>162</ele>
        <time>2023-04-28T12:39:48Z</time>
      </trkpt>
      <trkpt lat="43.47354" lon="6.29816">
        <ele>162</ele>
        <time>2023-04-28T12:39:49Z</time>
      </trkpt>
      <trkpt lat="43.47354" lon="6.29816">
        <ele>162</ele>
        <time>2023-04-28T12:39:50Z</time>
      </trkpt>
      <trkpt lat="43.47355" lon="6.29816">
        <ele>162</ele>
        <time>2023-04-28T12:39:51Z</time>
      </trkpt>
      <trkpt lat="43.47355" lon="6.29816">
        <ele>162</ele>
        <time>2023-04-28T12:39:52Z</time>
      </trkpt>
      <trkpt lat="43.47355" lon="6.29816">
        <ele>162</ele>
        <time>2023-04-28T12:39:53Z</time>
      </trkpt>
      <trkpt lat="43.47356" lon="6.29816">
        <ele>162</ele>
        <time>2023-04-28T12:39:54Z</time>
      </trkpt>
      <trkpt lat="43.47356" lon="6.29816">
        <ele>162</ele>
        <time>2023-04-28T12:39:55Z</time>
      </trkpt>
      <trkpt lat="43.47356" lon="6.29816">
        <ele>162</ele>
        <time>2023-04-28T12:39:56Z</time>
      </trkpt>
      <trkpt lat="43.47356" lon="6.29816">
        <ele>162</ele>
        <time>2023-04-28T12:39:57Z</time>
      </trkpt>
      <trkpt lat="43.47357" lon="6.29816">
        <ele>162</ele>
        <time>2023-04-28T12:39:58Z</time>
      </trkpt>
      <trkpt lat="43.47357" lon="6.29816">
        <ele>162</ele>
        <time>2023-04-28T12:39:59Z</time>
      </trkpt>
      <trkpt lat="43.47357" lon="6.29815">
        <ele>162</ele>
        <time>2023-04-28T12:40:00Z</time>
      </trkpt>
      <trkpt lat="43.47357" lon="6.29814">
        <ele>162</ele>
        <time>2023-04-28T12:40:01Z</time>
      </trkpt>
      <trkpt lat="43.47356" lon="6.29813">
        <ele>162</ele>
        <time>2023-04-28T12:40:02Z</time>
      </trkpt>
      <trkpt lat="43.47356" lon="6.29813">
        <ele>162</ele>
        <time>2023-04-28T12:40:03Z</time>
      </trkpt>
      <trkpt lat="43.47356" lon="6.29812">
        <ele>162</ele>
        <time>2023-04-28T12:40:04Z</time>
      </trkpt>
      <trkpt lat="43.47355" lon="6.29812">
        <ele>162</ele>
        <time>2023-04-28T12:40:05Z</time>
      </trkpt>
      <trkpt lat="43.47355" lon="6.29812">
        <ele>162</ele>
        <time>2023-04-28T12:40:06Z</time>
      </trkpt>
      <trkpt lat="43.47355" lon="6.29812">
        <ele>162</ele>
        <time>2023-04-28T12:40:07Z</time>
      </trkpt>
      <trkpt lat="43.47354" lon="6.29812">
        <ele>162</ele>
        <time>2023-04-28T12:40:08Z</time>
      </trkpt>
      <trkpt lat="43.47354" lon="6.29811">
        <ele>162</ele>
        <time>2023-04-28T12:40:09Z</time>
      </trkpt>
      <trkpt lat="43.47353" lon="6.29811">
        <ele>162</ele>
        <time>2023-04-28T12:40:10Z</time>
      </trkpt>
      <trkpt lat="43.47353" lon="6.29811">
        <ele>162</ele>
        <time>2023-04-28T12:40:11Z</time>
      </trkpt>
      <trkpt lat="43.47353" lon="6.29811">
        <ele>162</ele>
        <time>2023-04-28T12:40:12Z</time>
      </trkpt>
      <trkpt lat="43.47353" lon="6.2981">
        <ele>162</ele>
        <time>2023-04-28T12:40:13Z</time>
      </trkpt>
      <trkpt lat="43.47353" lon="6.2981">
        <ele>162</ele>
        <time>2023-04-28T12:40:14Z</time>
      </trkpt>
      <trkpt lat="43.47353" lon="6.2981">
        <ele>162</ele>
        <time>2023-04-28T12:40:15Z</time>
      </trkpt>
      <trkpt lat="43.47354" lon="6.29811">
        <ele>162</ele>
        <time>2023-04-28T12:40:16Z</time>
      </trkpt>
      <trkpt lat="43.47355" lon="6.29811">
        <ele>162</ele>
        <time>2023-04-28T12:40:17Z</time>
      </trkpt>
      <trkpt lat="43.47355" lon="6.29812">
        <ele>162</ele>
        <time>2023-04-28T12:40:18Z</time>
      </trkpt>
      <trkpt lat="43.47357" lon="6.29812">
        <ele>162</ele>
        <time>2023-04-28T12:40:19Z</time>
      </trkpt>
      <trkpt lat="43.47358" lon="6.29813">
        <ele>162</ele>
        <time>2023-04-28T12:40:20Z</time>
      </trkpt>
      <trkpt lat="43.47358" lon="6.29813">
        <ele>162</ele>
        <time>2023-04-28T12:40:21Z</time>
      </trkpt>
      <trkpt lat="43.4736" lon="6.29814">
        <ele>162</ele>
        <time>2023-04-28T12:40:22Z</time>
      </trkpt>
      <trkpt lat="43.47361" lon="6.29815">
        <ele>162</ele>
        <time>2023-04-28T12:40:23Z</time>
      </trkpt>
      <trkpt lat="43.47362" lon="6.29816">
        <ele>162</ele>
        <time>2023-04-28T12:40:24Z</time>
      </trkpt>
      <trkpt lat="43.47363" lon="6.29817">
        <ele>162</ele>
        <time>2023-04-28T12:40:25Z</time>
      </trkpt>
      <trkpt lat="43.47364" lon="6.29817">
        <ele>162</ele>
        <time>2023-04-28T12:40:26Z</time>
      </trkpt>
      <trkpt lat="43.47365" lon="6.29818">
        <ele>162</ele>
        <time>2023-04-28T12:40:27Z</time>
      </trkpt>
      <trkpt lat="43.47366" lon="6.29819">
        <ele>162</ele>
        <time>2023-04-28T12:40:28Z</time>
      </trkpt>
      <trkpt lat="43.47367" lon="6.29819">
        <ele>162</ele>
        <time>2023-04-28T12:40:29Z</time>
      </trkpt>
      <trkpt lat="43.47368" lon="6.29819">
        <ele>162</ele>
        <time>2023-04-28T12:40:30Z</time>
      </trkpt>
      <trkpt lat="43.47369" lon="6.2982">
        <ele>162</ele>
        <time>2023-04-28T12:40:31Z</time>
      </trkpt>
      <trkpt lat="43.47369" lon="6.2982">
        <ele>162</ele>
        <time>2023-04-28T12:40:32Z</time>
      </trkpt>
      <trkpt lat="43.4737" lon="6.2982">
        <ele>163</ele>
        <time>2023-04-28T12:40:33Z</time>
      </trkpt>
      <trkpt lat="43.47371" lon="6.29821">
        <ele>163</ele>
        <time>2023-04-28T12:40:34Z</time>
      </trkpt>
      <trkpt lat="43.47372" lon="6.29821">
        <ele>163</ele>
        <time>2023-04-28T12:40:35Z</time>
      </trkpt>
      <trkpt lat="43.47372" lon="6.29821">
        <ele>163</ele>
        <time>2023-04-28T12:40:36Z</time>
      </trkpt>
      <trkpt lat="43.47373" lon="6.29822">
        <ele>163</ele>
        <time>2023-04-28T12:40:37Z</time>
      </trkpt>
      <trkpt lat="43.47374" lon="6.29822">
        <ele>163</ele>
        <time>2023-04-28T12:40:38Z</time>
      </trkpt>
      <trkpt lat="43.47374" lon="6.29823">
        <ele>163</ele>
        <time>2023-04-28T12:40:39Z</time>
      </trkpt>
      <trkpt lat="43.47375" lon="6.29823">
        <ele>163</ele>
        <time>2023-04-28T12:40:40Z</time>
      </trkpt>
      <trkpt lat="43.47375" lon="6.29823">
        <ele>164</ele>
        <time>2023-04-28T12:40:41Z</time>
      </trkpt>
      <trkpt lat="43.47376" lon="6.29824">
        <ele>164</ele>
        <time>2023-04-28T12:40:42Z</time>
      </trkpt>
      <trkpt lat="43.47376" lon="6.29824">
        <ele>164</ele>
        <time>2023-04-28T12:40:43Z</time>
      </trkpt>
      <trkpt lat="43.47377" lon="6.29825">
        <ele>164</ele>
        <time>2023-04-28T12:40:44Z</time>
      </trkpt>
      <trkpt lat="43.47378" lon="6.29825">
        <ele>164</ele>
        <time>2023-04-28T12:40:45Z</time>
      </trkpt>
      <trkpt lat="43.47378" lon="6.29825">
        <ele>164</ele>
        <time>2023-04-28T12:40:46Z</time>
      </trkpt>
      <trkpt lat="43.47379" lon="6.29826">
        <ele>164</ele>
        <time>2023-04-28T12:40:47Z</time>
      </trkpt>
      <trkpt lat="43.4738" lon="6.29826">
        <ele>165</ele>
        <time>2023-04-28T12:40:48Z</time>
      </trkpt>
      <trkpt lat="43.47381" lon="6.29827">
        <ele>165</ele>
        <time>2023-04-28T12:40:49Z</time>
      </trkpt>
      <trkpt lat="43.47381" lon="6.29827">
        <ele>165</ele>
        <time>2023-04-28T12:40:50Z</time>
      </trkpt>
      <trkpt lat="43.47382" lon="6.29829">
        <ele>165</ele>
        <time>2023-04-28T12:40:51Z</time>
      </trkpt>
      <trkpt lat="43.47382" lon="6.2983">
        <ele>165</ele>
        <time>2023-04-28T12:40:52Z</time>
      </trkpt>
      <trkpt lat="43.47383" lon="6.29831">
        <ele>165</ele>
        <time>2023-04-28T12:40:53Z</time>
      </trkpt>
      <trkpt lat="43.47383" lon="6.29833">
        <ele>165</ele>
        <time>2023-04-28T12:40:54Z</time>
      </trkpt>
      <trkpt lat="43.47384" lon="6.29834">
        <ele>165</ele>
        <time>2023-04-28T12:40:55Z</time>
      </trkpt>
      <trkpt lat="43.47385" lon="6.29835">
        <ele>165</ele>
        <time>2023-04-28T12:40:56Z</time>
      </trkpt>
      <trkpt lat="43.47386" lon="6.29836">
        <ele>165</ele>
        <time>2023-04-28T12:40:57Z</time>
      </trkpt>
      <trkpt lat="43.47387" lon="6.29837">
        <ele>165</ele>
        <time>2023-04-28T12:40:58Z</time>
      </trkpt>
      <trkpt lat="43.47389" lon="6.29838">
        <ele>166</ele>
        <time>2023-04-28T12:40:59Z</time>
      </trkpt>
      <trkpt lat="43.4739" lon="6.29839">
        <ele>166</ele>
        <time>2023-04-28T12:41:00Z</time>
      </trkpt>
      <trkpt lat="43.47391" lon="6.29839">
        <ele>166</ele>
        <time>2023-04-28T12:41:01Z</time>
      </trkpt>
      <trkpt lat="43.47392" lon="6.2984">
        <ele>166</ele>
        <time>2023-04-28T12:41:02Z</time>
      </trkpt>
      <trkpt lat="43.47393" lon="6.2984">
        <ele>166</ele>
        <time>2023-04-28T12:41:03Z</time>
      </trkpt>
      <trkpt lat="43.47394" lon="6.2984">
        <ele>166</ele>
        <time>2023-04-28T12:41:04Z</time>
      </trkpt>
      <trkpt lat="43.47395" lon="6.2984">
        <ele>166</ele>
        <time>2023-04-28T12:41:05Z</time>
      </trkpt>
      <trkpt lat="43.47396" lon="6.29841">
        <ele>166</ele>
        <time>2023-04-28T12:41:06Z</time>
      </trkpt>
      <trkpt lat="43.47397" lon="6.29841">
        <ele>166</ele>
        <time>2023-04-28T12:41:07Z</time>
      </trkpt>
      <trkpt lat="43.47398" lon="6.29841">
        <ele>166</ele>
        <time>2023-04-28T12:41:08Z</time>
      </trkpt>
      <trkpt lat="43.47399" lon="6.29842">
        <ele>166</ele>
        <time>2023-04-28T12:41:09Z</time>
      </trkpt>
      <trkpt lat="43.47399" lon="6.29842">
        <ele>166</ele>
        <time>2023-04-28T12:41:10Z</time>
      </trkpt>
      <trkpt lat="43.474" lon="6.29843">
        <ele>166</ele>
        <time>2023-04-28T12:41:11Z</time>
      </trkpt>
      <trkpt lat="43.47402" lon="6.29843">
        <ele>166</ele>
        <time>2023-04-28T12:41:12Z</time>
      </trkpt>
      <trkpt lat="43.47403" lon="6.29843">
        <ele>166</ele>
        <time>2023-04-28T12:41:13Z</time>
      </trkpt>
      <trkpt lat="43.47403" lon="6.29844">
        <ele>166</ele>
        <time>2023-04-28T12:41:14Z</time>
      </trkpt>
      <trkpt lat="43.47404" lon="6.29845">
        <ele>166</ele>
        <time>2023-04-28T12:41:15Z</time>
      </trkpt>
      <trkpt lat="43.47405" lon="6.29845">
        <ele>166</ele>
        <time>2023-04-28T12:41:16Z</time>
      </trkpt>
      <trkpt lat="43.47405" lon="6.29846">
        <ele>167</ele>
        <time>2023-04-28T12:41:17Z</time>
      </trkpt>
      <trkpt lat="43.47406" lon="6.29846">
        <ele>167</ele>
        <time>2023-04-28T12:41:18Z</time>
      </trkpt>
      <trkpt lat="43.47407" lon="6.29847">
        <ele>166</ele>
        <time>2023-04-28T12:41:19Z</time>
      </trkpt>
      <trkpt lat="43.47408" lon="6.29847">
        <ele>166</ele>
        <time>2023-04-28T12:41:20Z</time>
      </trkpt>
      <trkpt lat="43.47409" lon="6.29849">
        <ele>166</ele>
        <time>2023-04-28T12:41:21Z</time>
      </trkpt>
      <trkpt lat="43.47409" lon="6.2985">
        <ele>166</ele>
        <time>2023-04-28T12:41:22Z</time>
      </trkpt>
      <trkpt lat="43.4741" lon="6.29851">
        <ele>166</ele>
        <time>2023-04-28T12:41:23Z</time>
      </trkpt>
      <trkpt lat="43.47412" lon="6.29852">
        <ele>166</ele>
        <time>2023-04-28T12:41:24Z</time>
      </trkpt>
      <trkpt lat="43.47413" lon="6.29853">
        <ele>166</ele>
        <time>2023-04-28T12:41:25Z</time>
      </trkpt>
      <trkpt lat="43.47414" lon="6.29853">
        <ele>166</ele>
        <time>2023-04-28T12:41:26Z</time>
      </trkpt>
      <trkpt lat="43.47415" lon="6.29854">
        <ele>166</ele>
        <time>2023-04-28T12:41:27Z</time>
      </trkpt>
      <trkpt lat="43.47416" lon="6.29855">
        <ele>166</ele>
        <time>2023-04-28T12:41:28Z</time>
      </trkpt>
      <trkpt lat="43.47417" lon="6.29855">
        <ele>165</ele>
        <time>2023-04-28T12:41:29Z</time>
      </trkpt>
      <trkpt lat="43.47418" lon="6.29856">
        <ele>165</ele>
        <time>2023-04-28T12:41:30Z</time>
      </trkpt>
      <trkpt lat="43.47418" lon="6.29857">
        <ele>165</ele>
        <time>2023-04-28T12:41:31Z</time>
      </trkpt>
      <trkpt lat="43.47419" lon="6.29857">
        <ele>165</ele>
        <time>2023-04-28T12:41:32Z</time>
      </trkpt>
      <trkpt lat="43.4742" lon="6.29858">
        <ele>165</ele>
        <time>2023-04-28T12:41:33Z</time>
      </trkpt>
      <trkpt lat="43.47421" lon="6.29858">
        <ele>165</ele>
        <time>2023-04-28T12:41:34Z</time>
      </trkpt>
      <trkpt lat="43.47422" lon="6.29858">
        <ele>165</ele>
        <time>2023-04-28T12:41:35Z</time>
      </trkpt>
      <trkpt lat="43.47423" lon="6.29859">
        <ele>165</ele>
        <time>2023-04-28T12:41:36Z</time>
      </trkpt>
      <trkpt lat="43.47423" lon="6.29859">
        <ele>165</ele>
        <time>2023-04-28T12:41:37Z</time>
      </trkpt>
      <trkpt lat="43.47424" lon="6.29859">
        <ele>165</ele>
        <time>2023-04-28T12:41:38Z</time>
      </trkpt>
      <trkpt lat="43.47424" lon="6.29859">
        <ele>165</ele>
        <time>2023-04-28T12:41:39Z</time>
      </trkpt>
      <trkpt lat="43.47425" lon="6.29859">
        <ele>165</ele>
        <time>2023-04-28T12:41:40Z</time>
      </trkpt>
      <trkpt lat="43.47425" lon="6.29858">
        <ele>165</ele>
        <time>2023-04-28T12:41:41Z</time>
      </trkpt>
      <trkpt lat="43.47425" lon="6.29858">
        <ele>165</ele>
        <time>2023-04-28T12:41:42Z</time>
      </trkpt>
      <trkpt lat="43.47425" lon="6.29859">
        <ele>165</ele>
        <time>2023-04-28T12:41:43Z</time>
      </trkpt>
      <trkpt lat="43.47425" lon="6.29859">
        <ele>165</ele>
        <time>2023-04-28T12:41:44Z</time>
      </trkpt>
      <trkpt lat="43.47425" lon="6.29859">
        <ele>165</ele>
        <time>2023-04-28T12:41:45Z</time>
      </trkpt>
      <trkpt lat="43.47425" lon="6.29859">
        <ele>165</ele>
        <time>2023-04-28T12:41:46Z</time>
      </trkpt>
      <trkpt lat="43.47425" lon="6.29859">
        <ele>165</ele>
        <time>2023-04-28T12:41:47Z</time>
      </trkpt>
      <trkpt lat="43.47426" lon="6.29859">
        <ele>165</ele>
        <time>2023-04-28T12:41:48Z</time>
      </trkpt>
      <trkpt lat="43.47426" lon="6.2986">
        <ele>165</ele>
        <time>2023-04-28T12:41:49Z</time>
      </trkpt>
      <trkpt lat="43.47426" lon="6.2986">
        <ele>165</ele>
        <time>2023-04-28T12:41:50Z</time>
      </trkpt>
      <trkpt lat="43.47426" lon="6.2986">
        <ele>165</ele>
        <time>2023-04-28T12:41:51Z</time>
      </trkpt>
      <trkpt lat="43.47426" lon="6.2986">
        <ele>165</ele>
        <time>2023-04-28T12:41:52Z</time>
      </trkpt>
      <trkpt lat="43.47427" lon="6.2986">
        <ele>165</ele>
        <time>2023-04-28T12:41:53Z</time>
      </trkpt>
      <trkpt lat="43.47427" lon="6.2986">
        <ele>165</ele>
        <time>2023-04-28T12:41:54Z</time>
      </trkpt>
      <trkpt lat="43.47427" lon="6.2986">
        <ele>165</ele>
        <time>2023-04-28T12:41:55Z</time>
      </trkpt>
      <trkpt lat="43.47427" lon="6.2986">
        <ele>165</ele>
        <time>2023-04-28T12:41:56Z</time>
      </trkpt>
      <trkpt lat="43.47427" lon="6.2986">
        <ele>166</ele>
        <time>2023-04-28T12:41:57Z</time>
      </trkpt>
      <trkpt lat="43.47427" lon="6.2986">
        <ele>166</ele>
        <time>2023-04-28T12:41:58Z</time>
      </trkpt>
      <trkpt lat="43.47427" lon="6.2986">
        <ele>166</ele>
        <time>2023-04-28T12:41:59Z</time>
      </trkpt>
      <trkpt lat="43.47427" lon="6.2986">
        <ele>166</ele>
        <time>2023-04-28T12:42:00Z</time>
      </trkpt>
      <trkpt lat="43.47427" lon="6.2986">
        <ele>166</ele>
        <time>2023-04-28T12:42:01Z</time>
      </trkpt>
      <trkpt lat="43.47427" lon="6.2986">
        <ele>166</ele>
        <time>2023-04-28T12:42:02Z</time>
      </trkpt>
      <trkpt lat="43.47427" lon="6.2986">
        <ele>166</ele>
        <time>2023-04-28T12:42:03Z</time>
      </trkpt>
      <trkpt lat="43.47427" lon="6.2986">
        <ele>166</ele>
        <time>2023-04-28T12:42:04Z</time>
      </trkpt>
      <trkpt lat="43.47427" lon="6.2986">
        <ele>166</ele>
        <time>2023-04-28T12:42:05Z</time>
      </trkpt>
      <trkpt lat="43.47427" lon="6.2986">
        <ele>166</ele>
        <time>2023-04-28T12:42:06Z</time>
      </trkpt>
      <trkpt lat="43.47427" lon="6.2986">
        <ele>166</ele>
        <time>2023-04-28T12:42:07Z</time>
      </trkpt>
      <trkpt lat="43.47427" lon="6.2986">
        <ele>166</ele>
        <time>2023-04-28T12:42:08Z</time>
      </trkpt>
      <trkpt lat="43.47427" lon="6.2986">
        <ele>166</ele>
        <time>2023-04-28T12:42:09Z</time>
      </trkpt>
      <trkpt lat="43.47427" lon="6.2986">
        <ele>166</ele>
        <time>2023-04-28T12:42:10Z</time>
      </trkpt>
      <trkpt lat="43.47424" lon="6.29862">
        <ele>166</ele>
        <time>2023-04-28T12:42:11Z</time>
      </trkpt>
      <trkpt lat="43.47424" lon="6.29862">
        <ele>166</ele>
        <time>2023-04-28T12:42:12Z</time>
      </trkpt>
      <trkpt lat="43.47425" lon="6.29862">
        <ele>166</ele>
        <time>2023-04-28T12:42:13Z</time>
      </trkpt>
      <trkpt lat="43.47425" lon="6.29862">
        <ele>166</ele>
        <time>2023-04-28T12:42:14Z</time>
      </trkpt>
      <trkpt lat="43.47425" lon="6.29862">
        <ele>166</ele>
        <time>2023-04-28T12:42:15Z</time>
      </trkpt>
      <trkpt lat="43.47425" lon="6.29862">
        <ele>167</ele>
        <time>2023-04-28T12:42:16Z</time>
      </trkpt>
      <trkpt lat="43.47426" lon="6.29862">
        <ele>167</ele>
        <time>2023-04-28T12:42:17Z</time>
      </trkpt>
      <trkpt lat="43.47426" lon="6.29862">
        <ele>167</ele>
        <time>2023-04-28T12:42:18Z</time>
      </trkpt>
      <trkpt lat="43.47426" lon="6.29862">
        <ele>167</ele>
        <time>2023-04-28T12:42:19Z</time>
      </trkpt>
      <trkpt lat="43.47426" lon="6.29862">
        <ele>167</ele>
        <time>2023-04-28T12:42:20Z</time>
      </trkpt>
      <trkpt lat="43.47426" lon="6.29862">
        <ele>167</ele>
        <time>2023-04-28T12:42:21Z</time>
      </trkpt>
      <trkpt lat="43.47426" lon="6.29862">
        <ele>167</ele>
        <time>2023-04-28T12:42:22Z</time>
      </trkpt>
      <trkpt lat="43.47426" lon="6.29862">
        <ele>167</ele>
        <time>2023-04-28T12:42:23Z</time>
      </trkpt>
      <trkpt lat="43.47426" lon="6.29862">
        <ele>167</ele>
        <time>2023-04-28T12:42:24Z</time>
      </trkpt>
      <trkpt lat="43.47426" lon="6.29862">
        <ele>167</ele>
        <time>2023-04-28T12:42:25Z</time>
      </trkpt>
      <trkpt lat="43.47426" lon="6.29862">
        <ele>167</ele>
        <time>2023-04-28T12:42:26Z</time>
      </trkpt>
      <trkpt lat="43.47426" lon="6.29862">
        <ele>167</ele>
        <time>2023-04-28T12:42:27Z</time>
      </trkpt>
      <trkpt lat="43.47426" lon="6.29863">
        <ele>167</ele>
        <time>2023-04-28T12:42:28Z</time>
      </trkpt>
      <trkpt lat="43.47426" lon="6.29863">
        <ele>167</ele>
        <time>2023-04-28T12:42:29Z</time>
      </trkpt>
      <trkpt lat="43.47427" lon="6.29863">
        <ele>167</ele>
        <time>2023-04-28T12:42:30Z</time>
      </trkpt>
      <trkpt lat="43.47427" lon="6.29863">
        <ele>167</ele>
        <time>2023-04-28T12:42:31Z</time>
      </trkpt>
      <trkpt lat="43.47427" lon="6.29864">
        <ele>167</ele>
        <time>2023-04-28T12:42:32Z</time>
      </trkpt>
      <trkpt lat="43.47428" lon="6.29864">
        <ele>167</ele>
        <time>2023-04-28T12:42:33Z</time>
      </trkpt>
      <trkpt lat="43.47429" lon="6.29864">
        <ele>167</ele>
        <time>2023-04-28T12:42:34Z</time>
      </trkpt>
      <trkpt lat="43.47429" lon="6.29864">
        <ele>167</ele>
        <time>2023-04-28T12:42:35Z</time>
      </trkpt>
      <trkpt lat="43.4743" lon="6.29864">
        <ele>167</ele>
        <time>2023-04-28T12:42:36Z</time>
      </trkpt>
      <trkpt lat="43.47431" lon="6.29865">
        <ele>167</ele>
        <time>2023-04-28T12:42:37Z</time>
      </trkpt>
      <trkpt lat="43.47432" lon="6.29864">
        <ele>167</ele>
        <time>2023-04-28T12:42:38Z</time>
      </trkpt>
      <trkpt lat="43.47432" lon="6.29864">
        <ele>167</ele>
        <time>2023-04-28T12:42:39Z</time>
      </trkpt>
      <trkpt lat="43.47432" lon="6.29864">
        <ele>167</ele>
        <time>2023-04-28T12:42:40Z</time>
      </trkpt>
      <trkpt lat="43.47433" lon="6.29864">
        <ele>167</ele>
        <time>2023-04-28T12:42:41Z</time>
      </trkpt>
      <trkpt lat="43.47433" lon="6.29864">
        <ele>167</ele>
        <time>2023-04-28T12:42:42Z</time>
      </trkpt>
      <trkpt lat="43.47434" lon="6.29865">
        <ele>167</ele>
        <time>2023-04-28T12:42:43Z</time>
      </trkpt>
      <trkpt lat="43.47435" lon="6.29865">
        <ele>167</ele>
        <time>2023-04-28T12:42:44Z</time>
      </trkpt>
      <trkpt lat="43.47436" lon="6.29866">
        <ele>167</ele>
        <time>2023-04-28T12:42:45Z</time>
      </trkpt>
      <trkpt lat="43.47437" lon="6.29867">
        <ele>167</ele>
        <time>2023-04-28T12:42:46Z</time>
      </trkpt>
      <trkpt lat="43.47438" lon="6.29867">
        <ele>167</ele>
        <time>2023-04-28T12:42:47Z</time>
      </trkpt>
      <trkpt lat="43.47438" lon="6.29868">
        <ele>167</ele>
        <time>2023-04-28T12:42:48Z</time>
      </trkpt>
      <trkpt lat="43.47439" lon="6.29868">
        <ele>167</ele>
        <time>2023-04-28T12:42:49Z</time>
      </trkpt>
      <trkpt lat="43.4744" lon="6.29868">
        <ele>167</ele>
        <time>2023-04-28T12:42:50Z</time>
      </trkpt>
      <trkpt lat="43.4744" lon="6.29869">
        <ele>167</ele>
        <time>2023-04-28T12:42:51Z</time>
      </trkpt>
      <trkpt lat="43.47441" lon="6.29869">
        <ele>167</ele>
        <time>2023-04-28T12:42:52Z</time>
      </trkpt>
      <trkpt lat="43.47441" lon="6.29869">
        <ele>167</ele>
        <time>2023-04-28T12:42:53Z</time>
      </trkpt>
      <trkpt lat="43.47442" lon="6.2987">
        <ele>167</ele>
        <time>2023-04-28T12:42:54Z</time>
      </trkpt>
      <trkpt lat="43.47442" lon="6.2987">
        <ele>167</ele>
        <time>2023-04-28T12:42:55Z</time>
      </trkpt>
      <trkpt lat="43.47443" lon="6.2987">
        <ele>167</ele>
        <time>2023-04-28T12:42:56Z</time>
      </trkpt>
      <trkpt lat="43.47443" lon="6.29871">
        <ele>167</ele>
        <time>2023-04-28T12:42:57Z</time>
      </trkpt>
      <trkpt lat="43.47444" lon="6.29871">
        <ele>167</ele>
        <time>2023-04-28T12:42:58Z</time>
      </trkpt>
      <trkpt lat="43.47445" lon="6.29872">
        <ele>167</ele>
        <time>2023-04-28T12:42:59Z</time>
      </trkpt>
      <trkpt lat="43.47446" lon="6.29873">
        <ele>168</ele>
        <time>2023-04-28T12:43:00Z</time>
      </trkpt>
      <trkpt lat="43.47446" lon="6.29874">
        <ele>168</ele>
        <time>2023-04-28T12:43:01Z</time>
      </trkpt>
      <trkpt lat="43.47447" lon="6.29874">
        <ele>168</ele>
        <time>2023-04-28T12:43:02Z</time>
      </trkpt>
      <trkpt lat="43.47447" lon="6.29874">
        <ele>168</ele>
        <time>2023-04-28T12:43:03Z</time>
      </trkpt>
      <trkpt lat="43.47448" lon="6.29875">
        <ele>168</ele>
        <time>2023-04-28T12:43:04Z</time>
      </trkpt>
      <trkpt lat="43.47448" lon="6.29875">
        <ele>169</ele>
        <time>2023-04-28T12:43:05Z</time>
      </trkpt>
      <trkpt lat="43.47449" lon="6.29875">
        <ele>169</ele>
        <time>2023-04-28T12:43:06Z</time>
      </trkpt>
      <trkpt lat="43.4745" lon="6.29875">
        <ele>169</ele>
        <time>2023-04-28T12:43:07Z</time>
      </trkpt>
      <trkpt lat="43.4745" lon="6.29876">
        <ele>169</ele>
        <time>2023-04-28T12:43:08Z</time>
      </trkpt>
      <trkpt lat="43.47451" lon="6.29876">
        <ele>169</ele>
        <time>2023-04-28T12:43:09Z</time>
      </trkpt>
      <trkpt lat="43.47451" lon="6.29876">
        <ele>169</ele>
        <time>2023-04-28T12:43:10Z</time>
      </trkpt>
      <trkpt lat="43.47452" lon="6.29877">
        <ele>169</ele>
        <time>2023-04-28T12:43:11Z</time>
      </trkpt>
      <trkpt lat="43.47452" lon="6.29878">
        <ele>169</ele>
        <time>2023-04-28T12:43:12Z</time>
      </trkpt>
      <trkpt lat="43.47452" lon="6.29879">
        <ele>169</ele>
        <time>2023-04-28T12:43:13Z</time>
      </trkpt>
      <trkpt lat="43.47451" lon="6.2988">
        <ele>169</ele>
        <time>2023-04-28T12:43:14Z</time>
      </trkpt>
      <trkpt lat="43.47451" lon="6.29881">
        <ele>169</ele>
        <time>2023-04-28T12:43:15Z</time>
      </trkpt>
      <trkpt lat="43.47451" lon="6.29882">
        <ele>169</ele>
        <time>2023-04-28T12:43:16Z</time>
      </trkpt>
      <trkpt lat="43.4745" lon="6.29883">
        <ele>169</ele>
        <time>2023-04-28T12:43:17Z</time>
      </trkpt>
      <trkpt lat="43.4745" lon="6.29883">
        <ele>169</ele>
        <time>2023-04-28T12:43:18Z</time>
      </trkpt>
      <trkpt lat="43.47451" lon="6.29883">
        <ele>169</ele>
        <time>2023-04-28T12:43:19Z</time>
      </trkpt>
      <trkpt lat="43.47451" lon="6.29884">
        <ele>169</ele>
        <time>2023-04-28T12:43:20Z</time>
      </trkpt>
      <trkpt lat="43.47452" lon="6.29883">
        <ele>169</ele>
        <time>2023-04-28T12:43:21Z</time>
      </trkpt>
      <trkpt lat="43.47452" lon="6.29883">
        <ele>169</ele>
        <time>2023-04-28T12:43:22Z</time>
      </trkpt>
      <trkpt lat="43.47453" lon="6.29882">
        <ele>169</ele>
        <time>2023-04-28T12:43:23Z</time>
      </trkpt>
      <trkpt lat="43.47453" lon="6.29881">
        <ele>169</ele>
        <time>2023-04-28T12:43:24Z</time>
      </trkpt>
      <trkpt lat="43.47454" lon="6.2988">
        <ele>170</ele>
        <time>2023-04-28T12:43:25Z</time>
      </trkpt>
      <trkpt lat="43.47454" lon="6.29879">
        <ele>170</ele>
        <time>2023-04-28T12:43:26Z</time>
      </trkpt>
      <trkpt lat="43.47454" lon="6.29878">
        <ele>170</ele>
        <time>2023-04-28T12:43:27Z</time>
      </trkpt>
      <trkpt lat="43.47455" lon="6.29877">
        <ele>170</ele>
        <time>2023-04-28T12:43:28Z</time>
      </trkpt>
      <trkpt lat="43.47456" lon="6.29877">
        <ele>170</ele>
        <time>2023-04-28T12:43:29Z</time>
      </trkpt>
      <trkpt lat="43.47457" lon="6.29877">
        <ele>170</ele>
        <time>2023-04-28T12:43:30Z</time>
      </trkpt>
      <trkpt lat="43.47458" lon="6.29876">
        <ele>170</ele>
        <time>2023-04-28T12:43:31Z</time>
      </trkpt>
      <trkpt lat="43.47458" lon="6.29876">
        <ele>171</ele>
        <time>2023-04-28T12:43:32Z</time>
      </trkpt>
      <trkpt lat="43.47459" lon="6.29876">
        <ele>171</ele>
        <time>2023-04-28T12:43:33Z</time>
      </trkpt>
      <trkpt lat="43.47459" lon="6.29876">
        <ele>171</ele>
        <time>2023-04-28T12:43:34Z</time>
      </trkpt>
      <trkpt lat="43.47459" lon="6.29876">
        <ele>171</ele>
        <time>2023-04-28T12:43:35Z</time>
      </trkpt>
      <trkpt lat="43.47459" lon="6.29877">
        <ele>171</ele>
        <time>2023-04-28T12:43:36Z</time>
      </trkpt>
      <trkpt lat="43.4746" lon="6.29877">
        <ele>171</ele>
        <time>2023-04-28T12:43:37Z</time>
      </trkpt>
      <trkpt lat="43.4746" lon="6.29877">
        <ele>171</ele>
        <time>2023-04-28T12:43:38Z</time>
      </trkpt>
      <trkpt lat="43.4746" lon="6.29877">
        <ele>171</ele>
        <time>2023-04-28T12:43:39Z</time>
      </trkpt>
      <trkpt lat="43.4746" lon="6.29877">
        <ele>171</ele>
        <time>2023-04-28T12:43:40Z</time>
      </trkpt>
      <trkpt lat="43.4746" lon="6.29877">
        <ele>171</ele>
        <time>2023-04-28T12:43:41Z</time>
      </trkpt>
      <trkpt lat="43.4746" lon="6.29877">
        <ele>171</ele>
        <time>2023-04-28T12:43:42Z</time>
      </trkpt>
      <trkpt lat="43.4746" lon="6.29877">
        <ele>171</ele>
        <time>2023-04-28T12:43:43Z</time>
      </trkpt>
      <trkpt lat="43.4746" lon="6.29877">
        <ele>171</ele>
        <time>2023-04-28T12:43:44Z</time>
      </trkpt>
      <trkpt lat="43.4746" lon="6.29877">
        <ele>171</ele>
        <time>2023-04-28T12:43:45Z</time>
      </trkpt>
      <trkpt lat="43.4746" lon="6.29877">
        <ele>171</ele>
        <time>2023-04-28T12:43:46Z</time>
      </trkpt>
      <trkpt lat="43.4746" lon="6.29877">
        <ele>171</ele>
        <time>2023-04-28T12:43:47Z</time>
      </trkpt>
      <trkpt lat="43.4746" lon="6.29877">
        <ele>171</ele>
        <time>2023-04-28T12:43:48Z</time>
      </trkpt>
      <trkpt lat="43.4746" lon="6.29877">
        <ele>171</ele>
        <time>2023-04-28T12:43:49Z</time>
      </trkpt>
      <trkpt lat="43.4746" lon="6.29877">
        <ele>171</ele>
        <time>2023-04-28T12:43:50Z</time>
      </trkpt>
      <trkpt lat="43.4746" lon="6.29877">
        <ele>171</ele>
        <time>2023-04-28T12:43:51Z</time>
      </trkpt>
      <trkpt lat="43.4746" lon="6.29877">
        <ele>171</ele>
        <time>2023-04-28T12:43:52Z</time>
      </trkpt>
      <trkpt lat="43.4746" lon="6.29877">
        <ele>171</ele>
        <time>2023-04-28T12:43:53Z</time>
      </trkpt>
      <trkpt lat="43.4746" lon="6.29877">
        <ele>171</ele>
        <time>2023-04-28T12:43:54Z</time>
      </trkpt>
      <trkpt lat="43.4746" lon="6.29877">
        <ele>171</ele>
        <time>2023-04-28T12:43:55Z</time>
      </trkpt>
      <trkpt lat="43.4746" lon="6.29877">
        <ele>171</ele>
        <time>2023-04-28T12:43:56Z</time>
      </trkpt>
      <trkpt lat="43.4746" lon="6.29877">
        <ele>170</ele>
        <time>2023-04-28T12:43:57Z</time>
      </trkpt>
      <trkpt lat="43.4746" lon="6.29877">
        <ele>170</ele>
        <time>2023-04-28T12:43:58Z</time>
      </trkpt>
      <trkpt lat="43.4746" lon="6.29877">
        <ele>170</ele>
        <time>2023-04-28T12:43:59Z</time>
      </trkpt>
      <trkpt lat="43.4746" lon="6.29877">
        <ele>168</ele>
        <time>2023-04-28T12:44:00Z</time>
      </trkpt>
      <trkpt lat="43.4746" lon="6.29877">
        <ele>168</ele>
        <time>2023-04-28T12:44:01Z</time>
      </trkpt>
      <trkpt lat="43.4746" lon="6.29877">
        <ele>168</ele>
        <time>2023-04-28T12:44:02Z</time>
      </trkpt>
      <trkpt lat="43.4746" lon="6.29877">
        <ele>168</ele>
        <time>2023-04-28T12:44:03Z</time>
      </trkpt>
      <trkpt lat="43.4746" lon="6.29877">
        <ele>168</ele>
        <time>2023-04-28T12:44:04Z</time>
      </trkpt>
      <trkpt lat="43.4746" lon="6.29877">
        <ele>168</ele>
        <time>2023-04-28T12:44:05Z</time>
      </trkpt>
      <trkpt lat="43.4746" lon="6.29877">
        <ele>168</ele>
        <time>2023-04-28T12:44:06Z</time>
      </trkpt>
      <trkpt lat="43.4746" lon="6.29877">
        <ele>168</ele>
        <time>2023-04-28T12:44:07Z</time>
      </trkpt>
      <trkpt lat="43.4746" lon="6.29877">
        <ele>168</ele>
        <time>2023-04-28T12:44:08Z</time>
      </trkpt>
      <trkpt lat="43.4746" lon="6.29877">
        <ele>168</ele>
        <time>2023-04-28T12:44:09Z</time>
      </trkpt>
      <trkpt lat="43.47465" lon="6.29878">
        <ele>168</ele>
        <time>2023-04-28T12:44:10Z</time>
      </trkpt>
      <trkpt lat="43.47466" lon="6.29878">
        <ele>169</ele>
        <time>2023-04-28T12:44:11Z</time>
      </trkpt>
      <trkpt lat="43.47466" lon="6.29878">
        <ele>169</ele>
        <time>2023-04-28T12:44:12Z</time>
      </trkpt>
      <trkpt lat="43.47467" lon="6.29878">
        <ele>169</ele>
        <time>2023-04-28T12:44:13Z</time>
      </trkpt>
      <trkpt lat="43.47468" lon="6.29878">
        <ele>169</ele>
        <time>2023-04-28T12:44:14Z</time>
      </trkpt>
      <trkpt lat="43.47469" lon="6.29878">
        <ele>169</ele>
        <time>2023-04-28T12:44:15Z</time>
      </trkpt>
      <trkpt lat="43.4747" lon="6.29878">
        <ele>171</ele>
        <time>2023-04-28T12:44:16Z</time>
      </trkpt>
      <trkpt lat="43.47471" lon="6.29879">
        <ele>171</ele>
        <time>2023-04-28T12:44:17Z</time>
      </trkpt>
      <trkpt lat="43.47472" lon="6.29879">
        <ele>172</ele>
        <time>2023-04-28T12:44:18Z</time>
      </trkpt>
      <trkpt lat="43.47473" lon="6.2988">
        <ele>172</ele>
        <time>2023-04-28T12:44:19Z</time>
      </trkpt>
      <trkpt lat="43.47474" lon="6.29881">
        <ele>172</ele>
        <time>2023-04-28T12:44:20Z</time>
      </trkpt>
      <trkpt lat="43.47474" lon="6.29883">
        <ele>172</ele>
        <time>2023-04-28T12:44:21Z</time>
      </trkpt>
      <trkpt lat="43.47475" lon="6.29883">
        <ele>172</ele>
        <time>2023-04-28T12:44:22Z</time>
      </trkpt>
      <trkpt lat="43.47476" lon="6.29884">
        <ele>172</ele>
        <time>2023-04-28T12:44:23Z</time>
      </trkpt>
      <trkpt lat="43.47477" lon="6.29884">
        <ele>171</ele>
        <time>2023-04-28T12:44:24Z</time>
      </trkpt>
      <trkpt lat="43.47478" lon="6.29885">
        <ele>171</ele>
        <time>2023-04-28T12:44:25Z</time>
      </trkpt>
      <trkpt lat="43.47479" lon="6.29886">
        <ele>171</ele>
        <time>2023-04-28T12:44:26Z</time>
      </trkpt>
      <trkpt lat="43.47479" lon="6.29887">
        <ele>171</ele>
        <time>2023-04-28T12:44:27Z</time>
      </trkpt>
      <trkpt lat="43.4748" lon="6.29887">
        <ele>171</ele>
        <time>2023-04-28T12:44:28Z</time>
      </trkpt>
      <trkpt lat="43.47481" lon="6.29887">
        <ele>171</ele>
        <time>2023-04-28T12:44:29Z</time>
      </trkpt>
      <trkpt lat="43.47482" lon="6.29886">
        <ele>171</ele>
        <time>2023-04-28T12:44:30Z</time>
      </trkpt>
      <trkpt lat="43.47483" lon="6.29886">
        <ele>171</ele>
        <time>2023-04-28T12:44:31Z</time>
      </trkpt>
      <trkpt lat="43.47484" lon="6.29886">
        <ele>171</ele>
        <time>2023-04-28T12:44:32Z</time>
      </trkpt>
      <trkpt lat="43.47485" lon="6.29887">
        <ele>170</ele>
        <time>2023-04-28T12:44:33Z</time>
      </trkpt>
      <trkpt lat="43.47486" lon="6.29888">
        <ele>170</ele>
        <time>2023-04-28T12:44:34Z</time>
      </trkpt>
      <trkpt lat="43.47486" lon="6.29888">
        <ele>170</ele>
        <time>2023-04-28T12:44:35Z</time>
      </trkpt>
      <trkpt lat="43.47487" lon="6.29888">
        <ele>170</ele>
        <time>2023-04-28T12:44:36Z</time>
      </trkpt>
      <trkpt lat="43.47488" lon="6.29887">
        <ele>170</ele>
        <time>2023-04-28T12:44:37Z</time>
      </trkpt>
      <trkpt lat="43.47489" lon="6.29886">
        <ele>170</ele>
        <time>2023-04-28T12:44:38Z</time>
      </trkpt>
      <trkpt lat="43.47489" lon="6.29885">
        <ele>170</ele>
        <time>2023-04-28T12:44:39Z</time>
      </trkpt>
      <trkpt lat="43.47489" lon="6.29885">
        <ele>170</ele>
        <time>2023-04-28T12:44:40Z</time>
      </trkpt>
      <trkpt lat="43.47489" lon="6.29884">
        <ele>170</ele>
        <time>2023-04-28T12:44:41Z</time>
      </trkpt>
      <trkpt lat="43.47488" lon="6.29884">
        <ele>170</ele>
        <time>2023-04-28T12:44:42Z</time>
      </trkpt>
      <trkpt lat="43.47488" lon="6.29884">
        <ele>170</ele>
        <time>2023-04-28T12:44:43Z</time>
      </trkpt>
      <trkpt lat="43.47487" lon="6.29884">
        <ele>170</ele>
        <time>2023-04-28T12:44:44Z</time>
      </trkpt>
      <trkpt lat="43.47486" lon="6.29884">
        <ele>170</ele>
        <time>2023-04-28T12:44:45Z</time>
      </trkpt>
      <trkpt lat="43.47486" lon="6.29884">
        <ele>170</ele>
        <time>2023-04-28T12:44:46Z</time>
      </trkpt>
      <trkpt lat="43.47486" lon="6.29884">
        <ele>170</ele>
        <time>2023-04-28T12:44:47Z</time>
      </trkpt>
      <trkpt lat="43.47486" lon="6.29884">
        <ele>170</ele>
        <time>2023-04-28T12:44:48Z</time>
      </trkpt>
      <trkpt lat="43.47486" lon="6.29884">
        <ele>170</ele>
        <time>2023-04-28T12:44:49Z</time>
      </trkpt>
      <trkpt lat="43.47486" lon="6.29884">
        <ele>170</ele>
        <time>2023-04-28T12:44:50Z</time>
      </trkpt>
      <trkpt lat="43.47486" lon="6.29884">
        <ele>170</ele>
        <time>2023-04-28T12:44:51Z</time>
      </trkpt>
      <trkpt lat="43.47486" lon="6.29884">
        <ele>170</ele>
        <time>2023-04-28T12:44:52Z</time>
      </trkpt>
      <trkpt lat="43.47486" lon="6.29884">
        <ele>170</ele>
        <time>2023-04-28T12:44:53Z</time>
      </trkpt>
      <trkpt lat="43.47486" lon="6.29884">
        <ele>170</ele>
        <time>2023-04-28T12:44:54Z</time>
      </trkpt>
      <trkpt lat="43.47486" lon="6.29884">
        <ele>170</ele>
        <time>2023-04-28T12:44:55Z</time>
      </trkpt>
      <trkpt lat="43.47486" lon="6.29884">
        <ele>170</ele>
        <time>2023-04-28T12:44:56Z</time>
      </trkpt>
      <trkpt lat="43.47485" lon="6.29886">
        <ele>170</ele>
        <time>2023-04-28T12:44:57Z</time>
      </trkpt>
      <trkpt lat="43.47486" lon="6.29886">
        <ele>170</ele>
        <time>2023-04-28T12:44:58Z</time>
      </trkpt>
      <trkpt lat="43.47486" lon="6.29886">
        <ele>170</ele>
        <time>2023-04-28T12:44:59Z</time>
      </trkpt>
      <trkpt lat="43.47487" lon="6.29887">
        <ele>170</ele>
        <time>2023-04-28T12:45:00Z</time>
      </trkpt>
      <trkpt lat="43.47488" lon="6.29887">
        <ele>170</ele>
        <time>2023-04-28T12:45:01Z</time>
      </trkpt>
      <trkpt lat="43.47488" lon="6.29887">
        <ele>170</ele>
        <time>2023-04-28T12:45:02Z</time>
      </trkpt>
      <trkpt lat="43.47489" lon="6.29887">
        <ele>170</ele>
        <time>2023-04-28T12:45:03Z</time>
      </trkpt>
      <trkpt lat="43.47489" lon="6.29887">
        <ele>170</ele>
        <time>2023-04-28T12:45:04Z</time>
      </trkpt>
      <trkpt lat="43.47489" lon="6.29887">
        <ele>170</ele>
        <time>2023-04-28T12:45:05Z</time>
      </trkpt>
      <trkpt lat="43.47489" lon="6.29886">
        <ele>170</ele>
        <time>2023-04-28T12:45:06Z</time>
      </trkpt>
      <trkpt lat="43.47489" lon="6.29886">
        <ele>170</ele>
        <time>2023-04-28T12:45:07Z</time>
      </trkpt>
      <trkpt lat="43.47488" lon="6.29886">
        <ele>170</ele>
        <time>2023-04-28T12:45:08Z</time>
      </trkpt>
      <trkpt lat="43.47488" lon="6.29887">
        <ele>170</ele>
        <time>2023-04-28T12:45:09Z</time>
      </trkpt>
      <trkpt lat="43.47488" lon="6.29887">
        <ele>170</ele>
        <time>2023-04-28T12:45:10Z</time>
      </trkpt>
      <trkpt lat="43.47488" lon="6.29887">
        <ele>170</ele>
        <time>2023-04-28T12:45:11Z</time>
      </trkpt>
      <trkpt lat="43.47488" lon="6.29887">
        <ele>170</ele>
        <time>2023-04-28T12:45:12Z</time>
      </trkpt>
      <trkpt lat="43.47488" lon="6.29887">
        <ele>170</ele>
        <time>2023-04-28T12:45:13Z</time>
      </trkpt>
      <trkpt lat="43.47488" lon="6.29887">
        <ele>170</ele>
        <time>2023-04-28T12:45:14Z</time>
      </trkpt>
      <trkpt lat="43.47488" lon="6.29887">
        <ele>170</ele>
        <time>2023-04-28T12:45:15Z</time>
      </trkpt>
      <trkpt lat="43.47488" lon="6.29887">
        <ele>169</ele>
        <time>2023-04-28T12:45:16Z</time>
      </trkpt>
      <trkpt lat="43.47488" lon="6.29887">
        <ele>169</ele>
        <time>2023-04-28T12:45:17Z</time>
      </trkpt>
      <trkpt lat="43.47488" lon="6.29887">
        <ele>169</ele>
        <time>2023-04-28T12:45:18Z</time>
      </trkpt>
      <trkpt lat="43.47488" lon="6.29887">
        <ele>169</ele>
        <time>2023-04-28T12:45:19Z</time>
      </trkpt>
      <trkpt lat="43.47488" lon="6.29887">
        <ele>169</ele>
        <time>2023-04-28T12:45:20Z</time>
      </trkpt>
      <trkpt lat="43.47488" lon="6.29887">
        <ele>169</ele>
        <time>2023-04-28T12:45:21Z</time>
      </trkpt>
      <trkpt lat="43.47488" lon="6.29887">
        <ele>169</ele>
        <time>2023-04-28T12:45:22Z</time>
      </trkpt>
      <trkpt lat="43.47488" lon="6.29887">
        <ele>169</ele>
        <time>2023-04-28T12:45:23Z</time>
      </trkpt>
      <trkpt lat="43.47488" lon="6.29887">
        <ele>169</ele>
        <time>2023-04-28T12:45:24Z</time>
      </trkpt>
      <trkpt lat="43.47488" lon="6.29887">
        <ele>169</ele>
        <time>2023-04-28T12:45:25Z</time>
      </trkpt>
      <trkpt lat="43.47488" lon="6.29887">
        <ele>169</ele>
        <time>2023-04-28T12:45:26Z</time>
      </trkpt>
      <trkpt lat="43.47488" lon="6.29887">
        <ele>169</ele>
        <time>2023-04-28T12:45:27Z</time>
      </trkpt>
      <trkpt lat="43.47488" lon="6.29887">
        <ele>169</ele>
        <time>2023-04-28T12:45:28Z</time>
      </trkpt>
      <trkpt lat="43.47488" lon="6.29887">
        <ele>169</ele>
        <time>2023-04-28T12:45:29Z</time>
      </trkpt>
      <trkpt lat="43.47488" lon="6.29887">
        <ele>169</ele>
        <time>2023-04-28T12:45:30Z</time>
      </trkpt>
      <trkpt lat="43.47488" lon="6.29887">
        <ele>169</ele>
        <time>2023-04-28T12:45:31Z</time>
      </trkpt>
      <trkpt lat="43.47488" lon="6.29887">
        <ele>169</ele>
        <time>2023-04-28T12:45:32Z</time>
      </trkpt>
      <trkpt lat="43.47488" lon="6.29887">
        <ele>169</ele>
        <time>2023-04-28T12:45:33Z</time>
      </trkpt>
      <trkpt lat="43.47488" lon="6.29887">
        <ele>169</ele>
        <time>2023-04-28T12:45:34Z</time>
      </trkpt>
      <trkpt lat="43.47488" lon="6.29887">
        <ele>169</ele>
        <time>2023-04-28T12:45:35Z</time>
      </trkpt>
      <trkpt lat="43.47488" lon="6.29887">
        <ele>169</ele>
        <time>2023-04-28T12:45:36Z</time>
      </trkpt>
      <trkpt lat="43.47488" lon="6.29887">
        <ele>169</ele>
        <time>2023-04-28T12:45:37Z</time>
      </trkpt>
      <trkpt lat="43.47488" lon="6.29887">
        <ele>169</ele>
        <time>2023-04-28T12:45:38Z</time>
      </trkpt>
      <trkpt lat="43.4749" lon="6.29884">
        <ele>169</ele>
        <time>2023-04-28T12:45:39Z</time>
      </trkpt>
      <trkpt lat="43.4749" lon="6.29884">
        <ele>169</ele>
        <time>2023-04-28T12:45:40Z</time>
      </trkpt>
      <trkpt lat="43.4749" lon="6.29883">
        <ele>169</ele>
        <time>2023-04-28T12:45:41Z</time>
      </trkpt>
      <trkpt lat="43.47489" lon="6.29883">
        <ele>169</ele>
        <time>2023-04-28T12:45:42Z</time>
      </trkpt>
      <trkpt lat="43.47489" lon="6.29882">
        <ele>169</ele>
        <time>2023-04-28T12:45:43Z</time>
      </trkpt>
      <trkpt lat="43.47489" lon="6.29882">
        <ele>169</ele>
        <time>2023-04-28T12:45:44Z</time>
      </trkpt>
      <trkpt lat="43.47488" lon="6.29882">
        <ele>169</ele>
        <time>2023-04-28T12:45:45Z</time>
      </trkpt>
      <trkpt lat="43.47487" lon="6.29881">
        <ele>169</ele>
        <time>2023-04-28T12:45:46Z</time>
      </trkpt>
      <trkpt lat="43.47487" lon="6.2988">
        <ele>169</ele>
        <time>2023-04-28T12:45:47Z</time>
      </trkpt>
      <trkpt lat="43.47486" lon="6.29879">
        <ele>169</ele>
        <time>2023-04-28T12:45:48Z</time>
      </trkpt>
      <trkpt lat="43.47485" lon="6.29878">
        <ele>169</ele>
        <time>2023-04-28T12:45:49Z</time>
      </trkpt>
      <trkpt lat="43.47485" lon="6.29877">
        <ele>169</ele>
        <time>2023-04-28T12:45:50Z</time>
      </trkpt>
      <trkpt lat="43.47485" lon="6.29877">
        <ele>169</ele>
        <time>2023-04-28T12:45:51Z</time>
      </trkpt>
      <trkpt lat="43.47484" lon="6.29877">
        <ele>169</ele>
        <time>2023-04-28T12:45:52Z</time>
      </trkpt>
      <trkpt lat="43.47484" lon="6.29877">
        <ele>168</ele>
        <time>2023-04-28T12:45:53Z</time>
      </trkpt>
      <trkpt lat="43.47484" lon="6.29877">
        <ele>168</ele>
        <time>2023-04-28T12:45:54Z</time>
      </trkpt>
      <trkpt lat="43.47484" lon="6.29877">
        <ele>168</ele>
        <time>2023-04-28T12:45:55Z</time>
      </trkpt>
      <trkpt lat="43.47484" lon="6.29877">
        <ele>168</ele>
        <time>2023-04-28T12:45:56Z</time>
      </trkpt>
      <trkpt lat="43.47484" lon="6.29877">
        <ele>168</ele>
        <time>2023-04-28T12:45:57Z</time>
      </trkpt>
      <trkpt lat="43.47484" lon="6.29877">
        <ele>168</ele>
        <time>2023-04-28T12:45:58Z</time>
      </trkpt>
      <trkpt lat="43.47485" lon="6.29878">
        <ele>168</ele>
        <time>2023-04-28T12:45:59Z</time>
      </trkpt>
      <trkpt lat="43.47485" lon="6.29878">
        <ele>168</ele>
        <time>2023-04-28T12:46:00Z</time>
      </trkpt>
      <trkpt lat="43.47485" lon="6.29878">
        <ele>168</ele>
        <time>2023-04-28T12:46:01Z</time>
      </trkpt>
      <trkpt lat="43.47485" lon="6.29878">
        <ele>168</ele>
        <time>2023-04-28T12:46:02Z</time>
      </trkpt>
      <trkpt lat="43.47485" lon="6.29878">
        <ele>168</ele>
        <time>2023-04-28T12:46:03Z</time>
      </trkpt>
      <trkpt lat="43.47485" lon="6.29878">
        <ele>168</ele>
        <time>2023-04-28T12:46:04Z</time>
      </trkpt>
      <trkpt lat="43.47485" lon="6.29878">
        <ele>168</ele>
        <time>2023-04-28T12:46:05Z</time>
      </trkpt>
      <trkpt lat="43.47485" lon="6.29878">
        <ele>168</ele>
        <time>2023-04-28T12:46:06Z</time>
      </trkpt>
      <trkpt lat="43.47485" lon="6.29878">
        <ele>168</ele>
        <time>2023-04-28T12:46:07Z</time>
      </trkpt>
      <trkpt lat="43.47485" lon="6.29878">
        <ele>168</ele>
        <time>2023-04-28T12:46:08Z</time>
      </trkpt>
      <trkpt lat="43.47485" lon="6.29878">
        <ele>168</ele>
        <time>2023-04-28T12:46:09Z</time>
      </trkpt>
      <trkpt lat="43.47485" lon="6.29878">
        <ele>168</ele>
        <time>2023-04-28T12:46:10Z</time>
      </trkpt>
      <trkpt lat="43.47485" lon="6.29878">
        <ele>168</ele>
        <time>2023-04-28T12:46:11Z</time>
      </trkpt>
      <trkpt lat="43.47485" lon="6.29878">
        <ele>168</ele>
        <time>2023-04-28T12:46:12Z</time>
      </trkpt>
      <trkpt lat="43.47485" lon="6.29878">
        <ele>168</ele>
        <time>2023-04-28T12:46:13Z</time>
      </trkpt>
      <trkpt lat="43.47485" lon="6.29878">
        <ele>168</ele>
        <time>2023-04-28T12:46:14Z</time>
      </trkpt>
      <trkpt lat="43.47485" lon="6.29878">
        <ele>168</ele>
        <time>2023-04-28T12:46:15Z</time>
      </trkpt>
      <trkpt lat="43.47485" lon="6.29878">
        <ele>168</ele>
        <time>2023-04-28T12:46:16Z</time>
      </trkpt>
      <trkpt lat="43.47485" lon="6.29878">
        <ele>168</ele>
        <time>2023-04-28T12:46:17Z</time>
      </trkpt>
      <trkpt lat="43.47485" lon="6.29878">
        <ele>168</ele>
        <time>2023-04-28T12:46:18Z</time>
      </trkpt>
      <trkpt lat="43.47485" lon="6.29878">
        <ele>168</ele>
        <time>2023-04-28T12:46:19Z</time>
      </trkpt>
      <trkpt lat="43.47485" lon="6.29878">
        <ele>168</ele>
        <time>2023-04-28T12:46:20Z</time>
      </trkpt>
      <trkpt lat="43.47485" lon="6.29878">
        <ele>168</ele>
        <time>2023-04-28T12:46:21Z</time>
      </trkpt>
      <trkpt lat="43.47485" lon="6.29878">
        <ele>168</ele>
        <time>2023-04-28T12:46:22Z</time>
      </trkpt>
      <trkpt lat="43.47485" lon="6.29878">
        <ele>168</ele>
        <time>2023-04-28T12:46:23Z</time>
      </trkpt>
      <trkpt lat="43.47492" lon="6.2988">
        <ele>168</ele>
        <time>2023-04-28T12:46:24Z</time>
      </trkpt>
      <trkpt lat="43.47492" lon="6.2988">
        <ele>168</ele>
        <time>2023-04-28T12:46:25Z</time>
      </trkpt>
      <trkpt lat="43.47493" lon="6.2988">
        <ele>168</ele>
        <time>2023-04-28T12:46:26Z</time>
      </trkpt>
      <trkpt lat="43.47493" lon="6.2988">
        <ele>168</ele>
        <time>2023-04-28T12:46:27Z</time>
      </trkpt>
      <trkpt lat="43.47493" lon="6.2988">
        <ele>168</ele>
        <time>2023-04-28T12:46:28Z</time>
      </trkpt>
      <trkpt lat="43.47493" lon="6.2988">
        <ele>169</ele>
        <time>2023-04-28T12:46:29Z</time>
      </trkpt>
      <trkpt lat="43.47493" lon="6.29881">
        <ele>169</ele>
        <time>2023-04-28T12:46:30Z</time>
      </trkpt>
      <trkpt lat="43.47492" lon="6.29881">
        <ele>169</ele>
        <time>2023-04-28T12:46:31Z</time>
      </trkpt>
      <trkpt lat="43.47492" lon="6.29881">
        <ele>169</ele>
        <time>2023-04-28T12:46:32Z</time>
      </trkpt>
      <trkpt lat="43.47492" lon="6.29882">
        <ele>169</ele>
        <time>2023-04-28T12:46:33Z</time>
      </trkpt>
      <trkpt lat="43.47491" lon="6.29882">
        <ele>170</ele>
        <time>2023-04-28T12:46:34Z</time>
      </trkpt>
      <trkpt lat="43.47492" lon="6.29883">
        <ele>170</ele>
        <time>2023-04-28T12:46:35Z</time>
      </trkpt>
      <trkpt lat="43.47492" lon="6.29884">
        <ele>170</ele>
        <time>2023-04-28T12:46:36Z</time>
      </trkpt>
      <trkpt lat="43.47493" lon="6.29885">
        <ele>172</ele>
        <time>2023-04-28T12:46:37Z</time>
      </trkpt>
      <trkpt lat="43.47493" lon="6.29885">
        <ele>172</ele>
        <time>2023-04-28T12:46:38Z</time>
      </trkpt>
      <trkpt lat="43.47493" lon="6.29886">
        <ele>173</ele>
        <time>2023-04-28T12:46:39Z</time>
      </trkpt>
      <trkpt lat="43.47494" lon="6.29886">
        <ele>173</ele>
        <time>2023-04-28T12:46:40Z</time>
      </trkpt>
      <trkpt lat="43.47494" lon="6.29886">
        <ele>173</ele>
        <time>2023-04-28T12:46:41Z</time>
      </trkpt>
      <trkpt lat="43.47495" lon="6.29887">
        <ele>173</ele>
        <time>2023-04-28T12:46:42Z</time>
      </trkpt>
      <trkpt lat="43.47496" lon="6.29887">
        <ele>173</ele>
        <time>2023-04-28T12:46:43Z</time>
      </trkpt>
      <trkpt lat="43.47497" lon="6.29888">
        <ele>174</ele>
        <time>2023-04-28T12:46:44Z</time>
      </trkpt>
      <trkpt lat="43.47498" lon="6.29888">
        <ele>174</ele>
        <time>2023-04-28T12:46:45Z</time>
      </trkpt>
      <trkpt lat="43.47499" lon="6.29888">
        <ele>174</ele>
        <time>2023-04-28T12:46:46Z</time>
      </trkpt>
      <trkpt lat="43.47499" lon="6.29888">
        <ele>174</ele>
        <time>2023-04-28T12:46:47Z</time>
      </trkpt>
      <trkpt lat="43.475" lon="6.29888">
        <ele>174</ele>
        <time>2023-04-28T12:46:48Z</time>
      </trkpt>
      <trkpt lat="43.475" lon="6.29889">
        <ele>174</ele>
        <time>2023-04-28T12:46:49Z</time>
      </trkpt>
      <trkpt lat="43.47501" lon="6.29889">
        <ele>173</ele>
        <time>2023-04-28T12:46:50Z</time>
      </trkpt>
      <trkpt lat="43.47502" lon="6.29889">
        <ele>173</ele>
        <time>2023-04-28T12:46:51Z</time>
      </trkpt>
      <trkpt lat="43.47503" lon="6.29889">
        <ele>173</ele>
        <time>2023-04-28T12:46:52Z</time>
      </trkpt>
      <trkpt lat="43.47505" lon="6.29889">
        <ele>172</ele>
        <time>2023-04-28T12:46:53Z</time>
      </trkpt>
      <trkpt lat="43.47507" lon="6.2989">
        <ele>172</ele>
        <time>2023-04-28T12:46:54Z</time>
      </trkpt>
      <trkpt lat="43.47509" lon="6.29889">
        <ele>172</ele>
        <time>2023-04-28T12:46:55Z</time>
      </trkpt>
      <trkpt lat="43.47511" lon="6.29889">
        <ele>171</ele>
        <time>2023-04-28T12:46:56Z</time>
      </trkpt>
      <trkpt lat="43.47512" lon="6.29889">
        <ele>171</ele>
        <time>2023-04-28T12:46:57Z</time>
      </trkpt>
      <trkpt lat="43.47514" lon="6.2989">
        <ele>171</ele>
        <time>2023-04-28T12:46:58Z</time>
      </trkpt>
      <trkpt lat="43.47515" lon="6.2989">
        <ele>171</ele>
        <time>2023-04-28T12:46:59Z</time>
      </trkpt>
      <trkpt lat="43.47516" lon="6.2989">
        <ele>171</ele>
        <time>2023-04-28T12:47:00Z</time>
      </trkpt>
      <trkpt lat="43.47517" lon="6.29891">
        <ele>171</ele>
        <time>2023-04-28T12:47:01Z</time>
      </trkpt>
      <trkpt lat="43.47518" lon="6.29891">
        <ele>171</ele>
        <time>2023-04-28T12:47:02Z</time>
      </trkpt>
      <trkpt lat="43.47519" lon="6.29892">
        <ele>170</ele>
        <time>2023-04-28T12:47:03Z</time>
      </trkpt>
      <trkpt lat="43.4752" lon="6.29892">
        <ele>171</ele>
        <time>2023-04-28T12:47:04Z</time>
      </trkpt>
      <trkpt lat="43.47521" lon="6.29893">
        <ele>171</ele>
        <time>2023-04-28T12:47:05Z</time>
      </trkpt>
      <trkpt lat="43.47522" lon="6.29894">
        <ele>171</ele>
        <time>2023-04-28T12:47:06Z</time>
      </trkpt>
      <trkpt lat="43.47523" lon="6.29894">
        <ele>171</ele>
        <time>2023-04-28T12:47:07Z</time>
      </trkpt>
      <trkpt lat="43.47524" lon="6.29895">
        <ele>171</ele>
        <time>2023-04-28T12:47:08Z</time>
      </trkpt>
      <trkpt lat="43.47525" lon="6.29896">
        <ele>171</ele>
        <time>2023-04-28T12:47:09Z</time>
      </trkpt>
      <trkpt lat="43.47526" lon="6.29897">
        <ele>171</ele>
        <time>2023-04-28T12:47:10Z</time>
      </trkpt>
      <trkpt lat="43.47527" lon="6.29897">
        <ele>171</ele>
        <time>2023-04-28T12:47:11Z</time>
      </trkpt>
      <trkpt lat="43.47528" lon="6.29898">
        <ele>171</ele>
        <time>2023-04-28T12:47:12Z</time>
      </trkpt>
      <trkpt lat="43.47529" lon="6.29899">
        <ele>171</ele>
        <time>2023-04-28T12:47:13Z</time>
      </trkpt>
      <trkpt lat="43.4753" lon="6.299">
        <ele>172</ele>
        <time>2023-04-28T12:47:14Z</time>
      </trkpt>
      <trkpt lat="43.47531" lon="6.299">
        <ele>172</ele>
        <time>2023-04-28T12:47:15Z</time>
      </trkpt>
      <trkpt lat="43.47532" lon="6.29901">
        <ele>172</ele>
        <time>2023-04-28T12:47:16Z</time>
      </trkpt>
      <trkpt lat="43.47533" lon="6.29902">
        <ele>172</ele>
        <time>2023-04-28T12:47:17Z</time>
      </trkpt>
      <trkpt lat="43.47534" lon="6.29902">
        <ele>172</ele>
        <time>2023-04-28T12:47:18Z</time>
      </trkpt>
      <trkpt lat="43.47535" lon="6.29903">
        <ele>172</ele>
        <time>2023-04-28T12:47:19Z</time>
      </trkpt>
      <trkpt lat="43.47537" lon="6.29904">
        <ele>172</ele>
        <time>2023-04-28T12:47:20Z</time>
      </trkpt>
      <trkpt lat="43.47538" lon="6.29905">
        <ele>173</ele>
        <time>2023-04-28T12:47:21Z</time>
      </trkpt>
      <trkpt lat="43.47539" lon="6.29906">
        <ele>173</ele>
        <time>2023-04-28T12:47:22Z</time>
      </trkpt>
      <trkpt lat="43.4754" lon="6.29906">
        <ele>173</ele>
        <time>2023-04-28T12:47:23Z</time>
      </trkpt>
      <trkpt lat="43.47541" lon="6.29907">
        <ele>173</ele>
        <time>2023-04-28T12:47:24Z</time>
      </trkpt>
      <trkpt lat="43.47542" lon="6.29908">
        <ele>173</ele>
        <time>2023-04-28T12:47:25Z</time>
      </trkpt>
      <trkpt lat="43.47543" lon="6.29909">
        <ele>173</ele>
        <time>2023-04-28T12:47:26Z</time>
      </trkpt>
      <trkpt lat="43.47544" lon="6.29909">
        <ele>173</ele>
        <time>2023-04-28T12:47:27Z</time>
      </trkpt>
      <trkpt lat="43.47545" lon="6.2991">
        <ele>173</ele>
        <time>2023-04-28T12:47:28Z</time>
      </trkpt>
      <trkpt lat="43.47546" lon="6.29911">
        <ele>173</ele>
        <time>2023-04-28T12:47:29Z</time>
      </trkpt>
      <trkpt lat="43.47547" lon="6.29912">
        <ele>173</ele>
        <time>2023-04-28T12:47:30Z</time>
      </trkpt>
      <trkpt lat="43.47548" lon="6.29912">
        <ele>173</ele>
        <time>2023-04-28T12:47:31Z</time>
      </trkpt>
      <trkpt lat="43.47549" lon="6.29913">
        <ele>173</ele>
        <time>2023-04-28T12:47:32Z</time>
      </trkpt>
      <trkpt lat="43.4755" lon="6.29914">
        <ele>173</ele>
        <time>2023-04-28T12:47:33Z</time>
      </trkpt>
      <trkpt lat="43.47551" lon="6.29915">
        <ele>173</ele>
        <time>2023-04-28T12:47:34Z</time>
      </trkpt>
      <trkpt lat="43.47552" lon="6.29916">
        <ele>173</ele>
        <time>2023-04-28T12:47:35Z</time>
      </trkpt>
      <trkpt lat="43.47553" lon="6.29917">
        <ele>173</ele>
        <time>2023-04-28T12:47:36Z</time>
      </trkpt>
      <trkpt lat="43.47554" lon="6.29917">
        <ele>173</ele>
        <time>2023-04-28T12:47:37Z</time>
      </trkpt>
      <trkpt lat="43.47556" lon="6.29918">
        <ele>173</ele>
        <time>2023-04-28T12:47:38Z</time>
      </trkpt>
      <trkpt lat="43.47557" lon="6.29919">
        <ele>174</ele>
        <time>2023-04-28T12:47:39Z</time>
      </trkpt>
      <trkpt lat="43.47558" lon="6.29919">
        <ele>174</ele>
        <time>2023-04-28T12:47:40Z</time>
      </trkpt>
      <trkpt lat="43.47558" lon="6.2992">
        <ele>174</ele>
        <time>2023-04-28T12:47:41Z</time>
      </trkpt>
      <trkpt lat="43.47559" lon="6.29921">
        <ele>174</ele>
        <time>2023-04-28T12:47:42Z</time>
      </trkpt>
      <trkpt lat="43.4756" lon="6.29921">
        <ele>174</ele>
        <time>2023-04-28T12:47:43Z</time>
      </trkpt>
      <trkpt lat="43.47561" lon="6.29922">
        <ele>174</ele>
        <time>2023-04-28T12:47:44Z</time>
      </trkpt>
      <trkpt lat="43.47562" lon="6.29923">
        <ele>174</ele>
        <time>2023-04-28T12:47:45Z</time>
      </trkpt>
      <trkpt lat="43.47563" lon="6.29924">
        <ele>174</ele>
        <time>2023-04-28T12:47:46Z</time>
      </trkpt>
      <trkpt lat="43.47564" lon="6.29924">
        <ele>174</ele>
        <time>2023-04-28T12:47:47Z</time>
      </trkpt>
      <trkpt lat="43.47565" lon="6.29925">
        <ele>174</ele>
        <time>2023-04-28T12:47:48Z</time>
      </trkpt>
      <trkpt lat="43.47566" lon="6.29926">
        <ele>174</ele>
        <time>2023-04-28T12:47:49Z</time>
      </trkpt>
      <trkpt lat="43.47567" lon="6.29926">
        <ele>174</ele>
        <time>2023-04-28T12:47:50Z</time>
      </trkpt>
      <trkpt lat="43.47568" lon="6.29927">
        <ele>175</ele>
        <time>2023-04-28T12:47:51Z</time>
      </trkpt>
      <trkpt lat="43.47569" lon="6.29928">
        <ele>175</ele>
        <time>2023-04-28T12:47:52Z</time>
      </trkpt>
      <trkpt lat="43.4757" lon="6.29929">
        <ele>175</ele>
        <time>2023-04-28T12:47:53Z</time>
      </trkpt>
      <trkpt lat="43.47571" lon="6.2993">
        <ele>175</ele>
        <time>2023-04-28T12:47:54Z</time>
      </trkpt>
      <trkpt lat="43.47572" lon="6.2993">
        <ele>175</ele>
        <time>2023-04-28T12:47:55Z</time>
      </trkpt>
      <trkpt lat="43.47573" lon="6.29931">
        <ele>175</ele>
        <time>2023-04-28T12:47:56Z</time>
      </trkpt>
      <trkpt lat="43.47574" lon="6.29931">
        <ele>174</ele>
        <time>2023-04-28T12:47:57Z</time>
      </trkpt>
      <trkpt lat="43.47575" lon="6.29932">
        <ele>174</ele>
        <time>2023-04-28T12:47:58Z</time>
      </trkpt>
      <trkpt lat="43.47576" lon="6.29933">
        <ele>174</ele>
        <time>2023-04-28T12:47:59Z</time>
      </trkpt>
      <trkpt lat="43.47577" lon="6.29933">
        <ele>174</ele>
        <time>2023-04-28T12:48:00Z</time>
      </trkpt>
      <trkpt lat="43.47578" lon="6.29934">
        <ele>174</ele>
        <time>2023-04-28T12:48:01Z</time>
      </trkpt>
      <trkpt lat="43.47579" lon="6.29935">
        <ele>174</ele>
        <time>2023-04-28T12:48:02Z</time>
      </trkpt>
      <trkpt lat="43.4758" lon="6.29936">
        <ele>174</ele>
        <time>2023-04-28T12:48:03Z</time>
      </trkpt>
      <trkpt lat="43.47581" lon="6.29936">
        <ele>174</ele>
        <time>2023-04-28T12:48:04Z</time>
      </trkpt>
      <trkpt lat="43.47583" lon="6.29937">
        <ele>173</ele>
        <time>2023-04-28T12:48:05Z</time>
      </trkpt>
      <trkpt lat="43.47584" lon="6.29937">
        <ele>173</ele>
        <time>2023-04-28T12:48:06Z</time>
      </trkpt>
      <trkpt lat="43.47585" lon="6.29938">
        <ele>173</ele>
        <time>2023-04-28T12:48:07Z</time>
      </trkpt>
      <trkpt lat="43.47586" lon="6.29938">
        <ele>173</ele>
        <time>2023-04-28T12:48:08Z</time>
      </trkpt>
      <trkpt lat="43.47587" lon="6.29938">
        <ele>173</ele>
        <time>2023-04-28T12:48:09Z</time>
      </trkpt>
      <trkpt lat="43.47588" lon="6.29939">
        <ele>173</ele>
        <time>2023-04-28T12:48:10Z</time>
      </trkpt>
      <trkpt lat="43.47589" lon="6.29939">
        <ele>173</ele>
        <time>2023-04-28T12:48:11Z</time>
      </trkpt>
      <trkpt lat="43.4759" lon="6.2994">
        <ele>173</ele>
        <time>2023-04-28T12:48:12Z</time>
      </trkpt>
      <trkpt lat="43.47591" lon="6.2994">
        <ele>173</ele>
        <time>2023-04-28T12:48:13Z</time>
      </trkpt>
      <trkpt lat="43.47592" lon="6.29941">
        <ele>173</ele>
        <time>2023-04-28T12:48:14Z</time>
      </trkpt>
      <trkpt lat="43.47593" lon="6.29942">
        <ele>173</ele>
        <time>2023-04-28T12:48:15Z</time>
      </trkpt>
      <trkpt lat="43.47594" lon="6.29942">
        <ele>172</ele>
        <time>2023-04-28T12:48:16Z</time>
      </trkpt>
      <trkpt lat="43.47595" lon="6.29943">
        <ele>172</ele>
        <time>2023-04-28T12:48:17Z</time>
      </trkpt>
      <trkpt lat="43.47597" lon="6.29943">
        <ele>172</ele>
        <time>2023-04-28T12:48:18Z</time>
      </trkpt>
      <trkpt lat="43.47598" lon="6.29944">
        <ele>172</ele>
        <time>2023-04-28T12:48:19Z</time>
      </trkpt>
      <trkpt lat="43.47599" lon="6.29945">
        <ele>172</ele>
        <time>2023-04-28T12:48:20Z</time>
      </trkpt>
      <trkpt lat="43.476" lon="6.29945">
        <ele>172</ele>
        <time>2023-04-28T12:48:21Z</time>
      </trkpt>
      <trkpt lat="43.47601" lon="6.29946">
        <ele>172</ele>
        <time>2023-04-28T12:48:22Z</time>
      </trkpt>
      <trkpt lat="43.47602" lon="6.29947">
        <ele>172</ele>
        <time>2023-04-28T12:48:23Z</time>
      </trkpt>
      <trkpt lat="43.47603" lon="6.29947">
        <ele>173</ele>
        <time>2023-04-28T12:48:24Z</time>
      </trkpt>
      <trkpt lat="43.47604" lon="6.29948">
        <ele>173</ele>
        <time>2023-04-28T12:48:25Z</time>
      </trkpt>
      <trkpt lat="43.47605" lon="6.29948">
        <ele>173</ele>
        <time>2023-04-28T12:48:26Z</time>
      </trkpt>
      <trkpt lat="43.47606" lon="6.29949">
        <ele>173</ele>
        <time>2023-04-28T12:48:27Z</time>
      </trkpt>
      <trkpt lat="43.47607" lon="6.29949">
        <ele>173</ele>
        <time>2023-04-28T12:48:28Z</time>
      </trkpt>
      <trkpt lat="43.47608" lon="6.2995">
        <ele>173</ele>
        <time>2023-04-28T12:48:29Z</time>
      </trkpt>
      <trkpt lat="43.47609" lon="6.2995">
        <ele>173</ele>
        <time>2023-04-28T12:48:30Z</time>
      </trkpt>
      <trkpt lat="43.4761" lon="6.2995">
        <ele>173</ele>
        <time>2023-04-28T12:48:31Z</time>
      </trkpt>
      <trkpt lat="43.47611" lon="6.2995">
        <ele>173</ele>
        <time>2023-04-28T12:48:32Z</time>
      </trkpt>
      <trkpt lat="43.47612" lon="6.2995">
        <ele>173</ele>
        <time>2023-04-28T12:48:33Z</time>
      </trkpt>
      <trkpt lat="43.47613" lon="6.2995">
        <ele>173</ele>
        <time>2023-04-28T12:48:34Z</time>
      </trkpt>
      <trkpt lat="43.47614" lon="6.2995">
        <ele>173</ele>
        <time>2023-04-28T12:48:35Z</time>
      </trkpt>
      <trkpt lat="43.47614" lon="6.29951">
        <ele>173</ele>
        <time>2023-04-28T12:48:36Z</time>
      </trkpt>
      <trkpt lat="43.47615" lon="6.29951">
        <ele>174</ele>
        <time>2023-04-28T12:48:37Z</time>
      </trkpt>
      <trkpt lat="43.47616" lon="6.29951">
        <ele>174</ele>
        <time>2023-04-28T12:48:38Z</time>
      </trkpt>
      <trkpt lat="43.47617" lon="6.29951">
        <ele>174</ele>
        <time>2023-04-28T12:48:39Z</time>
      </trkpt>
      <trkpt lat="43.47618" lon="6.29951">
        <ele>174</ele>
        <time>2023-04-28T12:48:40Z</time>
      </trkpt>
      <trkpt lat="43.47619" lon="6.29951">
        <ele>174</ele>
        <time>2023-04-28T12:48:41Z</time>
      </trkpt>
      <trkpt lat="43.4762" lon="6.29951">
        <ele>174</ele>
        <time>2023-04-28T12:48:42Z</time>
      </trkpt>
      <trkpt lat="43.47621" lon="6.29951">
        <ele>174</ele>
        <time>2023-04-28T12:48:43Z</time>
      </trkpt>
      <trkpt lat="43.47622" lon="6.29951">
        <ele>174</ele>
        <time>2023-04-28T12:48:44Z</time>
      </trkpt>
      <trkpt lat="43.47623" lon="6.29951">
        <ele>174</ele>
        <time>2023-04-28T12:48:45Z</time>
      </trkpt>
      <trkpt lat="43.47624" lon="6.29951">
        <ele>174</ele>
        <time>2023-04-28T12:48:46Z</time>
      </trkpt>
      <trkpt lat="43.47625" lon="6.29952">
        <ele>174</ele>
        <time>2023-04-28T12:48:47Z</time>
      </trkpt>
      <trkpt lat="43.47625" lon="6.29952">
        <ele>174</ele>
        <time>2023-04-28T12:48:48Z</time>
      </trkpt>
      <trkpt lat="43.47626" lon="6.29953">
        <ele>174</ele>
        <time>2023-04-28T12:48:49Z</time>
      </trkpt>
      <trkpt lat="43.47627" lon="6.29954">
        <ele>174</ele>
        <time>2023-04-28T12:48:50Z</time>
      </trkpt>
      <trkpt lat="43.47628" lon="6.29954">
        <ele>174</ele>
        <time>2023-04-28T12:48:51Z</time>
      </trkpt>
      <trkpt lat="43.47629" lon="6.29955">
        <ele>174</ele>
        <time>2023-04-28T12:48:52Z</time>
      </trkpt>
      <trkpt lat="43.4763" lon="6.29956">
        <ele>174</ele>
        <time>2023-04-28T12:48:53Z</time>
      </trkpt>
      <trkpt lat="43.47631" lon="6.29956">
        <ele>174</ele>
        <time>2023-04-28T12:48:54Z</time>
      </trkpt>
      <trkpt lat="43.47632" lon="6.29956">
        <ele>173</ele>
        <time>2023-04-28T12:48:55Z</time>
      </trkpt>
      <trkpt lat="43.47633" lon="6.29957">
        <ele>173</ele>
        <time>2023-04-28T12:48:56Z</time>
      </trkpt>
      <trkpt lat="43.47634" lon="6.29958">
        <ele>173</ele>
        <time>2023-04-28T12:48:57Z</time>
      </trkpt>
      <trkpt lat="43.47634" lon="6.29959">
        <ele>173</ele>
        <time>2023-04-28T12:48:58Z</time>
      </trkpt>
      <trkpt lat="43.47635" lon="6.2996">
        <ele>173</ele>
        <time>2023-04-28T12:48:59Z</time>
      </trkpt>
      <trkpt lat="43.47635" lon="6.29961">
        <ele>172</ele>
        <time>2023-04-28T12:49:00Z</time>
      </trkpt>
      <trkpt lat="43.47635" lon="6.29962">
        <ele>172</ele>
        <time>2023-04-28T12:49:01Z</time>
      </trkpt>
      <trkpt lat="43.47636" lon="6.29962">
        <ele>172</ele>
        <time>2023-04-28T12:49:02Z</time>
      </trkpt>
      <trkpt lat="43.47637" lon="6.29963">
        <ele>172</ele>
        <time>2023-04-28T12:49:03Z</time>
      </trkpt>
      <trkpt lat="43.47638" lon="6.29962">
        <ele>172</ele>
        <time>2023-04-28T12:49:04Z</time>
      </trkpt>
      <trkpt lat="43.47639" lon="6.29962">
        <ele>172</ele>
        <time>2023-04-28T12:49:05Z</time>
      </trkpt>
      <trkpt lat="43.4764" lon="6.29962">
        <ele>172</ele>
        <time>2023-04-28T12:49:06Z</time>
      </trkpt>
      <trkpt lat="43.4764" lon="6.29962">
        <ele>171</ele>
        <time>2023-04-28T12:49:07Z</time>
      </trkpt>
      <trkpt lat="43.47641" lon="6.29961">
        <ele>171</ele>
        <time>2023-04-28T12:49:08Z</time>
      </trkpt>
      <trkpt lat="43.47642" lon="6.29961">
        <ele>171</ele>
        <time>2023-04-28T12:49:09Z</time>
      </trkpt>
      <trkpt lat="43.47643" lon="6.29961">
        <ele>171</ele>
        <time>2023-04-28T12:49:10Z</time>
      </trkpt>
      <trkpt lat="43.47644" lon="6.29961">
        <ele>171</ele>
        <time>2023-04-28T12:49:11Z</time>
      </trkpt>
      <trkpt lat="43.47645" lon="6.2996">
        <ele>171</ele>
        <time>2023-04-28T12:49:12Z</time>
      </trkpt>
      <trkpt lat="43.47646" lon="6.2996">
        <ele>171</ele>
        <time>2023-04-28T12:49:13Z</time>
      </trkpt>
      <trkpt lat="43.47647" lon="6.29959">
        <ele>171</ele>
        <time>2023-04-28T12:49:14Z</time>
      </trkpt>
      <trkpt lat="43.47648" lon="6.29959">
        <ele>171</ele>
        <time>2023-04-28T12:49:15Z</time>
      </trkpt>
      <trkpt lat="43.47649" lon="6.29958">
        <ele>171</ele>
        <time>2023-04-28T12:49:16Z</time>
      </trkpt>
      <trkpt lat="43.4765" lon="6.29958">
        <ele>171</ele>
        <time>2023-04-28T12:49:17Z</time>
      </trkpt>
      <trkpt lat="43.4765" lon="6.29957">
        <ele>171</ele>
        <time>2023-04-28T12:49:18Z</time>
      </trkpt>
      <trkpt lat="43.47651" lon="6.29957">
        <ele>171</ele>
        <time>2023-04-28T12:49:19Z</time>
      </trkpt>
      <trkpt lat="43.47652" lon="6.29956">
        <ele>171</ele>
        <time>2023-04-28T12:49:20Z</time>
      </trkpt>
      <trkpt lat="43.47653" lon="6.29955">
        <ele>171</ele>
        <time>2023-04-28T12:49:21Z</time>
      </trkpt>
      <trkpt lat="43.47654" lon="6.29955">
        <ele>171</ele>
        <time>2023-04-28T12:49:22Z</time>
      </trkpt>
      <trkpt lat="43.47655" lon="6.29954">
        <ele>171</ele>
        <time>2023-04-28T12:49:23Z</time>
      </trkpt>
      <trkpt lat="43.47656" lon="6.29954">
        <ele>171</ele>
        <time>2023-04-28T12:49:24Z</time>
      </trkpt>
      <trkpt lat="43.47657" lon="6.29953">
        <ele>171</ele>
        <time>2023-04-28T12:49:25Z</time>
      </trkpt>
      <trkpt lat="43.47658" lon="6.29952">
        <ele>171</ele>
        <time>2023-04-28T12:49:26Z</time>
      </trkpt>
      <trkpt lat="43.47658" lon="6.29952">
        <ele>172</ele>
        <time>2023-04-28T12:49:27Z</time>
      </trkpt>
      <trkpt lat="43.47659" lon="6.29951">
        <ele>172</ele>
        <time>2023-04-28T12:49:28Z</time>
      </trkpt>
      <trkpt lat="43.4766" lon="6.29951">
        <ele>172</ele>
        <time>2023-04-28T12:49:29Z</time>
      </trkpt>
      <trkpt lat="43.47661" lon="6.2995">
        <ele>172</ele>
        <time>2023-04-28T12:49:30Z</time>
      </trkpt>
      <trkpt lat="43.47662" lon="6.2995">
        <ele>172</ele>
        <time>2023-04-28T12:49:31Z</time>
      </trkpt>
      <trkpt lat="43.47663" lon="6.2995">
        <ele>172</ele>
        <time>2023-04-28T12:49:32Z</time>
      </trkpt>
      <trkpt lat="43.47664" lon="6.29949">
        <ele>172</ele>
        <time>2023-04-28T12:49:33Z</time>
      </trkpt>
      <trkpt lat="43.47665" lon="6.29948">
        <ele>172</ele>
        <time>2023-04-28T12:49:34Z</time>
      </trkpt>
      <trkpt lat="43.47666" lon="6.29948">
        <ele>172</ele>
        <time>2023-04-28T12:49:35Z</time>
      </trkpt>
      <trkpt lat="43.47666" lon="6.29947">
        <ele>172</ele>
        <time>2023-04-28T12:49:36Z</time>
      </trkpt>
      <trkpt lat="43.47667" lon="6.29946">
        <ele>172</ele>
        <time>2023-04-28T12:49:37Z</time>
      </trkpt>
      <trkpt lat="43.47668" lon="6.29945">
        <ele>172</ele>
        <time>2023-04-28T12:49:38Z</time>
      </trkpt>
      <trkpt lat="43.47669" lon="6.29944">
        <ele>171</ele>
        <time>2023-04-28T12:49:39Z</time>
      </trkpt>
      <trkpt lat="43.4767" lon="6.29943">
        <ele>170</ele>
        <time>2023-04-28T12:49:40Z</time>
      </trkpt>
      <trkpt lat="43.4767" lon="6.29941">
        <ele>170</ele>
        <time>2023-04-28T12:49:41Z</time>
      </trkpt>
      <trkpt lat="43.47671" lon="6.2994">
        <ele>170</ele>
        <time>2023-04-28T12:49:42Z</time>
      </trkpt>
      <trkpt lat="43.47671" lon="6.29939">
        <ele>170</ele>
        <time>2023-04-28T12:49:43Z</time>
      </trkpt>
      <trkpt lat="43.47672" lon="6.29938">
        <ele>170</ele>
        <time>2023-04-28T12:49:44Z</time>
      </trkpt>
      <trkpt lat="43.47673" lon="6.29937">
        <ele>169</ele>
        <time>2023-04-28T12:49:45Z</time>
      </trkpt>
      <trkpt lat="43.47674" lon="6.29935">
        <ele>169</ele>
        <time>2023-04-28T12:49:46Z</time>
      </trkpt>
      <trkpt lat="43.47675" lon="6.29933">
        <ele>169</ele>
        <time>2023-04-28T12:49:47Z</time>
      </trkpt>
      <trkpt lat="43.47675" lon="6.29932">
        <ele>168</ele>
        <time>2023-04-28T12:49:48Z</time>
      </trkpt>
      <trkpt lat="43.47676" lon="6.29931">
        <ele>167</ele>
        <time>2023-04-28T12:49:49Z</time>
      </trkpt>
      <trkpt lat="43.47677" lon="6.2993">
        <ele>167</ele>
        <time>2023-04-28T12:49:50Z</time>
      </trkpt>
      <trkpt lat="43.47678" lon="6.29929">
        <ele>167</ele>
        <time>2023-04-28T12:49:51Z</time>
      </trkpt>
      <trkpt lat="43.47678" lon="6.29927">
        <ele>166</ele>
        <time>2023-04-28T12:49:52Z</time>
      </trkpt>
      <trkpt lat="43.47679" lon="6.29926">
        <ele>166</ele>
        <time>2023-04-28T12:49:53Z</time>
      </trkpt>
      <trkpt lat="43.47679" lon="6.29924">
        <ele>166</ele>
        <time>2023-04-28T12:49:54Z</time>
      </trkpt>
      <trkpt lat="43.4768" lon="6.29923">
        <ele>166</ele>
        <time>2023-04-28T12:49:55Z</time>
      </trkpt>
      <trkpt lat="43.4768" lon="6.29921">
        <ele>165</ele>
        <time>2023-04-28T12:49:56Z</time>
      </trkpt>
      <trkpt lat="43.4768" lon="6.2992">
        <ele>165</ele>
        <time>2023-04-28T12:49:57Z</time>
      </trkpt>
      <trkpt lat="43.4768" lon="6.29918">
        <ele>164</ele>
        <time>2023-04-28T12:49:58Z</time>
      </trkpt>
      <trkpt lat="43.4768" lon="6.29917">
        <ele>164</ele>
        <time>2023-04-28T12:49:59Z</time>
      </trkpt>
      <trkpt lat="43.47681" lon="6.29916">
        <ele>163</ele>
        <time>2023-04-28T12:50:00Z</time>
      </trkpt>
      <trkpt lat="43.47681" lon="6.29915">
        <ele>163</ele>
        <time>2023-04-28T12:50:01Z</time>
      </trkpt>
      <trkpt lat="43.47682" lon="6.29914">
        <ele>163</ele>
        <time>2023-04-28T12:50:02Z</time>
      </trkpt>
      <trkpt lat="43.47682" lon="6.29912">
        <ele>163</ele>
        <time>2023-04-28T12:50:03Z</time>
      </trkpt>
      <trkpt lat="43.47683" lon="6.29911">
        <ele>163</ele>
        <time>2023-04-28T12:50:04Z</time>
      </trkpt>
      <trkpt lat="43.47683" lon="6.29909">
        <ele>163</ele>
        <time>2023-04-28T12:50:05Z</time>
      </trkpt>
      <trkpt lat="43.47683" lon="6.29907">
        <ele>162</ele>
        <time>2023-04-28T12:50:06Z</time>
      </trkpt>
      <trkpt lat="43.47684" lon="6.29906">
        <ele>162</ele>
        <time>2023-04-28T12:50:07Z</time>
      </trkpt>
      <trkpt lat="43.47684" lon="6.29904">
        <ele>162</ele>
        <time>2023-04-28T12:50:08Z</time>
      </trkpt>
      <trkpt lat="43.47685" lon="6.29903">
        <ele>162</ele>
        <time>2023-04-28T12:50:09Z</time>
      </trkpt>
      <trkpt lat="43.47685" lon="6.29901">
        <ele>162</ele>
        <time>2023-04-28T12:50:10Z</time>
      </trkpt>
      <trkpt lat="43.47685" lon="6.29899">
        <ele>162</ele>
        <time>2023-04-28T12:50:11Z</time>
      </trkpt>
      <trkpt lat="43.47686" lon="6.29897">
        <ele>162</ele>
        <time>2023-04-28T12:50:12Z</time>
      </trkpt>
      <trkpt lat="43.47686" lon="6.29896">
        <ele>162</ele>
        <time>2023-04-28T12:50:13Z</time>
      </trkpt>
      <trkpt lat="43.47686" lon="6.29894">
        <ele>162</ele>
        <time>2023-04-28T12:50:14Z</time>
      </trkpt>
      <trkpt lat="43.47686" lon="6.29892">
        <ele>162</ele>
        <time>2023-04-28T12:50:15Z</time>
      </trkpt>
      <trkpt lat="43.47687" lon="6.29891">
        <ele>161</ele>
        <time>2023-04-28T12:50:16Z</time>
      </trkpt>
      <trkpt lat="43.47687" lon="6.29889">
        <ele>160</ele>
        <time>2023-04-28T12:50:17Z</time>
      </trkpt>
      <trkpt lat="43.47687" lon="6.29887">
        <ele>160</ele>
        <time>2023-04-28T12:50:18Z</time>
      </trkpt>
      <trkpt lat="43.47687" lon="6.29885">
        <ele>160</ele>
        <time>2023-04-28T12:50:19Z</time>
      </trkpt>
      <trkpt lat="43.47688" lon="6.29884">
        <ele>160</ele>
        <time>2023-04-28T12:50:20Z</time>
      </trkpt>
      <trkpt lat="43.47688" lon="6.29882">
        <ele>160</ele>
        <time>2023-04-28T12:50:21Z</time>
      </trkpt>
      <trkpt lat="43.47688" lon="6.2988">
        <ele>160</ele>
        <time>2023-04-28T12:50:22Z</time>
      </trkpt>
      <trkpt lat="43.47689" lon="6.29878">
        <ele>160</ele>
        <time>2023-04-28T12:50:23Z</time>
      </trkpt>
      <trkpt lat="43.47689" lon="6.29876">
        <ele>160</ele>
        <time>2023-04-28T12:50:24Z</time>
      </trkpt>
      <trkpt lat="43.47689" lon="6.29874">
        <ele>160</ele>
        <time>2023-04-28T12:50:25Z</time>
      </trkpt>
      <trkpt lat="43.47689" lon="6.29873">
        <ele>159</ele>
        <time>2023-04-28T12:50:26Z</time>
      </trkpt>
      <trkpt lat="43.4769" lon="6.29871">
        <ele>159</ele>
        <time>2023-04-28T12:50:27Z</time>
      </trkpt>
      <trkpt lat="43.4769" lon="6.2987">
        <ele>159</ele>
        <time>2023-04-28T12:50:28Z</time>
      </trkpt>
      <trkpt lat="43.4769" lon="6.29868">
        <ele>159</ele>
        <time>2023-04-28T12:50:29Z</time>
      </trkpt>
      <trkpt lat="43.47691" lon="6.29866">
        <ele>159</ele>
        <time>2023-04-28T12:50:30Z</time>
      </trkpt>
      <trkpt lat="43.47691" lon="6.29865">
        <ele>159</ele>
        <time>2023-04-28T12:50:31Z</time>
      </trkpt>
      <trkpt lat="43.47692" lon="6.29863">
        <ele>159</ele>
        <time>2023-04-28T12:50:32Z</time>
      </trkpt>
      <trkpt lat="43.47692" lon="6.29861">
        <ele>159</ele>
        <time>2023-04-28T12:50:33Z</time>
      </trkpt>
      <trkpt lat="43.47692" lon="6.2986">
        <ele>159</ele>
        <time>2023-04-28T12:50:34Z</time>
      </trkpt>
      <trkpt lat="43.47693" lon="6.29858">
        <ele>159</ele>
        <time>2023-04-28T12:50:35Z</time>
      </trkpt>
      <trkpt lat="43.47693" lon="6.29857">
        <ele>159</ele>
        <time>2023-04-28T12:50:36Z</time>
      </trkpt>
      <trkpt lat="43.47693" lon="6.29856">
        <ele>159</ele>
        <time>2023-04-28T12:50:37Z</time>
      </trkpt>
      <trkpt lat="43.47693" lon="6.29855">
        <ele>159</ele>
        <time>2023-04-28T12:50:38Z</time>
      </trkpt>
      <trkpt lat="43.47693" lon="6.29853">
        <ele>159</ele>
        <time>2023-04-28T12:50:39Z</time>
      </trkpt>
      <trkpt lat="43.47693" lon="6.29852">
        <ele>159</ele>
        <time>2023-04-28T12:50:40Z</time>
      </trkpt>
      <trkpt lat="43.47694" lon="6.2985">
        <ele>159</ele>
        <time>2023-04-28T12:50:41Z</time>
      </trkpt>
      <trkpt lat="43.47693" lon="6.29849">
        <ele>159</ele>
        <time>2023-04-28T12:50:42Z</time>
      </trkpt>
      <trkpt lat="43.47694" lon="6.29847">
        <ele>159</ele>
        <time>2023-04-28T12:50:43Z</time>
      </trkpt>
      <trkpt lat="43.47694" lon="6.29846">
        <ele>158</ele>
        <time>2023-04-28T12:50:44Z</time>
      </trkpt>
      <trkpt lat="43.47694" lon="6.29845">
        <ele>158</ele>
        <time>2023-04-28T12:50:45Z</time>
      </trkpt>
      <trkpt lat="43.47694" lon="6.29844">
        <ele>158</ele>
        <time>2023-04-28T12:50:46Z</time>
      </trkpt>
      <trkpt lat="43.47693" lon="6.29843">
        <ele>158</ele>
        <time>2023-04-28T12:50:47Z</time>
      </trkpt>
      <trkpt lat="43.47693" lon="6.29842">
        <ele>158</ele>
        <time>2023-04-28T12:50:48Z</time>
      </trkpt>
      <trkpt lat="43.47693" lon="6.29841">
        <ele>158</ele>
        <time>2023-04-28T12:50:49Z</time>
      </trkpt>
      <trkpt lat="43.47693" lon="6.29839">
        <ele>158</ele>
        <time>2023-04-28T12:50:50Z</time>
      </trkpt>
      <trkpt lat="43.47693" lon="6.29838">
        <ele>158</ele>
        <time>2023-04-28T12:50:51Z</time>
      </trkpt>
      <trkpt lat="43.47693" lon="6.29836">
        <ele>158</ele>
        <time>2023-04-28T12:50:52Z</time>
      </trkpt>
      <trkpt lat="43.47693" lon="6.29835">
        <ele>158</ele>
        <time>2023-04-28T12:50:53Z</time>
      </trkpt>
      <trkpt lat="43.47693" lon="6.29833">
        <ele>158</ele>
        <time>2023-04-28T12:50:54Z</time>
      </trkpt>
      <trkpt lat="43.47693" lon="6.29832">
        <ele>158</ele>
        <time>2023-04-28T12:50:55Z</time>
      </trkpt>
      <trkpt lat="43.47693" lon="6.2983">
        <ele>158</ele>
        <time>2023-04-28T12:50:56Z</time>
      </trkpt>
      <trkpt lat="43.47694" lon="6.29829">
        <ele>158</ele>
        <time>2023-04-28T12:50:57Z</time>
      </trkpt>
      <trkpt lat="43.47694" lon="6.29827">
        <ele>158</ele>
        <time>2023-04-28T12:50:58Z</time>
      </trkpt>
      <trkpt lat="43.47694" lon="6.29826">
        <ele>158</ele>
        <time>2023-04-28T12:50:59Z</time>
      </trkpt>
      <trkpt lat="43.47694" lon="6.29825">
        <ele>159</ele>
        <time>2023-04-28T12:51:00Z</time>
      </trkpt>
      <trkpt lat="43.47694" lon="6.29824">
        <ele>160</ele>
        <time>2023-04-28T12:51:01Z</time>
      </trkpt>
      <trkpt lat="43.47694" lon="6.29822">
        <ele>160</ele>
        <time>2023-04-28T12:51:02Z</time>
      </trkpt>
      <trkpt lat="43.47694" lon="6.29821">
        <ele>160</ele>
        <time>2023-04-28T12:51:03Z</time>
      </trkpt>
      <trkpt lat="43.47695" lon="6.2982">
        <ele>160</ele>
        <time>2023-04-28T12:51:04Z</time>
      </trkpt>
      <trkpt lat="43.47695" lon="6.29818">
        <ele>160</ele>
        <time>2023-04-28T12:51:05Z</time>
      </trkpt>
      <trkpt lat="43.47695" lon="6.29817">
        <ele>160</ele>
        <time>2023-04-28T12:51:06Z</time>
      </trkpt>
      <trkpt lat="43.47696" lon="6.29816">
        <ele>160</ele>
        <time>2023-04-28T12:51:07Z</time>
      </trkpt>
      <trkpt lat="43.47696" lon="6.29814">
        <ele>160</ele>
        <time>2023-04-28T12:51:08Z</time>
      </trkpt>
      <trkpt lat="43.47696" lon="6.29813">
        <ele>160</ele>
        <time>2023-04-28T12:51:09Z</time>
      </trkpt>
      <trkpt lat="43.47696" lon="6.29812">
        <ele>160</ele>
        <time>2023-04-28T12:51:10Z</time>
      </trkpt>
      <trkpt lat="43.47697" lon="6.29811">
        <ele>161</ele>
        <time>2023-04-28T12:51:11Z</time>
      </trkpt>
      <trkpt lat="43.47697" lon="6.2981">
        <ele>162</ele>
        <time>2023-04-28T12:51:12Z</time>
      </trkpt>
      <trkpt lat="43.47697" lon="6.29809">
        <ele>162</ele>
        <time>2023-04-28T12:51:13Z</time>
      </trkpt>
      <trkpt lat="43.47697" lon="6.29808">
        <ele>163</ele>
        <time>2023-04-28T12:51:14Z</time>
      </trkpt>
      <trkpt lat="43.47698" lon="6.29806">
        <ele>163</ele>
        <time>2023-04-28T12:51:15Z</time>
      </trkpt>
      <trkpt lat="43.47698" lon="6.29805">
        <ele>164</ele>
        <time>2023-04-28T12:51:16Z</time>
      </trkpt>
      <trkpt lat="43.47698" lon="6.29804">
        <ele>165</ele>
        <time>2023-04-28T12:51:17Z</time>
      </trkpt>
      <trkpt lat="43.47698" lon="6.29803">
        <ele>165</ele>
        <time>2023-04-28T12:51:18Z</time>
      </trkpt>
      <trkpt lat="43.47698" lon="6.29802">
        <ele>165</ele>
        <time>2023-04-28T12:51:19Z</time>
      </trkpt>
      <trkpt lat="43.47699" lon="6.29801">
        <ele>165</ele>
        <time>2023-04-28T12:51:20Z</time>
      </trkpt>
      <trkpt lat="43.47699" lon="6.298">
        <ele>166</ele>
        <time>2023-04-28T12:51:21Z</time>
      </trkpt>
      <trkpt lat="43.47699" lon="6.29799">
        <ele>166</ele>
        <time>2023-04-28T12:51:22Z</time>
      </trkpt>
      <trkpt lat="43.477" lon="6.29797">
        <ele>166</ele>
        <time>2023-04-28T12:51:23Z</time>
      </trkpt>
      <trkpt lat="43.477" lon="6.29796">
        <ele>166</ele>
        <time>2023-04-28T12:51:24Z</time>
      </trkpt>
      <trkpt lat="43.477" lon="6.29795">
        <ele>166</ele>
        <time>2023-04-28T12:51:25Z</time>
      </trkpt>
      <trkpt lat="43.477" lon="6.29793">
        <ele>166</ele>
        <time>2023-04-28T12:51:26Z</time>
      </trkpt>
      <trkpt lat="43.477" lon="6.29792">
        <ele>165</ele>
        <time>2023-04-28T12:51:27Z</time>
      </trkpt>
      <trkpt lat="43.47701" lon="6.29791">
        <ele>165</ele>
        <time>2023-04-28T12:51:28Z</time>
      </trkpt>
      <trkpt lat="43.47701" lon="6.2979">
        <ele>165</ele>
        <time>2023-04-28T12:51:29Z</time>
      </trkpt>
      <trkpt lat="43.47701" lon="6.29789">
        <ele>165</ele>
        <time>2023-04-28T12:51:30Z</time>
      </trkpt>
      <trkpt lat="43.47702" lon="6.29788">
        <ele>165</ele>
        <time>2023-04-28T12:51:31Z</time>
      </trkpt>
      <trkpt lat="43.47702" lon="6.29787">
        <ele>165</ele>
        <time>2023-04-28T12:51:32Z</time>
      </trkpt>
      <trkpt lat="43.47702" lon="6.29786">
        <ele>165</ele>
        <time>2023-04-28T12:51:33Z</time>
      </trkpt>
      <trkpt lat="43.47702" lon="6.29785">
        <ele>165</ele>
        <time>2023-04-28T12:51:34Z</time>
      </trkpt>
      <trkpt lat="43.47702" lon="6.29784">
        <ele>165</ele>
        <time>2023-04-28T12:51:35Z</time>
      </trkpt>
      <trkpt lat="43.47703" lon="6.29783">
        <ele>165</ele>
        <time>2023-04-28T12:51:36Z</time>
      </trkpt>
      <trkpt lat="43.47703" lon="6.29781">
        <ele>165</ele>
        <time>2023-04-28T12:51:37Z</time>
      </trkpt>
      <trkpt lat="43.47703" lon="6.2978">
        <ele>165</ele>
        <time>2023-04-28T12:51:38Z</time>
      </trkpt>
      <trkpt lat="43.47703" lon="6.29779">
        <ele>165</ele>
        <time>2023-04-28T12:51:39Z</time>
      </trkpt>
      <trkpt lat="43.47702" lon="6.29778">
        <ele>165</ele>
        <time>2023-04-28T12:51:40Z</time>
      </trkpt>
      <trkpt lat="43.47702" lon="6.29776">
        <ele>165</ele>
        <time>2023-04-28T12:51:41Z</time>
      </trkpt>
      <trkpt lat="43.47701" lon="6.29775">
        <ele>165</ele>
        <time>2023-04-28T12:51:42Z</time>
      </trkpt>
      <trkpt lat="43.47701" lon="6.29775">
        <ele>165</ele>
        <time>2023-04-28T12:51:43Z</time>
      </trkpt>
      <trkpt lat="43.477" lon="6.29775">
        <ele>165</ele>
        <time>2023-04-28T12:51:44Z</time>
      </trkpt>
      <trkpt lat="43.477" lon="6.29774">
        <ele>165</ele>
        <time>2023-04-28T12:51:45Z</time>
      </trkpt>
      <trkpt lat="43.477" lon="6.29773">
        <ele>165</ele>
        <time>2023-04-28T12:51:46Z</time>
      </trkpt>
      <trkpt lat="43.477" lon="6.29772">
        <ele>165</ele>
        <time>2023-04-28T12:51:47Z</time>
      </trkpt>
      <trkpt lat="43.477" lon="6.29771">
        <ele>165</ele>
        <time>2023-04-28T12:51:48Z</time>
      </trkpt>
      <trkpt lat="43.47701" lon="6.2977">
        <ele>165</ele>
        <time>2023-04-28T12:51:49Z</time>
      </trkpt>
      <trkpt lat="43.47701" lon="6.2977">
        <ele>165</ele>
        <time>2023-04-28T12:51:50Z</time>
      </trkpt>
      <trkpt lat="43.47701" lon="6.29769">
        <ele>165</ele>
        <time>2023-04-28T12:51:51Z</time>
      </trkpt>
      <trkpt lat="43.47702" lon="6.29768">
        <ele>165</ele>
        <time>2023-04-28T12:51:52Z</time>
      </trkpt>
      <trkpt lat="43.47702" lon="6.29766">
        <ele>165</ele>
        <time>2023-04-28T12:51:53Z</time>
      </trkpt>
      <trkpt lat="43.47702" lon="6.29765">
        <ele>165</ele>
        <time>2023-04-28T12:51:54Z</time>
      </trkpt>
      <trkpt lat="43.47702" lon="6.29763">
        <ele>165</ele>
        <time>2023-04-28T12:51:55Z</time>
      </trkpt>
      <trkpt lat="43.47703" lon="6.29762">
        <ele>165</ele>
        <time>2023-04-28T12:51:56Z</time>
      </trkpt>
      <trkpt lat="43.47703" lon="6.2976">
        <ele>165</ele>
        <time>2023-04-28T12:51:57Z</time>
      </trkpt>
      <trkpt lat="43.47703" lon="6.29759">
        <ele>165</ele>
        <time>2023-04-28T12:51:58Z</time>
      </trkpt>
      <trkpt lat="43.47703" lon="6.29757">
        <ele>165</ele>
        <time>2023-04-28T12:51:59Z</time>
      </trkpt>
      <trkpt lat="43.47703" lon="6.29756">
        <ele>165</ele>
        <time>2023-04-28T12:52:00Z</time>
      </trkpt>
      <trkpt lat="43.47704" lon="6.29755">
        <ele>165</ele>
        <time>2023-04-28T12:52:01Z</time>
      </trkpt>
      <trkpt lat="43.47704" lon="6.29755">
        <ele>165</ele>
        <time>2023-04-28T12:52:02Z</time>
      </trkpt>
      <trkpt lat="43.47705" lon="6.29754">
        <ele>165</ele>
        <time>2023-04-28T12:52:03Z</time>
      </trkpt>
      <trkpt lat="43.47705" lon="6.29754">
        <ele>165</ele>
        <time>2023-04-28T12:52:04Z</time>
      </trkpt>
      <trkpt lat="43.47705" lon="6.29753">
        <ele>165</ele>
        <time>2023-04-28T12:52:05Z</time>
      </trkpt>
      <trkpt lat="43.47705" lon="6.29754">
        <ele>165</ele>
        <time>2023-04-28T12:52:06Z</time>
      </trkpt>
      <trkpt lat="43.47705" lon="6.29754">
        <ele>165</ele>
        <time>2023-04-28T12:52:07Z</time>
      </trkpt>
      <trkpt lat="43.47705" lon="6.29753">
        <ele>165</ele>
        <time>2023-04-28T12:52:08Z</time>
      </trkpt>
      <trkpt lat="43.47705" lon="6.29753">
        <ele>165</ele>
        <time>2023-04-28T12:52:09Z</time>
      </trkpt>
      <trkpt lat="43.47705" lon="6.29752">
        <ele>165</ele>
        <time>2023-04-28T12:52:10Z</time>
      </trkpt>
      <trkpt lat="43.47705" lon="6.29752">
        <ele>165</ele>
        <time>2023-04-28T12:52:11Z</time>
      </trkpt>
      <trkpt lat="43.47705" lon="6.29751">
        <ele>165</ele>
        <time>2023-04-28T12:52:12Z</time>
      </trkpt>
      <trkpt lat="43.47705" lon="6.29751">
        <ele>165</ele>
        <time>2023-04-28T12:52:13Z</time>
      </trkpt>
      <trkpt lat="43.47705" lon="6.2975">
        <ele>165</ele>
        <time>2023-04-28T12:52:14Z</time>
      </trkpt>
      <trkpt lat="43.47705" lon="6.29751">
        <ele>165</ele>
        <time>2023-04-28T12:52:15Z</time>
      </trkpt>
      <trkpt lat="43.47705" lon="6.29751">
        <ele>164</ele>
        <time>2023-04-28T12:52:16Z</time>
      </trkpt>
      <trkpt lat="43.47706" lon="6.29751">
        <ele>164</ele>
        <time>2023-04-28T12:52:17Z</time>
      </trkpt>
      <trkpt lat="43.47706" lon="6.29751">
        <ele>164</ele>
        <time>2023-04-28T12:52:18Z</time>
      </trkpt>
      <trkpt lat="43.47706" lon="6.29751">
        <ele>164</ele>
        <time>2023-04-28T12:52:19Z</time>
      </trkpt>
      <trkpt lat="43.47706" lon="6.2975">
        <ele>163</ele>
        <time>2023-04-28T12:52:20Z</time>
      </trkpt>
      <trkpt lat="43.47707" lon="6.29749">
        <ele>163</ele>
        <time>2023-04-28T12:52:21Z</time>
      </trkpt>
      <trkpt lat="43.47707" lon="6.29748">
        <ele>163</ele>
        <time>2023-04-28T12:52:22Z</time>
      </trkpt>
      <trkpt lat="43.47708" lon="6.29747">
        <ele>163</ele>
        <time>2023-04-28T12:52:23Z</time>
      </trkpt>
      <trkpt lat="43.47709" lon="6.29746">
        <ele>163</ele>
        <time>2023-04-28T12:52:24Z</time>
      </trkpt>
      <trkpt lat="43.47709" lon="6.29745">
        <ele>163</ele>
        <time>2023-04-28T12:52:25Z</time>
      </trkpt>
      <trkpt lat="43.4771" lon="6.29745">
        <ele>163</ele>
        <time>2023-04-28T12:52:26Z</time>
      </trkpt>
      <trkpt lat="43.4771" lon="6.29744">
        <ele>163</ele>
        <time>2023-04-28T12:52:27Z</time>
      </trkpt>
      <trkpt lat="43.47709" lon="6.29743">
        <ele>163</ele>
        <time>2023-04-28T12:52:28Z</time>
      </trkpt>
      <trkpt lat="43.47709" lon="6.29742">
        <ele>163</ele>
        <time>2023-04-28T12:52:29Z</time>
      </trkpt>
      <trkpt lat="43.47709" lon="6.29742">
        <ele>163</ele>
        <time>2023-04-28T12:52:30Z</time>
      </trkpt>
      <trkpt lat="43.4771" lon="6.29741">
        <ele>163</ele>
        <time>2023-04-28T12:52:31Z</time>
      </trkpt>
      <trkpt lat="43.4771" lon="6.2974">
        <ele>162</ele>
        <time>2023-04-28T12:52:32Z</time>
      </trkpt>
      <trkpt lat="43.4771" lon="6.2974">
        <ele>162</ele>
        <time>2023-04-28T12:52:33Z</time>
      </trkpt>
      <trkpt lat="43.47709" lon="6.2974">
        <ele>162</ele>
        <time>2023-04-28T12:52:34Z</time>
      </trkpt>
      <trkpt lat="43.47709" lon="6.2974">
        <ele>162</ele>
        <time>2023-04-28T12:52:35Z</time>
      </trkpt>
      <trkpt lat="43.47709" lon="6.29739">
        <ele>161</ele>
        <time>2023-04-28T12:52:36Z</time>
      </trkpt>
      <trkpt lat="43.47709" lon="6.29738">
        <ele>161</ele>
        <time>2023-04-28T12:52:37Z</time>
      </trkpt>
      <trkpt lat="43.4771" lon="6.29738">
        <ele>160</ele>
        <time>2023-04-28T12:52:38Z</time>
      </trkpt>
      <trkpt lat="43.47711" lon="6.29737">
        <ele>160</ele>
        <time>2023-04-28T12:52:39Z</time>
      </trkpt>
      <trkpt lat="43.47711" lon="6.29736">
        <ele>160</ele>
        <time>2023-04-28T12:52:40Z</time>
      </trkpt>
      <trkpt lat="43.4771" lon="6.29735">
        <ele>160</ele>
        <time>2023-04-28T12:52:41Z</time>
      </trkpt>
      <trkpt lat="43.4771" lon="6.29733">
        <ele>160</ele>
        <time>2023-04-28T12:52:42Z</time>
      </trkpt>
      <trkpt lat="43.4771" lon="6.29732">
        <ele>160</ele>
        <time>2023-04-28T12:52:43Z</time>
      </trkpt>
      <trkpt lat="43.47709" lon="6.29731">
        <ele>160</ele>
        <time>2023-04-28T12:52:44Z</time>
      </trkpt>
      <trkpt lat="43.47709" lon="6.29731">
        <ele>160</ele>
        <time>2023-04-28T12:52:45Z</time>
      </trkpt>
      <trkpt lat="43.47709" lon="6.2973">
        <ele>160</ele>
        <time>2023-04-28T12:52:46Z</time>
      </trkpt>
      <trkpt lat="43.47709" lon="6.29729">
        <ele>160</ele>
        <time>2023-04-28T12:52:47Z</time>
      </trkpt>
      <trkpt lat="43.47709" lon="6.29728">
        <ele>159</ele>
        <time>2023-04-28T12:52:48Z</time>
      </trkpt>
      <trkpt lat="43.47709" lon="6.29726">
        <ele>159</ele>
        <time>2023-04-28T12:52:49Z</time>
      </trkpt>
      <trkpt lat="43.4771" lon="6.29725">
        <ele>159</ele>
        <time>2023-04-28T12:52:50Z</time>
      </trkpt>
      <trkpt lat="43.47711" lon="6.29724">
        <ele>159</ele>
        <time>2023-04-28T12:52:51Z</time>
      </trkpt>
      <trkpt lat="43.47712" lon="6.29723">
        <ele>159</ele>
        <time>2023-04-28T12:52:52Z</time>
      </trkpt>
      <trkpt lat="43.47712" lon="6.29723">
        <ele>159</ele>
        <time>2023-04-28T12:52:53Z</time>
      </trkpt>
      <trkpt lat="43.47713" lon="6.29722">
        <ele>159</ele>
        <time>2023-04-28T12:52:54Z</time>
      </trkpt>
      <trkpt lat="43.47713" lon="6.29722">
        <ele>159</ele>
        <time>2023-04-28T12:52:55Z</time>
      </trkpt>
      <trkpt lat="43.47713" lon="6.29722">
        <ele>159</ele>
        <time>2023-04-28T12:52:56Z</time>
      </trkpt>
      <trkpt lat="43.47713" lon="6.29722">
        <ele>159</ele>
        <time>2023-04-28T12:52:57Z</time>
      </trkpt>
      <trkpt lat="43.47713" lon="6.29722">
        <ele>159</ele>
        <time>2023-04-28T12:52:58Z</time>
      </trkpt>
      <trkpt lat="43.47713" lon="6.29722">
        <ele>159</ele>
        <time>2023-04-28T12:52:59Z</time>
      </trkpt>
      <trkpt lat="43.47713" lon="6.29722">
        <ele>159</ele>
        <time>2023-04-28T12:53:00Z</time>
      </trkpt>
      <trkpt lat="43.47713" lon="6.29722">
        <ele>159</ele>
        <time>2023-04-28T12:53:01Z</time>
      </trkpt>
      <trkpt lat="43.47713" lon="6.29723">
        <ele>158</ele>
        <time>2023-04-28T12:53:02Z</time>
      </trkpt>
      <trkpt lat="43.47712" lon="6.29723">
        <ele>158</ele>
        <time>2023-04-28T12:53:03Z</time>
      </trkpt>
      <trkpt lat="43.47712" lon="6.29723">
        <ele>158</ele>
        <time>2023-04-28T12:53:04Z</time>
      </trkpt>
      <trkpt lat="43.47711" lon="6.29723">
        <ele>158</ele>
        <time>2023-04-28T12:53:05Z</time>
      </trkpt>
      <trkpt lat="43.47711" lon="6.29722">
        <ele>158</ele>
        <time>2023-04-28T12:53:06Z</time>
      </trkpt>
      <trkpt lat="43.47711" lon="6.29721">
        <ele>158</ele>
        <time>2023-04-28T12:53:07Z</time>
      </trkpt>
      <trkpt lat="43.4771" lon="6.29721">
        <ele>158</ele>
        <time>2023-04-28T12:53:08Z</time>
      </trkpt>
      <trkpt lat="43.4771" lon="6.2972">
        <ele>158</ele>
        <time>2023-04-28T12:53:09Z</time>
      </trkpt>
      <trkpt lat="43.4771" lon="6.29719">
        <ele>158</ele>
        <time>2023-04-28T12:53:10Z</time>
      </trkpt>
      <trkpt lat="43.4771" lon="6.29718">
        <ele>158</ele>
        <time>2023-04-28T12:53:11Z</time>
      </trkpt>
      <trkpt lat="43.47711" lon="6.29717">
        <ele>158</ele>
        <time>2023-04-28T12:53:12Z</time>
      </trkpt>
      <trkpt lat="43.47711" lon="6.29716">
        <ele>158</ele>
        <time>2023-04-28T12:53:13Z</time>
      </trkpt>
      <trkpt lat="43.47711" lon="6.29716">
        <ele>158</ele>
        <time>2023-04-28T12:53:14Z</time>
      </trkpt>
      <trkpt lat="43.47711" lon="6.29716">
        <ele>158</ele>
        <time>2023-04-28T12:53:15Z</time>
      </trkpt>
      <trkpt lat="43.47711" lon="6.29716">
        <ele>157</ele>
        <time>2023-04-28T12:53:16Z</time>
      </trkpt>
      <trkpt lat="43.47711" lon="6.29716">
        <ele>157</ele>
        <time>2023-04-28T12:53:17Z</time>
      </trkpt>
      <trkpt lat="43.47711" lon="6.29716">
        <ele>157</ele>
        <time>2023-04-28T12:53:18Z</time>
      </trkpt>
      <trkpt lat="43.47711" lon="6.29716">
        <ele>158</ele>
        <time>2023-04-28T12:53:19Z</time>
      </trkpt>
      <trkpt lat="43.47711" lon="6.29716">
        <ele>158</ele>
        <time>2023-04-28T12:53:20Z</time>
      </trkpt>
      <trkpt lat="43.47711" lon="6.29716">
        <ele>158</ele>
        <time>2023-04-28T12:53:21Z</time>
      </trkpt>
      <trkpt lat="43.47711" lon="6.29716">
        <ele>158</ele>
        <time>2023-04-28T12:53:22Z</time>
      </trkpt>
      <trkpt lat="43.47711" lon="6.29716">
        <ele>158</ele>
        <time>2023-04-28T12:53:23Z</time>
      </trkpt>
      <trkpt lat="43.47711" lon="6.29716">
        <ele>158</ele>
        <time>2023-04-28T12:53:24Z</time>
      </trkpt>
      <trkpt lat="43.47711" lon="6.29716">
        <ele>158</ele>
        <time>2023-04-28T12:53:25Z</time>
      </trkpt>
      <trkpt lat="43.47711" lon="6.29716">
        <ele>158</ele>
        <time>2023-04-28T12:53:26Z</time>
      </trkpt>
      <trkpt lat="43.47711" lon="6.29716">
        <ele>158</ele>
        <time>2023-04-28T12:53:27Z</time>
      </trkpt>
      <trkpt lat="43.47711" lon="6.29716">
        <ele>158</ele>
        <time>2023-04-28T12:53:28Z</time>
      </trkpt>
      <trkpt lat="43.47712" lon="6.29719">
        <ele>158</ele>
        <time>2023-04-28T12:53:29Z</time>
      </trkpt>
      <trkpt lat="43.47712" lon="6.29719">
        <ele>158</ele>
        <time>2023-04-28T12:53:30Z</time>
      </trkpt>
      <trkpt lat="43.47712" lon="6.29719">
        <ele>158</ele>
        <time>2023-04-28T12:53:31Z</time>
      </trkpt>
      <trkpt lat="43.47712" lon="6.29719">
        <ele>158</ele>
        <time>2023-04-28T12:53:32Z</time>
      </trkpt>
      <trkpt lat="43.47712" lon="6.29719">
        <ele>158</ele>
        <time>2023-04-28T12:53:33Z</time>
      </trkpt>
      <trkpt lat="43.47712" lon="6.29719">
        <ele>158</ele>
        <time>2023-04-28T12:53:34Z</time>
      </trkpt>
      <trkpt lat="43.47712" lon="6.29719">
        <ele>158</ele>
        <time>2023-04-28T12:53:35Z</time>
      </trkpt>
      <trkpt lat="43.47712" lon="6.29719">
        <ele>158</ele>
        <time>2023-04-28T12:53:36Z</time>
      </trkpt>
      <trkpt lat="43.47712" lon="6.29719">
        <ele>158</ele>
        <time>2023-04-28T12:53:37Z</time>
      </trkpt>
      <trkpt lat="43.47712" lon="6.29719">
        <ele>158</ele>
        <time>2023-04-28T12:53:38Z</time>
      </trkpt>
      <trkpt lat="43.47712" lon="6.29719">
        <ele>158</ele>
        <time>2023-04-28T12:53:39Z</time>
      </trkpt>
      <trkpt lat="43.47712" lon="6.29719">
        <ele>158</ele>
        <time>2023-04-28T12:53:40Z</time>
      </trkpt>
      <trkpt lat="43.47712" lon="6.29719">
        <ele>158</ele>
        <time>2023-04-28T12:53:41Z</time>
      </trkpt>
      <trkpt lat="43.47712" lon="6.29719">
        <ele>158</ele>
        <time>2023-04-28T12:53:42Z</time>
      </trkpt>
      <trkpt lat="43.47712" lon="6.29719">
        <ele>158</ele>
        <time>2023-04-28T12:53:43Z</time>
      </trkpt>
      <trkpt lat="43.47712" lon="6.29719">
        <ele>158</ele>
        <time>2023-04-28T12:53:44Z</time>
      </trkpt>
      <trkpt lat="43.47712" lon="6.29719">
        <ele>158</ele>
        <time>2023-04-28T12:53:45Z</time>
      </trkpt>
      <trkpt lat="43.47712" lon="6.29719">
        <ele>158</ele>
        <time>2023-04-28T12:53:46Z</time>
      </trkpt>
      <trkpt lat="43.47712" lon="6.29719">
        <ele>158</ele>
        <time>2023-04-28T12:53:47Z</time>
      </trkpt>
      <trkpt lat="43.47712" lon="6.29719">
        <ele>158</ele>
        <time>2023-04-28T12:53:48Z</time>
      </trkpt>
      <trkpt lat="43.47712" lon="6.29719">
        <ele>158</ele>
        <time>2023-04-28T12:53:49Z</time>
      </trkpt>
      <trkpt lat="43.47712" lon="6.29719">
        <ele>158</ele>
        <time>2023-04-28T12:53:50Z</time>
      </trkpt>
      <trkpt lat="43.47712" lon="6.29719">
        <ele>158</ele>
        <time>2023-04-28T12:53:51Z</time>
      </trkpt>
      <trkpt lat="43.47712" lon="6.29719">
        <ele>158</ele>
        <time>2023-04-28T12:53:52Z</time>
      </trkpt>
      <trkpt lat="43.47712" lon="6.29719">
        <ele>158</ele>
        <time>2023-04-28T12:53:53Z</time>
      </trkpt>
      <trkpt lat="43.47713" lon="6.29719">
        <ele>158</ele>
        <time>2023-04-28T12:53:54Z</time>
      </trkpt>
      <trkpt lat="43.47712" lon="6.29718">
        <ele>158</ele>
        <time>2023-04-28T12:53:55Z</time>
      </trkpt>
      <trkpt lat="43.47712" lon="6.29716">
        <ele>158</ele>
        <time>2023-04-28T12:53:56Z</time>
      </trkpt>
      <trkpt lat="43.47712" lon="6.29714">
        <ele>158</ele>
        <time>2023-04-28T12:53:57Z</time>
      </trkpt>
      <trkpt lat="43.47712" lon="6.29713">
        <ele>158</ele>
        <time>2023-04-28T12:53:58Z</time>
      </trkpt>
      <trkpt lat="43.47711" lon="6.29711">
        <ele>158</ele>
        <time>2023-04-28T12:53:59Z</time>
      </trkpt>
      <trkpt lat="43.4771" lon="6.2971">
        <ele>156</ele>
        <time>2023-04-28T12:54:00Z</time>
      </trkpt>
      <trkpt lat="43.4771" lon="6.29709">
        <ele>156</ele>
        <time>2023-04-28T12:54:01Z</time>
      </trkpt>
      <trkpt lat="43.47709" lon="6.29708">
        <ele>156</ele>
        <time>2023-04-28T12:54:02Z</time>
      </trkpt>
      <trkpt lat="43.47709" lon="6.29707">
        <ele>156</ele>
        <time>2023-04-28T12:54:03Z</time>
      </trkpt>
      <trkpt lat="43.47708" lon="6.29706">
        <ele>156</ele>
        <time>2023-04-28T12:54:04Z</time>
      </trkpt>
      <trkpt lat="43.47707" lon="6.29704">
        <ele>156</ele>
        <time>2023-04-28T12:54:05Z</time>
      </trkpt>
      <trkpt lat="43.47707" lon="6.29703">
        <ele>156</ele>
        <time>2023-04-28T12:54:06Z</time>
      </trkpt>
      <trkpt lat="43.47706" lon="6.29702">
        <ele>156</ele>
        <time>2023-04-28T12:54:07Z</time>
      </trkpt>
      <trkpt lat="43.47706" lon="6.29701">
        <ele>156</ele>
        <time>2023-04-28T12:54:08Z</time>
      </trkpt>
      <trkpt lat="43.47706" lon="6.297">
        <ele>156</ele>
        <time>2023-04-28T12:54:09Z</time>
      </trkpt>
      <trkpt lat="43.47705" lon="6.29699">
        <ele>156</ele>
        <time>2023-04-28T12:54:10Z</time>
      </trkpt>
      <trkpt lat="43.47705" lon="6.29698">
        <ele>156</ele>
        <time>2023-04-28T12:54:11Z</time>
      </trkpt>
      <trkpt lat="43.47706" lon="6.29696">
        <ele>156</ele>
        <time>2023-04-28T12:54:12Z</time>
      </trkpt>
      <trkpt lat="43.47706" lon="6.29695">
        <ele>156</ele>
        <time>2023-04-28T12:54:13Z</time>
      </trkpt>
      <trkpt lat="43.47706" lon="6.29693">
        <ele>156</ele>
        <time>2023-04-28T12:54:14Z</time>
      </trkpt>
      <trkpt lat="43.47706" lon="6.29692">
        <ele>155</ele>
        <time>2023-04-28T12:54:15Z</time>
      </trkpt>
      <trkpt lat="43.47706" lon="6.2969">
        <ele>155</ele>
        <time>2023-04-28T12:54:16Z</time>
      </trkpt>
      <trkpt lat="43.47707" lon="6.29689">
        <ele>155</ele>
        <time>2023-04-28T12:54:17Z</time>
      </trkpt>
      <trkpt lat="43.47707" lon="6.29687">
        <ele>154</ele>
        <time>2023-04-28T12:54:18Z</time>
      </trkpt>
      <trkpt lat="43.47707" lon="6.29686">
        <ele>154</ele>
        <time>2023-04-28T12:54:19Z</time>
      </trkpt>
      <trkpt lat="43.47707" lon="6.29684">
        <ele>154</ele>
        <time>2023-04-28T12:54:20Z</time>
      </trkpt>
      <trkpt lat="43.47707" lon="6.29682">
        <ele>154</ele>
        <time>2023-04-28T12:54:21Z</time>
      </trkpt>
      <trkpt lat="43.47707" lon="6.29681">
        <ele>154</ele>
        <time>2023-04-28T12:54:22Z</time>
      </trkpt>
      <trkpt lat="43.47707" lon="6.29679">
        <ele>154</ele>
        <time>2023-04-28T12:54:23Z</time>
      </trkpt>
      <trkpt lat="43.47707" lon="6.29677">
        <ele>153</ele>
        <time>2023-04-28T12:54:24Z</time>
      </trkpt>
      <trkpt lat="43.47707" lon="6.29676">
        <ele>154</ele>
        <time>2023-04-28T12:54:25Z</time>
      </trkpt>
      <trkpt lat="43.47706" lon="6.29675">
        <ele>154</ele>
        <time>2023-04-28T12:54:26Z</time>
      </trkpt>
      <trkpt lat="43.47706" lon="6.29674">
        <ele>154</ele>
        <time>2023-04-28T12:54:27Z</time>
      </trkpt>
      <trkpt lat="43.47706" lon="6.29672">
        <ele>154</ele>
        <time>2023-04-28T12:54:28Z</time>
      </trkpt>
      <trkpt lat="43.47706" lon="6.29671">
        <ele>153</ele>
        <time>2023-04-28T12:54:29Z</time>
      </trkpt>
      <trkpt lat="43.47705" lon="6.29669">
        <ele>153</ele>
        <time>2023-04-28T12:54:30Z</time>
      </trkpt>
      <trkpt lat="43.47705" lon="6.29668">
        <ele>153</ele>
        <time>2023-04-28T12:54:31Z</time>
      </trkpt>
      <trkpt lat="43.47705" lon="6.29666">
        <ele>153</ele>
        <time>2023-04-28T12:54:32Z</time>
      </trkpt>
      <trkpt lat="43.47705" lon="6.29665">
        <ele>154</ele>
        <time>2023-04-28T12:54:33Z</time>
      </trkpt>
      <trkpt lat="43.47704" lon="6.29664">
        <ele>154</ele>
        <time>2023-04-28T12:54:34Z</time>
      </trkpt>
      <trkpt lat="43.47704" lon="6.29663">
        <ele>153</ele>
        <time>2023-04-28T12:54:35Z</time>
      </trkpt>
      <trkpt lat="43.47704" lon="6.29662">
        <ele>153</ele>
        <time>2023-04-28T12:54:36Z</time>
      </trkpt>
      <trkpt lat="43.47704" lon="6.2966">
        <ele>153</ele>
        <time>2023-04-28T12:54:37Z</time>
      </trkpt>
      <trkpt lat="43.47703" lon="6.29659">
        <ele>153</ele>
        <time>2023-04-28T12:54:38Z</time>
      </trkpt>
      <trkpt lat="43.47703" lon="6.29658">
        <ele>153</ele>
        <time>2023-04-28T12:54:39Z</time>
      </trkpt>
      <trkpt lat="43.47703" lon="6.29657">
        <ele>153</ele>
        <time>2023-04-28T12:54:40Z</time>
      </trkpt>
      <trkpt lat="43.47703" lon="6.29656">
        <ele>153</ele>
        <time>2023-04-28T12:54:41Z</time>
      </trkpt>
      <trkpt lat="43.47703" lon="6.29655">
        <ele>153</ele>
        <time>2023-04-28T12:54:42Z</time>
      </trkpt>
      <trkpt lat="43.47703" lon="6.29654">
        <ele>153</ele>
        <time>2023-04-28T12:54:43Z</time>
      </trkpt>
      <trkpt lat="43.47703" lon="6.29652">
        <ele>153</ele>
        <time>2023-04-28T12:54:44Z</time>
      </trkpt>
      <trkpt lat="43.47702" lon="6.29651">
        <ele>153</ele>
        <time>2023-04-28T12:54:45Z</time>
      </trkpt>
      <trkpt lat="43.47702" lon="6.2965">
        <ele>153</ele>
        <time>2023-04-28T12:54:46Z</time>
      </trkpt>
      <trkpt lat="43.47701" lon="6.29649">
        <ele>153</ele>
        <time>2023-04-28T12:54:47Z</time>
      </trkpt>
      <trkpt lat="43.47701" lon="6.29648">
        <ele>153</ele>
        <time>2023-04-28T12:54:48Z</time>
      </trkpt>
      <trkpt lat="43.47701" lon="6.29648">
        <ele>153</ele>
        <time>2023-04-28T12:54:49Z</time>
      </trkpt>
      <trkpt lat="43.47701" lon="6.29647">
        <ele>153</ele>
        <time>2023-04-28T12:54:50Z</time>
      </trkpt>
      <trkpt lat="43.47701" lon="6.29646">
        <ele>153</ele>
        <time>2023-04-28T12:54:51Z</time>
      </trkpt>
      <trkpt lat="43.47701" lon="6.29645">
        <ele>153</ele>
        <time>2023-04-28T12:54:52Z</time>
      </trkpt>
      <trkpt lat="43.47701" lon="6.29644">
        <ele>153</ele>
        <time>2023-04-28T12:54:53Z</time>
      </trkpt>
      <trkpt lat="43.47701" lon="6.29643">
        <ele>153</ele>
        <time>2023-04-28T12:54:54Z</time>
      </trkpt>
      <trkpt lat="43.47702" lon="6.29643">
        <ele>153</ele>
        <time>2023-04-28T12:54:55Z</time>
      </trkpt>
      <trkpt lat="43.47703" lon="6.29642">
        <ele>154</ele>
        <time>2023-04-28T12:54:56Z</time>
      </trkpt>
      <trkpt lat="43.47703" lon="6.29642">
        <ele>154</ele>
        <time>2023-04-28T12:54:57Z</time>
      </trkpt>
      <trkpt lat="43.47704" lon="6.2964">
        <ele>154</ele>
        <time>2023-04-28T12:54:58Z</time>
      </trkpt>
      <trkpt lat="43.47704" lon="6.29639">
        <ele>154</ele>
        <time>2023-04-28T12:54:59Z</time>
      </trkpt>
      <trkpt lat="43.47704" lon="6.29638">
        <ele>154</ele>
        <time>2023-04-28T12:55:00Z</time>
      </trkpt>
      <trkpt lat="43.47704" lon="6.29636">
        <ele>153</ele>
        <time>2023-04-28T12:55:01Z</time>
      </trkpt>
      <trkpt lat="43.47704" lon="6.29635">
        <ele>153</ele>
        <time>2023-04-28T12:55:02Z</time>
      </trkpt>
      <trkpt lat="43.47705" lon="6.29633">
        <ele>153</ele>
        <time>2023-04-28T12:55:03Z</time>
      </trkpt>
      <trkpt lat="43.47705" lon="6.29632">
        <ele>153</ele>
        <time>2023-04-28T12:55:04Z</time>
      </trkpt>
      <trkpt lat="43.47705" lon="6.29631">
        <ele>153</ele>
        <time>2023-04-28T12:55:05Z</time>
      </trkpt>
      <trkpt lat="43.47705" lon="6.29629">
        <ele>153</ele>
        <time>2023-04-28T12:55:06Z</time>
      </trkpt>
      <trkpt lat="43.47705" lon="6.29628">
        <ele>153</ele>
        <time>2023-04-28T12:55:07Z</time>
      </trkpt>
      <trkpt lat="43.47705" lon="6.29627">
        <ele>153</ele>
        <time>2023-04-28T12:55:08Z</time>
      </trkpt>
      <trkpt lat="43.47704" lon="6.29626">
        <ele>153</ele>
        <time>2023-04-28T12:55:09Z</time>
      </trkpt>
      <trkpt lat="43.47704" lon="6.29626">
        <ele>153</ele>
        <time>2023-04-28T12:55:10Z</time>
      </trkpt>
      <trkpt lat="43.47704" lon="6.29625">
        <ele>153</ele>
        <time>2023-04-28T12:55:11Z</time>
      </trkpt>
      <trkpt lat="43.47704" lon="6.29625">
        <ele>153</ele>
        <time>2023-04-28T12:55:12Z</time>
      </trkpt>
      <trkpt lat="43.47705" lon="6.29625">
        <ele>153</ele>
        <time>2023-04-28T12:55:13Z</time>
      </trkpt>
      <trkpt lat="43.47705" lon="6.29624">
        <ele>153</ele>
        <time>2023-04-28T12:55:14Z</time>
      </trkpt>
      <trkpt lat="43.47704" lon="6.29624">
        <ele>153</ele>
        <time>2023-04-28T12:55:15Z</time>
      </trkpt>
      <trkpt lat="43.47704" lon="6.29624">
        <ele>153</ele>
        <time>2023-04-28T12:55:16Z</time>
      </trkpt>
      <trkpt lat="43.47704" lon="6.29624">
        <ele>153</ele>
        <time>2023-04-28T12:55:17Z</time>
      </trkpt>
      <trkpt lat="43.47703" lon="6.29624">
        <ele>153</ele>
        <time>2023-04-28T12:55:18Z</time>
      </trkpt>
      <trkpt lat="43.47703" lon="6.29625">
        <ele>153</ele>
        <time>2023-04-28T12:55:19Z</time>
      </trkpt>
      <trkpt lat="43.47703" lon="6.29625">
        <ele>153</ele>
        <time>2023-04-28T12:55:20Z</time>
      </trkpt>
      <trkpt lat="43.47703" lon="6.29625">
        <ele>153</ele>
        <time>2023-04-28T12:55:21Z</time>
      </trkpt>
      <trkpt lat="43.47703" lon="6.29625">
        <ele>153</ele>
        <time>2023-04-28T12:55:22Z</time>
      </trkpt>
      <trkpt lat="43.47703" lon="6.29625">
        <ele>153</ele>
        <time>2023-04-28T12:55:23Z</time>
      </trkpt>
      <trkpt lat="43.47703" lon="6.29625">
        <ele>153</ele>
        <time>2023-04-28T12:55:24Z</time>
      </trkpt>
      <trkpt lat="43.47703" lon="6.29625">
        <ele>153</ele>
        <time>2023-04-28T12:55:25Z</time>
      </trkpt>
      <trkpt lat="43.47703" lon="6.29625">
        <ele>153</ele>
        <time>2023-04-28T12:55:26Z</time>
      </trkpt>
      <trkpt lat="43.47703" lon="6.29625">
        <ele>153</ele>
        <time>2023-04-28T12:55:27Z</time>
      </trkpt>
      <trkpt lat="43.47703" lon="6.29625">
        <ele>153</ele>
        <time>2023-04-28T12:55:28Z</time>
      </trkpt>
      <trkpt lat="43.47703" lon="6.29625">
        <ele>153</ele>
        <time>2023-04-28T12:55:29Z</time>
      </trkpt>
      <trkpt lat="43.47703" lon="6.29625">
        <ele>153</ele>
        <time>2023-04-28T12:55:30Z</time>
      </trkpt>
      <trkpt lat="43.47703" lon="6.29625">
        <ele>153</ele>
        <time>2023-04-28T12:55:31Z</time>
      </trkpt>
      <trkpt lat="43.47703" lon="6.29625">
        <ele>153</ele>
        <time>2023-04-28T12:55:32Z</time>
      </trkpt>
      <trkpt lat="43.47703" lon="6.29625">
        <ele>153</ele>
        <time>2023-04-28T12:55:33Z</time>
      </trkpt>
      <trkpt lat="43.47705" lon="6.29626">
        <ele>153</ele>
        <time>2023-04-28T12:55:34Z</time>
      </trkpt>
      <trkpt lat="43.47705" lon="6.29625">
        <ele>153</ele>
        <time>2023-04-28T12:55:35Z</time>
      </trkpt>
      <trkpt lat="43.47704" lon="6.29624">
        <ele>153</ele>
        <time>2023-04-28T12:55:36Z</time>
      </trkpt>
      <trkpt lat="43.47703" lon="6.29624">
        <ele>153</ele>
        <time>2023-04-28T12:55:37Z</time>
      </trkpt>
      <trkpt lat="43.47702" lon="6.29626">
        <ele>152</ele>
        <time>2023-04-28T12:55:38Z</time>
      </trkpt>
      <trkpt lat="43.47702" lon="6.29627">
        <ele>152</ele>
        <time>2023-04-28T12:55:39Z</time>
      </trkpt>
      <trkpt lat="43.47702" lon="6.29628">
        <ele>152</ele>
        <time>2023-04-28T12:55:40Z</time>
      </trkpt>
      <trkpt lat="43.47703" lon="6.29628">
        <ele>152</ele>
        <time>2023-04-28T12:55:41Z</time>
      </trkpt>
      <trkpt lat="43.47703" lon="6.29629">
        <ele>152</ele>
        <time>2023-04-28T12:55:42Z</time>
      </trkpt>
      <trkpt lat="43.47704" lon="6.29629">
        <ele>152</ele>
        <time>2023-04-28T12:55:43Z</time>
      </trkpt>
      <trkpt lat="43.47704" lon="6.29629">
        <ele>152</ele>
        <time>2023-04-28T12:55:44Z</time>
      </trkpt>
      <trkpt lat="43.47704" lon="6.2963">
        <ele>152</ele>
        <time>2023-04-28T12:55:45Z</time>
      </trkpt>
      <trkpt lat="43.47704" lon="6.29629">
        <ele>152</ele>
        <time>2023-04-28T12:55:46Z</time>
      </trkpt>
      <trkpt lat="43.47705" lon="6.29629">
        <ele>152</ele>
        <time>2023-04-28T12:55:47Z</time>
      </trkpt>
      <trkpt lat="43.47705" lon="6.29629">
        <ele>152</ele>
        <time>2023-04-28T12:55:48Z</time>
      </trkpt>
      <trkpt lat="43.47705" lon="6.29629">
        <ele>152</ele>
        <time>2023-04-28T12:55:49Z</time>
      </trkpt>
      <trkpt lat="43.47705" lon="6.29629">
        <ele>152</ele>
        <time>2023-04-28T12:55:50Z</time>
      </trkpt>
      <trkpt lat="43.47705" lon="6.29628">
        <ele>152</ele>
        <time>2023-04-28T12:55:51Z</time>
      </trkpt>
      <trkpt lat="43.47705" lon="6.29628">
        <ele>152</ele>
        <time>2023-04-28T12:55:52Z</time>
      </trkpt>
      <trkpt lat="43.47705" lon="6.29628">
        <ele>152</ele>
        <time>2023-04-28T12:55:53Z</time>
      </trkpt>
      <trkpt lat="43.47705" lon="6.29628">
        <ele>152</ele>
        <time>2023-04-28T12:55:54Z</time>
      </trkpt>
      <trkpt lat="43.47705" lon="6.29628">
        <ele>152</ele>
        <time>2023-04-28T12:55:55Z</time>
      </trkpt>
      <trkpt lat="43.47705" lon="6.29628">
        <ele>152</ele>
        <time>2023-04-28T12:55:56Z</time>
      </trkpt>
      <trkpt lat="43.47705" lon="6.29628">
        <ele>152</ele>
        <time>2023-04-28T12:55:57Z</time>
      </trkpt>
      <trkpt lat="43.47705" lon="6.29628">
        <ele>152</ele>
        <time>2023-04-28T12:55:58Z</time>
      </trkpt>
      <trkpt lat="43.47705" lon="6.29628">
        <ele>152</ele>
        <time>2023-04-28T12:55:59Z</time>
      </trkpt>
      <trkpt lat="43.47705" lon="6.29628">
        <ele>151</ele>
        <time>2023-04-28T12:56:00Z</time>
      </trkpt>
      <trkpt lat="43.47705" lon="6.29628">
        <ele>151</ele>
        <time>2023-04-28T12:56:01Z</time>
      </trkpt>
      <trkpt lat="43.47705" lon="6.29628">
        <ele>151</ele>
        <time>2023-04-28T12:56:02Z</time>
      </trkpt>
      <trkpt lat="43.47705" lon="6.29628">
        <ele>151</ele>
        <time>2023-04-28T12:56:03Z</time>
      </trkpt>
      <trkpt lat="43.47705" lon="6.29628">
        <ele>151</ele>
        <time>2023-04-28T12:56:04Z</time>
      </trkpt>
      <trkpt lat="43.47705" lon="6.29628">
        <ele>151</ele>
        <time>2023-04-28T12:56:05Z</time>
      </trkpt>
      <trkpt lat="43.47705" lon="6.29628">
        <ele>151</ele>
        <time>2023-04-28T12:56:06Z</time>
      </trkpt>
      <trkpt lat="43.47705" lon="6.29628">
        <ele>151</ele>
        <time>2023-04-28T12:56:07Z</time>
      </trkpt>
      <trkpt lat="43.47705" lon="6.29628">
        <ele>151</ele>
        <time>2023-04-28T12:56:08Z</time>
      </trkpt>
      <trkpt lat="43.47705" lon="6.29628">
        <ele>151</ele>
        <time>2023-04-28T12:56:09Z</time>
      </trkpt>
      <trkpt lat="43.47705" lon="6.29628">
        <ele>151</ele>
        <time>2023-04-28T12:56:10Z</time>
      </trkpt>
      <trkpt lat="43.47705" lon="6.29628">
        <ele>151</ele>
        <time>2023-04-28T12:56:11Z</time>
      </trkpt>
      <trkpt lat="43.47705" lon="6.29628">
        <ele>151</ele>
        <time>2023-04-28T12:56:12Z</time>
      </trkpt>
      <trkpt lat="43.47705" lon="6.29628">
        <ele>151</ele>
        <time>2023-04-28T12:56:13Z</time>
      </trkpt>
      <trkpt lat="43.47705" lon="6.29628">
        <ele>151</ele>
        <time>2023-04-28T12:56:14Z</time>
      </trkpt>
      <trkpt lat="43.47705" lon="6.29628">
        <ele>151</ele>
        <time>2023-04-28T12:56:15Z</time>
      </trkpt>
      <trkpt lat="43.47705" lon="6.29628">
        <ele>151</ele>
        <time>2023-04-28T12:56:16Z</time>
      </trkpt>
      <trkpt lat="43.47705" lon="6.29628">
        <ele>151</ele>
        <time>2023-04-28T12:56:17Z</time>
      </trkpt>
      <trkpt lat="43.47705" lon="6.29628">
        <ele>151</ele>
        <time>2023-04-28T12:56:18Z</time>
      </trkpt>
      <trkpt lat="43.47708" lon="6.2962">
        <ele>151</ele>
        <time>2023-04-28T12:56:19Z</time>
      </trkpt>
      <trkpt lat="43.47708" lon="6.29619">
        <ele>151</ele>
        <time>2023-04-28T12:56:20Z</time>
      </trkpt>
      <trkpt lat="43.47707" lon="6.29618">
        <ele>151</ele>
        <time>2023-04-28T12:56:21Z</time>
      </trkpt>
      <trkpt lat="43.47707" lon="6.29617">
        <ele>150</ele>
        <time>2023-04-28T12:56:22Z</time>
      </trkpt>
      <trkpt lat="43.47707" lon="6.29615">
        <ele>150</ele>
        <time>2023-04-28T12:56:23Z</time>
      </trkpt>
      <trkpt lat="43.47706" lon="6.29614">
        <ele>150</ele>
        <time>2023-04-28T12:56:24Z</time>
      </trkpt>
      <trkpt lat="43.47706" lon="6.29613">
        <ele>150</ele>
        <time>2023-04-28T12:56:25Z</time>
      </trkpt>
      <trkpt lat="43.47705" lon="6.29611">
        <ele>150</ele>
        <time>2023-04-28T12:56:26Z</time>
      </trkpt>
      <trkpt lat="43.47705" lon="6.2961">
        <ele>151</ele>
        <time>2023-04-28T12:56:27Z</time>
      </trkpt>
      <trkpt lat="43.47704" lon="6.2961">
        <ele>151</ele>
        <time>2023-04-28T12:56:28Z</time>
      </trkpt>
      <trkpt lat="43.47704" lon="6.29609">
        <ele>151</ele>
        <time>2023-04-28T12:56:29Z</time>
      </trkpt>
      <trkpt lat="43.47704" lon="6.29609">
        <ele>151</ele>
        <time>2023-04-28T12:56:30Z</time>
      </trkpt>
      <trkpt lat="43.47704" lon="6.29608">
        <ele>151</ele>
        <time>2023-04-28T12:56:31Z</time>
      </trkpt>
      <trkpt lat="43.47703" lon="6.29608">
        <ele>151</ele>
        <time>2023-04-28T12:56:32Z</time>
      </trkpt>
      <trkpt lat="43.47703" lon="6.29608">
        <ele>151</ele>
        <time>2023-04-28T12:56:33Z</time>
      </trkpt>
      <trkpt lat="43.47703" lon="6.29608">
        <ele>151</ele>
        <time>2023-04-28T12:56:34Z</time>
      </trkpt>
      <trkpt lat="43.47703" lon="6.29608">
        <ele>151</ele>
        <time>2023-04-28T12:56:35Z</time>
      </trkpt>
      <trkpt lat="43.47703" lon="6.29608">
        <ele>151</ele>
        <time>2023-04-28T12:56:36Z</time>
      </trkpt>
      <trkpt lat="43.47703" lon="6.29608">
        <ele>151</ele>
        <time>2023-04-28T12:56:37Z</time>
      </trkpt>
      <trkpt lat="43.47703" lon="6.29608">
        <ele>151</ele>
        <time>2023-04-28T12:56:38Z</time>
      </trkpt>
      <trkpt lat="43.47703" lon="6.29608">
        <ele>151</ele>
        <time>2023-04-28T12:56:39Z</time>
      </trkpt>
      <trkpt lat="43.47703" lon="6.29608">
        <ele>151</ele>
        <time>2023-04-28T12:56:40Z</time>
      </trkpt>
      <trkpt lat="43.47703" lon="6.29608">
        <ele>151</ele>
        <time>2023-04-28T12:56:41Z</time>
      </trkpt>
      <trkpt lat="43.47703" lon="6.29608">
        <ele>151</ele>
        <time>2023-04-28T12:56:42Z</time>
      </trkpt>
      <trkpt lat="43.47703" lon="6.29608">
        <ele>151</ele>
        <time>2023-04-28T12:56:43Z</time>
      </trkpt>
      <trkpt lat="43.47703" lon="6.29608">
        <ele>151</ele>
        <time>2023-04-28T12:56:44Z</time>
      </trkpt>
      <trkpt lat="43.47703" lon="6.29608">
        <ele>151</ele>
        <time>2023-04-28T12:56:45Z</time>
      </trkpt>
      <trkpt lat="43.47702" lon="6.29607">
        <ele>151</ele>
        <time>2023-04-28T12:56:46Z</time>
      </trkpt>
      <trkpt lat="43.47702" lon="6.29607">
        <ele>151</ele>
        <time>2023-04-28T12:56:47Z</time>
      </trkpt>
      <trkpt lat="43.47702" lon="6.29606">
        <ele>151</ele>
        <time>2023-04-28T12:56:48Z</time>
      </trkpt>
      <trkpt lat="43.47702" lon="6.29606">
        <ele>150</ele>
        <time>2023-04-28T12:56:49Z</time>
      </trkpt>
      <trkpt lat="43.47702" lon="6.29605">
        <ele>150</ele>
        <time>2023-04-28T12:56:50Z</time>
      </trkpt>
      <trkpt lat="43.47702" lon="6.29605">
        <ele>150</ele>
        <time>2023-04-28T12:56:51Z</time>
      </trkpt>
      <trkpt lat="43.47702" lon="6.29605">
        <ele>150</ele>
        <time>2023-04-28T12:56:52Z</time>
      </trkpt>
      <trkpt lat="43.47702" lon="6.29604">
        <ele>150</ele>
        <time>2023-04-28T12:56:53Z</time>
      </trkpt>
      <trkpt lat="43.47702" lon="6.29604">
        <ele>150</ele>
        <time>2023-04-28T12:56:54Z</time>
      </trkpt>
      <trkpt lat="43.47701" lon="6.29604">
        <ele>150</ele>
        <time>2023-04-28T12:56:55Z</time>
      </trkpt>
      <trkpt lat="43.47701" lon="6.29603">
        <ele>150</ele>
        <time>2023-04-28T12:56:56Z</time>
      </trkpt>
      <trkpt lat="43.47701" lon="6.29603">
        <ele>150</ele>
        <time>2023-04-28T12:56:57Z</time>
      </trkpt>
      <trkpt lat="43.47701" lon="6.29602">
        <ele>150</ele>
        <time>2023-04-28T12:56:58Z</time>
      </trkpt>
      <trkpt lat="43.47701" lon="6.29601">
        <ele>150</ele>
        <time>2023-04-28T12:56:59Z</time>
      </trkpt>
      <trkpt lat="43.47701" lon="6.29599">
        <ele>150</ele>
        <time>2023-04-28T12:57:00Z</time>
      </trkpt>
      <trkpt lat="43.47702" lon="6.29597">
        <ele>150</ele>
        <time>2023-04-28T12:57:01Z</time>
      </trkpt>
      <trkpt lat="43.47702" lon="6.29596">
        <ele>150</ele>
        <time>2023-04-28T12:57:02Z</time>
      </trkpt>
      <trkpt lat="43.47702" lon="6.29595">
        <ele>149</ele>
        <time>2023-04-28T12:57:03Z</time>
      </trkpt>
      <trkpt lat="43.47702" lon="6.29594">
        <ele>149</ele>
        <time>2023-04-28T12:57:04Z</time>
      </trkpt>
      <trkpt lat="43.47702" lon="6.29593">
        <ele>149</ele>
        <time>2023-04-28T12:57:05Z</time>
      </trkpt>
      <trkpt lat="43.47702" lon="6.29591">
        <ele>149</ele>
        <time>2023-04-28T12:57:06Z</time>
      </trkpt>
      <trkpt lat="43.47702" lon="6.2959">
        <ele>149</ele>
        <time>2023-04-28T12:57:07Z</time>
      </trkpt>
      <trkpt lat="43.47702" lon="6.29589">
        <ele>149</ele>
        <time>2023-04-28T12:57:08Z</time>
      </trkpt>
      <trkpt lat="43.47702" lon="6.29588">
        <ele>149</ele>
        <time>2023-04-28T12:57:09Z</time>
      </trkpt>
      <trkpt lat="43.47702" lon="6.29587">
        <ele>149</ele>
        <time>2023-04-28T12:57:10Z</time>
      </trkpt>
      <trkpt lat="43.47702" lon="6.29587">
        <ele>149</ele>
        <time>2023-04-28T12:57:11Z</time>
      </trkpt>
      <trkpt lat="43.47702" lon="6.29586">
        <ele>150</ele>
        <time>2023-04-28T12:57:12Z</time>
      </trkpt>
      <trkpt lat="43.47702" lon="6.29585">
        <ele>150</ele>
        <time>2023-04-28T12:57:13Z</time>
      </trkpt>
      <trkpt lat="43.47702" lon="6.29584">
        <ele>150</ele>
        <time>2023-04-28T12:57:14Z</time>
      </trkpt>
      <trkpt lat="43.47702" lon="6.29583">
        <ele>150</ele>
        <time>2023-04-28T12:57:15Z</time>
      </trkpt>
      <trkpt lat="43.47702" lon="6.29581">
        <ele>151</ele>
        <time>2023-04-28T12:57:16Z</time>
      </trkpt>
      <trkpt lat="43.47702" lon="6.2958">
        <ele>151</ele>
        <time>2023-04-28T12:57:17Z</time>
      </trkpt>
      <trkpt lat="43.47702" lon="6.29579">
        <ele>151</ele>
        <time>2023-04-28T12:57:18Z</time>
      </trkpt>
      <trkpt lat="43.47702" lon="6.29577">
        <ele>151</ele>
        <time>2023-04-28T12:57:19Z</time>
      </trkpt>
      <trkpt lat="43.47703" lon="6.29574">
        <ele>151</ele>
        <time>2023-04-28T12:57:20Z</time>
      </trkpt>
      <trkpt lat="43.47703" lon="6.29572">
        <ele>151</ele>
        <time>2023-04-28T12:57:21Z</time>
      </trkpt>
      <trkpt lat="43.47704" lon="6.29571">
        <ele>152</ele>
        <time>2023-04-28T12:57:22Z</time>
      </trkpt>
      <trkpt lat="43.47704" lon="6.29569">
        <ele>152</ele>
        <time>2023-04-28T12:57:23Z</time>
      </trkpt>
      <trkpt lat="43.47704" lon="6.29568">
        <ele>153</ele>
        <time>2023-04-28T12:57:24Z</time>
      </trkpt>
      <trkpt lat="43.47705" lon="6.29567">
        <ele>153</ele>
        <time>2023-04-28T12:57:25Z</time>
      </trkpt>
      <trkpt lat="43.47705" lon="6.29566">
        <ele>154</ele>
        <time>2023-04-28T12:57:26Z</time>
      </trkpt>
      <trkpt lat="43.47706" lon="6.29565">
        <ele>154</ele>
        <time>2023-04-28T12:57:27Z</time>
      </trkpt>
      <trkpt lat="43.47706" lon="6.29564">
        <ele>154</ele>
        <time>2023-04-28T12:57:28Z</time>
      </trkpt>
      <trkpt lat="43.47707" lon="6.29564">
        <ele>154</ele>
        <time>2023-04-28T12:57:29Z</time>
      </trkpt>
      <trkpt lat="43.47708" lon="6.29563">
        <ele>155</ele>
        <time>2023-04-28T12:57:30Z</time>
      </trkpt>
      <trkpt lat="43.47708" lon="6.29562">
        <ele>155</ele>
        <time>2023-04-28T12:57:31Z</time>
      </trkpt>
      <trkpt lat="43.47709" lon="6.29561">
        <ele>155</ele>
        <time>2023-04-28T12:57:32Z</time>
      </trkpt>
      <trkpt lat="43.4771" lon="6.2956">
        <ele>155</ele>
        <time>2023-04-28T12:57:33Z</time>
      </trkpt>
      <trkpt lat="43.4771" lon="6.29559">
        <ele>156</ele>
        <time>2023-04-28T12:57:34Z</time>
      </trkpt>
      <trkpt lat="43.4771" lon="6.29558">
        <ele>156</ele>
        <time>2023-04-28T12:57:35Z</time>
      </trkpt>
      <trkpt lat="43.47711" lon="6.29557">
        <ele>156</ele>
        <time>2023-04-28T12:57:36Z</time>
      </trkpt>
      <trkpt lat="43.47711" lon="6.29556">
        <ele>156</ele>
        <time>2023-04-28T12:57:37Z</time>
      </trkpt>
      <trkpt lat="43.47712" lon="6.29555">
        <ele>157</ele>
        <time>2023-04-28T12:57:38Z</time>
      </trkpt>
      <trkpt lat="43.47712" lon="6.29554">
        <ele>157</ele>
        <time>2023-04-28T12:57:39Z</time>
      </trkpt>
      <trkpt lat="43.47713" lon="6.29554">
        <ele>157</ele>
        <time>2023-04-28T12:57:40Z</time>
      </trkpt>
      <trkpt lat="43.47714" lon="6.29554">
        <ele>157</ele>
        <time>2023-04-28T12:57:41Z</time>
      </trkpt>
      <trkpt lat="43.47714" lon="6.29553">
        <ele>157</ele>
        <time>2023-04-28T12:57:42Z</time>
      </trkpt>
      <trkpt lat="43.47715" lon="6.29552">
        <ele>157</ele>
        <time>2023-04-28T12:57:43Z</time>
      </trkpt>
      <trkpt lat="43.47715" lon="6.29551">
        <ele>157</ele>
        <time>2023-04-28T12:57:44Z</time>
      </trkpt>
      <trkpt lat="43.47715" lon="6.29551">
        <ele>157</ele>
        <time>2023-04-28T12:57:45Z</time>
      </trkpt>
      <trkpt lat="43.47716" lon="6.2955">
        <ele>157</ele>
        <time>2023-04-28T12:57:46Z</time>
      </trkpt>
      <trkpt lat="43.47716" lon="6.29549">
        <ele>157</ele>
        <time>2023-04-28T12:57:47Z</time>
      </trkpt>
      <trkpt lat="43.47717" lon="6.29548">
        <ele>157</ele>
        <time>2023-04-28T12:57:48Z</time>
      </trkpt>
      <trkpt lat="43.47717" lon="6.29547">
        <ele>157</ele>
        <time>2023-04-28T12:57:49Z</time>
      </trkpt>
      <trkpt lat="43.47718" lon="6.29546">
        <ele>157</ele>
        <time>2023-04-28T12:57:50Z</time>
      </trkpt>
      <trkpt lat="43.47718" lon="6.29546">
        <ele>157</ele>
        <time>2023-04-28T12:57:51Z</time>
      </trkpt>
      <trkpt lat="43.47718" lon="6.29545">
        <ele>157</ele>
        <time>2023-04-28T12:57:52Z</time>
      </trkpt>
      <trkpt lat="43.47719" lon="6.29544">
        <ele>157</ele>
        <time>2023-04-28T12:57:53Z</time>
      </trkpt>
      <trkpt lat="43.47719" lon="6.29544">
        <ele>157</ele>
        <time>2023-04-28T12:57:54Z</time>
      </trkpt>
      <trkpt lat="43.47719" lon="6.29543">
        <ele>157</ele>
        <time>2023-04-28T12:57:55Z</time>
      </trkpt>
      <trkpt lat="43.47719" lon="6.29543">
        <ele>157</ele>
        <time>2023-04-28T12:57:56Z</time>
      </trkpt>
      <trkpt lat="43.47719" lon="6.29542">
        <ele>157</ele>
        <time>2023-04-28T12:57:57Z</time>
      </trkpt>
      <trkpt lat="43.47719" lon="6.29542">
        <ele>157</ele>
        <time>2023-04-28T12:57:58Z</time>
      </trkpt>
      <trkpt lat="43.47719" lon="6.29541">
        <ele>157</ele>
        <time>2023-04-28T12:57:59Z</time>
      </trkpt>
      <trkpt lat="43.4772" lon="6.2954">
        <ele>157</ele>
        <time>2023-04-28T12:58:00Z</time>
      </trkpt>
      <trkpt lat="43.4772" lon="6.29539">
        <ele>157</ele>
        <time>2023-04-28T12:58:01Z</time>
      </trkpt>
      <trkpt lat="43.47721" lon="6.29538">
        <ele>157</ele>
        <time>2023-04-28T12:58:02Z</time>
      </trkpt>
      <trkpt lat="43.47721" lon="6.29537">
        <ele>157</ele>
        <time>2023-04-28T12:58:03Z</time>
      </trkpt>
      <trkpt lat="43.47721" lon="6.29536">
        <ele>157</ele>
        <time>2023-04-28T12:58:04Z</time>
      </trkpt>
      <trkpt lat="43.47722" lon="6.29535">
        <ele>157</ele>
        <time>2023-04-28T12:58:05Z</time>
      </trkpt>
      <trkpt lat="43.47723" lon="6.29534">
        <ele>158</ele>
        <time>2023-04-28T12:58:06Z</time>
      </trkpt>
      <trkpt lat="43.47723" lon="6.29534">
        <ele>158</ele>
        <time>2023-04-28T12:58:07Z</time>
      </trkpt>
      <trkpt lat="43.47724" lon="6.29533">
        <ele>158</ele>
        <time>2023-04-28T12:58:08Z</time>
      </trkpt>
      <trkpt lat="43.47725" lon="6.29532">
        <ele>158</ele>
        <time>2023-04-28T12:58:09Z</time>
      </trkpt>
      <trkpt lat="43.47726" lon="6.29531">
        <ele>158</ele>
        <time>2023-04-28T12:58:10Z</time>
      </trkpt>
      <trkpt lat="43.47727" lon="6.29531">
        <ele>158</ele>
        <time>2023-04-28T12:58:11Z</time>
      </trkpt>
      <trkpt lat="43.47727" lon="6.29529">
        <ele>158</ele>
        <time>2023-04-28T12:58:12Z</time>
      </trkpt>
      <trkpt lat="43.47728" lon="6.29528">
        <ele>159</ele>
        <time>2023-04-28T12:58:13Z</time>
      </trkpt>
      <trkpt lat="43.47729" lon="6.29527">
        <ele>160</ele>
        <time>2023-04-28T12:58:14Z</time>
      </trkpt>
      <trkpt lat="43.47729" lon="6.29526">
        <ele>160</ele>
        <time>2023-04-28T12:58:15Z</time>
      </trkpt>
      <trkpt lat="43.4773" lon="6.29525">
        <ele>160</ele>
        <time>2023-04-28T12:58:16Z</time>
      </trkpt>
      <trkpt lat="43.47731" lon="6.29525">
        <ele>161</ele>
        <time>2023-04-28T12:58:17Z</time>
      </trkpt>
      <trkpt lat="43.47731" lon="6.29524">
        <ele>161</ele>
        <time>2023-04-28T12:58:18Z</time>
      </trkpt>
      <trkpt lat="43.47732" lon="6.29523">
        <ele>161</ele>
        <time>2023-04-28T12:58:19Z</time>
      </trkpt>
      <trkpt lat="43.47732" lon="6.29522">
        <ele>161</ele>
        <time>2023-04-28T12:58:20Z</time>
      </trkpt>
      <trkpt lat="43.47733" lon="6.29521">
        <ele>161</ele>
        <time>2023-04-28T12:58:21Z</time>
      </trkpt>
      <trkpt lat="43.47733" lon="6.29521">
        <ele>161</ele>
        <time>2023-04-28T12:58:22Z</time>
      </trkpt>
      <trkpt lat="43.47734" lon="6.2952">
        <ele>161</ele>
        <time>2023-04-28T12:58:23Z</time>
      </trkpt>
      <trkpt lat="43.47734" lon="6.29519">
        <ele>161</ele>
        <time>2023-04-28T12:58:24Z</time>
      </trkpt>
      <trkpt lat="43.47735" lon="6.29518">
        <ele>161</ele>
        <time>2023-04-28T12:58:25Z</time>
      </trkpt>
      <trkpt lat="43.47736" lon="6.29518">
        <ele>161</ele>
        <time>2023-04-28T12:58:26Z</time>
      </trkpt>
      <trkpt lat="43.47736" lon="6.29517">
        <ele>162</ele>
        <time>2023-04-28T12:58:27Z</time>
      </trkpt>
      <trkpt lat="43.47737" lon="6.29516">
        <ele>162</ele>
        <time>2023-04-28T12:58:28Z</time>
      </trkpt>
      <trkpt lat="43.47738" lon="6.29515">
        <ele>162</ele>
        <time>2023-04-28T12:58:29Z</time>
      </trkpt>
      <trkpt lat="43.47739" lon="6.29515">
        <ele>162</ele>
        <time>2023-04-28T12:58:30Z</time>
      </trkpt>
      <trkpt lat="43.4774" lon="6.29514">
        <ele>162</ele>
        <time>2023-04-28T12:58:31Z</time>
      </trkpt>
      <trkpt lat="43.47741" lon="6.29514">
        <ele>162</ele>
        <time>2023-04-28T12:58:32Z</time>
      </trkpt>
      <trkpt lat="43.47741" lon="6.29513">
        <ele>162</ele>
        <time>2023-04-28T12:58:33Z</time>
      </trkpt>
      <trkpt lat="43.47742" lon="6.29513">
        <ele>162</ele>
        <time>2023-04-28T12:58:34Z</time>
      </trkpt>
      <trkpt lat="43.47743" lon="6.29513">
        <ele>163</ele>
        <time>2023-04-28T12:58:35Z</time>
      </trkpt>
      <trkpt lat="43.47744" lon="6.29512">
        <ele>163</ele>
        <time>2023-04-28T12:58:36Z</time>
      </trkpt>
      <trkpt lat="43.47745" lon="6.29512">
        <ele>163</ele>
        <time>2023-04-28T12:58:37Z</time>
      </trkpt>
      <trkpt lat="43.47746" lon="6.29511">
        <ele>163</ele>
        <time>2023-04-28T12:58:38Z</time>
      </trkpt>
      <trkpt lat="43.47747" lon="6.29511">
        <ele>163</ele>
        <time>2023-04-28T12:58:39Z</time>
      </trkpt>
      <trkpt lat="43.47748" lon="6.29512">
        <ele>163</ele>
        <time>2023-04-28T12:58:40Z</time>
      </trkpt>
      <trkpt lat="43.47749" lon="6.29512">
        <ele>163</ele>
        <time>2023-04-28T12:58:41Z</time>
      </trkpt>
      <trkpt lat="43.4775" lon="6.29512">
        <ele>163</ele>
        <time>2023-04-28T12:58:42Z</time>
      </trkpt>
      <trkpt lat="43.47751" lon="6.29511">
        <ele>163</ele>
        <time>2023-04-28T12:58:43Z</time>
      </trkpt>
      <trkpt lat="43.47752" lon="6.29511">
        <ele>163</ele>
        <time>2023-04-28T12:58:44Z</time>
      </trkpt>
      <trkpt lat="43.47753" lon="6.2951">
        <ele>164</ele>
        <time>2023-04-28T12:58:45Z</time>
      </trkpt>
      <trkpt lat="43.47754" lon="6.2951">
        <ele>164</ele>
        <time>2023-04-28T12:58:46Z</time>
      </trkpt>
      <trkpt lat="43.47755" lon="6.29509">
        <ele>164</ele>
        <time>2023-04-28T12:58:47Z</time>
      </trkpt>
      <trkpt lat="43.47756" lon="6.29508">
        <ele>164</ele>
        <time>2023-04-28T12:58:48Z</time>
      </trkpt>
      <trkpt lat="43.47757" lon="6.29507">
        <ele>164</ele>
        <time>2023-04-28T12:58:49Z</time>
      </trkpt>
      <trkpt lat="43.47758" lon="6.29506">
        <ele>164</ele>
        <time>2023-04-28T12:58:50Z</time>
      </trkpt>
      <trkpt lat="43.47759" lon="6.29505">
        <ele>164</ele>
        <time>2023-04-28T12:58:51Z</time>
      </trkpt>
      <trkpt lat="43.4776" lon="6.29504">
        <ele>163</ele>
        <time>2023-04-28T12:58:52Z</time>
      </trkpt>
      <trkpt lat="43.47761" lon="6.29503">
        <ele>163</ele>
        <time>2023-04-28T12:58:53Z</time>
      </trkpt>
      <trkpt lat="43.47762" lon="6.29502">
        <ele>163</ele>
        <time>2023-04-28T12:58:54Z</time>
      </trkpt>
      <trkpt lat="43.47764" lon="6.29501">
        <ele>163</ele>
        <time>2023-04-28T12:58:55Z</time>
      </trkpt>
      <trkpt lat="43.47765" lon="6.29501">
        <ele>163</ele>
        <time>2023-04-28T12:58:56Z</time>
      </trkpt>
      <trkpt lat="43.47766" lon="6.295">
        <ele>163</ele>
        <time>2023-04-28T12:58:57Z</time>
      </trkpt>
      <trkpt lat="43.47767" lon="6.29499">
        <ele>163</ele>
        <time>2023-04-28T12:58:58Z</time>
      </trkpt>
      <trkpt lat="43.47768" lon="6.29498">
        <ele>163</ele>
        <time>2023-04-28T12:58:59Z</time>
      </trkpt>
      <trkpt lat="43.47769" lon="6.29497">
        <ele>163</ele>
        <time>2023-04-28T12:59:00Z</time>
      </trkpt>
      <trkpt lat="43.4777" lon="6.29496">
        <ele>163</ele>
        <time>2023-04-28T12:59:01Z</time>
      </trkpt>
      <trkpt lat="43.47771" lon="6.29495">
        <ele>163</ele>
        <time>2023-04-28T12:59:02Z</time>
      </trkpt>
      <trkpt lat="43.47772" lon="6.29494">
        <ele>163</ele>
        <time>2023-04-28T12:59:03Z</time>
      </trkpt>
      <trkpt lat="43.47773" lon="6.29493">
        <ele>163</ele>
        <time>2023-04-28T12:59:04Z</time>
      </trkpt>
      <trkpt lat="43.47774" lon="6.29492">
        <ele>163</ele>
        <time>2023-04-28T12:59:05Z</time>
      </trkpt>
      <trkpt lat="43.47775" lon="6.29491">
        <ele>163</ele>
        <time>2023-04-28T12:59:06Z</time>
      </trkpt>
      <trkpt lat="43.47775" lon="6.2949">
        <ele>163</ele>
        <time>2023-04-28T12:59:07Z</time>
      </trkpt>
      <trkpt lat="43.47776" lon="6.29489">
        <ele>163</ele>
        <time>2023-04-28T12:59:08Z</time>
      </trkpt>
      <trkpt lat="43.47776" lon="6.29488">
        <ele>163</ele>
        <time>2023-04-28T12:59:09Z</time>
      </trkpt>
      <trkpt lat="43.47777" lon="6.29487">
        <ele>163</ele>
        <time>2023-04-28T12:59:10Z</time>
      </trkpt>
      <trkpt lat="43.47778" lon="6.29485">
        <ele>163</ele>
        <time>2023-04-28T12:59:11Z</time>
      </trkpt>
      <trkpt lat="43.47778" lon="6.29484">
        <ele>162</ele>
        <time>2023-04-28T12:59:12Z</time>
      </trkpt>
      <trkpt lat="43.47778" lon="6.29483">
        <ele>162</ele>
        <time>2023-04-28T12:59:13Z</time>
      </trkpt>
      <trkpt lat="43.47779" lon="6.29482">
        <ele>162</ele>
        <time>2023-04-28T12:59:14Z</time>
      </trkpt>
      <trkpt lat="43.47779" lon="6.29481">
        <ele>163</ele>
        <time>2023-04-28T12:59:15Z</time>
      </trkpt>
      <trkpt lat="43.4778" lon="6.29481">
        <ele>163</ele>
        <time>2023-04-28T12:59:16Z</time>
      </trkpt>
      <trkpt lat="43.4778" lon="6.2948">
        <ele>163</ele>
        <time>2023-04-28T12:59:17Z</time>
      </trkpt>
      <trkpt lat="43.47781" lon="6.29479">
        <ele>163</ele>
        <time>2023-04-28T12:59:18Z</time>
      </trkpt>
      <trkpt lat="43.47781" lon="6.29478">
        <ele>163</ele>
        <time>2023-04-28T12:59:19Z</time>
      </trkpt>
      <trkpt lat="43.47781" lon="6.29477">
        <ele>163</ele>
        <time>2023-04-28T12:59:20Z</time>
      </trkpt>
      <trkpt lat="43.47782" lon="6.29477">
        <ele>162</ele>
        <time>2023-04-28T12:59:21Z</time>
      </trkpt>
      <trkpt lat="43.47782" lon="6.29476">
        <ele>162</ele>
        <time>2023-04-28T12:59:22Z</time>
      </trkpt>
      <trkpt lat="43.47783" lon="6.29475">
        <ele>162</ele>
        <time>2023-04-28T12:59:23Z</time>
      </trkpt>
      <trkpt lat="43.47783" lon="6.29474">
        <ele>162</ele>
        <time>2023-04-28T12:59:24Z</time>
      </trkpt>
      <trkpt lat="43.47783" lon="6.29473">
        <ele>162</ele>
        <time>2023-04-28T12:59:25Z</time>
      </trkpt>
      <trkpt lat="43.47784" lon="6.29472">
        <ele>162</ele>
        <time>2023-04-28T12:59:26Z</time>
      </trkpt>
      <trkpt lat="43.47784" lon="6.29471">
        <ele>161</ele>
        <time>2023-04-28T12:59:27Z</time>
      </trkpt>
      <trkpt lat="43.47784" lon="6.29469">
        <ele>160</ele>
        <time>2023-04-28T12:59:28Z</time>
      </trkpt>
      <trkpt lat="43.47785" lon="6.29468">
        <ele>160</ele>
        <time>2023-04-28T12:59:29Z</time>
      </trkpt>
      <trkpt lat="43.47785" lon="6.29467">
        <ele>160</ele>
        <time>2023-04-28T12:59:30Z</time>
      </trkpt>
      <trkpt lat="43.47785" lon="6.29466">
        <ele>160</ele>
        <time>2023-04-28T12:59:31Z</time>
      </trkpt>
      <trkpt lat="43.47786" lon="6.29464">
        <ele>160</ele>
        <time>2023-04-28T12:59:32Z</time>
      </trkpt>
      <trkpt lat="43.47786" lon="6.29463">
        <ele>160</ele>
        <time>2023-04-28T12:59:33Z</time>
      </trkpt>
      <trkpt lat="43.47786" lon="6.29462">
        <ele>160</ele>
        <time>2023-04-28T12:59:34Z</time>
      </trkpt>
      <trkpt lat="43.47787" lon="6.29461">
        <ele>160</ele>
        <time>2023-04-28T12:59:35Z</time>
      </trkpt>
      <trkpt lat="43.47787" lon="6.2946">
        <ele>159</ele>
        <time>2023-04-28T12:59:36Z</time>
      </trkpt>
      <trkpt lat="43.47787" lon="6.29458">
        <ele>159</ele>
        <time>2023-04-28T12:59:37Z</time>
      </trkpt>
      <trkpt lat="43.47788" lon="6.29457">
        <ele>160</ele>
        <time>2023-04-28T12:59:38Z</time>
      </trkpt>
      <trkpt lat="43.47788" lon="6.29456">
        <ele>160</ele>
        <time>2023-04-28T12:59:39Z</time>
      </trkpt>
      <trkpt lat="43.47789" lon="6.29454">
        <ele>160</ele>
        <time>2023-04-28T12:59:40Z</time>
      </trkpt>
      <trkpt lat="43.47789" lon="6.29453">
        <ele>160</ele>
        <time>2023-04-28T12:59:41Z</time>
      </trkpt>
      <trkpt lat="43.47789" lon="6.29452">
        <ele>160</ele>
        <time>2023-04-28T12:59:42Z</time>
      </trkpt>
      <trkpt lat="43.4779" lon="6.29451">
        <ele>160</ele>
        <time>2023-04-28T12:59:43Z</time>
      </trkpt>
      <trkpt lat="43.4779" lon="6.2945">
        <ele>160</ele>
        <time>2023-04-28T12:59:44Z</time>
      </trkpt>
      <trkpt lat="43.4779" lon="6.29448">
        <ele>160</ele>
        <time>2023-04-28T12:59:45Z</time>
      </trkpt>
      <trkpt lat="43.4779" lon="6.29447">
        <ele>160</ele>
        <time>2023-04-28T12:59:46Z</time>
      </trkpt>
      <trkpt lat="43.4779" lon="6.29446">
        <ele>161</ele>
        <time>2023-04-28T12:59:47Z</time>
      </trkpt>
      <trkpt lat="43.4779" lon="6.29445">
        <ele>161</ele>
        <time>2023-04-28T12:59:48Z</time>
      </trkpt>
      <trkpt lat="43.47791" lon="6.29444">
        <ele>161</ele>
        <time>2023-04-28T12:59:49Z</time>
      </trkpt>
      <trkpt lat="43.47791" lon="6.29442">
        <ele>161</ele>
        <time>2023-04-28T12:59:50Z</time>
      </trkpt>
      <trkpt lat="43.47791" lon="6.29441">
        <ele>161</ele>
        <time>2023-04-28T12:59:51Z</time>
      </trkpt>
      <trkpt lat="43.47791" lon="6.2944">
        <ele>161</ele>
        <time>2023-04-28T12:59:52Z</time>
      </trkpt>
      <trkpt lat="43.47792" lon="6.29438">
        <ele>161</ele>
        <time>2023-04-28T12:59:53Z</time>
      </trkpt>
      <trkpt lat="43.47792" lon="6.29437">
        <ele>161</ele>
        <time>2023-04-28T12:59:54Z</time>
      </trkpt>
      <trkpt lat="43.47792" lon="6.29436">
        <ele>161</ele>
        <time>2023-04-28T12:59:55Z</time>
      </trkpt>
      <trkpt lat="43.47792" lon="6.29434">
        <ele>160</ele>
        <time>2023-04-28T12:59:56Z</time>
      </trkpt>
      <trkpt lat="43.47792" lon="6.29433">
        <ele>160</ele>
        <time>2023-04-28T12:59:57Z</time>
      </trkpt>
      <trkpt lat="43.47791" lon="6.29431">
        <ele>160</ele>
        <time>2023-04-28T12:59:58Z</time>
      </trkpt>
      <trkpt lat="43.47791" lon="6.2943">
        <ele>160</ele>
        <time>2023-04-28T12:59:59Z</time>
      </trkpt>
      <trkpt lat="43.47791" lon="6.29428">
        <ele>159</ele>
        <time>2023-04-28T13:00:00Z</time>
      </trkpt>
      <trkpt lat="43.47791" lon="6.29427">
        <ele>160</ele>
        <time>2023-04-28T13:00:01Z</time>
      </trkpt>
      <trkpt lat="43.4779" lon="6.29426">
        <ele>160</ele>
        <time>2023-04-28T13:00:02Z</time>
      </trkpt>
      <trkpt lat="43.4779" lon="6.29426">
        <ele>160</ele>
        <time>2023-04-28T13:00:03Z</time>
      </trkpt>
      <trkpt lat="43.47789" lon="6.29426">
        <ele>160</ele>
        <time>2023-04-28T13:00:04Z</time>
      </trkpt>
      <trkpt lat="43.47789" lon="6.29426">
        <ele>160</ele>
        <time>2023-04-28T13:00:05Z</time>
      </trkpt>
      <trkpt lat="43.47789" lon="6.29426">
        <ele>160</ele>
        <time>2023-04-28T13:00:06Z</time>
      </trkpt>
      <trkpt lat="43.47789" lon="6.29426">
        <ele>160</ele>
        <time>2023-04-28T13:00:07Z</time>
      </trkpt>
      <trkpt lat="43.47789" lon="6.29426">
        <ele>160</ele>
        <time>2023-04-28T13:00:08Z</time>
      </trkpt>
      <trkpt lat="43.47789" lon="6.29425">
        <ele>160</ele>
        <time>2023-04-28T13:00:09Z</time>
      </trkpt>
      <trkpt lat="43.47789" lon="6.29424">
        <ele>160</ele>
        <time>2023-04-28T13:00:10Z</time>
      </trkpt>
      <trkpt lat="43.47789" lon="6.29423">
        <ele>160</ele>
        <time>2023-04-28T13:00:11Z</time>
      </trkpt>
      <trkpt lat="43.4779" lon="6.29422">
        <ele>160</ele>
        <time>2023-04-28T13:00:12Z</time>
      </trkpt>
      <trkpt lat="43.47791" lon="6.2942">
        <ele>160</ele>
        <time>2023-04-28T13:00:13Z</time>
      </trkpt>
      <trkpt lat="43.47791" lon="6.29419">
        <ele>161</ele>
        <time>2023-04-28T13:00:14Z</time>
      </trkpt>
      <trkpt lat="43.47792" lon="6.29418">
        <ele>161</ele>
        <time>2023-04-28T13:00:15Z</time>
      </trkpt>
      <trkpt lat="43.47792" lon="6.29417">
        <ele>164</ele>
        <time>2023-04-28T13:00:16Z</time>
      </trkpt>
      <trkpt lat="43.47792" lon="6.29416">
        <ele>165</ele>
        <time>2023-04-28T13:00:17Z</time>
      </trkpt>
      <trkpt lat="43.47792" lon="6.29415">
        <ele>165</ele>
        <time>2023-04-28T13:00:18Z</time>
      </trkpt>
      <trkpt lat="43.47792" lon="6.29413">
        <ele>166</ele>
        <time>2023-04-28T13:00:19Z</time>
      </trkpt>
      <trkpt lat="43.47792" lon="6.29412">
        <ele>166</ele>
        <time>2023-04-28T13:00:20Z</time>
      </trkpt>
      <trkpt lat="43.47791" lon="6.2941">
        <ele>166</ele>
        <time>2023-04-28T13:00:21Z</time>
      </trkpt>
      <trkpt lat="43.47791" lon="6.29408">
        <ele>166</ele>
        <time>2023-04-28T13:00:22Z</time>
      </trkpt>
      <trkpt lat="43.47791" lon="6.29406">
        <ele>166</ele>
        <time>2023-04-28T13:00:23Z</time>
      </trkpt>
      <trkpt lat="43.47792" lon="6.29405">
        <ele>167</ele>
        <time>2023-04-28T13:00:24Z</time>
      </trkpt>
      <trkpt lat="43.47792" lon="6.29403">
        <ele>167</ele>
        <time>2023-04-28T13:00:25Z</time>
      </trkpt>
      <trkpt lat="43.47792" lon="6.29402">
        <ele>167</ele>
        <time>2023-04-28T13:00:26Z</time>
      </trkpt>
      <trkpt lat="43.47793" lon="6.294">
        <ele>167</ele>
        <time>2023-04-28T13:00:27Z</time>
      </trkpt>
      <trkpt lat="43.47793" lon="6.29399">
        <ele>167</ele>
        <time>2023-04-28T13:00:28Z</time>
      </trkpt>
      <trkpt lat="43.47793" lon="6.29397">
        <ele>167</ele>
        <time>2023-04-28T13:00:29Z</time>
      </trkpt>
      <trkpt lat="43.47793" lon="6.29396">
        <ele>167</ele>
        <time>2023-04-28T13:00:30Z</time>
      </trkpt>
      <trkpt lat="43.47793" lon="6.29395">
        <ele>167</ele>
        <time>2023-04-28T13:00:31Z</time>
      </trkpt>
      <trkpt lat="43.47794" lon="6.29394">
        <ele>167</ele>
        <time>2023-04-28T13:00:32Z</time>
      </trkpt>
      <trkpt lat="43.47794" lon="6.29392">
        <ele>167</ele>
        <time>2023-04-28T13:00:33Z</time>
      </trkpt>
      <trkpt lat="43.47794" lon="6.29391">
        <ele>167</ele>
        <time>2023-04-28T13:00:34Z</time>
      </trkpt>
      <trkpt lat="43.47795" lon="6.2939">
        <ele>167</ele>
        <time>2023-04-28T13:00:35Z</time>
      </trkpt>
      <trkpt lat="43.47795" lon="6.29389">
        <ele>167</ele>
        <time>2023-04-28T13:00:36Z</time>
      </trkpt>
      <trkpt lat="43.47795" lon="6.29388">
        <ele>167</ele>
        <time>2023-04-28T13:00:37Z</time>
      </trkpt>
      <trkpt lat="43.47795" lon="6.29387">
        <ele>167</ele>
        <time>2023-04-28T13:00:38Z</time>
      </trkpt>
      <trkpt lat="43.47796" lon="6.29386">
        <ele>167</ele>
        <time>2023-04-28T13:00:39Z</time>
      </trkpt>
      <trkpt lat="43.47796" lon="6.29386">
        <ele>166</ele>
        <time>2023-04-28T13:00:40Z</time>
      </trkpt>
      <trkpt lat="43.47797" lon="6.29385">
        <ele>166</ele>
        <time>2023-04-28T13:00:41Z</time>
      </trkpt>
      <trkpt lat="43.47797" lon="6.29384">
        <ele>166</ele>
        <time>2023-04-28T13:00:42Z</time>
      </trkpt>
      <trkpt lat="43.47797" lon="6.29384">
        <ele>166</ele>
        <time>2023-04-28T13:00:43Z</time>
      </trkpt>
      <trkpt lat="43.47797" lon="6.29383">
        <ele>166</ele>
        <time>2023-04-28T13:00:44Z</time>
      </trkpt>
      <trkpt lat="43.47798" lon="6.29383">
        <ele>166</ele>
        <time>2023-04-28T13:00:45Z</time>
      </trkpt>
      <trkpt lat="43.47799" lon="6.29382">
        <ele>166</ele>
        <time>2023-04-28T13:00:46Z</time>
      </trkpt>
      <trkpt lat="43.47799" lon="6.29381">
        <ele>165</ele>
        <time>2023-04-28T13:00:47Z</time>
      </trkpt>
      <trkpt lat="43.478" lon="6.2938">
        <ele>165</ele>
        <time>2023-04-28T13:00:48Z</time>
      </trkpt>
      <trkpt lat="43.47801" lon="6.29379">
        <ele>165</ele>
        <time>2023-04-28T13:00:49Z</time>
      </trkpt>
      <trkpt lat="43.47801" lon="6.29378">
        <ele>165</ele>
        <time>2023-04-28T13:00:50Z</time>
      </trkpt>
      <trkpt lat="43.47801" lon="6.29378">
        <ele>165</ele>
        <time>2023-04-28T13:00:51Z</time>
      </trkpt>
      <trkpt lat="43.47802" lon="6.29377">
        <ele>165</ele>
        <time>2023-04-28T13:00:52Z</time>
      </trkpt>
      <trkpt lat="43.47802" lon="6.29377">
        <ele>165</ele>
        <time>2023-04-28T13:00:53Z</time>
      </trkpt>
      <trkpt lat="43.47803" lon="6.29376">
        <ele>165</ele>
        <time>2023-04-28T13:00:54Z</time>
      </trkpt>
      <trkpt lat="43.47803" lon="6.29375">
        <ele>165</ele>
        <time>2023-04-28T13:00:55Z</time>
      </trkpt>
      <trkpt lat="43.47803" lon="6.29375">
        <ele>165</ele>
        <time>2023-04-28T13:00:56Z</time>
      </trkpt>
      <trkpt lat="43.47803" lon="6.29374">
        <ele>165</ele>
        <time>2023-04-28T13:00:57Z</time>
      </trkpt>
      <trkpt lat="43.47804" lon="6.29374">
        <ele>165</ele>
        <time>2023-04-28T13:00:58Z</time>
      </trkpt>
      <trkpt lat="43.47804" lon="6.29374">
        <ele>165</ele>
        <time>2023-04-28T13:00:59Z</time>
      </trkpt>
      <trkpt lat="43.47804" lon="6.29373">
        <ele>164</ele>
        <time>2023-04-28T13:01:00Z</time>
      </trkpt>
      <trkpt lat="43.47805" lon="6.29372">
        <ele>164</ele>
        <time>2023-04-28T13:01:01Z</time>
      </trkpt>
      <trkpt lat="43.47805" lon="6.29371">
        <ele>164</ele>
        <time>2023-04-28T13:01:02Z</time>
      </trkpt>
      <trkpt lat="43.47806" lon="6.2937">
        <ele>164</ele>
        <time>2023-04-28T13:01:03Z</time>
      </trkpt>
      <trkpt lat="43.47807" lon="6.29369">
        <ele>164</ele>
        <time>2023-04-28T13:01:04Z</time>
      </trkpt>
      <trkpt lat="43.47807" lon="6.29368">
        <ele>164</ele>
        <time>2023-04-28T13:01:05Z</time>
      </trkpt>
      <trkpt lat="43.47808" lon="6.29368">
        <ele>164</ele>
        <time>2023-04-28T13:01:06Z</time>
      </trkpt>
      <trkpt lat="43.47808" lon="6.29367">
        <ele>164</ele>
        <time>2023-04-28T13:01:07Z</time>
      </trkpt>
      <trkpt lat="43.47809" lon="6.29367">
        <ele>164</ele>
        <time>2023-04-28T13:01:08Z</time>
      </trkpt>
      <trkpt lat="43.47809" lon="6.29366">
        <ele>164</ele>
        <time>2023-04-28T13:01:09Z</time>
      </trkpt>
      <trkpt lat="43.4781" lon="6.29366">
        <ele>164</ele>
        <time>2023-04-28T13:01:10Z</time>
      </trkpt>
      <trkpt lat="43.4781" lon="6.29366">
        <ele>164</ele>
        <time>2023-04-28T13:01:11Z</time>
      </trkpt>
      <trkpt lat="43.47811" lon="6.29366">
        <ele>164</ele>
        <time>2023-04-28T13:01:12Z</time>
      </trkpt>
      <trkpt lat="43.47811" lon="6.29366">
        <ele>164</ele>
        <time>2023-04-28T13:01:13Z</time>
      </trkpt>
      <trkpt lat="43.47812" lon="6.29366">
        <ele>164</ele>
        <time>2023-04-28T13:01:14Z</time>
      </trkpt>
      <trkpt lat="43.47812" lon="6.29366">
        <ele>164</ele>
        <time>2023-04-28T13:01:15Z</time>
      </trkpt>
      <trkpt lat="43.47812" lon="6.29366">
        <ele>164</ele>
        <time>2023-04-28T13:01:16Z</time>
      </trkpt>
      <trkpt lat="43.47812" lon="6.29366">
        <ele>164</ele>
        <time>2023-04-28T13:01:17Z</time>
      </trkpt>
      <trkpt lat="43.47811" lon="6.29366">
        <ele>164</ele>
        <time>2023-04-28T13:01:18Z</time>
      </trkpt>
      <trkpt lat="43.4781" lon="6.29365">
        <ele>164</ele>
        <time>2023-04-28T13:01:19Z</time>
      </trkpt>
      <trkpt lat="43.47811" lon="6.29365">
        <ele>164</ele>
        <time>2023-04-28T13:01:20Z</time>
      </trkpt>
      <trkpt lat="43.47811" lon="6.29365">
        <ele>164</ele>
        <time>2023-04-28T13:01:21Z</time>
      </trkpt>
      <trkpt lat="43.47811" lon="6.29366">
        <ele>164</ele>
        <time>2023-04-28T13:01:22Z</time>
      </trkpt>
      <trkpt lat="43.47811" lon="6.29366">
        <ele>164</ele>
        <time>2023-04-28T13:01:23Z</time>
      </trkpt>
      <trkpt lat="43.47811" lon="6.29366">
        <ele>164</ele>
        <time>2023-04-28T13:01:24Z</time>
      </trkpt>
      <trkpt lat="43.47811" lon="6.29366">
        <ele>164</ele>
        <time>2023-04-28T13:01:25Z</time>
      </trkpt>
      <trkpt lat="43.47811" lon="6.29366">
        <ele>164</ele>
        <time>2023-04-28T13:01:26Z</time>
      </trkpt>
      <trkpt lat="43.47811" lon="6.29366">
        <ele>164</ele>
        <time>2023-04-28T13:01:27Z</time>
      </trkpt>
      <trkpt lat="43.47811" lon="6.29366">
        <ele>164</ele>
        <time>2023-04-28T13:01:28Z</time>
      </trkpt>
      <trkpt lat="43.47811" lon="6.29366">
        <ele>164</ele>
        <time>2023-04-28T13:01:29Z</time>
      </trkpt>
      <trkpt lat="43.47811" lon="6.29366">
        <ele>164</ele>
        <time>2023-04-28T13:01:30Z</time>
      </trkpt>
      <trkpt lat="43.47811" lon="6.29366">
        <ele>164</ele>
        <time>2023-04-28T13:01:31Z</time>
      </trkpt>
      <trkpt lat="43.4781" lon="6.29367">
        <ele>164</ele>
        <time>2023-04-28T13:01:32Z</time>
      </trkpt>
      <trkpt lat="43.47811" lon="6.29366">
        <ele>164</ele>
        <time>2023-04-28T13:01:33Z</time>
      </trkpt>
      <trkpt lat="43.47811" lon="6.29365">
        <ele>164</ele>
        <time>2023-04-28T13:01:34Z</time>
      </trkpt>
      <trkpt lat="43.47811" lon="6.29364">
        <ele>164</ele>
        <time>2023-04-28T13:01:35Z</time>
      </trkpt>
      <trkpt lat="43.47812" lon="6.29362">
        <ele>164</ele>
        <time>2023-04-28T13:01:36Z</time>
      </trkpt>
      <trkpt lat="43.47812" lon="6.29362">
        <ele>164</ele>
        <time>2023-04-28T13:01:37Z</time>
      </trkpt>
      <trkpt lat="43.47813" lon="6.29361">
        <ele>164</ele>
        <time>2023-04-28T13:01:38Z</time>
      </trkpt>
      <trkpt lat="43.47813" lon="6.29359">
        <ele>163</ele>
        <time>2023-04-28T13:01:39Z</time>
      </trkpt>
      <trkpt lat="43.47814" lon="6.29358">
        <ele>163</ele>
        <time>2023-04-28T13:01:40Z</time>
      </trkpt>
      <trkpt lat="43.47815" lon="6.29357">
        <ele>163</ele>
        <time>2023-04-28T13:01:41Z</time>
      </trkpt>
      <trkpt lat="43.47816" lon="6.29356">
        <ele>163</ele>
        <time>2023-04-28T13:01:42Z</time>
      </trkpt>
      <trkpt lat="43.47816" lon="6.29355">
        <ele>163</ele>
        <time>2023-04-28T13:01:43Z</time>
      </trkpt>
      <trkpt lat="43.47817" lon="6.29354">
        <ele>162</ele>
        <time>2023-04-28T13:01:44Z</time>
      </trkpt>
      <trkpt lat="43.47818" lon="6.29353">
        <ele>162</ele>
        <time>2023-04-28T13:01:45Z</time>
      </trkpt>
      <trkpt lat="43.47819" lon="6.29351">
        <ele>161</ele>
        <time>2023-04-28T13:01:46Z</time>
      </trkpt>
      <trkpt lat="43.4782" lon="6.2935">
        <ele>161</ele>
        <time>2023-04-28T13:01:47Z</time>
      </trkpt>
      <trkpt lat="43.4782" lon="6.29349">
        <ele>161</ele>
        <time>2023-04-28T13:01:48Z</time>
      </trkpt>
      <trkpt lat="43.47821" lon="6.29348">
        <ele>161</ele>
        <time>2023-04-28T13:01:49Z</time>
      </trkpt>
      <trkpt lat="43.47822" lon="6.29347">
        <ele>161</ele>
        <time>2023-04-28T13:01:50Z</time>
      </trkpt>
      <trkpt lat="43.47823" lon="6.29346">
        <ele>161</ele>
        <time>2023-04-28T13:01:51Z</time>
      </trkpt>
      <trkpt lat="43.47824" lon="6.29345">
        <ele>161</ele>
        <time>2023-04-28T13:01:52Z</time>
      </trkpt>
      <trkpt lat="43.47825" lon="6.29344">
        <ele>161</ele>
        <time>2023-04-28T13:01:53Z</time>
      </trkpt>
      <trkpt lat="43.47826" lon="6.29343">
        <ele>161</ele>
        <time>2023-04-28T13:01:54Z</time>
      </trkpt>
      <trkpt lat="43.47827" lon="6.29342">
        <ele>161</ele>
        <time>2023-04-28T13:01:55Z</time>
      </trkpt>
      <trkpt lat="43.47827" lon="6.29341">
        <ele>161</ele>
        <time>2023-04-28T13:01:56Z</time>
      </trkpt>
      <trkpt lat="43.47828" lon="6.2934">
        <ele>161</ele>
        <time>2023-04-28T13:01:57Z</time>
      </trkpt>
      <trkpt lat="43.47829" lon="6.29339">
        <ele>161</ele>
        <time>2023-04-28T13:01:58Z</time>
      </trkpt>
      <trkpt lat="43.4783" lon="6.29338">
        <ele>161</ele>
        <time>2023-04-28T13:01:59Z</time>
      </trkpt>
      <trkpt lat="43.47831" lon="6.29336">
        <ele>160</ele>
        <time>2023-04-28T13:02:00Z</time>
      </trkpt>
      <trkpt lat="43.47832" lon="6.29335">
        <ele>159</ele>
        <time>2023-04-28T13:02:01Z</time>
      </trkpt>
      <trkpt lat="43.47833" lon="6.29333">
        <ele>159</ele>
        <time>2023-04-28T13:02:02Z</time>
      </trkpt>
      <trkpt lat="43.47834" lon="6.29332">
        <ele>159</ele>
        <time>2023-04-28T13:02:03Z</time>
      </trkpt>
      <trkpt lat="43.47835" lon="6.29331">
        <ele>159</ele>
        <time>2023-04-28T13:02:04Z</time>
      </trkpt>
      <trkpt lat="43.47836" lon="6.2933">
        <ele>159</ele>
        <time>2023-04-28T13:02:05Z</time>
      </trkpt>
      <trkpt lat="43.47837" lon="6.29329">
        <ele>159</ele>
        <time>2023-04-28T13:02:06Z</time>
      </trkpt>
      <trkpt lat="43.47838" lon="6.29328">
        <ele>159</ele>
        <time>2023-04-28T13:02:07Z</time>
      </trkpt>
      <trkpt lat="43.47839" lon="6.29327">
        <ele>160</ele>
        <time>2023-04-28T13:02:08Z</time>
      </trkpt>
      <trkpt lat="43.4784" lon="6.29325">
        <ele>160</ele>
        <time>2023-04-28T13:02:09Z</time>
      </trkpt>
      <trkpt lat="43.47841" lon="6.29324">
        <ele>160</ele>
        <time>2023-04-28T13:02:10Z</time>
      </trkpt>
      <trkpt lat="43.47841" lon="6.29323">
        <ele>160</ele>
        <time>2023-04-28T13:02:11Z</time>
      </trkpt>
      <trkpt lat="43.47842" lon="6.29322">
        <ele>160</ele>
        <time>2023-04-28T13:02:12Z</time>
      </trkpt>
      <trkpt lat="43.47843" lon="6.29321">
        <ele>160</ele>
        <time>2023-04-28T13:02:13Z</time>
      </trkpt>
      <trkpt lat="43.47844" lon="6.29321">
        <ele>161</ele>
        <time>2023-04-28T13:02:14Z</time>
      </trkpt>
      <trkpt lat="43.47844" lon="6.2932">
        <ele>161</ele>
        <time>2023-04-28T13:02:15Z</time>
      </trkpt>
      <trkpt lat="43.47845" lon="6.2932">
        <ele>160</ele>
        <time>2023-04-28T13:02:16Z</time>
      </trkpt>
      <trkpt lat="43.47846" lon="6.29319">
        <ele>160</ele>
        <time>2023-04-28T13:02:17Z</time>
      </trkpt>
      <trkpt lat="43.47846" lon="6.29319">
        <ele>160</ele>
        <time>2023-04-28T13:02:18Z</time>
      </trkpt>
      <trkpt lat="43.47847" lon="6.29318">
        <ele>160</ele>
        <time>2023-04-28T13:02:19Z</time>
      </trkpt>
      <trkpt lat="43.47847" lon="6.29317">
        <ele>160</ele>
        <time>2023-04-28T13:02:20Z</time>
      </trkpt>
      <trkpt lat="43.47848" lon="6.29316">
        <ele>160</ele>
        <time>2023-04-28T13:02:21Z</time>
      </trkpt>
      <trkpt lat="43.47849" lon="6.29315">
        <ele>160</ele>
        <time>2023-04-28T13:02:22Z</time>
      </trkpt>
      <trkpt lat="43.47849" lon="6.29314">
        <ele>160</ele>
        <time>2023-04-28T13:02:23Z</time>
      </trkpt>
      <trkpt lat="43.4785" lon="6.29313">
        <ele>160</ele>
        <time>2023-04-28T13:02:24Z</time>
      </trkpt>
      <trkpt lat="43.47851" lon="6.29312">
        <ele>160</ele>
        <time>2023-04-28T13:02:25Z</time>
      </trkpt>
      <trkpt lat="43.47851" lon="6.29311">
        <ele>160</ele>
        <time>2023-04-28T13:02:26Z</time>
      </trkpt>
      <trkpt lat="43.47852" lon="6.2931">
        <ele>160</ele>
        <time>2023-04-28T13:02:27Z</time>
      </trkpt>
      <trkpt lat="43.47853" lon="6.2931">
        <ele>160</ele>
        <time>2023-04-28T13:02:28Z</time>
      </trkpt>
      <trkpt lat="43.47854" lon="6.29309">
        <ele>160</ele>
        <time>2023-04-28T13:02:29Z</time>
      </trkpt>
      <trkpt lat="43.47855" lon="6.29308">
        <ele>159</ele>
        <time>2023-04-28T13:02:30Z</time>
      </trkpt>
      <trkpt lat="43.47856" lon="6.29307">
        <ele>159</ele>
        <time>2023-04-28T13:02:31Z</time>
      </trkpt>
      <trkpt lat="43.47857" lon="6.29306">
        <ele>159</ele>
        <time>2023-04-28T13:02:32Z</time>
      </trkpt>
      <trkpt lat="43.47858" lon="6.29305">
        <ele>159</ele>
        <time>2023-04-28T13:02:33Z</time>
      </trkpt>
      <trkpt lat="43.47859" lon="6.29304">
        <ele>159</ele>
        <time>2023-04-28T13:02:34Z</time>
      </trkpt>
      <trkpt lat="43.4786" lon="6.29303">
        <ele>159</ele>
        <time>2023-04-28T13:02:35Z</time>
      </trkpt>
      <trkpt lat="43.47861" lon="6.29302">
        <ele>159</ele>
        <time>2023-04-28T13:02:36Z</time>
      </trkpt>
      <trkpt lat="43.47862" lon="6.29301">
        <ele>159</ele>
        <time>2023-04-28T13:02:37Z</time>
      </trkpt>
      <trkpt lat="43.47863" lon="6.29301">
        <ele>158</ele>
        <time>2023-04-28T13:02:38Z</time>
      </trkpt>
      <trkpt lat="43.47864" lon="6.293">
        <ele>158</ele>
        <time>2023-04-28T13:02:39Z</time>
      </trkpt>
      <trkpt lat="43.47864" lon="6.29299">
        <ele>158</ele>
        <time>2023-04-28T13:02:40Z</time>
      </trkpt>
      <trkpt lat="43.47865" lon="6.29298">
        <ele>158</ele>
        <time>2023-04-28T13:02:41Z</time>
      </trkpt>
      <trkpt lat="43.47866" lon="6.29297">
        <ele>158</ele>
        <time>2023-04-28T13:02:42Z</time>
      </trkpt>
      <trkpt lat="43.47867" lon="6.29296">
        <ele>158</ele>
        <time>2023-04-28T13:02:43Z</time>
      </trkpt>
      <trkpt lat="43.47868" lon="6.29295">
        <ele>158</ele>
        <time>2023-04-28T13:02:44Z</time>
      </trkpt>
      <trkpt lat="43.47868" lon="6.29293">
        <ele>158</ele>
        <time>2023-04-28T13:02:45Z</time>
      </trkpt>
      <trkpt lat="43.47869" lon="6.29292">
        <ele>158</ele>
        <time>2023-04-28T13:02:46Z</time>
      </trkpt>
      <trkpt lat="43.4787" lon="6.29291">
        <ele>158</ele>
        <time>2023-04-28T13:02:47Z</time>
      </trkpt>
      <trkpt lat="43.4787" lon="6.29291">
        <ele>158</ele>
        <time>2023-04-28T13:02:48Z</time>
      </trkpt>
      <trkpt lat="43.47871" lon="6.29291">
        <ele>158</ele>
        <time>2023-04-28T13:02:49Z</time>
      </trkpt>
      <trkpt lat="43.47872" lon="6.2929">
        <ele>158</ele>
        <time>2023-04-28T13:02:50Z</time>
      </trkpt>
      <trkpt lat="43.47873" lon="6.2929">
        <ele>158</ele>
        <time>2023-04-28T13:02:51Z</time>
      </trkpt>
      <trkpt lat="43.47873" lon="6.29289">
        <ele>158</ele>
        <time>2023-04-28T13:02:52Z</time>
      </trkpt>
      <trkpt lat="43.47874" lon="6.29288">
        <ele>158</ele>
        <time>2023-04-28T13:02:53Z</time>
      </trkpt>
      <trkpt lat="43.47875" lon="6.29287">
        <ele>158</ele>
        <time>2023-04-28T13:02:54Z</time>
      </trkpt>
      <trkpt lat="43.47875" lon="6.29286">
        <ele>158</ele>
        <time>2023-04-28T13:02:55Z</time>
      </trkpt>
      <trkpt lat="43.47876" lon="6.29285">
        <ele>158</ele>
        <time>2023-04-28T13:02:56Z</time>
      </trkpt>
      <trkpt lat="43.47877" lon="6.29284">
        <ele>158</ele>
        <time>2023-04-28T13:02:57Z</time>
      </trkpt>
      <trkpt lat="43.47878" lon="6.29283">
        <ele>158</ele>
        <time>2023-04-28T13:02:58Z</time>
      </trkpt>
      <trkpt lat="43.47879" lon="6.29282">
        <ele>158</ele>
        <time>2023-04-28T13:02:59Z</time>
      </trkpt>
      <trkpt lat="43.4788" lon="6.29282">
        <ele>158</ele>
        <time>2023-04-28T13:03:00Z</time>
      </trkpt>
      <trkpt lat="43.47882" lon="6.29281">
        <ele>158</ele>
        <time>2023-04-28T13:03:01Z</time>
      </trkpt>
      <trkpt lat="43.47883" lon="6.29281">
        <ele>158</ele>
        <time>2023-04-28T13:03:02Z</time>
      </trkpt>
      <trkpt lat="43.47884" lon="6.2928">
        <ele>158</ele>
        <time>2023-04-28T13:03:03Z</time>
      </trkpt>
      <trkpt lat="43.47885" lon="6.29279">
        <ele>158</ele>
        <time>2023-04-28T13:03:04Z</time>
      </trkpt>
      <trkpt lat="43.47886" lon="6.29278">
        <ele>158</ele>
        <time>2023-04-28T13:03:05Z</time>
      </trkpt>
      <trkpt lat="43.47887" lon="6.29277">
        <ele>158</ele>
        <time>2023-04-28T13:03:06Z</time>
      </trkpt>
      <trkpt lat="43.47888" lon="6.29276">
        <ele>158</ele>
        <time>2023-04-28T13:03:07Z</time>
      </trkpt>
      <trkpt lat="43.47888" lon="6.29274">
        <ele>158</ele>
        <time>2023-04-28T13:03:08Z</time>
      </trkpt>
      <trkpt lat="43.47889" lon="6.29273">
        <ele>158</ele>
        <time>2023-04-28T13:03:09Z</time>
      </trkpt>
      <trkpt lat="43.4789" lon="6.29272">
        <ele>158</ele>
        <time>2023-04-28T13:03:10Z</time>
      </trkpt>
      <trkpt lat="43.4789" lon="6.29271">
        <ele>158</ele>
        <time>2023-04-28T13:03:11Z</time>
      </trkpt>
      <trkpt lat="43.47891" lon="6.29271">
        <ele>158</ele>
        <time>2023-04-28T13:03:12Z</time>
      </trkpt>
      <trkpt lat="43.47892" lon="6.29271">
        <ele>158</ele>
        <time>2023-04-28T13:03:13Z</time>
      </trkpt>
      <trkpt lat="43.47892" lon="6.2927">
        <ele>158</ele>
        <time>2023-04-28T13:03:14Z</time>
      </trkpt>
      <trkpt lat="43.47893" lon="6.29269">
        <ele>158</ele>
        <time>2023-04-28T13:03:15Z</time>
      </trkpt>
      <trkpt lat="43.47893" lon="6.29268">
        <ele>158</ele>
        <time>2023-04-28T13:03:16Z</time>
      </trkpt>
      <trkpt lat="43.47894" lon="6.29267">
        <ele>158</ele>
        <time>2023-04-28T13:03:17Z</time>
      </trkpt>
      <trkpt lat="43.47895" lon="6.29266">
        <ele>158</ele>
        <time>2023-04-28T13:03:18Z</time>
      </trkpt>
      <trkpt lat="43.47896" lon="6.29265">
        <ele>158</ele>
        <time>2023-04-28T13:03:19Z</time>
      </trkpt>
      <trkpt lat="43.47896" lon="6.29264">
        <ele>158</ele>
        <time>2023-04-28T13:03:20Z</time>
      </trkpt>
      <trkpt lat="43.47897" lon="6.29263">
        <ele>158</ele>
        <time>2023-04-28T13:03:21Z</time>
      </trkpt>
      <trkpt lat="43.47897" lon="6.29262">
        <ele>158</ele>
        <time>2023-04-28T13:03:22Z</time>
      </trkpt>
      <trkpt lat="43.47898" lon="6.29261">
        <ele>158</ele>
        <time>2023-04-28T13:03:23Z</time>
      </trkpt>
      <trkpt lat="43.47899" lon="6.2926">
        <ele>158</ele>
        <time>2023-04-28T13:03:24Z</time>
      </trkpt>
      <trkpt lat="43.479" lon="6.29259">
        <ele>158</ele>
        <time>2023-04-28T13:03:25Z</time>
      </trkpt>
      <trkpt lat="43.479" lon="6.29258">
        <ele>158</ele>
        <time>2023-04-28T13:03:26Z</time>
      </trkpt>
      <trkpt lat="43.47901" lon="6.29256">
        <ele>159</ele>
        <time>2023-04-28T13:03:27Z</time>
      </trkpt>
      <trkpt lat="43.47902" lon="6.29255">
        <ele>159</ele>
        <time>2023-04-28T13:03:28Z</time>
      </trkpt>
      <trkpt lat="43.47903" lon="6.29254">
        <ele>159</ele>
        <time>2023-04-28T13:03:29Z</time>
      </trkpt>
      <trkpt lat="43.47904" lon="6.29253">
        <ele>159</ele>
        <time>2023-04-28T13:03:30Z</time>
      </trkpt>
      <trkpt lat="43.47905" lon="6.29252">
        <ele>159</ele>
        <time>2023-04-28T13:03:31Z</time>
      </trkpt>
      <trkpt lat="43.47906" lon="6.29251">
        <ele>159</ele>
        <time>2023-04-28T13:03:32Z</time>
      </trkpt>
      <trkpt lat="43.47906" lon="6.2925">
        <ele>159</ele>
        <time>2023-04-28T13:03:33Z</time>
      </trkpt>
      <trkpt lat="43.47907" lon="6.29249">
        <ele>159</ele>
        <time>2023-04-28T13:03:34Z</time>
      </trkpt>
      <trkpt lat="43.47908" lon="6.29247">
        <ele>159</ele>
        <time>2023-04-28T13:03:35Z</time>
      </trkpt>
      <trkpt lat="43.47908" lon="6.29246">
        <ele>159</ele>
        <time>2023-04-28T13:03:36Z</time>
      </trkpt>
      <trkpt lat="43.47909" lon="6.29245">
        <ele>159</ele>
        <time>2023-04-28T13:03:37Z</time>
      </trkpt>
      <trkpt lat="43.4791" lon="6.29243">
        <ele>159</ele>
        <time>2023-04-28T13:03:38Z</time>
      </trkpt>
      <trkpt lat="43.4791" lon="6.29242">
        <ele>159</ele>
        <time>2023-04-28T13:03:39Z</time>
      </trkpt>
      <trkpt lat="43.47911" lon="6.29241">
        <ele>159</ele>
        <time>2023-04-28T13:03:40Z</time>
      </trkpt>
      <trkpt lat="43.47911" lon="6.2924">
        <ele>159</ele>
        <time>2023-04-28T13:03:41Z</time>
      </trkpt>
      <trkpt lat="43.47912" lon="6.29238">
        <ele>159</ele>
        <time>2023-04-28T13:03:42Z</time>
      </trkpt>
      <trkpt lat="43.47913" lon="6.29238">
        <ele>159</ele>
        <time>2023-04-28T13:03:43Z</time>
      </trkpt>
      <trkpt lat="43.47914" lon="6.29237">
        <ele>159</ele>
        <time>2023-04-28T13:03:44Z</time>
      </trkpt>
      <trkpt lat="43.47915" lon="6.29236">
        <ele>159</ele>
        <time>2023-04-28T13:03:45Z</time>
      </trkpt>
      <trkpt lat="43.47916" lon="6.29235">
        <ele>158</ele>
        <time>2023-04-28T13:03:46Z</time>
      </trkpt>
      <trkpt lat="43.47917" lon="6.29234">
        <ele>158</ele>
        <time>2023-04-28T13:03:47Z</time>
      </trkpt>
      <trkpt lat="43.47918" lon="6.29233">
        <ele>158</ele>
        <time>2023-04-28T13:03:48Z</time>
      </trkpt>
      <trkpt lat="43.47919" lon="6.29232">
        <ele>158</ele>
        <time>2023-04-28T13:03:49Z</time>
      </trkpt>
      <trkpt lat="43.4792" lon="6.29231">
        <ele>158</ele>
        <time>2023-04-28T13:03:50Z</time>
      </trkpt>
      <trkpt lat="43.47921" lon="6.2923">
        <ele>158</ele>
        <time>2023-04-28T13:03:51Z</time>
      </trkpt>
      <trkpt lat="43.47921" lon="6.29229">
        <ele>157</ele>
        <time>2023-04-28T13:03:52Z</time>
      </trkpt>
      <trkpt lat="43.47922" lon="6.29227">
        <ele>157</ele>
        <time>2023-04-28T13:03:53Z</time>
      </trkpt>
      <trkpt lat="43.47923" lon="6.29226">
        <ele>157</ele>
        <time>2023-04-28T13:03:54Z</time>
      </trkpt>
      <trkpt lat="43.47924" lon="6.29224">
        <ele>157</ele>
        <time>2023-04-28T13:03:55Z</time>
      </trkpt>
      <trkpt lat="43.47924" lon="6.29223">
        <ele>157</ele>
        <time>2023-04-28T13:03:56Z</time>
      </trkpt>
      <trkpt lat="43.47925" lon="6.29221">
        <ele>157</ele>
        <time>2023-04-28T13:03:57Z</time>
      </trkpt>
      <trkpt lat="43.47926" lon="6.2922">
        <ele>157</ele>
        <time>2023-04-28T13:03:58Z</time>
      </trkpt>
      <trkpt lat="43.47927" lon="6.29219">
        <ele>157</ele>
        <time>2023-04-28T13:03:59Z</time>
      </trkpt>
      <trkpt lat="43.47928" lon="6.29218">
        <ele>158</ele>
        <time>2023-04-28T13:04:00Z</time>
      </trkpt>
      <trkpt lat="43.47929" lon="6.29217">
        <ele>158</ele>
        <time>2023-04-28T13:04:01Z</time>
      </trkpt>
      <trkpt lat="43.4793" lon="6.29216">
        <ele>158</ele>
        <time>2023-04-28T13:04:02Z</time>
      </trkpt>
      <trkpt lat="43.47931" lon="6.29215">
        <ele>158</ele>
        <time>2023-04-28T13:04:03Z</time>
      </trkpt>
      <trkpt lat="43.47932" lon="6.29214">
        <ele>158</ele>
        <time>2023-04-28T13:04:04Z</time>
      </trkpt>
      <trkpt lat="43.47933" lon="6.29213">
        <ele>158</ele>
        <time>2023-04-28T13:04:05Z</time>
      </trkpt>
      <trkpt lat="43.47934" lon="6.29212">
        <ele>158</ele>
        <time>2023-04-28T13:04:06Z</time>
      </trkpt>
      <trkpt lat="43.47935" lon="6.2921">
        <ele>158</ele>
        <time>2023-04-28T13:04:07Z</time>
      </trkpt>
      <trkpt lat="43.47936" lon="6.29209">
        <ele>158</ele>
        <time>2023-04-28T13:04:08Z</time>
      </trkpt>
      <trkpt lat="43.47937" lon="6.29208">
        <ele>158</ele>
        <time>2023-04-28T13:04:09Z</time>
      </trkpt>
      <trkpt lat="43.47938" lon="6.29207">
        <ele>158</ele>
        <time>2023-04-28T13:04:10Z</time>
      </trkpt>
      <trkpt lat="43.47939" lon="6.29206">
        <ele>158</ele>
        <time>2023-04-28T13:04:11Z</time>
      </trkpt>
      <trkpt lat="43.4794" lon="6.29206">
        <ele>158</ele>
        <time>2023-04-28T13:04:12Z</time>
      </trkpt>
      <trkpt lat="43.47941" lon="6.29205">
        <ele>159</ele>
        <time>2023-04-28T13:04:13Z</time>
      </trkpt>
      <trkpt lat="43.47942" lon="6.29204">
        <ele>159</ele>
        <time>2023-04-28T13:04:14Z</time>
      </trkpt>
      <trkpt lat="43.47943" lon="6.29203">
        <ele>159</ele>
        <time>2023-04-28T13:04:15Z</time>
      </trkpt>
      <trkpt lat="43.47944" lon="6.29202">
        <ele>159</ele>
        <time>2023-04-28T13:04:16Z</time>
      </trkpt>
      <trkpt lat="43.47945" lon="6.29201">
        <ele>159</ele>
        <time>2023-04-28T13:04:17Z</time>
      </trkpt>
      <trkpt lat="43.47946" lon="6.292">
        <ele>159</ele>
        <time>2023-04-28T13:04:18Z</time>
      </trkpt>
      <trkpt lat="43.47947" lon="6.29199">
        <ele>159</ele>
        <time>2023-04-28T13:04:19Z</time>
      </trkpt>
      <trkpt lat="43.47948" lon="6.29198">
        <ele>158</ele>
        <time>2023-04-28T13:04:20Z</time>
      </trkpt>
      <trkpt lat="43.47949" lon="6.29198">
        <ele>158</ele>
        <time>2023-04-28T13:04:21Z</time>
      </trkpt>
      <trkpt lat="43.4795" lon="6.29197">
        <ele>159</ele>
        <time>2023-04-28T13:04:22Z</time>
      </trkpt>
      <trkpt lat="43.47951" lon="6.29196">
        <ele>159</ele>
        <time>2023-04-28T13:04:23Z</time>
      </trkpt>
      <trkpt lat="43.47952" lon="6.29195">
        <ele>159</ele>
        <time>2023-04-28T13:04:24Z</time>
      </trkpt>
      <trkpt lat="43.47953" lon="6.29195">
        <ele>159</ele>
        <time>2023-04-28T13:04:25Z</time>
      </trkpt>
      <trkpt lat="43.47954" lon="6.29194">
        <ele>159</ele>
        <time>2023-04-28T13:04:26Z</time>
      </trkpt>
      <trkpt lat="43.47955" lon="6.29193">
        <ele>159</ele>
        <time>2023-04-28T13:04:27Z</time>
      </trkpt>
      <trkpt lat="43.47956" lon="6.29192">
        <ele>159</ele>
        <time>2023-04-28T13:04:28Z</time>
      </trkpt>
      <trkpt lat="43.47957" lon="6.29192">
        <ele>159</ele>
        <time>2023-04-28T13:04:29Z</time>
      </trkpt>
      <trkpt lat="43.47958" lon="6.29191">
        <ele>159</ele>
        <time>2023-04-28T13:04:30Z</time>
      </trkpt>
      <trkpt lat="43.47959" lon="6.2919">
        <ele>159</ele>
        <time>2023-04-28T13:04:31Z</time>
      </trkpt>
      <trkpt lat="43.47959" lon="6.2919">
        <ele>160</ele>
        <time>2023-04-28T13:04:32Z</time>
      </trkpt>
      <trkpt lat="43.4796" lon="6.29189">
        <ele>160</ele>
        <time>2023-04-28T13:04:33Z</time>
      </trkpt>
      <trkpt lat="43.47961" lon="6.29189">
        <ele>160</ele>
        <time>2023-04-28T13:04:34Z</time>
      </trkpt>
      <trkpt lat="43.47962" lon="6.29188">
        <ele>160</ele>
        <time>2023-04-28T13:04:35Z</time>
      </trkpt>
      <trkpt lat="43.47962" lon="6.29187">
        <ele>160</ele>
        <time>2023-04-28T13:04:36Z</time>
      </trkpt>
      <trkpt lat="43.47963" lon="6.29186">
        <ele>161</ele>
        <time>2023-04-28T13:04:37Z</time>
      </trkpt>
      <trkpt lat="43.47964" lon="6.29185">
        <ele>161</ele>
        <time>2023-04-28T13:04:38Z</time>
      </trkpt>
      <trkpt lat="43.47965" lon="6.29185">
        <ele>161</ele>
        <time>2023-04-28T13:04:39Z</time>
      </trkpt>
      <trkpt lat="43.47966" lon="6.29184">
        <ele>161</ele>
        <time>2023-04-28T13:04:40Z</time>
      </trkpt>
      <trkpt lat="43.47967" lon="6.29183">
        <ele>161</ele>
        <time>2023-04-28T13:04:41Z</time>
      </trkpt>
      <trkpt lat="43.47968" lon="6.29182">
        <ele>162</ele>
        <time>2023-04-28T13:04:42Z</time>
      </trkpt>
      <trkpt lat="43.47969" lon="6.29182">
        <ele>162</ele>
        <time>2023-04-28T13:04:43Z</time>
      </trkpt>
      <trkpt lat="43.4797" lon="6.29181">
        <ele>162</ele>
        <time>2023-04-28T13:04:44Z</time>
      </trkpt>
      <trkpt lat="43.47971" lon="6.2918">
        <ele>162</ele>
        <time>2023-04-28T13:04:45Z</time>
      </trkpt>
      <trkpt lat="43.47972" lon="6.29179">
        <ele>162</ele>
        <time>2023-04-28T13:04:46Z</time>
      </trkpt>
      <trkpt lat="43.47972" lon="6.29178">
        <ele>163</ele>
        <time>2023-04-28T13:04:47Z</time>
      </trkpt>
      <trkpt lat="43.47973" lon="6.29177">
        <ele>163</ele>
        <time>2023-04-28T13:04:48Z</time>
      </trkpt>
      <trkpt lat="43.47974" lon="6.29176">
        <ele>163</ele>
        <time>2023-04-28T13:04:49Z</time>
      </trkpt>
      <trkpt lat="43.47975" lon="6.29176">
        <ele>163</ele>
        <time>2023-04-28T13:04:50Z</time>
      </trkpt>
      <trkpt lat="43.47975" lon="6.29175">
        <ele>163</ele>
        <time>2023-04-28T13:04:51Z</time>
      </trkpt>
      <trkpt lat="43.47976" lon="6.29174">
        <ele>164</ele>
        <time>2023-04-28T13:04:52Z</time>
      </trkpt>
      <trkpt lat="43.47977" lon="6.29174">
        <ele>164</ele>
        <time>2023-04-28T13:04:53Z</time>
      </trkpt>
      <trkpt lat="43.47978" lon="6.29173">
        <ele>164</ele>
        <time>2023-04-28T13:04:54Z</time>
      </trkpt>
      <trkpt lat="43.47979" lon="6.29173">
        <ele>164</ele>
        <time>2023-04-28T13:04:55Z</time>
      </trkpt>
      <trkpt lat="43.47979" lon="6.29173">
        <ele>164</ele>
        <time>2023-04-28T13:04:56Z</time>
      </trkpt>
      <trkpt lat="43.47979" lon="6.29173">
        <ele>164</ele>
        <time>2023-04-28T13:04:57Z</time>
      </trkpt>
      <trkpt lat="43.47979" lon="6.29173">
        <ele>164</ele>
        <time>2023-04-28T13:04:58Z</time>
      </trkpt>
      <trkpt lat="43.47979" lon="6.29173">
        <ele>164</ele>
        <time>2023-04-28T13:04:59Z</time>
      </trkpt>
      <trkpt lat="43.47979" lon="6.29173">
        <ele>165</ele>
        <time>2023-04-28T13:05:00Z</time>
      </trkpt>
      <trkpt lat="43.47979" lon="6.29173">
        <ele>165</ele>
        <time>2023-04-28T13:05:01Z</time>
      </trkpt>
      <trkpt lat="43.47979" lon="6.29173">
        <ele>165</ele>
        <time>2023-04-28T13:05:02Z</time>
      </trkpt>
      <trkpt lat="43.47979" lon="6.29173">
        <ele>165</ele>
        <time>2023-04-28T13:05:03Z</time>
      </trkpt>
      <trkpt lat="43.47979" lon="6.29173">
        <ele>165</ele>
        <time>2023-04-28T13:05:04Z</time>
      </trkpt>
      <trkpt lat="43.47979" lon="6.29173">
        <ele>165</ele>
        <time>2023-04-28T13:05:05Z</time>
      </trkpt>
      <trkpt lat="43.47979" lon="6.29173">
        <ele>165</ele>
        <time>2023-04-28T13:05:06Z</time>
      </trkpt>
      <trkpt lat="43.47979" lon="6.29173">
        <ele>165</ele>
        <time>2023-04-28T13:05:07Z</time>
      </trkpt>
      <trkpt lat="43.47979" lon="6.29173">
        <ele>165</ele>
        <time>2023-04-28T13:05:08Z</time>
      </trkpt>
      <trkpt lat="43.47979" lon="6.29173">
        <ele>165</ele>
        <time>2023-04-28T13:05:09Z</time>
      </trkpt>
      <trkpt lat="43.4798" lon="6.29173">
        <ele>165</ele>
        <time>2023-04-28T13:05:10Z</time>
      </trkpt>
      <trkpt lat="43.4798" lon="6.29173">
        <ele>165</ele>
        <time>2023-04-28T13:05:11Z</time>
      </trkpt>
      <trkpt lat="43.4798" lon="6.29173">
        <ele>165</ele>
        <time>2023-04-28T13:05:12Z</time>
      </trkpt>
      <trkpt lat="43.4798" lon="6.29172">
        <ele>165</ele>
        <time>2023-04-28T13:05:13Z</time>
      </trkpt>
      <trkpt lat="43.4798" lon="6.29172">
        <ele>165</ele>
        <time>2023-04-28T13:05:14Z</time>
      </trkpt>
      <trkpt lat="43.4798" lon="6.29172">
        <ele>165</ele>
        <time>2023-04-28T13:05:15Z</time>
      </trkpt>
      <trkpt lat="43.4798" lon="6.29172">
        <ele>164</ele>
        <time>2023-04-28T13:05:16Z</time>
      </trkpt>
      <trkpt lat="43.4798" lon="6.29172">
        <ele>164</ele>
        <time>2023-04-28T13:05:17Z</time>
      </trkpt>
      <trkpt lat="43.4798" lon="6.29172">
        <ele>164</ele>
        <time>2023-04-28T13:05:18Z</time>
      </trkpt>
      <trkpt lat="43.4798" lon="6.29172">
        <ele>164</ele>
        <time>2023-04-28T13:05:19Z</time>
      </trkpt>
      <trkpt lat="43.4798" lon="6.29172">
        <ele>164</ele>
        <time>2023-04-28T13:05:20Z</time>
      </trkpt>
      <trkpt lat="43.4798" lon="6.29172">
        <ele>164</ele>
        <time>2023-04-28T13:05:21Z</time>
      </trkpt>
      <trkpt lat="43.4798" lon="6.29172">
        <ele>164</ele>
        <time>2023-04-28T13:05:22Z</time>
      </trkpt>
      <trkpt lat="43.4798" lon="6.29172">
        <ele>164</ele>
        <time>2023-04-28T13:05:23Z</time>
      </trkpt>
      <trkpt lat="43.4798" lon="6.29172">
        <ele>164</ele>
        <time>2023-04-28T13:05:24Z</time>
      </trkpt>
      <trkpt lat="43.4798" lon="6.29172">
        <ele>164</ele>
        <time>2023-04-28T13:05:25Z</time>
      </trkpt>
      <trkpt lat="43.4798" lon="6.29172">
        <ele>164</ele>
        <time>2023-04-28T13:05:26Z</time>
      </trkpt>
      <trkpt lat="43.4798" lon="6.29172">
        <ele>164</ele>
        <time>2023-04-28T13:05:27Z</time>
      </trkpt>
      <trkpt lat="43.4798" lon="6.29172">
        <ele>164</ele>
        <time>2023-04-28T13:05:28Z</time>
      </trkpt>
      <trkpt lat="43.4798" lon="6.29172">
        <ele>164</ele>
        <time>2023-04-28T13:05:29Z</time>
      </trkpt>
      <trkpt lat="43.4798" lon="6.29172">
        <ele>164</ele>
        <time>2023-04-28T13:05:30Z</time>
      </trkpt>
      <trkpt lat="43.4798" lon="6.29172">
        <ele>164</ele>
        <time>2023-04-28T13:05:31Z</time>
      </trkpt>
      <trkpt lat="43.4798" lon="6.29172">
        <ele>164</ele>
        <time>2023-04-28T13:05:32Z</time>
      </trkpt>
      <trkpt lat="43.4798" lon="6.29172">
        <ele>164</ele>
        <time>2023-04-28T13:05:33Z</time>
      </trkpt>
      <trkpt lat="43.4798" lon="6.29172">
        <ele>164</ele>
        <time>2023-04-28T13:05:34Z</time>
      </trkpt>
      <trkpt lat="43.4798" lon="6.29172">
        <ele>164</ele>
        <time>2023-04-28T13:05:35Z</time>
      </trkpt>
      <trkpt lat="43.4798" lon="6.29172">
        <ele>164</ele>
        <time>2023-04-28T13:05:36Z</time>
      </trkpt>
      <trkpt lat="43.4798" lon="6.29172">
        <ele>164</ele>
        <time>2023-04-28T13:05:37Z</time>
      </trkpt>
      <trkpt lat="43.4798" lon="6.29172">
        <ele>164</ele>
        <time>2023-04-28T13:05:38Z</time>
      </trkpt>
      <trkpt lat="43.4798" lon="6.29172">
        <ele>164</ele>
        <time>2023-04-28T13:05:39Z</time>
      </trkpt>
      <trkpt lat="43.4798" lon="6.29172">
        <ele>164</ele>
        <time>2023-04-28T13:05:40Z</time>
      </trkpt>
      <trkpt lat="43.4798" lon="6.29172">
        <ele>164</ele>
        <time>2023-04-28T13:05:41Z</time>
      </trkpt>
      <trkpt lat="43.4798" lon="6.29172">
        <ele>164</ele>
        <time>2023-04-28T13:05:42Z</time>
      </trkpt>
      <trkpt lat="43.4798" lon="6.29172">
        <ele>164</ele>
        <time>2023-04-28T13:05:43Z</time>
      </trkpt>
      <trkpt lat="43.4798" lon="6.29172">
        <ele>164</ele>
        <time>2023-04-28T13:05:44Z</time>
      </trkpt>
      <trkpt lat="43.4798" lon="6.29172">
        <ele>164</ele>
        <time>2023-04-28T13:05:45Z</time>
      </trkpt>
      <trkpt lat="43.4798" lon="6.29172">
        <ele>164</ele>
        <time>2023-04-28T13:05:46Z</time>
      </trkpt>
      <trkpt lat="43.4798" lon="6.29172">
        <ele>164</ele>
        <time>2023-04-28T13:05:47Z</time>
      </trkpt>
      <trkpt lat="43.4798" lon="6.29172">
        <ele>164</ele>
        <time>2023-04-28T13:05:48Z</time>
      </trkpt>
      <trkpt lat="43.4798" lon="6.29172">
        <ele>164</ele>
        <time>2023-04-28T13:05:49Z</time>
      </trkpt>
      <trkpt lat="43.4798" lon="6.29172">
        <ele>164</ele>
        <time>2023-04-28T13:05:50Z</time>
      </trkpt>
      <trkpt lat="43.4798" lon="6.29172">
        <ele>164</ele>
        <time>2023-04-28T13:05:51Z</time>
      </trkpt>
      <trkpt lat="43.4798" lon="6.29172">
        <ele>164</ele>
        <time>2023-04-28T13:05:52Z</time>
      </trkpt>
      <trkpt lat="43.4798" lon="6.29172">
        <ele>164</ele>
        <time>2023-04-28T13:05:53Z</time>
      </trkpt>
      <trkpt lat="43.4798" lon="6.29172">
        <ele>164</ele>
        <time>2023-04-28T13:05:54Z</time>
      </trkpt>
      <trkpt lat="43.4798" lon="6.29172">
        <ele>164</ele>
        <time>2023-04-28T13:05:55Z</time>
      </trkpt>
      <trkpt lat="43.4798" lon="6.29172">
        <ele>164</ele>
        <time>2023-04-28T13:05:56Z</time>
      </trkpt>
      <trkpt lat="43.4798" lon="6.29172">
        <ele>164</ele>
        <time>2023-04-28T13:05:57Z</time>
      </trkpt>
      <trkpt lat="43.4798" lon="6.29172">
        <ele>164</ele>
        <time>2023-04-28T13:05:58Z</time>
      </trkpt>
      <trkpt lat="43.4798" lon="6.29172">
        <ele>164</ele>
        <time>2023-04-28T13:05:59Z</time>
      </trkpt>
      <trkpt lat="43.4798" lon="6.29172">
        <ele>164</ele>
        <time>2023-04-28T13:06:00Z</time>
      </trkpt>
      <trkpt lat="43.4798" lon="6.29172">
        <ele>164</ele>
        <time>2023-04-28T13:06:01Z</time>
      </trkpt>
      <trkpt lat="43.4798" lon="6.29172">
        <ele>164</ele>
        <time>2023-04-28T13:06:02Z</time>
      </trkpt>
      <trkpt lat="43.4798" lon="6.29172">
        <ele>164</ele>
        <time>2023-04-28T13:06:03Z</time>
      </trkpt>
      <trkpt lat="43.4798" lon="6.29172">
        <ele>164</ele>
        <time>2023-04-28T13:06:04Z</time>
      </trkpt>
      <trkpt lat="43.4798" lon="6.29172">
        <ele>164</ele>
        <time>2023-04-28T13:06:05Z</time>
      </trkpt>
      <trkpt lat="43.4798" lon="6.29172">
        <ele>164</ele>
        <time>2023-04-28T13:06:06Z</time>
      </trkpt>
      <trkpt lat="43.4798" lon="6.29172">
        <ele>164</ele>
        <time>2023-04-28T13:06:07Z</time>
      </trkpt>
      <trkpt lat="43.4798" lon="6.29172">
        <ele>164</ele>
        <time>2023-04-28T13:06:08Z</time>
      </trkpt>
      <trkpt lat="43.4798" lon="6.29172">
        <ele>164</ele>
        <time>2023-04-28T13:06:09Z</time>
      </trkpt>
      <trkpt lat="43.4798" lon="6.29172">
        <ele>164</ele>
        <time>2023-04-28T13:06:10Z</time>
      </trkpt>
      <trkpt lat="43.4798" lon="6.29172">
        <ele>164</ele>
        <time>2023-04-28T13:06:11Z</time>
      </trkpt>
      <trkpt lat="43.4798" lon="6.29172">
        <ele>164</ele>
        <time>2023-04-28T13:06:12Z</time>
      </trkpt>
      <trkpt lat="43.4798" lon="6.29172">
        <ele>164</ele>
        <time>2023-04-28T13:06:13Z</time>
      </trkpt>
      <trkpt lat="43.4798" lon="6.29172">
        <ele>164</ele>
        <time>2023-04-28T13:06:14Z</time>
      </trkpt>
      <trkpt lat="43.47979" lon="6.29169">
        <ele>164</ele>
        <time>2023-04-28T13:06:15Z</time>
      </trkpt>
      <trkpt lat="43.47979" lon="6.29169">
        <ele>164</ele>
        <time>2023-04-28T13:06:16Z</time>
      </trkpt>
      <trkpt lat="43.47979" lon="6.29169">
        <ele>164</ele>
        <time>2023-04-28T13:06:17Z</time>
      </trkpt>
      <trkpt lat="43.47979" lon="6.29169">
        <ele>164</ele>
        <time>2023-04-28T13:06:18Z</time>
      </trkpt>
      <trkpt lat="43.47979" lon="6.29169">
        <ele>164</ele>
        <time>2023-04-28T13:06:19Z</time>
      </trkpt>
      <trkpt lat="43.47979" lon="6.29169">
        <ele>164</ele>
        <time>2023-04-28T13:06:20Z</time>
      </trkpt>
      <trkpt lat="43.47979" lon="6.29169">
        <ele>164</ele>
        <time>2023-04-28T13:06:21Z</time>
      </trkpt>
      <trkpt lat="43.47979" lon="6.29169">
        <ele>164</ele>
        <time>2023-04-28T13:06:22Z</time>
      </trkpt>
      <trkpt lat="43.47979" lon="6.29168">
        <ele>164</ele>
        <time>2023-04-28T13:06:23Z</time>
      </trkpt>
      <trkpt lat="43.47979" lon="6.29168">
        <ele>164</ele>
        <time>2023-04-28T13:06:24Z</time>
      </trkpt>
      <trkpt lat="43.47979" lon="6.29168">
        <ele>164</ele>
        <time>2023-04-28T13:06:25Z</time>
      </trkpt>
      <trkpt lat="43.4798" lon="6.29168">
        <ele>164</ele>
        <time>2023-04-28T13:06:26Z</time>
      </trkpt>
      <trkpt lat="43.4798" lon="6.29168">
        <ele>164</ele>
        <time>2023-04-28T13:06:27Z</time>
      </trkpt>
      <trkpt lat="43.4798" lon="6.29168">
        <ele>164</ele>
        <time>2023-04-28T13:06:28Z</time>
      </trkpt>
      <trkpt lat="43.4798" lon="6.29168">
        <ele>164</ele>
        <time>2023-04-28T13:06:29Z</time>
      </trkpt>
      <trkpt lat="43.4798" lon="6.29168">
        <ele>164</ele>
        <time>2023-04-28T13:06:30Z</time>
      </trkpt>
      <trkpt lat="43.4798" lon="6.29168">
        <ele>164</ele>
        <time>2023-04-28T13:06:31Z</time>
      </trkpt>
      <trkpt lat="43.4798" lon="6.29168">
        <ele>164</ele>
        <time>2023-04-28T13:06:32Z</time>
      </trkpt>
      <trkpt lat="43.4798" lon="6.29168">
        <ele>164</ele>
        <time>2023-04-28T13:06:33Z</time>
      </trkpt>
      <trkpt lat="43.4798" lon="6.29167">
        <ele>164</ele>
        <time>2023-04-28T13:06:34Z</time>
      </trkpt>
      <trkpt lat="43.4798" lon="6.29167">
        <ele>164</ele>
        <time>2023-04-28T13:06:35Z</time>
      </trkpt>
      <trkpt lat="43.47981" lon="6.29167">
        <ele>164</ele>
        <time>2023-04-28T13:06:36Z</time>
      </trkpt>
      <trkpt lat="43.47982" lon="6.29167">
        <ele>163</ele>
        <time>2023-04-28T13:06:37Z</time>
      </trkpt>
      <trkpt lat="43.47982" lon="6.29166">
        <ele>163</ele>
        <time>2023-04-28T13:06:38Z</time>
      </trkpt>
      <trkpt lat="43.47983" lon="6.29166">
        <ele>163</ele>
        <time>2023-04-28T13:06:39Z</time>
      </trkpt>
      <trkpt lat="43.47984" lon="6.29166">
        <ele>163</ele>
        <time>2023-04-28T13:06:40Z</time>
      </trkpt>
      <trkpt lat="43.47984" lon="6.29166">
        <ele>163</ele>
        <time>2023-04-28T13:06:41Z</time>
      </trkpt>
      <trkpt lat="43.47985" lon="6.29165">
        <ele>163</ele>
        <time>2023-04-28T13:06:42Z</time>
      </trkpt>
      <trkpt lat="43.47986" lon="6.29165">
        <ele>163</ele>
        <time>2023-04-28T13:06:43Z</time>
      </trkpt>
      <trkpt lat="43.47987" lon="6.29164">
        <ele>162</ele>
        <time>2023-04-28T13:06:44Z</time>
      </trkpt>
      <trkpt lat="43.47987" lon="6.29163">
        <ele>160</ele>
        <time>2023-04-28T13:06:45Z</time>
      </trkpt>
      <trkpt lat="43.47988" lon="6.29163">
        <ele>159</ele>
        <time>2023-04-28T13:06:46Z</time>
      </trkpt>
      <trkpt lat="43.47989" lon="6.29162">
        <ele>158</ele>
        <time>2023-04-28T13:06:47Z</time>
      </trkpt>
      <trkpt lat="43.4799" lon="6.29162">
        <ele>158</ele>
        <time>2023-04-28T13:06:48Z</time>
      </trkpt>
      <trkpt lat="43.47991" lon="6.29161">
        <ele>158</ele>
        <time>2023-04-28T13:06:49Z</time>
      </trkpt>
      <trkpt lat="43.47992" lon="6.2916">
        <ele>157</ele>
        <time>2023-04-28T13:06:50Z</time>
      </trkpt>
      <trkpt lat="43.47992" lon="6.2916">
        <ele>157</ele>
        <time>2023-04-28T13:06:51Z</time>
      </trkpt>
      <trkpt lat="43.47993" lon="6.29159">
        <ele>157</ele>
        <time>2023-04-28T13:06:52Z</time>
      </trkpt>
      <trkpt lat="43.47994" lon="6.29158">
        <ele>157</ele>
        <time>2023-04-28T13:06:53Z</time>
      </trkpt>
      <trkpt lat="43.47995" lon="6.29158">
        <ele>156</ele>
        <time>2023-04-28T13:06:54Z</time>
      </trkpt>
      <trkpt lat="43.47996" lon="6.29157">
        <ele>155</ele>
        <time>2023-04-28T13:06:55Z</time>
      </trkpt>
      <trkpt lat="43.47997" lon="6.29155">
        <ele>155</ele>
        <time>2023-04-28T13:06:56Z</time>
      </trkpt>
      <trkpt lat="43.47999" lon="6.29154">
        <ele>154</ele>
        <time>2023-04-28T13:06:57Z</time>
      </trkpt>
      <trkpt lat="43.48" lon="6.29153">
        <ele>154</ele>
        <time>2023-04-28T13:06:58Z</time>
      </trkpt>
      <trkpt lat="43.48002" lon="6.29152">
        <ele>154</ele>
        <time>2023-04-28T13:06:59Z</time>
      </trkpt>
      <trkpt lat="43.48003" lon="6.29151">
        <ele>153</ele>
        <time>2023-04-28T13:07:00Z</time>
      </trkpt>
      <trkpt lat="43.48004" lon="6.2915">
        <ele>152</ele>
        <time>2023-04-28T13:07:01Z</time>
      </trkpt>
      <trkpt lat="43.48005" lon="6.29149">
        <ele>152</ele>
        <time>2023-04-28T13:07:02Z</time>
      </trkpt>
      <trkpt lat="43.48006" lon="6.29148">
        <ele>151</ele>
        <time>2023-04-28T13:07:03Z</time>
      </trkpt>
      <trkpt lat="43.48007" lon="6.29147">
        <ele>151</ele>
        <time>2023-04-28T13:07:04Z</time>
      </trkpt>
      <trkpt lat="43.48008" lon="6.29147">
        <ele>151</ele>
        <time>2023-04-28T13:07:05Z</time>
      </trkpt>
      <trkpt lat="43.48009" lon="6.29145">
        <ele>151</ele>
        <time>2023-04-28T13:07:06Z</time>
      </trkpt>
      <trkpt lat="43.4801" lon="6.29145">
        <ele>151</ele>
        <time>2023-04-28T13:07:07Z</time>
      </trkpt>
      <trkpt lat="43.48011" lon="6.29143">
        <ele>150</ele>
        <time>2023-04-28T13:07:08Z</time>
      </trkpt>
      <trkpt lat="43.48012" lon="6.29142">
        <ele>150</ele>
        <time>2023-04-28T13:07:09Z</time>
      </trkpt>
      <trkpt lat="43.48014" lon="6.29141">
        <ele>149</ele>
        <time>2023-04-28T13:07:10Z</time>
      </trkpt>
      <trkpt lat="43.48014" lon="6.2914">
        <ele>149</ele>
        <time>2023-04-28T13:07:11Z</time>
      </trkpt>
      <trkpt lat="43.48015" lon="6.29139">
        <ele>149</ele>
        <time>2023-04-28T13:07:12Z</time>
      </trkpt>
      <trkpt lat="43.48016" lon="6.29138">
        <ele>149</ele>
        <time>2023-04-28T13:07:13Z</time>
      </trkpt>
      <trkpt lat="43.48017" lon="6.29137">
        <ele>149</ele>
        <time>2023-04-28T13:07:14Z</time>
      </trkpt>
      <trkpt lat="43.48018" lon="6.29136">
        <ele>149</ele>
        <time>2023-04-28T13:07:15Z</time>
      </trkpt>
      <trkpt lat="43.48019" lon="6.29135">
        <ele>148</ele>
        <time>2023-04-28T13:07:16Z</time>
      </trkpt>
      <trkpt lat="43.4802" lon="6.29134">
        <ele>148</ele>
        <time>2023-04-28T13:07:17Z</time>
      </trkpt>
      <trkpt lat="43.4802" lon="6.29133">
        <ele>148</ele>
        <time>2023-04-28T13:07:18Z</time>
      </trkpt>
      <trkpt lat="43.48021" lon="6.29132">
        <ele>148</ele>
        <time>2023-04-28T13:07:19Z</time>
      </trkpt>
      <trkpt lat="43.48022" lon="6.2913">
        <ele>148</ele>
        <time>2023-04-28T13:07:20Z</time>
      </trkpt>
      <trkpt lat="43.48023" lon="6.29129">
        <ele>148</ele>
        <time>2023-04-28T13:07:21Z</time>
      </trkpt>
      <trkpt lat="43.48023" lon="6.29128">
        <ele>148</ele>
        <time>2023-04-28T13:07:22Z</time>
      </trkpt>
      <trkpt lat="43.48024" lon="6.29127">
        <ele>148</ele>
        <time>2023-04-28T13:07:23Z</time>
      </trkpt>
      <trkpt lat="43.48025" lon="6.29125">
        <ele>148</ele>
        <time>2023-04-28T13:07:24Z</time>
      </trkpt>
      <trkpt lat="43.48025" lon="6.29124">
        <ele>148</ele>
        <time>2023-04-28T13:07:25Z</time>
      </trkpt>
      <trkpt lat="43.48026" lon="6.29123">
        <ele>148</ele>
        <time>2023-04-28T13:07:26Z</time>
      </trkpt>
      <trkpt lat="43.48026" lon="6.29121">
        <ele>148</ele>
        <time>2023-04-28T13:07:27Z</time>
      </trkpt>
      <trkpt lat="43.48027" lon="6.2912">
        <ele>148</ele>
        <time>2023-04-28T13:07:28Z</time>
      </trkpt>
      <trkpt lat="43.48028" lon="6.29118">
        <ele>148</ele>
        <time>2023-04-28T13:07:29Z</time>
      </trkpt>
      <trkpt lat="43.48028" lon="6.29117">
        <ele>148</ele>
        <time>2023-04-28T13:07:30Z</time>
      </trkpt>
      <trkpt lat="43.48029" lon="6.29116">
        <ele>148</ele>
        <time>2023-04-28T13:07:31Z</time>
      </trkpt>
      <trkpt lat="43.48029" lon="6.29115">
        <ele>148</ele>
        <time>2023-04-28T13:07:32Z</time>
      </trkpt>
      <trkpt lat="43.4803" lon="6.29114">
        <ele>147</ele>
        <time>2023-04-28T13:07:33Z</time>
      </trkpt>
      <trkpt lat="43.48031" lon="6.29113">
        <ele>147</ele>
        <time>2023-04-28T13:07:34Z</time>
      </trkpt>
      <trkpt lat="43.48031" lon="6.29112">
        <ele>147</ele>
        <time>2023-04-28T13:07:35Z</time>
      </trkpt>
      <trkpt lat="43.48032" lon="6.29111">
        <ele>147</ele>
        <time>2023-04-28T13:07:36Z</time>
      </trkpt>
      <trkpt lat="43.48033" lon="6.29109">
        <ele>147</ele>
        <time>2023-04-28T13:07:37Z</time>
      </trkpt>
      <trkpt lat="43.48034" lon="6.29108">
        <ele>147</ele>
        <time>2023-04-28T13:07:38Z</time>
      </trkpt>
      <trkpt lat="43.48034" lon="6.29107">
        <ele>147</ele>
        <time>2023-04-28T13:07:39Z</time>
      </trkpt>
      <trkpt lat="43.48035" lon="6.29106">
        <ele>147</ele>
        <time>2023-04-28T13:07:40Z</time>
      </trkpt>
      <trkpt lat="43.48036" lon="6.29105">
        <ele>147</ele>
        <time>2023-04-28T13:07:41Z</time>
      </trkpt>
      <trkpt lat="43.48037" lon="6.29103">
        <ele>147</ele>
        <time>2023-04-28T13:07:42Z</time>
      </trkpt>
      <trkpt lat="43.48038" lon="6.29102">
        <ele>148</ele>
        <time>2023-04-28T13:07:43Z</time>
      </trkpt>
      <trkpt lat="43.48038" lon="6.29102">
        <ele>148</ele>
        <time>2023-04-28T13:07:44Z</time>
      </trkpt>
      <trkpt lat="43.48039" lon="6.291">
        <ele>149</ele>
        <time>2023-04-28T13:07:45Z</time>
      </trkpt>
      <trkpt lat="43.4804" lon="6.29099">
        <ele>149</ele>
        <time>2023-04-28T13:07:46Z</time>
      </trkpt>
      <trkpt lat="43.48041" lon="6.29098">
        <ele>149</ele>
        <time>2023-04-28T13:07:47Z</time>
      </trkpt>
      <trkpt lat="43.48042" lon="6.29097">
        <ele>149</ele>
        <time>2023-04-28T13:07:48Z</time>
      </trkpt>
      <trkpt lat="43.48043" lon="6.29096">
        <ele>150</ele>
        <time>2023-04-28T13:07:49Z</time>
      </trkpt>
      <trkpt lat="43.48043" lon="6.29094">
        <ele>150</ele>
        <time>2023-04-28T13:07:50Z</time>
      </trkpt>
      <trkpt lat="43.48044" lon="6.29093">
        <ele>150</ele>
        <time>2023-04-28T13:07:51Z</time>
      </trkpt>
      <trkpt lat="43.48045" lon="6.29092">
        <ele>150</ele>
        <time>2023-04-28T13:07:52Z</time>
      </trkpt>
      <trkpt lat="43.48046" lon="6.29091">
        <ele>151</ele>
        <time>2023-04-28T13:07:53Z</time>
      </trkpt>
      <trkpt lat="43.48047" lon="6.29089">
        <ele>151</ele>
        <time>2023-04-28T13:07:54Z</time>
      </trkpt>
      <trkpt lat="43.48047" lon="6.29088">
        <ele>151</ele>
        <time>2023-04-28T13:07:55Z</time>
      </trkpt>
      <trkpt lat="43.48048" lon="6.29087">
        <ele>151</ele>
        <time>2023-04-28T13:07:56Z</time>
      </trkpt>
      <trkpt lat="43.48048" lon="6.29086">
        <ele>151</ele>
        <time>2023-04-28T13:07:57Z</time>
      </trkpt>
      <trkpt lat="43.48049" lon="6.29085">
        <ele>151</ele>
        <time>2023-04-28T13:07:58Z</time>
      </trkpt>
      <trkpt lat="43.48049" lon="6.29084">
        <ele>151</ele>
        <time>2023-04-28T13:07:59Z</time>
      </trkpt>
      <trkpt lat="43.4805" lon="6.29082">
        <ele>151</ele>
        <time>2023-04-28T13:08:00Z</time>
      </trkpt>
      <trkpt lat="43.48051" lon="6.29081">
        <ele>151</ele>
        <time>2023-04-28T13:08:01Z</time>
      </trkpt>
      <trkpt lat="43.48051" lon="6.2908">
        <ele>151</ele>
        <time>2023-04-28T13:08:02Z</time>
      </trkpt>
      <trkpt lat="43.48052" lon="6.29079">
        <ele>151</ele>
        <time>2023-04-28T13:08:03Z</time>
      </trkpt>
      <trkpt lat="43.48053" lon="6.29078">
        <ele>151</ele>
        <time>2023-04-28T13:08:04Z</time>
      </trkpt>
      <trkpt lat="43.48053" lon="6.29077">
        <ele>151</ele>
        <time>2023-04-28T13:08:05Z</time>
      </trkpt>
      <trkpt lat="43.48054" lon="6.29075">
        <ele>151</ele>
        <time>2023-04-28T13:08:06Z</time>
      </trkpt>
      <trkpt lat="43.48055" lon="6.29074">
        <ele>151</ele>
        <time>2023-04-28T13:08:07Z</time>
      </trkpt>
      <trkpt lat="43.48055" lon="6.29073">
        <ele>151</ele>
        <time>2023-04-28T13:08:08Z</time>
      </trkpt>
      <trkpt lat="43.48056" lon="6.29072">
        <ele>151</ele>
        <time>2023-04-28T13:08:09Z</time>
      </trkpt>
      <trkpt lat="43.48057" lon="6.29071">
        <ele>151</ele>
        <time>2023-04-28T13:08:10Z</time>
      </trkpt>
      <trkpt lat="43.48057" lon="6.29069">
        <ele>151</ele>
        <time>2023-04-28T13:08:11Z</time>
      </trkpt>
      <trkpt lat="43.48058" lon="6.29068">
        <ele>151</ele>
        <time>2023-04-28T13:08:12Z</time>
      </trkpt>
      <trkpt lat="43.48058" lon="6.29067">
        <ele>151</ele>
        <time>2023-04-28T13:08:13Z</time>
      </trkpt>
      <trkpt lat="43.48058" lon="6.29066">
        <ele>151</ele>
        <time>2023-04-28T13:08:14Z</time>
      </trkpt>
      <trkpt lat="43.48059" lon="6.29065">
        <ele>151</ele>
        <time>2023-04-28T13:08:15Z</time>
      </trkpt>
      <trkpt lat="43.48059" lon="6.29064">
        <ele>150</ele>
        <time>2023-04-28T13:08:16Z</time>
      </trkpt>
      <trkpt lat="43.4806" lon="6.29062">
        <ele>150</ele>
        <time>2023-04-28T13:08:17Z</time>
      </trkpt>
      <trkpt lat="43.4806" lon="6.29061">
        <ele>150</ele>
        <time>2023-04-28T13:08:18Z</time>
      </trkpt>
      <trkpt lat="43.48061" lon="6.29059">
        <ele>150</ele>
        <time>2023-04-28T13:08:19Z</time>
      </trkpt>
      <trkpt lat="43.48061" lon="6.29057">
        <ele>150</ele>
        <time>2023-04-28T13:08:20Z</time>
      </trkpt>
      <trkpt lat="43.48062" lon="6.29056">
        <ele>151</ele>
        <time>2023-04-28T13:08:21Z</time>
      </trkpt>
      <trkpt lat="43.48062" lon="6.29054">
        <ele>151</ele>
        <time>2023-04-28T13:08:22Z</time>
      </trkpt>
      <trkpt lat="43.48063" lon="6.29052">
        <ele>151</ele>
        <time>2023-04-28T13:08:23Z</time>
      </trkpt>
      <trkpt lat="43.48063" lon="6.29051">
        <ele>151</ele>
        <time>2023-04-28T13:08:24Z</time>
      </trkpt>
      <trkpt lat="43.48063" lon="6.2905">
        <ele>152</ele>
        <time>2023-04-28T13:08:25Z</time>
      </trkpt>
      <trkpt lat="43.48064" lon="6.29048">
        <ele>153</ele>
        <time>2023-04-28T13:08:26Z</time>
      </trkpt>
      <trkpt lat="43.48064" lon="6.29047">
        <ele>153</ele>
        <time>2023-04-28T13:08:27Z</time>
      </trkpt>
      <trkpt lat="43.48064" lon="6.29046">
        <ele>154</ele>
        <time>2023-04-28T13:08:28Z</time>
      </trkpt>
      <trkpt lat="43.48064" lon="6.29044">
        <ele>154</ele>
        <time>2023-04-28T13:08:29Z</time>
      </trkpt>
      <trkpt lat="43.48064" lon="6.29043">
        <ele>154</ele>
        <time>2023-04-28T13:08:30Z</time>
      </trkpt>
      <trkpt lat="43.48065" lon="6.29041">
        <ele>154</ele>
        <time>2023-04-28T13:08:31Z</time>
      </trkpt>
      <trkpt lat="43.48065" lon="6.2904">
        <ele>154</ele>
        <time>2023-04-28T13:08:32Z</time>
      </trkpt>
      <trkpt lat="43.48065" lon="6.29038">
        <ele>155</ele>
        <time>2023-04-28T13:08:33Z</time>
      </trkpt>
      <trkpt lat="43.48065" lon="6.29037">
        <ele>155</ele>
        <time>2023-04-28T13:08:34Z</time>
      </trkpt>
      <trkpt lat="43.48065" lon="6.29036">
        <ele>155</ele>
        <time>2023-04-28T13:08:35Z</time>
      </trkpt>
      <trkpt lat="43.48065" lon="6.29035">
        <ele>155</ele>
        <time>2023-04-28T13:08:36Z</time>
      </trkpt>
      <trkpt lat="43.48065" lon="6.29034">
        <ele>155</ele>
        <time>2023-04-28T13:08:37Z</time>
      </trkpt>
      <trkpt lat="43.48066" lon="6.29033">
        <ele>156</ele>
        <time>2023-04-28T13:08:38Z</time>
      </trkpt>
      <trkpt lat="43.48067" lon="6.29032">
        <ele>156</ele>
        <time>2023-04-28T13:08:39Z</time>
      </trkpt>
      <trkpt lat="43.48067" lon="6.2903">
        <ele>156</ele>
        <time>2023-04-28T13:08:40Z</time>
      </trkpt>
      <trkpt lat="43.48068" lon="6.29029">
        <ele>156</ele>
        <time>2023-04-28T13:08:41Z</time>
      </trkpt>
      <trkpt lat="43.48068" lon="6.29028">
        <ele>156</ele>
        <time>2023-04-28T13:08:42Z</time>
      </trkpt>
      <trkpt lat="43.48068" lon="6.29027">
        <ele>156</ele>
        <time>2023-04-28T13:08:43Z</time>
      </trkpt>
      <trkpt lat="43.48069" lon="6.29025">
        <ele>156</ele>
        <time>2023-04-28T13:08:44Z</time>
      </trkpt>
      <trkpt lat="43.48069" lon="6.29024">
        <ele>156</ele>
        <time>2023-04-28T13:08:45Z</time>
      </trkpt>
      <trkpt lat="43.48069" lon="6.29023">
        <ele>156</ele>
        <time>2023-04-28T13:08:46Z</time>
      </trkpt>
      <trkpt lat="43.48069" lon="6.29022">
        <ele>156</ele>
        <time>2023-04-28T13:08:47Z</time>
      </trkpt>
      <trkpt lat="43.4807" lon="6.2902">
        <ele>156</ele>
        <time>2023-04-28T13:08:48Z</time>
      </trkpt>
      <trkpt lat="43.4807" lon="6.29019">
        <ele>156</ele>
        <time>2023-04-28T13:08:49Z</time>
      </trkpt>
      <trkpt lat="43.4807" lon="6.29017">
        <ele>156</ele>
        <time>2023-04-28T13:08:50Z</time>
      </trkpt>
      <trkpt lat="43.4807" lon="6.29016">
        <ele>155</ele>
        <time>2023-04-28T13:08:51Z</time>
      </trkpt>
      <trkpt lat="43.4807" lon="6.29015">
        <ele>155</ele>
        <time>2023-04-28T13:08:52Z</time>
      </trkpt>
      <trkpt lat="43.4807" lon="6.29013">
        <ele>155</ele>
        <time>2023-04-28T13:08:53Z</time>
      </trkpt>
      <trkpt lat="43.4807" lon="6.29012">
        <ele>155</ele>
        <time>2023-04-28T13:08:54Z</time>
      </trkpt>
      <trkpt lat="43.48071" lon="6.2901">
        <ele>155</ele>
        <time>2023-04-28T13:08:55Z</time>
      </trkpt>
      <trkpt lat="43.48071" lon="6.29009">
        <ele>155</ele>
        <time>2023-04-28T13:08:56Z</time>
      </trkpt>
      <trkpt lat="43.48071" lon="6.29007">
        <ele>155</ele>
        <time>2023-04-28T13:08:57Z</time>
      </trkpt>
      <trkpt lat="43.48072" lon="6.29006">
        <ele>155</ele>
        <time>2023-04-28T13:08:58Z</time>
      </trkpt>
      <trkpt lat="43.48072" lon="6.29004">
        <ele>155</ele>
        <time>2023-04-28T13:08:59Z</time>
      </trkpt>
      <trkpt lat="43.48072" lon="6.29003">
        <ele>155</ele>
        <time>2023-04-28T13:09:00Z</time>
      </trkpt>
      <trkpt lat="43.48072" lon="6.29002">
        <ele>155</ele>
        <time>2023-04-28T13:09:01Z</time>
      </trkpt>
      <trkpt lat="43.48072" lon="6.29">
        <ele>154</ele>
        <time>2023-04-28T13:09:02Z</time>
      </trkpt>
      <trkpt lat="43.48072" lon="6.28999">
        <ele>154</ele>
        <time>2023-04-28T13:09:03Z</time>
      </trkpt>
      <trkpt lat="43.48072" lon="6.28998">
        <ele>154</ele>
        <time>2023-04-28T13:09:04Z</time>
      </trkpt>
      <trkpt lat="43.48072" lon="6.28997">
        <ele>154</ele>
        <time>2023-04-28T13:09:05Z</time>
      </trkpt>
      <trkpt lat="43.48072" lon="6.28996">
        <ele>154</ele>
        <time>2023-04-28T13:09:06Z</time>
      </trkpt>
      <trkpt lat="43.48072" lon="6.28994">
        <ele>154</ele>
        <time>2023-04-28T13:09:07Z</time>
      </trkpt>
      <trkpt lat="43.48071" lon="6.28993">
        <ele>154</ele>
        <time>2023-04-28T13:09:08Z</time>
      </trkpt>
      <trkpt lat="43.48071" lon="6.28992">
        <ele>154</ele>
        <time>2023-04-28T13:09:09Z</time>
      </trkpt>
      <trkpt lat="43.48071" lon="6.28991">
        <ele>154</ele>
        <time>2023-04-28T13:09:10Z</time>
      </trkpt>
      <trkpt lat="43.4807" lon="6.2899">
        <ele>154</ele>
        <time>2023-04-28T13:09:11Z</time>
      </trkpt>
      <trkpt lat="43.4807" lon="6.2899">
        <ele>154</ele>
        <time>2023-04-28T13:09:12Z</time>
      </trkpt>
      <trkpt lat="43.48069" lon="6.2899">
        <ele>154</ele>
        <time>2023-04-28T13:09:13Z</time>
      </trkpt>
      <trkpt lat="43.48069" lon="6.2899">
        <ele>154</ele>
        <time>2023-04-28T13:09:14Z</time>
      </trkpt>
      <trkpt lat="43.48068" lon="6.2899">
        <ele>154</ele>
        <time>2023-04-28T13:09:15Z</time>
      </trkpt>
      <trkpt lat="43.48068" lon="6.2899">
        <ele>154</ele>
        <time>2023-04-28T13:09:16Z</time>
      </trkpt>
      <trkpt lat="43.48068" lon="6.28991">
        <ele>154</ele>
        <time>2023-04-28T13:09:17Z</time>
      </trkpt>
      <trkpt lat="43.48068" lon="6.28991">
        <ele>154</ele>
        <time>2023-04-28T13:09:18Z</time>
      </trkpt>
      <trkpt lat="43.48068" lon="6.28991">
        <ele>154</ele>
        <time>2023-04-28T13:09:19Z</time>
      </trkpt>
      <trkpt lat="43.48068" lon="6.28991">
        <ele>154</ele>
        <time>2023-04-28T13:09:20Z</time>
      </trkpt>
      <trkpt lat="43.48068" lon="6.28991">
        <ele>154</ele>
        <time>2023-04-28T13:09:21Z</time>
      </trkpt>
      <trkpt lat="43.48068" lon="6.28991">
        <ele>154</ele>
        <time>2023-04-28T13:09:22Z</time>
      </trkpt>
      <trkpt lat="43.48068" lon="6.28991">
        <ele>154</ele>
        <time>2023-04-28T13:09:23Z</time>
      </trkpt>
      <trkpt lat="43.48068" lon="6.28991">
        <ele>154</ele>
        <time>2023-04-28T13:09:24Z</time>
      </trkpt>
      <trkpt lat="43.48068" lon="6.28991">
        <ele>154</ele>
        <time>2023-04-28T13:09:25Z</time>
      </trkpt>
      <trkpt lat="43.48068" lon="6.28991">
        <ele>154</ele>
        <time>2023-04-28T13:09:26Z</time>
      </trkpt>
      <trkpt lat="43.48068" lon="6.28991">
        <ele>154</ele>
        <time>2023-04-28T13:09:27Z</time>
      </trkpt>
      <trkpt lat="43.48068" lon="6.28991">
        <ele>154</ele>
        <time>2023-04-28T13:09:28Z</time>
      </trkpt>
      <trkpt lat="43.48068" lon="6.28991">
        <ele>154</ele>
        <time>2023-04-28T13:09:29Z</time>
      </trkpt>
      <trkpt lat="43.48068" lon="6.28991">
        <ele>154</ele>
        <time>2023-04-28T13:09:30Z</time>
      </trkpt>
      <trkpt lat="43.48068" lon="6.28991">
        <ele>154</ele>
        <time>2023-04-28T13:09:31Z</time>
      </trkpt>
      <trkpt lat="43.48068" lon="6.28991">
        <ele>154</ele>
        <time>2023-04-28T13:09:32Z</time>
      </trkpt>
      <trkpt lat="43.48068" lon="6.28991">
        <ele>154</ele>
        <time>2023-04-28T13:09:33Z</time>
      </trkpt>
      <trkpt lat="43.48068" lon="6.28991">
        <ele>154</ele>
        <time>2023-04-28T13:09:34Z</time>
      </trkpt>
      <trkpt lat="43.48068" lon="6.28991">
        <ele>154</ele>
        <time>2023-04-28T13:09:35Z</time>
      </trkpt>
      <trkpt lat="43.48068" lon="6.28991">
        <ele>154</ele>
        <time>2023-04-28T13:09:36Z</time>
      </trkpt>
      <trkpt lat="43.48068" lon="6.28991">
        <ele>154</ele>
        <time>2023-04-28T13:09:37Z</time>
      </trkpt>
      <trkpt lat="43.48068" lon="6.28991">
        <ele>154</ele>
        <time>2023-04-28T13:09:38Z</time>
      </trkpt>
      <trkpt lat="43.48068" lon="6.28991">
        <ele>154</ele>
        <time>2023-04-28T13:09:39Z</time>
      </trkpt>
      <trkpt lat="43.48068" lon="6.28991">
        <ele>154</ele>
        <time>2023-04-28T13:09:40Z</time>
      </trkpt>
      <trkpt lat="43.48068" lon="6.28991">
        <ele>154</ele>
        <time>2023-04-28T13:09:41Z</time>
      </trkpt>
      <trkpt lat="43.48068" lon="6.28991">
        <ele>154</ele>
        <time>2023-04-28T13:09:42Z</time>
      </trkpt>
      <trkpt lat="43.48068" lon="6.28991">
        <ele>154</ele>
        <time>2023-04-28T13:09:43Z</time>
      </trkpt>
      <trkpt lat="43.48068" lon="6.28991">
        <ele>154</ele>
        <time>2023-04-28T13:09:44Z</time>
      </trkpt>
      <trkpt lat="43.48068" lon="6.28991">
        <ele>154</ele>
        <time>2023-04-28T13:09:45Z</time>
      </trkpt>
      <trkpt lat="43.48068" lon="6.28991">
        <ele>154</ele>
        <time>2023-04-28T13:09:46Z</time>
      </trkpt>
      <trkpt lat="43.48068" lon="6.28991">
        <ele>154</ele>
        <time>2023-04-28T13:09:47Z</time>
      </trkpt>
      <trkpt lat="43.48068" lon="6.28991">
        <ele>154</ele>
        <time>2023-04-28T13:09:48Z</time>
      </trkpt>
      <trkpt lat="43.48068" lon="6.28991">
        <ele>154</ele>
        <time>2023-04-28T13:09:49Z</time>
      </trkpt>
      <trkpt lat="43.48068" lon="6.28991">
        <ele>154</ele>
        <time>2023-04-28T13:09:50Z</time>
      </trkpt>
      <trkpt lat="43.48068" lon="6.28991">
        <ele>154</ele>
        <time>2023-04-28T13:09:51Z</time>
      </trkpt>
      <trkpt lat="43.48068" lon="6.28991">
        <ele>154</ele>
        <time>2023-04-28T13:09:52Z</time>
      </trkpt>
      <trkpt lat="43.48068" lon="6.28991">
        <ele>154</ele>
        <time>2023-04-28T13:09:53Z</time>
      </trkpt>
      <trkpt lat="43.48068" lon="6.28991">
        <ele>154</ele>
        <time>2023-04-28T13:09:54Z</time>
      </trkpt>
      <trkpt lat="43.48068" lon="6.28991">
        <ele>154</ele>
        <time>2023-04-28T13:09:55Z</time>
      </trkpt>
      <trkpt lat="43.48068" lon="6.28991">
        <ele>154</ele>
        <time>2023-04-28T13:09:56Z</time>
      </trkpt>
      <trkpt lat="43.48068" lon="6.28991">
        <ele>154</ele>
        <time>2023-04-28T13:09:57Z</time>
      </trkpt>
      <trkpt lat="43.48068" lon="6.28991">
        <ele>154</ele>
        <time>2023-04-28T13:09:58Z</time>
      </trkpt>
      <trkpt lat="43.48068" lon="6.28991">
        <ele>154</ele>
        <time>2023-04-28T13:09:59Z</time>
      </trkpt>
      <trkpt lat="43.48068" lon="6.28991">
        <ele>154</ele>
        <time>2023-04-28T13:10:00Z</time>
      </trkpt>
      <trkpt lat="43.48068" lon="6.28991">
        <ele>154</ele>
        <time>2023-04-28T13:10:01Z</time>
      </trkpt>
      <trkpt lat="43.48068" lon="6.28991">
        <ele>154</ele>
        <time>2023-04-28T13:10:02Z</time>
      </trkpt>
      <trkpt lat="43.48068" lon="6.28991">
        <ele>154</ele>
        <time>2023-04-28T13:10:03Z</time>
      </trkpt>
      <trkpt lat="43.48068" lon="6.28991">
        <ele>154</ele>
        <time>2023-04-28T13:10:04Z</time>
      </trkpt>
      <trkpt lat="43.48068" lon="6.28991">
        <ele>154</ele>
        <time>2023-04-28T13:10:05Z</time>
      </trkpt>
      <trkpt lat="43.48068" lon="6.28991">
        <ele>154</ele>
        <time>2023-04-28T13:10:06Z</time>
      </trkpt>
      <trkpt lat="43.48068" lon="6.28991">
        <ele>154</ele>
        <time>2023-04-28T13:10:07Z</time>
      </trkpt>
      <trkpt lat="43.48068" lon="6.28991">
        <ele>154</ele>
        <time>2023-04-28T13:10:08Z</time>
      </trkpt>
      <trkpt lat="43.48068" lon="6.28991">
        <ele>154</ele>
        <time>2023-04-28T13:10:09Z</time>
      </trkpt>
      <trkpt lat="43.48068" lon="6.28991">
        <ele>154</ele>
        <time>2023-04-28T13:10:10Z</time>
      </trkpt>
      <trkpt lat="43.48068" lon="6.28991">
        <ele>154</ele>
        <time>2023-04-28T13:10:11Z</time>
      </trkpt>
      <trkpt lat="43.48068" lon="6.28991">
        <ele>154</ele>
        <time>2023-04-28T13:10:12Z</time>
      </trkpt>
      <trkpt lat="43.48068" lon="6.28991">
        <ele>154</ele>
        <time>2023-04-28T13:10:13Z</time>
      </trkpt>
      <trkpt lat="43.48068" lon="6.28991">
        <ele>154</ele>
        <time>2023-04-28T13:10:14Z</time>
      </trkpt>
      <trkpt lat="43.48068" lon="6.28991">
        <ele>154</ele>
        <time>2023-04-28T13:10:15Z</time>
      </trkpt>
      <trkpt lat="43.48068" lon="6.28991">
        <ele>154</ele>
        <time>2023-04-28T13:10:16Z</time>
      </trkpt>
      <trkpt lat="43.48068" lon="6.28991">
        <ele>154</ele>
        <time>2023-04-28T13:10:17Z</time>
      </trkpt>
      <trkpt lat="43.48068" lon="6.28991">
        <ele>154</ele>
        <time>2023-04-28T13:10:18Z</time>
      </trkpt>
      <trkpt lat="43.48068" lon="6.28991">
        <ele>154</ele>
        <time>2023-04-28T13:10:19Z</time>
      </trkpt>
      <trkpt lat="43.48068" lon="6.28991">
        <ele>154</ele>
        <time>2023-04-28T13:10:20Z</time>
      </trkpt>
      <trkpt lat="43.48068" lon="6.28991">
        <ele>154</ele>
        <time>2023-04-28T13:10:21Z</time>
      </trkpt>
      <trkpt lat="43.48068" lon="6.28991">
        <ele>154</ele>
        <time>2023-04-28T13:10:22Z</time>
      </trkpt>
      <trkpt lat="43.48068" lon="6.28991">
        <ele>154</ele>
        <time>2023-04-28T13:10:23Z</time>
      </trkpt>
      <trkpt lat="43.48072" lon="6.28993">
        <ele>154</ele>
        <time>2023-04-28T13:10:24Z</time>
      </trkpt>
      <trkpt lat="43.48072" lon="6.28993">
        <ele>154</ele>
        <time>2023-04-28T13:10:25Z</time>
      </trkpt>
      <trkpt lat="43.48072" lon="6.28993">
        <ele>154</ele>
        <time>2023-04-28T13:10:26Z</time>
      </trkpt>
      <trkpt lat="43.48072" lon="6.28993">
        <ele>154</ele>
        <time>2023-04-28T13:10:27Z</time>
      </trkpt>
      <trkpt lat="43.48071" lon="6.28993">
        <ele>154</ele>
        <time>2023-04-28T13:10:28Z</time>
      </trkpt>
      <trkpt lat="43.48071" lon="6.28993">
        <ele>154</ele>
        <time>2023-04-28T13:10:29Z</time>
      </trkpt>
      <trkpt lat="43.48071" lon="6.28993">
        <ele>154</ele>
        <time>2023-04-28T13:10:30Z</time>
      </trkpt>
      <trkpt lat="43.48071" lon="6.28993">
        <ele>154</ele>
        <time>2023-04-28T13:10:31Z</time>
      </trkpt>
      <trkpt lat="43.48071" lon="6.28993">
        <ele>154</ele>
        <time>2023-04-28T13:10:32Z</time>
      </trkpt>
      <trkpt lat="43.48071" lon="6.28993">
        <ele>154</ele>
        <time>2023-04-28T13:10:33Z</time>
      </trkpt>
      <trkpt lat="43.48071" lon="6.28993">
        <ele>154</ele>
        <time>2023-04-28T13:10:34Z</time>
      </trkpt>
      <trkpt lat="43.48071" lon="6.28993">
        <ele>154</ele>
        <time>2023-04-28T13:10:35Z</time>
      </trkpt>
      <trkpt lat="43.48071" lon="6.28993">
        <ele>154</ele>
        <time>2023-04-28T13:10:36Z</time>
      </trkpt>
      <trkpt lat="43.48071" lon="6.28993">
        <ele>154</ele>
        <time>2023-04-28T13:10:37Z</time>
      </trkpt>
      <trkpt lat="43.48071" lon="6.28993">
        <ele>154</ele>
        <time>2023-04-28T13:10:38Z</time>
      </trkpt>
      <trkpt lat="43.48071" lon="6.28993">
        <ele>155</ele>
        <time>2023-04-28T13:10:39Z</time>
      </trkpt>
      <trkpt lat="43.48071" lon="6.28993">
        <ele>155</ele>
        <time>2023-04-28T13:10:40Z</time>
      </trkpt>
      <trkpt lat="43.48071" lon="6.28993">
        <ele>155</ele>
        <time>2023-04-28T13:10:41Z</time>
      </trkpt>
      <trkpt lat="43.48071" lon="6.28993">
        <ele>155</ele>
        <time>2023-04-28T13:10:42Z</time>
      </trkpt>
      <trkpt lat="43.48071" lon="6.28993">
        <ele>155</ele>
        <time>2023-04-28T13:10:43Z</time>
      </trkpt>
      <trkpt lat="43.48071" lon="6.28993">
        <ele>155</ele>
        <time>2023-04-28T13:10:44Z</time>
      </trkpt>
      <trkpt lat="43.48071" lon="6.28993">
        <ele>155</ele>
        <time>2023-04-28T13:10:45Z</time>
      </trkpt>
      <trkpt lat="43.48071" lon="6.28993">
        <ele>155</ele>
        <time>2023-04-28T13:10:46Z</time>
      </trkpt>
      <trkpt lat="43.48071" lon="6.28993">
        <ele>155</ele>
        <time>2023-04-28T13:10:47Z</time>
      </trkpt>
      <trkpt lat="43.48071" lon="6.28993">
        <ele>155</ele>
        <time>2023-04-28T13:10:48Z</time>
      </trkpt>
      <trkpt lat="43.48071" lon="6.28993">
        <ele>155</ele>
        <time>2023-04-28T13:10:49Z</time>
      </trkpt>
      <trkpt lat="43.48071" lon="6.28993">
        <ele>155</ele>
        <time>2023-04-28T13:10:50Z</time>
      </trkpt>
      <trkpt lat="43.48071" lon="6.28993">
        <ele>155</ele>
        <time>2023-04-28T13:10:51Z</time>
      </trkpt>
      <trkpt lat="43.48071" lon="6.28993">
        <ele>155</ele>
        <time>2023-04-28T13:10:52Z</time>
      </trkpt>
      <trkpt lat="43.48071" lon="6.28993">
        <ele>155</ele>
        <time>2023-04-28T13:10:53Z</time>
      </trkpt>
      <trkpt lat="43.48071" lon="6.28993">
        <ele>155</ele>
        <time>2023-04-28T13:10:54Z</time>
      </trkpt>
      <trkpt lat="43.48072" lon="6.28992">
        <ele>155</ele>
        <time>2023-04-28T13:10:55Z</time>
      </trkpt>
      <trkpt lat="43.48073" lon="6.28991">
        <ele>155</ele>
        <time>2023-04-28T13:10:56Z</time>
      </trkpt>
      <trkpt lat="43.48073" lon="6.28991">
        <ele>155</ele>
        <time>2023-04-28T13:10:57Z</time>
      </trkpt>
      <trkpt lat="43.48073" lon="6.28991">
        <ele>155</ele>
        <time>2023-04-28T13:10:58Z</time>
      </trkpt>
      <trkpt lat="43.48073" lon="6.28991">
        <ele>155</ele>
        <time>2023-04-28T13:10:59Z</time>
      </trkpt>
      <trkpt lat="43.48073" lon="6.28991">
        <ele>155</ele>
        <time>2023-04-28T13:11:00Z</time>
      </trkpt>
      <trkpt lat="43.48073" lon="6.28991">
        <ele>155</ele>
        <time>2023-04-28T13:11:01Z</time>
      </trkpt>
      <trkpt lat="43.48073" lon="6.28991">
        <ele>155</ele>
        <time>2023-04-28T13:11:02Z</time>
      </trkpt>
      <trkpt lat="43.48073" lon="6.28991">
        <ele>155</ele>
        <time>2023-04-28T13:11:03Z</time>
      </trkpt>
      <trkpt lat="43.48073" lon="6.2899">
        <ele>155</ele>
        <time>2023-04-28T13:11:04Z</time>
      </trkpt>
      <trkpt lat="43.48073" lon="6.2899">
        <ele>155</ele>
        <time>2023-04-28T13:11:05Z</time>
      </trkpt>
      <trkpt lat="43.48073" lon="6.2899">
        <ele>155</ele>
        <time>2023-04-28T13:11:06Z</time>
      </trkpt>
      <trkpt lat="43.48073" lon="6.2899">
        <ele>155</ele>
        <time>2023-04-28T13:11:07Z</time>
      </trkpt>
      <trkpt lat="43.48073" lon="6.2899">
        <ele>155</ele>
        <time>2023-04-28T13:11:08Z</time>
      </trkpt>
      <trkpt lat="43.48073" lon="6.2899">
        <ele>155</ele>
        <time>2023-04-28T13:11:09Z</time>
      </trkpt>
      <trkpt lat="43.48073" lon="6.2899">
        <ele>155</ele>
        <time>2023-04-28T13:11:10Z</time>
      </trkpt>
      <trkpt lat="43.48073" lon="6.2899">
        <ele>155</ele>
        <time>2023-04-28T13:11:11Z</time>
      </trkpt>
      <trkpt lat="43.48073" lon="6.2899">
        <ele>155</ele>
        <time>2023-04-28T13:11:12Z</time>
      </trkpt>
      <trkpt lat="43.48073" lon="6.2899">
        <ele>155</ele>
        <time>2023-04-28T13:11:13Z</time>
      </trkpt>
      <trkpt lat="43.48073" lon="6.2899">
        <ele>155</ele>
        <time>2023-04-28T13:11:14Z</time>
      </trkpt>
      <trkpt lat="43.48073" lon="6.2899">
        <ele>155</ele>
        <time>2023-04-28T13:11:15Z</time>
      </trkpt>
      <trkpt lat="43.48073" lon="6.2899">
        <ele>155</ele>
        <time>2023-04-28T13:11:16Z</time>
      </trkpt>
      <trkpt lat="43.48073" lon="6.2899">
        <ele>155</ele>
        <time>2023-04-28T13:11:17Z</time>
      </trkpt>
      <trkpt lat="43.48073" lon="6.2899">
        <ele>155</ele>
        <time>2023-04-28T13:11:18Z</time>
      </trkpt>
      <trkpt lat="43.48073" lon="6.2899">
        <ele>155</ele>
        <time>2023-04-28T13:11:19Z</time>
      </trkpt>
      <trkpt lat="43.48073" lon="6.2899">
        <ele>155</ele>
        <time>2023-04-28T13:11:20Z</time>
      </trkpt>
      <trkpt lat="43.48073" lon="6.2899">
        <ele>155</ele>
        <time>2023-04-28T13:11:21Z</time>
      </trkpt>
      <trkpt lat="43.48073" lon="6.2899">
        <ele>155</ele>
        <time>2023-04-28T13:11:22Z</time>
      </trkpt>
      <trkpt lat="43.48073" lon="6.2899">
        <ele>155</ele>
        <time>2023-04-28T13:11:23Z</time>
      </trkpt>
      <trkpt lat="43.48073" lon="6.2899">
        <ele>155</ele>
        <time>2023-04-28T13:11:24Z</time>
      </trkpt>
      <trkpt lat="43.48073" lon="6.2899">
        <ele>155</ele>
        <time>2023-04-28T13:11:25Z</time>
      </trkpt>
      <trkpt lat="43.48073" lon="6.2899">
        <ele>155</ele>
        <time>2023-04-28T13:11:26Z</time>
      </trkpt>
      <trkpt lat="43.48073" lon="6.2899">
        <ele>155</ele>
        <time>2023-04-28T13:11:27Z</time>
      </trkpt>
      <trkpt lat="43.48073" lon="6.2899">
        <ele>155</ele>
        <time>2023-04-28T13:11:28Z</time>
      </trkpt>
      <trkpt lat="43.48073" lon="6.2899">
        <ele>155</ele>
        <time>2023-04-28T13:11:29Z</time>
      </trkpt>
      <trkpt lat="43.48073" lon="6.2899">
        <ele>155</ele>
        <time>2023-04-28T13:11:30Z</time>
      </trkpt>
      <trkpt lat="43.48073" lon="6.2899">
        <ele>155</ele>
        <time>2023-04-28T13:11:31Z</time>
      </trkpt>
      <trkpt lat="43.48073" lon="6.2899">
        <ele>155</ele>
        <time>2023-04-28T13:11:32Z</time>
      </trkpt>
      <trkpt lat="43.48073" lon="6.2899">
        <ele>155</ele>
        <time>2023-04-28T13:11:33Z</time>
      </trkpt>
      <trkpt lat="43.48073" lon="6.2899">
        <ele>155</ele>
        <time>2023-04-28T13:11:34Z</time>
      </trkpt>
      <trkpt lat="43.48073" lon="6.2899">
        <ele>155</ele>
        <time>2023-04-28T13:11:35Z</time>
      </trkpt>
      <trkpt lat="43.48073" lon="6.2899">
        <ele>155</ele>
        <time>2023-04-28T13:11:36Z</time>
      </trkpt>
      <trkpt lat="43.48073" lon="6.2899">
        <ele>155</ele>
        <time>2023-04-28T13:11:37Z</time>
      </trkpt>
      <trkpt lat="43.48073" lon="6.2899">
        <ele>155</ele>
        <time>2023-04-28T13:11:38Z</time>
      </trkpt>
      <trkpt lat="43.48073" lon="6.2899">
        <ele>155</ele>
        <time>2023-04-28T13:11:39Z</time>
      </trkpt>
      <trkpt lat="43.48073" lon="6.2899">
        <ele>155</ele>
        <time>2023-04-28T13:11:40Z</time>
      </trkpt>
      <trkpt lat="43.48073" lon="6.2899">
        <ele>155</ele>
        <time>2023-04-28T13:11:41Z</time>
      </trkpt>
      <trkpt lat="43.48073" lon="6.2899">
        <ele>155</ele>
        <time>2023-04-28T13:11:42Z</time>
      </trkpt>
      <trkpt lat="43.48073" lon="6.2899">
        <ele>155</ele>
        <time>2023-04-28T13:11:43Z</time>
      </trkpt>
      <trkpt lat="43.48073" lon="6.2899">
        <ele>155</ele>
        <time>2023-04-28T13:11:44Z</time>
      </trkpt>
      <trkpt lat="43.48073" lon="6.2899">
        <ele>155</ele>
        <time>2023-04-28T13:11:45Z</time>
      </trkpt>
      <trkpt lat="43.48073" lon="6.2899">
        <ele>155</ele>
        <time>2023-04-28T13:11:46Z</time>
      </trkpt>
      <trkpt lat="43.48073" lon="6.2899">
        <ele>155</ele>
        <time>2023-04-28T13:11:47Z</time>
      </trkpt>
      <trkpt lat="43.48073" lon="6.2899">
        <ele>155</ele>
        <time>2023-04-28T13:11:48Z</time>
      </trkpt>
      <trkpt lat="43.48073" lon="6.2899">
        <ele>155</ele>
        <time>2023-04-28T13:11:49Z</time>
      </trkpt>
      <trkpt lat="43.48073" lon="6.2899">
        <ele>155</ele>
        <time>2023-04-28T13:11:50Z</time>
      </trkpt>
      <trkpt lat="43.48073" lon="6.2899">
        <ele>155</ele>
        <time>2023-04-28T13:11:51Z</time>
      </trkpt>
      <trkpt lat="43.48073" lon="6.2899">
        <ele>155</ele>
        <time>2023-04-28T13:11:52Z</time>
      </trkpt>
      <trkpt lat="43.48073" lon="6.2899">
        <ele>155</ele>
        <time>2023-04-28T13:11:53Z</time>
      </trkpt>
      <trkpt lat="43.48073" lon="6.2899">
        <ele>155</ele>
        <time>2023-04-28T13:11:54Z</time>
      </trkpt>
      <trkpt lat="43.48073" lon="6.2899">
        <ele>155</ele>
        <time>2023-04-28T13:11:55Z</time>
      </trkpt>
      <trkpt lat="43.48073" lon="6.2899">
        <ele>155</ele>
        <time>2023-04-28T13:11:56Z</time>
      </trkpt>
      <trkpt lat="43.48073" lon="6.2899">
        <ele>155</ele>
        <time>2023-04-28T13:11:57Z</time>
      </trkpt>
      <trkpt lat="43.48073" lon="6.2899">
        <ele>155</ele>
        <time>2023-04-28T13:11:58Z</time>
      </trkpt>
      <trkpt lat="43.48073" lon="6.2899">
        <ele>155</ele>
        <time>2023-04-28T13:11:59Z</time>
      </trkpt>
      <trkpt lat="43.48073" lon="6.2899">
        <ele>155</ele>
        <time>2023-04-28T13:12:00Z</time>
      </trkpt>
      <trkpt lat="43.48073" lon="6.2899">
        <ele>155</ele>
        <time>2023-04-28T13:12:01Z</time>
      </trkpt>
      <trkpt lat="43.48073" lon="6.2899">
        <ele>155</ele>
        <time>2023-04-28T13:12:02Z</time>
      </trkpt>
      <trkpt lat="43.48073" lon="6.2899">
        <ele>155</ele>
        <time>2023-04-28T13:12:03Z</time>
      </trkpt>
      <trkpt lat="43.48073" lon="6.2899">
        <ele>155</ele>
        <time>2023-04-28T13:12:04Z</time>
      </trkpt>
      <trkpt lat="43.48073" lon="6.2899">
        <ele>155</ele>
        <time>2023-04-28T13:12:05Z</time>
      </trkpt>
      <trkpt lat="43.48073" lon="6.2899">
        <ele>155</ele>
        <time>2023-04-28T13:12:06Z</time>
      </trkpt>
      <trkpt lat="43.48073" lon="6.2899">
        <ele>155</ele>
        <time>2023-04-28T13:12:07Z</time>
      </trkpt>
      <trkpt lat="43.48073" lon="6.2899">
        <ele>155</ele>
        <time>2023-04-28T13:12:08Z</time>
      </trkpt>
      <trkpt lat="43.48073" lon="6.2899">
        <ele>155</ele>
        <time>2023-04-28T13:12:09Z</time>
      </trkpt>
      <trkpt lat="43.48073" lon="6.2899">
        <ele>155</ele>
        <time>2023-04-28T13:12:10Z</time>
      </trkpt>
      <trkpt lat="43.48073" lon="6.2899">
        <ele>155</ele>
        <time>2023-04-28T13:12:11Z</time>
      </trkpt>
      <trkpt lat="43.48073" lon="6.2899">
        <ele>155</ele>
        <time>2023-04-28T13:12:12Z</time>
      </trkpt>
      <trkpt lat="43.48073" lon="6.2899">
        <ele>155</ele>
        <time>2023-04-28T13:12:13Z</time>
      </trkpt>
      <trkpt lat="43.48073" lon="6.2899">
        <ele>155</ele>
        <time>2023-04-28T13:12:14Z</time>
      </trkpt>
      <trkpt lat="43.48073" lon="6.2899">
        <ele>155</ele>
        <time>2023-04-28T13:12:15Z</time>
      </trkpt>
      <trkpt lat="43.48073" lon="6.2899">
        <ele>155</ele>
        <time>2023-04-28T13:12:16Z</time>
      </trkpt>
      <trkpt lat="43.48073" lon="6.2899">
        <ele>155</ele>
        <time>2023-04-28T13:12:17Z</time>
      </trkpt>
      <trkpt lat="43.48073" lon="6.2899">
        <ele>155</ele>
        <time>2023-04-28T13:12:18Z</time>
      </trkpt>
      <trkpt lat="43.48073" lon="6.2899">
        <ele>155</ele>
        <time>2023-04-28T13:12:19Z</time>
      </trkpt>
      <trkpt lat="43.48073" lon="6.2899">
        <ele>155</ele>
        <time>2023-04-28T13:12:20Z</time>
      </trkpt>
      <trkpt lat="43.48073" lon="6.2899">
        <ele>155</ele>
        <time>2023-04-28T13:12:21Z</time>
      </trkpt>
      <trkpt lat="43.48073" lon="6.2899">
        <ele>155</ele>
        <time>2023-04-28T13:12:22Z</time>
      </trkpt>
      <trkpt lat="43.48073" lon="6.2899">
        <ele>155</ele>
        <time>2023-04-28T13:12:23Z</time>
      </trkpt>
      <trkpt lat="43.48073" lon="6.2899">
        <ele>155</ele>
        <time>2023-04-28T13:12:24Z</time>
      </trkpt>
      <trkpt lat="43.48073" lon="6.2899">
        <ele>155</ele>
        <time>2023-04-28T13:12:25Z</time>
      </trkpt>
      <trkpt lat="43.48073" lon="6.2899">
        <ele>155</ele>
        <time>2023-04-28T13:12:26Z</time>
      </trkpt>
      <trkpt lat="43.48073" lon="6.2899">
        <ele>155</ele>
        <time>2023-04-28T13:12:27Z</time>
      </trkpt>
      <trkpt lat="43.48073" lon="6.2899">
        <ele>155</ele>
        <time>2023-04-28T13:12:28Z</time>
      </trkpt>
      <trkpt lat="43.48073" lon="6.2899">
        <ele>155</ele>
        <time>2023-04-28T13:12:29Z</time>
      </trkpt>
      <trkpt lat="43.48073" lon="6.2899">
        <ele>155</ele>
        <time>2023-04-28T13:12:30Z</time>
      </trkpt>
      <trkpt lat="43.48073" lon="6.28987">
        <ele>155</ele>
        <time>2023-04-28T13:12:31Z</time>
      </trkpt>
      <trkpt lat="43.48073" lon="6.28987">
        <ele>155</ele>
        <time>2023-04-28T13:12:32Z</time>
      </trkpt>
      <trkpt lat="43.48073" lon="6.28987">
        <ele>155</ele>
        <time>2023-04-28T13:12:33Z</time>
      </trkpt>
      <trkpt lat="43.48073" lon="6.28987">
        <ele>155</ele>
        <time>2023-04-28T13:12:34Z</time>
      </trkpt>
      <trkpt lat="43.48073" lon="6.28987">
        <ele>155</ele>
        <time>2023-04-28T13:12:35Z</time>
      </trkpt>
      <trkpt lat="43.48073" lon="6.28987">
        <ele>155</ele>
        <time>2023-04-28T13:12:36Z</time>
      </trkpt>
      <trkpt lat="43.48073" lon="6.28987">
        <ele>155</ele>
        <time>2023-04-28T13:12:37Z</time>
      </trkpt>
      <trkpt lat="43.48073" lon="6.28987">
        <ele>155</ele>
        <time>2023-04-28T13:12:38Z</time>
      </trkpt>
      <trkpt lat="43.48073" lon="6.28987">
        <ele>155</ele>
        <time>2023-04-28T13:12:39Z</time>
      </trkpt>
      <trkpt lat="43.48073" lon="6.28987">
        <ele>155</ele>
        <time>2023-04-28T13:12:40Z</time>
      </trkpt>
      <trkpt lat="43.48073" lon="6.28987">
        <ele>155</ele>
        <time>2023-04-28T13:12:41Z</time>
      </trkpt>
      <trkpt lat="43.48073" lon="6.28987">
        <ele>155</ele>
        <time>2023-04-28T13:12:42Z</time>
      </trkpt>
      <trkpt lat="43.48073" lon="6.28987">
        <ele>155</ele>
        <time>2023-04-28T13:12:43Z</time>
      </trkpt>
      <trkpt lat="43.48073" lon="6.28987">
        <ele>155</ele>
        <time>2023-04-28T13:12:44Z</time>
      </trkpt>
      <trkpt lat="43.48073" lon="6.28987">
        <ele>155</ele>
        <time>2023-04-28T13:12:45Z</time>
      </trkpt>
      <trkpt lat="43.48073" lon="6.28987">
        <ele>155</ele>
        <time>2023-04-28T13:12:46Z</time>
      </trkpt>
      <trkpt lat="43.48073" lon="6.28987">
        <ele>155</ele>
        <time>2023-04-28T13:12:47Z</time>
      </trkpt>
      <trkpt lat="43.48073" lon="6.28987">
        <ele>155</ele>
        <time>2023-04-28T13:12:48Z</time>
      </trkpt>
      <trkpt lat="43.48073" lon="6.28987">
        <ele>155</ele>
        <time>2023-04-28T13:12:49Z</time>
      </trkpt>
      <trkpt lat="43.48073" lon="6.28987">
        <ele>155</ele>
        <time>2023-04-28T13:12:50Z</time>
      </trkpt>
      <trkpt lat="43.48073" lon="6.28987">
        <ele>155</ele>
        <time>2023-04-28T13:12:51Z</time>
      </trkpt>
      <trkpt lat="43.48073" lon="6.28987">
        <ele>155</ele>
        <time>2023-04-28T13:12:52Z</time>
      </trkpt>
      <trkpt lat="43.48073" lon="6.28987">
        <ele>155</ele>
        <time>2023-04-28T13:12:53Z</time>
      </trkpt>
      <trkpt lat="43.48073" lon="6.28987">
        <ele>155</ele>
        <time>2023-04-28T13:12:54Z</time>
      </trkpt>
      <trkpt lat="43.48073" lon="6.28987">
        <ele>155</ele>
        <time>2023-04-28T13:12:55Z</time>
      </trkpt>
      <trkpt lat="43.48073" lon="6.28987">
        <ele>155</ele>
        <time>2023-04-28T13:12:56Z</time>
      </trkpt>
      <trkpt lat="43.48073" lon="6.28987">
        <ele>155</ele>
        <time>2023-04-28T13:12:57Z</time>
      </trkpt>
      <trkpt lat="43.48073" lon="6.28987">
        <ele>155</ele>
        <time>2023-04-28T13:12:58Z</time>
      </trkpt>
      <trkpt lat="43.48073" lon="6.28987">
        <ele>155</ele>
        <time>2023-04-28T13:12:59Z</time>
      </trkpt>
      <trkpt lat="43.48073" lon="6.28987">
        <ele>155</ele>
        <time>2023-04-28T13:13:00Z</time>
      </trkpt>
      <trkpt lat="43.48073" lon="6.28987">
        <ele>155</ele>
        <time>2023-04-28T13:13:01Z</time>
      </trkpt>
      <trkpt lat="43.48073" lon="6.28987">
        <ele>155</ele>
        <time>2023-04-28T13:13:02Z</time>
      </trkpt>
      <trkpt lat="43.48073" lon="6.28987">
        <ele>155</ele>
        <time>2023-04-28T13:13:03Z</time>
      </trkpt>
      <trkpt lat="43.48073" lon="6.28987">
        <ele>155</ele>
        <time>2023-04-28T13:13:04Z</time>
      </trkpt>
      <trkpt lat="43.48073" lon="6.28987">
        <ele>155</ele>
        <time>2023-04-28T13:13:05Z</time>
      </trkpt>
      <trkpt lat="43.48073" lon="6.28987">
        <ele>155</ele>
        <time>2023-04-28T13:13:06Z</time>
      </trkpt>
      <trkpt lat="43.48073" lon="6.28987">
        <ele>155</ele>
        <time>2023-04-28T13:13:07Z</time>
      </trkpt>
      <trkpt lat="43.48073" lon="6.28987">
        <ele>155</ele>
        <time>2023-04-28T13:13:08Z</time>
      </trkpt>
      <trkpt lat="43.48073" lon="6.28987">
        <ele>155</ele>
        <time>2023-04-28T13:13:09Z</time>
      </trkpt>
      <trkpt lat="43.48073" lon="6.28987">
        <ele>155</ele>
        <time>2023-04-28T13:13:10Z</time>
      </trkpt>
      <trkpt lat="43.48073" lon="6.28987">
        <ele>155</ele>
        <time>2023-04-28T13:13:11Z</time>
      </trkpt>
      <trkpt lat="43.48073" lon="6.28987">
        <ele>155</ele>
        <time>2023-04-28T13:13:12Z</time>
      </trkpt>
      <trkpt lat="43.48073" lon="6.28987">
        <ele>155</ele>
        <time>2023-04-28T13:13:13Z</time>
      </trkpt>
      <trkpt lat="43.48073" lon="6.28987">
        <ele>155</ele>
        <time>2023-04-28T13:13:14Z</time>
      </trkpt>
      <trkpt lat="43.48073" lon="6.28987">
        <ele>155</ele>
        <time>2023-04-28T13:13:15Z</time>
      </trkpt>
      <trkpt lat="43.48073" lon="6.28987">
        <ele>155</ele>
        <time>2023-04-28T13:13:16Z</time>
      </trkpt>
      <trkpt lat="43.48073" lon="6.28987">
        <ele>155</ele>
        <time>2023-04-28T13:13:17Z</time>
      </trkpt>
      <trkpt lat="43.48073" lon="6.28987">
        <ele>155</ele>
        <time>2023-04-28T13:13:18Z</time>
      </trkpt>
      <trkpt lat="43.48073" lon="6.28987">
        <ele>155</ele>
        <time>2023-04-28T13:13:19Z</time>
      </trkpt>
      <trkpt lat="43.48073" lon="6.28987">
        <ele>155</ele>
        <time>2023-04-28T13:13:20Z</time>
      </trkpt>
      <trkpt lat="43.48073" lon="6.28987">
        <ele>155</ele>
        <time>2023-04-28T13:13:21Z</time>
      </trkpt>
      <trkpt lat="43.48073" lon="6.28987">
        <ele>155</ele>
        <time>2023-04-28T13:13:22Z</time>
      </trkpt>
      <trkpt lat="43.48074" lon="6.28987">
        <ele>155</ele>
        <time>2023-04-28T13:13:23Z</time>
      </trkpt>
      <trkpt lat="43.48074" lon="6.28987">
        <ele>155</ele>
        <time>2023-04-28T13:13:24Z</time>
      </trkpt>
      <trkpt lat="43.48074" lon="6.28987">
        <ele>155</ele>
        <time>2023-04-28T13:13:25Z</time>
      </trkpt>
      <trkpt lat="43.48074" lon="6.28987">
        <ele>155</ele>
        <time>2023-04-28T13:13:26Z</time>
      </trkpt>
      <trkpt lat="43.48074" lon="6.28987">
        <ele>155</ele>
        <time>2023-04-28T13:13:27Z</time>
      </trkpt>
      <trkpt lat="43.48074" lon="6.28987">
        <ele>155</ele>
        <time>2023-04-28T13:13:28Z</time>
      </trkpt>
      <trkpt lat="43.48074" lon="6.28987">
        <ele>155</ele>
        <time>2023-04-28T13:13:29Z</time>
      </trkpt>
      <trkpt lat="43.48074" lon="6.28987">
        <ele>155</ele>
        <time>2023-04-28T13:13:30Z</time>
      </trkpt>
      <trkpt lat="43.48074" lon="6.28987">
        <ele>155</ele>
        <time>2023-04-28T13:13:31Z</time>
      </trkpt>
      <trkpt lat="43.48074" lon="6.28987">
        <ele>155</ele>
        <time>2023-04-28T13:13:32Z</time>
      </trkpt>
      <trkpt lat="43.48074" lon="6.28987">
        <ele>155</ele>
        <time>2023-04-28T13:13:33Z</time>
      </trkpt>
      <trkpt lat="43.48074" lon="6.28987">
        <ele>155</ele>
        <time>2023-04-28T13:13:34Z</time>
      </trkpt>
      <trkpt lat="43.48074" lon="6.28987">
        <ele>155</ele>
        <time>2023-04-28T13:13:35Z</time>
      </trkpt>
      <trkpt lat="43.48074" lon="6.28987">
        <ele>155</ele>
        <time>2023-04-28T13:13:36Z</time>
      </trkpt>
      <trkpt lat="43.48074" lon="6.28987">
        <ele>155</ele>
        <time>2023-04-28T13:13:37Z</time>
      </trkpt>
      <trkpt lat="43.48074" lon="6.28987">
        <ele>155</ele>
        <time>2023-04-28T13:13:38Z</time>
      </trkpt>
      <trkpt lat="43.48074" lon="6.28987">
        <ele>155</ele>
        <time>2023-04-28T13:13:39Z</time>
      </trkpt>
      <trkpt lat="43.48074" lon="6.28987">
        <ele>155</ele>
        <time>2023-04-28T13:13:40Z</time>
      </trkpt>
      <trkpt lat="43.48074" lon="6.28987">
        <ele>155</ele>
        <time>2023-04-28T13:13:41Z</time>
      </trkpt>
      <trkpt lat="43.48074" lon="6.28987">
        <ele>155</ele>
        <time>2023-04-28T13:13:42Z</time>
      </trkpt>
      <trkpt lat="43.48074" lon="6.28987">
        <ele>155</ele>
        <time>2023-04-28T13:13:43Z</time>
      </trkpt>
      <trkpt lat="43.48074" lon="6.28987">
        <ele>155</ele>
        <time>2023-04-28T13:13:44Z</time>
      </trkpt>
      <trkpt lat="43.48074" lon="6.28987">
        <ele>155</ele>
        <time>2023-04-28T13:13:45Z</time>
      </trkpt>
      <trkpt lat="43.48074" lon="6.28987">
        <ele>155</ele>
        <time>2023-04-28T13:13:46Z</time>
      </trkpt>
      <trkpt lat="43.48074" lon="6.28987">
        <ele>155</ele>
        <time>2023-04-28T13:13:47Z</time>
      </trkpt>
      <trkpt lat="43.48074" lon="6.28987">
        <ele>155</ele>
        <time>2023-04-28T13:13:48Z</time>
      </trkpt>
      <trkpt lat="43.48074" lon="6.28987">
        <ele>155</ele>
        <time>2023-04-28T13:13:49Z</time>
      </trkpt>
      <trkpt lat="43.48074" lon="6.28987">
        <ele>155</ele>
        <time>2023-04-28T13:13:50Z</time>
      </trkpt>
      <trkpt lat="43.48074" lon="6.28987">
        <ele>155</ele>
        <time>2023-04-28T13:13:51Z</time>
      </trkpt>
      <trkpt lat="43.48074" lon="6.28987">
        <ele>155</ele>
        <time>2023-04-28T13:13:52Z</time>
      </trkpt>
      <trkpt lat="43.48074" lon="6.28987">
        <ele>155</ele>
        <time>2023-04-28T13:13:53Z</time>
      </trkpt>
      <trkpt lat="43.48074" lon="6.28987">
        <ele>155</ele>
        <time>2023-04-28T13:13:54Z</time>
      </trkpt>
      <trkpt lat="43.48074" lon="6.28987">
        <ele>155</ele>
        <time>2023-04-28T13:13:55Z</time>
      </trkpt>
      <trkpt lat="43.48074" lon="6.28987">
        <ele>155</ele>
        <time>2023-04-28T13:13:56Z</time>
      </trkpt>
      <trkpt lat="43.48074" lon="6.28987">
        <ele>155</ele>
        <time>2023-04-28T13:13:57Z</time>
      </trkpt>
      <trkpt lat="43.48074" lon="6.28987">
        <ele>155</ele>
        <time>2023-04-28T13:13:58Z</time>
      </trkpt>
      <trkpt lat="43.48074" lon="6.28987">
        <ele>155</ele>
        <time>2023-04-28T13:13:59Z</time>
      </trkpt>
      <trkpt lat="43.48074" lon="6.28987">
        <ele>155</ele>
        <time>2023-04-28T13:14:00Z</time>
      </trkpt>
      <trkpt lat="43.48074" lon="6.28987">
        <ele>155</ele>
        <time>2023-04-28T13:14:01Z</time>
      </trkpt>
      <trkpt lat="43.48074" lon="6.28987">
        <ele>155</ele>
        <time>2023-04-28T13:14:02Z</time>
      </trkpt>
      <trkpt lat="43.48074" lon="6.28987">
        <ele>155</ele>
        <time>2023-04-28T13:14:03Z</time>
      </trkpt>
      <trkpt lat="43.48074" lon="6.28987">
        <ele>155</ele>
        <time>2023-04-28T13:14:04Z</time>
      </trkpt>
      <trkpt lat="43.48074" lon="6.28987">
        <ele>155</ele>
        <time>2023-04-28T13:14:05Z</time>
      </trkpt>
      <trkpt lat="43.48074" lon="6.28987">
        <ele>155</ele>
        <time>2023-04-28T13:14:06Z</time>
      </trkpt>
      <trkpt lat="43.48074" lon="6.28987">
        <ele>155</ele>
        <time>2023-04-28T13:14:07Z</time>
      </trkpt>
      <trkpt lat="43.48074" lon="6.28987">
        <ele>155</ele>
        <time>2023-04-28T13:14:08Z</time>
      </trkpt>
      <trkpt lat="43.48074" lon="6.28987">
        <ele>155</ele>
        <time>2023-04-28T13:14:09Z</time>
      </trkpt>
      <trkpt lat="43.48074" lon="6.28987">
        <ele>155</ele>
        <time>2023-04-28T13:14:10Z</time>
      </trkpt>
      <trkpt lat="43.48074" lon="6.28987">
        <ele>155</ele>
        <time>2023-04-28T13:14:11Z</time>
      </trkpt>
      <trkpt lat="43.48074" lon="6.28987">
        <ele>155</ele>
        <time>2023-04-28T13:14:12Z</time>
      </trkpt>
      <trkpt lat="43.48074" lon="6.28987">
        <ele>155</ele>
        <time>2023-04-28T13:14:13Z</time>
      </trkpt>
      <trkpt lat="43.48074" lon="6.28987">
        <ele>155</ele>
        <time>2023-04-28T13:14:14Z</time>
      </trkpt>
      <trkpt lat="43.48074" lon="6.28987">
        <ele>155</ele>
        <time>2023-04-28T13:14:15Z</time>
      </trkpt>
      <trkpt lat="43.48074" lon="6.28987">
        <ele>155</ele>
        <time>2023-04-28T13:14:16Z</time>
      </trkpt>
      <trkpt lat="43.48074" lon="6.28987">
        <ele>155</ele>
        <time>2023-04-28T13:14:17Z</time>
      </trkpt>
      <trkpt lat="43.48074" lon="6.28987">
        <ele>155</ele>
        <time>2023-04-28T13:14:18Z</time>
      </trkpt>
      <trkpt lat="43.48074" lon="6.28987">
        <ele>155</ele>
        <time>2023-04-28T13:14:19Z</time>
      </trkpt>
      <trkpt lat="43.48074" lon="6.28987">
        <ele>155</ele>
        <time>2023-04-28T13:14:20Z</time>
      </trkpt>
      <trkpt lat="43.48074" lon="6.28987">
        <ele>155</ele>
        <time>2023-04-28T13:14:21Z</time>
      </trkpt>
      <trkpt lat="43.48074" lon="6.28987">
        <ele>155</ele>
        <time>2023-04-28T13:14:22Z</time>
      </trkpt>
      <trkpt lat="43.48074" lon="6.28987">
        <ele>155</ele>
        <time>2023-04-28T13:14:23Z</time>
      </trkpt>
      <trkpt lat="43.48074" lon="6.28987">
        <ele>155</ele>
        <time>2023-04-28T13:14:24Z</time>
      </trkpt>
      <trkpt lat="43.48074" lon="6.28987">
        <ele>155</ele>
        <time>2023-04-28T13:14:25Z</time>
      </trkpt>
      <trkpt lat="43.48074" lon="6.28987">
        <ele>155</ele>
        <time>2023-04-28T13:14:26Z</time>
      </trkpt>
      <trkpt lat="43.48074" lon="6.28987">
        <ele>155</ele>
        <time>2023-04-28T13:14:27Z</time>
      </trkpt>
      <trkpt lat="43.48074" lon="6.28987">
        <ele>155</ele>
        <time>2023-04-28T13:14:28Z</time>
      </trkpt>
      <trkpt lat="43.48074" lon="6.28987">
        <ele>155</ele>
        <time>2023-04-28T13:14:29Z</time>
      </trkpt>
      <trkpt lat="43.48074" lon="6.28987">
        <ele>155</ele>
        <time>2023-04-28T13:14:30Z</time>
      </trkpt>
      <trkpt lat="43.48074" lon="6.28987">
        <ele>155</ele>
        <time>2023-04-28T13:14:31Z</time>
      </trkpt>
      <trkpt lat="43.48074" lon="6.28987">
        <ele>155</ele>
        <time>2023-04-28T13:14:32Z</time>
      </trkpt>
      <trkpt lat="43.48074" lon="6.28987">
        <ele>155</ele>
        <time>2023-04-28T13:14:33Z</time>
      </trkpt>
      <trkpt lat="43.48074" lon="6.28987">
        <ele>155</ele>
        <time>2023-04-28T13:14:34Z</time>
      </trkpt>
      <trkpt lat="43.48074" lon="6.28987">
        <ele>155</ele>
        <time>2023-04-28T13:14:35Z</time>
      </trkpt>
      <trkpt lat="43.48074" lon="6.28987">
        <ele>155</ele>
        <time>2023-04-28T13:14:36Z</time>
      </trkpt>
      <trkpt lat="43.48074" lon="6.28987">
        <ele>155</ele>
        <time>2023-04-28T13:14:37Z</time>
      </trkpt>
      <trkpt lat="43.48074" lon="6.28987">
        <ele>155</ele>
        <time>2023-04-28T13:14:38Z</time>
      </trkpt>
      <trkpt lat="43.48074" lon="6.28987">
        <ele>155</ele>
        <time>2023-04-28T13:14:39Z</time>
      </trkpt>
      <trkpt lat="43.48074" lon="6.28987">
        <ele>155</ele>
        <time>2023-04-28T13:14:40Z</time>
      </trkpt>
      <trkpt lat="43.48074" lon="6.28987">
        <ele>155</ele>
        <time>2023-04-28T13:14:41Z</time>
      </trkpt>
      <trkpt lat="43.48074" lon="6.28987">
        <ele>155</ele>
        <time>2023-04-28T13:14:42Z</time>
      </trkpt>
      <trkpt lat="43.48074" lon="6.28987">
        <ele>155</ele>
        <time>2023-04-28T13:14:43Z</time>
      </trkpt>
      <trkpt lat="43.48074" lon="6.28987">
        <ele>155</ele>
        <time>2023-04-28T13:14:44Z</time>
      </trkpt>
      <trkpt lat="43.48074" lon="6.28987">
        <ele>155</ele>
        <time>2023-04-28T13:14:45Z</time>
      </trkpt>
      <trkpt lat="43.48074" lon="6.28987">
        <ele>155</ele>
        <time>2023-04-28T13:14:46Z</time>
      </trkpt>
      <trkpt lat="43.48074" lon="6.28987">
        <ele>155</ele>
        <time>2023-04-28T13:14:47Z</time>
      </trkpt>
      <trkpt lat="43.48074" lon="6.28987">
        <ele>155</ele>
        <time>2023-04-28T13:14:48Z</time>
      </trkpt>
      <trkpt lat="43.48074" lon="6.28987">
        <ele>155</ele>
        <time>2023-04-28T13:14:49Z</time>
      </trkpt>
      <trkpt lat="43.48074" lon="6.28987">
        <ele>155</ele>
        <time>2023-04-28T13:14:50Z</time>
      </trkpt>
      <trkpt lat="43.48074" lon="6.28987">
        <ele>155</ele>
        <time>2023-04-28T13:14:51Z</time>
      </trkpt>
      <trkpt lat="43.48074" lon="6.28987">
        <ele>155</ele>
        <time>2023-04-28T13:14:52Z</time>
      </trkpt>
      <trkpt lat="43.48074" lon="6.28987">
        <ele>155</ele>
        <time>2023-04-28T13:14:53Z</time>
      </trkpt>
      <trkpt lat="43.48074" lon="6.28987">
        <ele>155</ele>
        <time>2023-04-28T13:14:54Z</time>
      </trkpt>
      <trkpt lat="43.48074" lon="6.28987">
        <ele>155</ele>
        <time>2023-04-28T13:14:55Z</time>
      </trkpt>
      <trkpt lat="43.48074" lon="6.28987">
        <ele>155</ele>
        <time>2023-04-28T13:14:56Z</time>
      </trkpt>
      <trkpt lat="43.48074" lon="6.28987">
        <ele>155</ele>
        <time>2023-04-28T13:14:57Z</time>
      </trkpt>
      <trkpt lat="43.48074" lon="6.28987">
        <ele>155</ele>
        <time>2023-04-28T13:14:58Z</time>
      </trkpt>
      <trkpt lat="43.48074" lon="6.28987">
        <ele>155</ele>
        <time>2023-04-28T13:14:59Z</time>
      </trkpt>
      <trkpt lat="43.48074" lon="6.28987">
        <ele>156</ele>
        <time>2023-04-28T13:15:00Z</time>
      </trkpt>
      <trkpt lat="43.48074" lon="6.28987">
        <ele>157</ele>
        <time>2023-04-28T13:15:01Z</time>
      </trkpt>
      <trkpt lat="43.48074" lon="6.28987">
        <ele>157</ele>
        <time>2023-04-28T13:15:02Z</time>
      </trkpt>
      <trkpt lat="43.48074" lon="6.28987">
        <ele>157</ele>
        <time>2023-04-28T13:15:03Z</time>
      </trkpt>
      <trkpt lat="43.48074" lon="6.28987">
        <ele>157</ele>
        <time>2023-04-28T13:15:04Z</time>
      </trkpt>
      <trkpt lat="43.48074" lon="6.28987">
        <ele>157</ele>
        <time>2023-04-28T13:15:05Z</time>
      </trkpt>
      <trkpt lat="43.48074" lon="6.28987">
        <ele>157</ele>
        <time>2023-04-28T13:15:06Z</time>
      </trkpt>
      <trkpt lat="43.48074" lon="6.28987">
        <ele>157</ele>
        <time>2023-04-28T13:15:07Z</time>
      </trkpt>
      <trkpt lat="43.48074" lon="6.28987">
        <ele>157</ele>
        <time>2023-04-28T13:15:08Z</time>
      </trkpt>
      <trkpt lat="43.48074" lon="6.28987">
        <ele>157</ele>
        <time>2023-04-28T13:15:09Z</time>
      </trkpt>
      <trkpt lat="43.48074" lon="6.28987">
        <ele>157</ele>
        <time>2023-04-28T13:15:10Z</time>
      </trkpt>
      <trkpt lat="43.48074" lon="6.28987">
        <ele>157</ele>
        <time>2023-04-28T13:15:11Z</time>
      </trkpt>
      <trkpt lat="43.48072" lon="6.28987">
        <ele>157</ele>
        <time>2023-04-28T13:15:12Z</time>
      </trkpt>
      <trkpt lat="43.48072" lon="6.28987">
        <ele>157</ele>
        <time>2023-04-28T13:15:13Z</time>
      </trkpt>
      <trkpt lat="43.48071" lon="6.28987">
        <ele>157</ele>
        <time>2023-04-28T13:15:14Z</time>
      </trkpt>
      <trkpt lat="43.48072" lon="6.28986">
        <ele>157</ele>
        <time>2023-04-28T13:15:15Z</time>
      </trkpt>
      <trkpt lat="43.48072" lon="6.28986">
        <ele>157</ele>
        <time>2023-04-28T13:15:16Z</time>
      </trkpt>
      <trkpt lat="43.48072" lon="6.28985">
        <ele>157</ele>
        <time>2023-04-28T13:15:17Z</time>
      </trkpt>
      <trkpt lat="43.48072" lon="6.28985">
        <ele>156</ele>
        <time>2023-04-28T13:15:18Z</time>
      </trkpt>
      <trkpt lat="43.48073" lon="6.28984">
        <ele>156</ele>
        <time>2023-04-28T13:15:19Z</time>
      </trkpt>
      <trkpt lat="43.48073" lon="6.28983">
        <ele>156</ele>
        <time>2023-04-28T13:15:20Z</time>
      </trkpt>
      <trkpt lat="43.48073" lon="6.28983">
        <ele>156</ele>
        <time>2023-04-28T13:15:21Z</time>
      </trkpt>
      <trkpt lat="43.48073" lon="6.28982">
        <ele>156</ele>
        <time>2023-04-28T13:15:22Z</time>
      </trkpt>
      <trkpt lat="43.48073" lon="6.28982">
        <ele>156</ele>
        <time>2023-04-28T13:15:23Z</time>
      </trkpt>
      <trkpt lat="43.48073" lon="6.28982">
        <ele>156</ele>
        <time>2023-04-28T13:15:24Z</time>
      </trkpt>
      <trkpt lat="43.48073" lon="6.28982">
        <ele>156</ele>
        <time>2023-04-28T13:15:25Z</time>
      </trkpt>
      <trkpt lat="43.48073" lon="6.28982">
        <ele>156</ele>
        <time>2023-04-28T13:15:26Z</time>
      </trkpt>
      <trkpt lat="43.48073" lon="6.28982">
        <ele>156</ele>
        <time>2023-04-28T13:15:27Z</time>
      </trkpt>
      <trkpt lat="43.48073" lon="6.28982">
        <ele>156</ele>
        <time>2023-04-28T13:15:28Z</time>
      </trkpt>
      <trkpt lat="43.48073" lon="6.28982">
        <ele>156</ele>
        <time>2023-04-28T13:15:29Z</time>
      </trkpt>
      <trkpt lat="43.48074" lon="6.28981">
        <ele>156</ele>
        <time>2023-04-28T13:15:30Z</time>
      </trkpt>
      <trkpt lat="43.48074" lon="6.28981">
        <ele>156</ele>
        <time>2023-04-28T13:15:31Z</time>
      </trkpt>
      <trkpt lat="43.48074" lon="6.28981">
        <ele>156</ele>
        <time>2023-04-28T13:15:32Z</time>
      </trkpt>
      <trkpt lat="43.48074" lon="6.28981">
        <ele>156</ele>
        <time>2023-04-28T13:15:33Z</time>
      </trkpt>
      <trkpt lat="43.48074" lon="6.28981">
        <ele>157</ele>
        <time>2023-04-28T13:15:34Z</time>
      </trkpt>
      <trkpt lat="43.48074" lon="6.28981">
        <ele>157</ele>
        <time>2023-04-28T13:15:35Z</time>
      </trkpt>
      <trkpt lat="43.48074" lon="6.28981">
        <ele>157</ele>
        <time>2023-04-28T13:15:36Z</time>
      </trkpt>
      <trkpt lat="43.48074" lon="6.28981">
        <ele>157</ele>
        <time>2023-04-28T13:15:37Z</time>
      </trkpt>
      <trkpt lat="43.48074" lon="6.28981">
        <ele>157</ele>
        <time>2023-04-28T13:15:38Z</time>
      </trkpt>
      <trkpt lat="43.48074" lon="6.2898">
        <ele>157</ele>
        <time>2023-04-28T13:15:39Z</time>
      </trkpt>
      <trkpt lat="43.48074" lon="6.28979">
        <ele>157</ele>
        <time>2023-04-28T13:15:40Z</time>
      </trkpt>
      <trkpt lat="43.48074" lon="6.28979">
        <ele>157</ele>
        <time>2023-04-28T13:15:41Z</time>
      </trkpt>
      <trkpt lat="43.48074" lon="6.28979">
        <ele>157</ele>
        <time>2023-04-28T13:15:42Z</time>
      </trkpt>
      <trkpt lat="43.48074" lon="6.28978">
        <ele>157</ele>
        <time>2023-04-28T13:15:43Z</time>
      </trkpt>
      <trkpt lat="43.48074" lon="6.28978">
        <ele>157</ele>
        <time>2023-04-28T13:15:44Z</time>
      </trkpt>
      <trkpt lat="43.48074" lon="6.28978">
        <ele>157</ele>
        <time>2023-04-28T13:15:45Z</time>
      </trkpt>
      <trkpt lat="43.48074" lon="6.28978">
        <ele>157</ele>
        <time>2023-04-28T13:15:46Z</time>
      </trkpt>
      <trkpt lat="43.48074" lon="6.28978">
        <ele>157</ele>
        <time>2023-04-28T13:15:47Z</time>
      </trkpt>
      <trkpt lat="43.48074" lon="6.28978">
        <ele>157</ele>
        <time>2023-04-28T13:15:48Z</time>
      </trkpt>
      <trkpt lat="43.48074" lon="6.28978">
        <ele>157</ele>
        <time>2023-04-28T13:15:49Z</time>
      </trkpt>
      <trkpt lat="43.48074" lon="6.28978">
        <ele>157</ele>
        <time>2023-04-28T13:15:50Z</time>
      </trkpt>
      <trkpt lat="43.48074" lon="6.28978">
        <ele>157</ele>
        <time>2023-04-28T13:15:51Z</time>
      </trkpt>
      <trkpt lat="43.48074" lon="6.28978">
        <ele>157</ele>
        <time>2023-04-28T13:15:52Z</time>
      </trkpt>
      <trkpt lat="43.48074" lon="6.28978">
        <ele>157</ele>
        <time>2023-04-28T13:15:53Z</time>
      </trkpt>
      <trkpt lat="43.48074" lon="6.28978">
        <ele>157</ele>
        <time>2023-04-28T13:15:54Z</time>
      </trkpt>
      <trkpt lat="43.48074" lon="6.28978">
        <ele>157</ele>
        <time>2023-04-28T13:15:55Z</time>
      </trkpt>
      <trkpt lat="43.48074" lon="6.28977">
        <ele>157</ele>
        <time>2023-04-28T13:15:56Z</time>
      </trkpt>
      <trkpt lat="43.48074" lon="6.28976">
        <ele>157</ele>
        <time>2023-04-28T13:15:57Z</time>
      </trkpt>
      <trkpt lat="43.48074" lon="6.28976">
        <ele>157</ele>
        <time>2023-04-28T13:15:58Z</time>
      </trkpt>
      <trkpt lat="43.48074" lon="6.28975">
        <ele>157</ele>
        <time>2023-04-28T13:15:59Z</time>
      </trkpt>
      <trkpt lat="43.48074" lon="6.28974">
        <ele>159</ele>
        <time>2023-04-28T13:16:00Z</time>
      </trkpt>
      <trkpt lat="43.48074" lon="6.28973">
        <ele>159</ele>
        <time>2023-04-28T13:16:01Z</time>
      </trkpt>
      <trkpt lat="43.48074" lon="6.28972">
        <ele>159</ele>
        <time>2023-04-28T13:16:02Z</time>
      </trkpt>
      <trkpt lat="43.48074" lon="6.28972">
        <ele>158</ele>
        <time>2023-04-28T13:16:03Z</time>
      </trkpt>
      <trkpt lat="43.48074" lon="6.28971">
        <ele>158</ele>
        <time>2023-04-28T13:16:04Z</time>
      </trkpt>
      <trkpt lat="43.48074" lon="6.28971">
        <ele>158</ele>
        <time>2023-04-28T13:16:05Z</time>
      </trkpt>
      <trkpt lat="43.48074" lon="6.2897">
        <ele>158</ele>
        <time>2023-04-28T13:16:06Z</time>
      </trkpt>
      <trkpt lat="43.48074" lon="6.2897">
        <ele>158</ele>
        <time>2023-04-28T13:16:07Z</time>
      </trkpt>
      <trkpt lat="43.48074" lon="6.2897">
        <ele>158</ele>
        <time>2023-04-28T13:16:08Z</time>
      </trkpt>
      <trkpt lat="43.48074" lon="6.2897">
        <ele>158</ele>
        <time>2023-04-28T13:16:09Z</time>
      </trkpt>
      <trkpt lat="43.48074" lon="6.2897">
        <ele>158</ele>
        <time>2023-04-28T13:16:10Z</time>
      </trkpt>
      <trkpt lat="43.48074" lon="6.28969">
        <ele>158</ele>
        <time>2023-04-28T13:16:11Z</time>
      </trkpt>
      <trkpt lat="43.48074" lon="6.28969">
        <ele>158</ele>
        <time>2023-04-28T13:16:12Z</time>
      </trkpt>
      <trkpt lat="43.48074" lon="6.28969">
        <ele>158</ele>
        <time>2023-04-28T13:16:13Z</time>
      </trkpt>
      <trkpt lat="43.48074" lon="6.28969">
        <ele>158</ele>
        <time>2023-04-28T13:16:14Z</time>
      </trkpt>
      <trkpt lat="43.48074" lon="6.28969">
        <ele>158</ele>
        <time>2023-04-28T13:16:15Z</time>
      </trkpt>
      <trkpt lat="43.48074" lon="6.28969">
        <ele>158</ele>
        <time>2023-04-28T13:16:16Z</time>
      </trkpt>
      <trkpt lat="43.48074" lon="6.28969">
        <ele>158</ele>
        <time>2023-04-28T13:16:17Z</time>
      </trkpt>
      <trkpt lat="43.48074" lon="6.28969">
        <ele>158</ele>
        <time>2023-04-28T13:16:18Z</time>
      </trkpt>
      <trkpt lat="43.48074" lon="6.28969">
        <ele>158</ele>
        <time>2023-04-28T13:16:19Z</time>
      </trkpt>
      <trkpt lat="43.48074" lon="6.28969">
        <ele>158</ele>
        <time>2023-04-28T13:16:20Z</time>
      </trkpt>
      <trkpt lat="43.48074" lon="6.28969">
        <ele>158</ele>
        <time>2023-04-28T13:16:21Z</time>
      </trkpt>
      <trkpt lat="43.48074" lon="6.28969">
        <ele>158</ele>
        <time>2023-04-28T13:16:22Z</time>
      </trkpt>
      <trkpt lat="43.48074" lon="6.28969">
        <ele>158</ele>
        <time>2023-04-28T13:16:23Z</time>
      </trkpt>
      <trkpt lat="43.48074" lon="6.28969">
        <ele>158</ele>
        <time>2023-04-28T13:16:24Z</time>
      </trkpt>
      <trkpt lat="43.48073" lon="6.28963">
        <ele>158</ele>
        <time>2023-04-28T13:16:25Z</time>
      </trkpt>
      <trkpt lat="43.48072" lon="6.28962">
        <ele>158</ele>
        <time>2023-04-28T13:16:26Z</time>
      </trkpt>
      <trkpt lat="43.48072" lon="6.28961">
        <ele>158</ele>
        <time>2023-04-28T13:16:27Z</time>
      </trkpt>
      <trkpt lat="43.48072" lon="6.28961">
        <ele>158</ele>
        <time>2023-04-28T13:16:28Z</time>
      </trkpt>
      <trkpt lat="43.48072" lon="6.2896">
        <ele>158</ele>
        <time>2023-04-28T13:16:29Z</time>
      </trkpt>
      <trkpt lat="43.48072" lon="6.28959">
        <ele>158</ele>
        <time>2023-04-28T13:16:30Z</time>
      </trkpt>
      <trkpt lat="43.48072" lon="6.28959">
        <ele>158</ele>
        <time>2023-04-28T13:16:31Z</time>
      </trkpt>
      <trkpt lat="43.48072" lon="6.28958">
        <ele>158</ele>
        <time>2023-04-28T13:16:32Z</time>
      </trkpt>
      <trkpt lat="43.48072" lon="6.28958">
        <ele>158</ele>
        <time>2023-04-28T13:16:33Z</time>
      </trkpt>
      <trkpt lat="43.48072" lon="6.28957">
        <ele>158</ele>
        <time>2023-04-28T13:16:34Z</time>
      </trkpt>
      <trkpt lat="43.48072" lon="6.28956">
        <ele>158</ele>
        <time>2023-04-28T13:16:35Z</time>
      </trkpt>
      <trkpt lat="43.48071" lon="6.28956">
        <ele>158</ele>
        <time>2023-04-28T13:16:36Z</time>
      </trkpt>
      <trkpt lat="43.48071" lon="6.28955">
        <ele>158</ele>
        <time>2023-04-28T13:16:37Z</time>
      </trkpt>
      <trkpt lat="43.4807" lon="6.28954">
        <ele>158</ele>
        <time>2023-04-28T13:16:38Z</time>
      </trkpt>
      <trkpt lat="43.48069" lon="6.28953">
        <ele>158</ele>
        <time>2023-04-28T13:16:39Z</time>
      </trkpt>
      <trkpt lat="43.48067" lon="6.28952">
        <ele>158</ele>
        <time>2023-04-28T13:16:40Z</time>
      </trkpt>
      <trkpt lat="43.48066" lon="6.28951">
        <ele>158</ele>
        <time>2023-04-28T13:16:41Z</time>
      </trkpt>
      <trkpt lat="43.48065" lon="6.28951">
        <ele>158</ele>
        <time>2023-04-28T13:16:42Z</time>
      </trkpt>
      <trkpt lat="43.48065" lon="6.2895">
        <ele>158</ele>
        <time>2023-04-28T13:16:43Z</time>
      </trkpt>
      <trkpt lat="43.48064" lon="6.2895">
        <ele>158</ele>
        <time>2023-04-28T13:16:44Z</time>
      </trkpt>
      <trkpt lat="43.48064" lon="6.28949">
        <ele>158</ele>
        <time>2023-04-28T13:16:45Z</time>
      </trkpt>
      <trkpt lat="43.48063" lon="6.28948">
        <ele>158</ele>
        <time>2023-04-28T13:16:46Z</time>
      </trkpt>
      <trkpt lat="43.48062" lon="6.28946">
        <ele>159</ele>
        <time>2023-04-28T13:16:47Z</time>
      </trkpt>
      <trkpt lat="43.48061" lon="6.28944">
        <ele>159</ele>
        <time>2023-04-28T13:16:48Z</time>
      </trkpt>
      <trkpt lat="43.4806" lon="6.28943">
        <ele>159</ele>
        <time>2023-04-28T13:16:49Z</time>
      </trkpt>
      <trkpt lat="43.48059" lon="6.28942">
        <ele>159</ele>
        <time>2023-04-28T13:16:50Z</time>
      </trkpt>
      <trkpt lat="43.48058" lon="6.28942">
        <ele>160</ele>
        <time>2023-04-28T13:16:51Z</time>
      </trkpt>
      <trkpt lat="43.48058" lon="6.28941">
        <ele>160</ele>
        <time>2023-04-28T13:16:52Z</time>
      </trkpt>
      <trkpt lat="43.48058" lon="6.28941">
        <ele>160</ele>
        <time>2023-04-28T13:16:53Z</time>
      </trkpt>
      <trkpt lat="43.48057" lon="6.2894">
        <ele>160</ele>
        <time>2023-04-28T13:16:54Z</time>
      </trkpt>
      <trkpt lat="43.48056" lon="6.28939">
        <ele>160</ele>
        <time>2023-04-28T13:16:55Z</time>
      </trkpt>
      <trkpt lat="43.48056" lon="6.28938">
        <ele>160</ele>
        <time>2023-04-28T13:16:56Z</time>
      </trkpt>
      <trkpt lat="43.48054" lon="6.28937">
        <ele>160</ele>
        <time>2023-04-28T13:16:57Z</time>
      </trkpt>
      <trkpt lat="43.48053" lon="6.28937">
        <ele>160</ele>
        <time>2023-04-28T13:16:58Z</time>
      </trkpt>
      <trkpt lat="43.48053" lon="6.28936">
        <ele>161</ele>
        <time>2023-04-28T13:16:59Z</time>
      </trkpt>
      <trkpt lat="43.48052" lon="6.28936">
        <ele>161</ele>
        <time>2023-04-28T13:17:00Z</time>
      </trkpt>
      <trkpt lat="43.48051" lon="6.28935">
        <ele>161</ele>
        <time>2023-04-28T13:17:01Z</time>
      </trkpt>
      <trkpt lat="43.48051" lon="6.28935">
        <ele>161</ele>
        <time>2023-04-28T13:17:02Z</time>
      </trkpt>
      <trkpt lat="43.4805" lon="6.28935">
        <ele>161</ele>
        <time>2023-04-28T13:17:03Z</time>
      </trkpt>
      <trkpt lat="43.4805" lon="6.28935">
        <ele>161</ele>
        <time>2023-04-28T13:17:04Z</time>
      </trkpt>
      <trkpt lat="43.4805" lon="6.28935">
        <ele>161</ele>
        <time>2023-04-28T13:17:05Z</time>
      </trkpt>
      <trkpt lat="43.48049" lon="6.28935">
        <ele>161</ele>
        <time>2023-04-28T13:17:06Z</time>
      </trkpt>
      <trkpt lat="43.48049" lon="6.28935">
        <ele>161</ele>
        <time>2023-04-28T13:17:07Z</time>
      </trkpt>
      <trkpt lat="43.48048" lon="6.28935">
        <ele>161</ele>
        <time>2023-04-28T13:17:08Z</time>
      </trkpt>
      <trkpt lat="43.48046" lon="6.28934">
        <ele>161</ele>
        <time>2023-04-28T13:17:09Z</time>
      </trkpt>
      <trkpt lat="43.48045" lon="6.28934">
        <ele>161</ele>
        <time>2023-04-28T13:17:10Z</time>
      </trkpt>
      <trkpt lat="43.48044" lon="6.28934">
        <ele>162</ele>
        <time>2023-04-28T13:17:11Z</time>
      </trkpt>
      <trkpt lat="43.48044" lon="6.28934">
        <ele>162</ele>
        <time>2023-04-28T13:17:12Z</time>
      </trkpt>
      <trkpt lat="43.48043" lon="6.28934">
        <ele>162</ele>
        <time>2023-04-28T13:17:13Z</time>
      </trkpt>
      <trkpt lat="43.48043" lon="6.28934">
        <ele>162</ele>
        <time>2023-04-28T13:17:14Z</time>
      </trkpt>
      <trkpt lat="43.48043" lon="6.28934">
        <ele>162</ele>
        <time>2023-04-28T13:17:15Z</time>
      </trkpt>
      <trkpt lat="43.48043" lon="6.28934">
        <ele>162</ele>
        <time>2023-04-28T13:17:16Z</time>
      </trkpt>
      <trkpt lat="43.48043" lon="6.28934">
        <ele>162</ele>
        <time>2023-04-28T13:17:17Z</time>
      </trkpt>
      <trkpt lat="43.48043" lon="6.28934">
        <ele>162</ele>
        <time>2023-04-28T13:17:18Z</time>
      </trkpt>
      <trkpt lat="43.48043" lon="6.28934">
        <ele>162</ele>
        <time>2023-04-28T13:17:19Z</time>
      </trkpt>
      <trkpt lat="43.48042" lon="6.28934">
        <ele>162</ele>
        <time>2023-04-28T13:17:20Z</time>
      </trkpt>
      <trkpt lat="43.48042" lon="6.28934">
        <ele>162</ele>
        <time>2023-04-28T13:17:21Z</time>
      </trkpt>
      <trkpt lat="43.48042" lon="6.28934">
        <ele>162</ele>
        <time>2023-04-28T13:17:22Z</time>
      </trkpt>
      <trkpt lat="43.48041" lon="6.28934">
        <ele>162</ele>
        <time>2023-04-28T13:17:23Z</time>
      </trkpt>
      <trkpt lat="43.48041" lon="6.28934">
        <ele>162</ele>
        <time>2023-04-28T13:17:24Z</time>
      </trkpt>
      <trkpt lat="43.48041" lon="6.28934">
        <ele>162</ele>
        <time>2023-04-28T13:17:25Z</time>
      </trkpt>
      <trkpt lat="43.4804" lon="6.28934">
        <ele>163</ele>
        <time>2023-04-28T13:17:26Z</time>
      </trkpt>
      <trkpt lat="43.4804" lon="6.28934">
        <ele>163</ele>
        <time>2023-04-28T13:17:27Z</time>
      </trkpt>
      <trkpt lat="43.4804" lon="6.28934">
        <ele>162</ele>
        <time>2023-04-28T13:17:28Z</time>
      </trkpt>
      <trkpt lat="43.48039" lon="6.28934">
        <ele>162</ele>
        <time>2023-04-28T13:17:29Z</time>
      </trkpt>
      <trkpt lat="43.48038" lon="6.28935">
        <ele>162</ele>
        <time>2023-04-28T13:17:30Z</time>
      </trkpt>
      <trkpt lat="43.48036" lon="6.28935">
        <ele>162</ele>
        <time>2023-04-28T13:17:31Z</time>
      </trkpt>
      <trkpt lat="43.48035" lon="6.28935">
        <ele>162</ele>
        <time>2023-04-28T13:17:32Z</time>
      </trkpt>
      <trkpt lat="43.48034" lon="6.28935">
        <ele>162</ele>
        <time>2023-04-28T13:17:33Z</time>
      </trkpt>
      <trkpt lat="43.48033" lon="6.28935">
        <ele>162</ele>
        <time>2023-04-28T13:17:34Z</time>
      </trkpt>
      <trkpt lat="43.48032" lon="6.28935">
        <ele>162</ele>
        <time>2023-04-28T13:17:35Z</time>
      </trkpt>
      <trkpt lat="43.48031" lon="6.28936">
        <ele>162</ele>
        <time>2023-04-28T13:17:36Z</time>
      </trkpt>
      <trkpt lat="43.4803" lon="6.28936">
        <ele>162</ele>
        <time>2023-04-28T13:17:37Z</time>
      </trkpt>
      <trkpt lat="43.48028" lon="6.28936">
        <ele>162</ele>
        <time>2023-04-28T13:17:38Z</time>
      </trkpt>
      <trkpt lat="43.48027" lon="6.28935">
        <ele>162</ele>
        <time>2023-04-28T13:17:39Z</time>
      </trkpt>
      <trkpt lat="43.48025" lon="6.28935">
        <ele>162</ele>
        <time>2023-04-28T13:17:40Z</time>
      </trkpt>
      <trkpt lat="43.48024" lon="6.28935">
        <ele>162</ele>
        <time>2023-04-28T13:17:41Z</time>
      </trkpt>
      <trkpt lat="43.48023" lon="6.28935">
        <ele>162</ele>
        <time>2023-04-28T13:17:42Z</time>
      </trkpt>
      <trkpt lat="43.48022" lon="6.28935">
        <ele>162</ele>
        <time>2023-04-28T13:17:43Z</time>
      </trkpt>
      <trkpt lat="43.48021" lon="6.28935">
        <ele>162</ele>
        <time>2023-04-28T13:17:44Z</time>
      </trkpt>
      <trkpt lat="43.48019" lon="6.28934">
        <ele>162</ele>
        <time>2023-04-28T13:17:45Z</time>
      </trkpt>
      <trkpt lat="43.48017" lon="6.28935">
        <ele>162</ele>
        <time>2023-04-28T13:17:46Z</time>
      </trkpt>
      <trkpt lat="43.48015" lon="6.28934">
        <ele>162</ele>
        <time>2023-04-28T13:17:47Z</time>
      </trkpt>
      <trkpt lat="43.48013" lon="6.28934">
        <ele>162</ele>
        <time>2023-04-28T13:17:48Z</time>
      </trkpt>
      <trkpt lat="43.48012" lon="6.28934">
        <ele>162</ele>
        <time>2023-04-28T13:17:49Z</time>
      </trkpt>
      <trkpt lat="43.4801" lon="6.28933">
        <ele>162</ele>
        <time>2023-04-28T13:17:50Z</time>
      </trkpt>
      <trkpt lat="43.48009" lon="6.28933">
        <ele>162</ele>
        <time>2023-04-28T13:17:51Z</time>
      </trkpt>
      <trkpt lat="43.48008" lon="6.28933">
        <ele>162</ele>
        <time>2023-04-28T13:17:52Z</time>
      </trkpt>
      <trkpt lat="43.48007" lon="6.28933">
        <ele>162</ele>
        <time>2023-04-28T13:17:53Z</time>
      </trkpt>
      <trkpt lat="43.48007" lon="6.28933">
        <ele>162</ele>
        <time>2023-04-28T13:17:54Z</time>
      </trkpt>
      <trkpt lat="43.48006" lon="6.28932">
        <ele>162</ele>
        <time>2023-04-28T13:17:55Z</time>
      </trkpt>
      <trkpt lat="43.48006" lon="6.28932">
        <ele>162</ele>
        <time>2023-04-28T13:17:56Z</time>
      </trkpt>
      <trkpt lat="43.48005" lon="6.28932">
        <ele>162</ele>
        <time>2023-04-28T13:17:57Z</time>
      </trkpt>
      <trkpt lat="43.48004" lon="6.28932">
        <ele>162</ele>
        <time>2023-04-28T13:17:58Z</time>
      </trkpt>
      <trkpt lat="43.48004" lon="6.28932">
        <ele>162</ele>
        <time>2023-04-28T13:17:59Z</time>
      </trkpt>
      <trkpt lat="43.48003" lon="6.28932">
        <ele>162</ele>
        <time>2023-04-28T13:18:00Z</time>
      </trkpt>
      <trkpt lat="43.48003" lon="6.28932">
        <ele>162</ele>
        <time>2023-04-28T13:18:01Z</time>
      </trkpt>
      <trkpt lat="43.48003" lon="6.28932">
        <ele>162</ele>
        <time>2023-04-28T13:18:02Z</time>
      </trkpt>
      <trkpt lat="43.48003" lon="6.28931">
        <ele>162</ele>
        <time>2023-04-28T13:18:03Z</time>
      </trkpt>
      <trkpt lat="43.48002" lon="6.28931">
        <ele>162</ele>
        <time>2023-04-28T13:18:04Z</time>
      </trkpt>
      <trkpt lat="43.48002" lon="6.28931">
        <ele>162</ele>
        <time>2023-04-28T13:18:05Z</time>
      </trkpt>
      <trkpt lat="43.48002" lon="6.2893">
        <ele>162</ele>
        <time>2023-04-28T13:18:06Z</time>
      </trkpt>
      <trkpt lat="43.48001" lon="6.2893">
        <ele>162</ele>
        <time>2023-04-28T13:18:07Z</time>
      </trkpt>
      <trkpt lat="43.48" lon="6.2893">
        <ele>162</ele>
        <time>2023-04-28T13:18:08Z</time>
      </trkpt>
      <trkpt lat="43.47999" lon="6.2893">
        <ele>162</ele>
        <time>2023-04-28T13:18:09Z</time>
      </trkpt>
      <trkpt lat="43.47998" lon="6.28929">
        <ele>162</ele>
        <time>2023-04-28T13:18:10Z</time>
      </trkpt>
      <trkpt lat="43.47997" lon="6.28929">
        <ele>162</ele>
        <time>2023-04-28T13:18:11Z</time>
      </trkpt>
      <trkpt lat="43.47996" lon="6.28928">
        <ele>162</ele>
        <time>2023-04-28T13:18:12Z</time>
      </trkpt>
      <trkpt lat="43.47996" lon="6.28928">
        <ele>162</ele>
        <time>2023-04-28T13:18:13Z</time>
      </trkpt>
      <trkpt lat="43.47995" lon="6.28927">
        <ele>162</ele>
        <time>2023-04-28T13:18:14Z</time>
      </trkpt>
      <trkpt lat="43.47994" lon="6.28927">
        <ele>162</ele>
        <time>2023-04-28T13:18:15Z</time>
      </trkpt>
      <trkpt lat="43.47993" lon="6.28927">
        <ele>161</ele>
        <time>2023-04-28T13:18:16Z</time>
      </trkpt>
      <trkpt lat="43.47992" lon="6.28926">
        <ele>161</ele>
        <time>2023-04-28T13:18:17Z</time>
      </trkpt>
      <trkpt lat="43.47992" lon="6.28926">
        <ele>161</ele>
        <time>2023-04-28T13:18:18Z</time>
      </trkpt>
      <trkpt lat="43.47991" lon="6.28926">
        <ele>161</ele>
        <time>2023-04-28T13:18:19Z</time>
      </trkpt>
      <trkpt lat="43.4799" lon="6.28925">
        <ele>161</ele>
        <time>2023-04-28T13:18:20Z</time>
      </trkpt>
      <trkpt lat="43.4799" lon="6.28925">
        <ele>161</ele>
        <time>2023-04-28T13:18:21Z</time>
      </trkpt>
      <trkpt lat="43.47989" lon="6.28925">
        <ele>161</ele>
        <time>2023-04-28T13:18:22Z</time>
      </trkpt>
      <trkpt lat="43.47988" lon="6.28924">
        <ele>161</ele>
        <time>2023-04-28T13:18:23Z</time>
      </trkpt>
      <trkpt lat="43.47988" lon="6.28924">
        <ele>161</ele>
        <time>2023-04-28T13:18:24Z</time>
      </trkpt>
      <trkpt lat="43.47987" lon="6.28923">
        <ele>161</ele>
        <time>2023-04-28T13:18:25Z</time>
      </trkpt>
      <trkpt lat="43.47987" lon="6.28923">
        <ele>161</ele>
        <time>2023-04-28T13:18:26Z</time>
      </trkpt>
      <trkpt lat="43.47987" lon="6.28922">
        <ele>161</ele>
        <time>2023-04-28T13:18:27Z</time>
      </trkpt>
      <trkpt lat="43.47986" lon="6.28923">
        <ele>161</ele>
        <time>2023-04-28T13:18:28Z</time>
      </trkpt>
      <trkpt lat="43.47986" lon="6.28923">
        <ele>161</ele>
        <time>2023-04-28T13:18:29Z</time>
      </trkpt>
      <trkpt lat="43.47985" lon="6.28923">
        <ele>161</ele>
        <time>2023-04-28T13:18:30Z</time>
      </trkpt>
      <trkpt lat="43.47985" lon="6.28923">
        <ele>160</ele>
        <time>2023-04-28T13:18:31Z</time>
      </trkpt>
      <trkpt lat="43.47985" lon="6.28923">
        <ele>160</ele>
        <time>2023-04-28T13:18:32Z</time>
      </trkpt>
      <trkpt lat="43.47985" lon="6.28924">
        <ele>160</ele>
        <time>2023-04-28T13:18:33Z</time>
      </trkpt>
      <trkpt lat="43.47985" lon="6.28924">
        <ele>160</ele>
        <time>2023-04-28T13:18:34Z</time>
      </trkpt>
      <trkpt lat="43.47986" lon="6.28924">
        <ele>160</ele>
        <time>2023-04-28T13:18:35Z</time>
      </trkpt>
      <trkpt lat="43.47986" lon="6.28923">
        <ele>160</ele>
        <time>2023-04-28T13:18:36Z</time>
      </trkpt>
      <trkpt lat="43.47986" lon="6.28923">
        <ele>160</ele>
        <time>2023-04-28T13:18:37Z</time>
      </trkpt>
      <trkpt lat="43.47987" lon="6.28923">
        <ele>160</ele>
        <time>2023-04-28T13:18:38Z</time>
      </trkpt>
      <trkpt lat="43.47987" lon="6.28923">
        <ele>160</ele>
        <time>2023-04-28T13:18:39Z</time>
      </trkpt>
      <trkpt lat="43.47987" lon="6.28923">
        <ele>160</ele>
        <time>2023-04-28T13:18:40Z</time>
      </trkpt>
      <trkpt lat="43.47987" lon="6.28923">
        <ele>160</ele>
        <time>2023-04-28T13:18:41Z</time>
      </trkpt>
      <trkpt lat="43.47987" lon="6.28923">
        <ele>160</ele>
        <time>2023-04-28T13:18:42Z</time>
      </trkpt>
      <trkpt lat="43.47987" lon="6.28923">
        <ele>160</ele>
        <time>2023-04-28T13:18:43Z</time>
      </trkpt>
      <trkpt lat="43.47987" lon="6.28923">
        <ele>160</ele>
        <time>2023-04-28T13:18:44Z</time>
      </trkpt>
      <trkpt lat="43.47987" lon="6.28923">
        <ele>160</ele>
        <time>2023-04-28T13:18:45Z</time>
      </trkpt>
      <trkpt lat="43.47987" lon="6.28923">
        <ele>160</ele>
        <time>2023-04-28T13:18:46Z</time>
      </trkpt>
      <trkpt lat="43.47987" lon="6.28923">
        <ele>160</ele>
        <time>2023-04-28T13:18:47Z</time>
      </trkpt>
      <trkpt lat="43.47987" lon="6.28923">
        <ele>160</ele>
        <time>2023-04-28T13:18:48Z</time>
      </trkpt>
      <trkpt lat="43.47987" lon="6.28923">
        <ele>160</ele>
        <time>2023-04-28T13:18:49Z</time>
      </trkpt>
      <trkpt lat="43.47987" lon="6.28923">
        <ele>160</ele>
        <time>2023-04-28T13:18:50Z</time>
      </trkpt>
      <trkpt lat="43.47987" lon="6.28923">
        <ele>160</ele>
        <time>2023-04-28T13:18:51Z</time>
      </trkpt>
      <trkpt lat="43.47987" lon="6.28923">
        <ele>160</ele>
        <time>2023-04-28T13:18:52Z</time>
      </trkpt>
      <trkpt lat="43.47987" lon="6.28923">
        <ele>160</ele>
        <time>2023-04-28T13:18:53Z</time>
      </trkpt>
      <trkpt lat="43.47987" lon="6.28923">
        <ele>160</ele>
        <time>2023-04-28T13:18:54Z</time>
      </trkpt>
      <trkpt lat="43.47987" lon="6.28923">
        <ele>160</ele>
        <time>2023-04-28T13:18:55Z</time>
      </trkpt>
      <trkpt lat="43.47987" lon="6.28923">
        <ele>160</ele>
        <time>2023-04-28T13:18:56Z</time>
      </trkpt>
      <trkpt lat="43.47987" lon="6.28923">
        <ele>160</ele>
        <time>2023-04-28T13:18:57Z</time>
      </trkpt>
      <trkpt lat="43.47987" lon="6.28923">
        <ele>160</ele>
        <time>2023-04-28T13:18:58Z</time>
      </trkpt>
      <trkpt lat="43.47987" lon="6.28923">
        <ele>160</ele>
        <time>2023-04-28T13:18:59Z</time>
      </trkpt>
      <trkpt lat="43.47987" lon="6.28923">
        <ele>160</ele>
        <time>2023-04-28T13:19:00Z</time>
      </trkpt>
      <trkpt lat="43.47987" lon="6.28923">
        <ele>160</ele>
        <time>2023-04-28T13:19:01Z</time>
      </trkpt>
      <trkpt lat="43.47987" lon="6.28923">
        <ele>160</ele>
        <time>2023-04-28T13:19:02Z</time>
      </trkpt>
      <trkpt lat="43.47987" lon="6.28923">
        <ele>160</ele>
        <time>2023-04-28T13:19:03Z</time>
      </trkpt>
      <trkpt lat="43.47987" lon="6.28923">
        <ele>160</ele>
        <time>2023-04-28T13:19:04Z</time>
      </trkpt>
      <trkpt lat="43.47987" lon="6.28923">
        <ele>160</ele>
        <time>2023-04-28T13:19:05Z</time>
      </trkpt>
      <trkpt lat="43.47987" lon="6.28923">
        <ele>160</ele>
        <time>2023-04-28T13:19:06Z</time>
      </trkpt>
      <trkpt lat="43.47987" lon="6.28923">
        <ele>160</ele>
        <time>2023-04-28T13:19:07Z</time>
      </trkpt>
      <trkpt lat="43.47993" lon="6.28926">
        <ele>160</ele>
        <time>2023-04-28T13:19:08Z</time>
      </trkpt>
      <trkpt lat="43.47993" lon="6.28926">
        <ele>160</ele>
        <time>2023-04-28T13:19:09Z</time>
      </trkpt>
      <trkpt lat="43.47993" lon="6.28926">
        <ele>161</ele>
        <time>2023-04-28T13:19:10Z</time>
      </trkpt>
      <trkpt lat="43.47992" lon="6.28926">
        <ele>161</ele>
        <time>2023-04-28T13:19:11Z</time>
      </trkpt>
      <trkpt lat="43.47992" lon="6.28925">
        <ele>161</ele>
        <time>2023-04-28T13:19:12Z</time>
      </trkpt>
      <trkpt lat="43.47991" lon="6.28925">
        <ele>161</ele>
        <time>2023-04-28T13:19:13Z</time>
      </trkpt>
      <trkpt lat="43.47991" lon="6.28924">
        <ele>161</ele>
        <time>2023-04-28T13:19:14Z</time>
      </trkpt>
      <trkpt lat="43.4799" lon="6.28923">
        <ele>161</ele>
        <time>2023-04-28T13:19:15Z</time>
      </trkpt>
      <trkpt lat="43.4799" lon="6.28923">
        <ele>160</ele>
        <time>2023-04-28T13:19:16Z</time>
      </trkpt>
      <trkpt lat="43.47989" lon="6.28922">
        <ele>160</ele>
        <time>2023-04-28T13:19:17Z</time>
      </trkpt>
      <trkpt lat="43.47988" lon="6.2892">
        <ele>160</ele>
        <time>2023-04-28T13:19:18Z</time>
      </trkpt>
      <trkpt lat="43.47987" lon="6.28919">
        <ele>160</ele>
        <time>2023-04-28T13:19:19Z</time>
      </trkpt>
      <trkpt lat="43.47986" lon="6.28918">
        <ele>160</ele>
        <time>2023-04-28T13:19:20Z</time>
      </trkpt>
      <trkpt lat="43.47986" lon="6.28917">
        <ele>160</ele>
        <time>2023-04-28T13:19:21Z</time>
      </trkpt>
      <trkpt lat="43.47985" lon="6.28917">
        <ele>160</ele>
        <time>2023-04-28T13:19:22Z</time>
      </trkpt>
      <trkpt lat="43.47985" lon="6.28917">
        <ele>160</ele>
        <time>2023-04-28T13:19:23Z</time>
      </trkpt>
      <trkpt lat="43.47985" lon="6.28916">
        <ele>160</ele>
        <time>2023-04-28T13:19:24Z</time>
      </trkpt>
      <trkpt lat="43.47985" lon="6.28916">
        <ele>160</ele>
        <time>2023-04-28T13:19:25Z</time>
      </trkpt>
      <trkpt lat="43.47985" lon="6.28916">
        <ele>160</ele>
        <time>2023-04-28T13:19:26Z</time>
      </trkpt>
      <trkpt lat="43.47985" lon="6.28916">
        <ele>160</ele>
        <time>2023-04-28T13:19:27Z</time>
      </trkpt>
      <trkpt lat="43.47984" lon="6.28915">
        <ele>160</ele>
        <time>2023-04-28T13:19:28Z</time>
      </trkpt>
      <trkpt lat="43.47984" lon="6.28915">
        <ele>160</ele>
        <time>2023-04-28T13:19:29Z</time>
      </trkpt>
      <trkpt lat="43.47984" lon="6.28915">
        <ele>160</ele>
        <time>2023-04-28T13:19:30Z</time>
      </trkpt>
      <trkpt lat="43.47984" lon="6.28915">
        <ele>160</ele>
        <time>2023-04-28T13:19:31Z</time>
      </trkpt>
      <trkpt lat="43.47984" lon="6.28914">
        <ele>160</ele>
        <time>2023-04-28T13:19:32Z</time>
      </trkpt>
      <trkpt lat="43.47983" lon="6.28914">
        <ele>160</ele>
        <time>2023-04-28T13:19:33Z</time>
      </trkpt>
      <trkpt lat="43.47983" lon="6.28913">
        <ele>160</ele>
        <time>2023-04-28T13:19:34Z</time>
      </trkpt>
      <trkpt lat="43.47982" lon="6.28912">
        <ele>160</ele>
        <time>2023-04-28T13:19:35Z</time>
      </trkpt>
      <trkpt lat="43.47981" lon="6.28912">
        <ele>160</ele>
        <time>2023-04-28T13:19:36Z</time>
      </trkpt>
      <trkpt lat="43.47981" lon="6.28911">
        <ele>159</ele>
        <time>2023-04-28T13:19:37Z</time>
      </trkpt>
      <trkpt lat="43.4798" lon="6.28911">
        <ele>159</ele>
        <time>2023-04-28T13:19:38Z</time>
      </trkpt>
      <trkpt lat="43.4798" lon="6.28911">
        <ele>159</ele>
        <time>2023-04-28T13:19:39Z</time>
      </trkpt>
      <trkpt lat="43.4798" lon="6.28911">
        <ele>159</ele>
        <time>2023-04-28T13:19:40Z</time>
      </trkpt>
      <trkpt lat="43.47979" lon="6.2891">
        <ele>159</ele>
        <time>2023-04-28T13:19:41Z</time>
      </trkpt>
      <trkpt lat="43.47979" lon="6.2891">
        <ele>159</ele>
        <time>2023-04-28T13:19:42Z</time>
      </trkpt>
      <trkpt lat="43.47978" lon="6.28909">
        <ele>159</ele>
        <time>2023-04-28T13:19:43Z</time>
      </trkpt>
      <trkpt lat="43.47978" lon="6.28908">
        <ele>160</ele>
        <time>2023-04-28T13:19:44Z</time>
      </trkpt>
      <trkpt lat="43.47977" lon="6.28908">
        <ele>160</ele>
        <time>2023-04-28T13:19:45Z</time>
      </trkpt>
      <trkpt lat="43.47977" lon="6.28907">
        <ele>160</ele>
        <time>2023-04-28T13:19:46Z</time>
      </trkpt>
      <trkpt lat="43.47976" lon="6.28907">
        <ele>160</ele>
        <time>2023-04-28T13:19:47Z</time>
      </trkpt>
      <trkpt lat="43.47975" lon="6.28906">
        <ele>160</ele>
        <time>2023-04-28T13:19:48Z</time>
      </trkpt>
      <trkpt lat="43.47975" lon="6.28905">
        <ele>160</ele>
        <time>2023-04-28T13:19:49Z</time>
      </trkpt>
      <trkpt lat="43.47974" lon="6.28905">
        <ele>160</ele>
        <time>2023-04-28T13:19:50Z</time>
      </trkpt>
      <trkpt lat="43.47973" lon="6.28904">
        <ele>160</ele>
        <time>2023-04-28T13:19:51Z</time>
      </trkpt>
      <trkpt lat="43.47972" lon="6.28904">
        <ele>161</ele>
        <time>2023-04-28T13:19:52Z</time>
      </trkpt>
      <trkpt lat="43.47972" lon="6.28903">
        <ele>161</ele>
        <time>2023-04-28T13:19:53Z</time>
      </trkpt>
      <trkpt lat="43.47971" lon="6.28902">
        <ele>161</ele>
        <time>2023-04-28T13:19:54Z</time>
      </trkpt>
      <trkpt lat="43.47969" lon="6.28902">
        <ele>161</ele>
        <time>2023-04-28T13:19:55Z</time>
      </trkpt>
      <trkpt lat="43.47968" lon="6.28901">
        <ele>161</ele>
        <time>2023-04-28T13:19:56Z</time>
      </trkpt>
      <trkpt lat="43.47966" lon="6.289">
        <ele>161</ele>
        <time>2023-04-28T13:19:57Z</time>
      </trkpt>
      <trkpt lat="43.47964" lon="6.28899">
        <ele>161</ele>
        <time>2023-04-28T13:19:58Z</time>
      </trkpt>
      <trkpt lat="43.47962" lon="6.28897">
        <ele>161</ele>
        <time>2023-04-28T13:19:59Z</time>
      </trkpt>
      <trkpt lat="43.4796" lon="6.28896">
        <ele>160</ele>
        <time>2023-04-28T13:20:00Z</time>
      </trkpt>
      <trkpt lat="43.47958" lon="6.28895">
        <ele>160</ele>
        <time>2023-04-28T13:20:01Z</time>
      </trkpt>
      <trkpt lat="43.47957" lon="6.28894">
        <ele>161</ele>
        <time>2023-04-28T13:20:02Z</time>
      </trkpt>
      <trkpt lat="43.47956" lon="6.28894">
        <ele>161</ele>
        <time>2023-04-28T13:20:03Z</time>
      </trkpt>
      <trkpt lat="43.47955" lon="6.28893">
        <ele>161</ele>
        <time>2023-04-28T13:20:04Z</time>
      </trkpt>
      <trkpt lat="43.47954" lon="6.28893">
        <ele>161</ele>
        <time>2023-04-28T13:20:05Z</time>
      </trkpt>
      <trkpt lat="43.47953" lon="6.28892">
        <ele>161</ele>
        <time>2023-04-28T13:20:06Z</time>
      </trkpt>
      <trkpt lat="43.47952" lon="6.28892">
        <ele>161</ele>
        <time>2023-04-28T13:20:07Z</time>
      </trkpt>
      <trkpt lat="43.47951" lon="6.28891">
        <ele>161</ele>
        <time>2023-04-28T13:20:08Z</time>
      </trkpt>
      <trkpt lat="43.4795" lon="6.28891">
        <ele>161</ele>
        <time>2023-04-28T13:20:09Z</time>
      </trkpt>
      <trkpt lat="43.47949" lon="6.2889">
        <ele>161</ele>
        <time>2023-04-28T13:20:10Z</time>
      </trkpt>
      <trkpt lat="43.47948" lon="6.2889">
        <ele>161</ele>
        <time>2023-04-28T13:20:11Z</time>
      </trkpt>
      <trkpt lat="43.47947" lon="6.28889">
        <ele>161</ele>
        <time>2023-04-28T13:20:12Z</time>
      </trkpt>
      <trkpt lat="43.47946" lon="6.28889">
        <ele>161</ele>
        <time>2023-04-28T13:20:13Z</time>
      </trkpt>
      <trkpt lat="43.47944" lon="6.28888">
        <ele>161</ele>
        <time>2023-04-28T13:20:14Z</time>
      </trkpt>
      <trkpt lat="43.47943" lon="6.28887">
        <ele>162</ele>
        <time>2023-04-28T13:20:15Z</time>
      </trkpt>
      <trkpt lat="43.47943" lon="6.28887">
        <ele>163</ele>
        <time>2023-04-28T13:20:16Z</time>
      </trkpt>
      <trkpt lat="43.47942" lon="6.28887">
        <ele>163</ele>
        <time>2023-04-28T13:20:17Z</time>
      </trkpt>
      <trkpt lat="43.47942" lon="6.28887">
        <ele>163</ele>
        <time>2023-04-28T13:20:18Z</time>
      </trkpt>
      <trkpt lat="43.47942" lon="6.28887">
        <ele>163</ele>
        <time>2023-04-28T13:20:19Z</time>
      </trkpt>
      <trkpt lat="43.47942" lon="6.28887">
        <ele>163</ele>
        <time>2023-04-28T13:20:20Z</time>
      </trkpt>
      <trkpt lat="43.47941" lon="6.28886">
        <ele>163</ele>
        <time>2023-04-28T13:20:21Z</time>
      </trkpt>
      <trkpt lat="43.47941" lon="6.28886">
        <ele>163</ele>
        <time>2023-04-28T13:20:22Z</time>
      </trkpt>
      <trkpt lat="43.4794" lon="6.28886">
        <ele>163</ele>
        <time>2023-04-28T13:20:23Z</time>
      </trkpt>
      <trkpt lat="43.47939" lon="6.28885">
        <ele>163</ele>
        <time>2023-04-28T13:20:24Z</time>
      </trkpt>
      <trkpt lat="43.47938" lon="6.28885">
        <ele>163</ele>
        <time>2023-04-28T13:20:25Z</time>
      </trkpt>
      <trkpt lat="43.47936" lon="6.28884">
        <ele>163</ele>
        <time>2023-04-28T13:20:26Z</time>
      </trkpt>
      <trkpt lat="43.47934" lon="6.28883">
        <ele>163</ele>
        <time>2023-04-28T13:20:27Z</time>
      </trkpt>
      <trkpt lat="43.47933" lon="6.28883">
        <ele>163</ele>
        <time>2023-04-28T13:20:28Z</time>
      </trkpt>
      <trkpt lat="43.47932" lon="6.28882">
        <ele>163</ele>
        <time>2023-04-28T13:20:29Z</time>
      </trkpt>
      <trkpt lat="43.47931" lon="6.28882">
        <ele>163</ele>
        <time>2023-04-28T13:20:30Z</time>
      </trkpt>
      <trkpt lat="43.47929" lon="6.28881">
        <ele>163</ele>
        <time>2023-04-28T13:20:31Z</time>
      </trkpt>
      <trkpt lat="43.47928" lon="6.2888">
        <ele>163</ele>
        <time>2023-04-28T13:20:32Z</time>
      </trkpt>
      <trkpt lat="43.47926" lon="6.2888">
        <ele>163</ele>
        <time>2023-04-28T13:20:33Z</time>
      </trkpt>
      <trkpt lat="43.47925" lon="6.2888">
        <ele>162</ele>
        <time>2023-04-28T13:20:34Z</time>
      </trkpt>
      <trkpt lat="43.47924" lon="6.28879">
        <ele>162</ele>
        <time>2023-04-28T13:20:35Z</time>
      </trkpt>
      <trkpt lat="43.47923" lon="6.28879">
        <ele>162</ele>
        <time>2023-04-28T13:20:36Z</time>
      </trkpt>
      <trkpt lat="43.47921" lon="6.28879">
        <ele>162</ele>
        <time>2023-04-28T13:20:37Z</time>
      </trkpt>
      <trkpt lat="43.4792" lon="6.28879">
        <ele>163</ele>
        <time>2023-04-28T13:20:38Z</time>
      </trkpt>
      <trkpt lat="43.47919" lon="6.28879">
        <ele>163</ele>
        <time>2023-04-28T13:20:39Z</time>
      </trkpt>
      <trkpt lat="43.47918" lon="6.28879">
        <ele>163</ele>
        <time>2023-04-28T13:20:40Z</time>
      </trkpt>
      <trkpt lat="43.47917" lon="6.28879">
        <ele>163</ele>
        <time>2023-04-28T13:20:41Z</time>
      </trkpt>
      <trkpt lat="43.47916" lon="6.28879">
        <ele>163</ele>
        <time>2023-04-28T13:20:42Z</time>
      </trkpt>
      <trkpt lat="43.47915" lon="6.28879">
        <ele>163</ele>
        <time>2023-04-28T13:20:43Z</time>
      </trkpt>
      <trkpt lat="43.47914" lon="6.28878">
        <ele>163</ele>
        <time>2023-04-28T13:20:44Z</time>
      </trkpt>
      <trkpt lat="43.47913" lon="6.28878">
        <ele>163</ele>
        <time>2023-04-28T13:20:45Z</time>
      </trkpt>
      <trkpt lat="43.47911" lon="6.28878">
        <ele>163</ele>
        <time>2023-04-28T13:20:46Z</time>
      </trkpt>
      <trkpt lat="43.4791" lon="6.28877">
        <ele>163</ele>
        <time>2023-04-28T13:20:47Z</time>
      </trkpt>
      <trkpt lat="43.47909" lon="6.28877">
        <ele>163</ele>
        <time>2023-04-28T13:20:48Z</time>
      </trkpt>
      <trkpt lat="43.47908" lon="6.28877">
        <ele>164</ele>
        <time>2023-04-28T13:20:49Z</time>
      </trkpt>
      <trkpt lat="43.47908" lon="6.28876">
        <ele>164</ele>
        <time>2023-04-28T13:20:50Z</time>
      </trkpt>
      <trkpt lat="43.47907" lon="6.28876">
        <ele>164</ele>
        <time>2023-04-28T13:20:51Z</time>
      </trkpt>
      <trkpt lat="43.47906" lon="6.28876">
        <ele>165</ele>
        <time>2023-04-28T13:20:52Z</time>
      </trkpt>
      <trkpt lat="43.47905" lon="6.28875">
        <ele>165</ele>
        <time>2023-04-28T13:20:53Z</time>
      </trkpt>
      <trkpt lat="43.47904" lon="6.28875">
        <ele>165</ele>
        <time>2023-04-28T13:20:54Z</time>
      </trkpt>
      <trkpt lat="43.47903" lon="6.28875">
        <ele>165</ele>
        <time>2023-04-28T13:20:55Z</time>
      </trkpt>
      <trkpt lat="43.47902" lon="6.28874">
        <ele>165</ele>
        <time>2023-04-28T13:20:56Z</time>
      </trkpt>
      <trkpt lat="43.47902" lon="6.28874">
        <ele>165</ele>
        <time>2023-04-28T13:20:57Z</time>
      </trkpt>
      <trkpt lat="43.47901" lon="6.28874">
        <ele>166</ele>
        <time>2023-04-28T13:20:58Z</time>
      </trkpt>
      <trkpt lat="43.479" lon="6.28874">
        <ele>166</ele>
        <time>2023-04-28T13:20:59Z</time>
      </trkpt>
      <trkpt lat="43.47899" lon="6.28874">
        <ele>166</ele>
        <time>2023-04-28T13:21:00Z</time>
      </trkpt>
      <trkpt lat="43.47898" lon="6.28873">
        <ele>166</ele>
        <time>2023-04-28T13:21:01Z</time>
      </trkpt>
      <trkpt lat="43.47898" lon="6.28873">
        <ele>166</ele>
        <time>2023-04-28T13:21:02Z</time>
      </trkpt>
      <trkpt lat="43.47897" lon="6.28872">
        <ele>166</ele>
        <time>2023-04-28T13:21:03Z</time>
      </trkpt>
      <trkpt lat="43.47897" lon="6.28872">
        <ele>166</ele>
        <time>2023-04-28T13:21:04Z</time>
      </trkpt>
      <trkpt lat="43.47897" lon="6.28871">
        <ele>166</ele>
        <time>2023-04-28T13:21:05Z</time>
      </trkpt>
      <trkpt lat="43.47897" lon="6.28871">
        <ele>166</ele>
        <time>2023-04-28T13:21:06Z</time>
      </trkpt>
      <trkpt lat="43.47896" lon="6.2887">
        <ele>166</ele>
        <time>2023-04-28T13:21:07Z</time>
      </trkpt>
      <trkpt lat="43.47895" lon="6.2887">
        <ele>166</ele>
        <time>2023-04-28T13:21:08Z</time>
      </trkpt>
      <trkpt lat="43.47895" lon="6.28869">
        <ele>166</ele>
        <time>2023-04-28T13:21:09Z</time>
      </trkpt>
      <trkpt lat="43.47894" lon="6.28869">
        <ele>166</ele>
        <time>2023-04-28T13:21:10Z</time>
      </trkpt>
      <trkpt lat="43.47893" lon="6.28869">
        <ele>166</ele>
        <time>2023-04-28T13:21:11Z</time>
      </trkpt>
      <trkpt lat="43.47892" lon="6.28868">
        <ele>167</ele>
        <time>2023-04-28T13:21:12Z</time>
      </trkpt>
      <trkpt lat="43.47892" lon="6.28868">
        <ele>167</ele>
        <time>2023-04-28T13:21:13Z</time>
      </trkpt>
      <trkpt lat="43.47891" lon="6.28867">
        <ele>167</ele>
        <time>2023-04-28T13:21:14Z</time>
      </trkpt>
      <trkpt lat="43.47891" lon="6.28867">
        <ele>167</ele>
        <time>2023-04-28T13:21:15Z</time>
      </trkpt>
      <trkpt lat="43.4789" lon="6.28866">
        <ele>168</ele>
        <time>2023-04-28T13:21:16Z</time>
      </trkpt>
      <trkpt lat="43.47889" lon="6.28866">
        <ele>168</ele>
        <time>2023-04-28T13:21:17Z</time>
      </trkpt>
      <trkpt lat="43.47889" lon="6.28866">
        <ele>168</ele>
        <time>2023-04-28T13:21:18Z</time>
      </trkpt>
      <trkpt lat="43.47888" lon="6.28865">
        <ele>168</ele>
        <time>2023-04-28T13:21:19Z</time>
      </trkpt>
      <trkpt lat="43.47887" lon="6.28865">
        <ele>168</ele>
        <time>2023-04-28T13:21:20Z</time>
      </trkpt>
      <trkpt lat="43.47887" lon="6.28865">
        <ele>168</ele>
        <time>2023-04-28T13:21:21Z</time>
      </trkpt>
      <trkpt lat="43.47887" lon="6.28864">
        <ele>168</ele>
        <time>2023-04-28T13:21:22Z</time>
      </trkpt>
      <trkpt lat="43.47886" lon="6.28863">
        <ele>168</ele>
        <time>2023-04-28T13:21:23Z</time>
      </trkpt>
      <trkpt lat="43.47885" lon="6.28863">
        <ele>168</ele>
        <time>2023-04-28T13:21:24Z</time>
      </trkpt>
      <trkpt lat="43.47885" lon="6.28862">
        <ele>168</ele>
        <time>2023-04-28T13:21:25Z</time>
      </trkpt>
      <trkpt lat="43.47884" lon="6.28862">
        <ele>168</ele>
        <time>2023-04-28T13:21:26Z</time>
      </trkpt>
      <trkpt lat="43.47883" lon="6.28861">
        <ele>167</ele>
        <time>2023-04-28T13:21:27Z</time>
      </trkpt>
      <trkpt lat="43.47882" lon="6.2886">
        <ele>167</ele>
        <time>2023-04-28T13:21:28Z</time>
      </trkpt>
      <trkpt lat="43.47882" lon="6.2886">
        <ele>167</ele>
        <time>2023-04-28T13:21:29Z</time>
      </trkpt>
      <trkpt lat="43.47881" lon="6.28858">
        <ele>167</ele>
        <time>2023-04-28T13:21:30Z</time>
      </trkpt>
      <trkpt lat="43.47881" lon="6.28857">
        <ele>167</ele>
        <time>2023-04-28T13:21:31Z</time>
      </trkpt>
      <trkpt lat="43.4788" lon="6.28855">
        <ele>167</ele>
        <time>2023-04-28T13:21:32Z</time>
      </trkpt>
      <trkpt lat="43.47879" lon="6.28855">
        <ele>167</ele>
        <time>2023-04-28T13:21:33Z</time>
      </trkpt>
      <trkpt lat="43.47879" lon="6.28854">
        <ele>167</ele>
        <time>2023-04-28T13:21:34Z</time>
      </trkpt>
      <trkpt lat="43.47878" lon="6.28853">
        <ele>167</ele>
        <time>2023-04-28T13:21:35Z</time>
      </trkpt>
      <trkpt lat="43.47877" lon="6.28852">
        <ele>167</ele>
        <time>2023-04-28T13:21:36Z</time>
      </trkpt>
      <trkpt lat="43.47877" lon="6.28852">
        <ele>167</ele>
        <time>2023-04-28T13:21:37Z</time>
      </trkpt>
      <trkpt lat="43.47876" lon="6.28851">
        <ele>167</ele>
        <time>2023-04-28T13:21:38Z</time>
      </trkpt>
      <trkpt lat="43.47876" lon="6.2885">
        <ele>167</ele>
        <time>2023-04-28T13:21:39Z</time>
      </trkpt>
      <trkpt lat="43.47876" lon="6.2885">
        <ele>167</ele>
        <time>2023-04-28T13:21:40Z</time>
      </trkpt>
      <trkpt lat="43.47875" lon="6.28849">
        <ele>167</ele>
        <time>2023-04-28T13:21:41Z</time>
      </trkpt>
      <trkpt lat="43.47874" lon="6.28849">
        <ele>167</ele>
        <time>2023-04-28T13:21:42Z</time>
      </trkpt>
      <trkpt lat="43.47874" lon="6.28849">
        <ele>167</ele>
        <time>2023-04-28T13:21:43Z</time>
      </trkpt>
      <trkpt lat="43.47873" lon="6.2885">
        <ele>167</ele>
        <time>2023-04-28T13:21:44Z</time>
      </trkpt>
      <trkpt lat="43.47873" lon="6.2885">
        <ele>167</ele>
        <time>2023-04-28T13:21:45Z</time>
      </trkpt>
      <trkpt lat="43.47873" lon="6.2885">
        <ele>167</ele>
        <time>2023-04-28T13:21:46Z</time>
      </trkpt>
      <trkpt lat="43.47872" lon="6.2885">
        <ele>167</ele>
        <time>2023-04-28T13:21:47Z</time>
      </trkpt>
      <trkpt lat="43.47872" lon="6.28851">
        <ele>167</ele>
        <time>2023-04-28T13:21:48Z</time>
      </trkpt>
      <trkpt lat="43.47872" lon="6.28851">
        <ele>167</ele>
        <time>2023-04-28T13:21:49Z</time>
      </trkpt>
      <trkpt lat="43.47872" lon="6.28851">
        <ele>167</ele>
        <time>2023-04-28T13:21:50Z</time>
      </trkpt>
      <trkpt lat="43.47871" lon="6.28851">
        <ele>167</ele>
        <time>2023-04-28T13:21:51Z</time>
      </trkpt>
      <trkpt lat="43.47871" lon="6.28852">
        <ele>167</ele>
        <time>2023-04-28T13:21:52Z</time>
      </trkpt>
      <trkpt lat="43.4787" lon="6.28852">
        <ele>166</ele>
        <time>2023-04-28T13:21:53Z</time>
      </trkpt>
      <trkpt lat="43.47869" lon="6.28852">
        <ele>166</ele>
        <time>2023-04-28T13:21:54Z</time>
      </trkpt>
      <trkpt lat="43.47868" lon="6.28851">
        <ele>166</ele>
        <time>2023-04-28T13:21:55Z</time>
      </trkpt>
      <trkpt lat="43.47866" lon="6.28851">
        <ele>166</ele>
        <time>2023-04-28T13:21:56Z</time>
      </trkpt>
      <trkpt lat="43.47865" lon="6.2885">
        <ele>166</ele>
        <time>2023-04-28T13:21:57Z</time>
      </trkpt>
      <trkpt lat="43.47863" lon="6.2885">
        <ele>166</ele>
        <time>2023-04-28T13:21:58Z</time>
      </trkpt>
      <trkpt lat="43.47862" lon="6.28849">
        <ele>166</ele>
        <time>2023-04-28T13:21:59Z</time>
      </trkpt>
      <trkpt lat="43.4786" lon="6.28848">
        <ele>166</ele>
        <time>2023-04-28T13:22:00Z</time>
      </trkpt>
      <trkpt lat="43.47858" lon="6.28848">
        <ele>166</ele>
        <time>2023-04-28T13:22:01Z</time>
      </trkpt>
      <trkpt lat="43.47857" lon="6.28847">
        <ele>166</ele>
        <time>2023-04-28T13:22:02Z</time>
      </trkpt>
      <trkpt lat="43.47856" lon="6.28847">
        <ele>166</ele>
        <time>2023-04-28T13:22:03Z</time>
      </trkpt>
      <trkpt lat="43.47855" lon="6.28847">
        <ele>166</ele>
        <time>2023-04-28T13:22:04Z</time>
      </trkpt>
      <trkpt lat="43.47854" lon="6.28847">
        <ele>166</ele>
        <time>2023-04-28T13:22:05Z</time>
      </trkpt>
      <trkpt lat="43.47853" lon="6.28847">
        <ele>166</ele>
        <time>2023-04-28T13:22:06Z</time>
      </trkpt>
      <trkpt lat="43.47852" lon="6.28846">
        <ele>166</ele>
        <time>2023-04-28T13:22:07Z</time>
      </trkpt>
      <trkpt lat="43.47851" lon="6.28845">
        <ele>166</ele>
        <time>2023-04-28T13:22:08Z</time>
      </trkpt>
      <trkpt lat="43.47849" lon="6.28844">
        <ele>166</ele>
        <time>2023-04-28T13:22:09Z</time>
      </trkpt>
      <trkpt lat="43.47848" lon="6.28843">
        <ele>166</ele>
        <time>2023-04-28T13:22:10Z</time>
      </trkpt>
      <trkpt lat="43.47847" lon="6.28843">
        <ele>166</ele>
        <time>2023-04-28T13:22:11Z</time>
      </trkpt>
      <trkpt lat="43.47846" lon="6.28842">
        <ele>166</ele>
        <time>2023-04-28T13:22:12Z</time>
      </trkpt>
      <trkpt lat="43.47845" lon="6.28842">
        <ele>166</ele>
        <time>2023-04-28T13:22:13Z</time>
      </trkpt>
      <trkpt lat="43.47844" lon="6.28841">
        <ele>166</ele>
        <time>2023-04-28T13:22:14Z</time>
      </trkpt>
      <trkpt lat="43.47843" lon="6.28841">
        <ele>166</ele>
        <time>2023-04-28T13:22:15Z</time>
      </trkpt>
      <trkpt lat="43.47842" lon="6.28841">
        <ele>168</ele>
        <time>2023-04-28T13:22:16Z</time>
      </trkpt>
      <trkpt lat="43.4784" lon="6.28841">
        <ele>168</ele>
        <time>2023-04-28T13:22:17Z</time>
      </trkpt>
      <trkpt lat="43.47839" lon="6.28841">
        <ele>168</ele>
        <time>2023-04-28T13:22:18Z</time>
      </trkpt>
      <trkpt lat="43.47839" lon="6.2884">
        <ele>168</ele>
        <time>2023-04-28T13:22:19Z</time>
      </trkpt>
      <trkpt lat="43.47838" lon="6.2884">
        <ele>167</ele>
        <time>2023-04-28T13:22:20Z</time>
      </trkpt>
      <trkpt lat="43.47837" lon="6.2884">
        <ele>167</ele>
        <time>2023-04-28T13:22:21Z</time>
      </trkpt>
      <trkpt lat="43.47836" lon="6.28839">
        <ele>167</ele>
        <time>2023-04-28T13:22:22Z</time>
      </trkpt>
      <trkpt lat="43.47836" lon="6.28839">
        <ele>167</ele>
        <time>2023-04-28T13:22:23Z</time>
      </trkpt>
      <trkpt lat="43.47835" lon="6.28839">
        <ele>167</ele>
        <time>2023-04-28T13:22:24Z</time>
      </trkpt>
      <trkpt lat="43.47834" lon="6.28839">
        <ele>167</ele>
        <time>2023-04-28T13:22:25Z</time>
      </trkpt>
      <trkpt lat="43.47833" lon="6.28839">
        <ele>168</ele>
        <time>2023-04-28T13:22:26Z</time>
      </trkpt>
      <trkpt lat="43.47832" lon="6.28838">
        <ele>168</ele>
        <time>2023-04-28T13:22:27Z</time>
      </trkpt>
      <trkpt lat="43.47831" lon="6.28838">
        <ele>168</ele>
        <time>2023-04-28T13:22:28Z</time>
      </trkpt>
      <trkpt lat="43.47831" lon="6.28837">
        <ele>168</ele>
        <time>2023-04-28T13:22:29Z</time>
      </trkpt>
      <trkpt lat="43.4783" lon="6.28835">
        <ele>168</ele>
        <time>2023-04-28T13:22:30Z</time>
      </trkpt>
      <trkpt lat="43.4783" lon="6.28834">
        <ele>168</ele>
        <time>2023-04-28T13:22:31Z</time>
      </trkpt>
      <trkpt lat="43.47829" lon="6.28833">
        <ele>168</ele>
        <time>2023-04-28T13:22:32Z</time>
      </trkpt>
      <trkpt lat="43.47829" lon="6.28832">
        <ele>168</ele>
        <time>2023-04-28T13:22:33Z</time>
      </trkpt>
      <trkpt lat="43.47828" lon="6.28831">
        <ele>168</ele>
        <time>2023-04-28T13:22:34Z</time>
      </trkpt>
      <trkpt lat="43.47827" lon="6.2883">
        <ele>168</ele>
        <time>2023-04-28T13:22:35Z</time>
      </trkpt>
      <trkpt lat="43.47827" lon="6.28829">
        <ele>168</ele>
        <time>2023-04-28T13:22:36Z</time>
      </trkpt>
      <trkpt lat="43.47826" lon="6.28828">
        <ele>168</ele>
        <time>2023-04-28T13:22:37Z</time>
      </trkpt>
      <trkpt lat="43.47825" lon="6.28828">
        <ele>167</ele>
        <time>2023-04-28T13:22:38Z</time>
      </trkpt>
      <trkpt lat="43.47824" lon="6.28827">
        <ele>167</ele>
        <time>2023-04-28T13:22:39Z</time>
      </trkpt>
      <trkpt lat="43.47823" lon="6.28826">
        <ele>167</ele>
        <time>2023-04-28T13:22:40Z</time>
      </trkpt>
      <trkpt lat="43.47822" lon="6.28825">
        <ele>167</ele>
        <time>2023-04-28T13:22:41Z</time>
      </trkpt>
      <trkpt lat="43.47821" lon="6.28824">
        <ele>167</ele>
        <time>2023-04-28T13:22:42Z</time>
      </trkpt>
      <trkpt lat="43.47821" lon="6.28824">
        <ele>166</ele>
        <time>2023-04-28T13:22:43Z</time>
      </trkpt>
      <trkpt lat="43.4782" lon="6.28823">
        <ele>166</ele>
        <time>2023-04-28T13:22:44Z</time>
      </trkpt>
      <trkpt lat="43.47819" lon="6.28823">
        <ele>166</ele>
        <time>2023-04-28T13:22:45Z</time>
      </trkpt>
      <trkpt lat="43.47818" lon="6.28823">
        <ele>165</ele>
        <time>2023-04-28T13:22:46Z</time>
      </trkpt>
      <trkpt lat="43.47818" lon="6.28821">
        <ele>165</ele>
        <time>2023-04-28T13:22:47Z</time>
      </trkpt>
      <trkpt lat="43.47817" lon="6.28821">
        <ele>165</ele>
        <time>2023-04-28T13:22:48Z</time>
      </trkpt>
      <trkpt lat="43.47816" lon="6.28821">
        <ele>165</ele>
        <time>2023-04-28T13:22:49Z</time>
      </trkpt>
      <trkpt lat="43.47815" lon="6.28821">
        <ele>165</ele>
        <time>2023-04-28T13:22:50Z</time>
      </trkpt>
      <trkpt lat="43.47814" lon="6.28821">
        <ele>165</ele>
        <time>2023-04-28T13:22:51Z</time>
      </trkpt>
      <trkpt lat="43.47814" lon="6.28821">
        <ele>165</ele>
        <time>2023-04-28T13:22:52Z</time>
      </trkpt>
      <trkpt lat="43.47813" lon="6.28821">
        <ele>165</ele>
        <time>2023-04-28T13:22:53Z</time>
      </trkpt>
      <trkpt lat="43.47812" lon="6.2882">
        <ele>165</ele>
        <time>2023-04-28T13:22:54Z</time>
      </trkpt>
      <trkpt lat="43.47812" lon="6.2882">
        <ele>165</ele>
        <time>2023-04-28T13:22:55Z</time>
      </trkpt>
      <trkpt lat="43.47811" lon="6.2882">
        <ele>165</ele>
        <time>2023-04-28T13:22:56Z</time>
      </trkpt>
      <trkpt lat="43.4781" lon="6.28819">
        <ele>165</ele>
        <time>2023-04-28T13:22:57Z</time>
      </trkpt>
      <trkpt lat="43.4781" lon="6.28819">
        <ele>165</ele>
        <time>2023-04-28T13:22:58Z</time>
      </trkpt>
      <trkpt lat="43.47809" lon="6.28818">
        <ele>165</ele>
        <time>2023-04-28T13:22:59Z</time>
      </trkpt>
      <trkpt lat="43.47808" lon="6.28818">
        <ele>163</ele>
        <time>2023-04-28T13:23:00Z</time>
      </trkpt>
      <trkpt lat="43.47808" lon="6.28817">
        <ele>163</ele>
        <time>2023-04-28T13:23:01Z</time>
      </trkpt>
      <trkpt lat="43.47807" lon="6.28816">
        <ele>163</ele>
        <time>2023-04-28T13:23:02Z</time>
      </trkpt>
      <trkpt lat="43.47806" lon="6.28816">
        <ele>163</ele>
        <time>2023-04-28T13:23:03Z</time>
      </trkpt>
      <trkpt lat="43.47805" lon="6.28815">
        <ele>163</ele>
        <time>2023-04-28T13:23:04Z</time>
      </trkpt>
      <trkpt lat="43.47805" lon="6.28814">
        <ele>163</ele>
        <time>2023-04-28T13:23:05Z</time>
      </trkpt>
      <trkpt lat="43.47804" lon="6.28814">
        <ele>163</ele>
        <time>2023-04-28T13:23:06Z</time>
      </trkpt>
      <trkpt lat="43.47803" lon="6.28813">
        <ele>163</ele>
        <time>2023-04-28T13:23:07Z</time>
      </trkpt>
      <trkpt lat="43.47802" lon="6.28813">
        <ele>163</ele>
        <time>2023-04-28T13:23:08Z</time>
      </trkpt>
      <trkpt lat="43.47802" lon="6.28812">
        <ele>163</ele>
        <time>2023-04-28T13:23:09Z</time>
      </trkpt>
      <trkpt lat="43.47801" lon="6.28811">
        <ele>163</ele>
        <time>2023-04-28T13:23:10Z</time>
      </trkpt>
      <trkpt lat="43.47801" lon="6.28811">
        <ele>163</ele>
        <time>2023-04-28T13:23:11Z</time>
      </trkpt>
      <trkpt lat="43.478" lon="6.28811">
        <ele>164</ele>
        <time>2023-04-28T13:23:12Z</time>
      </trkpt>
      <trkpt lat="43.478" lon="6.2881">
        <ele>164</ele>
        <time>2023-04-28T13:23:13Z</time>
      </trkpt>
      <trkpt lat="43.47799" lon="6.2881">
        <ele>164</ele>
        <time>2023-04-28T13:23:14Z</time>
      </trkpt>
      <trkpt lat="43.47799" lon="6.28809">
        <ele>164</ele>
        <time>2023-04-28T13:23:15Z</time>
      </trkpt>
      <trkpt lat="43.47799" lon="6.28809">
        <ele>165</ele>
        <time>2023-04-28T13:23:16Z</time>
      </trkpt>
      <trkpt lat="43.47798" lon="6.28809">
        <ele>165</ele>
        <time>2023-04-28T13:23:17Z</time>
      </trkpt>
      <trkpt lat="43.47798" lon="6.28808">
        <ele>165</ele>
        <time>2023-04-28T13:23:18Z</time>
      </trkpt>
      <trkpt lat="43.47797" lon="6.28808">
        <ele>166</ele>
        <time>2023-04-28T13:23:19Z</time>
      </trkpt>
      <trkpt lat="43.47796" lon="6.28807">
        <ele>166</ele>
        <time>2023-04-28T13:23:20Z</time>
      </trkpt>
      <trkpt lat="43.47796" lon="6.28807">
        <ele>165</ele>
        <time>2023-04-28T13:23:21Z</time>
      </trkpt>
      <trkpt lat="43.47795" lon="6.28807">
        <ele>165</ele>
        <time>2023-04-28T13:23:22Z</time>
      </trkpt>
      <trkpt lat="43.47795" lon="6.28807">
        <ele>165</ele>
        <time>2023-04-28T13:23:23Z</time>
      </trkpt>
      <trkpt lat="43.47795" lon="6.28806">
        <ele>165</ele>
        <time>2023-04-28T13:23:24Z</time>
      </trkpt>
      <trkpt lat="43.47794" lon="6.28807">
        <ele>165</ele>
        <time>2023-04-28T13:23:25Z</time>
      </trkpt>
      <trkpt lat="43.47794" lon="6.28807">
        <ele>165</ele>
        <time>2023-04-28T13:23:26Z</time>
      </trkpt>
      <trkpt lat="43.47794" lon="6.28807">
        <ele>165</ele>
        <time>2023-04-28T13:23:27Z</time>
      </trkpt>
      <trkpt lat="43.47794" lon="6.28807">
        <ele>165</ele>
        <time>2023-04-28T13:23:28Z</time>
      </trkpt>
      <trkpt lat="43.47794" lon="6.28807">
        <ele>165</ele>
        <time>2023-04-28T13:23:29Z</time>
      </trkpt>
      <trkpt lat="43.47795" lon="6.28807">
        <ele>165</ele>
        <time>2023-04-28T13:23:30Z</time>
      </trkpt>
      <trkpt lat="43.47794" lon="6.28807">
        <ele>165</ele>
        <time>2023-04-28T13:23:31Z</time>
      </trkpt>
      <trkpt lat="43.47794" lon="6.28808">
        <ele>165</ele>
        <time>2023-04-28T13:23:32Z</time>
      </trkpt>
      <trkpt lat="43.47793" lon="6.28809">
        <ele>165</ele>
        <time>2023-04-28T13:23:33Z</time>
      </trkpt>
      <trkpt lat="43.47792" lon="6.28809">
        <ele>165</ele>
        <time>2023-04-28T13:23:34Z</time>
      </trkpt>
      <trkpt lat="43.47792" lon="6.28809">
        <ele>165</ele>
        <time>2023-04-28T13:23:35Z</time>
      </trkpt>
      <trkpt lat="43.47792" lon="6.28809">
        <ele>165</ele>
        <time>2023-04-28T13:23:36Z</time>
      </trkpt>
      <trkpt lat="43.47793" lon="6.28808">
        <ele>165</ele>
        <time>2023-04-28T13:23:37Z</time>
      </trkpt>
      <trkpt lat="43.47793" lon="6.28807">
        <ele>165</ele>
        <time>2023-04-28T13:23:38Z</time>
      </trkpt>
      <trkpt lat="43.47793" lon="6.28806">
        <ele>165</ele>
        <time>2023-04-28T13:23:39Z</time>
      </trkpt>
      <trkpt lat="43.47793" lon="6.28806">
        <ele>165</ele>
        <time>2023-04-28T13:23:40Z</time>
      </trkpt>
      <trkpt lat="43.47793" lon="6.28806">
        <ele>165</ele>
        <time>2023-04-28T13:23:41Z</time>
      </trkpt>
      <trkpt lat="43.47793" lon="6.28806">
        <ele>165</ele>
        <time>2023-04-28T13:23:42Z</time>
      </trkpt>
      <trkpt lat="43.47793" lon="6.28806">
        <ele>165</ele>
        <time>2023-04-28T13:23:43Z</time>
      </trkpt>
      <trkpt lat="43.47793" lon="6.28806">
        <ele>165</ele>
        <time>2023-04-28T13:23:44Z</time>
      </trkpt>
      <trkpt lat="43.47793" lon="6.28806">
        <ele>165</ele>
        <time>2023-04-28T13:23:45Z</time>
      </trkpt>
      <trkpt lat="43.47793" lon="6.28806">
        <ele>165</ele>
        <time>2023-04-28T13:23:46Z</time>
      </trkpt>
      <trkpt lat="43.47795" lon="6.28803">
        <ele>165</ele>
        <time>2023-04-28T13:23:47Z</time>
      </trkpt>
      <trkpt lat="43.47795" lon="6.28803">
        <ele>165</ele>
        <time>2023-04-28T13:23:48Z</time>
      </trkpt>
      <trkpt lat="43.47796" lon="6.28803">
        <ele>165</ele>
        <time>2023-04-28T13:23:49Z</time>
      </trkpt>
      <trkpt lat="43.47796" lon="6.28803">
        <ele>165</ele>
        <time>2023-04-28T13:23:50Z</time>
      </trkpt>
      <trkpt lat="43.47796" lon="6.28803">
        <ele>165</ele>
        <time>2023-04-28T13:23:51Z</time>
      </trkpt>
      <trkpt lat="43.47796" lon="6.28803">
        <ele>165</ele>
        <time>2023-04-28T13:23:52Z</time>
      </trkpt>
      <trkpt lat="43.47796" lon="6.28803">
        <ele>165</ele>
        <time>2023-04-28T13:23:53Z</time>
      </trkpt>
      <trkpt lat="43.47796" lon="6.28803">
        <ele>165</ele>
        <time>2023-04-28T13:23:54Z</time>
      </trkpt>
      <trkpt lat="43.47796" lon="6.28803">
        <ele>165</ele>
        <time>2023-04-28T13:23:55Z</time>
      </trkpt>
      <trkpt lat="43.47797" lon="6.28803">
        <ele>165</ele>
        <time>2023-04-28T13:23:56Z</time>
      </trkpt>
      <trkpt lat="43.47797" lon="6.28803">
        <ele>165</ele>
        <time>2023-04-28T13:23:57Z</time>
      </trkpt>
      <trkpt lat="43.47797" lon="6.28803">
        <ele>165</ele>
        <time>2023-04-28T13:23:58Z</time>
      </trkpt>
      <trkpt lat="43.47797" lon="6.28803">
        <ele>165</ele>
        <time>2023-04-28T13:23:59Z</time>
      </trkpt>
      <trkpt lat="43.47796" lon="6.28803">
        <ele>164</ele>
        <time>2023-04-28T13:24:00Z</time>
      </trkpt>
      <trkpt lat="43.47796" lon="6.28802">
        <ele>164</ele>
        <time>2023-04-28T13:24:01Z</time>
      </trkpt>
      <trkpt lat="43.47795" lon="6.28802">
        <ele>164</ele>
        <time>2023-04-28T13:24:02Z</time>
      </trkpt>
      <trkpt lat="43.47794" lon="6.28801">
        <ele>164</ele>
        <time>2023-04-28T13:24:03Z</time>
      </trkpt>
      <trkpt lat="43.47793" lon="6.288">
        <ele>164</ele>
        <time>2023-04-28T13:24:04Z</time>
      </trkpt>
      <trkpt lat="43.47793" lon="6.28799">
        <ele>164</ele>
        <time>2023-04-28T13:24:05Z</time>
      </trkpt>
      <trkpt lat="43.47793" lon="6.28799">
        <ele>164</ele>
        <time>2023-04-28T13:24:06Z</time>
      </trkpt>
      <trkpt lat="43.47793" lon="6.28799">
        <ele>164</ele>
        <time>2023-04-28T13:24:07Z</time>
      </trkpt>
      <trkpt lat="43.47792" lon="6.28799">
        <ele>164</ele>
        <time>2023-04-28T13:24:08Z</time>
      </trkpt>
      <trkpt lat="43.47792" lon="6.28798">
        <ele>164</ele>
        <time>2023-04-28T13:24:09Z</time>
      </trkpt>
      <trkpt lat="43.47792" lon="6.28798">
        <ele>164</ele>
        <time>2023-04-28T13:24:10Z</time>
      </trkpt>
      <trkpt lat="43.47792" lon="6.28797">
        <ele>164</ele>
        <time>2023-04-28T13:24:11Z</time>
      </trkpt>
      <trkpt lat="43.47792" lon="6.28797">
        <ele>164</ele>
        <time>2023-04-28T13:24:12Z</time>
      </trkpt>
      <trkpt lat="43.47792" lon="6.28797">
        <ele>164</ele>
        <time>2023-04-28T13:24:13Z</time>
      </trkpt>
      <trkpt lat="43.47792" lon="6.28796">
        <ele>164</ele>
        <time>2023-04-28T13:24:14Z</time>
      </trkpt>
      <trkpt lat="43.47792" lon="6.28796">
        <ele>164</ele>
        <time>2023-04-28T13:24:15Z</time>
      </trkpt>
      <trkpt lat="43.47792" lon="6.28796">
        <ele>165</ele>
        <time>2023-04-28T13:24:16Z</time>
      </trkpt>
      <trkpt lat="43.47792" lon="6.28796">
        <ele>165</ele>
        <time>2023-04-28T13:24:17Z</time>
      </trkpt>
      <trkpt lat="43.47792" lon="6.28795">
        <ele>165</ele>
        <time>2023-04-28T13:24:18Z</time>
      </trkpt>
      <trkpt lat="43.47792" lon="6.28795">
        <ele>165</ele>
        <time>2023-04-28T13:24:19Z</time>
      </trkpt>
      <trkpt lat="43.47792" lon="6.28795">
        <ele>165</ele>
        <time>2023-04-28T13:24:20Z</time>
      </trkpt>
      <trkpt lat="43.47792" lon="6.28795">
        <ele>165</ele>
        <time>2023-04-28T13:24:21Z</time>
      </trkpt>
      <trkpt lat="43.47792" lon="6.28795">
        <ele>165</ele>
        <time>2023-04-28T13:24:22Z</time>
      </trkpt>
      <trkpt lat="43.47793" lon="6.28795">
        <ele>165</ele>
        <time>2023-04-28T13:24:23Z</time>
      </trkpt>
      <trkpt lat="43.47793" lon="6.28794">
        <ele>165</ele>
        <time>2023-04-28T13:24:24Z</time>
      </trkpt>
      <trkpt lat="43.47793" lon="6.28794">
        <ele>165</ele>
        <time>2023-04-28T13:24:25Z</time>
      </trkpt>
      <trkpt lat="43.47793" lon="6.28794">
        <ele>165</ele>
        <time>2023-04-28T13:24:26Z</time>
      </trkpt>
      <trkpt lat="43.47793" lon="6.28794">
        <ele>165</ele>
        <time>2023-04-28T13:24:27Z</time>
      </trkpt>
      <trkpt lat="43.47793" lon="6.28794">
        <ele>165</ele>
        <time>2023-04-28T13:24:28Z</time>
      </trkpt>
      <trkpt lat="43.47792" lon="6.28794">
        <ele>165</ele>
        <time>2023-04-28T13:24:29Z</time>
      </trkpt>
      <trkpt lat="43.47792" lon="6.28794">
        <ele>165</ele>
        <time>2023-04-28T13:24:30Z</time>
      </trkpt>
      <trkpt lat="43.47791" lon="6.28794">
        <ele>165</ele>
        <time>2023-04-28T13:24:31Z</time>
      </trkpt>
      <trkpt lat="43.4779" lon="6.28794">
        <ele>165</ele>
        <time>2023-04-28T13:24:32Z</time>
      </trkpt>
      <trkpt lat="43.47789" lon="6.28794">
        <ele>165</ele>
        <time>2023-04-28T13:24:33Z</time>
      </trkpt>
      <trkpt lat="43.47789" lon="6.28793">
        <ele>165</ele>
        <time>2023-04-28T13:24:34Z</time>
      </trkpt>
      <trkpt lat="43.47788" lon="6.28793">
        <ele>164</ele>
        <time>2023-04-28T13:24:35Z</time>
      </trkpt>
      <trkpt lat="43.47787" lon="6.28793">
        <ele>164</ele>
        <time>2023-04-28T13:24:36Z</time>
      </trkpt>
      <trkpt lat="43.47786" lon="6.28793">
        <ele>164</ele>
        <time>2023-04-28T13:24:37Z</time>
      </trkpt>
      <trkpt lat="43.47786" lon="6.28793">
        <ele>164</ele>
        <time>2023-04-28T13:24:38Z</time>
      </trkpt>
      <trkpt lat="43.47785" lon="6.28792">
        <ele>164</ele>
        <time>2023-04-28T13:24:39Z</time>
      </trkpt>
      <trkpt lat="43.47785" lon="6.28792">
        <ele>164</ele>
        <time>2023-04-28T13:24:40Z</time>
      </trkpt>
      <trkpt lat="43.47784" lon="6.28792">
        <ele>164</ele>
        <time>2023-04-28T13:24:41Z</time>
      </trkpt>
      <trkpt lat="43.47784" lon="6.28792">
        <ele>164</ele>
        <time>2023-04-28T13:24:42Z</time>
      </trkpt>
      <trkpt lat="43.47783" lon="6.28792">
        <ele>163</ele>
        <time>2023-04-28T13:24:43Z</time>
      </trkpt>
      <trkpt lat="43.47781" lon="6.28791">
        <ele>163</ele>
        <time>2023-04-28T13:24:44Z</time>
      </trkpt>
      <trkpt lat="43.4778" lon="6.2879">
        <ele>161</ele>
        <time>2023-04-28T13:24:45Z</time>
      </trkpt>
      <trkpt lat="43.4778" lon="6.2879">
        <ele>161</ele>
        <time>2023-04-28T13:24:46Z</time>
      </trkpt>
      <trkpt lat="43.47779" lon="6.2879">
        <ele>160</ele>
        <time>2023-04-28T13:24:47Z</time>
      </trkpt>
      <trkpt lat="43.47779" lon="6.2879">
        <ele>160</ele>
        <time>2023-04-28T13:24:48Z</time>
      </trkpt>
      <trkpt lat="43.47779" lon="6.28789">
        <ele>160</ele>
        <time>2023-04-28T13:24:49Z</time>
      </trkpt>
      <trkpt lat="43.47779" lon="6.28789">
        <ele>160</ele>
        <time>2023-04-28T13:24:50Z</time>
      </trkpt>
      <trkpt lat="43.47778" lon="6.28789">
        <ele>160</ele>
        <time>2023-04-28T13:24:51Z</time>
      </trkpt>
      <trkpt lat="43.47778" lon="6.28789">
        <ele>160</ele>
        <time>2023-04-28T13:24:52Z</time>
      </trkpt>
      <trkpt lat="43.47778" lon="6.28789">
        <ele>160</ele>
        <time>2023-04-28T13:24:53Z</time>
      </trkpt>
      <trkpt lat="43.47778" lon="6.28789">
        <ele>160</ele>
        <time>2023-04-28T13:24:54Z</time>
      </trkpt>
      <trkpt lat="43.47778" lon="6.28789">
        <ele>160</ele>
        <time>2023-04-28T13:24:55Z</time>
      </trkpt>
      <trkpt lat="43.47778" lon="6.28789">
        <ele>160</ele>
        <time>2023-04-28T13:24:56Z</time>
      </trkpt>
      <trkpt lat="43.47777" lon="6.28789">
        <ele>160</ele>
        <time>2023-04-28T13:24:57Z</time>
      </trkpt>
      <trkpt lat="43.47777" lon="6.28788">
        <ele>160</ele>
        <time>2023-04-28T13:24:58Z</time>
      </trkpt>
      <trkpt lat="43.47777" lon="6.28788">
        <ele>160</ele>
        <time>2023-04-28T13:24:59Z</time>
      </trkpt>
      <trkpt lat="43.47777" lon="6.28788">
        <ele>160</ele>
        <time>2023-04-28T13:25:00Z</time>
      </trkpt>
      <trkpt lat="43.47776" lon="6.28787">
        <ele>160</ele>
        <time>2023-04-28T13:25:01Z</time>
      </trkpt>
      <trkpt lat="43.47775" lon="6.28787">
        <ele>160</ele>
        <time>2023-04-28T13:25:02Z</time>
      </trkpt>
      <trkpt lat="43.47775" lon="6.28786">
        <ele>160</ele>
        <time>2023-04-28T13:25:03Z</time>
      </trkpt>
      <trkpt lat="43.47775" lon="6.28786">
        <ele>160</ele>
        <time>2023-04-28T13:25:04Z</time>
      </trkpt>
      <trkpt lat="43.47774" lon="6.28786">
        <ele>160</ele>
        <time>2023-04-28T13:25:05Z</time>
      </trkpt>
      <trkpt lat="43.47774" lon="6.28785">
        <ele>160</ele>
        <time>2023-04-28T13:25:06Z</time>
      </trkpt>
      <trkpt lat="43.47774" lon="6.28785">
        <ele>160</ele>
        <time>2023-04-28T13:25:07Z</time>
      </trkpt>
      <trkpt lat="43.47774" lon="6.28785">
        <ele>160</ele>
        <time>2023-04-28T13:25:08Z</time>
      </trkpt>
      <trkpt lat="43.47773" lon="6.28785">
        <ele>160</ele>
        <time>2023-04-28T13:25:09Z</time>
      </trkpt>
      <trkpt lat="43.47773" lon="6.28785">
        <ele>160</ele>
        <time>2023-04-28T13:25:10Z</time>
      </trkpt>
      <trkpt lat="43.47773" lon="6.28785">
        <ele>160</ele>
        <time>2023-04-28T13:25:11Z</time>
      </trkpt>
      <trkpt lat="43.47773" lon="6.28784">
        <ele>160</ele>
        <time>2023-04-28T13:25:12Z</time>
      </trkpt>
      <trkpt lat="43.47773" lon="6.28784">
        <ele>160</ele>
        <time>2023-04-28T13:25:13Z</time>
      </trkpt>
      <trkpt lat="43.47773" lon="6.28784">
        <ele>160</ele>
        <time>2023-04-28T13:25:14Z</time>
      </trkpt>
      <trkpt lat="43.47773" lon="6.28784">
        <ele>160</ele>
        <time>2023-04-28T13:25:15Z</time>
      </trkpt>
      <trkpt lat="43.47773" lon="6.28784">
        <ele>160</ele>
        <time>2023-04-28T13:25:16Z</time>
      </trkpt>
      <trkpt lat="43.47773" lon="6.28784">
        <ele>159</ele>
        <time>2023-04-28T13:25:17Z</time>
      </trkpt>
      <trkpt lat="43.47772" lon="6.28784">
        <ele>160</ele>
        <time>2023-04-28T13:25:18Z</time>
      </trkpt>
      <trkpt lat="43.47771" lon="6.28782">
        <ele>160</ele>
        <time>2023-04-28T13:25:19Z</time>
      </trkpt>
      <trkpt lat="43.4777" lon="6.28782">
        <ele>160</ele>
        <time>2023-04-28T13:25:20Z</time>
      </trkpt>
      <trkpt lat="43.4777" lon="6.28781">
        <ele>160</ele>
        <time>2023-04-28T13:25:21Z</time>
      </trkpt>
      <trkpt lat="43.47769" lon="6.28781">
        <ele>160</ele>
        <time>2023-04-28T13:25:22Z</time>
      </trkpt>
      <trkpt lat="43.47769" lon="6.28781">
        <ele>160</ele>
        <time>2023-04-28T13:25:23Z</time>
      </trkpt>
      <trkpt lat="43.47769" lon="6.28781">
        <ele>160</ele>
        <time>2023-04-28T13:25:24Z</time>
      </trkpt>
      <trkpt lat="43.47769" lon="6.28781">
        <ele>160</ele>
        <time>2023-04-28T13:25:25Z</time>
      </trkpt>
      <trkpt lat="43.47768" lon="6.2878">
        <ele>160</ele>
        <time>2023-04-28T13:25:26Z</time>
      </trkpt>
      <trkpt lat="43.47768" lon="6.2878">
        <ele>160</ele>
        <time>2023-04-28T13:25:27Z</time>
      </trkpt>
      <trkpt lat="43.47768" lon="6.2878">
        <ele>160</ele>
        <time>2023-04-28T13:25:28Z</time>
      </trkpt>
      <trkpt lat="43.47768" lon="6.2878">
        <ele>160</ele>
        <time>2023-04-28T13:25:29Z</time>
      </trkpt>
      <trkpt lat="43.47768" lon="6.2878">
        <ele>160</ele>
        <time>2023-04-28T13:25:30Z</time>
      </trkpt>
      <trkpt lat="43.47768" lon="6.2878">
        <ele>160</ele>
        <time>2023-04-28T13:25:31Z</time>
      </trkpt>
      <trkpt lat="43.47768" lon="6.2878">
        <ele>160</ele>
        <time>2023-04-28T13:25:32Z</time>
      </trkpt>
      <trkpt lat="43.47768" lon="6.2878">
        <ele>160</ele>
        <time>2023-04-28T13:25:33Z</time>
      </trkpt>
      <trkpt lat="43.47767" lon="6.2878">
        <ele>160</ele>
        <time>2023-04-28T13:25:34Z</time>
      </trkpt>
      <trkpt lat="43.47767" lon="6.2878">
        <ele>160</ele>
        <time>2023-04-28T13:25:35Z</time>
      </trkpt>
      <trkpt lat="43.47767" lon="6.2878">
        <ele>160</ele>
        <time>2023-04-28T13:25:36Z</time>
      </trkpt>
      <trkpt lat="43.47767" lon="6.28779">
        <ele>159</ele>
        <time>2023-04-28T13:25:37Z</time>
      </trkpt>
      <trkpt lat="43.47767" lon="6.28779">
        <ele>159</ele>
        <time>2023-04-28T13:25:38Z</time>
      </trkpt>
      <trkpt lat="43.47767" lon="6.28779">
        <ele>159</ele>
        <time>2023-04-28T13:25:39Z</time>
      </trkpt>
      <trkpt lat="43.47767" lon="6.28779">
        <ele>159</ele>
        <time>2023-04-28T13:25:40Z</time>
      </trkpt>
      <trkpt lat="43.47767" lon="6.28779">
        <ele>159</ele>
        <time>2023-04-28T13:25:41Z</time>
      </trkpt>
      <trkpt lat="43.47767" lon="6.28779">
        <ele>159</ele>
        <time>2023-04-28T13:25:42Z</time>
      </trkpt>
      <trkpt lat="43.47767" lon="6.28779">
        <ele>159</ele>
        <time>2023-04-28T13:25:43Z</time>
      </trkpt>
      <trkpt lat="43.47767" lon="6.28779">
        <ele>159</ele>
        <time>2023-04-28T13:25:44Z</time>
      </trkpt>
      <trkpt lat="43.47767" lon="6.28779">
        <ele>159</ele>
        <time>2023-04-28T13:25:45Z</time>
      </trkpt>
      <trkpt lat="43.47767" lon="6.28779">
        <ele>159</ele>
        <time>2023-04-28T13:25:46Z</time>
      </trkpt>
      <trkpt lat="43.47767" lon="6.28779">
        <ele>159</ele>
        <time>2023-04-28T13:25:47Z</time>
      </trkpt>
      <trkpt lat="43.47767" lon="6.28779">
        <ele>159</ele>
        <time>2023-04-28T13:25:48Z</time>
      </trkpt>
      <trkpt lat="43.47767" lon="6.28779">
        <ele>159</ele>
        <time>2023-04-28T13:25:49Z</time>
      </trkpt>
      <trkpt lat="43.47767" lon="6.28779">
        <ele>159</ele>
        <time>2023-04-28T13:25:50Z</time>
      </trkpt>
      <trkpt lat="43.47767" lon="6.28779">
        <ele>159</ele>
        <time>2023-04-28T13:25:51Z</time>
      </trkpt>
      <trkpt lat="43.47767" lon="6.28779">
        <ele>159</ele>
        <time>2023-04-28T13:25:52Z</time>
      </trkpt>
      <trkpt lat="43.47767" lon="6.28779">
        <ele>159</ele>
        <time>2023-04-28T13:25:53Z</time>
      </trkpt>
      <trkpt lat="43.47767" lon="6.28779">
        <ele>159</ele>
        <time>2023-04-28T13:25:54Z</time>
      </trkpt>
      <trkpt lat="43.47767" lon="6.28779">
        <ele>159</ele>
        <time>2023-04-28T13:25:55Z</time>
      </trkpt>
      <trkpt lat="43.47767" lon="6.28779">
        <ele>159</ele>
        <time>2023-04-28T13:25:56Z</time>
      </trkpt>
      <trkpt lat="43.47767" lon="6.28779">
        <ele>159</ele>
        <time>2023-04-28T13:25:57Z</time>
      </trkpt>
      <trkpt lat="43.47767" lon="6.28779">
        <ele>159</ele>
        <time>2023-04-28T13:25:58Z</time>
      </trkpt>
      <trkpt lat="43.47767" lon="6.28779">
        <ele>159</ele>
        <time>2023-04-28T13:25:59Z</time>
      </trkpt>
      <trkpt lat="43.47767" lon="6.28779">
        <ele>159</ele>
        <time>2023-04-28T13:26:00Z</time>
      </trkpt>
      <trkpt lat="43.47766" lon="6.28778">
        <ele>159</ele>
        <time>2023-04-28T13:26:01Z</time>
      </trkpt>
      <trkpt lat="43.47766" lon="6.28777">
        <ele>159</ele>
        <time>2023-04-28T13:26:02Z</time>
      </trkpt>
      <trkpt lat="43.47765" lon="6.28775">
        <ele>159</ele>
        <time>2023-04-28T13:26:03Z</time>
      </trkpt>
      <trkpt lat="43.47765" lon="6.28773">
        <ele>159</ele>
        <time>2023-04-28T13:26:04Z</time>
      </trkpt>
      <trkpt lat="43.47764" lon="6.28769">
        <ele>159</ele>
        <time>2023-04-28T13:26:05Z</time>
      </trkpt>
      <trkpt lat="43.47763" lon="6.28767">
        <ele>159</ele>
        <time>2023-04-28T13:26:06Z</time>
      </trkpt>
      <trkpt lat="43.47763" lon="6.28766">
        <ele>159</ele>
        <time>2023-04-28T13:26:07Z</time>
      </trkpt>
      <trkpt lat="43.47762" lon="6.28765">
        <ele>159</ele>
        <time>2023-04-28T13:26:08Z</time>
      </trkpt>
      <trkpt lat="43.47762" lon="6.28764">
        <ele>159</ele>
        <time>2023-04-28T13:26:09Z</time>
      </trkpt>
      <trkpt lat="43.47762" lon="6.28763">
        <ele>159</ele>
        <time>2023-04-28T13:26:10Z</time>
      </trkpt>
      <trkpt lat="43.47762" lon="6.28762">
        <ele>159</ele>
        <time>2023-04-28T13:26:11Z</time>
      </trkpt>
      <trkpt lat="43.47761" lon="6.28761">
        <ele>159</ele>
        <time>2023-04-28T13:26:12Z</time>
      </trkpt>
      <trkpt lat="43.47761" lon="6.2876">
        <ele>159</ele>
        <time>2023-04-28T13:26:13Z</time>
      </trkpt>
      <trkpt lat="43.47761" lon="6.28759">
        <ele>159</ele>
        <time>2023-04-28T13:26:14Z</time>
      </trkpt>
      <trkpt lat="43.47761" lon="6.28758">
        <ele>159</ele>
        <time>2023-04-28T13:26:15Z</time>
      </trkpt>
      <trkpt lat="43.4776" lon="6.28757">
        <ele>161</ele>
        <time>2023-04-28T13:26:16Z</time>
      </trkpt>
      <trkpt lat="43.4776" lon="6.28756">
        <ele>161</ele>
        <time>2023-04-28T13:26:17Z</time>
      </trkpt>
      <trkpt lat="43.47759" lon="6.28755">
        <ele>161</ele>
        <time>2023-04-28T13:26:18Z</time>
      </trkpt>
      <trkpt lat="43.47759" lon="6.28753">
        <ele>161</ele>
        <time>2023-04-28T13:26:19Z</time>
      </trkpt>
      <trkpt lat="43.47758" lon="6.28751">
        <ele>161</ele>
        <time>2023-04-28T13:26:20Z</time>
      </trkpt>
      <trkpt lat="43.47757" lon="6.2875">
        <ele>161</ele>
        <time>2023-04-28T13:26:21Z</time>
      </trkpt>
      <trkpt lat="43.47756" lon="6.28748">
        <ele>162</ele>
        <time>2023-04-28T13:26:22Z</time>
      </trkpt>
      <trkpt lat="43.47756" lon="6.28746">
        <ele>162</ele>
        <time>2023-04-28T13:26:23Z</time>
      </trkpt>
      <trkpt lat="43.47755" lon="6.28745">
        <ele>162</ele>
        <time>2023-04-28T13:26:24Z</time>
      </trkpt>
      <trkpt lat="43.47754" lon="6.28744">
        <ele>162</ele>
        <time>2023-04-28T13:26:25Z</time>
      </trkpt>
      <trkpt lat="43.47754" lon="6.28743">
        <ele>162</ele>
        <time>2023-04-28T13:26:26Z</time>
      </trkpt>
      <trkpt lat="43.47754" lon="6.28742">
        <ele>163</ele>
        <time>2023-04-28T13:26:27Z</time>
      </trkpt>
      <trkpt lat="43.47753" lon="6.28741">
        <ele>163</ele>
        <time>2023-04-28T13:26:28Z</time>
      </trkpt>
      <trkpt lat="43.47753" lon="6.28741">
        <ele>163</ele>
        <time>2023-04-28T13:26:29Z</time>
      </trkpt>
      <trkpt lat="43.47752" lon="6.2874">
        <ele>163</ele>
        <time>2023-04-28T13:26:30Z</time>
      </trkpt>
      <trkpt lat="43.47752" lon="6.2874">
        <ele>164</ele>
        <time>2023-04-28T13:26:31Z</time>
      </trkpt>
      <trkpt lat="43.47752" lon="6.28739">
        <ele>164</ele>
        <time>2023-04-28T13:26:32Z</time>
      </trkpt>
      <trkpt lat="43.47752" lon="6.28739">
        <ele>164</ele>
        <time>2023-04-28T13:26:33Z</time>
      </trkpt>
      <trkpt lat="43.47752" lon="6.28739">
        <ele>164</ele>
        <time>2023-04-28T13:26:34Z</time>
      </trkpt>
      <trkpt lat="43.47751" lon="6.28739">
        <ele>164</ele>
        <time>2023-04-28T13:26:35Z</time>
      </trkpt>
      <trkpt lat="43.47751" lon="6.28738">
        <ele>164</ele>
        <time>2023-04-28T13:26:36Z</time>
      </trkpt>
      <trkpt lat="43.47751" lon="6.28737">
        <ele>164</ele>
        <time>2023-04-28T13:26:37Z</time>
      </trkpt>
      <trkpt lat="43.4775" lon="6.28736">
        <ele>164</ele>
        <time>2023-04-28T13:26:38Z</time>
      </trkpt>
      <trkpt lat="43.47749" lon="6.28736">
        <ele>164</ele>
        <time>2023-04-28T13:26:39Z</time>
      </trkpt>
      <trkpt lat="43.47749" lon="6.28735">
        <ele>164</ele>
        <time>2023-04-28T13:26:40Z</time>
      </trkpt>
      <trkpt lat="43.47748" lon="6.28734">
        <ele>164</ele>
        <time>2023-04-28T13:26:41Z</time>
      </trkpt>
      <trkpt lat="43.47748" lon="6.28733">
        <ele>164</ele>
        <time>2023-04-28T13:26:42Z</time>
      </trkpt>
      <trkpt lat="43.47747" lon="6.28733">
        <ele>164</ele>
        <time>2023-04-28T13:26:43Z</time>
      </trkpt>
      <trkpt lat="43.47747" lon="6.28732">
        <ele>165</ele>
        <time>2023-04-28T13:26:44Z</time>
      </trkpt>
      <trkpt lat="43.47746" lon="6.2873">
        <ele>165</ele>
        <time>2023-04-28T13:26:45Z</time>
      </trkpt>
      <trkpt lat="43.47744" lon="6.28728">
        <ele>165</ele>
        <time>2023-04-28T13:26:46Z</time>
      </trkpt>
      <trkpt lat="43.47743" lon="6.28726">
        <ele>165</ele>
        <time>2023-04-28T13:26:47Z</time>
      </trkpt>
      <trkpt lat="43.47742" lon="6.28724">
        <ele>165</ele>
        <time>2023-04-28T13:26:48Z</time>
      </trkpt>
      <trkpt lat="43.47741" lon="6.28723">
        <ele>165</ele>
        <time>2023-04-28T13:26:49Z</time>
      </trkpt>
      <trkpt lat="43.47741" lon="6.28721">
        <ele>165</ele>
        <time>2023-04-28T13:26:50Z</time>
      </trkpt>
      <trkpt lat="43.4774" lon="6.28719">
        <ele>165</ele>
        <time>2023-04-28T13:26:51Z</time>
      </trkpt>
      <trkpt lat="43.47739" lon="6.28718">
        <ele>165</ele>
        <time>2023-04-28T13:26:52Z</time>
      </trkpt>
      <trkpt lat="43.47739" lon="6.28717">
        <ele>166</ele>
        <time>2023-04-28T13:26:53Z</time>
      </trkpt>
      <trkpt lat="43.47738" lon="6.28716">
        <ele>166</ele>
        <time>2023-04-28T13:26:54Z</time>
      </trkpt>
      <trkpt lat="43.47738" lon="6.28715">
        <ele>166</ele>
        <time>2023-04-28T13:26:55Z</time>
      </trkpt>
      <trkpt lat="43.47737" lon="6.28714">
        <ele>166</ele>
        <time>2023-04-28T13:26:56Z</time>
      </trkpt>
      <trkpt lat="43.47736" lon="6.28713">
        <ele>166</ele>
        <time>2023-04-28T13:26:57Z</time>
      </trkpt>
      <trkpt lat="43.47735" lon="6.28712">
        <ele>166</ele>
        <time>2023-04-28T13:26:58Z</time>
      </trkpt>
      <trkpt lat="43.47735" lon="6.28711">
        <ele>167</ele>
        <time>2023-04-28T13:26:59Z</time>
      </trkpt>
      <trkpt lat="43.47735" lon="6.28709">
        <ele>169</ele>
        <time>2023-04-28T13:27:00Z</time>
      </trkpt>
      <trkpt lat="43.47734" lon="6.28708">
        <ele>169</ele>
        <time>2023-04-28T13:27:01Z</time>
      </trkpt>
      <trkpt lat="43.47734" lon="6.28707">
        <ele>169</ele>
        <time>2023-04-28T13:27:02Z</time>
      </trkpt>
      <trkpt lat="43.47733" lon="6.28706">
        <ele>170</ele>
        <time>2023-04-28T13:27:03Z</time>
      </trkpt>
      <trkpt lat="43.47733" lon="6.28705">
        <ele>170</ele>
        <time>2023-04-28T13:27:04Z</time>
      </trkpt>
      <trkpt lat="43.47733" lon="6.28704">
        <ele>170</ele>
        <time>2023-04-28T13:27:05Z</time>
      </trkpt>
      <trkpt lat="43.47732" lon="6.28703">
        <ele>170</ele>
        <time>2023-04-28T13:27:06Z</time>
      </trkpt>
      <trkpt lat="43.47732" lon="6.28701">
        <ele>170</ele>
        <time>2023-04-28T13:27:07Z</time>
      </trkpt>
      <trkpt lat="43.47732" lon="6.287">
        <ele>170</ele>
        <time>2023-04-28T13:27:08Z</time>
      </trkpt>
      <trkpt lat="43.47732" lon="6.28699">
        <ele>170</ele>
        <time>2023-04-28T13:27:09Z</time>
      </trkpt>
      <trkpt lat="43.47732" lon="6.28698">
        <ele>170</ele>
        <time>2023-04-28T13:27:10Z</time>
      </trkpt>
      <trkpt lat="43.47732" lon="6.28697">
        <ele>170</ele>
        <time>2023-04-28T13:27:11Z</time>
      </trkpt>
      <trkpt lat="43.47731" lon="6.28696">
        <ele>170</ele>
        <time>2023-04-28T13:27:12Z</time>
      </trkpt>
      <trkpt lat="43.47731" lon="6.28695">
        <ele>170</ele>
        <time>2023-04-28T13:27:13Z</time>
      </trkpt>
      <trkpt lat="43.4773" lon="6.28694">
        <ele>170</ele>
        <time>2023-04-28T13:27:14Z</time>
      </trkpt>
      <trkpt lat="43.4773" lon="6.28693">
        <ele>170</ele>
        <time>2023-04-28T13:27:15Z</time>
      </trkpt>
      <trkpt lat="43.47729" lon="6.28692">
        <ele>170</ele>
        <time>2023-04-28T13:27:16Z</time>
      </trkpt>
      <trkpt lat="43.47729" lon="6.28691">
        <ele>170</ele>
        <time>2023-04-28T13:27:17Z</time>
      </trkpt>
      <trkpt lat="43.47728" lon="6.2869">
        <ele>170</ele>
        <time>2023-04-28T13:27:18Z</time>
      </trkpt>
      <trkpt lat="43.47728" lon="6.28689">
        <ele>170</ele>
        <time>2023-04-28T13:27:19Z</time>
      </trkpt>
      <trkpt lat="43.47727" lon="6.28688">
        <ele>170</ele>
        <time>2023-04-28T13:27:20Z</time>
      </trkpt>
      <trkpt lat="43.47727" lon="6.28687">
        <ele>170</ele>
        <time>2023-04-28T13:27:21Z</time>
      </trkpt>
      <trkpt lat="43.47726" lon="6.28685">
        <ele>170</ele>
        <time>2023-04-28T13:27:22Z</time>
      </trkpt>
      <trkpt lat="43.47726" lon="6.28684">
        <ele>170</ele>
        <time>2023-04-28T13:27:23Z</time>
      </trkpt>
      <trkpt lat="43.47725" lon="6.28683">
        <ele>170</ele>
        <time>2023-04-28T13:27:24Z</time>
      </trkpt>
      <trkpt lat="43.47725" lon="6.28682">
        <ele>170</ele>
        <time>2023-04-28T13:27:25Z</time>
      </trkpt>
      <trkpt lat="43.47724" lon="6.28681">
        <ele>170</ele>
        <time>2023-04-28T13:27:26Z</time>
      </trkpt>
      <trkpt lat="43.47724" lon="6.2868">
        <ele>170</ele>
        <time>2023-04-28T13:27:27Z</time>
      </trkpt>
      <trkpt lat="43.47723" lon="6.28679">
        <ele>169</ele>
        <time>2023-04-28T13:27:28Z</time>
      </trkpt>
      <trkpt lat="43.47723" lon="6.28678">
        <ele>169</ele>
        <time>2023-04-28T13:27:29Z</time>
      </trkpt>
      <trkpt lat="43.47722" lon="6.28676">
        <ele>169</ele>
        <time>2023-04-28T13:27:30Z</time>
      </trkpt>
      <trkpt lat="43.47722" lon="6.28675">
        <ele>169</ele>
        <time>2023-04-28T13:27:31Z</time>
      </trkpt>
      <trkpt lat="43.47721" lon="6.28674">
        <ele>169</ele>
        <time>2023-04-28T13:27:32Z</time>
      </trkpt>
      <trkpt lat="43.4772" lon="6.28673">
        <ele>169</ele>
        <time>2023-04-28T13:27:33Z</time>
      </trkpt>
      <trkpt lat="43.4772" lon="6.28672">
        <ele>169</ele>
        <time>2023-04-28T13:27:34Z</time>
      </trkpt>
      <trkpt lat="43.47719" lon="6.28671">
        <ele>169</ele>
        <time>2023-04-28T13:27:35Z</time>
      </trkpt>
      <trkpt lat="43.47719" lon="6.2867">
        <ele>169</ele>
        <time>2023-04-28T13:27:36Z</time>
      </trkpt>
      <trkpt lat="43.47718" lon="6.28669">
        <ele>169</ele>
        <time>2023-04-28T13:27:37Z</time>
      </trkpt>
      <trkpt lat="43.47717" lon="6.28668">
        <ele>169</ele>
        <time>2023-04-28T13:27:38Z</time>
      </trkpt>
      <trkpt lat="43.47717" lon="6.28666">
        <ele>169</ele>
        <time>2023-04-28T13:27:39Z</time>
      </trkpt>
      <trkpt lat="43.47716" lon="6.28665">
        <ele>169</ele>
        <time>2023-04-28T13:27:40Z</time>
      </trkpt>
      <trkpt lat="43.47716" lon="6.28664">
        <ele>169</ele>
        <time>2023-04-28T13:27:41Z</time>
      </trkpt>
      <trkpt lat="43.47716" lon="6.28663">
        <ele>169</ele>
        <time>2023-04-28T13:27:42Z</time>
      </trkpt>
      <trkpt lat="43.47715" lon="6.28662">
        <ele>169</ele>
        <time>2023-04-28T13:27:43Z</time>
      </trkpt>
      <trkpt lat="43.47715" lon="6.2866">
        <ele>169</ele>
        <time>2023-04-28T13:27:44Z</time>
      </trkpt>
      <trkpt lat="43.47715" lon="6.28659">
        <ele>169</ele>
        <time>2023-04-28T13:27:45Z</time>
      </trkpt>
      <trkpt lat="43.47714" lon="6.28658">
        <ele>169</ele>
        <time>2023-04-28T13:27:46Z</time>
      </trkpt>
      <trkpt lat="43.47714" lon="6.28657">
        <ele>169</ele>
        <time>2023-04-28T13:27:47Z</time>
      </trkpt>
      <trkpt lat="43.47713" lon="6.28656">
        <ele>169</ele>
        <time>2023-04-28T13:27:48Z</time>
      </trkpt>
      <trkpt lat="43.47713" lon="6.28655">
        <ele>169</ele>
        <time>2023-04-28T13:27:49Z</time>
      </trkpt>
      <trkpt lat="43.47713" lon="6.28654">
        <ele>170</ele>
        <time>2023-04-28T13:27:50Z</time>
      </trkpt>
      <trkpt lat="43.47713" lon="6.28653">
        <ele>170</ele>
        <time>2023-04-28T13:27:51Z</time>
      </trkpt>
      <trkpt lat="43.47712" lon="6.28652">
        <ele>170</ele>
        <time>2023-04-28T13:27:52Z</time>
      </trkpt>
      <trkpt lat="43.47712" lon="6.28651">
        <ele>170</ele>
        <time>2023-04-28T13:27:53Z</time>
      </trkpt>
      <trkpt lat="43.47712" lon="6.28651">
        <ele>170</ele>
        <time>2023-04-28T13:27:54Z</time>
      </trkpt>
      <trkpt lat="43.47711" lon="6.2865">
        <ele>170</ele>
        <time>2023-04-28T13:27:55Z</time>
      </trkpt>
      <trkpt lat="43.47711" lon="6.2865">
        <ele>170</ele>
        <time>2023-04-28T13:27:56Z</time>
      </trkpt>
      <trkpt lat="43.47711" lon="6.28651">
        <ele>170</ele>
        <time>2023-04-28T13:27:57Z</time>
      </trkpt>
      <trkpt lat="43.47711" lon="6.28651">
        <ele>170</ele>
        <time>2023-04-28T13:27:58Z</time>
      </trkpt>
      <trkpt lat="43.47711" lon="6.28652">
        <ele>170</ele>
        <time>2023-04-28T13:27:59Z</time>
      </trkpt>
      <trkpt lat="43.47711" lon="6.28652">
        <ele>170</ele>
        <time>2023-04-28T13:28:00Z</time>
      </trkpt>
      <trkpt lat="43.47711" lon="6.28651">
        <ele>170</ele>
        <time>2023-04-28T13:28:01Z</time>
      </trkpt>
      <trkpt lat="43.4771" lon="6.2865">
        <ele>170</ele>
        <time>2023-04-28T13:28:02Z</time>
      </trkpt>
      <trkpt lat="43.4771" lon="6.28649">
        <ele>170</ele>
        <time>2023-04-28T13:28:03Z</time>
      </trkpt>
      <trkpt lat="43.4771" lon="6.28647">
        <ele>169</ele>
        <time>2023-04-28T13:28:04Z</time>
      </trkpt>
      <trkpt lat="43.4771" lon="6.28646">
        <ele>169</ele>
        <time>2023-04-28T13:28:05Z</time>
      </trkpt>
      <trkpt lat="43.4771" lon="6.28645">
        <ele>170</ele>
        <time>2023-04-28T13:28:06Z</time>
      </trkpt>
      <trkpt lat="43.4771" lon="6.28644">
        <ele>170</ele>
        <time>2023-04-28T13:28:07Z</time>
      </trkpt>
      <trkpt lat="43.4771" lon="6.28643">
        <ele>170</ele>
        <time>2023-04-28T13:28:08Z</time>
      </trkpt>
      <trkpt lat="43.47709" lon="6.28641">
        <ele>170</ele>
        <time>2023-04-28T13:28:09Z</time>
      </trkpt>
      <trkpt lat="43.47709" lon="6.2864">
        <ele>170</ele>
        <time>2023-04-28T13:28:10Z</time>
      </trkpt>
      <trkpt lat="43.47709" lon="6.28639">
        <ele>170</ele>
        <time>2023-04-28T13:28:11Z</time>
      </trkpt>
      <trkpt lat="43.47709" lon="6.28638">
        <ele>170</ele>
        <time>2023-04-28T13:28:12Z</time>
      </trkpt>
      <trkpt lat="43.47709" lon="6.28637">
        <ele>170</ele>
        <time>2023-04-28T13:28:13Z</time>
      </trkpt>
      <trkpt lat="43.47709" lon="6.28636">
        <ele>170</ele>
        <time>2023-04-28T13:28:14Z</time>
      </trkpt>
      <trkpt lat="43.47709" lon="6.28635">
        <ele>171</ele>
        <time>2023-04-28T13:28:15Z</time>
      </trkpt>
      <trkpt lat="43.47709" lon="6.28634">
        <ele>171</ele>
        <time>2023-04-28T13:28:16Z</time>
      </trkpt>
      <trkpt lat="43.47709" lon="6.28633">
        <ele>171</ele>
        <time>2023-04-28T13:28:17Z</time>
      </trkpt>
      <trkpt lat="43.47709" lon="6.28631">
        <ele>171</ele>
        <time>2023-04-28T13:28:18Z</time>
      </trkpt>
      <trkpt lat="43.47709" lon="6.2863">
        <ele>171</ele>
        <time>2023-04-28T13:28:19Z</time>
      </trkpt>
      <trkpt lat="43.47708" lon="6.28629">
        <ele>171</ele>
        <time>2023-04-28T13:28:20Z</time>
      </trkpt>
      <trkpt lat="43.47708" lon="6.28628">
        <ele>172</ele>
        <time>2023-04-28T13:28:21Z</time>
      </trkpt>
      <trkpt lat="43.47708" lon="6.28626">
        <ele>172</ele>
        <time>2023-04-28T13:28:22Z</time>
      </trkpt>
      <trkpt lat="43.47708" lon="6.28625">
        <ele>172</ele>
        <time>2023-04-28T13:28:23Z</time>
      </trkpt>
      <trkpt lat="43.47708" lon="6.28624">
        <ele>172</ele>
        <time>2023-04-28T13:28:24Z</time>
      </trkpt>
      <trkpt lat="43.47708" lon="6.28622">
        <ele>172</ele>
        <time>2023-04-28T13:28:25Z</time>
      </trkpt>
      <trkpt lat="43.47708" lon="6.2862">
        <ele>172</ele>
        <time>2023-04-28T13:28:26Z</time>
      </trkpt>
      <trkpt lat="43.47708" lon="6.28618">
        <ele>172</ele>
        <time>2023-04-28T13:28:27Z</time>
      </trkpt>
      <trkpt lat="43.47707" lon="6.28617">
        <ele>172</ele>
        <time>2023-04-28T13:28:28Z</time>
      </trkpt>
      <trkpt lat="43.47707" lon="6.28615">
        <ele>172</ele>
        <time>2023-04-28T13:28:29Z</time>
      </trkpt>
      <trkpt lat="43.47707" lon="6.28613">
        <ele>171</ele>
        <time>2023-04-28T13:28:30Z</time>
      </trkpt>
      <trkpt lat="43.47707" lon="6.28612">
        <ele>171</ele>
        <time>2023-04-28T13:28:31Z</time>
      </trkpt>
      <trkpt lat="43.47706" lon="6.2861">
        <ele>171</ele>
        <time>2023-04-28T13:28:32Z</time>
      </trkpt>
      <trkpt lat="43.47706" lon="6.28608">
        <ele>171</ele>
        <time>2023-04-28T13:28:33Z</time>
      </trkpt>
      <trkpt lat="43.47706" lon="6.28607">
        <ele>171</ele>
        <time>2023-04-28T13:28:34Z</time>
      </trkpt>
      <trkpt lat="43.47706" lon="6.28606">
        <ele>171</ele>
        <time>2023-04-28T13:28:35Z</time>
      </trkpt>
      <trkpt lat="43.47706" lon="6.28605">
        <ele>171</ele>
        <time>2023-04-28T13:28:36Z</time>
      </trkpt>
      <trkpt lat="43.47706" lon="6.28605">
        <ele>171</ele>
        <time>2023-04-28T13:28:37Z</time>
      </trkpt>
      <trkpt lat="43.47706" lon="6.28604">
        <ele>171</ele>
        <time>2023-04-28T13:28:38Z</time>
      </trkpt>
      <trkpt lat="43.47706" lon="6.28604">
        <ele>171</ele>
        <time>2023-04-28T13:28:39Z</time>
      </trkpt>
      <trkpt lat="43.47706" lon="6.28604">
        <ele>171</ele>
        <time>2023-04-28T13:28:40Z</time>
      </trkpt>
      <trkpt lat="43.47706" lon="6.28604">
        <ele>171</ele>
        <time>2023-04-28T13:28:41Z</time>
      </trkpt>
      <trkpt lat="43.47706" lon="6.28604">
        <ele>171</ele>
        <time>2023-04-28T13:28:42Z</time>
      </trkpt>
      <trkpt lat="43.47706" lon="6.28604">
        <ele>171</ele>
        <time>2023-04-28T13:28:43Z</time>
      </trkpt>
      <trkpt lat="43.47706" lon="6.28604">
        <ele>171</ele>
        <time>2023-04-28T13:28:44Z</time>
      </trkpt>
      <trkpt lat="43.47706" lon="6.28604">
        <ele>171</ele>
        <time>2023-04-28T13:28:45Z</time>
      </trkpt>
      <trkpt lat="43.47705" lon="6.28605">
        <ele>171</ele>
        <time>2023-04-28T13:28:46Z</time>
      </trkpt>
      <trkpt lat="43.47705" lon="6.28605">
        <ele>171</ele>
        <time>2023-04-28T13:28:47Z</time>
      </trkpt>
      <trkpt lat="43.47705" lon="6.28604">
        <ele>171</ele>
        <time>2023-04-28T13:28:48Z</time>
      </trkpt>
      <trkpt lat="43.47704" lon="6.28603">
        <ele>171</ele>
        <time>2023-04-28T13:28:49Z</time>
      </trkpt>
      <trkpt lat="43.47704" lon="6.28602">
        <ele>171</ele>
        <time>2023-04-28T13:28:50Z</time>
      </trkpt>
      <trkpt lat="43.47704" lon="6.28601">
        <ele>171</ele>
        <time>2023-04-28T13:28:51Z</time>
      </trkpt>
      <trkpt lat="43.47703" lon="6.28601">
        <ele>170</ele>
        <time>2023-04-28T13:28:52Z</time>
      </trkpt>
      <trkpt lat="43.47703" lon="6.286">
        <ele>170</ele>
        <time>2023-04-28T13:28:53Z</time>
      </trkpt>
      <trkpt lat="43.47702" lon="6.28598">
        <ele>170</ele>
        <time>2023-04-28T13:28:54Z</time>
      </trkpt>
      <trkpt lat="43.47702" lon="6.28597">
        <ele>170</ele>
        <time>2023-04-28T13:28:55Z</time>
      </trkpt>
      <trkpt lat="43.47702" lon="6.28595">
        <ele>170</ele>
        <time>2023-04-28T13:28:56Z</time>
      </trkpt>
      <trkpt lat="43.47702" lon="6.28594">
        <ele>170</ele>
        <time>2023-04-28T13:28:57Z</time>
      </trkpt>
      <trkpt lat="43.47701" lon="6.28593">
        <ele>169</ele>
        <time>2023-04-28T13:28:58Z</time>
      </trkpt>
      <trkpt lat="43.47701" lon="6.28592">
        <ele>169</ele>
        <time>2023-04-28T13:28:59Z</time>
      </trkpt>
      <trkpt lat="43.47701" lon="6.2859">
        <ele>169</ele>
        <time>2023-04-28T13:29:00Z</time>
      </trkpt>
      <trkpt lat="43.47701" lon="6.28589">
        <ele>169</ele>
        <time>2023-04-28T13:29:01Z</time>
      </trkpt>
      <trkpt lat="43.47701" lon="6.28588">
        <ele>169</ele>
        <time>2023-04-28T13:29:02Z</time>
      </trkpt>
      <trkpt lat="43.47701" lon="6.28586">
        <ele>169</ele>
        <time>2023-04-28T13:29:03Z</time>
      </trkpt>
      <trkpt lat="43.477" lon="6.28585">
        <ele>169</ele>
        <time>2023-04-28T13:29:04Z</time>
      </trkpt>
      <trkpt lat="43.477" lon="6.28584">
        <ele>169</ele>
        <time>2023-04-28T13:29:05Z</time>
      </trkpt>
      <trkpt lat="43.477" lon="6.28583">
        <ele>169</ele>
        <time>2023-04-28T13:29:06Z</time>
      </trkpt>
      <trkpt lat="43.477" lon="6.28582">
        <ele>169</ele>
        <time>2023-04-28T13:29:07Z</time>
      </trkpt>
      <trkpt lat="43.47699" lon="6.2858">
        <ele>169</ele>
        <time>2023-04-28T13:29:08Z</time>
      </trkpt>
      <trkpt lat="43.47699" lon="6.28579">
        <ele>169</ele>
        <time>2023-04-28T13:29:09Z</time>
      </trkpt>
      <trkpt lat="43.47698" lon="6.28578">
        <ele>169</ele>
        <time>2023-04-28T13:29:10Z</time>
      </trkpt>
      <trkpt lat="43.47698" lon="6.28577">
        <ele>168</ele>
        <time>2023-04-28T13:29:11Z</time>
      </trkpt>
      <trkpt lat="43.47697" lon="6.28576">
        <ele>168</ele>
        <time>2023-04-28T13:29:12Z</time>
      </trkpt>
      <trkpt lat="43.47697" lon="6.28575">
        <ele>168</ele>
        <time>2023-04-28T13:29:13Z</time>
      </trkpt>
      <trkpt lat="43.47696" lon="6.28574">
        <ele>168</ele>
        <time>2023-04-28T13:29:14Z</time>
      </trkpt>
      <trkpt lat="43.47696" lon="6.28574">
        <ele>168</ele>
        <time>2023-04-28T13:29:15Z</time>
      </trkpt>
      <trkpt lat="43.47695" lon="6.28573">
        <ele>167</ele>
        <time>2023-04-28T13:29:16Z</time>
      </trkpt>
      <trkpt lat="43.47695" lon="6.28572">
        <ele>167</ele>
        <time>2023-04-28T13:29:17Z</time>
      </trkpt>
      <trkpt lat="43.47694" lon="6.28572">
        <ele>167</ele>
        <time>2023-04-28T13:29:18Z</time>
      </trkpt>
      <trkpt lat="43.47694" lon="6.28572">
        <ele>167</ele>
        <time>2023-04-28T13:29:19Z</time>
      </trkpt>
      <trkpt lat="43.47694" lon="6.28572">
        <ele>167</ele>
        <time>2023-04-28T13:29:20Z</time>
      </trkpt>
      <trkpt lat="43.47694" lon="6.28572">
        <ele>167</ele>
        <time>2023-04-28T13:29:21Z</time>
      </trkpt>
      <trkpt lat="43.47694" lon="6.28572">
        <ele>167</ele>
        <time>2023-04-28T13:29:22Z</time>
      </trkpt>
      <trkpt lat="43.47694" lon="6.28572">
        <ele>167</ele>
        <time>2023-04-28T13:29:23Z</time>
      </trkpt>
      <trkpt lat="43.47694" lon="6.28572">
        <ele>167</ele>
        <time>2023-04-28T13:29:24Z</time>
      </trkpt>
      <trkpt lat="43.47694" lon="6.28572">
        <ele>167</ele>
        <time>2023-04-28T13:29:25Z</time>
      </trkpt>
      <trkpt lat="43.47694" lon="6.28572">
        <ele>167</ele>
        <time>2023-04-28T13:29:26Z</time>
      </trkpt>
      <trkpt lat="43.47694" lon="6.28572">
        <ele>167</ele>
        <time>2023-04-28T13:29:27Z</time>
      </trkpt>
      <trkpt lat="43.47694" lon="6.28571">
        <ele>167</ele>
        <time>2023-04-28T13:29:28Z</time>
      </trkpt>
      <trkpt lat="43.47694" lon="6.2857">
        <ele>167</ele>
        <time>2023-04-28T13:29:29Z</time>
      </trkpt>
      <trkpt lat="43.47694" lon="6.28569">
        <ele>167</ele>
        <time>2023-04-28T13:29:30Z</time>
      </trkpt>
      <trkpt lat="43.47693" lon="6.28568">
        <ele>167</ele>
        <time>2023-04-28T13:29:31Z</time>
      </trkpt>
      <trkpt lat="43.47693" lon="6.28567">
        <ele>167</ele>
        <time>2023-04-28T13:29:32Z</time>
      </trkpt>
      <trkpt lat="43.47692" lon="6.28566">
        <ele>167</ele>
        <time>2023-04-28T13:29:33Z</time>
      </trkpt>
      <trkpt lat="43.47692" lon="6.28566">
        <ele>167</ele>
        <time>2023-04-28T13:29:34Z</time>
      </trkpt>
      <trkpt lat="43.47691" lon="6.28565">
        <ele>167</ele>
        <time>2023-04-28T13:29:35Z</time>
      </trkpt>
      <trkpt lat="43.4769" lon="6.28564">
        <ele>167</ele>
        <time>2023-04-28T13:29:36Z</time>
      </trkpt>
      <trkpt lat="43.4769" lon="6.28564">
        <ele>167</ele>
        <time>2023-04-28T13:29:37Z</time>
      </trkpt>
      <trkpt lat="43.4769" lon="6.28563">
        <ele>167</ele>
        <time>2023-04-28T13:29:38Z</time>
      </trkpt>
      <trkpt lat="43.47689" lon="6.28563">
        <ele>168</ele>
        <time>2023-04-28T13:29:39Z</time>
      </trkpt>
      <trkpt lat="43.47689" lon="6.28563">
        <ele>168</ele>
        <time>2023-04-28T13:29:40Z</time>
      </trkpt>
      <trkpt lat="43.47688" lon="6.28562">
        <ele>168</ele>
        <time>2023-04-28T13:29:41Z</time>
      </trkpt>
      <trkpt lat="43.47688" lon="6.28562">
        <ele>168</ele>
        <time>2023-04-28T13:29:42Z</time>
      </trkpt>
      <trkpt lat="43.47688" lon="6.28562">
        <ele>168</ele>
        <time>2023-04-28T13:29:43Z</time>
      </trkpt>
      <trkpt lat="43.47688" lon="6.28562">
        <ele>168</ele>
        <time>2023-04-28T13:29:44Z</time>
      </trkpt>
      <trkpt lat="43.47688" lon="6.28562">
        <ele>168</ele>
        <time>2023-04-28T13:29:45Z</time>
      </trkpt>
      <trkpt lat="43.47688" lon="6.28562">
        <ele>168</ele>
        <time>2023-04-28T13:29:46Z</time>
      </trkpt>
      <trkpt lat="43.47688" lon="6.28562">
        <ele>168</ele>
        <time>2023-04-28T13:29:47Z</time>
      </trkpt>
      <trkpt lat="43.47688" lon="6.28562">
        <ele>168</ele>
        <time>2023-04-28T13:29:48Z</time>
      </trkpt>
      <trkpt lat="43.47688" lon="6.28562">
        <ele>168</ele>
        <time>2023-04-28T13:29:49Z</time>
      </trkpt>
      <trkpt lat="43.47688" lon="6.28562">
        <ele>168</ele>
        <time>2023-04-28T13:29:50Z</time>
      </trkpt>
      <trkpt lat="43.47688" lon="6.28562">
        <ele>168</ele>
        <time>2023-04-28T13:29:51Z</time>
      </trkpt>
      <trkpt lat="43.47689" lon="6.28562">
        <ele>168</ele>
        <time>2023-04-28T13:29:52Z</time>
      </trkpt>
      <trkpt lat="43.47689" lon="6.28562">
        <ele>168</ele>
        <time>2023-04-28T13:29:53Z</time>
      </trkpt>
      <trkpt lat="43.47689" lon="6.28562">
        <ele>168</ele>
        <time>2023-04-28T13:29:54Z</time>
      </trkpt>
      <trkpt lat="43.47689" lon="6.28562">
        <ele>168</ele>
        <time>2023-04-28T13:29:55Z</time>
      </trkpt>
      <trkpt lat="43.47689" lon="6.28562">
        <ele>168</ele>
        <time>2023-04-28T13:29:56Z</time>
      </trkpt>
      <trkpt lat="43.47689" lon="6.28562">
        <ele>168</ele>
        <time>2023-04-28T13:29:57Z</time>
      </trkpt>
      <trkpt lat="43.47689" lon="6.28562">
        <ele>168</ele>
        <time>2023-04-28T13:29:58Z</time>
      </trkpt>
      <trkpt lat="43.47689" lon="6.28562">
        <ele>168</ele>
        <time>2023-04-28T13:29:59Z</time>
      </trkpt>
      <trkpt lat="43.47689" lon="6.28562">
        <ele>168</ele>
        <time>2023-04-28T13:30:00Z</time>
      </trkpt>
      <trkpt lat="43.47689" lon="6.28562">
        <ele>168</ele>
        <time>2023-04-28T13:30:01Z</time>
      </trkpt>
      <trkpt lat="43.4769" lon="6.28562">
        <ele>168</ele>
        <time>2023-04-28T13:30:02Z</time>
      </trkpt>
      <trkpt lat="43.4769" lon="6.28562">
        <ele>168</ele>
        <time>2023-04-28T13:30:03Z</time>
      </trkpt>
      <trkpt lat="43.4769" lon="6.28562">
        <ele>168</ele>
        <time>2023-04-28T13:30:04Z</time>
      </trkpt>
      <trkpt lat="43.4769" lon="6.28562">
        <ele>168</ele>
        <time>2023-04-28T13:30:05Z</time>
      </trkpt>
      <trkpt lat="43.4769" lon="6.28562">
        <ele>168</ele>
        <time>2023-04-28T13:30:06Z</time>
      </trkpt>
      <trkpt lat="43.4769" lon="6.28562">
        <ele>168</ele>
        <time>2023-04-28T13:30:07Z</time>
      </trkpt>
      <trkpt lat="43.4769" lon="6.28562">
        <ele>168</ele>
        <time>2023-04-28T13:30:08Z</time>
      </trkpt>
      <trkpt lat="43.4769" lon="6.28562">
        <ele>168</ele>
        <time>2023-04-28T13:30:09Z</time>
      </trkpt>
      <trkpt lat="43.4769" lon="6.28562">
        <ele>168</ele>
        <time>2023-04-28T13:30:10Z</time>
      </trkpt>
      <trkpt lat="43.4769" lon="6.28562">
        <ele>168</ele>
        <time>2023-04-28T13:30:11Z</time>
      </trkpt>
      <trkpt lat="43.4769" lon="6.28562">
        <ele>168</ele>
        <time>2023-04-28T13:30:12Z</time>
      </trkpt>
      <trkpt lat="43.4769" lon="6.28562">
        <ele>168</ele>
        <time>2023-04-28T13:30:13Z</time>
      </trkpt>
      <trkpt lat="43.4769" lon="6.28562">
        <ele>168</ele>
        <time>2023-04-28T13:30:14Z</time>
      </trkpt>
      <trkpt lat="43.47691" lon="6.28562">
        <ele>168</ele>
        <time>2023-04-28T13:30:15Z</time>
      </trkpt>
      <trkpt lat="43.47692" lon="6.28562">
        <ele>168</ele>
        <time>2023-04-28T13:30:16Z</time>
      </trkpt>
      <trkpt lat="43.47692" lon="6.28562">
        <ele>168</ele>
        <time>2023-04-28T13:30:17Z</time>
      </trkpt>
      <trkpt lat="43.47692" lon="6.28562">
        <ele>168</ele>
        <time>2023-04-28T13:30:18Z</time>
      </trkpt>
      <trkpt lat="43.47692" lon="6.28561">
        <ele>168</ele>
        <time>2023-04-28T13:30:19Z</time>
      </trkpt>
      <trkpt lat="43.47692" lon="6.2856">
        <ele>168</ele>
        <time>2023-04-28T13:30:20Z</time>
      </trkpt>
      <trkpt lat="43.47692" lon="6.2856">
        <ele>168</ele>
        <time>2023-04-28T13:30:21Z</time>
      </trkpt>
      <trkpt lat="43.47692" lon="6.2856">
        <ele>168</ele>
        <time>2023-04-28T13:30:22Z</time>
      </trkpt>
      <trkpt lat="43.47692" lon="6.2856">
        <ele>168</ele>
        <time>2023-04-28T13:30:23Z</time>
      </trkpt>
      <trkpt lat="43.47692" lon="6.2856">
        <ele>168</ele>
        <time>2023-04-28T13:30:24Z</time>
      </trkpt>
      <trkpt lat="43.47692" lon="6.2856">
        <ele>168</ele>
        <time>2023-04-28T13:30:25Z</time>
      </trkpt>
      <trkpt lat="43.47692" lon="6.2856">
        <ele>168</ele>
        <time>2023-04-28T13:30:26Z</time>
      </trkpt>
      <trkpt lat="43.47692" lon="6.2856">
        <ele>168</ele>
        <time>2023-04-28T13:30:27Z</time>
      </trkpt>
      <trkpt lat="43.47692" lon="6.2856">
        <ele>168</ele>
        <time>2023-04-28T13:30:28Z</time>
      </trkpt>
      <trkpt lat="43.47692" lon="6.2856">
        <ele>168</ele>
        <time>2023-04-28T13:30:29Z</time>
      </trkpt>
      <trkpt lat="43.47692" lon="6.2856">
        <ele>168</ele>
        <time>2023-04-28T13:30:30Z</time>
      </trkpt>
      <trkpt lat="43.47692" lon="6.2856">
        <ele>168</ele>
        <time>2023-04-28T13:30:31Z</time>
      </trkpt>
      <trkpt lat="43.47692" lon="6.2856">
        <ele>168</ele>
        <time>2023-04-28T13:30:32Z</time>
      </trkpt>
      <trkpt lat="43.47692" lon="6.2856">
        <ele>168</ele>
        <time>2023-04-28T13:30:33Z</time>
      </trkpt>
      <trkpt lat="43.47692" lon="6.2856">
        <ele>168</ele>
        <time>2023-04-28T13:30:34Z</time>
      </trkpt>
      <trkpt lat="43.47692" lon="6.2856">
        <ele>168</ele>
        <time>2023-04-28T13:30:35Z</time>
      </trkpt>
      <trkpt lat="43.47692" lon="6.2856">
        <ele>168</ele>
        <time>2023-04-28T13:30:36Z</time>
      </trkpt>
      <trkpt lat="43.47692" lon="6.2856">
        <ele>168</ele>
        <time>2023-04-28T13:30:37Z</time>
      </trkpt>
      <trkpt lat="43.47692" lon="6.2856">
        <ele>168</ele>
        <time>2023-04-28T13:30:38Z</time>
      </trkpt>
      <trkpt lat="43.47692" lon="6.2856">
        <ele>168</ele>
        <time>2023-04-28T13:30:39Z</time>
      </trkpt>
      <trkpt lat="43.47692" lon="6.2856">
        <ele>168</ele>
        <time>2023-04-28T13:30:40Z</time>
      </trkpt>
      <trkpt lat="43.47692" lon="6.2856">
        <ele>168</ele>
        <time>2023-04-28T13:30:41Z</time>
      </trkpt>
      <trkpt lat="43.47692" lon="6.2856">
        <ele>168</ele>
        <time>2023-04-28T13:30:42Z</time>
      </trkpt>
      <trkpt lat="43.47692" lon="6.2856">
        <ele>168</ele>
        <time>2023-04-28T13:30:43Z</time>
      </trkpt>
      <trkpt lat="43.47692" lon="6.2856">
        <ele>168</ele>
        <time>2023-04-28T13:30:44Z</time>
      </trkpt>
      <trkpt lat="43.47692" lon="6.2856">
        <ele>168</ele>
        <time>2023-04-28T13:30:45Z</time>
      </trkpt>
      <trkpt lat="43.47692" lon="6.2856">
        <ele>168</ele>
        <time>2023-04-28T13:30:46Z</time>
      </trkpt>
      <trkpt lat="43.47692" lon="6.2856">
        <ele>168</ele>
        <time>2023-04-28T13:30:47Z</time>
      </trkpt>
      <trkpt lat="43.47691" lon="6.28557">
        <ele>168</ele>
        <time>2023-04-28T13:30:48Z</time>
      </trkpt>
      <trkpt lat="43.47691" lon="6.28557">
        <ele>168</ele>
        <time>2023-04-28T13:30:49Z</time>
      </trkpt>
      <trkpt lat="43.47691" lon="6.28556">
        <ele>168</ele>
        <time>2023-04-28T13:30:50Z</time>
      </trkpt>
      <trkpt lat="43.47691" lon="6.28556">
        <ele>168</ele>
        <time>2023-04-28T13:30:51Z</time>
      </trkpt>
      <trkpt lat="43.47691" lon="6.28556">
        <ele>168</ele>
        <time>2023-04-28T13:30:52Z</time>
      </trkpt>
      <trkpt lat="43.47691" lon="6.28556">
        <ele>168</ele>
        <time>2023-04-28T13:30:53Z</time>
      </trkpt>
      <trkpt lat="43.4769" lon="6.28556">
        <ele>168</ele>
        <time>2023-04-28T13:30:54Z</time>
      </trkpt>
      <trkpt lat="43.4769" lon="6.28556">
        <ele>168</ele>
        <time>2023-04-28T13:30:55Z</time>
      </trkpt>
      <trkpt lat="43.4769" lon="6.28556">
        <ele>168</ele>
        <time>2023-04-28T13:30:56Z</time>
      </trkpt>
      <trkpt lat="43.4769" lon="6.28556">
        <ele>168</ele>
        <time>2023-04-28T13:30:57Z</time>
      </trkpt>
      <trkpt lat="43.4769" lon="6.28555">
        <ele>168</ele>
        <time>2023-04-28T13:30:58Z</time>
      </trkpt>
      <trkpt lat="43.47689" lon="6.28555">
        <ele>168</ele>
        <time>2023-04-28T13:30:59Z</time>
      </trkpt>
      <trkpt lat="43.47689" lon="6.28555">
        <ele>168</ele>
        <time>2023-04-28T13:31:00Z</time>
      </trkpt>
      <trkpt lat="43.47689" lon="6.28555">
        <ele>168</ele>
        <time>2023-04-28T13:31:01Z</time>
      </trkpt>
      <trkpt lat="43.47689" lon="6.28554">
        <ele>168</ele>
        <time>2023-04-28T13:31:02Z</time>
      </trkpt>
      <trkpt lat="43.47689" lon="6.28554">
        <ele>168</ele>
        <time>2023-04-28T13:31:03Z</time>
      </trkpt>
      <trkpt lat="43.47689" lon="6.28554">
        <ele>168</ele>
        <time>2023-04-28T13:31:04Z</time>
      </trkpt>
      <trkpt lat="43.47688" lon="6.28554">
        <ele>168</ele>
        <time>2023-04-28T13:31:05Z</time>
      </trkpt>
      <trkpt lat="43.47688" lon="6.28554">
        <ele>168</ele>
        <time>2023-04-28T13:31:06Z</time>
      </trkpt>
      <trkpt lat="43.47688" lon="6.28554">
        <ele>168</ele>
        <time>2023-04-28T13:31:07Z</time>
      </trkpt>
      <trkpt lat="43.47688" lon="6.28554">
        <ele>168</ele>
        <time>2023-04-28T13:31:08Z</time>
      </trkpt>
      <trkpt lat="43.47688" lon="6.28554">
        <ele>168</ele>
        <time>2023-04-28T13:31:09Z</time>
      </trkpt>
      <trkpt lat="43.47688" lon="6.28554">
        <ele>168</ele>
        <time>2023-04-28T13:31:10Z</time>
      </trkpt>
      <trkpt lat="43.47688" lon="6.28554">
        <ele>168</ele>
        <time>2023-04-28T13:31:11Z</time>
      </trkpt>
      <trkpt lat="43.47688" lon="6.28554">
        <ele>168</ele>
        <time>2023-04-28T13:31:12Z</time>
      </trkpt>
      <trkpt lat="43.47688" lon="6.28554">
        <ele>168</ele>
        <time>2023-04-28T13:31:13Z</time>
      </trkpt>
      <trkpt lat="43.47688" lon="6.28554">
        <ele>168</ele>
        <time>2023-04-28T13:31:14Z</time>
      </trkpt>
      <trkpt lat="43.47688" lon="6.28554">
        <ele>168</ele>
        <time>2023-04-28T13:31:15Z</time>
      </trkpt>
      <trkpt lat="43.47688" lon="6.28554">
        <ele>168</ele>
        <time>2023-04-28T13:31:16Z</time>
      </trkpt>
      <trkpt lat="43.47688" lon="6.28554">
        <ele>168</ele>
        <time>2023-04-28T13:31:17Z</time>
      </trkpt>
      <trkpt lat="43.47688" lon="6.28554">
        <ele>168</ele>
        <time>2023-04-28T13:31:18Z</time>
      </trkpt>
      <trkpt lat="43.47688" lon="6.28553">
        <ele>168</ele>
        <time>2023-04-28T13:31:19Z</time>
      </trkpt>
      <trkpt lat="43.47688" lon="6.28553">
        <ele>168</ele>
        <time>2023-04-28T13:31:20Z</time>
      </trkpt>
      <trkpt lat="43.47688" lon="6.28553">
        <ele>168</ele>
        <time>2023-04-28T13:31:21Z</time>
      </trkpt>
      <trkpt lat="43.47688" lon="6.28553">
        <ele>168</ele>
        <time>2023-04-28T13:31:22Z</time>
      </trkpt>
      <trkpt lat="43.47688" lon="6.28553">
        <ele>168</ele>
        <time>2023-04-28T13:31:23Z</time>
      </trkpt>
      <trkpt lat="43.47688" lon="6.28553">
        <ele>168</ele>
        <time>2023-04-28T13:31:24Z</time>
      </trkpt>
      <trkpt lat="43.47688" lon="6.28553">
        <ele>168</ele>
        <time>2023-04-28T13:31:25Z</time>
      </trkpt>
      <trkpt lat="43.47688" lon="6.28553">
        <ele>168</ele>
        <time>2023-04-28T13:31:26Z</time>
      </trkpt>
      <trkpt lat="43.47688" lon="6.28553">
        <ele>168</ele>
        <time>2023-04-28T13:31:27Z</time>
      </trkpt>
      <trkpt lat="43.47688" lon="6.28553">
        <ele>168</ele>
        <time>2023-04-28T13:31:28Z</time>
      </trkpt>
      <trkpt lat="43.47688" lon="6.28553">
        <ele>168</ele>
        <time>2023-04-28T13:31:29Z</time>
      </trkpt>
      <trkpt lat="43.47688" lon="6.28553">
        <ele>168</ele>
        <time>2023-04-28T13:31:30Z</time>
      </trkpt>
      <trkpt lat="43.47688" lon="6.28553">
        <ele>168</ele>
        <time>2023-04-28T13:31:31Z</time>
      </trkpt>
      <trkpt lat="43.47688" lon="6.28553">
        <ele>168</ele>
        <time>2023-04-28T13:31:32Z</time>
      </trkpt>
      <trkpt lat="43.47688" lon="6.28553">
        <ele>168</ele>
        <time>2023-04-28T13:31:33Z</time>
      </trkpt>
      <trkpt lat="43.47688" lon="6.28553">
        <ele>168</ele>
        <time>2023-04-28T13:31:34Z</time>
      </trkpt>
      <trkpt lat="43.47688" lon="6.28553">
        <ele>168</ele>
        <time>2023-04-28T13:31:35Z</time>
      </trkpt>
      <trkpt lat="43.47688" lon="6.28553">
        <ele>168</ele>
        <time>2023-04-28T13:31:36Z</time>
      </trkpt>
      <trkpt lat="43.47687" lon="6.28552">
        <ele>168</ele>
        <time>2023-04-28T13:31:37Z</time>
      </trkpt>
      <trkpt lat="43.47687" lon="6.28551">
        <ele>168</ele>
        <time>2023-04-28T13:31:38Z</time>
      </trkpt>
      <trkpt lat="43.47685" lon="6.28548">
        <ele>168</ele>
        <time>2023-04-28T13:31:39Z</time>
      </trkpt>
      <trkpt lat="43.47684" lon="6.28547">
        <ele>168</ele>
        <time>2023-04-28T13:31:40Z</time>
      </trkpt>
      <trkpt lat="43.47684" lon="6.28545">
        <ele>168</ele>
        <time>2023-04-28T13:31:41Z</time>
      </trkpt>
      <trkpt lat="43.47683" lon="6.28544">
        <ele>168</ele>
        <time>2023-04-28T13:31:42Z</time>
      </trkpt>
      <trkpt lat="43.47682" lon="6.28543">
        <ele>168</ele>
        <time>2023-04-28T13:31:43Z</time>
      </trkpt>
      <trkpt lat="43.47681" lon="6.28541">
        <ele>168</ele>
        <time>2023-04-28T13:31:44Z</time>
      </trkpt>
      <trkpt lat="43.47681" lon="6.2854">
        <ele>168</ele>
        <time>2023-04-28T13:31:45Z</time>
      </trkpt>
      <trkpt lat="43.4768" lon="6.28538">
        <ele>168</ele>
        <time>2023-04-28T13:31:46Z</time>
      </trkpt>
      <trkpt lat="43.4768" lon="6.28537">
        <ele>168</ele>
        <time>2023-04-28T13:31:47Z</time>
      </trkpt>
      <trkpt lat="43.4768" lon="6.28537">
        <ele>168</ele>
        <time>2023-04-28T13:31:48Z</time>
      </trkpt>
      <trkpt lat="43.47679" lon="6.28536">
        <ele>168</ele>
        <time>2023-04-28T13:31:49Z</time>
      </trkpt>
      <trkpt lat="43.47679" lon="6.28536">
        <ele>168</ele>
        <time>2023-04-28T13:31:50Z</time>
      </trkpt>
      <trkpt lat="43.47679" lon="6.28535">
        <ele>168</ele>
        <time>2023-04-28T13:31:51Z</time>
      </trkpt>
      <trkpt lat="43.47679" lon="6.28535">
        <ele>168</ele>
        <time>2023-04-28T13:31:52Z</time>
      </trkpt>
      <trkpt lat="43.47678" lon="6.28534">
        <ele>168</ele>
        <time>2023-04-28T13:31:53Z</time>
      </trkpt>
      <trkpt lat="43.47678" lon="6.28534">
        <ele>168</ele>
        <time>2023-04-28T13:31:54Z</time>
      </trkpt>
      <trkpt lat="43.47678" lon="6.28534">
        <ele>168</ele>
        <time>2023-04-28T13:31:55Z</time>
      </trkpt>
      <trkpt lat="43.47678" lon="6.28533">
        <ele>168</ele>
        <time>2023-04-28T13:31:56Z</time>
      </trkpt>
      <trkpt lat="43.47678" lon="6.28533">
        <ele>168</ele>
        <time>2023-04-28T13:31:57Z</time>
      </trkpt>
      <trkpt lat="43.47678" lon="6.28533">
        <ele>168</ele>
        <time>2023-04-28T13:31:58Z</time>
      </trkpt>
      <trkpt lat="43.47678" lon="6.28533">
        <ele>168</ele>
        <time>2023-04-28T13:31:59Z</time>
      </trkpt>
      <trkpt lat="43.47678" lon="6.28532">
        <ele>168</ele>
        <time>2023-04-28T13:32:00Z</time>
      </trkpt>
      <trkpt lat="43.47678" lon="6.28532">
        <ele>168</ele>
        <time>2023-04-28T13:32:01Z</time>
      </trkpt>
      <trkpt lat="43.47678" lon="6.28532">
        <ele>168</ele>
        <time>2023-04-28T13:32:02Z</time>
      </trkpt>
      <trkpt lat="43.47678" lon="6.28532">
        <ele>168</ele>
        <time>2023-04-28T13:32:03Z</time>
      </trkpt>
      <trkpt lat="43.47678" lon="6.28532">
        <ele>168</ele>
        <time>2023-04-28T13:32:04Z</time>
      </trkpt>
      <trkpt lat="43.47677" lon="6.28532">
        <ele>168</ele>
        <time>2023-04-28T13:32:05Z</time>
      </trkpt>
      <trkpt lat="43.47677" lon="6.28532">
        <ele>168</ele>
        <time>2023-04-28T13:32:06Z</time>
      </trkpt>
      <trkpt lat="43.47677" lon="6.28532">
        <ele>168</ele>
        <time>2023-04-28T13:32:07Z</time>
      </trkpt>
      <trkpt lat="43.47677" lon="6.28532">
        <ele>168</ele>
        <time>2023-04-28T13:32:08Z</time>
      </trkpt>
      <trkpt lat="43.47677" lon="6.28532">
        <ele>168</ele>
        <time>2023-04-28T13:32:09Z</time>
      </trkpt>
      <trkpt lat="43.47677" lon="6.28532">
        <ele>168</ele>
        <time>2023-04-28T13:32:10Z</time>
      </trkpt>
      <trkpt lat="43.47677" lon="6.28532">
        <ele>168</ele>
        <time>2023-04-28T13:32:11Z</time>
      </trkpt>
      <trkpt lat="43.47677" lon="6.28531">
        <ele>168</ele>
        <time>2023-04-28T13:32:12Z</time>
      </trkpt>
      <trkpt lat="43.47677" lon="6.2853">
        <ele>168</ele>
        <time>2023-04-28T13:32:13Z</time>
      </trkpt>
      <trkpt lat="43.47676" lon="6.28529">
        <ele>168</ele>
        <time>2023-04-28T13:32:14Z</time>
      </trkpt>
      <trkpt lat="43.47676" lon="6.28528">
        <ele>168</ele>
        <time>2023-04-28T13:32:15Z</time>
      </trkpt>
      <trkpt lat="43.47676" lon="6.28527">
        <ele>167</ele>
        <time>2023-04-28T13:32:16Z</time>
      </trkpt>
      <trkpt lat="43.47675" lon="6.28527">
        <ele>167</ele>
        <time>2023-04-28T13:32:17Z</time>
      </trkpt>
      <trkpt lat="43.47675" lon="6.28526">
        <ele>167</ele>
        <time>2023-04-28T13:32:18Z</time>
      </trkpt>
      <trkpt lat="43.47675" lon="6.28526">
        <ele>167</ele>
        <time>2023-04-28T13:32:19Z</time>
      </trkpt>
      <trkpt lat="43.47675" lon="6.28526">
        <ele>167</ele>
        <time>2023-04-28T13:32:20Z</time>
      </trkpt>
      <trkpt lat="43.47675" lon="6.28525">
        <ele>167</ele>
        <time>2023-04-28T13:32:21Z</time>
      </trkpt>
      <trkpt lat="43.47675" lon="6.28523">
        <ele>167</ele>
        <time>2023-04-28T13:32:22Z</time>
      </trkpt>
      <trkpt lat="43.47674" lon="6.2852">
        <ele>167</ele>
        <time>2023-04-28T13:32:23Z</time>
      </trkpt>
      <trkpt lat="43.47673" lon="6.28518">
        <ele>167</ele>
        <time>2023-04-28T13:32:24Z</time>
      </trkpt>
      <trkpt lat="43.47673" lon="6.28516">
        <ele>167</ele>
        <time>2023-04-28T13:32:25Z</time>
      </trkpt>
      <trkpt lat="43.47673" lon="6.28514">
        <ele>167</ele>
        <time>2023-04-28T13:32:26Z</time>
      </trkpt>
      <trkpt lat="43.47672" lon="6.28512">
        <ele>167</ele>
        <time>2023-04-28T13:32:27Z</time>
      </trkpt>
      <trkpt lat="43.47672" lon="6.2851">
        <ele>167</ele>
        <time>2023-04-28T13:32:28Z</time>
      </trkpt>
      <trkpt lat="43.47671" lon="6.28507">
        <ele>167</ele>
        <time>2023-04-28T13:32:29Z</time>
      </trkpt>
      <trkpt lat="43.47671" lon="6.28505">
        <ele>167</ele>
        <time>2023-04-28T13:32:30Z</time>
      </trkpt>
      <trkpt lat="43.47671" lon="6.28502">
        <ele>167</ele>
        <time>2023-04-28T13:32:31Z</time>
      </trkpt>
      <trkpt lat="43.47671" lon="6.285">
        <ele>167</ele>
        <time>2023-04-28T13:32:32Z</time>
      </trkpt>
      <trkpt lat="43.47671" lon="6.28499">
        <ele>167</ele>
        <time>2023-04-28T13:32:33Z</time>
      </trkpt>
      <trkpt lat="43.47671" lon="6.28498">
        <ele>167</ele>
        <time>2023-04-28T13:32:34Z</time>
      </trkpt>
      <trkpt lat="43.47671" lon="6.28497">
        <ele>167</ele>
        <time>2023-04-28T13:32:35Z</time>
      </trkpt>
      <trkpt lat="43.47671" lon="6.28496">
        <ele>167</ele>
        <time>2023-04-28T13:32:36Z</time>
      </trkpt>
      <trkpt lat="43.47671" lon="6.28495">
        <ele>167</ele>
        <time>2023-04-28T13:32:37Z</time>
      </trkpt>
      <trkpt lat="43.47671" lon="6.28495">
        <ele>167</ele>
        <time>2023-04-28T13:32:38Z</time>
      </trkpt>
      <trkpt lat="43.47671" lon="6.28494">
        <ele>167</ele>
        <time>2023-04-28T13:32:39Z</time>
      </trkpt>
      <trkpt lat="43.4767" lon="6.28494">
        <ele>167</ele>
        <time>2023-04-28T13:32:40Z</time>
      </trkpt>
      <trkpt lat="43.4767" lon="6.28493">
        <ele>167</ele>
        <time>2023-04-28T13:32:41Z</time>
      </trkpt>
      <trkpt lat="43.4767" lon="6.28493">
        <ele>167</ele>
        <time>2023-04-28T13:32:42Z</time>
      </trkpt>
      <trkpt lat="43.4767" lon="6.28493">
        <ele>167</ele>
        <time>2023-04-28T13:32:43Z</time>
      </trkpt>
      <trkpt lat="43.4767" lon="6.28492">
        <ele>167</ele>
        <time>2023-04-28T13:32:44Z</time>
      </trkpt>
      <trkpt lat="43.4767" lon="6.28492">
        <ele>167</ele>
        <time>2023-04-28T13:32:45Z</time>
      </trkpt>
      <trkpt lat="43.4767" lon="6.28492">
        <ele>167</ele>
        <time>2023-04-28T13:32:46Z</time>
      </trkpt>
      <trkpt lat="43.4767" lon="6.28492">
        <ele>167</ele>
        <time>2023-04-28T13:32:47Z</time>
      </trkpt>
      <trkpt lat="43.4767" lon="6.28491">
        <ele>167</ele>
        <time>2023-04-28T13:32:48Z</time>
      </trkpt>
      <trkpt lat="43.4767" lon="6.28491">
        <ele>167</ele>
        <time>2023-04-28T13:32:49Z</time>
      </trkpt>
      <trkpt lat="43.4767" lon="6.28491">
        <ele>167</ele>
        <time>2023-04-28T13:32:50Z</time>
      </trkpt>
      <trkpt lat="43.4767" lon="6.28491">
        <ele>167</ele>
        <time>2023-04-28T13:32:51Z</time>
      </trkpt>
      <trkpt lat="43.4767" lon="6.28491">
        <ele>167</ele>
        <time>2023-04-28T13:32:52Z</time>
      </trkpt>
      <trkpt lat="43.4767" lon="6.28488">
        <ele>167</ele>
        <time>2023-04-28T13:32:53Z</time>
      </trkpt>
      <trkpt lat="43.47669" lon="6.28486">
        <ele>167</ele>
        <time>2023-04-28T13:32:54Z</time>
      </trkpt>
      <trkpt lat="43.47669" lon="6.28484">
        <ele>167</ele>
        <time>2023-04-28T13:32:55Z</time>
      </trkpt>
      <trkpt lat="43.47669" lon="6.28483">
        <ele>167</ele>
        <time>2023-04-28T13:32:56Z</time>
      </trkpt>
      <trkpt lat="43.47669" lon="6.28483">
        <ele>167</ele>
        <time>2023-04-28T13:32:57Z</time>
      </trkpt>
      <trkpt lat="43.47669" lon="6.28483">
        <ele>167</ele>
        <time>2023-04-28T13:32:58Z</time>
      </trkpt>
      <trkpt lat="43.47669" lon="6.28482">
        <ele>167</ele>
        <time>2023-04-28T13:32:59Z</time>
      </trkpt>
      <trkpt lat="43.47669" lon="6.28482">
        <ele>167</ele>
        <time>2023-04-28T13:33:00Z</time>
      </trkpt>
      <trkpt lat="43.47669" lon="6.28482">
        <ele>167</ele>
        <time>2023-04-28T13:33:01Z</time>
      </trkpt>
      <trkpt lat="43.47669" lon="6.28481">
        <ele>167</ele>
        <time>2023-04-28T13:33:02Z</time>
      </trkpt>
      <trkpt lat="43.47669" lon="6.28481">
        <ele>167</ele>
        <time>2023-04-28T13:33:03Z</time>
      </trkpt>
      <trkpt lat="43.47669" lon="6.28481">
        <ele>167</ele>
        <time>2023-04-28T13:33:04Z</time>
      </trkpt>
      <trkpt lat="43.47669" lon="6.28481">
        <ele>167</ele>
        <time>2023-04-28T13:33:05Z</time>
      </trkpt>
      <trkpt lat="43.47669" lon="6.2848">
        <ele>167</ele>
        <time>2023-04-28T13:33:06Z</time>
      </trkpt>
      <trkpt lat="43.47669" lon="6.28479">
        <ele>167</ele>
        <time>2023-04-28T13:33:07Z</time>
      </trkpt>
      <trkpt lat="43.47669" lon="6.28478">
        <ele>167</ele>
        <time>2023-04-28T13:33:08Z</time>
      </trkpt>
      <trkpt lat="43.47669" lon="6.28477">
        <ele>167</ele>
        <time>2023-04-28T13:33:09Z</time>
      </trkpt>
      <trkpt lat="43.47669" lon="6.28476">
        <ele>166</ele>
        <time>2023-04-28T13:33:10Z</time>
      </trkpt>
      <trkpt lat="43.47669" lon="6.28475">
        <ele>166</ele>
        <time>2023-04-28T13:33:11Z</time>
      </trkpt>
      <trkpt lat="43.47669" lon="6.28474">
        <ele>166</ele>
        <time>2023-04-28T13:33:12Z</time>
      </trkpt>
      <trkpt lat="43.47669" lon="6.28473">
        <ele>166</ele>
        <time>2023-04-28T13:33:13Z</time>
      </trkpt>
      <trkpt lat="43.47669" lon="6.28471">
        <ele>166</ele>
        <time>2023-04-28T13:33:14Z</time>
      </trkpt>
      <trkpt lat="43.47669" lon="6.2847">
        <ele>166</ele>
        <time>2023-04-28T13:33:15Z</time>
      </trkpt>
      <trkpt lat="43.47669" lon="6.28468">
        <ele>167</ele>
        <time>2023-04-28T13:33:16Z</time>
      </trkpt>
      <trkpt lat="43.47669" lon="6.28466">
        <ele>166</ele>
        <time>2023-04-28T13:33:17Z</time>
      </trkpt>
      <trkpt lat="43.47669" lon="6.28465">
        <ele>166</ele>
        <time>2023-04-28T13:33:18Z</time>
      </trkpt>
      <trkpt lat="43.47669" lon="6.28464">
        <ele>166</ele>
        <time>2023-04-28T13:33:19Z</time>
      </trkpt>
      <trkpt lat="43.47669" lon="6.28463">
        <ele>166</ele>
        <time>2023-04-28T13:33:20Z</time>
      </trkpt>
      <trkpt lat="43.47669" lon="6.28463">
        <ele>166</ele>
        <time>2023-04-28T13:33:21Z</time>
      </trkpt>
      <trkpt lat="43.47669" lon="6.28463">
        <ele>166</ele>
        <time>2023-04-28T13:33:22Z</time>
      </trkpt>
      <trkpt lat="43.47669" lon="6.28463">
        <ele>166</ele>
        <time>2023-04-28T13:33:23Z</time>
      </trkpt>
      <trkpt lat="43.47669" lon="6.28462">
        <ele>166</ele>
        <time>2023-04-28T13:33:24Z</time>
      </trkpt>
      <trkpt lat="43.47669" lon="6.28462">
        <ele>166</ele>
        <time>2023-04-28T13:33:25Z</time>
      </trkpt>
      <trkpt lat="43.47669" lon="6.28462">
        <ele>166</ele>
        <time>2023-04-28T13:33:26Z</time>
      </trkpt>
      <trkpt lat="43.47669" lon="6.28462">
        <ele>166</ele>
        <time>2023-04-28T13:33:27Z</time>
      </trkpt>
      <trkpt lat="43.4767" lon="6.28461">
        <ele>166</ele>
        <time>2023-04-28T13:33:28Z</time>
      </trkpt>
      <trkpt lat="43.4767" lon="6.2846">
        <ele>166</ele>
        <time>2023-04-28T13:33:29Z</time>
      </trkpt>
      <trkpt lat="43.4767" lon="6.28459">
        <ele>166</ele>
        <time>2023-04-28T13:33:30Z</time>
      </trkpt>
      <trkpt lat="43.4767" lon="6.28459">
        <ele>166</ele>
        <time>2023-04-28T13:33:31Z</time>
      </trkpt>
      <trkpt lat="43.4767" lon="6.28459">
        <ele>166</ele>
        <time>2023-04-28T13:33:32Z</time>
      </trkpt>
      <trkpt lat="43.4767" lon="6.28458">
        <ele>166</ele>
        <time>2023-04-28T13:33:33Z</time>
      </trkpt>
      <trkpt lat="43.4767" lon="6.28458">
        <ele>166</ele>
        <time>2023-04-28T13:33:34Z</time>
      </trkpt>
      <trkpt lat="43.4767" lon="6.28457">
        <ele>166</ele>
        <time>2023-04-28T13:33:35Z</time>
      </trkpt>
      <trkpt lat="43.4767" lon="6.28456">
        <ele>166</ele>
        <time>2023-04-28T13:33:36Z</time>
      </trkpt>
      <trkpt lat="43.47671" lon="6.28454">
        <ele>166</ele>
        <time>2023-04-28T13:33:37Z</time>
      </trkpt>
      <trkpt lat="43.47671" lon="6.28453">
        <ele>166</ele>
        <time>2023-04-28T13:33:38Z</time>
      </trkpt>
      <trkpt lat="43.47671" lon="6.28452">
        <ele>166</ele>
        <time>2023-04-28T13:33:39Z</time>
      </trkpt>
      <trkpt lat="43.47671" lon="6.28452">
        <ele>166</ele>
        <time>2023-04-28T13:33:40Z</time>
      </trkpt>
      <trkpt lat="43.47671" lon="6.28451">
        <ele>166</ele>
        <time>2023-04-28T13:33:41Z</time>
      </trkpt>
      <trkpt lat="43.47671" lon="6.2845">
        <ele>166</ele>
        <time>2023-04-28T13:33:42Z</time>
      </trkpt>
      <trkpt lat="43.47671" lon="6.28449">
        <ele>166</ele>
        <time>2023-04-28T13:33:43Z</time>
      </trkpt>
      <trkpt lat="43.47671" lon="6.28447">
        <ele>166</ele>
        <time>2023-04-28T13:33:44Z</time>
      </trkpt>
      <trkpt lat="43.47671" lon="6.28446">
        <ele>166</ele>
        <time>2023-04-28T13:33:45Z</time>
      </trkpt>
      <trkpt lat="43.47671" lon="6.28444">
        <ele>166</ele>
        <time>2023-04-28T13:33:46Z</time>
      </trkpt>
      <trkpt lat="43.47671" lon="6.28442">
        <ele>166</ele>
        <time>2023-04-28T13:33:47Z</time>
      </trkpt>
      <trkpt lat="43.47671" lon="6.28441">
        <ele>166</ele>
        <time>2023-04-28T13:33:48Z</time>
      </trkpt>
      <trkpt lat="43.47671" lon="6.28441">
        <ele>166</ele>
        <time>2023-04-28T13:33:49Z</time>
      </trkpt>
      <trkpt lat="43.47671" lon="6.2844">
        <ele>166</ele>
        <time>2023-04-28T13:33:50Z</time>
      </trkpt>
      <trkpt lat="43.47671" lon="6.2844">
        <ele>166</ele>
        <time>2023-04-28T13:33:51Z</time>
      </trkpt>
      <trkpt lat="43.47671" lon="6.28439">
        <ele>166</ele>
        <time>2023-04-28T13:33:52Z</time>
      </trkpt>
      <trkpt lat="43.47671" lon="6.28438">
        <ele>166</ele>
        <time>2023-04-28T13:33:53Z</time>
      </trkpt>
      <trkpt lat="43.47671" lon="6.28436">
        <ele>166</ele>
        <time>2023-04-28T13:33:54Z</time>
      </trkpt>
      <trkpt lat="43.47671" lon="6.28434">
        <ele>166</ele>
        <time>2023-04-28T13:33:55Z</time>
      </trkpt>
      <trkpt lat="43.47671" lon="6.28432">
        <ele>165</ele>
        <time>2023-04-28T13:33:56Z</time>
      </trkpt>
      <trkpt lat="43.47671" lon="6.28429">
        <ele>165</ele>
        <time>2023-04-28T13:33:57Z</time>
      </trkpt>
      <trkpt lat="43.47671" lon="6.28426">
        <ele>165</ele>
        <time>2023-04-28T13:33:58Z</time>
      </trkpt>
      <trkpt lat="43.47671" lon="6.28424">
        <ele>165</ele>
        <time>2023-04-28T13:33:59Z</time>
      </trkpt>
      <trkpt lat="43.47671" lon="6.28422">
        <ele>165</ele>
        <time>2023-04-28T13:34:00Z</time>
      </trkpt>
      <trkpt lat="43.47671" lon="6.2842">
        <ele>165</ele>
        <time>2023-04-28T13:34:01Z</time>
      </trkpt>
      <trkpt lat="43.47671" lon="6.28419">
        <ele>164</ele>
        <time>2023-04-28T13:34:02Z</time>
      </trkpt>
      <trkpt lat="43.47671" lon="6.28417">
        <ele>164</ele>
        <time>2023-04-28T13:34:03Z</time>
      </trkpt>
      <trkpt lat="43.47671" lon="6.28415">
        <ele>164</ele>
        <time>2023-04-28T13:34:04Z</time>
      </trkpt>
      <trkpt lat="43.47671" lon="6.28413">
        <ele>164</ele>
        <time>2023-04-28T13:34:05Z</time>
      </trkpt>
      <trkpt lat="43.47671" lon="6.28412">
        <ele>163</ele>
        <time>2023-04-28T13:34:06Z</time>
      </trkpt>
      <trkpt lat="43.47671" lon="6.2841">
        <ele>163</ele>
        <time>2023-04-28T13:34:07Z</time>
      </trkpt>
      <trkpt lat="43.47671" lon="6.28409">
        <ele>163</ele>
        <time>2023-04-28T13:34:08Z</time>
      </trkpt>
      <trkpt lat="43.47671" lon="6.28407">
        <ele>163</ele>
        <time>2023-04-28T13:34:09Z</time>
      </trkpt>
      <trkpt lat="43.47671" lon="6.28406">
        <ele>163</ele>
        <time>2023-04-28T13:34:10Z</time>
      </trkpt>
      <trkpt lat="43.47671" lon="6.28404">
        <ele>163</ele>
        <time>2023-04-28T13:34:11Z</time>
      </trkpt>
      <trkpt lat="43.47671" lon="6.28403">
        <ele>163</ele>
        <time>2023-04-28T13:34:12Z</time>
      </trkpt>
      <trkpt lat="43.47672" lon="6.28402">
        <ele>163</ele>
        <time>2023-04-28T13:34:13Z</time>
      </trkpt>
      <trkpt lat="43.47672" lon="6.284">
        <ele>163</ele>
        <time>2023-04-28T13:34:14Z</time>
      </trkpt>
      <trkpt lat="43.47672" lon="6.28399">
        <ele>163</ele>
        <time>2023-04-28T13:34:15Z</time>
      </trkpt>
      <trkpt lat="43.47673" lon="6.28398">
        <ele>163</ele>
        <time>2023-04-28T13:34:16Z</time>
      </trkpt>
      <trkpt lat="43.47673" lon="6.28396">
        <ele>163</ele>
        <time>2023-04-28T13:34:17Z</time>
      </trkpt>
      <trkpt lat="43.47673" lon="6.28395">
        <ele>163</ele>
        <time>2023-04-28T13:34:18Z</time>
      </trkpt>
      <trkpt lat="43.47673" lon="6.28394">
        <ele>163</ele>
        <time>2023-04-28T13:34:19Z</time>
      </trkpt>
      <trkpt lat="43.47673" lon="6.28393">
        <ele>163</ele>
        <time>2023-04-28T13:34:20Z</time>
      </trkpt>
      <trkpt lat="43.47673" lon="6.28392">
        <ele>163</ele>
        <time>2023-04-28T13:34:21Z</time>
      </trkpt>
      <trkpt lat="43.47673" lon="6.28391">
        <ele>163</ele>
        <time>2023-04-28T13:34:22Z</time>
      </trkpt>
      <trkpt lat="43.47673" lon="6.2839">
        <ele>163</ele>
        <time>2023-04-28T13:34:23Z</time>
      </trkpt>
      <trkpt lat="43.47673" lon="6.28389">
        <ele>163</ele>
        <time>2023-04-28T13:34:24Z</time>
      </trkpt>
      <trkpt lat="43.47674" lon="6.28389">
        <ele>163</ele>
        <time>2023-04-28T13:34:25Z</time>
      </trkpt>
      <trkpt lat="43.47674" lon="6.28389">
        <ele>163</ele>
        <time>2023-04-28T13:34:26Z</time>
      </trkpt>
      <trkpt lat="43.47674" lon="6.28387">
        <ele>163</ele>
        <time>2023-04-28T13:34:27Z</time>
      </trkpt>
      <trkpt lat="43.47674" lon="6.28386">
        <ele>163</ele>
        <time>2023-04-28T13:34:28Z</time>
      </trkpt>
      <trkpt lat="43.47674" lon="6.28385">
        <ele>163</ele>
        <time>2023-04-28T13:34:29Z</time>
      </trkpt>
      <trkpt lat="43.47674" lon="6.28383">
        <ele>163</ele>
        <time>2023-04-28T13:34:30Z</time>
      </trkpt>
      <trkpt lat="43.47674" lon="6.28381">
        <ele>163</ele>
        <time>2023-04-28T13:34:31Z</time>
      </trkpt>
      <trkpt lat="43.47674" lon="6.2838">
        <ele>162</ele>
        <time>2023-04-28T13:34:32Z</time>
      </trkpt>
      <trkpt lat="43.47674" lon="6.28379">
        <ele>162</ele>
        <time>2023-04-28T13:34:33Z</time>
      </trkpt>
      <trkpt lat="43.47674" lon="6.28377">
        <ele>162</ele>
        <time>2023-04-28T13:34:34Z</time>
      </trkpt>
      <trkpt lat="43.47674" lon="6.28376">
        <ele>162</ele>
        <time>2023-04-28T13:34:35Z</time>
      </trkpt>
      <trkpt lat="43.47674" lon="6.28375">
        <ele>162</ele>
        <time>2023-04-28T13:34:36Z</time>
      </trkpt>
      <trkpt lat="43.47674" lon="6.28373">
        <ele>162</ele>
        <time>2023-04-28T13:34:37Z</time>
      </trkpt>
      <trkpt lat="43.47673" lon="6.28371">
        <ele>162</ele>
        <time>2023-04-28T13:34:38Z</time>
      </trkpt>
      <trkpt lat="43.47673" lon="6.2837">
        <ele>162</ele>
        <time>2023-04-28T13:34:39Z</time>
      </trkpt>
      <trkpt lat="43.47673" lon="6.28369">
        <ele>162</ele>
        <time>2023-04-28T13:34:40Z</time>
      </trkpt>
      <trkpt lat="43.47673" lon="6.28368">
        <ele>162</ele>
        <time>2023-04-28T13:34:41Z</time>
      </trkpt>
      <trkpt lat="43.47673" lon="6.28366">
        <ele>162</ele>
        <time>2023-04-28T13:34:42Z</time>
      </trkpt>
      <trkpt lat="43.47672" lon="6.28365">
        <ele>162</ele>
        <time>2023-04-28T13:34:43Z</time>
      </trkpt>
      <trkpt lat="43.47672" lon="6.28364">
        <ele>162</ele>
        <time>2023-04-28T13:34:44Z</time>
      </trkpt>
      <trkpt lat="43.47672" lon="6.28363">
        <ele>162</ele>
        <time>2023-04-28T13:34:45Z</time>
      </trkpt>
      <trkpt lat="43.47672" lon="6.28362">
        <ele>162</ele>
        <time>2023-04-28T13:34:46Z</time>
      </trkpt>
      <trkpt lat="43.47672" lon="6.28361">
        <ele>162</ele>
        <time>2023-04-28T13:34:47Z</time>
      </trkpt>
      <trkpt lat="43.47672" lon="6.28359">
        <ele>162</ele>
        <time>2023-04-28T13:34:48Z</time>
      </trkpt>
      <trkpt lat="43.47672" lon="6.28358">
        <ele>162</ele>
        <time>2023-04-28T13:34:49Z</time>
      </trkpt>
      <trkpt lat="43.47672" lon="6.28357">
        <ele>162</ele>
        <time>2023-04-28T13:34:50Z</time>
      </trkpt>
      <trkpt lat="43.47672" lon="6.28355">
        <ele>162</ele>
        <time>2023-04-28T13:34:51Z</time>
      </trkpt>
      <trkpt lat="43.47672" lon="6.28354">
        <ele>162</ele>
        <time>2023-04-28T13:34:52Z</time>
      </trkpt>
      <trkpt lat="43.47672" lon="6.28353">
        <ele>162</ele>
        <time>2023-04-28T13:34:53Z</time>
      </trkpt>
      <trkpt lat="43.47672" lon="6.28352">
        <ele>162</ele>
        <time>2023-04-28T13:34:54Z</time>
      </trkpt>
      <trkpt lat="43.47672" lon="6.28351">
        <ele>162</ele>
        <time>2023-04-28T13:34:55Z</time>
      </trkpt>
      <trkpt lat="43.47672" lon="6.28349">
        <ele>162</ele>
        <time>2023-04-28T13:34:56Z</time>
      </trkpt>
      <trkpt lat="43.47671" lon="6.28348">
        <ele>162</ele>
        <time>2023-04-28T13:34:57Z</time>
      </trkpt>
      <trkpt lat="43.47671" lon="6.28346">
        <ele>162</ele>
        <time>2023-04-28T13:34:58Z</time>
      </trkpt>
      <trkpt lat="43.47671" lon="6.28345">
        <ele>162</ele>
        <time>2023-04-28T13:34:59Z</time>
      </trkpt>
      <trkpt lat="43.47671" lon="6.28343">
        <ele>162</ele>
        <time>2023-04-28T13:35:00Z</time>
      </trkpt>
      <trkpt lat="43.47671" lon="6.28342">
        <ele>162</ele>
        <time>2023-04-28T13:35:01Z</time>
      </trkpt>
      <trkpt lat="43.47671" lon="6.28341">
        <ele>162</ele>
        <time>2023-04-28T13:35:02Z</time>
      </trkpt>
      <trkpt lat="43.47672" lon="6.28341">
        <ele>162</ele>
        <time>2023-04-28T13:35:03Z</time>
      </trkpt>
      <trkpt lat="43.47672" lon="6.28341">
        <ele>162</ele>
        <time>2023-04-28T13:35:04Z</time>
      </trkpt>
      <trkpt lat="43.47672" lon="6.2834">
        <ele>162</ele>
        <time>2023-04-28T13:35:05Z</time>
      </trkpt>
      <trkpt lat="43.47672" lon="6.2834">
        <ele>162</ele>
        <time>2023-04-28T13:35:06Z</time>
      </trkpt>
      <trkpt lat="43.47672" lon="6.2834">
        <ele>162</ele>
        <time>2023-04-28T13:35:07Z</time>
      </trkpt>
      <trkpt lat="43.47672" lon="6.2834">
        <ele>162</ele>
        <time>2023-04-28T13:35:08Z</time>
      </trkpt>
      <trkpt lat="43.47672" lon="6.28339">
        <ele>162</ele>
        <time>2023-04-28T13:35:09Z</time>
      </trkpt>
      <trkpt lat="43.47672" lon="6.28339">
        <ele>162</ele>
        <time>2023-04-28T13:35:10Z</time>
      </trkpt>
      <trkpt lat="43.47672" lon="6.28338">
        <ele>162</ele>
        <time>2023-04-28T13:35:11Z</time>
      </trkpt>
      <trkpt lat="43.47672" lon="6.28337">
        <ele>162</ele>
        <time>2023-04-28T13:35:12Z</time>
      </trkpt>
      <trkpt lat="43.47672" lon="6.28336">
        <ele>162</ele>
        <time>2023-04-28T13:35:13Z</time>
      </trkpt>
      <trkpt lat="43.47672" lon="6.28335">
        <ele>162</ele>
        <time>2023-04-28T13:35:14Z</time>
      </trkpt>
      <trkpt lat="43.47672" lon="6.28333">
        <ele>162</ele>
        <time>2023-04-28T13:35:15Z</time>
      </trkpt>
      <trkpt lat="43.47672" lon="6.28332">
        <ele>162</ele>
        <time>2023-04-28T13:35:16Z</time>
      </trkpt>
      <trkpt lat="43.47673" lon="6.28331">
        <ele>162</ele>
        <time>2023-04-28T13:35:17Z</time>
      </trkpt>
      <trkpt lat="43.47673" lon="6.2833">
        <ele>162</ele>
        <time>2023-04-28T13:35:18Z</time>
      </trkpt>
      <trkpt lat="43.47673" lon="6.28328">
        <ele>162</ele>
        <time>2023-04-28T13:35:19Z</time>
      </trkpt>
      <trkpt lat="43.47673" lon="6.28327">
        <ele>162</ele>
        <time>2023-04-28T13:35:20Z</time>
      </trkpt>
      <trkpt lat="43.47673" lon="6.28326">
        <ele>162</ele>
        <time>2023-04-28T13:35:21Z</time>
      </trkpt>
      <trkpt lat="43.47674" lon="6.28324">
        <ele>162</ele>
        <time>2023-04-28T13:35:22Z</time>
      </trkpt>
      <trkpt lat="43.47674" lon="6.28322">
        <ele>162</ele>
        <time>2023-04-28T13:35:23Z</time>
      </trkpt>
      <trkpt lat="43.47674" lon="6.28321">
        <ele>162</ele>
        <time>2023-04-28T13:35:24Z</time>
      </trkpt>
      <trkpt lat="43.47675" lon="6.2832">
        <ele>162</ele>
        <time>2023-04-28T13:35:25Z</time>
      </trkpt>
      <trkpt lat="43.47675" lon="6.28319">
        <ele>162</ele>
        <time>2023-04-28T13:35:26Z</time>
      </trkpt>
      <trkpt lat="43.47675" lon="6.28318">
        <ele>162</ele>
        <time>2023-04-28T13:35:27Z</time>
      </trkpt>
      <trkpt lat="43.47675" lon="6.28317">
        <ele>162</ele>
        <time>2023-04-28T13:35:28Z</time>
      </trkpt>
      <trkpt lat="43.47675" lon="6.28316">
        <ele>162</ele>
        <time>2023-04-28T13:35:29Z</time>
      </trkpt>
      <trkpt lat="43.47676" lon="6.28315">
        <ele>162</ele>
        <time>2023-04-28T13:35:30Z</time>
      </trkpt>
      <trkpt lat="43.47676" lon="6.28313">
        <ele>162</ele>
        <time>2023-04-28T13:35:31Z</time>
      </trkpt>
      <trkpt lat="43.47676" lon="6.28312">
        <ele>162</ele>
        <time>2023-04-28T13:35:32Z</time>
      </trkpt>
      <trkpt lat="43.47676" lon="6.28311">
        <ele>162</ele>
        <time>2023-04-28T13:35:33Z</time>
      </trkpt>
      <trkpt lat="43.47676" lon="6.2831">
        <ele>162</ele>
        <time>2023-04-28T13:35:34Z</time>
      </trkpt>
      <trkpt lat="43.47676" lon="6.28308">
        <ele>162</ele>
        <time>2023-04-28T13:35:35Z</time>
      </trkpt>
      <trkpt lat="43.47676" lon="6.28307">
        <ele>162</ele>
        <time>2023-04-28T13:35:36Z</time>
      </trkpt>
      <trkpt lat="43.47676" lon="6.28306">
        <ele>162</ele>
        <time>2023-04-28T13:35:37Z</time>
      </trkpt>
      <trkpt lat="43.47676" lon="6.28305">
        <ele>162</ele>
        <time>2023-04-28T13:35:38Z</time>
      </trkpt>
      <trkpt lat="43.47676" lon="6.28304">
        <ele>162</ele>
        <time>2023-04-28T13:35:39Z</time>
      </trkpt>
      <trkpt lat="43.47676" lon="6.28302">
        <ele>162</ele>
        <time>2023-04-28T13:35:40Z</time>
      </trkpt>
      <trkpt lat="43.47676" lon="6.28301">
        <ele>162</ele>
        <time>2023-04-28T13:35:41Z</time>
      </trkpt>
      <trkpt lat="43.47676" lon="6.28299">
        <ele>162</ele>
        <time>2023-04-28T13:35:42Z</time>
      </trkpt>
      <trkpt lat="43.47676" lon="6.28298">
        <ele>162</ele>
        <time>2023-04-28T13:35:43Z</time>
      </trkpt>
      <trkpt lat="43.47676" lon="6.28296">
        <ele>162</ele>
        <time>2023-04-28T13:35:44Z</time>
      </trkpt>
      <trkpt lat="43.47676" lon="6.28295">
        <ele>162</ele>
        <time>2023-04-28T13:35:45Z</time>
      </trkpt>
      <trkpt lat="43.47676" lon="6.28293">
        <ele>162</ele>
        <time>2023-04-28T13:35:46Z</time>
      </trkpt>
      <trkpt lat="43.47676" lon="6.28292">
        <ele>162</ele>
        <time>2023-04-28T13:35:47Z</time>
      </trkpt>
      <trkpt lat="43.47676" lon="6.28291">
        <ele>162</ele>
        <time>2023-04-28T13:35:48Z</time>
      </trkpt>
      <trkpt lat="43.47676" lon="6.2829">
        <ele>162</ele>
        <time>2023-04-28T13:35:49Z</time>
      </trkpt>
      <trkpt lat="43.47676" lon="6.28289">
        <ele>162</ele>
        <time>2023-04-28T13:35:50Z</time>
      </trkpt>
      <trkpt lat="43.47676" lon="6.28288">
        <ele>163</ele>
        <time>2023-04-28T13:35:51Z</time>
      </trkpt>
      <trkpt lat="43.47676" lon="6.28287">
        <ele>163</ele>
        <time>2023-04-28T13:35:52Z</time>
      </trkpt>
      <trkpt lat="43.47676" lon="6.28286">
        <ele>163</ele>
        <time>2023-04-28T13:35:53Z</time>
      </trkpt>
      <trkpt lat="43.47676" lon="6.28285">
        <ele>163</ele>
        <time>2023-04-28T13:35:54Z</time>
      </trkpt>
      <trkpt lat="43.47676" lon="6.28284">
        <ele>163</ele>
        <time>2023-04-28T13:35:55Z</time>
      </trkpt>
      <trkpt lat="43.47675" lon="6.28282">
        <ele>163</ele>
        <time>2023-04-28T13:35:56Z</time>
      </trkpt>
      <trkpt lat="43.47675" lon="6.28281">
        <ele>163</ele>
        <time>2023-04-28T13:35:57Z</time>
      </trkpt>
      <trkpt lat="43.47675" lon="6.2828">
        <ele>163</ele>
        <time>2023-04-28T13:35:58Z</time>
      </trkpt>
      <trkpt lat="43.47675" lon="6.28279">
        <ele>163</ele>
        <time>2023-04-28T13:35:59Z</time>
      </trkpt>
      <trkpt lat="43.47675" lon="6.28278">
        <ele>163</ele>
        <time>2023-04-28T13:36:00Z</time>
      </trkpt>
      <trkpt lat="43.47675" lon="6.28277">
        <ele>163</ele>
        <time>2023-04-28T13:36:01Z</time>
      </trkpt>
      <trkpt lat="43.47675" lon="6.28276">
        <ele>162</ele>
        <time>2023-04-28T13:36:02Z</time>
      </trkpt>
      <trkpt lat="43.47675" lon="6.28275">
        <ele>162</ele>
        <time>2023-04-28T13:36:03Z</time>
      </trkpt>
      <trkpt lat="43.47675" lon="6.28273">
        <ele>162</ele>
        <time>2023-04-28T13:36:04Z</time>
      </trkpt>
      <trkpt lat="43.47675" lon="6.28273">
        <ele>162</ele>
        <time>2023-04-28T13:36:05Z</time>
      </trkpt>
      <trkpt lat="43.47674" lon="6.28272">
        <ele>162</ele>
        <time>2023-04-28T13:36:06Z</time>
      </trkpt>
      <trkpt lat="43.47674" lon="6.28271">
        <ele>162</ele>
        <time>2023-04-28T13:36:07Z</time>
      </trkpt>
      <trkpt lat="43.47674" lon="6.2827">
        <ele>162</ele>
        <time>2023-04-28T13:36:08Z</time>
      </trkpt>
      <trkpt lat="43.47674" lon="6.28269">
        <ele>162</ele>
        <time>2023-04-28T13:36:09Z</time>
      </trkpt>
      <trkpt lat="43.47674" lon="6.28269">
        <ele>162</ele>
        <time>2023-04-28T13:36:10Z</time>
      </trkpt>
      <trkpt lat="43.47674" lon="6.28268">
        <ele>162</ele>
        <time>2023-04-28T13:36:11Z</time>
      </trkpt>
      <trkpt lat="43.47674" lon="6.28267">
        <ele>162</ele>
        <time>2023-04-28T13:36:12Z</time>
      </trkpt>
      <trkpt lat="43.47674" lon="6.28266">
        <ele>162</ele>
        <time>2023-04-28T13:36:13Z</time>
      </trkpt>
      <trkpt lat="43.47673" lon="6.28265">
        <ele>162</ele>
        <time>2023-04-28T13:36:14Z</time>
      </trkpt>
      <trkpt lat="43.47673" lon="6.28264">
        <ele>162</ele>
        <time>2023-04-28T13:36:15Z</time>
      </trkpt>
      <trkpt lat="43.47673" lon="6.28262">
        <ele>161</ele>
        <time>2023-04-28T13:36:16Z</time>
      </trkpt>
      <trkpt lat="43.47673" lon="6.28261">
        <ele>161</ele>
        <time>2023-04-28T13:36:17Z</time>
      </trkpt>
      <trkpt lat="43.47673" lon="6.2826">
        <ele>161</ele>
        <time>2023-04-28T13:36:18Z</time>
      </trkpt>
      <trkpt lat="43.47673" lon="6.28259">
        <ele>161</ele>
        <time>2023-04-28T13:36:19Z</time>
      </trkpt>
      <trkpt lat="43.47673" lon="6.28258">
        <ele>162</ele>
        <time>2023-04-28T13:36:20Z</time>
      </trkpt>
      <trkpt lat="43.47673" lon="6.28257">
        <ele>162</ele>
        <time>2023-04-28T13:36:21Z</time>
      </trkpt>
      <trkpt lat="43.47673" lon="6.28256">
        <ele>162</ele>
        <time>2023-04-28T13:36:22Z</time>
      </trkpt>
      <trkpt lat="43.47673" lon="6.28255">
        <ele>162</ele>
        <time>2023-04-28T13:36:23Z</time>
      </trkpt>
      <trkpt lat="43.47673" lon="6.28254">
        <ele>162</ele>
        <time>2023-04-28T13:36:24Z</time>
      </trkpt>
      <trkpt lat="43.47673" lon="6.28253">
        <ele>162</ele>
        <time>2023-04-28T13:36:25Z</time>
      </trkpt>
      <trkpt lat="43.47674" lon="6.28251">
        <ele>162</ele>
        <time>2023-04-28T13:36:26Z</time>
      </trkpt>
      <trkpt lat="43.47674" lon="6.2825">
        <ele>162</ele>
        <time>2023-04-28T13:36:27Z</time>
      </trkpt>
      <trkpt lat="43.47674" lon="6.28249">
        <ele>162</ele>
        <time>2023-04-28T13:36:28Z</time>
      </trkpt>
      <trkpt lat="43.47674" lon="6.28248">
        <ele>162</ele>
        <time>2023-04-28T13:36:29Z</time>
      </trkpt>
      <trkpt lat="43.47675" lon="6.28247">
        <ele>162</ele>
        <time>2023-04-28T13:36:30Z</time>
      </trkpt>
      <trkpt lat="43.47675" lon="6.28246">
        <ele>162</ele>
        <time>2023-04-28T13:36:31Z</time>
      </trkpt>
      <trkpt lat="43.47675" lon="6.28245">
        <ele>162</ele>
        <time>2023-04-28T13:36:32Z</time>
      </trkpt>
      <trkpt lat="43.47675" lon="6.28244">
        <ele>162</ele>
        <time>2023-04-28T13:36:33Z</time>
      </trkpt>
      <trkpt lat="43.47675" lon="6.28243">
        <ele>162</ele>
        <time>2023-04-28T13:36:34Z</time>
      </trkpt>
      <trkpt lat="43.47676" lon="6.28242">
        <ele>162</ele>
        <time>2023-04-28T13:36:35Z</time>
      </trkpt>
      <trkpt lat="43.47676" lon="6.28241">
        <ele>162</ele>
        <time>2023-04-28T13:36:36Z</time>
      </trkpt>
      <trkpt lat="43.47676" lon="6.2824">
        <ele>162</ele>
        <time>2023-04-28T13:36:37Z</time>
      </trkpt>
      <trkpt lat="43.47676" lon="6.28238">
        <ele>162</ele>
        <time>2023-04-28T13:36:38Z</time>
      </trkpt>
      <trkpt lat="43.47676" lon="6.28237">
        <ele>162</ele>
        <time>2023-04-28T13:36:39Z</time>
      </trkpt>
      <trkpt lat="43.47677" lon="6.28236">
        <ele>162</ele>
        <time>2023-04-28T13:36:40Z</time>
      </trkpt>
      <trkpt lat="43.47677" lon="6.28235">
        <ele>162</ele>
        <time>2023-04-28T13:36:41Z</time>
      </trkpt>
      <trkpt lat="43.47677" lon="6.28234">
        <ele>162</ele>
        <time>2023-04-28T13:36:42Z</time>
      </trkpt>
      <trkpt lat="43.47678" lon="6.28233">
        <ele>162</ele>
        <time>2023-04-28T13:36:43Z</time>
      </trkpt>
      <trkpt lat="43.47678" lon="6.28232">
        <ele>162</ele>
        <time>2023-04-28T13:36:44Z</time>
      </trkpt>
      <trkpt lat="43.47678" lon="6.28231">
        <ele>162</ele>
        <time>2023-04-28T13:36:45Z</time>
      </trkpt>
      <trkpt lat="43.47679" lon="6.2823">
        <ele>162</ele>
        <time>2023-04-28T13:36:46Z</time>
      </trkpt>
      <trkpt lat="43.47679" lon="6.28229">
        <ele>162</ele>
        <time>2023-04-28T13:36:47Z</time>
      </trkpt>
      <trkpt lat="43.47679" lon="6.28228">
        <ele>162</ele>
        <time>2023-04-28T13:36:48Z</time>
      </trkpt>
      <trkpt lat="43.47679" lon="6.28228">
        <ele>163</ele>
        <time>2023-04-28T13:36:49Z</time>
      </trkpt>
      <trkpt lat="43.4768" lon="6.28227">
        <ele>163</ele>
        <time>2023-04-28T13:36:50Z</time>
      </trkpt>
      <trkpt lat="43.4768" lon="6.28226">
        <ele>163</ele>
        <time>2023-04-28T13:36:51Z</time>
      </trkpt>
      <trkpt lat="43.47681" lon="6.28226">
        <ele>163</ele>
        <time>2023-04-28T13:36:52Z</time>
      </trkpt>
      <trkpt lat="43.47681" lon="6.28225">
        <ele>163</ele>
        <time>2023-04-28T13:36:53Z</time>
      </trkpt>
      <trkpt lat="43.47681" lon="6.28225">
        <ele>162</ele>
        <time>2023-04-28T13:36:54Z</time>
      </trkpt>
      <trkpt lat="43.47681" lon="6.28224">
        <ele>162</ele>
        <time>2023-04-28T13:36:55Z</time>
      </trkpt>
      <trkpt lat="43.47682" lon="6.28223">
        <ele>162</ele>
        <time>2023-04-28T13:36:56Z</time>
      </trkpt>
      <trkpt lat="43.47682" lon="6.28222">
        <ele>162</ele>
        <time>2023-04-28T13:36:57Z</time>
      </trkpt>
      <trkpt lat="43.47681" lon="6.28221">
        <ele>162</ele>
        <time>2023-04-28T13:36:58Z</time>
      </trkpt>
      <trkpt lat="43.47681" lon="6.28221">
        <ele>162</ele>
        <time>2023-04-28T13:36:59Z</time>
      </trkpt>
      <trkpt lat="43.4768" lon="6.2822">
        <ele>162</ele>
        <time>2023-04-28T13:37:00Z</time>
      </trkpt>
      <trkpt lat="43.4768" lon="6.2822">
        <ele>162</ele>
        <time>2023-04-28T13:37:01Z</time>
      </trkpt>
      <trkpt lat="43.4768" lon="6.2822">
        <ele>162</ele>
        <time>2023-04-28T13:37:02Z</time>
      </trkpt>
      <trkpt lat="43.4768" lon="6.28221">
        <ele>162</ele>
        <time>2023-04-28T13:37:03Z</time>
      </trkpt>
      <trkpt lat="43.4768" lon="6.28221">
        <ele>162</ele>
        <time>2023-04-28T13:37:04Z</time>
      </trkpt>
      <trkpt lat="43.4768" lon="6.28221">
        <ele>162</ele>
        <time>2023-04-28T13:37:05Z</time>
      </trkpt>
      <trkpt lat="43.47681" lon="6.28221">
        <ele>162</ele>
        <time>2023-04-28T13:37:06Z</time>
      </trkpt>
      <trkpt lat="43.47681" lon="6.28222">
        <ele>161</ele>
        <time>2023-04-28T13:37:07Z</time>
      </trkpt>
      <trkpt lat="43.47683" lon="6.28221">
        <ele>161</ele>
        <time>2023-04-28T13:37:08Z</time>
      </trkpt>
      <trkpt lat="43.47684" lon="6.28221">
        <ele>161</ele>
        <time>2023-04-28T13:37:09Z</time>
      </trkpt>
      <trkpt lat="43.47685" lon="6.28221">
        <ele>162</ele>
        <time>2023-04-28T13:37:10Z</time>
      </trkpt>
      <trkpt lat="43.47685" lon="6.2822">
        <ele>162</ele>
        <time>2023-04-28T13:37:11Z</time>
      </trkpt>
      <trkpt lat="43.47686" lon="6.2822">
        <ele>162</ele>
        <time>2023-04-28T13:37:12Z</time>
      </trkpt>
      <trkpt lat="43.47687" lon="6.28219">
        <ele>162</ele>
        <time>2023-04-28T13:37:13Z</time>
      </trkpt>
      <trkpt lat="43.47687" lon="6.28218">
        <ele>162</ele>
        <time>2023-04-28T13:37:14Z</time>
      </trkpt>
      <trkpt lat="43.47688" lon="6.28217">
        <ele>162</ele>
        <time>2023-04-28T13:37:15Z</time>
      </trkpt>
      <trkpt lat="43.47688" lon="6.28216">
        <ele>162</ele>
        <time>2023-04-28T13:37:16Z</time>
      </trkpt>
      <trkpt lat="43.47688" lon="6.28215">
        <ele>161</ele>
        <time>2023-04-28T13:37:17Z</time>
      </trkpt>
      <trkpt lat="43.47688" lon="6.28214">
        <ele>161</ele>
        <time>2023-04-28T13:37:18Z</time>
      </trkpt>
      <trkpt lat="43.47689" lon="6.28213">
        <ele>161</ele>
        <time>2023-04-28T13:37:19Z</time>
      </trkpt>
      <trkpt lat="43.47689" lon="6.28212">
        <ele>161</ele>
        <time>2023-04-28T13:37:20Z</time>
      </trkpt>
      <trkpt lat="43.47689" lon="6.28211">
        <ele>161</ele>
        <time>2023-04-28T13:37:21Z</time>
      </trkpt>
      <trkpt lat="43.47689" lon="6.2821">
        <ele>161</ele>
        <time>2023-04-28T13:37:22Z</time>
      </trkpt>
      <trkpt lat="43.4769" lon="6.2821">
        <ele>161</ele>
        <time>2023-04-28T13:37:23Z</time>
      </trkpt>
      <trkpt lat="43.4769" lon="6.28209">
        <ele>161</ele>
        <time>2023-04-28T13:37:24Z</time>
      </trkpt>
      <trkpt lat="43.4769" lon="6.28207">
        <ele>161</ele>
        <time>2023-04-28T13:37:25Z</time>
      </trkpt>
      <trkpt lat="43.47691" lon="6.28206">
        <ele>161</ele>
        <time>2023-04-28T13:37:26Z</time>
      </trkpt>
      <trkpt lat="43.47691" lon="6.28205">
        <ele>161</ele>
        <time>2023-04-28T13:37:27Z</time>
      </trkpt>
      <trkpt lat="43.47691" lon="6.28204">
        <ele>161</ele>
        <time>2023-04-28T13:37:28Z</time>
      </trkpt>
      <trkpt lat="43.47691" lon="6.28203">
        <ele>161</ele>
        <time>2023-04-28T13:37:29Z</time>
      </trkpt>
      <trkpt lat="43.47692" lon="6.282">
        <ele>161</ele>
        <time>2023-04-28T13:37:30Z</time>
      </trkpt>
      <trkpt lat="43.47692" lon="6.28197">
        <ele>161</ele>
        <time>2023-04-28T13:37:31Z</time>
      </trkpt>
      <trkpt lat="43.47693" lon="6.28195">
        <ele>161</ele>
        <time>2023-04-28T13:37:32Z</time>
      </trkpt>
      <trkpt lat="43.47694" lon="6.28193">
        <ele>160</ele>
        <time>2023-04-28T13:37:33Z</time>
      </trkpt>
      <trkpt lat="43.47694" lon="6.28192">
        <ele>160</ele>
        <time>2023-04-28T13:37:34Z</time>
      </trkpt>
      <trkpt lat="43.47694" lon="6.2819">
        <ele>160</ele>
        <time>2023-04-28T13:37:35Z</time>
      </trkpt>
      <trkpt lat="43.47694" lon="6.28188">
        <ele>160</ele>
        <time>2023-04-28T13:37:36Z</time>
      </trkpt>
      <trkpt lat="43.47695" lon="6.28187">
        <ele>160</ele>
        <time>2023-04-28T13:37:37Z</time>
      </trkpt>
      <trkpt lat="43.47695" lon="6.28185">
        <ele>160</ele>
        <time>2023-04-28T13:37:38Z</time>
      </trkpt>
      <trkpt lat="43.47695" lon="6.28183">
        <ele>160</ele>
        <time>2023-04-28T13:37:39Z</time>
      </trkpt>
      <trkpt lat="43.47695" lon="6.28182">
        <ele>159</ele>
        <time>2023-04-28T13:37:40Z</time>
      </trkpt>
      <trkpt lat="43.47696" lon="6.28181">
        <ele>159</ele>
        <time>2023-04-28T13:37:41Z</time>
      </trkpt>
      <trkpt lat="43.47696" lon="6.28179">
        <ele>159</ele>
        <time>2023-04-28T13:37:42Z</time>
      </trkpt>
      <trkpt lat="43.47696" lon="6.28178">
        <ele>159</ele>
        <time>2023-04-28T13:37:43Z</time>
      </trkpt>
      <trkpt lat="43.47696" lon="6.28177">
        <ele>159</ele>
        <time>2023-04-28T13:37:44Z</time>
      </trkpt>
      <trkpt lat="43.47697" lon="6.28175">
        <ele>159</ele>
        <time>2023-04-28T13:37:45Z</time>
      </trkpt>
      <trkpt lat="43.47697" lon="6.28174">
        <ele>159</ele>
        <time>2023-04-28T13:37:46Z</time>
      </trkpt>
      <trkpt lat="43.47697" lon="6.28173">
        <ele>159</ele>
        <time>2023-04-28T13:37:47Z</time>
      </trkpt>
      <trkpt lat="43.47698" lon="6.28172">
        <ele>159</ele>
        <time>2023-04-28T13:37:48Z</time>
      </trkpt>
      <trkpt lat="43.47698" lon="6.28171">
        <ele>159</ele>
        <time>2023-04-28T13:37:49Z</time>
      </trkpt>
      <trkpt lat="43.47698" lon="6.2817">
        <ele>160</ele>
        <time>2023-04-28T13:37:50Z</time>
      </trkpt>
      <trkpt lat="43.47699" lon="6.28169">
        <ele>160</ele>
        <time>2023-04-28T13:37:51Z</time>
      </trkpt>
      <trkpt lat="43.47699" lon="6.28168">
        <ele>160</ele>
        <time>2023-04-28T13:37:52Z</time>
      </trkpt>
      <trkpt lat="43.47699" lon="6.28167">
        <ele>160</ele>
        <time>2023-04-28T13:37:53Z</time>
      </trkpt>
      <trkpt lat="43.477" lon="6.28166">
        <ele>160</ele>
        <time>2023-04-28T13:37:54Z</time>
      </trkpt>
      <trkpt lat="43.477" lon="6.28165">
        <ele>160</ele>
        <time>2023-04-28T13:37:55Z</time>
      </trkpt>
      <trkpt lat="43.477" lon="6.28163">
        <ele>160</ele>
        <time>2023-04-28T13:37:56Z</time>
      </trkpt>
      <trkpt lat="43.47701" lon="6.28162">
        <ele>160</ele>
        <time>2023-04-28T13:37:57Z</time>
      </trkpt>
      <trkpt lat="43.47702" lon="6.28161">
        <ele>160</ele>
        <time>2023-04-28T13:37:58Z</time>
      </trkpt>
      <trkpt lat="43.47702" lon="6.2816">
        <ele>160</ele>
        <time>2023-04-28T13:37:59Z</time>
      </trkpt>
      <trkpt lat="43.47702" lon="6.28159">
        <ele>159</ele>
        <time>2023-04-28T13:38:00Z</time>
      </trkpt>
      <trkpt lat="43.47703" lon="6.28157">
        <ele>159</ele>
        <time>2023-04-28T13:38:01Z</time>
      </trkpt>
      <trkpt lat="43.47703" lon="6.28156">
        <ele>159</ele>
        <time>2023-04-28T13:38:02Z</time>
      </trkpt>
      <trkpt lat="43.47704" lon="6.28155">
        <ele>159</ele>
        <time>2023-04-28T13:38:03Z</time>
      </trkpt>
      <trkpt lat="43.47704" lon="6.28153">
        <ele>159</ele>
        <time>2023-04-28T13:38:04Z</time>
      </trkpt>
      <trkpt lat="43.47705" lon="6.28152">
        <ele>159</ele>
        <time>2023-04-28T13:38:05Z</time>
      </trkpt>
      <trkpt lat="43.47705" lon="6.28151">
        <ele>159</ele>
        <time>2023-04-28T13:38:06Z</time>
      </trkpt>
      <trkpt lat="43.47706" lon="6.2815">
        <ele>159</ele>
        <time>2023-04-28T13:38:07Z</time>
      </trkpt>
      <trkpt lat="43.47706" lon="6.28148">
        <ele>159</ele>
        <time>2023-04-28T13:38:08Z</time>
      </trkpt>
      <trkpt lat="43.47707" lon="6.28147">
        <ele>159</ele>
        <time>2023-04-28T13:38:09Z</time>
      </trkpt>
      <trkpt lat="43.47708" lon="6.28146">
        <ele>159</ele>
        <time>2023-04-28T13:38:10Z</time>
      </trkpt>
      <trkpt lat="43.47708" lon="6.28145">
        <ele>159</ele>
        <time>2023-04-28T13:38:11Z</time>
      </trkpt>
      <trkpt lat="43.47709" lon="6.28143">
        <ele>159</ele>
        <time>2023-04-28T13:38:12Z</time>
      </trkpt>
      <trkpt lat="43.47709" lon="6.28142">
        <ele>159</ele>
        <time>2023-04-28T13:38:13Z</time>
      </trkpt>
      <trkpt lat="43.4771" lon="6.28141">
        <ele>159</ele>
        <time>2023-04-28T13:38:14Z</time>
      </trkpt>
      <trkpt lat="43.4771" lon="6.2814">
        <ele>159</ele>
        <time>2023-04-28T13:38:15Z</time>
      </trkpt>
      <trkpt lat="43.4771" lon="6.28139">
        <ele>159</ele>
        <time>2023-04-28T13:38:16Z</time>
      </trkpt>
      <trkpt lat="43.47711" lon="6.28138">
        <ele>159</ele>
        <time>2023-04-28T13:38:17Z</time>
      </trkpt>
      <trkpt lat="43.47712" lon="6.28137">
        <ele>159</ele>
        <time>2023-04-28T13:38:18Z</time>
      </trkpt>
      <trkpt lat="43.47712" lon="6.28136">
        <ele>159</ele>
        <time>2023-04-28T13:38:19Z</time>
      </trkpt>
      <trkpt lat="43.47713" lon="6.28136">
        <ele>159</ele>
        <time>2023-04-28T13:38:20Z</time>
      </trkpt>
      <trkpt lat="43.47714" lon="6.28136">
        <ele>159</ele>
        <time>2023-04-28T13:38:21Z</time>
      </trkpt>
      <trkpt lat="43.47714" lon="6.28136">
        <ele>159</ele>
        <time>2023-04-28T13:38:22Z</time>
      </trkpt>
      <trkpt lat="43.47714" lon="6.28135">
        <ele>159</ele>
        <time>2023-04-28T13:38:23Z</time>
      </trkpt>
      <trkpt lat="43.47714" lon="6.28135">
        <ele>159</ele>
        <time>2023-04-28T13:38:24Z</time>
      </trkpt>
      <trkpt lat="43.47715" lon="6.28134">
        <ele>159</ele>
        <time>2023-04-28T13:38:25Z</time>
      </trkpt>
      <trkpt lat="43.47716" lon="6.28133">
        <ele>159</ele>
        <time>2023-04-28T13:38:26Z</time>
      </trkpt>
      <trkpt lat="43.47716" lon="6.28131">
        <ele>159</ele>
        <time>2023-04-28T13:38:27Z</time>
      </trkpt>
      <trkpt lat="43.47717" lon="6.2813">
        <ele>160</ele>
        <time>2023-04-28T13:38:28Z</time>
      </trkpt>
      <trkpt lat="43.47718" lon="6.28129">
        <ele>160</ele>
        <time>2023-04-28T13:38:29Z</time>
      </trkpt>
      <trkpt lat="43.47719" lon="6.28128">
        <ele>160</ele>
        <time>2023-04-28T13:38:30Z</time>
      </trkpt>
      <trkpt lat="43.4772" lon="6.28127">
        <ele>160</ele>
        <time>2023-04-28T13:38:31Z</time>
      </trkpt>
      <trkpt lat="43.4772" lon="6.28126">
        <ele>160</ele>
        <time>2023-04-28T13:38:32Z</time>
      </trkpt>
      <trkpt lat="43.47721" lon="6.28125">
        <ele>160</ele>
        <time>2023-04-28T13:38:33Z</time>
      </trkpt>
      <trkpt lat="43.47722" lon="6.28125">
        <ele>160</ele>
        <time>2023-04-28T13:38:34Z</time>
      </trkpt>
      <trkpt lat="43.47722" lon="6.28123">
        <ele>160</ele>
        <time>2023-04-28T13:38:35Z</time>
      </trkpt>
      <trkpt lat="43.47722" lon="6.28122">
        <ele>160</ele>
        <time>2023-04-28T13:38:36Z</time>
      </trkpt>
      <trkpt lat="43.47723" lon="6.28121">
        <ele>161</ele>
        <time>2023-04-28T13:38:37Z</time>
      </trkpt>
      <trkpt lat="43.47723" lon="6.2812">
        <ele>161</ele>
        <time>2023-04-28T13:38:38Z</time>
      </trkpt>
      <trkpt lat="43.47724" lon="6.2812">
        <ele>161</ele>
        <time>2023-04-28T13:38:39Z</time>
      </trkpt>
      <trkpt lat="43.47724" lon="6.28119">
        <ele>161</ele>
        <time>2023-04-28T13:38:40Z</time>
      </trkpt>
      <trkpt lat="43.47725" lon="6.28118">
        <ele>161</ele>
        <time>2023-04-28T13:38:41Z</time>
      </trkpt>
      <trkpt lat="43.47725" lon="6.28117">
        <ele>161</ele>
        <time>2023-04-28T13:38:42Z</time>
      </trkpt>
      <trkpt lat="43.47726" lon="6.28116">
        <ele>161</ele>
        <time>2023-04-28T13:38:43Z</time>
      </trkpt>
      <trkpt lat="43.47726" lon="6.28114">
        <ele>161</ele>
        <time>2023-04-28T13:38:44Z</time>
      </trkpt>
      <trkpt lat="43.47727" lon="6.28113">
        <ele>161</ele>
        <time>2023-04-28T13:38:45Z</time>
      </trkpt>
      <trkpt lat="43.47727" lon="6.28112">
        <ele>161</ele>
        <time>2023-04-28T13:38:46Z</time>
      </trkpt>
      <trkpt lat="43.47727" lon="6.28111">
        <ele>161</ele>
        <time>2023-04-28T13:38:47Z</time>
      </trkpt>
      <trkpt lat="43.47728" lon="6.2811">
        <ele>161</ele>
        <time>2023-04-28T13:38:48Z</time>
      </trkpt>
      <trkpt lat="43.47728" lon="6.28108">
        <ele>161</ele>
        <time>2023-04-28T13:38:49Z</time>
      </trkpt>
      <trkpt lat="43.47728" lon="6.28107">
        <ele>161</ele>
        <time>2023-04-28T13:38:50Z</time>
      </trkpt>
      <trkpt lat="43.47729" lon="6.28106">
        <ele>161</ele>
        <time>2023-04-28T13:38:51Z</time>
      </trkpt>
      <trkpt lat="43.47729" lon="6.28105">
        <ele>161</ele>
        <time>2023-04-28T13:38:52Z</time>
      </trkpt>
      <trkpt lat="43.47729" lon="6.28104">
        <ele>161</ele>
        <time>2023-04-28T13:38:53Z</time>
      </trkpt>
      <trkpt lat="43.4773" lon="6.28102">
        <ele>161</ele>
        <time>2023-04-28T13:38:54Z</time>
      </trkpt>
      <trkpt lat="43.4773" lon="6.28101">
        <ele>161</ele>
        <time>2023-04-28T13:38:55Z</time>
      </trkpt>
      <trkpt lat="43.4773" lon="6.281">
        <ele>161</ele>
        <time>2023-04-28T13:38:56Z</time>
      </trkpt>
      <trkpt lat="43.47729" lon="6.281">
        <ele>161</ele>
        <time>2023-04-28T13:38:57Z</time>
      </trkpt>
      <trkpt lat="43.47729" lon="6.28099">
        <ele>161</ele>
        <time>2023-04-28T13:38:58Z</time>
      </trkpt>
      <trkpt lat="43.47729" lon="6.28099">
        <ele>161</ele>
        <time>2023-04-28T13:38:59Z</time>
      </trkpt>
      <trkpt lat="43.47729" lon="6.28099">
        <ele>160</ele>
        <time>2023-04-28T13:39:00Z</time>
      </trkpt>
      <trkpt lat="43.47729" lon="6.28099">
        <ele>160</ele>
        <time>2023-04-28T13:39:01Z</time>
      </trkpt>
      <trkpt lat="43.47728" lon="6.28099">
        <ele>160</ele>
        <time>2023-04-28T13:39:02Z</time>
      </trkpt>
      <trkpt lat="43.47728" lon="6.28099">
        <ele>159</ele>
        <time>2023-04-28T13:39:03Z</time>
      </trkpt>
      <trkpt lat="43.47728" lon="6.28099">
        <ele>159</ele>
        <time>2023-04-28T13:39:04Z</time>
      </trkpt>
      <trkpt lat="43.47728" lon="6.28099">
        <ele>160</ele>
        <time>2023-04-28T13:39:05Z</time>
      </trkpt>
      <trkpt lat="43.47728" lon="6.28099">
        <ele>160</ele>
        <time>2023-04-28T13:39:06Z</time>
      </trkpt>
      <trkpt lat="43.47729" lon="6.28098">
        <ele>160</ele>
        <time>2023-04-28T13:39:07Z</time>
      </trkpt>
      <trkpt lat="43.47729" lon="6.28098">
        <ele>160</ele>
        <time>2023-04-28T13:39:08Z</time>
      </trkpt>
      <trkpt lat="43.47729" lon="6.28097">
        <ele>160</ele>
        <time>2023-04-28T13:39:09Z</time>
      </trkpt>
      <trkpt lat="43.47729" lon="6.28096">
        <ele>160</ele>
        <time>2023-04-28T13:39:10Z</time>
      </trkpt>
      <trkpt lat="43.4773" lon="6.28095">
        <ele>160</ele>
        <time>2023-04-28T13:39:11Z</time>
      </trkpt>
      <trkpt lat="43.4773" lon="6.28093">
        <ele>160</ele>
        <time>2023-04-28T13:39:12Z</time>
      </trkpt>
      <trkpt lat="43.4773" lon="6.28092">
        <ele>160</ele>
        <time>2023-04-28T13:39:13Z</time>
      </trkpt>
      <trkpt lat="43.47731" lon="6.28092">
        <ele>160</ele>
        <time>2023-04-28T13:39:14Z</time>
      </trkpt>
      <trkpt lat="43.47732" lon="6.28092">
        <ele>161</ele>
        <time>2023-04-28T13:39:15Z</time>
      </trkpt>
      <trkpt lat="43.47732" lon="6.28092">
        <ele>161</ele>
        <time>2023-04-28T13:39:16Z</time>
      </trkpt>
      <trkpt lat="43.47733" lon="6.28092">
        <ele>161</ele>
        <time>2023-04-28T13:39:17Z</time>
      </trkpt>
      <trkpt lat="43.47733" lon="6.28092">
        <ele>161</ele>
        <time>2023-04-28T13:39:18Z</time>
      </trkpt>
      <trkpt lat="43.47733" lon="6.28092">
        <ele>161</ele>
        <time>2023-04-28T13:39:19Z</time>
      </trkpt>
      <trkpt lat="43.47733" lon="6.28093">
        <ele>161</ele>
        <time>2023-04-28T13:39:20Z</time>
      </trkpt>
      <trkpt lat="43.47733" lon="6.28093">
        <ele>161</ele>
        <time>2023-04-28T13:39:21Z</time>
      </trkpt>
      <trkpt lat="43.47733" lon="6.28093">
        <ele>161</ele>
        <time>2023-04-28T13:39:22Z</time>
      </trkpt>
      <trkpt lat="43.47733" lon="6.28093">
        <ele>161</ele>
        <time>2023-04-28T13:39:23Z</time>
      </trkpt>
      <trkpt lat="43.47733" lon="6.28093">
        <ele>161</ele>
        <time>2023-04-28T13:39:24Z</time>
      </trkpt>
      <trkpt lat="43.47733" lon="6.28093">
        <ele>161</ele>
        <time>2023-04-28T13:39:25Z</time>
      </trkpt>
      <trkpt lat="43.47733" lon="6.28093">
        <ele>161</ele>
        <time>2023-04-28T13:39:26Z</time>
      </trkpt>
      <trkpt lat="43.47733" lon="6.28093">
        <ele>161</ele>
        <time>2023-04-28T13:39:27Z</time>
      </trkpt>
      <trkpt lat="43.47733" lon="6.28093">
        <ele>161</ele>
        <time>2023-04-28T13:39:28Z</time>
      </trkpt>
      <trkpt lat="43.47733" lon="6.28093">
        <ele>161</ele>
        <time>2023-04-28T13:39:29Z</time>
      </trkpt>
      <trkpt lat="43.47733" lon="6.28093">
        <ele>161</ele>
        <time>2023-04-28T13:39:30Z</time>
      </trkpt>
      <trkpt lat="43.47733" lon="6.28093">
        <ele>161</ele>
        <time>2023-04-28T13:39:31Z</time>
      </trkpt>
      <trkpt lat="43.47733" lon="6.28093">
        <ele>161</ele>
        <time>2023-04-28T13:39:32Z</time>
      </trkpt>
      <trkpt lat="43.47733" lon="6.28093">
        <ele>161</ele>
        <time>2023-04-28T13:39:33Z</time>
      </trkpt>
      <trkpt lat="43.47733" lon="6.28093">
        <ele>161</ele>
        <time>2023-04-28T13:39:34Z</time>
      </trkpt>
      <trkpt lat="43.47733" lon="6.28093">
        <ele>161</ele>
        <time>2023-04-28T13:39:35Z</time>
      </trkpt>
      <trkpt lat="43.47733" lon="6.28093">
        <ele>161</ele>
        <time>2023-04-28T13:39:36Z</time>
      </trkpt>
      <trkpt lat="43.47733" lon="6.28093">
        <ele>161</ele>
        <time>2023-04-28T13:39:37Z</time>
      </trkpt>
      <trkpt lat="43.47733" lon="6.28093">
        <ele>161</ele>
        <time>2023-04-28T13:39:38Z</time>
      </trkpt>
      <trkpt lat="43.47733" lon="6.28093">
        <ele>161</ele>
        <time>2023-04-28T13:39:39Z</time>
      </trkpt>
      <trkpt lat="43.47733" lon="6.28093">
        <ele>161</ele>
        <time>2023-04-28T13:39:40Z</time>
      </trkpt>
      <trkpt lat="43.47733" lon="6.28093">
        <ele>161</ele>
        <time>2023-04-28T13:39:41Z</time>
      </trkpt>
      <trkpt lat="43.47733" lon="6.28093">
        <ele>161</ele>
        <time>2023-04-28T13:39:42Z</time>
      </trkpt>
      <trkpt lat="43.47733" lon="6.28093">
        <ele>161</ele>
        <time>2023-04-28T13:39:43Z</time>
      </trkpt>
      <trkpt lat="43.47733" lon="6.28093">
        <ele>161</ele>
        <time>2023-04-28T13:39:44Z</time>
      </trkpt>
      <trkpt lat="43.47733" lon="6.28093">
        <ele>161</ele>
        <time>2023-04-28T13:39:45Z</time>
      </trkpt>
      <trkpt lat="43.47733" lon="6.28093">
        <ele>161</ele>
        <time>2023-04-28T13:39:46Z</time>
      </trkpt>
      <trkpt lat="43.47733" lon="6.28093">
        <ele>161</ele>
        <time>2023-04-28T13:39:47Z</time>
      </trkpt>
      <trkpt lat="43.47733" lon="6.28093">
        <ele>161</ele>
        <time>2023-04-28T13:39:48Z</time>
      </trkpt>
      <trkpt lat="43.47733" lon="6.28093">
        <ele>161</ele>
        <time>2023-04-28T13:39:49Z</time>
      </trkpt>
      <trkpt lat="43.47733" lon="6.28093">
        <ele>161</ele>
        <time>2023-04-28T13:39:50Z</time>
      </trkpt>
      <trkpt lat="43.47733" lon="6.28093">
        <ele>161</ele>
        <time>2023-04-28T13:39:51Z</time>
      </trkpt>
      <trkpt lat="43.47733" lon="6.28093">
        <ele>161</ele>
        <time>2023-04-28T13:39:52Z</time>
      </trkpt>
      <trkpt lat="43.47733" lon="6.28093">
        <ele>161</ele>
        <time>2023-04-28T13:39:53Z</time>
      </trkpt>
      <trkpt lat="43.47733" lon="6.28093">
        <ele>161</ele>
        <time>2023-04-28T13:39:54Z</time>
      </trkpt>
      <trkpt lat="43.47733" lon="6.28093">
        <ele>161</ele>
        <time>2023-04-28T13:39:55Z</time>
      </trkpt>
      <trkpt lat="43.47733" lon="6.28093">
        <ele>161</ele>
        <time>2023-04-28T13:39:56Z</time>
      </trkpt>
      <trkpt lat="43.47733" lon="6.28093">
        <ele>161</ele>
        <time>2023-04-28T13:39:57Z</time>
      </trkpt>
      <trkpt lat="43.47733" lon="6.28093">
        <ele>161</ele>
        <time>2023-04-28T13:39:58Z</time>
      </trkpt>
      <trkpt lat="43.47733" lon="6.28093">
        <ele>161</ele>
        <time>2023-04-28T13:39:59Z</time>
      </trkpt>
      <trkpt lat="43.47733" lon="6.28093">
        <ele>161</ele>
        <time>2023-04-28T13:40:00Z</time>
      </trkpt>
      <trkpt lat="43.47733" lon="6.28093">
        <ele>161</ele>
        <time>2023-04-28T13:40:01Z</time>
      </trkpt>
      <trkpt lat="43.47733" lon="6.28093">
        <ele>161</ele>
        <time>2023-04-28T13:40:02Z</time>
      </trkpt>
      <trkpt lat="43.47733" lon="6.28093">
        <ele>161</ele>
        <time>2023-04-28T13:40:03Z</time>
      </trkpt>
      <trkpt lat="43.47733" lon="6.28093">
        <ele>161</ele>
        <time>2023-04-28T13:40:04Z</time>
      </trkpt>
      <trkpt lat="43.47733" lon="6.28093">
        <ele>161</ele>
        <time>2023-04-28T13:40:05Z</time>
      </trkpt>
      <trkpt lat="43.47733" lon="6.28093">
        <ele>161</ele>
        <time>2023-04-28T13:40:06Z</time>
      </trkpt>
      <trkpt lat="43.47733" lon="6.28093">
        <ele>161</ele>
        <time>2023-04-28T13:40:07Z</time>
      </trkpt>
      <trkpt lat="43.47733" lon="6.28093">
        <ele>161</ele>
        <time>2023-04-28T13:40:08Z</time>
      </trkpt>
      <trkpt lat="43.47733" lon="6.28093">
        <ele>161</ele>
        <time>2023-04-28T13:40:09Z</time>
      </trkpt>
      <trkpt lat="43.47733" lon="6.28093">
        <ele>161</ele>
        <time>2023-04-28T13:40:10Z</time>
      </trkpt>
      <trkpt lat="43.47733" lon="6.28093">
        <ele>161</ele>
        <time>2023-04-28T13:40:11Z</time>
      </trkpt>
      <trkpt lat="43.47733" lon="6.28093">
        <ele>161</ele>
        <time>2023-04-28T13:40:12Z</time>
      </trkpt>
      <trkpt lat="43.47733" lon="6.28093">
        <ele>161</ele>
        <time>2023-04-28T13:40:13Z</time>
      </trkpt>
      <trkpt lat="43.47733" lon="6.28093">
        <ele>161</ele>
        <time>2023-04-28T13:40:14Z</time>
      </trkpt>
      <trkpt lat="43.47733" lon="6.28093">
        <ele>161</ele>
        <time>2023-04-28T13:40:15Z</time>
      </trkpt>
      <trkpt lat="43.47733" lon="6.28093">
        <ele>161</ele>
        <time>2023-04-28T13:40:16Z</time>
      </trkpt>
      <trkpt lat="43.47733" lon="6.28093">
        <ele>161</ele>
        <time>2023-04-28T13:40:17Z</time>
      </trkpt>
      <trkpt lat="43.47733" lon="6.28093">
        <ele>161</ele>
        <time>2023-04-28T13:40:18Z</time>
      </trkpt>
      <trkpt lat="43.47731" lon="6.28096">
        <ele>161</ele>
        <time>2023-04-28T13:40:19Z</time>
      </trkpt>
      <trkpt lat="43.47731" lon="6.28097">
        <ele>161</ele>
        <time>2023-04-28T13:40:20Z</time>
      </trkpt>
      <trkpt lat="43.47731" lon="6.28097">
        <ele>161</ele>
        <time>2023-04-28T13:40:21Z</time>
      </trkpt>
      <trkpt lat="43.47731" lon="6.28097">
        <ele>161</ele>
        <time>2023-04-28T13:40:22Z</time>
      </trkpt>
      <trkpt lat="43.47731" lon="6.28097">
        <ele>161</ele>
        <time>2023-04-28T13:40:23Z</time>
      </trkpt>
      <trkpt lat="43.47731" lon="6.28097">
        <ele>161</ele>
        <time>2023-04-28T13:40:24Z</time>
      </trkpt>
      <trkpt lat="43.47731" lon="6.28097">
        <ele>161</ele>
        <time>2023-04-28T13:40:25Z</time>
      </trkpt>
      <trkpt lat="43.47731" lon="6.28097">
        <ele>161</ele>
        <time>2023-04-28T13:40:26Z</time>
      </trkpt>
      <trkpt lat="43.47731" lon="6.28097">
        <ele>161</ele>
        <time>2023-04-28T13:40:27Z</time>
      </trkpt>
      <trkpt lat="43.47731" lon="6.28097">
        <ele>161</ele>
        <time>2023-04-28T13:40:28Z</time>
      </trkpt>
      <trkpt lat="43.47731" lon="6.28097">
        <ele>161</ele>
        <time>2023-04-28T13:40:29Z</time>
      </trkpt>
      <trkpt lat="43.47731" lon="6.28097">
        <ele>161</ele>
        <time>2023-04-28T13:40:30Z</time>
      </trkpt>
      <trkpt lat="43.47731" lon="6.28097">
        <ele>161</ele>
        <time>2023-04-28T13:40:31Z</time>
      </trkpt>
      <trkpt lat="43.47731" lon="6.28097">
        <ele>161</ele>
        <time>2023-04-28T13:40:32Z</time>
      </trkpt>
      <trkpt lat="43.47731" lon="6.28097">
        <ele>161</ele>
        <time>2023-04-28T13:40:33Z</time>
      </trkpt>
      <trkpt lat="43.47731" lon="6.28097">
        <ele>161</ele>
        <time>2023-04-28T13:40:34Z</time>
      </trkpt>
      <trkpt lat="43.47731" lon="6.28097">
        <ele>161</ele>
        <time>2023-04-28T13:40:35Z</time>
      </trkpt>
      <trkpt lat="43.47731" lon="6.28097">
        <ele>161</ele>
        <time>2023-04-28T13:40:36Z</time>
      </trkpt>
      <trkpt lat="43.47731" lon="6.28097">
        <ele>161</ele>
        <time>2023-04-28T13:40:37Z</time>
      </trkpt>
      <trkpt lat="43.47731" lon="6.28097">
        <ele>161</ele>
        <time>2023-04-28T13:40:38Z</time>
      </trkpt>
      <trkpt lat="43.47731" lon="6.28097">
        <ele>161</ele>
        <time>2023-04-28T13:40:39Z</time>
      </trkpt>
      <trkpt lat="43.47731" lon="6.28097">
        <ele>161</ele>
        <time>2023-04-28T13:40:40Z</time>
      </trkpt>
      <trkpt lat="43.47731" lon="6.28097">
        <ele>161</ele>
        <time>2023-04-28T13:40:41Z</time>
      </trkpt>
      <trkpt lat="43.47731" lon="6.28097">
        <ele>161</ele>
        <time>2023-04-28T13:40:42Z</time>
      </trkpt>
      <trkpt lat="43.47731" lon="6.28097">
        <ele>161</ele>
        <time>2023-04-28T13:40:43Z</time>
      </trkpt>
      <trkpt lat="43.47731" lon="6.28097">
        <ele>161</ele>
        <time>2023-04-28T13:40:44Z</time>
      </trkpt>
      <trkpt lat="43.47731" lon="6.28097">
        <ele>161</ele>
        <time>2023-04-28T13:40:45Z</time>
      </trkpt>
      <trkpt lat="43.47731" lon="6.28097">
        <ele>161</ele>
        <time>2023-04-28T13:40:46Z</time>
      </trkpt>
      <trkpt lat="43.47731" lon="6.28097">
        <ele>161</ele>
        <time>2023-04-28T13:40:47Z</time>
      </trkpt>
      <trkpt lat="43.47731" lon="6.28097">
        <ele>161</ele>
        <time>2023-04-28T13:40:48Z</time>
      </trkpt>
      <trkpt lat="43.47731" lon="6.28097">
        <ele>161</ele>
        <time>2023-04-28T13:40:49Z</time>
      </trkpt>
      <trkpt lat="43.47731" lon="6.28097">
        <ele>161</ele>
        <time>2023-04-28T13:40:50Z</time>
      </trkpt>
      <trkpt lat="43.47731" lon="6.28097">
        <ele>161</ele>
        <time>2023-04-28T13:40:51Z</time>
      </trkpt>
      <trkpt lat="43.47731" lon="6.28097">
        <ele>161</ele>
        <time>2023-04-28T13:40:52Z</time>
      </trkpt>
      <trkpt lat="43.47731" lon="6.28097">
        <ele>161</ele>
        <time>2023-04-28T13:40:53Z</time>
      </trkpt>
      <trkpt lat="43.47731" lon="6.28097">
        <ele>161</ele>
        <time>2023-04-28T13:40:54Z</time>
      </trkpt>
      <trkpt lat="43.47731" lon="6.28097">
        <ele>161</ele>
        <time>2023-04-28T13:40:55Z</time>
      </trkpt>
      <trkpt lat="43.47731" lon="6.28097">
        <ele>161</ele>
        <time>2023-04-28T13:40:56Z</time>
      </trkpt>
      <trkpt lat="43.47731" lon="6.28097">
        <ele>161</ele>
        <time>2023-04-28T13:40:57Z</time>
      </trkpt>
      <trkpt lat="43.47731" lon="6.28097">
        <ele>161</ele>
        <time>2023-04-28T13:40:58Z</time>
      </trkpt>
      <trkpt lat="43.47731" lon="6.28097">
        <ele>161</ele>
        <time>2023-04-28T13:40:59Z</time>
      </trkpt>
      <trkpt lat="43.47731" lon="6.28097">
        <ele>161</ele>
        <time>2023-04-28T13:41:00Z</time>
      </trkpt>
      <trkpt lat="43.47731" lon="6.28097">
        <ele>161</ele>
        <time>2023-04-28T13:41:01Z</time>
      </trkpt>
      <trkpt lat="43.47731" lon="6.28097">
        <ele>161</ele>
        <time>2023-04-28T13:41:02Z</time>
      </trkpt>
      <trkpt lat="43.47731" lon="6.28097">
        <ele>161</ele>
        <time>2023-04-28T13:41:03Z</time>
      </trkpt>
      <trkpt lat="43.47731" lon="6.28097">
        <ele>161</ele>
        <time>2023-04-28T13:41:04Z</time>
      </trkpt>
      <trkpt lat="43.47731" lon="6.28097">
        <ele>161</ele>
        <time>2023-04-28T13:41:05Z</time>
      </trkpt>
      <trkpt lat="43.47731" lon="6.28097">
        <ele>161</ele>
        <time>2023-04-28T13:41:06Z</time>
      </trkpt>
      <trkpt lat="43.47731" lon="6.28097">
        <ele>161</ele>
        <time>2023-04-28T13:41:07Z</time>
      </trkpt>
      <trkpt lat="43.47731" lon="6.28097">
        <ele>161</ele>
        <time>2023-04-28T13:41:08Z</time>
      </trkpt>
      <trkpt lat="43.47731" lon="6.28097">
        <ele>161</ele>
        <time>2023-04-28T13:41:09Z</time>
      </trkpt>
      <trkpt lat="43.47731" lon="6.28097">
        <ele>161</ele>
        <time>2023-04-28T13:41:10Z</time>
      </trkpt>
      <trkpt lat="43.47731" lon="6.28097">
        <ele>161</ele>
        <time>2023-04-28T13:41:11Z</time>
      </trkpt>
      <trkpt lat="43.47731" lon="6.28097">
        <ele>161</ele>
        <time>2023-04-28T13:41:12Z</time>
      </trkpt>
      <trkpt lat="43.47731" lon="6.28097">
        <ele>161</ele>
        <time>2023-04-28T13:41:13Z</time>
      </trkpt>
      <trkpt lat="43.47731" lon="6.28097">
        <ele>161</ele>
        <time>2023-04-28T13:41:14Z</time>
      </trkpt>
      <trkpt lat="43.47731" lon="6.28097">
        <ele>161</ele>
        <time>2023-04-28T13:41:15Z</time>
      </trkpt>
      <trkpt lat="43.47731" lon="6.28097">
        <ele>161</ele>
        <time>2023-04-28T13:41:16Z</time>
      </trkpt>
      <trkpt lat="43.47731" lon="6.28097">
        <ele>161</ele>
        <time>2023-04-28T13:41:17Z</time>
      </trkpt>
      <trkpt lat="43.47731" lon="6.28097">
        <ele>161</ele>
        <time>2023-04-28T13:41:18Z</time>
      </trkpt>
      <trkpt lat="43.47731" lon="6.28097">
        <ele>161</ele>
        <time>2023-04-28T13:41:19Z</time>
      </trkpt>
      <trkpt lat="43.47731" lon="6.28097">
        <ele>161</ele>
        <time>2023-04-28T13:41:20Z</time>
      </trkpt>
      <trkpt lat="43.47731" lon="6.28097">
        <ele>161</ele>
        <time>2023-04-28T13:41:21Z</time>
      </trkpt>
      <trkpt lat="43.47731" lon="6.28097">
        <ele>161</ele>
        <time>2023-04-28T13:41:22Z</time>
      </trkpt>
      <trkpt lat="43.47731" lon="6.28097">
        <ele>161</ele>
        <time>2023-04-28T13:41:23Z</time>
      </trkpt>
      <trkpt lat="43.47731" lon="6.28097">
        <ele>161</ele>
        <time>2023-04-28T13:41:24Z</time>
      </trkpt>
      <trkpt lat="43.47731" lon="6.28097">
        <ele>161</ele>
        <time>2023-04-28T13:41:25Z</time>
      </trkpt>
      <trkpt lat="43.47731" lon="6.28097">
        <ele>161</ele>
        <time>2023-04-28T13:41:26Z</time>
      </trkpt>
      <trkpt lat="43.47731" lon="6.28097">
        <ele>161</ele>
        <time>2023-04-28T13:41:27Z</time>
      </trkpt>
      <trkpt lat="43.47731" lon="6.28097">
        <ele>161</ele>
        <time>2023-04-28T13:41:28Z</time>
      </trkpt>
      <trkpt lat="43.47731" lon="6.28097">
        <ele>161</ele>
        <time>2023-04-28T13:41:29Z</time>
      </trkpt>
      <trkpt lat="43.47731" lon="6.28097">
        <ele>161</ele>
        <time>2023-04-28T13:41:30Z</time>
      </trkpt>
      <trkpt lat="43.47731" lon="6.28097">
        <ele>161</ele>
        <time>2023-04-28T13:41:31Z</time>
      </trkpt>
      <trkpt lat="43.47731" lon="6.28097">
        <ele>161</ele>
        <time>2023-04-28T13:41:32Z</time>
      </trkpt>
      <trkpt lat="43.47731" lon="6.28095">
        <ele>161</ele>
        <time>2023-04-28T13:41:33Z</time>
      </trkpt>
      <trkpt lat="43.47729" lon="6.28096">
        <ele>161</ele>
        <time>2023-04-28T13:41:34Z</time>
      </trkpt>
      <trkpt lat="43.4773" lon="6.28097">
        <ele>161</ele>
        <time>2023-04-28T13:41:35Z</time>
      </trkpt>
      <trkpt lat="43.4773" lon="6.28096">
        <ele>161</ele>
        <time>2023-04-28T13:41:36Z</time>
      </trkpt>
      <trkpt lat="43.4773" lon="6.28096">
        <ele>161</ele>
        <time>2023-04-28T13:41:37Z</time>
      </trkpt>
      <trkpt lat="43.47731" lon="6.28095">
        <ele>161</ele>
        <time>2023-04-28T13:41:38Z</time>
      </trkpt>
      <trkpt lat="43.47731" lon="6.28095">
        <ele>161</ele>
        <time>2023-04-28T13:41:39Z</time>
      </trkpt>
      <trkpt lat="43.47731" lon="6.28095">
        <ele>161</ele>
        <time>2023-04-28T13:41:40Z</time>
      </trkpt>
      <trkpt lat="43.47731" lon="6.28095">
        <ele>161</ele>
        <time>2023-04-28T13:41:41Z</time>
      </trkpt>
      <trkpt lat="43.47731" lon="6.28095">
        <ele>161</ele>
        <time>2023-04-28T13:41:42Z</time>
      </trkpt>
      <trkpt lat="43.47731" lon="6.28095">
        <ele>161</ele>
        <time>2023-04-28T13:41:43Z</time>
      </trkpt>
      <trkpt lat="43.47731" lon="6.28095">
        <ele>161</ele>
        <time>2023-04-28T13:41:44Z</time>
      </trkpt>
      <trkpt lat="43.47731" lon="6.28095">
        <ele>160</ele>
        <time>2023-04-28T13:41:45Z</time>
      </trkpt>
      <trkpt lat="43.47731" lon="6.28095">
        <ele>160</ele>
        <time>2023-04-28T13:41:46Z</time>
      </trkpt>
      <trkpt lat="43.47731" lon="6.28095">
        <ele>160</ele>
        <time>2023-04-28T13:41:47Z</time>
      </trkpt>
      <trkpt lat="43.47731" lon="6.28095">
        <ele>160</ele>
        <time>2023-04-28T13:41:48Z</time>
      </trkpt>
      <trkpt lat="43.47731" lon="6.28095">
        <ele>160</ele>
        <time>2023-04-28T13:41:49Z</time>
      </trkpt>
      <trkpt lat="43.47731" lon="6.28095">
        <ele>160</ele>
        <time>2023-04-28T13:41:50Z</time>
      </trkpt>
      <trkpt lat="43.47731" lon="6.28095">
        <ele>160</ele>
        <time>2023-04-28T13:41:51Z</time>
      </trkpt>
      <trkpt lat="43.47731" lon="6.28095">
        <ele>160</ele>
        <time>2023-04-28T13:41:52Z</time>
      </trkpt>
      <trkpt lat="43.47731" lon="6.28095">
        <ele>160</ele>
        <time>2023-04-28T13:41:53Z</time>
      </trkpt>
      <trkpt lat="43.47731" lon="6.28095">
        <ele>160</ele>
        <time>2023-04-28T13:41:54Z</time>
      </trkpt>
      <trkpt lat="43.47731" lon="6.28095">
        <ele>160</ele>
        <time>2023-04-28T13:41:55Z</time>
      </trkpt>
      <trkpt lat="43.47731" lon="6.28095">
        <ele>160</ele>
        <time>2023-04-28T13:41:56Z</time>
      </trkpt>
      <trkpt lat="43.47731" lon="6.28095">
        <ele>160</ele>
        <time>2023-04-28T13:41:57Z</time>
      </trkpt>
      <trkpt lat="43.47731" lon="6.28095">
        <ele>160</ele>
        <time>2023-04-28T13:41:58Z</time>
      </trkpt>
      <trkpt lat="43.47731" lon="6.28095">
        <ele>160</ele>
        <time>2023-04-28T13:41:59Z</time>
      </trkpt>
      <trkpt lat="43.47731" lon="6.28095">
        <ele>160</ele>
        <time>2023-04-28T13:42:00Z</time>
      </trkpt>
      <trkpt lat="43.47731" lon="6.28095">
        <ele>160</ele>
        <time>2023-04-28T13:42:01Z</time>
      </trkpt>
      <trkpt lat="43.47731" lon="6.28095">
        <ele>160</ele>
        <time>2023-04-28T13:42:02Z</time>
      </trkpt>
      <trkpt lat="43.47731" lon="6.28095">
        <ele>160</ele>
        <time>2023-04-28T13:42:03Z</time>
      </trkpt>
      <trkpt lat="43.47731" lon="6.28095">
        <ele>160</ele>
        <time>2023-04-28T13:42:04Z</time>
      </trkpt>
      <trkpt lat="43.47731" lon="6.28095">
        <ele>160</ele>
        <time>2023-04-28T13:42:05Z</time>
      </trkpt>
      <trkpt lat="43.47731" lon="6.28095">
        <ele>160</ele>
        <time>2023-04-28T13:42:06Z</time>
      </trkpt>
      <trkpt lat="43.47731" lon="6.28095">
        <ele>160</ele>
        <time>2023-04-28T13:42:07Z</time>
      </trkpt>
      <trkpt lat="43.47731" lon="6.28095">
        <ele>160</ele>
        <time>2023-04-28T13:42:08Z</time>
      </trkpt>
      <trkpt lat="43.47731" lon="6.28095">
        <ele>160</ele>
        <time>2023-04-28T13:42:09Z</time>
      </trkpt>
      <trkpt lat="43.47731" lon="6.28095">
        <ele>160</ele>
        <time>2023-04-28T13:42:10Z</time>
      </trkpt>
      <trkpt lat="43.47731" lon="6.28095">
        <ele>160</ele>
        <time>2023-04-28T13:42:11Z</time>
      </trkpt>
      <trkpt lat="43.47731" lon="6.28095">
        <ele>160</ele>
        <time>2023-04-28T13:42:12Z</time>
      </trkpt>
      <trkpt lat="43.47731" lon="6.28095">
        <ele>160</ele>
        <time>2023-04-28T13:42:13Z</time>
      </trkpt>
      <trkpt lat="43.47731" lon="6.28095">
        <ele>160</ele>
        <time>2023-04-28T13:42:14Z</time>
      </trkpt>
      <trkpt lat="43.47731" lon="6.28095">
        <ele>160</ele>
        <time>2023-04-28T13:42:15Z</time>
      </trkpt>
      <trkpt lat="43.47731" lon="6.28095">
        <ele>160</ele>
        <time>2023-04-28T13:42:16Z</time>
      </trkpt>
      <trkpt lat="43.47731" lon="6.28095">
        <ele>160</ele>
        <time>2023-04-28T13:42:17Z</time>
      </trkpt>
      <trkpt lat="43.47731" lon="6.28095">
        <ele>160</ele>
        <time>2023-04-28T13:42:18Z</time>
      </trkpt>
      <trkpt lat="43.47731" lon="6.28095">
        <ele>160</ele>
        <time>2023-04-28T13:42:19Z</time>
      </trkpt>
      <trkpt lat="43.47731" lon="6.28095">
        <ele>160</ele>
        <time>2023-04-28T13:42:20Z</time>
      </trkpt>
      <trkpt lat="43.47731" lon="6.28095">
        <ele>160</ele>
        <time>2023-04-28T13:42:21Z</time>
      </trkpt>
      <trkpt lat="43.47731" lon="6.28095">
        <ele>160</ele>
        <time>2023-04-28T13:42:22Z</time>
      </trkpt>
      <trkpt lat="43.47731" lon="6.28095">
        <ele>160</ele>
        <time>2023-04-28T13:42:23Z</time>
      </trkpt>
      <trkpt lat="43.47731" lon="6.28095">
        <ele>160</ele>
        <time>2023-04-28T13:42:24Z</time>
      </trkpt>
      <trkpt lat="43.47731" lon="6.28095">
        <ele>160</ele>
        <time>2023-04-28T13:42:25Z</time>
      </trkpt>
      <trkpt lat="43.47731" lon="6.28095">
        <ele>160</ele>
        <time>2023-04-28T13:42:26Z</time>
      </trkpt>
      <trkpt lat="43.47731" lon="6.28095">
        <ele>160</ele>
        <time>2023-04-28T13:42:27Z</time>
      </trkpt>
      <trkpt lat="43.47731" lon="6.28095">
        <ele>160</ele>
        <time>2023-04-28T13:42:28Z</time>
      </trkpt>
      <trkpt lat="43.47731" lon="6.28095">
        <ele>160</ele>
        <time>2023-04-28T13:42:29Z</time>
      </trkpt>
      <trkpt lat="43.47731" lon="6.28095">
        <ele>160</ele>
        <time>2023-04-28T13:42:30Z</time>
      </trkpt>
      <trkpt lat="43.47731" lon="6.28095">
        <ele>160</ele>
        <time>2023-04-28T13:42:31Z</time>
      </trkpt>
      <trkpt lat="43.47731" lon="6.28095">
        <ele>160</ele>
        <time>2023-04-28T13:42:32Z</time>
      </trkpt>
      <trkpt lat="43.47731" lon="6.28095">
        <ele>160</ele>
        <time>2023-04-28T13:42:33Z</time>
      </trkpt>
      <trkpt lat="43.47731" lon="6.28095">
        <ele>160</ele>
        <time>2023-04-28T13:42:34Z</time>
      </trkpt>
      <trkpt lat="43.47731" lon="6.28095">
        <ele>160</ele>
        <time>2023-04-28T13:42:35Z</time>
      </trkpt>
      <trkpt lat="43.47731" lon="6.28095">
        <ele>160</ele>
        <time>2023-04-28T13:42:36Z</time>
      </trkpt>
      <trkpt lat="43.47731" lon="6.28095">
        <ele>160</ele>
        <time>2023-04-28T13:42:37Z</time>
      </trkpt>
      <trkpt lat="43.47731" lon="6.28095">
        <ele>160</ele>
        <time>2023-04-28T13:42:38Z</time>
      </trkpt>
      <trkpt lat="43.47731" lon="6.28095">
        <ele>160</ele>
        <time>2023-04-28T13:42:39Z</time>
      </trkpt>
      <trkpt lat="43.47731" lon="6.28095">
        <ele>160</ele>
        <time>2023-04-28T13:42:40Z</time>
      </trkpt>
      <trkpt lat="43.47731" lon="6.28095">
        <ele>160</ele>
        <time>2023-04-28T13:42:41Z</time>
      </trkpt>
      <trkpt lat="43.47731" lon="6.28095">
        <ele>160</ele>
        <time>2023-04-28T13:42:42Z</time>
      </trkpt>
      <trkpt lat="43.47731" lon="6.28095">
        <ele>160</ele>
        <time>2023-04-28T13:42:43Z</time>
      </trkpt>
      <trkpt lat="43.47731" lon="6.28095">
        <ele>160</ele>
        <time>2023-04-28T13:42:44Z</time>
      </trkpt>
      <trkpt lat="43.47731" lon="6.28095">
        <ele>160</ele>
        <time>2023-04-28T13:42:45Z</time>
      </trkpt>
      <trkpt lat="43.47731" lon="6.28095">
        <ele>160</ele>
        <time>2023-04-28T13:42:46Z</time>
      </trkpt>
      <trkpt lat="43.47731" lon="6.28095">
        <ele>160</ele>
        <time>2023-04-28T13:42:47Z</time>
      </trkpt>
      <trkpt lat="43.47731" lon="6.28095">
        <ele>160</ele>
        <time>2023-04-28T13:42:48Z</time>
      </trkpt>
      <trkpt lat="43.47731" lon="6.28095">
        <ele>160</ele>
        <time>2023-04-28T13:42:49Z</time>
      </trkpt>
      <trkpt lat="43.47731" lon="6.28095">
        <ele>160</ele>
        <time>2023-04-28T13:42:50Z</time>
      </trkpt>
      <trkpt lat="43.47731" lon="6.28095">
        <ele>160</ele>
        <time>2023-04-28T13:42:51Z</time>
      </trkpt>
      <trkpt lat="43.47731" lon="6.28095">
        <ele>160</ele>
        <time>2023-04-28T13:42:52Z</time>
      </trkpt>
      <trkpt lat="43.47731" lon="6.28095">
        <ele>160</ele>
        <time>2023-04-28T13:42:53Z</time>
      </trkpt>
      <trkpt lat="43.47731" lon="6.28095">
        <ele>160</ele>
        <time>2023-04-28T13:42:54Z</time>
      </trkpt>
      <trkpt lat="43.47731" lon="6.28095">
        <ele>160</ele>
        <time>2023-04-28T13:42:55Z</time>
      </trkpt>
      <trkpt lat="43.47731" lon="6.28095">
        <ele>160</ele>
        <time>2023-04-28T13:42:56Z</time>
      </trkpt>
      <trkpt lat="43.47731" lon="6.28095">
        <ele>160</ele>
        <time>2023-04-28T13:42:57Z</time>
      </trkpt>
      <trkpt lat="43.47731" lon="6.28095">
        <ele>160</ele>
        <time>2023-04-28T13:42:58Z</time>
      </trkpt>
      <trkpt lat="43.47731" lon="6.28095">
        <ele>160</ele>
        <time>2023-04-28T13:42:59Z</time>
      </trkpt>
      <trkpt lat="43.47731" lon="6.28095">
        <ele>159</ele>
        <time>2023-04-28T13:43:00Z</time>
      </trkpt>
      <trkpt lat="43.47731" lon="6.28095">
        <ele>159</ele>
        <time>2023-04-28T13:43:01Z</time>
      </trkpt>
      <trkpt lat="43.47731" lon="6.28095">
        <ele>159</ele>
        <time>2023-04-28T13:43:02Z</time>
      </trkpt>
      <trkpt lat="43.47731" lon="6.28095">
        <ele>159</ele>
        <time>2023-04-28T13:43:03Z</time>
      </trkpt>
      <trkpt lat="43.47731" lon="6.28095">
        <ele>159</ele>
        <time>2023-04-28T13:43:04Z</time>
      </trkpt>
      <trkpt lat="43.47731" lon="6.28095">
        <ele>159</ele>
        <time>2023-04-28T13:43:05Z</time>
      </trkpt>
      <trkpt lat="43.47731" lon="6.28095">
        <ele>159</ele>
        <time>2023-04-28T13:43:06Z</time>
      </trkpt>
      <trkpt lat="43.47731" lon="6.28095">
        <ele>159</ele>
        <time>2023-04-28T13:43:07Z</time>
      </trkpt>
      <trkpt lat="43.47731" lon="6.28095">
        <ele>159</ele>
        <time>2023-04-28T13:43:08Z</time>
      </trkpt>
      <trkpt lat="43.47731" lon="6.28095">
        <ele>159</ele>
        <time>2023-04-28T13:43:09Z</time>
      </trkpt>
      <trkpt lat="43.47731" lon="6.28095">
        <ele>159</ele>
        <time>2023-04-28T13:43:10Z</time>
      </trkpt>
      <trkpt lat="43.47731" lon="6.28095">
        <ele>159</ele>
        <time>2023-04-28T13:43:11Z</time>
      </trkpt>
      <trkpt lat="43.47731" lon="6.28095">
        <ele>159</ele>
        <time>2023-04-28T13:43:12Z</time>
      </trkpt>
      <trkpt lat="43.47731" lon="6.28095">
        <ele>159</ele>
        <time>2023-04-28T13:43:13Z</time>
      </trkpt>
      <trkpt lat="43.47731" lon="6.28095">
        <ele>159</ele>
        <time>2023-04-28T13:43:14Z</time>
      </trkpt>
      <trkpt lat="43.47731" lon="6.28095">
        <ele>159</ele>
        <time>2023-04-28T13:43:15Z</time>
      </trkpt>
      <trkpt lat="43.47731" lon="6.28095">
        <ele>159</ele>
        <time>2023-04-28T13:43:16Z</time>
      </trkpt>
      <trkpt lat="43.47731" lon="6.28095">
        <ele>159</ele>
        <time>2023-04-28T13:43:17Z</time>
      </trkpt>
      <trkpt lat="43.47731" lon="6.28095">
        <ele>159</ele>
        <time>2023-04-28T13:43:18Z</time>
      </trkpt>
      <trkpt lat="43.47731" lon="6.28095">
        <ele>159</ele>
        <time>2023-04-28T13:43:19Z</time>
      </trkpt>
      <trkpt lat="43.47731" lon="6.28095">
        <ele>159</ele>
        <time>2023-04-28T13:43:20Z</time>
      </trkpt>
      <trkpt lat="43.47731" lon="6.28095">
        <ele>159</ele>
        <time>2023-04-28T13:43:21Z</time>
      </trkpt>
      <trkpt lat="43.47731" lon="6.28095">
        <ele>159</ele>
        <time>2023-04-28T13:43:22Z</time>
      </trkpt>
      <trkpt lat="43.47731" lon="6.28095">
        <ele>159</ele>
        <time>2023-04-28T13:43:23Z</time>
      </trkpt>
      <trkpt lat="43.47731" lon="6.28095">
        <ele>159</ele>
        <time>2023-04-28T13:43:24Z</time>
      </trkpt>
      <trkpt lat="43.47731" lon="6.28095">
        <ele>159</ele>
        <time>2023-04-28T13:43:25Z</time>
      </trkpt>
      <trkpt lat="43.47731" lon="6.28095">
        <ele>159</ele>
        <time>2023-04-28T13:43:26Z</time>
      </trkpt>
      <trkpt lat="43.47731" lon="6.28095">
        <ele>159</ele>
        <time>2023-04-28T13:43:27Z</time>
      </trkpt>
      <trkpt lat="43.47731" lon="6.28095">
        <ele>159</ele>
        <time>2023-04-28T13:43:28Z</time>
      </trkpt>
      <trkpt lat="43.47731" lon="6.28095">
        <ele>159</ele>
        <time>2023-04-28T13:43:29Z</time>
      </trkpt>
      <trkpt lat="43.47731" lon="6.28095">
        <ele>159</ele>
        <time>2023-04-28T13:43:30Z</time>
      </trkpt>
      <trkpt lat="43.47731" lon="6.28095">
        <ele>159</ele>
        <time>2023-04-28T13:43:31Z</time>
      </trkpt>
      <trkpt lat="43.47731" lon="6.28095">
        <ele>159</ele>
        <time>2023-04-28T13:43:32Z</time>
      </trkpt>
      <trkpt lat="43.47731" lon="6.28095">
        <ele>159</ele>
        <time>2023-04-28T13:43:33Z</time>
      </trkpt>
      <trkpt lat="43.47731" lon="6.28095">
        <ele>159</ele>
        <time>2023-04-28T13:43:34Z</time>
      </trkpt>
      <trkpt lat="43.47731" lon="6.28095">
        <ele>159</ele>
        <time>2023-04-28T13:43:35Z</time>
      </trkpt>
      <trkpt lat="43.47731" lon="6.28095">
        <ele>159</ele>
        <time>2023-04-28T13:43:36Z</time>
      </trkpt>
      <trkpt lat="43.47731" lon="6.28095">
        <ele>159</ele>
        <time>2023-04-28T13:43:37Z</time>
      </trkpt>
      <trkpt lat="43.47731" lon="6.28095">
        <ele>159</ele>
        <time>2023-04-28T13:43:38Z</time>
      </trkpt>
      <trkpt lat="43.47733" lon="6.28093">
        <ele>159</ele>
        <time>2023-04-28T13:43:39Z</time>
      </trkpt>
      <trkpt lat="43.47733" lon="6.28093">
        <ele>159</ele>
        <time>2023-04-28T13:43:40Z</time>
      </trkpt>
      <trkpt lat="43.47733" lon="6.28093">
        <ele>159</ele>
        <time>2023-04-28T13:43:41Z</time>
      </trkpt>
      <trkpt lat="43.47733" lon="6.28093">
        <ele>159</ele>
        <time>2023-04-28T13:43:42Z</time>
      </trkpt>
      <trkpt lat="43.47733" lon="6.28093">
        <ele>159</ele>
        <time>2023-04-28T13:43:43Z</time>
      </trkpt>
      <trkpt lat="43.47733" lon="6.28093">
        <ele>159</ele>
        <time>2023-04-28T13:43:44Z</time>
      </trkpt>
      <trkpt lat="43.47733" lon="6.28093">
        <ele>159</ele>
        <time>2023-04-28T13:43:45Z</time>
      </trkpt>
      <trkpt lat="43.47733" lon="6.28093">
        <ele>159</ele>
        <time>2023-04-28T13:43:46Z</time>
      </trkpt>
      <trkpt lat="43.47733" lon="6.28093">
        <ele>159</ele>
        <time>2023-04-28T13:43:47Z</time>
      </trkpt>
      <trkpt lat="43.47733" lon="6.28093">
        <ele>159</ele>
        <time>2023-04-28T13:43:48Z</time>
      </trkpt>
      <trkpt lat="43.47733" lon="6.28093">
        <ele>159</ele>
        <time>2023-04-28T13:43:49Z</time>
      </trkpt>
      <trkpt lat="43.47733" lon="6.28093">
        <ele>159</ele>
        <time>2023-04-28T13:43:50Z</time>
      </trkpt>
      <trkpt lat="43.47733" lon="6.28093">
        <ele>159</ele>
        <time>2023-04-28T13:43:51Z</time>
      </trkpt>
      <trkpt lat="43.47733" lon="6.28093">
        <ele>159</ele>
        <time>2023-04-28T13:43:52Z</time>
      </trkpt>
      <trkpt lat="43.47733" lon="6.28093">
        <ele>159</ele>
        <time>2023-04-28T13:43:53Z</time>
      </trkpt>
      <trkpt lat="43.47733" lon="6.28093">
        <ele>159</ele>
        <time>2023-04-28T13:43:54Z</time>
      </trkpt>
      <trkpt lat="43.47733" lon="6.28093">
        <ele>159</ele>
        <time>2023-04-28T13:43:55Z</time>
      </trkpt>
      <trkpt lat="43.47733" lon="6.28093">
        <ele>159</ele>
        <time>2023-04-28T13:43:56Z</time>
      </trkpt>
      <trkpt lat="43.47733" lon="6.28093">
        <ele>159</ele>
        <time>2023-04-28T13:43:57Z</time>
      </trkpt>
      <trkpt lat="43.47733" lon="6.28093">
        <ele>159</ele>
        <time>2023-04-28T13:43:58Z</time>
      </trkpt>
      <trkpt lat="43.47733" lon="6.28093">
        <ele>159</ele>
        <time>2023-04-28T13:43:59Z</time>
      </trkpt>
      <trkpt lat="43.47733" lon="6.28093">
        <ele>159</ele>
        <time>2023-04-28T13:44:00Z</time>
      </trkpt>
      <trkpt lat="43.47733" lon="6.28093">
        <ele>159</ele>
        <time>2023-04-28T13:44:01Z</time>
      </trkpt>
      <trkpt lat="43.47733" lon="6.28093">
        <ele>159</ele>
        <time>2023-04-28T13:44:02Z</time>
      </trkpt>
      <trkpt lat="43.47733" lon="6.28093">
        <ele>159</ele>
        <time>2023-04-28T13:44:03Z</time>
      </trkpt>
      <trkpt lat="43.47733" lon="6.28093">
        <ele>159</ele>
        <time>2023-04-28T13:44:04Z</time>
      </trkpt>
      <trkpt lat="43.47733" lon="6.28093">
        <ele>159</ele>
        <time>2023-04-28T13:44:05Z</time>
      </trkpt>
      <trkpt lat="43.47733" lon="6.28093">
        <ele>159</ele>
        <time>2023-04-28T13:44:06Z</time>
      </trkpt>
      <trkpt lat="43.47734" lon="6.28092">
        <ele>159</ele>
        <time>2023-04-28T13:44:07Z</time>
      </trkpt>
      <trkpt lat="43.47734" lon="6.28092">
        <ele>159</ele>
        <time>2023-04-28T13:44:08Z</time>
      </trkpt>
      <trkpt lat="43.47733" lon="6.28091">
        <ele>159</ele>
        <time>2023-04-28T13:44:09Z</time>
      </trkpt>
      <trkpt lat="43.47733" lon="6.28091">
        <ele>159</ele>
        <time>2023-04-28T13:44:10Z</time>
      </trkpt>
      <trkpt lat="43.47733" lon="6.2809">
        <ele>159</ele>
        <time>2023-04-28T13:44:11Z</time>
      </trkpt>
      <trkpt lat="43.47733" lon="6.2809">
        <ele>159</ele>
        <time>2023-04-28T13:44:12Z</time>
      </trkpt>
      <trkpt lat="43.47733" lon="6.28089">
        <ele>159</ele>
        <time>2023-04-28T13:44:13Z</time>
      </trkpt>
      <trkpt lat="43.47733" lon="6.28089">
        <ele>159</ele>
        <time>2023-04-28T13:44:14Z</time>
      </trkpt>
      <trkpt lat="43.47732" lon="6.28089">
        <ele>159</ele>
        <time>2023-04-28T13:44:15Z</time>
      </trkpt>
      <trkpt lat="43.47732" lon="6.28089">
        <ele>159</ele>
        <time>2023-04-28T13:44:16Z</time>
      </trkpt>
      <trkpt lat="43.47732" lon="6.28089">
        <ele>159</ele>
        <time>2023-04-28T13:44:17Z</time>
      </trkpt>
      <trkpt lat="43.47732" lon="6.28089">
        <ele>159</ele>
        <time>2023-04-28T13:44:18Z</time>
      </trkpt>
      <trkpt lat="43.47732" lon="6.28089">
        <ele>159</ele>
        <time>2023-04-28T13:44:19Z</time>
      </trkpt>
      <trkpt lat="43.47732" lon="6.28089">
        <ele>159</ele>
        <time>2023-04-28T13:44:20Z</time>
      </trkpt>
      <trkpt lat="43.47731" lon="6.28087">
        <ele>159</ele>
        <time>2023-04-28T13:44:21Z</time>
      </trkpt>
      <trkpt lat="43.47731" lon="6.28087">
        <ele>159</ele>
        <time>2023-04-28T13:44:22Z</time>
      </trkpt>
      <trkpt lat="43.47732" lon="6.28086">
        <ele>159</ele>
        <time>2023-04-28T13:44:23Z</time>
      </trkpt>
      <trkpt lat="43.47732" lon="6.28085">
        <ele>159</ele>
        <time>2023-04-28T13:44:24Z</time>
      </trkpt>
      <trkpt lat="43.47733" lon="6.28085">
        <ele>159</ele>
        <time>2023-04-28T13:44:25Z</time>
      </trkpt>
      <trkpt lat="43.47733" lon="6.28085">
        <ele>159</ele>
        <time>2023-04-28T13:44:26Z</time>
      </trkpt>
      <trkpt lat="43.47734" lon="6.28084">
        <ele>159</ele>
        <time>2023-04-28T13:44:27Z</time>
      </trkpt>
      <trkpt lat="43.47734" lon="6.28084">
        <ele>159</ele>
        <time>2023-04-28T13:44:28Z</time>
      </trkpt>
      <trkpt lat="43.47735" lon="6.28084">
        <ele>159</ele>
        <time>2023-04-28T13:44:29Z</time>
      </trkpt>
      <trkpt lat="43.47735" lon="6.28084">
        <ele>159</ele>
        <time>2023-04-28T13:44:30Z</time>
      </trkpt>
      <trkpt lat="43.47736" lon="6.28083">
        <ele>159</ele>
        <time>2023-04-28T13:44:31Z</time>
      </trkpt>
      <trkpt lat="43.47736" lon="6.28083">
        <ele>159</ele>
        <time>2023-04-28T13:44:32Z</time>
      </trkpt>
      <trkpt lat="43.47737" lon="6.28082">
        <ele>159</ele>
        <time>2023-04-28T13:44:33Z</time>
      </trkpt>
      <trkpt lat="43.47737" lon="6.28082">
        <ele>159</ele>
        <time>2023-04-28T13:44:34Z</time>
      </trkpt>
      <trkpt lat="43.47737" lon="6.28081">
        <ele>159</ele>
        <time>2023-04-28T13:44:35Z</time>
      </trkpt>
      <trkpt lat="43.47737" lon="6.28081">
        <ele>159</ele>
        <time>2023-04-28T13:44:36Z</time>
      </trkpt>
      <trkpt lat="43.47737" lon="6.28081">
        <ele>159</ele>
        <time>2023-04-28T13:44:37Z</time>
      </trkpt>
      <trkpt lat="43.47738" lon="6.28081">
        <ele>159</ele>
        <time>2023-04-28T13:44:38Z</time>
      </trkpt>
      <trkpt lat="43.47738" lon="6.28081">
        <ele>159</ele>
        <time>2023-04-28T13:44:39Z</time>
      </trkpt>
      <trkpt lat="43.47738" lon="6.2808">
        <ele>159</ele>
        <time>2023-04-28T13:44:40Z</time>
      </trkpt>
      <trkpt lat="43.47738" lon="6.2808">
        <ele>159</ele>
        <time>2023-04-28T13:44:41Z</time>
      </trkpt>
      <trkpt lat="43.47738" lon="6.28081">
        <ele>158</ele>
        <time>2023-04-28T13:44:42Z</time>
      </trkpt>
      <trkpt lat="43.47738" lon="6.28081">
        <ele>158</ele>
        <time>2023-04-28T13:44:43Z</time>
      </trkpt>
      <trkpt lat="43.47739" lon="6.28081">
        <ele>158</ele>
        <time>2023-04-28T13:44:44Z</time>
      </trkpt>
      <trkpt lat="43.47739" lon="6.28081">
        <ele>158</ele>
        <time>2023-04-28T13:44:45Z</time>
      </trkpt>
      <trkpt lat="43.47739" lon="6.28081">
        <ele>158</ele>
        <time>2023-04-28T13:44:46Z</time>
      </trkpt>
      <trkpt lat="43.47739" lon="6.2808">
        <ele>158</ele>
        <time>2023-04-28T13:44:47Z</time>
      </trkpt>
      <trkpt lat="43.47739" lon="6.28079">
        <ele>158</ele>
        <time>2023-04-28T13:44:48Z</time>
      </trkpt>
      <trkpt lat="43.4774" lon="6.28079">
        <ele>158</ele>
        <time>2023-04-28T13:44:49Z</time>
      </trkpt>
      <trkpt lat="43.4774" lon="6.28078">
        <ele>158</ele>
        <time>2023-04-28T13:44:50Z</time>
      </trkpt>
      <trkpt lat="43.4774" lon="6.28078">
        <ele>158</ele>
        <time>2023-04-28T13:44:51Z</time>
      </trkpt>
      <trkpt lat="43.47741" lon="6.28077">
        <ele>158</ele>
        <time>2023-04-28T13:44:52Z</time>
      </trkpt>
      <trkpt lat="43.47741" lon="6.28077">
        <ele>158</ele>
        <time>2023-04-28T13:44:53Z</time>
      </trkpt>
      <trkpt lat="43.47741" lon="6.28076">
        <ele>158</ele>
        <time>2023-04-28T13:44:54Z</time>
      </trkpt>
      <trkpt lat="43.47741" lon="6.28076">
        <ele>158</ele>
        <time>2023-04-28T13:44:55Z</time>
      </trkpt>
      <trkpt lat="43.47742" lon="6.28075">
        <ele>158</ele>
        <time>2023-04-28T13:44:56Z</time>
      </trkpt>
      <trkpt lat="43.47742" lon="6.28074">
        <ele>158</ele>
        <time>2023-04-28T13:44:57Z</time>
      </trkpt>
      <trkpt lat="43.47742" lon="6.28073">
        <ele>158</ele>
        <time>2023-04-28T13:44:58Z</time>
      </trkpt>
      <trkpt lat="43.47743" lon="6.28072">
        <ele>158</ele>
        <time>2023-04-28T13:44:59Z</time>
      </trkpt>
      <trkpt lat="43.47743" lon="6.28072">
        <ele>157</ele>
        <time>2023-04-28T13:45:00Z</time>
      </trkpt>
      <trkpt lat="43.47743" lon="6.28071">
        <ele>157</ele>
        <time>2023-04-28T13:45:01Z</time>
      </trkpt>
      <trkpt lat="43.47744" lon="6.2807">
        <ele>157</ele>
        <time>2023-04-28T13:45:02Z</time>
      </trkpt>
      <trkpt lat="43.47744" lon="6.28068">
        <ele>157</ele>
        <time>2023-04-28T13:45:03Z</time>
      </trkpt>
      <trkpt lat="43.47745" lon="6.28066">
        <ele>157</ele>
        <time>2023-04-28T13:45:04Z</time>
      </trkpt>
      <trkpt lat="43.47745" lon="6.28065">
        <ele>157</ele>
        <time>2023-04-28T13:45:05Z</time>
      </trkpt>
      <trkpt lat="43.47746" lon="6.28063">
        <ele>157</ele>
        <time>2023-04-28T13:45:06Z</time>
      </trkpt>
      <trkpt lat="43.47746" lon="6.28062">
        <ele>157</ele>
        <time>2023-04-28T13:45:07Z</time>
      </trkpt>
      <trkpt lat="43.47746" lon="6.2806">
        <ele>157</ele>
        <time>2023-04-28T13:45:08Z</time>
      </trkpt>
      <trkpt lat="43.47747" lon="6.28059">
        <ele>157</ele>
        <time>2023-04-28T13:45:09Z</time>
      </trkpt>
      <trkpt lat="43.47747" lon="6.28058">
        <ele>157</ele>
        <time>2023-04-28T13:45:10Z</time>
      </trkpt>
      <trkpt lat="43.47748" lon="6.28056">
        <ele>156</ele>
        <time>2023-04-28T13:45:11Z</time>
      </trkpt>
      <trkpt lat="43.47748" lon="6.28055">
        <ele>156</ele>
        <time>2023-04-28T13:45:12Z</time>
      </trkpt>
      <trkpt lat="43.47749" lon="6.28053">
        <ele>157</ele>
        <time>2023-04-28T13:45:13Z</time>
      </trkpt>
      <trkpt lat="43.4775" lon="6.28051">
        <ele>157</ele>
        <time>2023-04-28T13:45:14Z</time>
      </trkpt>
      <trkpt lat="43.47751" lon="6.28049">
        <ele>157</ele>
        <time>2023-04-28T13:45:15Z</time>
      </trkpt>
      <trkpt lat="43.47752" lon="6.28047">
        <ele>158</ele>
        <time>2023-04-28T13:45:16Z</time>
      </trkpt>
      <trkpt lat="43.47754" lon="6.28045">
        <ele>158</ele>
        <time>2023-04-28T13:45:17Z</time>
      </trkpt>
      <trkpt lat="43.47755" lon="6.28044">
        <ele>158</ele>
        <time>2023-04-28T13:45:18Z</time>
      </trkpt>
      <trkpt lat="43.47755" lon="6.28042">
        <ele>158</ele>
        <time>2023-04-28T13:45:19Z</time>
      </trkpt>
      <trkpt lat="43.47756" lon="6.2804">
        <ele>158</ele>
        <time>2023-04-28T13:45:20Z</time>
      </trkpt>
      <trkpt lat="43.47757" lon="6.28038">
        <ele>159</ele>
        <time>2023-04-28T13:45:21Z</time>
      </trkpt>
      <trkpt lat="43.47758" lon="6.28037">
        <ele>159</ele>
        <time>2023-04-28T13:45:22Z</time>
      </trkpt>
      <trkpt lat="43.47759" lon="6.28035">
        <ele>159</ele>
        <time>2023-04-28T13:45:23Z</time>
      </trkpt>
      <trkpt lat="43.47759" lon="6.28034">
        <ele>159</ele>
        <time>2023-04-28T13:45:24Z</time>
      </trkpt>
      <trkpt lat="43.4776" lon="6.28033">
        <ele>158</ele>
        <time>2023-04-28T13:45:25Z</time>
      </trkpt>
      <trkpt lat="43.4776" lon="6.28032">
        <ele>158</ele>
        <time>2023-04-28T13:45:26Z</time>
      </trkpt>
      <trkpt lat="43.4776" lon="6.28031">
        <ele>158</ele>
        <time>2023-04-28T13:45:27Z</time>
      </trkpt>
      <trkpt lat="43.4776" lon="6.28031">
        <ele>158</ele>
        <time>2023-04-28T13:45:28Z</time>
      </trkpt>
      <trkpt lat="43.4776" lon="6.2803">
        <ele>158</ele>
        <time>2023-04-28T13:45:29Z</time>
      </trkpt>
      <trkpt lat="43.47761" lon="6.28029">
        <ele>158</ele>
        <time>2023-04-28T13:45:30Z</time>
      </trkpt>
      <trkpt lat="43.47761" lon="6.28028">
        <ele>158</ele>
        <time>2023-04-28T13:45:31Z</time>
      </trkpt>
      <trkpt lat="43.47761" lon="6.28027">
        <ele>158</ele>
        <time>2023-04-28T13:45:32Z</time>
      </trkpt>
      <trkpt lat="43.47761" lon="6.28025">
        <ele>158</ele>
        <time>2023-04-28T13:45:33Z</time>
      </trkpt>
      <trkpt lat="43.47761" lon="6.28024">
        <ele>158</ele>
        <time>2023-04-28T13:45:34Z</time>
      </trkpt>
      <trkpt lat="43.47762" lon="6.28023">
        <ele>158</ele>
        <time>2023-04-28T13:45:35Z</time>
      </trkpt>
      <trkpt lat="43.47762" lon="6.28022">
        <ele>158</ele>
        <time>2023-04-28T13:45:36Z</time>
      </trkpt>
      <trkpt lat="43.47762" lon="6.28021">
        <ele>158</ele>
        <time>2023-04-28T13:45:37Z</time>
      </trkpt>
      <trkpt lat="43.47763" lon="6.2802">
        <ele>158</ele>
        <time>2023-04-28T13:45:38Z</time>
      </trkpt>
      <trkpt lat="43.47764" lon="6.2802">
        <ele>158</ele>
        <time>2023-04-28T13:45:39Z</time>
      </trkpt>
      <trkpt lat="43.47766" lon="6.2802">
        <ele>158</ele>
        <time>2023-04-28T13:45:40Z</time>
      </trkpt>
      <trkpt lat="43.47768" lon="6.28019">
        <ele>158</ele>
        <time>2023-04-28T13:45:41Z</time>
      </trkpt>
      <trkpt lat="43.47768" lon="6.28018">
        <ele>158</ele>
        <time>2023-04-28T13:45:42Z</time>
      </trkpt>
      <trkpt lat="43.47769" lon="6.28016">
        <ele>159</ele>
        <time>2023-04-28T13:45:43Z</time>
      </trkpt>
      <trkpt lat="43.47769" lon="6.28015">
        <ele>159</ele>
        <time>2023-04-28T13:45:44Z</time>
      </trkpt>
      <trkpt lat="43.47769" lon="6.28013">
        <ele>159</ele>
        <time>2023-04-28T13:45:45Z</time>
      </trkpt>
      <trkpt lat="43.47769" lon="6.28012">
        <ele>159</ele>
        <time>2023-04-28T13:45:46Z</time>
      </trkpt>
      <trkpt lat="43.47769" lon="6.28011">
        <ele>159</ele>
        <time>2023-04-28T13:45:47Z</time>
      </trkpt>
      <trkpt lat="43.47769" lon="6.28011">
        <ele>159</ele>
        <time>2023-04-28T13:45:48Z</time>
      </trkpt>
      <trkpt lat="43.47769" lon="6.28011">
        <ele>159</ele>
        <time>2023-04-28T13:45:49Z</time>
      </trkpt>
      <trkpt lat="43.47769" lon="6.28011">
        <ele>159</ele>
        <time>2023-04-28T13:45:50Z</time>
      </trkpt>
      <trkpt lat="43.47769" lon="6.28011">
        <ele>159</ele>
        <time>2023-04-28T13:45:51Z</time>
      </trkpt>
      <trkpt lat="43.4777" lon="6.2801">
        <ele>159</ele>
        <time>2023-04-28T13:45:52Z</time>
      </trkpt>
      <trkpt lat="43.4777" lon="6.28009">
        <ele>159</ele>
        <time>2023-04-28T13:45:53Z</time>
      </trkpt>
      <trkpt lat="43.4777" lon="6.28008">
        <ele>159</ele>
        <time>2023-04-28T13:45:54Z</time>
      </trkpt>
      <trkpt lat="43.47771" lon="6.28007">
        <ele>159</ele>
        <time>2023-04-28T13:45:55Z</time>
      </trkpt>
      <trkpt lat="43.47771" lon="6.28005">
        <ele>159</ele>
        <time>2023-04-28T13:45:56Z</time>
      </trkpt>
      <trkpt lat="43.47772" lon="6.28004">
        <ele>159</ele>
        <time>2023-04-28T13:45:57Z</time>
      </trkpt>
      <trkpt lat="43.47772" lon="6.28003">
        <ele>159</ele>
        <time>2023-04-28T13:45:58Z</time>
      </trkpt>
      <trkpt lat="43.47772" lon="6.28003">
        <ele>159</ele>
        <time>2023-04-28T13:45:59Z</time>
      </trkpt>
      <trkpt lat="43.47773" lon="6.28002">
        <ele>159</ele>
        <time>2023-04-28T13:46:00Z</time>
      </trkpt>
      <trkpt lat="43.47773" lon="6.28001">
        <ele>159</ele>
        <time>2023-04-28T13:46:01Z</time>
      </trkpt>
      <trkpt lat="43.47774" lon="6.28">
        <ele>159</ele>
        <time>2023-04-28T13:46:02Z</time>
      </trkpt>
      <trkpt lat="43.47774" lon="6.27999">
        <ele>159</ele>
        <time>2023-04-28T13:46:03Z</time>
      </trkpt>
      <trkpt lat="43.47775" lon="6.27997">
        <ele>159</ele>
        <time>2023-04-28T13:46:04Z</time>
      </trkpt>
      <trkpt lat="43.47775" lon="6.27996">
        <ele>159</ele>
        <time>2023-04-28T13:46:05Z</time>
      </trkpt>
      <trkpt lat="43.47776" lon="6.27994">
        <ele>159</ele>
        <time>2023-04-28T13:46:06Z</time>
      </trkpt>
      <trkpt lat="43.47777" lon="6.27993">
        <ele>159</ele>
        <time>2023-04-28T13:46:07Z</time>
      </trkpt>
      <trkpt lat="43.47778" lon="6.27992">
        <ele>159</ele>
        <time>2023-04-28T13:46:08Z</time>
      </trkpt>
      <trkpt lat="43.47778" lon="6.27991">
        <ele>159</ele>
        <time>2023-04-28T13:46:09Z</time>
      </trkpt>
      <trkpt lat="43.47779" lon="6.2799">
        <ele>159</ele>
        <time>2023-04-28T13:46:10Z</time>
      </trkpt>
      <trkpt lat="43.4778" lon="6.27989">
        <ele>159</ele>
        <time>2023-04-28T13:46:11Z</time>
      </trkpt>
      <trkpt lat="43.47781" lon="6.27989">
        <ele>159</ele>
        <time>2023-04-28T13:46:12Z</time>
      </trkpt>
      <trkpt lat="43.47781" lon="6.27988">
        <ele>159</ele>
        <time>2023-04-28T13:46:13Z</time>
      </trkpt>
      <trkpt lat="43.47782" lon="6.27987">
        <ele>159</ele>
        <time>2023-04-28T13:46:14Z</time>
      </trkpt>
      <trkpt lat="43.47783" lon="6.27986">
        <ele>159</ele>
        <time>2023-04-28T13:46:15Z</time>
      </trkpt>
      <trkpt lat="43.47784" lon="6.27985">
        <ele>159</ele>
        <time>2023-04-28T13:46:16Z</time>
      </trkpt>
      <trkpt lat="43.47785" lon="6.27984">
        <ele>159</ele>
        <time>2023-04-28T13:46:17Z</time>
      </trkpt>
      <trkpt lat="43.47786" lon="6.27983">
        <ele>159</ele>
        <time>2023-04-28T13:46:18Z</time>
      </trkpt>
      <trkpt lat="43.47786" lon="6.27982">
        <ele>159</ele>
        <time>2023-04-28T13:46:19Z</time>
      </trkpt>
      <trkpt lat="43.47787" lon="6.27981">
        <ele>159</ele>
        <time>2023-04-28T13:46:20Z</time>
      </trkpt>
      <trkpt lat="43.47788" lon="6.2798">
        <ele>159</ele>
        <time>2023-04-28T13:46:21Z</time>
      </trkpt>
      <trkpt lat="43.47789" lon="6.27979">
        <ele>159</ele>
        <time>2023-04-28T13:46:22Z</time>
      </trkpt>
      <trkpt lat="43.47789" lon="6.27977">
        <ele>159</ele>
        <time>2023-04-28T13:46:23Z</time>
      </trkpt>
      <trkpt lat="43.4779" lon="6.27976">
        <ele>158</ele>
        <time>2023-04-28T13:46:24Z</time>
      </trkpt>
      <trkpt lat="43.4779" lon="6.27974">
        <ele>158</ele>
        <time>2023-04-28T13:46:25Z</time>
      </trkpt>
      <trkpt lat="43.4779" lon="6.27973">
        <ele>158</ele>
        <time>2023-04-28T13:46:26Z</time>
      </trkpt>
      <trkpt lat="43.47791" lon="6.27972">
        <ele>158</ele>
        <time>2023-04-28T13:46:27Z</time>
      </trkpt>
      <trkpt lat="43.47792" lon="6.2797">
        <ele>158</ele>
        <time>2023-04-28T13:46:28Z</time>
      </trkpt>
      <trkpt lat="43.47794" lon="6.27969">
        <ele>158</ele>
        <time>2023-04-28T13:46:29Z</time>
      </trkpt>
      <trkpt lat="43.47794" lon="6.27967">
        <ele>158</ele>
        <time>2023-04-28T13:46:30Z</time>
      </trkpt>
      <trkpt lat="43.47795" lon="6.27966">
        <ele>158</ele>
        <time>2023-04-28T13:46:31Z</time>
      </trkpt>
      <trkpt lat="43.47796" lon="6.27965">
        <ele>158</ele>
        <time>2023-04-28T13:46:32Z</time>
      </trkpt>
      <trkpt lat="43.47796" lon="6.27964">
        <ele>158</ele>
        <time>2023-04-28T13:46:33Z</time>
      </trkpt>
      <trkpt lat="43.47797" lon="6.27963">
        <ele>158</ele>
        <time>2023-04-28T13:46:34Z</time>
      </trkpt>
      <trkpt lat="43.47796" lon="6.27962">
        <ele>158</ele>
        <time>2023-04-28T13:46:35Z</time>
      </trkpt>
      <trkpt lat="43.47796" lon="6.27962">
        <ele>158</ele>
        <time>2023-04-28T13:46:36Z</time>
      </trkpt>
      <trkpt lat="43.47795" lon="6.27962">
        <ele>158</ele>
        <time>2023-04-28T13:46:37Z</time>
      </trkpt>
      <trkpt lat="43.47795" lon="6.27962">
        <ele>158</ele>
        <time>2023-04-28T13:46:38Z</time>
      </trkpt>
      <trkpt lat="43.47794" lon="6.27962">
        <ele>157</ele>
        <time>2023-04-28T13:46:39Z</time>
      </trkpt>
      <trkpt lat="43.47794" lon="6.27962">
        <ele>157</ele>
        <time>2023-04-28T13:46:40Z</time>
      </trkpt>
      <trkpt lat="43.47794" lon="6.27962">
        <ele>157</ele>
        <time>2023-04-28T13:46:41Z</time>
      </trkpt>
      <trkpt lat="43.47794" lon="6.27962">
        <ele>157</ele>
        <time>2023-04-28T13:46:42Z</time>
      </trkpt>
      <trkpt lat="43.47794" lon="6.27962">
        <ele>157</ele>
        <time>2023-04-28T13:46:43Z</time>
      </trkpt>
      <trkpt lat="43.47794" lon="6.27962">
        <ele>157</ele>
        <time>2023-04-28T13:46:44Z</time>
      </trkpt>
      <trkpt lat="43.47794" lon="6.27962">
        <ele>157</ele>
        <time>2023-04-28T13:46:45Z</time>
      </trkpt>
      <trkpt lat="43.47794" lon="6.27962">
        <ele>157</ele>
        <time>2023-04-28T13:46:46Z</time>
      </trkpt>
      <trkpt lat="43.47795" lon="6.27962">
        <ele>158</ele>
        <time>2023-04-28T13:46:47Z</time>
      </trkpt>
      <trkpt lat="43.47796" lon="6.27961">
        <ele>158</ele>
        <time>2023-04-28T13:46:48Z</time>
      </trkpt>
      <trkpt lat="43.47797" lon="6.27961">
        <ele>158</ele>
        <time>2023-04-28T13:46:49Z</time>
      </trkpt>
      <trkpt lat="43.47798" lon="6.27961">
        <ele>158</ele>
        <time>2023-04-28T13:46:50Z</time>
      </trkpt>
      <trkpt lat="43.47799" lon="6.2796">
        <ele>158</ele>
        <time>2023-04-28T13:46:51Z</time>
      </trkpt>
      <trkpt lat="43.47801" lon="6.27959">
        <ele>158</ele>
        <time>2023-04-28T13:46:52Z</time>
      </trkpt>
      <trkpt lat="43.47802" lon="6.27958">
        <ele>159</ele>
        <time>2023-04-28T13:46:53Z</time>
      </trkpt>
      <trkpt lat="43.47803" lon="6.27958">
        <ele>159</ele>
        <time>2023-04-28T13:46:54Z</time>
      </trkpt>
      <trkpt lat="43.47804" lon="6.27957">
        <ele>160</ele>
        <time>2023-04-28T13:46:55Z</time>
      </trkpt>
      <trkpt lat="43.47805" lon="6.27957">
        <ele>160</ele>
        <time>2023-04-28T13:46:56Z</time>
      </trkpt>
      <trkpt lat="43.47806" lon="6.27956">
        <ele>160</ele>
        <time>2023-04-28T13:46:57Z</time>
      </trkpt>
      <trkpt lat="43.47806" lon="6.27955">
        <ele>160</ele>
        <time>2023-04-28T13:46:58Z</time>
      </trkpt>
      <trkpt lat="43.47807" lon="6.27954">
        <ele>160</ele>
        <time>2023-04-28T13:46:59Z</time>
      </trkpt>
      <trkpt lat="43.47807" lon="6.27953">
        <ele>160</ele>
        <time>2023-04-28T13:47:00Z</time>
      </trkpt>
      <trkpt lat="43.47808" lon="6.27951">
        <ele>160</ele>
        <time>2023-04-28T13:47:01Z</time>
      </trkpt>
      <trkpt lat="43.47809" lon="6.2795">
        <ele>160</ele>
        <time>2023-04-28T13:47:02Z</time>
      </trkpt>
      <trkpt lat="43.47809" lon="6.27949">
        <ele>160</ele>
        <time>2023-04-28T13:47:03Z</time>
      </trkpt>
      <trkpt lat="43.4781" lon="6.27949">
        <ele>160</ele>
        <time>2023-04-28T13:47:04Z</time>
      </trkpt>
      <trkpt lat="43.4781" lon="6.27949">
        <ele>160</ele>
        <time>2023-04-28T13:47:05Z</time>
      </trkpt>
      <trkpt lat="43.4781" lon="6.27948">
        <ele>160</ele>
        <time>2023-04-28T13:47:06Z</time>
      </trkpt>
      <trkpt lat="43.47811" lon="6.27948">
        <ele>160</ele>
        <time>2023-04-28T13:47:07Z</time>
      </trkpt>
      <trkpt lat="43.47811" lon="6.27947">
        <ele>159</ele>
        <time>2023-04-28T13:47:08Z</time>
      </trkpt>
      <trkpt lat="43.47811" lon="6.27946">
        <ele>159</ele>
        <time>2023-04-28T13:47:09Z</time>
      </trkpt>
      <trkpt lat="43.47812" lon="6.27945">
        <ele>159</ele>
        <time>2023-04-28T13:47:10Z</time>
      </trkpt>
      <trkpt lat="43.47812" lon="6.27944">
        <ele>159</ele>
        <time>2023-04-28T13:47:11Z</time>
      </trkpt>
      <trkpt lat="43.47812" lon="6.27943">
        <ele>159</ele>
        <time>2023-04-28T13:47:12Z</time>
      </trkpt>
      <trkpt lat="43.47812" lon="6.27942">
        <ele>159</ele>
        <time>2023-04-28T13:47:13Z</time>
      </trkpt>
      <trkpt lat="43.47813" lon="6.27941">
        <ele>159</ele>
        <time>2023-04-28T13:47:14Z</time>
      </trkpt>
      <trkpt lat="43.47813" lon="6.27939">
        <ele>158</ele>
        <time>2023-04-28T13:47:15Z</time>
      </trkpt>
      <trkpt lat="43.47813" lon="6.27938">
        <ele>158</ele>
        <time>2023-04-28T13:47:16Z</time>
      </trkpt>
      <trkpt lat="43.47813" lon="6.27936">
        <ele>158</ele>
        <time>2023-04-28T13:47:17Z</time>
      </trkpt>
      <trkpt lat="43.47813" lon="6.27935">
        <ele>158</ele>
        <time>2023-04-28T13:47:18Z</time>
      </trkpt>
      <trkpt lat="43.47813" lon="6.27933">
        <ele>158</ele>
        <time>2023-04-28T13:47:19Z</time>
      </trkpt>
      <trkpt lat="43.47813" lon="6.27932">
        <ele>158</ele>
        <time>2023-04-28T13:47:20Z</time>
      </trkpt>
      <trkpt lat="43.47813" lon="6.27931">
        <ele>158</ele>
        <time>2023-04-28T13:47:21Z</time>
      </trkpt>
      <trkpt lat="43.47813" lon="6.27929">
        <ele>158</ele>
        <time>2023-04-28T13:47:22Z</time>
      </trkpt>
      <trkpt lat="43.47813" lon="6.27927">
        <ele>158</ele>
        <time>2023-04-28T13:47:23Z</time>
      </trkpt>
      <trkpt lat="43.47813" lon="6.27925">
        <ele>158</ele>
        <time>2023-04-28T13:47:24Z</time>
      </trkpt>
      <trkpt lat="43.47813" lon="6.27923">
        <ele>159</ele>
        <time>2023-04-28T13:47:25Z</time>
      </trkpt>
      <trkpt lat="43.47813" lon="6.27921">
        <ele>159</ele>
        <time>2023-04-28T13:47:26Z</time>
      </trkpt>
      <trkpt lat="43.47814" lon="6.2792">
        <ele>159</ele>
        <time>2023-04-28T13:47:27Z</time>
      </trkpt>
      <trkpt lat="43.47814" lon="6.27919">
        <ele>160</ele>
        <time>2023-04-28T13:47:28Z</time>
      </trkpt>
      <trkpt lat="43.47815" lon="6.27918">
        <ele>160</ele>
        <time>2023-04-28T13:47:29Z</time>
      </trkpt>
      <trkpt lat="43.47815" lon="6.27916">
        <ele>160</ele>
        <time>2023-04-28T13:47:30Z</time>
      </trkpt>
      <trkpt lat="43.47815" lon="6.27915">
        <ele>160</ele>
        <time>2023-04-28T13:47:31Z</time>
      </trkpt>
      <trkpt lat="43.47816" lon="6.27913">
        <ele>160</ele>
        <time>2023-04-28T13:47:32Z</time>
      </trkpt>
      <trkpt lat="43.47816" lon="6.27911">
        <ele>161</ele>
        <time>2023-04-28T13:47:33Z</time>
      </trkpt>
      <trkpt lat="43.47816" lon="6.27909">
        <ele>162</ele>
        <time>2023-04-28T13:47:34Z</time>
      </trkpt>
      <trkpt lat="43.47816" lon="6.27908">
        <ele>162</ele>
        <time>2023-04-28T13:47:35Z</time>
      </trkpt>
      <trkpt lat="43.47817" lon="6.27907">
        <ele>162</ele>
        <time>2023-04-28T13:47:36Z</time>
      </trkpt>
      <trkpt lat="43.47817" lon="6.27905">
        <ele>162</ele>
        <time>2023-04-28T13:47:37Z</time>
      </trkpt>
      <trkpt lat="43.47817" lon="6.27904">
        <ele>162</ele>
        <time>2023-04-28T13:47:38Z</time>
      </trkpt>
      <trkpt lat="43.47818" lon="6.27902">
        <ele>162</ele>
        <time>2023-04-28T13:47:39Z</time>
      </trkpt>
      <trkpt lat="43.47818" lon="6.27901">
        <ele>162</ele>
        <time>2023-04-28T13:47:40Z</time>
      </trkpt>
      <trkpt lat="43.47818" lon="6.279">
        <ele>162</ele>
        <time>2023-04-28T13:47:41Z</time>
      </trkpt>
      <trkpt lat="43.47818" lon="6.27898">
        <ele>162</ele>
        <time>2023-04-28T13:47:42Z</time>
      </trkpt>
      <trkpt lat="43.47818" lon="6.27897">
        <ele>162</ele>
        <time>2023-04-28T13:47:43Z</time>
      </trkpt>
      <trkpt lat="43.47818" lon="6.27896">
        <ele>163</ele>
        <time>2023-04-28T13:47:44Z</time>
      </trkpt>
      <trkpt lat="43.47818" lon="6.27895">
        <ele>163</ele>
        <time>2023-04-28T13:47:45Z</time>
      </trkpt>
      <trkpt lat="43.47819" lon="6.27894">
        <ele>163</ele>
        <time>2023-04-28T13:47:46Z</time>
      </trkpt>
      <trkpt lat="43.47818" lon="6.27892">
        <ele>163</ele>
        <time>2023-04-28T13:47:47Z</time>
      </trkpt>
      <trkpt lat="43.47818" lon="6.2789">
        <ele>163</ele>
        <time>2023-04-28T13:47:48Z</time>
      </trkpt>
      <trkpt lat="43.47818" lon="6.27889">
        <ele>163</ele>
        <time>2023-04-28T13:47:49Z</time>
      </trkpt>
      <trkpt lat="43.47818" lon="6.27887">
        <ele>163</ele>
        <time>2023-04-28T13:47:50Z</time>
      </trkpt>
      <trkpt lat="43.47818" lon="6.27885">
        <ele>163</ele>
        <time>2023-04-28T13:47:51Z</time>
      </trkpt>
      <trkpt lat="43.47818" lon="6.27884">
        <ele>162</ele>
        <time>2023-04-28T13:47:52Z</time>
      </trkpt>
      <trkpt lat="43.47818" lon="6.27882">
        <ele>162</ele>
        <time>2023-04-28T13:47:53Z</time>
      </trkpt>
      <trkpt lat="43.47818" lon="6.27881">
        <ele>162</ele>
        <time>2023-04-28T13:47:54Z</time>
      </trkpt>
      <trkpt lat="43.47818" lon="6.2788">
        <ele>162</ele>
        <time>2023-04-28T13:47:55Z</time>
      </trkpt>
      <trkpt lat="43.47817" lon="6.27879">
        <ele>162</ele>
        <time>2023-04-28T13:47:56Z</time>
      </trkpt>
      <trkpt lat="43.47817" lon="6.27878">
        <ele>162</ele>
        <time>2023-04-28T13:47:57Z</time>
      </trkpt>
      <trkpt lat="43.47817" lon="6.27876">
        <ele>161</ele>
        <time>2023-04-28T13:47:58Z</time>
      </trkpt>
      <trkpt lat="43.47816" lon="6.27875">
        <ele>161</ele>
        <time>2023-04-28T13:47:59Z</time>
      </trkpt>
      <trkpt lat="43.47816" lon="6.27873">
        <ele>160</ele>
        <time>2023-04-28T13:48:00Z</time>
      </trkpt>
      <trkpt lat="43.47816" lon="6.27872">
        <ele>160</ele>
        <time>2023-04-28T13:48:01Z</time>
      </trkpt>
      <trkpt lat="43.47816" lon="6.2787">
        <ele>160</ele>
        <time>2023-04-28T13:48:02Z</time>
      </trkpt>
      <trkpt lat="43.47815" lon="6.27868">
        <ele>160</ele>
        <time>2023-04-28T13:48:03Z</time>
      </trkpt>
      <trkpt lat="43.47814" lon="6.27867">
        <ele>160</ele>
        <time>2023-04-28T13:48:04Z</time>
      </trkpt>
      <trkpt lat="43.47814" lon="6.27865">
        <ele>160</ele>
        <time>2023-04-28T13:48:05Z</time>
      </trkpt>
      <trkpt lat="43.47814" lon="6.27864">
        <ele>160</ele>
        <time>2023-04-28T13:48:06Z</time>
      </trkpt>
      <trkpt lat="43.47813" lon="6.27863">
        <ele>160</ele>
        <time>2023-04-28T13:48:07Z</time>
      </trkpt>
      <trkpt lat="43.47813" lon="6.27862">
        <ele>160</ele>
        <time>2023-04-28T13:48:08Z</time>
      </trkpt>
      <trkpt lat="43.47813" lon="6.2786">
        <ele>160</ele>
        <time>2023-04-28T13:48:09Z</time>
      </trkpt>
      <trkpt lat="43.47812" lon="6.27859">
        <ele>160</ele>
        <time>2023-04-28T13:48:10Z</time>
      </trkpt>
      <trkpt lat="43.47812" lon="6.27857">
        <ele>160</ele>
        <time>2023-04-28T13:48:11Z</time>
      </trkpt>
      <trkpt lat="43.47812" lon="6.27856">
        <ele>160</ele>
        <time>2023-04-28T13:48:12Z</time>
      </trkpt>
      <trkpt lat="43.47811" lon="6.27855">
        <ele>160</ele>
        <time>2023-04-28T13:48:13Z</time>
      </trkpt>
      <trkpt lat="43.47811" lon="6.27853">
        <ele>160</ele>
        <time>2023-04-28T13:48:14Z</time>
      </trkpt>
      <trkpt lat="43.47811" lon="6.27851">
        <ele>160</ele>
        <time>2023-04-28T13:48:15Z</time>
      </trkpt>
      <trkpt lat="43.4781" lon="6.27849">
        <ele>160</ele>
        <time>2023-04-28T13:48:16Z</time>
      </trkpt>
      <trkpt lat="43.4781" lon="6.27848">
        <ele>160</ele>
        <time>2023-04-28T13:48:17Z</time>
      </trkpt>
      <trkpt lat="43.4781" lon="6.27847">
        <ele>160</ele>
        <time>2023-04-28T13:48:18Z</time>
      </trkpt>
      <trkpt lat="43.4781" lon="6.27845">
        <ele>160</ele>
        <time>2023-04-28T13:48:19Z</time>
      </trkpt>
      <trkpt lat="43.47809" lon="6.27844">
        <ele>159</ele>
        <time>2023-04-28T13:48:20Z</time>
      </trkpt>
      <trkpt lat="43.4781" lon="6.27842">
        <ele>159</ele>
        <time>2023-04-28T13:48:21Z</time>
      </trkpt>
      <trkpt lat="43.47809" lon="6.27841">
        <ele>159</ele>
        <time>2023-04-28T13:48:22Z</time>
      </trkpt>
      <trkpt lat="43.47809" lon="6.27839">
        <ele>159</ele>
        <time>2023-04-28T13:48:23Z</time>
      </trkpt>
      <trkpt lat="43.47809" lon="6.27838">
        <ele>159</ele>
        <time>2023-04-28T13:48:24Z</time>
      </trkpt>
      <trkpt lat="43.47809" lon="6.27836">
        <ele>159</ele>
        <time>2023-04-28T13:48:25Z</time>
      </trkpt>
      <trkpt lat="43.47809" lon="6.27835">
        <ele>159</ele>
        <time>2023-04-28T13:48:26Z</time>
      </trkpt>
      <trkpt lat="43.47809" lon="6.27834">
        <ele>159</ele>
        <time>2023-04-28T13:48:27Z</time>
      </trkpt>
      <trkpt lat="43.47809" lon="6.27833">
        <ele>159</ele>
        <time>2023-04-28T13:48:28Z</time>
      </trkpt>
      <trkpt lat="43.47808" lon="6.27831">
        <ele>159</ele>
        <time>2023-04-28T13:48:29Z</time>
      </trkpt>
      <trkpt lat="43.47808" lon="6.2783">
        <ele>159</ele>
        <time>2023-04-28T13:48:30Z</time>
      </trkpt>
      <trkpt lat="43.47808" lon="6.27829">
        <ele>158</ele>
        <time>2023-04-28T13:48:31Z</time>
      </trkpt>
      <trkpt lat="43.47807" lon="6.27828">
        <ele>158</ele>
        <time>2023-04-28T13:48:32Z</time>
      </trkpt>
      <trkpt lat="43.47807" lon="6.27827">
        <ele>158</ele>
        <time>2023-04-28T13:48:33Z</time>
      </trkpt>
      <trkpt lat="43.47806" lon="6.27826">
        <ele>158</ele>
        <time>2023-04-28T13:48:34Z</time>
      </trkpt>
      <trkpt lat="43.47806" lon="6.27825">
        <ele>158</ele>
        <time>2023-04-28T13:48:35Z</time>
      </trkpt>
      <trkpt lat="43.47806" lon="6.27824">
        <ele>158</ele>
        <time>2023-04-28T13:48:36Z</time>
      </trkpt>
      <trkpt lat="43.47805" lon="6.27823">
        <ele>157</ele>
        <time>2023-04-28T13:48:37Z</time>
      </trkpt>
      <trkpt lat="43.47804" lon="6.27822">
        <ele>157</ele>
        <time>2023-04-28T13:48:38Z</time>
      </trkpt>
      <trkpt lat="43.47803" lon="6.27821">
        <ele>157</ele>
        <time>2023-04-28T13:48:39Z</time>
      </trkpt>
      <trkpt lat="43.47803" lon="6.27819">
        <ele>157</ele>
        <time>2023-04-28T13:48:40Z</time>
      </trkpt>
      <trkpt lat="43.47802" lon="6.27819">
        <ele>157</ele>
        <time>2023-04-28T13:48:41Z</time>
      </trkpt>
      <trkpt lat="43.47801" lon="6.27818">
        <ele>157</ele>
        <time>2023-04-28T13:48:42Z</time>
      </trkpt>
      <trkpt lat="43.478" lon="6.27817">
        <ele>157</ele>
        <time>2023-04-28T13:48:43Z</time>
      </trkpt>
      <trkpt lat="43.47799" lon="6.27817">
        <ele>157</ele>
        <time>2023-04-28T13:48:44Z</time>
      </trkpt>
      <trkpt lat="43.47799" lon="6.27816">
        <ele>157</ele>
        <time>2023-04-28T13:48:45Z</time>
      </trkpt>
      <trkpt lat="43.47798" lon="6.27815">
        <ele>157</ele>
        <time>2023-04-28T13:48:46Z</time>
      </trkpt>
      <trkpt lat="43.47797" lon="6.27815">
        <ele>157</ele>
        <time>2023-04-28T13:48:47Z</time>
      </trkpt>
      <trkpt lat="43.47796" lon="6.27814">
        <ele>157</ele>
        <time>2023-04-28T13:48:48Z</time>
      </trkpt>
      <trkpt lat="43.47796" lon="6.27813">
        <ele>157</ele>
        <time>2023-04-28T13:48:49Z</time>
      </trkpt>
      <trkpt lat="43.47795" lon="6.27812">
        <ele>157</ele>
        <time>2023-04-28T13:48:50Z</time>
      </trkpt>
      <trkpt lat="43.47794" lon="6.27811">
        <ele>157</ele>
        <time>2023-04-28T13:48:51Z</time>
      </trkpt>
      <trkpt lat="43.47793" lon="6.2781">
        <ele>157</ele>
        <time>2023-04-28T13:48:52Z</time>
      </trkpt>
      <trkpt lat="43.47792" lon="6.27809">
        <ele>157</ele>
        <time>2023-04-28T13:48:53Z</time>
      </trkpt>
      <trkpt lat="43.47791" lon="6.27808">
        <ele>157</ele>
        <time>2023-04-28T13:48:54Z</time>
      </trkpt>
      <trkpt lat="43.4779" lon="6.27807">
        <ele>158</ele>
        <time>2023-04-28T13:48:55Z</time>
      </trkpt>
      <trkpt lat="43.47789" lon="6.27806">
        <ele>158</ele>
        <time>2023-04-28T13:48:56Z</time>
      </trkpt>
      <trkpt lat="43.47788" lon="6.27806">
        <ele>158</ele>
        <time>2023-04-28T13:48:57Z</time>
      </trkpt>
      <trkpt lat="43.47786" lon="6.27805">
        <ele>158</ele>
        <time>2023-04-28T13:48:58Z</time>
      </trkpt>
      <trkpt lat="43.47785" lon="6.27806">
        <ele>158</ele>
        <time>2023-04-28T13:48:59Z</time>
      </trkpt>
      <trkpt lat="43.47784" lon="6.27806">
        <ele>158</ele>
        <time>2023-04-28T13:49:00Z</time>
      </trkpt>
      <trkpt lat="43.47783" lon="6.27806">
        <ele>158</ele>
        <time>2023-04-28T13:49:01Z</time>
      </trkpt>
      <trkpt lat="43.47782" lon="6.27805">
        <ele>159</ele>
        <time>2023-04-28T13:49:02Z</time>
      </trkpt>
      <trkpt lat="43.47781" lon="6.27805">
        <ele>159</ele>
        <time>2023-04-28T13:49:03Z</time>
      </trkpt>
      <trkpt lat="43.4778" lon="6.27805">
        <ele>159</ele>
        <time>2023-04-28T13:49:04Z</time>
      </trkpt>
      <trkpt lat="43.4778" lon="6.27805">
        <ele>159</ele>
        <time>2023-04-28T13:49:05Z</time>
      </trkpt>
      <trkpt lat="43.47779" lon="6.27804">
        <ele>159</ele>
        <time>2023-04-28T13:49:06Z</time>
      </trkpt>
      <trkpt lat="43.47778" lon="6.27804">
        <ele>159</ele>
        <time>2023-04-28T13:49:07Z</time>
      </trkpt>
      <trkpt lat="43.47778" lon="6.27803">
        <ele>159</ele>
        <time>2023-04-28T13:49:08Z</time>
      </trkpt>
      <trkpt lat="43.47777" lon="6.27803">
        <ele>159</ele>
        <time>2023-04-28T13:49:09Z</time>
      </trkpt>
      <trkpt lat="43.47776" lon="6.27802">
        <ele>160</ele>
        <time>2023-04-28T13:49:10Z</time>
      </trkpt>
      <trkpt lat="43.47775" lon="6.278">
        <ele>160</ele>
        <time>2023-04-28T13:49:11Z</time>
      </trkpt>
      <trkpt lat="43.47774" lon="6.27799">
        <ele>160</ele>
        <time>2023-04-28T13:49:12Z</time>
      </trkpt>
      <trkpt lat="43.47773" lon="6.27798">
        <ele>160</ele>
        <time>2023-04-28T13:49:13Z</time>
      </trkpt>
      <trkpt lat="43.47772" lon="6.27796">
        <ele>160</ele>
        <time>2023-04-28T13:49:14Z</time>
      </trkpt>
      <trkpt lat="43.47772" lon="6.27795">
        <ele>161</ele>
        <time>2023-04-28T13:49:15Z</time>
      </trkpt>
      <trkpt lat="43.47771" lon="6.27794">
        <ele>161</ele>
        <time>2023-04-28T13:49:16Z</time>
      </trkpt>
      <trkpt lat="43.47771" lon="6.27792">
        <ele>161</ele>
        <time>2023-04-28T13:49:17Z</time>
      </trkpt>
      <trkpt lat="43.47771" lon="6.2779">
        <ele>161</ele>
        <time>2023-04-28T13:49:18Z</time>
      </trkpt>
      <trkpt lat="43.47771" lon="6.27788">
        <ele>161</ele>
        <time>2023-04-28T13:49:19Z</time>
      </trkpt>
      <trkpt lat="43.4777" lon="6.27786">
        <ele>161</ele>
        <time>2023-04-28T13:49:20Z</time>
      </trkpt>
      <trkpt lat="43.4777" lon="6.27785">
        <ele>161</ele>
        <time>2023-04-28T13:49:21Z</time>
      </trkpt>
      <trkpt lat="43.4777" lon="6.27783">
        <ele>161</ele>
        <time>2023-04-28T13:49:22Z</time>
      </trkpt>
      <trkpt lat="43.4777" lon="6.27782">
        <ele>161</ele>
        <time>2023-04-28T13:49:23Z</time>
      </trkpt>
      <trkpt lat="43.4777" lon="6.2778">
        <ele>161</ele>
        <time>2023-04-28T13:49:24Z</time>
      </trkpt>
      <trkpt lat="43.4777" lon="6.27778">
        <ele>161</ele>
        <time>2023-04-28T13:49:25Z</time>
      </trkpt>
      <trkpt lat="43.47769" lon="6.27777">
        <ele>161</ele>
        <time>2023-04-28T13:49:26Z</time>
      </trkpt>
      <trkpt lat="43.47769" lon="6.27775">
        <ele>161</ele>
        <time>2023-04-28T13:49:27Z</time>
      </trkpt>
      <trkpt lat="43.47768" lon="6.27774">
        <ele>161</ele>
        <time>2023-04-28T13:49:28Z</time>
      </trkpt>
      <trkpt lat="43.47768" lon="6.27773">
        <ele>162</ele>
        <time>2023-04-28T13:49:29Z</time>
      </trkpt>
      <trkpt lat="43.47768" lon="6.27772">
        <ele>162</ele>
        <time>2023-04-28T13:49:30Z</time>
      </trkpt>
      <trkpt lat="43.47768" lon="6.27771">
        <ele>162</ele>
        <time>2023-04-28T13:49:31Z</time>
      </trkpt>
      <trkpt lat="43.47767" lon="6.2777">
        <ele>162</ele>
        <time>2023-04-28T13:49:32Z</time>
      </trkpt>
      <trkpt lat="43.47767" lon="6.27769">
        <ele>162</ele>
        <time>2023-04-28T13:49:33Z</time>
      </trkpt>
      <trkpt lat="43.47766" lon="6.27767">
        <ele>162</ele>
        <time>2023-04-28T13:49:34Z</time>
      </trkpt>
      <trkpt lat="43.47766" lon="6.27766">
        <ele>162</ele>
        <time>2023-04-28T13:49:35Z</time>
      </trkpt>
      <trkpt lat="43.47766" lon="6.27765">
        <ele>162</ele>
        <time>2023-04-28T13:49:36Z</time>
      </trkpt>
      <trkpt lat="43.47766" lon="6.27764">
        <ele>162</ele>
        <time>2023-04-28T13:49:37Z</time>
      </trkpt>
      <trkpt lat="43.47766" lon="6.27763">
        <ele>162</ele>
        <time>2023-04-28T13:49:38Z</time>
      </trkpt>
      <trkpt lat="43.47766" lon="6.27762">
        <ele>162</ele>
        <time>2023-04-28T13:49:39Z</time>
      </trkpt>
      <trkpt lat="43.47766" lon="6.27762">
        <ele>162</ele>
        <time>2023-04-28T13:49:40Z</time>
      </trkpt>
      <trkpt lat="43.47767" lon="6.27761">
        <ele>162</ele>
        <time>2023-04-28T13:49:41Z</time>
      </trkpt>
      <trkpt lat="43.47767" lon="6.27759">
        <ele>162</ele>
        <time>2023-04-28T13:49:42Z</time>
      </trkpt>
      <trkpt lat="43.47767" lon="6.27758">
        <ele>162</ele>
        <time>2023-04-28T13:49:43Z</time>
      </trkpt>
      <trkpt lat="43.47767" lon="6.27757">
        <ele>162</ele>
        <time>2023-04-28T13:49:44Z</time>
      </trkpt>
      <trkpt lat="43.47766" lon="6.27756">
        <ele>162</ele>
        <time>2023-04-28T13:49:45Z</time>
      </trkpt>
      <trkpt lat="43.47766" lon="6.27754">
        <ele>162</ele>
        <time>2023-04-28T13:49:46Z</time>
      </trkpt>
      <trkpt lat="43.47766" lon="6.27753">
        <ele>162</ele>
        <time>2023-04-28T13:49:47Z</time>
      </trkpt>
      <trkpt lat="43.47766" lon="6.27752">
        <ele>162</ele>
        <time>2023-04-28T13:49:48Z</time>
      </trkpt>
      <trkpt lat="43.47766" lon="6.27751">
        <ele>162</ele>
        <time>2023-04-28T13:49:49Z</time>
      </trkpt>
      <trkpt lat="43.47766" lon="6.2775">
        <ele>162</ele>
        <time>2023-04-28T13:49:50Z</time>
      </trkpt>
      <trkpt lat="43.47766" lon="6.27749">
        <ele>162</ele>
        <time>2023-04-28T13:49:51Z</time>
      </trkpt>
      <trkpt lat="43.47765" lon="6.27748">
        <ele>162</ele>
        <time>2023-04-28T13:49:52Z</time>
      </trkpt>
      <trkpt lat="43.47765" lon="6.27747">
        <ele>162</ele>
        <time>2023-04-28T13:49:53Z</time>
      </trkpt>
      <trkpt lat="43.47765" lon="6.27745">
        <ele>162</ele>
        <time>2023-04-28T13:49:54Z</time>
      </trkpt>
      <trkpt lat="43.47765" lon="6.27744">
        <ele>163</ele>
        <time>2023-04-28T13:49:55Z</time>
      </trkpt>
      <trkpt lat="43.47765" lon="6.27743">
        <ele>163</ele>
        <time>2023-04-28T13:49:56Z</time>
      </trkpt>
      <trkpt lat="43.47765" lon="6.27742">
        <ele>163</ele>
        <time>2023-04-28T13:49:57Z</time>
      </trkpt>
      <trkpt lat="43.47765" lon="6.27741">
        <ele>163</ele>
        <time>2023-04-28T13:49:58Z</time>
      </trkpt>
      <trkpt lat="43.47765" lon="6.2774">
        <ele>163</ele>
        <time>2023-04-28T13:49:59Z</time>
      </trkpt>
      <trkpt lat="43.47764" lon="6.27739">
        <ele>162</ele>
        <time>2023-04-28T13:50:00Z</time>
      </trkpt>
      <trkpt lat="43.47764" lon="6.27738">
        <ele>162</ele>
        <time>2023-04-28T13:50:01Z</time>
      </trkpt>
      <trkpt lat="43.47764" lon="6.27737">
        <ele>162</ele>
        <time>2023-04-28T13:50:02Z</time>
      </trkpt>
      <trkpt lat="43.47763" lon="6.27736">
        <ele>161</ele>
        <time>2023-04-28T13:50:03Z</time>
      </trkpt>
      <trkpt lat="43.47763" lon="6.27736">
        <ele>161</ele>
        <time>2023-04-28T13:50:04Z</time>
      </trkpt>
      <trkpt lat="43.47763" lon="6.27735">
        <ele>161</ele>
        <time>2023-04-28T13:50:05Z</time>
      </trkpt>
      <trkpt lat="43.47763" lon="6.27734">
        <ele>161</ele>
        <time>2023-04-28T13:50:06Z</time>
      </trkpt>
      <trkpt lat="43.47762" lon="6.27732">
        <ele>161</ele>
        <time>2023-04-28T13:50:07Z</time>
      </trkpt>
      <trkpt lat="43.47762" lon="6.27731">
        <ele>161</ele>
        <time>2023-04-28T13:50:08Z</time>
      </trkpt>
      <trkpt lat="43.47762" lon="6.2773">
        <ele>161</ele>
        <time>2023-04-28T13:50:09Z</time>
      </trkpt>
      <trkpt lat="43.47761" lon="6.27729">
        <ele>161</ele>
        <time>2023-04-28T13:50:10Z</time>
      </trkpt>
      <trkpt lat="43.4776" lon="6.27728">
        <ele>161</ele>
        <time>2023-04-28T13:50:11Z</time>
      </trkpt>
      <trkpt lat="43.4776" lon="6.27727">
        <ele>160</ele>
        <time>2023-04-28T13:50:12Z</time>
      </trkpt>
      <trkpt lat="43.47759" lon="6.27725">
        <ele>160</ele>
        <time>2023-04-28T13:50:13Z</time>
      </trkpt>
      <trkpt lat="43.47759" lon="6.27724">
        <ele>160</ele>
        <time>2023-04-28T13:50:14Z</time>
      </trkpt>
      <trkpt lat="43.47758" lon="6.27722">
        <ele>160</ele>
        <time>2023-04-28T13:50:15Z</time>
      </trkpt>
      <trkpt lat="43.47758" lon="6.27721">
        <ele>160</ele>
        <time>2023-04-28T13:50:16Z</time>
      </trkpt>
      <trkpt lat="43.47757" lon="6.2772">
        <ele>160</ele>
        <time>2023-04-28T13:50:17Z</time>
      </trkpt>
      <trkpt lat="43.47757" lon="6.27718">
        <ele>160</ele>
        <time>2023-04-28T13:50:18Z</time>
      </trkpt>
      <trkpt lat="43.47757" lon="6.27717">
        <ele>160</ele>
        <time>2023-04-28T13:50:19Z</time>
      </trkpt>
      <trkpt lat="43.47756" lon="6.27716">
        <ele>160</ele>
        <time>2023-04-28T13:50:20Z</time>
      </trkpt>
      <trkpt lat="43.47756" lon="6.27715">
        <ele>160</ele>
        <time>2023-04-28T13:50:21Z</time>
      </trkpt>
      <trkpt lat="43.47756" lon="6.27714">
        <ele>160</ele>
        <time>2023-04-28T13:50:22Z</time>
      </trkpt>
      <trkpt lat="43.47755" lon="6.27712">
        <ele>160</ele>
        <time>2023-04-28T13:50:23Z</time>
      </trkpt>
      <trkpt lat="43.47754" lon="6.27711">
        <ele>160</ele>
        <time>2023-04-28T13:50:24Z</time>
      </trkpt>
      <trkpt lat="43.47754" lon="6.27709">
        <ele>160</ele>
        <time>2023-04-28T13:50:25Z</time>
      </trkpt>
      <trkpt lat="43.47753" lon="6.27708">
        <ele>160</ele>
        <time>2023-04-28T13:50:26Z</time>
      </trkpt>
      <trkpt lat="43.47753" lon="6.27707">
        <ele>160</ele>
        <time>2023-04-28T13:50:27Z</time>
      </trkpt>
      <trkpt lat="43.47752" lon="6.27706">
        <ele>160</ele>
        <time>2023-04-28T13:50:28Z</time>
      </trkpt>
      <trkpt lat="43.47752" lon="6.27705">
        <ele>160</ele>
        <time>2023-04-28T13:50:29Z</time>
      </trkpt>
      <trkpt lat="43.47752" lon="6.27704">
        <ele>160</ele>
        <time>2023-04-28T13:50:30Z</time>
      </trkpt>
      <trkpt lat="43.47751" lon="6.27704">
        <ele>160</ele>
        <time>2023-04-28T13:50:31Z</time>
      </trkpt>
      <trkpt lat="43.47751" lon="6.27703">
        <ele>160</ele>
        <time>2023-04-28T13:50:32Z</time>
      </trkpt>
      <trkpt lat="43.47751" lon="6.27702">
        <ele>160</ele>
        <time>2023-04-28T13:50:33Z</time>
      </trkpt>
      <trkpt lat="43.47751" lon="6.27701">
        <ele>159</ele>
        <time>2023-04-28T13:50:34Z</time>
      </trkpt>
      <trkpt lat="43.47751" lon="6.277">
        <ele>159</ele>
        <time>2023-04-28T13:50:35Z</time>
      </trkpt>
      <trkpt lat="43.4775" lon="6.27699">
        <ele>159</ele>
        <time>2023-04-28T13:50:36Z</time>
      </trkpt>
      <trkpt lat="43.4775" lon="6.27698">
        <ele>159</ele>
        <time>2023-04-28T13:50:37Z</time>
      </trkpt>
      <trkpt lat="43.47749" lon="6.27697">
        <ele>159</ele>
        <time>2023-04-28T13:50:38Z</time>
      </trkpt>
      <trkpt lat="43.47748" lon="6.27697">
        <ele>159</ele>
        <time>2023-04-28T13:50:39Z</time>
      </trkpt>
      <trkpt lat="43.47748" lon="6.27696">
        <ele>159</ele>
        <time>2023-04-28T13:50:40Z</time>
      </trkpt>
      <trkpt lat="43.47747" lon="6.27695">
        <ele>159</ele>
        <time>2023-04-28T13:50:41Z</time>
      </trkpt>
      <trkpt lat="43.47747" lon="6.27695">
        <ele>159</ele>
        <time>2023-04-28T13:50:42Z</time>
      </trkpt>
      <trkpt lat="43.47747" lon="6.27694">
        <ele>159</ele>
        <time>2023-04-28T13:50:43Z</time>
      </trkpt>
      <trkpt lat="43.47747" lon="6.27693">
        <ele>159</ele>
        <time>2023-04-28T13:50:44Z</time>
      </trkpt>
      <trkpt lat="43.47747" lon="6.27693">
        <ele>159</ele>
        <time>2023-04-28T13:50:45Z</time>
      </trkpt>
      <trkpt lat="43.47747" lon="6.27692">
        <ele>159</ele>
        <time>2023-04-28T13:50:46Z</time>
      </trkpt>
      <trkpt lat="43.47746" lon="6.27691">
        <ele>159</ele>
        <time>2023-04-28T13:50:47Z</time>
      </trkpt>
      <trkpt lat="43.47746" lon="6.27689">
        <ele>159</ele>
        <time>2023-04-28T13:50:48Z</time>
      </trkpt>
      <trkpt lat="43.47745" lon="6.27688">
        <ele>159</ele>
        <time>2023-04-28T13:50:49Z</time>
      </trkpt>
      <trkpt lat="43.47745" lon="6.27687">
        <ele>158</ele>
        <time>2023-04-28T13:50:50Z</time>
      </trkpt>
      <trkpt lat="43.47744" lon="6.27686">
        <ele>158</ele>
        <time>2023-04-28T13:50:51Z</time>
      </trkpt>
      <trkpt lat="43.47743" lon="6.27684">
        <ele>158</ele>
        <time>2023-04-28T13:50:52Z</time>
      </trkpt>
      <trkpt lat="43.47743" lon="6.27683">
        <ele>158</ele>
        <time>2023-04-28T13:50:53Z</time>
      </trkpt>
      <trkpt lat="43.47742" lon="6.27681">
        <ele>158</ele>
        <time>2023-04-28T13:50:54Z</time>
      </trkpt>
      <trkpt lat="43.47742" lon="6.2768">
        <ele>158</ele>
        <time>2023-04-28T13:50:55Z</time>
      </trkpt>
      <trkpt lat="43.47741" lon="6.27679">
        <ele>158</ele>
        <time>2023-04-28T13:50:56Z</time>
      </trkpt>
      <trkpt lat="43.4774" lon="6.27677">
        <ele>159</ele>
        <time>2023-04-28T13:50:57Z</time>
      </trkpt>
      <trkpt lat="43.47739" lon="6.27676">
        <ele>159</ele>
        <time>2023-04-28T13:50:58Z</time>
      </trkpt>
      <trkpt lat="43.47739" lon="6.27675">
        <ele>159</ele>
        <time>2023-04-28T13:50:59Z</time>
      </trkpt>
      <trkpt lat="43.47738" lon="6.27674">
        <ele>159</ele>
        <time>2023-04-28T13:51:00Z</time>
      </trkpt>
      <trkpt lat="43.47738" lon="6.27673">
        <ele>159</ele>
        <time>2023-04-28T13:51:01Z</time>
      </trkpt>
      <trkpt lat="43.47737" lon="6.27673">
        <ele>159</ele>
        <time>2023-04-28T13:51:02Z</time>
      </trkpt>
      <trkpt lat="43.47736" lon="6.27672">
        <ele>160</ele>
        <time>2023-04-28T13:51:03Z</time>
      </trkpt>
      <trkpt lat="43.47736" lon="6.27671">
        <ele>160</ele>
        <time>2023-04-28T13:51:04Z</time>
      </trkpt>
      <trkpt lat="43.47735" lon="6.27669">
        <ele>160</ele>
        <time>2023-04-28T13:51:05Z</time>
      </trkpt>
      <trkpt lat="43.47735" lon="6.27669">
        <ele>160</ele>
        <time>2023-04-28T13:51:06Z</time>
      </trkpt>
      <trkpt lat="43.47734" lon="6.27668">
        <ele>160</ele>
        <time>2023-04-28T13:51:07Z</time>
      </trkpt>
      <trkpt lat="43.47734" lon="6.27667">
        <ele>160</ele>
        <time>2023-04-28T13:51:08Z</time>
      </trkpt>
      <trkpt lat="43.47734" lon="6.27667">
        <ele>160</ele>
        <time>2023-04-28T13:51:09Z</time>
      </trkpt>
      <trkpt lat="43.47733" lon="6.27666">
        <ele>160</ele>
        <time>2023-04-28T13:51:10Z</time>
      </trkpt>
      <trkpt lat="43.47733" lon="6.27666">
        <ele>160</ele>
        <time>2023-04-28T13:51:11Z</time>
      </trkpt>
      <trkpt lat="43.47732" lon="6.27666">
        <ele>160</ele>
        <time>2023-04-28T13:51:12Z</time>
      </trkpt>
      <trkpt lat="43.47732" lon="6.27666">
        <ele>160</ele>
        <time>2023-04-28T13:51:13Z</time>
      </trkpt>
      <trkpt lat="43.47732" lon="6.27666">
        <ele>160</ele>
        <time>2023-04-28T13:51:14Z</time>
      </trkpt>
      <trkpt lat="43.47732" lon="6.27666">
        <ele>160</ele>
        <time>2023-04-28T13:51:15Z</time>
      </trkpt>
      <trkpt lat="43.47732" lon="6.27666">
        <ele>160</ele>
        <time>2023-04-28T13:51:16Z</time>
      </trkpt>
      <trkpt lat="43.47732" lon="6.27666">
        <ele>160</ele>
        <time>2023-04-28T13:51:17Z</time>
      </trkpt>
      <trkpt lat="43.47732" lon="6.27666">
        <ele>160</ele>
        <time>2023-04-28T13:51:18Z</time>
      </trkpt>
      <trkpt lat="43.47732" lon="6.27666">
        <ele>160</ele>
        <time>2023-04-28T13:51:19Z</time>
      </trkpt>
      <trkpt lat="43.47732" lon="6.27666">
        <ele>160</ele>
        <time>2023-04-28T13:51:20Z</time>
      </trkpt>
      <trkpt lat="43.47732" lon="6.27666">
        <ele>160</ele>
        <time>2023-04-28T13:51:21Z</time>
      </trkpt>
      <trkpt lat="43.47732" lon="6.27666">
        <ele>160</ele>
        <time>2023-04-28T13:51:22Z</time>
      </trkpt>
      <trkpt lat="43.47732" lon="6.27666">
        <ele>160</ele>
        <time>2023-04-28T13:51:23Z</time>
      </trkpt>
      <trkpt lat="43.47732" lon="6.27666">
        <ele>160</ele>
        <time>2023-04-28T13:51:24Z</time>
      </trkpt>
      <trkpt lat="43.47732" lon="6.27666">
        <ele>160</ele>
        <time>2023-04-28T13:51:25Z</time>
      </trkpt>
      <trkpt lat="43.47732" lon="6.27666">
        <ele>160</ele>
        <time>2023-04-28T13:51:26Z</time>
      </trkpt>
      <trkpt lat="43.47732" lon="6.27666">
        <ele>160</ele>
        <time>2023-04-28T13:51:27Z</time>
      </trkpt>
      <trkpt lat="43.47732" lon="6.27666">
        <ele>160</ele>
        <time>2023-04-28T13:51:28Z</time>
      </trkpt>
      <trkpt lat="43.47732" lon="6.27666">
        <ele>160</ele>
        <time>2023-04-28T13:51:29Z</time>
      </trkpt>
      <trkpt lat="43.47732" lon="6.27666">
        <ele>160</ele>
        <time>2023-04-28T13:51:30Z</time>
      </trkpt>
      <trkpt lat="43.47732" lon="6.27666">
        <ele>160</ele>
        <time>2023-04-28T13:51:31Z</time>
      </trkpt>
      <trkpt lat="43.47732" lon="6.27666">
        <ele>160</ele>
        <time>2023-04-28T13:51:32Z</time>
      </trkpt>
      <trkpt lat="43.47732" lon="6.27666">
        <ele>160</ele>
        <time>2023-04-28T13:51:33Z</time>
      </trkpt>
      <trkpt lat="43.47732" lon="6.27666">
        <ele>160</ele>
        <time>2023-04-28T13:51:34Z</time>
      </trkpt>
      <trkpt lat="43.47733" lon="6.27666">
        <ele>160</ele>
        <time>2023-04-28T13:51:35Z</time>
      </trkpt>
      <trkpt lat="43.47733" lon="6.27666">
        <ele>160</ele>
        <time>2023-04-28T13:51:36Z</time>
      </trkpt>
      <trkpt lat="43.47733" lon="6.27665">
        <ele>160</ele>
        <time>2023-04-28T13:51:37Z</time>
      </trkpt>
      <trkpt lat="43.47732" lon="6.27665">
        <ele>160</ele>
        <time>2023-04-28T13:51:38Z</time>
      </trkpt>
      <trkpt lat="43.47732" lon="6.27664">
        <ele>160</ele>
        <time>2023-04-28T13:51:39Z</time>
      </trkpt>
      <trkpt lat="43.47732" lon="6.27663">
        <ele>160</ele>
        <time>2023-04-28T13:51:40Z</time>
      </trkpt>
      <trkpt lat="43.47731" lon="6.27662">
        <ele>160</ele>
        <time>2023-04-28T13:51:41Z</time>
      </trkpt>
      <trkpt lat="43.47731" lon="6.27661">
        <ele>160</ele>
        <time>2023-04-28T13:51:42Z</time>
      </trkpt>
      <trkpt lat="43.47731" lon="6.2766">
        <ele>160</ele>
        <time>2023-04-28T13:51:43Z</time>
      </trkpt>
      <trkpt lat="43.4773" lon="6.27659">
        <ele>160</ele>
        <time>2023-04-28T13:51:44Z</time>
      </trkpt>
      <trkpt lat="43.4773" lon="6.27658">
        <ele>160</ele>
        <time>2023-04-28T13:51:45Z</time>
      </trkpt>
      <trkpt lat="43.47729" lon="6.27657">
        <ele>160</ele>
        <time>2023-04-28T13:51:46Z</time>
      </trkpt>
      <trkpt lat="43.47729" lon="6.27656">
        <ele>160</ele>
        <time>2023-04-28T13:51:47Z</time>
      </trkpt>
      <trkpt lat="43.47728" lon="6.27656">
        <ele>161</ele>
        <time>2023-04-28T13:51:48Z</time>
      </trkpt>
      <trkpt lat="43.47728" lon="6.27655">
        <ele>161</ele>
        <time>2023-04-28T13:51:49Z</time>
      </trkpt>
      <trkpt lat="43.47727" lon="6.27654">
        <ele>161</ele>
        <time>2023-04-28T13:51:50Z</time>
      </trkpt>
      <trkpt lat="43.47727" lon="6.27654">
        <ele>161</ele>
        <time>2023-04-28T13:51:51Z</time>
      </trkpt>
      <trkpt lat="43.47726" lon="6.27653">
        <ele>161</ele>
        <time>2023-04-28T13:51:52Z</time>
      </trkpt>
      <trkpt lat="43.47726" lon="6.27652">
        <ele>161</ele>
        <time>2023-04-28T13:51:53Z</time>
      </trkpt>
      <trkpt lat="43.47725" lon="6.27652">
        <ele>161</ele>
        <time>2023-04-28T13:51:54Z</time>
      </trkpt>
      <trkpt lat="43.47725" lon="6.27652">
        <ele>161</ele>
        <time>2023-04-28T13:51:55Z</time>
      </trkpt>
      <trkpt lat="43.47725" lon="6.27652">
        <ele>161</ele>
        <time>2023-04-28T13:51:56Z</time>
      </trkpt>
      <trkpt lat="43.47725" lon="6.27651">
        <ele>161</ele>
        <time>2023-04-28T13:51:57Z</time>
      </trkpt>
      <trkpt lat="43.47724" lon="6.27651">
        <ele>161</ele>
        <time>2023-04-28T13:51:58Z</time>
      </trkpt>
      <trkpt lat="43.47724" lon="6.27651">
        <ele>161</ele>
        <time>2023-04-28T13:51:59Z</time>
      </trkpt>
      <trkpt lat="43.47724" lon="6.2765">
        <ele>161</ele>
        <time>2023-04-28T13:52:00Z</time>
      </trkpt>
      <trkpt lat="43.47724" lon="6.2765">
        <ele>162</ele>
        <time>2023-04-28T13:52:01Z</time>
      </trkpt>
      <trkpt lat="43.47723" lon="6.27649">
        <ele>162</ele>
        <time>2023-04-28T13:52:02Z</time>
      </trkpt>
      <trkpt lat="43.47723" lon="6.27648">
        <ele>161</ele>
        <time>2023-04-28T13:52:03Z</time>
      </trkpt>
      <trkpt lat="43.47722" lon="6.27646">
        <ele>161</ele>
        <time>2023-04-28T13:52:04Z</time>
      </trkpt>
      <trkpt lat="43.47722" lon="6.27645">
        <ele>161</ele>
        <time>2023-04-28T13:52:05Z</time>
      </trkpt>
      <trkpt lat="43.47721" lon="6.27644">
        <ele>161</ele>
        <time>2023-04-28T13:52:06Z</time>
      </trkpt>
      <trkpt lat="43.47721" lon="6.27643">
        <ele>161</ele>
        <time>2023-04-28T13:52:07Z</time>
      </trkpt>
      <trkpt lat="43.4772" lon="6.27642">
        <ele>161</ele>
        <time>2023-04-28T13:52:08Z</time>
      </trkpt>
      <trkpt lat="43.47719" lon="6.27641">
        <ele>161</ele>
        <time>2023-04-28T13:52:09Z</time>
      </trkpt>
      <trkpt lat="43.47718" lon="6.2764">
        <ele>161</ele>
        <time>2023-04-28T13:52:10Z</time>
      </trkpt>
      <trkpt lat="43.47717" lon="6.27639">
        <ele>161</ele>
        <time>2023-04-28T13:52:11Z</time>
      </trkpt>
      <trkpt lat="43.47717" lon="6.27638">
        <ele>161</ele>
        <time>2023-04-28T13:52:12Z</time>
      </trkpt>
      <trkpt lat="43.47716" lon="6.27637">
        <ele>161</ele>
        <time>2023-04-28T13:52:13Z</time>
      </trkpt>
      <trkpt lat="43.47716" lon="6.27636">
        <ele>161</ele>
        <time>2023-04-28T13:52:14Z</time>
      </trkpt>
      <trkpt lat="43.47716" lon="6.27635">
        <ele>161</ele>
        <time>2023-04-28T13:52:15Z</time>
      </trkpt>
      <trkpt lat="43.47715" lon="6.27634">
        <ele>161</ele>
        <time>2023-04-28T13:52:16Z</time>
      </trkpt>
      <trkpt lat="43.47715" lon="6.27633">
        <ele>161</ele>
        <time>2023-04-28T13:52:17Z</time>
      </trkpt>
      <trkpt lat="43.47714" lon="6.27633">
        <ele>161</ele>
        <time>2023-04-28T13:52:18Z</time>
      </trkpt>
      <trkpt lat="43.47714" lon="6.27631">
        <ele>161</ele>
        <time>2023-04-28T13:52:19Z</time>
      </trkpt>
      <trkpt lat="43.47712" lon="6.2763">
        <ele>161</ele>
        <time>2023-04-28T13:52:20Z</time>
      </trkpt>
      <trkpt lat="43.47711" lon="6.2763">
        <ele>161</ele>
        <time>2023-04-28T13:52:21Z</time>
      </trkpt>
      <trkpt lat="43.4771" lon="6.27629">
        <ele>161</ele>
        <time>2023-04-28T13:52:22Z</time>
      </trkpt>
      <trkpt lat="43.47709" lon="6.27628">
        <ele>161</ele>
        <time>2023-04-28T13:52:23Z</time>
      </trkpt>
      <trkpt lat="43.47708" lon="6.27627">
        <ele>161</ele>
        <time>2023-04-28T13:52:24Z</time>
      </trkpt>
      <trkpt lat="43.47707" lon="6.27627">
        <ele>161</ele>
        <time>2023-04-28T13:52:25Z</time>
      </trkpt>
      <trkpt lat="43.47706" lon="6.27627">
        <ele>161</ele>
        <time>2023-04-28T13:52:26Z</time>
      </trkpt>
      <trkpt lat="43.47705" lon="6.27626">
        <ele>161</ele>
        <time>2023-04-28T13:52:27Z</time>
      </trkpt>
      <trkpt lat="43.47704" lon="6.27626">
        <ele>161</ele>
        <time>2023-04-28T13:52:28Z</time>
      </trkpt>
      <trkpt lat="43.47703" lon="6.27626">
        <ele>160</ele>
        <time>2023-04-28T13:52:29Z</time>
      </trkpt>
      <trkpt lat="43.47702" lon="6.27626">
        <ele>160</ele>
        <time>2023-04-28T13:52:30Z</time>
      </trkpt>
      <trkpt lat="43.47701" lon="6.27625">
        <ele>160</ele>
        <time>2023-04-28T13:52:31Z</time>
      </trkpt>
      <trkpt lat="43.477" lon="6.27625">
        <ele>160</ele>
        <time>2023-04-28T13:52:32Z</time>
      </trkpt>
      <trkpt lat="43.477" lon="6.27625">
        <ele>159</ele>
        <time>2023-04-28T13:52:33Z</time>
      </trkpt>
      <trkpt lat="43.47699" lon="6.27624">
        <ele>159</ele>
        <time>2023-04-28T13:52:34Z</time>
      </trkpt>
      <trkpt lat="43.47699" lon="6.27624">
        <ele>159</ele>
        <time>2023-04-28T13:52:35Z</time>
      </trkpt>
      <trkpt lat="43.47699" lon="6.27624">
        <ele>159</ele>
        <time>2023-04-28T13:52:36Z</time>
      </trkpt>
      <trkpt lat="43.47699" lon="6.27624">
        <ele>159</ele>
        <time>2023-04-28T13:52:37Z</time>
      </trkpt>
      <trkpt lat="43.47699" lon="6.27624">
        <ele>159</ele>
        <time>2023-04-28T13:52:38Z</time>
      </trkpt>
      <trkpt lat="43.47699" lon="6.27624">
        <ele>159</ele>
        <time>2023-04-28T13:52:39Z</time>
      </trkpt>
      <trkpt lat="43.47699" lon="6.27624">
        <ele>159</ele>
        <time>2023-04-28T13:52:40Z</time>
      </trkpt>
      <trkpt lat="43.47698" lon="6.27623">
        <ele>159</ele>
        <time>2023-04-28T13:52:41Z</time>
      </trkpt>
      <trkpt lat="43.47697" lon="6.27623">
        <ele>159</ele>
        <time>2023-04-28T13:52:42Z</time>
      </trkpt>
      <trkpt lat="43.47696" lon="6.27623">
        <ele>159</ele>
        <time>2023-04-28T13:52:43Z</time>
      </trkpt>
      <trkpt lat="43.47695" lon="6.27622">
        <ele>159</ele>
        <time>2023-04-28T13:52:44Z</time>
      </trkpt>
      <trkpt lat="43.47694" lon="6.27621">
        <ele>159</ele>
        <time>2023-04-28T13:52:45Z</time>
      </trkpt>
      <trkpt lat="43.47693" lon="6.2762">
        <ele>159</ele>
        <time>2023-04-28T13:52:46Z</time>
      </trkpt>
      <trkpt lat="43.47693" lon="6.2762">
        <ele>158</ele>
        <time>2023-04-28T13:52:47Z</time>
      </trkpt>
      <trkpt lat="43.47692" lon="6.27619">
        <ele>159</ele>
        <time>2023-04-28T13:52:48Z</time>
      </trkpt>
      <trkpt lat="43.4769" lon="6.27619">
        <ele>159</ele>
        <time>2023-04-28T13:52:49Z</time>
      </trkpt>
      <trkpt lat="43.47689" lon="6.27618">
        <ele>159</ele>
        <time>2023-04-28T13:52:50Z</time>
      </trkpt>
      <trkpt lat="43.47688" lon="6.27618">
        <ele>159</ele>
        <time>2023-04-28T13:52:51Z</time>
      </trkpt>
      <trkpt lat="43.47687" lon="6.27617">
        <ele>159</ele>
        <time>2023-04-28T13:52:52Z</time>
      </trkpt>
      <trkpt lat="43.47686" lon="6.27617">
        <ele>159</ele>
        <time>2023-04-28T13:52:53Z</time>
      </trkpt>
      <trkpt lat="43.47685" lon="6.27617">
        <ele>159</ele>
        <time>2023-04-28T13:52:54Z</time>
      </trkpt>
      <trkpt lat="43.47684" lon="6.27616">
        <ele>159</ele>
        <time>2023-04-28T13:52:55Z</time>
      </trkpt>
      <trkpt lat="43.47683" lon="6.27616">
        <ele>159</ele>
        <time>2023-04-28T13:52:56Z</time>
      </trkpt>
      <trkpt lat="43.47682" lon="6.27617">
        <ele>159</ele>
        <time>2023-04-28T13:52:57Z</time>
      </trkpt>
      <trkpt lat="43.47681" lon="6.27616">
        <ele>160</ele>
        <time>2023-04-28T13:52:58Z</time>
      </trkpt>
      <trkpt lat="43.4768" lon="6.27616">
        <ele>160</ele>
        <time>2023-04-28T13:52:59Z</time>
      </trkpt>
      <trkpt lat="43.47679" lon="6.27616">
        <ele>161</ele>
        <time>2023-04-28T13:53:00Z</time>
      </trkpt>
      <trkpt lat="43.47678" lon="6.27616">
        <ele>161</ele>
        <time>2023-04-28T13:53:01Z</time>
      </trkpt>
      <trkpt lat="43.47677" lon="6.27616">
        <ele>161</ele>
        <time>2023-04-28T13:53:02Z</time>
      </trkpt>
      <trkpt lat="43.47676" lon="6.27616">
        <ele>161</ele>
        <time>2023-04-28T13:53:03Z</time>
      </trkpt>
      <trkpt lat="43.47675" lon="6.27616">
        <ele>161</ele>
        <time>2023-04-28T13:53:04Z</time>
      </trkpt>
      <trkpt lat="43.47675" lon="6.27616">
        <ele>161</ele>
        <time>2023-04-28T13:53:05Z</time>
      </trkpt>
      <trkpt lat="43.47674" lon="6.27616">
        <ele>161</ele>
        <time>2023-04-28T13:53:06Z</time>
      </trkpt>
      <trkpt lat="43.47674" lon="6.27615">
        <ele>161</ele>
        <time>2023-04-28T13:53:07Z</time>
      </trkpt>
      <trkpt lat="43.47675" lon="6.27614">
        <ele>161</ele>
        <time>2023-04-28T13:53:08Z</time>
      </trkpt>
      <trkpt lat="43.47675" lon="6.27614">
        <ele>161</ele>
        <time>2023-04-28T13:53:09Z</time>
      </trkpt>
      <trkpt lat="43.47675" lon="6.27613">
        <ele>161</ele>
        <time>2023-04-28T13:53:10Z</time>
      </trkpt>
      <trkpt lat="43.47675" lon="6.27613">
        <ele>161</ele>
        <time>2023-04-28T13:53:11Z</time>
      </trkpt>
      <trkpt lat="43.47675" lon="6.27612">
        <ele>161</ele>
        <time>2023-04-28T13:53:12Z</time>
      </trkpt>
      <trkpt lat="43.47674" lon="6.27612">
        <ele>161</ele>
        <time>2023-04-28T13:53:13Z</time>
      </trkpt>
      <trkpt lat="43.47674" lon="6.27612">
        <ele>161</ele>
        <time>2023-04-28T13:53:14Z</time>
      </trkpt>
      <trkpt lat="43.47673" lon="6.27611">
        <ele>161</ele>
        <time>2023-04-28T13:53:15Z</time>
      </trkpt>
      <trkpt lat="43.47672" lon="6.27611">
        <ele>161</ele>
        <time>2023-04-28T13:53:16Z</time>
      </trkpt>
      <trkpt lat="43.47671" lon="6.27611">
        <ele>161</ele>
        <time>2023-04-28T13:53:17Z</time>
      </trkpt>
      <trkpt lat="43.4767" lon="6.27611">
        <ele>161</ele>
        <time>2023-04-28T13:53:18Z</time>
      </trkpt>
      <trkpt lat="43.47669" lon="6.2761">
        <ele>161</ele>
        <time>2023-04-28T13:53:19Z</time>
      </trkpt>
      <trkpt lat="43.47668" lon="6.2761">
        <ele>161</ele>
        <time>2023-04-28T13:53:20Z</time>
      </trkpt>
      <trkpt lat="43.47667" lon="6.2761">
        <ele>161</ele>
        <time>2023-04-28T13:53:21Z</time>
      </trkpt>
      <trkpt lat="43.47666" lon="6.2761">
        <ele>161</ele>
        <time>2023-04-28T13:53:22Z</time>
      </trkpt>
      <trkpt lat="43.47665" lon="6.2761">
        <ele>161</ele>
        <time>2023-04-28T13:53:23Z</time>
      </trkpt>
      <trkpt lat="43.47663" lon="6.2761">
        <ele>161</ele>
        <time>2023-04-28T13:53:24Z</time>
      </trkpt>
      <trkpt lat="43.47662" lon="6.2761">
        <ele>161</ele>
        <time>2023-04-28T13:53:25Z</time>
      </trkpt>
      <trkpt lat="43.4766" lon="6.2761">
        <ele>161</ele>
        <time>2023-04-28T13:53:26Z</time>
      </trkpt>
      <trkpt lat="43.47659" lon="6.2761">
        <ele>161</ele>
        <time>2023-04-28T13:53:27Z</time>
      </trkpt>
      <trkpt lat="43.47658" lon="6.2761">
        <ele>161</ele>
        <time>2023-04-28T13:53:28Z</time>
      </trkpt>
      <trkpt lat="43.47657" lon="6.2761">
        <ele>161</ele>
        <time>2023-04-28T13:53:29Z</time>
      </trkpt>
      <trkpt lat="43.47656" lon="6.2761">
        <ele>161</ele>
        <time>2023-04-28T13:53:30Z</time>
      </trkpt>
      <trkpt lat="43.47655" lon="6.2761">
        <ele>162</ele>
        <time>2023-04-28T13:53:31Z</time>
      </trkpt>
      <trkpt lat="43.47654" lon="6.2761">
        <ele>162</ele>
        <time>2023-04-28T13:53:32Z</time>
      </trkpt>
      <trkpt lat="43.47653" lon="6.2761">
        <ele>162</ele>
        <time>2023-04-28T13:53:33Z</time>
      </trkpt>
      <trkpt lat="43.47652" lon="6.2761">
        <ele>162</ele>
        <time>2023-04-28T13:53:34Z</time>
      </trkpt>
      <trkpt lat="43.47651" lon="6.2761">
        <ele>162</ele>
        <time>2023-04-28T13:53:35Z</time>
      </trkpt>
      <trkpt lat="43.47651" lon="6.2761">
        <ele>162</ele>
        <time>2023-04-28T13:53:36Z</time>
      </trkpt>
      <trkpt lat="43.4765" lon="6.2761">
        <ele>162</ele>
        <time>2023-04-28T13:53:37Z</time>
      </trkpt>
      <trkpt lat="43.47648" lon="6.27611">
        <ele>162</ele>
        <time>2023-04-28T13:53:38Z</time>
      </trkpt>
      <trkpt lat="43.47647" lon="6.27611">
        <ele>162</ele>
        <time>2023-04-28T13:53:39Z</time>
      </trkpt>
      <trkpt lat="43.47646" lon="6.27611">
        <ele>162</ele>
        <time>2023-04-28T13:53:40Z</time>
      </trkpt>
      <trkpt lat="43.47645" lon="6.27612">
        <ele>162</ele>
        <time>2023-04-28T13:53:41Z</time>
      </trkpt>
      <trkpt lat="43.47644" lon="6.27612">
        <ele>162</ele>
        <time>2023-04-28T13:53:42Z</time>
      </trkpt>
      <trkpt lat="43.47643" lon="6.27613">
        <ele>162</ele>
        <time>2023-04-28T13:53:43Z</time>
      </trkpt>
      <trkpt lat="43.47642" lon="6.27614">
        <ele>162</ele>
        <time>2023-04-28T13:53:44Z</time>
      </trkpt>
      <trkpt lat="43.47642" lon="6.27616">
        <ele>163</ele>
        <time>2023-04-28T13:53:45Z</time>
      </trkpt>
      <trkpt lat="43.47641" lon="6.27617">
        <ele>163</ele>
        <time>2023-04-28T13:53:46Z</time>
      </trkpt>
      <trkpt lat="43.47639" lon="6.27617">
        <ele>163</ele>
        <time>2023-04-28T13:53:47Z</time>
      </trkpt>
      <trkpt lat="43.47639" lon="6.27618">
        <ele>163</ele>
        <time>2023-04-28T13:53:48Z</time>
      </trkpt>
      <trkpt lat="43.47639" lon="6.27619">
        <ele>163</ele>
        <time>2023-04-28T13:53:49Z</time>
      </trkpt>
      <trkpt lat="43.47638" lon="6.27621">
        <ele>163</ele>
        <time>2023-04-28T13:53:50Z</time>
      </trkpt>
      <trkpt lat="43.47637" lon="6.27622">
        <ele>163</ele>
        <time>2023-04-28T13:53:51Z</time>
      </trkpt>
      <trkpt lat="43.47637" lon="6.27623">
        <ele>163</ele>
        <time>2023-04-28T13:53:52Z</time>
      </trkpt>
      <trkpt lat="43.47636" lon="6.27623">
        <ele>163</ele>
        <time>2023-04-28T13:53:53Z</time>
      </trkpt>
      <trkpt lat="43.47635" lon="6.27624">
        <ele>163</ele>
        <time>2023-04-28T13:53:54Z</time>
      </trkpt>
      <trkpt lat="43.47635" lon="6.27625">
        <ele>164</ele>
        <time>2023-04-28T13:53:55Z</time>
      </trkpt>
      <trkpt lat="43.47635" lon="6.27626">
        <ele>164</ele>
        <time>2023-04-28T13:53:56Z</time>
      </trkpt>
      <trkpt lat="43.47634" lon="6.27626">
        <ele>164</ele>
        <time>2023-04-28T13:53:57Z</time>
      </trkpt>
      <trkpt lat="43.47634" lon="6.27626">
        <ele>164</ele>
        <time>2023-04-28T13:53:58Z</time>
      </trkpt>
      <trkpt lat="43.47634" lon="6.27626">
        <ele>164</ele>
        <time>2023-04-28T13:53:59Z</time>
      </trkpt>
      <trkpt lat="43.47634" lon="6.27626">
        <ele>165</ele>
        <time>2023-04-28T13:54:00Z</time>
      </trkpt>
      <trkpt lat="43.47634" lon="6.27626">
        <ele>165</ele>
        <time>2023-04-28T13:54:01Z</time>
      </trkpt>
      <trkpt lat="43.47634" lon="6.27626">
        <ele>165</ele>
        <time>2023-04-28T13:54:02Z</time>
      </trkpt>
      <trkpt lat="43.47634" lon="6.27626">
        <ele>165</ele>
        <time>2023-04-28T13:54:03Z</time>
      </trkpt>
      <trkpt lat="43.47634" lon="6.27625">
        <ele>165</ele>
        <time>2023-04-28T13:54:04Z</time>
      </trkpt>
      <trkpt lat="43.47633" lon="6.27625">
        <ele>165</ele>
        <time>2023-04-28T13:54:05Z</time>
      </trkpt>
      <trkpt lat="43.47634" lon="6.27625">
        <ele>165</ele>
        <time>2023-04-28T13:54:06Z</time>
      </trkpt>
      <trkpt lat="43.47634" lon="6.27626">
        <ele>165</ele>
        <time>2023-04-28T13:54:07Z</time>
      </trkpt>
      <trkpt lat="43.47634" lon="6.27627">
        <ele>165</ele>
        <time>2023-04-28T13:54:08Z</time>
      </trkpt>
      <trkpt lat="43.47634" lon="6.27626">
        <ele>165</ele>
        <time>2023-04-28T13:54:09Z</time>
      </trkpt>
      <trkpt lat="43.47635" lon="6.27626">
        <ele>165</ele>
        <time>2023-04-28T13:54:10Z</time>
      </trkpt>
      <trkpt lat="43.47635" lon="6.27625">
        <ele>165</ele>
        <time>2023-04-28T13:54:11Z</time>
      </trkpt>
      <trkpt lat="43.47636" lon="6.27625">
        <ele>165</ele>
        <time>2023-04-28T13:54:12Z</time>
      </trkpt>
      <trkpt lat="43.47636" lon="6.27624">
        <ele>165</ele>
        <time>2023-04-28T13:54:13Z</time>
      </trkpt>
      <trkpt lat="43.47636" lon="6.27624">
        <ele>165</ele>
        <time>2023-04-28T13:54:14Z</time>
      </trkpt>
      <trkpt lat="43.47636" lon="6.27624">
        <ele>165</ele>
        <time>2023-04-28T13:54:15Z</time>
      </trkpt>
      <trkpt lat="43.47636" lon="6.27624">
        <ele>165</ele>
        <time>2023-04-28T13:54:16Z</time>
      </trkpt>
      <trkpt lat="43.47636" lon="6.27624">
        <ele>165</ele>
        <time>2023-04-28T13:54:17Z</time>
      </trkpt>
      <trkpt lat="43.47636" lon="6.27624">
        <ele>165</ele>
        <time>2023-04-28T13:54:18Z</time>
      </trkpt>
      <trkpt lat="43.47636" lon="6.27624">
        <ele>165</ele>
        <time>2023-04-28T13:54:19Z</time>
      </trkpt>
      <trkpt lat="43.47636" lon="6.27624">
        <ele>165</ele>
        <time>2023-04-28T13:54:20Z</time>
      </trkpt>
      <trkpt lat="43.47636" lon="6.27624">
        <ele>165</ele>
        <time>2023-04-28T13:54:21Z</time>
      </trkpt>
      <trkpt lat="43.47636" lon="6.27624">
        <ele>165</ele>
        <time>2023-04-28T13:54:22Z</time>
      </trkpt>
      <trkpt lat="43.47636" lon="6.27624">
        <ele>165</ele>
        <time>2023-04-28T13:54:23Z</time>
      </trkpt>
      <trkpt lat="43.47636" lon="6.27624">
        <ele>165</ele>
        <time>2023-04-28T13:54:24Z</time>
      </trkpt>
      <trkpt lat="43.47636" lon="6.27624">
        <ele>165</ele>
        <time>2023-04-28T13:54:25Z</time>
      </trkpt>
      <trkpt lat="43.47636" lon="6.27624">
        <ele>165</ele>
        <time>2023-04-28T13:54:26Z</time>
      </trkpt>
      <trkpt lat="43.47636" lon="6.27624">
        <ele>165</ele>
        <time>2023-04-28T13:54:27Z</time>
      </trkpt>
      <trkpt lat="43.47636" lon="6.27624">
        <ele>165</ele>
        <time>2023-04-28T13:54:28Z</time>
      </trkpt>
      <trkpt lat="43.47636" lon="6.27624">
        <ele>165</ele>
        <time>2023-04-28T13:54:29Z</time>
      </trkpt>
      <trkpt lat="43.47636" lon="6.27624">
        <ele>165</ele>
        <time>2023-04-28T13:54:30Z</time>
      </trkpt>
      <trkpt lat="43.47636" lon="6.27624">
        <ele>165</ele>
        <time>2023-04-28T13:54:31Z</time>
      </trkpt>
      <trkpt lat="43.47636" lon="6.27624">
        <ele>165</ele>
        <time>2023-04-28T13:54:32Z</time>
      </trkpt>
      <trkpt lat="43.47636" lon="6.27624">
        <ele>165</ele>
        <time>2023-04-28T13:54:33Z</time>
      </trkpt>
      <trkpt lat="43.47636" lon="6.27624">
        <ele>165</ele>
        <time>2023-04-28T13:54:34Z</time>
      </trkpt>
      <trkpt lat="43.47636" lon="6.27624">
        <ele>165</ele>
        <time>2023-04-28T13:54:35Z</time>
      </trkpt>
      <trkpt lat="43.47636" lon="6.27624">
        <ele>165</ele>
        <time>2023-04-28T13:54:36Z</time>
      </trkpt>
      <trkpt lat="43.47636" lon="6.27624">
        <ele>165</ele>
        <time>2023-04-28T13:54:37Z</time>
      </trkpt>
      <trkpt lat="43.47636" lon="6.27624">
        <ele>165</ele>
        <time>2023-04-28T13:54:38Z</time>
      </trkpt>
      <trkpt lat="43.47636" lon="6.27624">
        <ele>165</ele>
        <time>2023-04-28T13:54:39Z</time>
      </trkpt>
      <trkpt lat="43.47636" lon="6.27624">
        <ele>165</ele>
        <time>2023-04-28T13:54:40Z</time>
      </trkpt>
      <trkpt lat="43.47636" lon="6.27624">
        <ele>165</ele>
        <time>2023-04-28T13:54:41Z</time>
      </trkpt>
      <trkpt lat="43.47636" lon="6.27624">
        <ele>165</ele>
        <time>2023-04-28T13:54:42Z</time>
      </trkpt>
      <trkpt lat="43.47636" lon="6.27624">
        <ele>165</ele>
        <time>2023-04-28T13:54:43Z</time>
      </trkpt>
      <trkpt lat="43.47636" lon="6.27624">
        <ele>165</ele>
        <time>2023-04-28T13:54:44Z</time>
      </trkpt>
      <trkpt lat="43.47636" lon="6.27624">
        <ele>165</ele>
        <time>2023-04-28T13:54:45Z</time>
      </trkpt>
      <trkpt lat="43.47636" lon="6.27624">
        <ele>165</ele>
        <time>2023-04-28T13:54:46Z</time>
      </trkpt>
      <trkpt lat="43.47636" lon="6.27624">
        <ele>165</ele>
        <time>2023-04-28T13:54:47Z</time>
      </trkpt>
      <trkpt lat="43.47638" lon="6.27615">
        <ele>165</ele>
        <time>2023-04-28T13:54:48Z</time>
      </trkpt>
      <trkpt lat="43.47638" lon="6.27615">
        <ele>165</ele>
        <time>2023-04-28T13:54:49Z</time>
      </trkpt>
      <trkpt lat="43.47638" lon="6.27615">
        <ele>165</ele>
        <time>2023-04-28T13:54:50Z</time>
      </trkpt>
      <trkpt lat="43.47638" lon="6.27615">
        <ele>165</ele>
        <time>2023-04-28T13:54:51Z</time>
      </trkpt>
      <trkpt lat="43.47638" lon="6.27615">
        <ele>165</ele>
        <time>2023-04-28T13:54:52Z</time>
      </trkpt>
      <trkpt lat="43.47638" lon="6.27615">
        <ele>165</ele>
        <time>2023-04-28T13:54:53Z</time>
      </trkpt>
      <trkpt lat="43.47638" lon="6.27615">
        <ele>165</ele>
        <time>2023-04-28T13:54:54Z</time>
      </trkpt>
      <trkpt lat="43.47638" lon="6.27615">
        <ele>165</ele>
        <time>2023-04-28T13:54:55Z</time>
      </trkpt>
      <trkpt lat="43.47638" lon="6.27615">
        <ele>165</ele>
        <time>2023-04-28T13:54:56Z</time>
      </trkpt>
      <trkpt lat="43.47638" lon="6.27615">
        <ele>165</ele>
        <time>2023-04-28T13:54:57Z</time>
      </trkpt>
      <trkpt lat="43.47638" lon="6.27615">
        <ele>165</ele>
        <time>2023-04-28T13:54:58Z</time>
      </trkpt>
      <trkpt lat="43.47638" lon="6.27615">
        <ele>165</ele>
        <time>2023-04-28T13:54:59Z</time>
      </trkpt>
      <trkpt lat="43.47638" lon="6.27615">
        <ele>165</ele>
        <time>2023-04-28T13:55:00Z</time>
      </trkpt>
      <trkpt lat="43.47638" lon="6.27615">
        <ele>165</ele>
        <time>2023-04-28T13:55:01Z</time>
      </trkpt>
      <trkpt lat="43.47638" lon="6.27615">
        <ele>165</ele>
        <time>2023-04-28T13:55:02Z</time>
      </trkpt>
      <trkpt lat="43.47638" lon="6.27615">
        <ele>165</ele>
        <time>2023-04-28T13:55:03Z</time>
      </trkpt>
      <trkpt lat="43.47638" lon="6.27615">
        <ele>165</ele>
        <time>2023-04-28T13:55:04Z</time>
      </trkpt>
      <trkpt lat="43.47638" lon="6.27615">
        <ele>165</ele>
        <time>2023-04-28T13:55:05Z</time>
      </trkpt>
      <trkpt lat="43.47638" lon="6.27615">
        <ele>165</ele>
        <time>2023-04-28T13:55:06Z</time>
      </trkpt>
      <trkpt lat="43.47638" lon="6.27615">
        <ele>165</ele>
        <time>2023-04-28T13:55:07Z</time>
      </trkpt>
      <trkpt lat="43.47638" lon="6.27615">
        <ele>165</ele>
        <time>2023-04-28T13:55:08Z</time>
      </trkpt>
      <trkpt lat="43.47638" lon="6.27615">
        <ele>165</ele>
        <time>2023-04-28T13:55:09Z</time>
      </trkpt>
      <trkpt lat="43.47638" lon="6.27615">
        <ele>165</ele>
        <time>2023-04-28T13:55:10Z</time>
      </trkpt>
      <trkpt lat="43.47638" lon="6.27615">
        <ele>165</ele>
        <time>2023-04-28T13:55:11Z</time>
      </trkpt>
      <trkpt lat="43.47638" lon="6.27615">
        <ele>165</ele>
        <time>2023-04-28T13:55:12Z</time>
      </trkpt>
      <trkpt lat="43.47638" lon="6.27615">
        <ele>165</ele>
        <time>2023-04-28T13:55:13Z</time>
      </trkpt>
      <trkpt lat="43.47638" lon="6.27615">
        <ele>165</ele>
        <time>2023-04-28T13:55:14Z</time>
      </trkpt>
      <trkpt lat="43.47638" lon="6.27615">
        <ele>165</ele>
        <time>2023-04-28T13:55:15Z</time>
      </trkpt>
      <trkpt lat="43.47638" lon="6.27615">
        <ele>165</ele>
        <time>2023-04-28T13:55:16Z</time>
      </trkpt>
      <trkpt lat="43.47638" lon="6.27615">
        <ele>165</ele>
        <time>2023-04-28T13:55:17Z</time>
      </trkpt>
      <trkpt lat="43.47638" lon="6.27615">
        <ele>165</ele>
        <time>2023-04-28T13:55:18Z</time>
      </trkpt>
      <trkpt lat="43.47638" lon="6.27615">
        <ele>165</ele>
        <time>2023-04-28T13:55:19Z</time>
      </trkpt>
      <trkpt lat="43.47638" lon="6.27615">
        <ele>165</ele>
        <time>2023-04-28T13:55:20Z</time>
      </trkpt>
      <trkpt lat="43.47638" lon="6.27615">
        <ele>165</ele>
        <time>2023-04-28T13:55:21Z</time>
      </trkpt>
      <trkpt lat="43.47638" lon="6.27615">
        <ele>165</ele>
        <time>2023-04-28T13:55:22Z</time>
      </trkpt>
      <trkpt lat="43.47638" lon="6.27615">
        <ele>165</ele>
        <time>2023-04-28T13:55:23Z</time>
      </trkpt>
      <trkpt lat="43.47638" lon="6.27615">
        <ele>165</ele>
        <time>2023-04-28T13:55:24Z</time>
      </trkpt>
      <trkpt lat="43.47638" lon="6.27616">
        <ele>165</ele>
        <time>2023-04-28T13:55:25Z</time>
      </trkpt>
      <trkpt lat="43.47639" lon="6.27616">
        <ele>165</ele>
        <time>2023-04-28T13:55:26Z</time>
      </trkpt>
      <trkpt lat="43.47639" lon="6.27617">
        <ele>165</ele>
        <time>2023-04-28T13:55:27Z</time>
      </trkpt>
      <trkpt lat="43.47639" lon="6.27617">
        <ele>165</ele>
        <time>2023-04-28T13:55:28Z</time>
      </trkpt>
      <trkpt lat="43.47639" lon="6.27617">
        <ele>165</ele>
        <time>2023-04-28T13:55:29Z</time>
      </trkpt>
      <trkpt lat="43.47639" lon="6.27617">
        <ele>165</ele>
        <time>2023-04-28T13:55:30Z</time>
      </trkpt>
      <trkpt lat="43.47639" lon="6.27617">
        <ele>165</ele>
        <time>2023-04-28T13:55:31Z</time>
      </trkpt>
      <trkpt lat="43.47639" lon="6.27617">
        <ele>165</ele>
        <time>2023-04-28T13:55:32Z</time>
      </trkpt>
      <trkpt lat="43.47639" lon="6.27617">
        <ele>165</ele>
        <time>2023-04-28T13:55:33Z</time>
      </trkpt>
      <trkpt lat="43.47639" lon="6.27617">
        <ele>165</ele>
        <time>2023-04-28T13:55:34Z</time>
      </trkpt>
      <trkpt lat="43.47639" lon="6.27617">
        <ele>165</ele>
        <time>2023-04-28T13:55:35Z</time>
      </trkpt>
      <trkpt lat="43.47639" lon="6.27617">
        <ele>165</ele>
        <time>2023-04-28T13:55:36Z</time>
      </trkpt>
      <trkpt lat="43.47639" lon="6.27617">
        <ele>165</ele>
        <time>2023-04-28T13:55:37Z</time>
      </trkpt>
      <trkpt lat="43.47639" lon="6.27618">
        <ele>165</ele>
        <time>2023-04-28T13:55:38Z</time>
      </trkpt>
      <trkpt lat="43.47638" lon="6.27618">
        <ele>165</ele>
        <time>2023-04-28T13:55:39Z</time>
      </trkpt>
      <trkpt lat="43.47638" lon="6.27618">
        <ele>165</ele>
        <time>2023-04-28T13:55:40Z</time>
      </trkpt>
      <trkpt lat="43.47637" lon="6.27618">
        <ele>165</ele>
        <time>2023-04-28T13:55:41Z</time>
      </trkpt>
      <trkpt lat="43.47637" lon="6.27618">
        <ele>165</ele>
        <time>2023-04-28T13:55:42Z</time>
      </trkpt>
      <trkpt lat="43.47637" lon="6.27618">
        <ele>165</ele>
        <time>2023-04-28T13:55:43Z</time>
      </trkpt>
      <trkpt lat="43.47637" lon="6.27618">
        <ele>165</ele>
        <time>2023-04-28T13:55:44Z</time>
      </trkpt>
      <trkpt lat="43.47637" lon="6.27619">
        <ele>165</ele>
        <time>2023-04-28T13:55:45Z</time>
      </trkpt>
      <trkpt lat="43.47637" lon="6.27619">
        <ele>165</ele>
        <time>2023-04-28T13:55:46Z</time>
      </trkpt>
      <trkpt lat="43.47637" lon="6.27619">
        <ele>165</ele>
        <time>2023-04-28T13:55:47Z</time>
      </trkpt>
      <trkpt lat="43.47637" lon="6.27619">
        <ele>165</ele>
        <time>2023-04-28T13:55:48Z</time>
      </trkpt>
      <trkpt lat="43.47637" lon="6.27619">
        <ele>165</ele>
        <time>2023-04-28T13:55:49Z</time>
      </trkpt>
      <trkpt lat="43.47637" lon="6.27619">
        <ele>165</ele>
        <time>2023-04-28T13:55:50Z</time>
      </trkpt>
      <trkpt lat="43.47637" lon="6.27619">
        <ele>165</ele>
        <time>2023-04-28T13:55:51Z</time>
      </trkpt>
      <trkpt lat="43.47637" lon="6.27619">
        <ele>165</ele>
        <time>2023-04-28T13:55:52Z</time>
      </trkpt>
      <trkpt lat="43.47637" lon="6.27619">
        <ele>165</ele>
        <time>2023-04-28T13:55:53Z</time>
      </trkpt>
      <trkpt lat="43.47637" lon="6.27619">
        <ele>165</ele>
        <time>2023-04-28T13:55:54Z</time>
      </trkpt>
      <trkpt lat="43.47637" lon="6.27619">
        <ele>165</ele>
        <time>2023-04-28T13:55:55Z</time>
      </trkpt>
      <trkpt lat="43.47637" lon="6.27619">
        <ele>165</ele>
        <time>2023-04-28T13:55:56Z</time>
      </trkpt>
      <trkpt lat="43.47637" lon="6.27619">
        <ele>165</ele>
        <time>2023-04-28T13:55:57Z</time>
      </trkpt>
      <trkpt lat="43.47637" lon="6.27619">
        <ele>165</ele>
        <time>2023-04-28T13:55:58Z</time>
      </trkpt>
      <trkpt lat="43.47637" lon="6.27619">
        <ele>165</ele>
        <time>2023-04-28T13:55:59Z</time>
      </trkpt>
      <trkpt lat="43.47637" lon="6.27619">
        <ele>164</ele>
        <time>2023-04-28T13:56:00Z</time>
      </trkpt>
      <trkpt lat="43.47637" lon="6.27619">
        <ele>164</ele>
        <time>2023-04-28T13:56:01Z</time>
      </trkpt>
      <trkpt lat="43.47637" lon="6.27619">
        <ele>164</ele>
        <time>2023-04-28T13:56:02Z</time>
      </trkpt>
      <trkpt lat="43.47637" lon="6.27619">
        <ele>164</ele>
        <time>2023-04-28T13:56:03Z</time>
      </trkpt>
      <trkpt lat="43.47637" lon="6.27619">
        <ele>164</ele>
        <time>2023-04-28T13:56:04Z</time>
      </trkpt>
      <trkpt lat="43.47637" lon="6.27619">
        <ele>164</ele>
        <time>2023-04-28T13:56:05Z</time>
      </trkpt>
      <trkpt lat="43.47637" lon="6.27619">
        <ele>164</ele>
        <time>2023-04-28T13:56:06Z</time>
      </trkpt>
      <trkpt lat="43.47637" lon="6.27619">
        <ele>164</ele>
        <time>2023-04-28T13:56:07Z</time>
      </trkpt>
      <trkpt lat="43.47637" lon="6.27619">
        <ele>164</ele>
        <time>2023-04-28T13:56:08Z</time>
      </trkpt>
      <trkpt lat="43.47637" lon="6.27619">
        <ele>164</ele>
        <time>2023-04-28T13:56:09Z</time>
      </trkpt>
      <trkpt lat="43.47637" lon="6.27619">
        <ele>164</ele>
        <time>2023-04-28T13:56:10Z</time>
      </trkpt>
      <trkpt lat="43.47637" lon="6.27619">
        <ele>164</ele>
        <time>2023-04-28T13:56:11Z</time>
      </trkpt>
      <trkpt lat="43.47637" lon="6.27619">
        <ele>164</ele>
        <time>2023-04-28T13:56:12Z</time>
      </trkpt>
      <trkpt lat="43.47637" lon="6.27619">
        <ele>164</ele>
        <time>2023-04-28T13:56:13Z</time>
      </trkpt>
      <trkpt lat="43.47637" lon="6.27619">
        <ele>164</ele>
        <time>2023-04-28T13:56:14Z</time>
      </trkpt>
      <trkpt lat="43.47637" lon="6.27619">
        <ele>164</ele>
        <time>2023-04-28T13:56:15Z</time>
      </trkpt>
      <trkpt lat="43.47637" lon="6.27619">
        <ele>164</ele>
        <time>2023-04-28T13:56:16Z</time>
      </trkpt>
      <trkpt lat="43.47637" lon="6.27619">
        <ele>164</ele>
        <time>2023-04-28T13:56:17Z</time>
      </trkpt>
      <trkpt lat="43.47637" lon="6.27619">
        <ele>164</ele>
        <time>2023-04-28T13:56:18Z</time>
      </trkpt>
      <trkpt lat="43.47637" lon="6.27619">
        <ele>164</ele>
        <time>2023-04-28T13:56:19Z</time>
      </trkpt>
      <trkpt lat="43.47637" lon="6.27619">
        <ele>164</ele>
        <time>2023-04-28T13:56:20Z</time>
      </trkpt>
      <trkpt lat="43.47636" lon="6.27619">
        <ele>164</ele>
        <time>2023-04-28T13:56:21Z</time>
      </trkpt>
      <trkpt lat="43.47636" lon="6.27619">
        <ele>164</ele>
        <time>2023-04-28T13:56:22Z</time>
      </trkpt>
      <trkpt lat="43.47634" lon="6.2762">
        <ele>164</ele>
        <time>2023-04-28T13:56:23Z</time>
      </trkpt>
      <trkpt lat="43.47633" lon="6.2762">
        <ele>164</ele>
        <time>2023-04-28T13:56:24Z</time>
      </trkpt>
      <trkpt lat="43.47632" lon="6.2762">
        <ele>164</ele>
        <time>2023-04-28T13:56:25Z</time>
      </trkpt>
      <trkpt lat="43.4763" lon="6.2762">
        <ele>164</ele>
        <time>2023-04-28T13:56:26Z</time>
      </trkpt>
      <trkpt lat="43.47629" lon="6.2762">
        <ele>164</ele>
        <time>2023-04-28T13:56:27Z</time>
      </trkpt>
      <trkpt lat="43.47629" lon="6.2762">
        <ele>164</ele>
        <time>2023-04-28T13:56:28Z</time>
      </trkpt>
      <trkpt lat="43.47628" lon="6.27619">
        <ele>164</ele>
        <time>2023-04-28T13:56:29Z</time>
      </trkpt>
      <trkpt lat="43.47627" lon="6.27619">
        <ele>164</ele>
        <time>2023-04-28T13:56:30Z</time>
      </trkpt>
      <trkpt lat="43.47626" lon="6.27619">
        <ele>164</ele>
        <time>2023-04-28T13:56:31Z</time>
      </trkpt>
      <trkpt lat="43.47625" lon="6.27619">
        <ele>164</ele>
        <time>2023-04-28T13:56:32Z</time>
      </trkpt>
      <trkpt lat="43.47624" lon="6.27619">
        <ele>164</ele>
        <time>2023-04-28T13:56:33Z</time>
      </trkpt>
      <trkpt lat="43.47623" lon="6.2762">
        <ele>164</ele>
        <time>2023-04-28T13:56:34Z</time>
      </trkpt>
      <trkpt lat="43.47622" lon="6.2762">
        <ele>164</ele>
        <time>2023-04-28T13:56:35Z</time>
      </trkpt>
      <trkpt lat="43.47621" lon="6.27621">
        <ele>164</ele>
        <time>2023-04-28T13:56:36Z</time>
      </trkpt>
      <trkpt lat="43.4762" lon="6.27622">
        <ele>164</ele>
        <time>2023-04-28T13:56:37Z</time>
      </trkpt>
      <trkpt lat="43.47619" lon="6.27623">
        <ele>164</ele>
        <time>2023-04-28T13:56:38Z</time>
      </trkpt>
      <trkpt lat="43.47618" lon="6.27623">
        <ele>164</ele>
        <time>2023-04-28T13:56:39Z</time>
      </trkpt>
      <trkpt lat="43.47617" lon="6.27624">
        <ele>164</ele>
        <time>2023-04-28T13:56:40Z</time>
      </trkpt>
      <trkpt lat="43.47616" lon="6.27625">
        <ele>165</ele>
        <time>2023-04-28T13:56:41Z</time>
      </trkpt>
      <trkpt lat="43.47615" lon="6.27626">
        <ele>165</ele>
        <time>2023-04-28T13:56:42Z</time>
      </trkpt>
      <trkpt lat="43.47614" lon="6.27627">
        <ele>165</ele>
        <time>2023-04-28T13:56:43Z</time>
      </trkpt>
      <trkpt lat="43.47614" lon="6.27628">
        <ele>167</ele>
        <time>2023-04-28T13:56:44Z</time>
      </trkpt>
      <trkpt lat="43.47613" lon="6.27629">
        <ele>167</ele>
        <time>2023-04-28T13:56:45Z</time>
      </trkpt>
      <trkpt lat="43.47612" lon="6.2763">
        <ele>168</ele>
        <time>2023-04-28T13:56:46Z</time>
      </trkpt>
      <trkpt lat="43.47611" lon="6.27631">
        <ele>168</ele>
        <time>2023-04-28T13:56:47Z</time>
      </trkpt>
      <trkpt lat="43.47611" lon="6.27632">
        <ele>168</ele>
        <time>2023-04-28T13:56:48Z</time>
      </trkpt>
      <trkpt lat="43.4761" lon="6.27633">
        <ele>169</ele>
        <time>2023-04-28T13:56:49Z</time>
      </trkpt>
      <trkpt lat="43.4761" lon="6.27634">
        <ele>169</ele>
        <time>2023-04-28T13:56:50Z</time>
      </trkpt>
      <trkpt lat="43.47609" lon="6.27635">
        <ele>169</ele>
        <time>2023-04-28T13:56:51Z</time>
      </trkpt>
      <trkpt lat="43.47609" lon="6.27635">
        <ele>169</ele>
        <time>2023-04-28T13:56:52Z</time>
      </trkpt>
      <trkpt lat="43.47609" lon="6.27636">
        <ele>169</ele>
        <time>2023-04-28T13:56:53Z</time>
      </trkpt>
      <trkpt lat="43.47608" lon="6.27636">
        <ele>170</ele>
        <time>2023-04-28T13:56:54Z</time>
      </trkpt>
      <trkpt lat="43.47608" lon="6.27637">
        <ele>170</ele>
        <time>2023-04-28T13:56:55Z</time>
      </trkpt>
      <trkpt lat="43.47608" lon="6.27638">
        <ele>170</ele>
        <time>2023-04-28T13:56:56Z</time>
      </trkpt>
      <trkpt lat="43.47607" lon="6.27638">
        <ele>170</ele>
        <time>2023-04-28T13:56:57Z</time>
      </trkpt>
      <trkpt lat="43.47607" lon="6.27639">
        <ele>171</ele>
        <time>2023-04-28T13:56:58Z</time>
      </trkpt>
      <trkpt lat="43.47607" lon="6.27639">
        <ele>171</ele>
        <time>2023-04-28T13:56:59Z</time>
      </trkpt>
      <trkpt lat="43.47607" lon="6.27639">
        <ele>171</ele>
        <time>2023-04-28T13:57:00Z</time>
      </trkpt>
      <trkpt lat="43.47607" lon="6.2764">
        <ele>171</ele>
        <time>2023-04-28T13:57:01Z</time>
      </trkpt>
      <trkpt lat="43.47606" lon="6.2764">
        <ele>171</ele>
        <time>2023-04-28T13:57:02Z</time>
      </trkpt>
      <trkpt lat="43.47606" lon="6.27641">
        <ele>170</ele>
        <time>2023-04-28T13:57:03Z</time>
      </trkpt>
      <trkpt lat="43.47605" lon="6.27642">
        <ele>170</ele>
        <time>2023-04-28T13:57:04Z</time>
      </trkpt>
      <trkpt lat="43.47604" lon="6.27644">
        <ele>170</ele>
        <time>2023-04-28T13:57:05Z</time>
      </trkpt>
      <trkpt lat="43.47603" lon="6.27646">
        <ele>170</ele>
        <time>2023-04-28T13:57:06Z</time>
      </trkpt>
      <trkpt lat="43.47602" lon="6.27647">
        <ele>170</ele>
        <time>2023-04-28T13:57:07Z</time>
      </trkpt>
      <trkpt lat="43.47602" lon="6.27648">
        <ele>170</ele>
        <time>2023-04-28T13:57:08Z</time>
      </trkpt>
      <trkpt lat="43.47601" lon="6.27649">
        <ele>170</ele>
        <time>2023-04-28T13:57:09Z</time>
      </trkpt>
      <trkpt lat="43.476" lon="6.27649">
        <ele>170</ele>
        <time>2023-04-28T13:57:10Z</time>
      </trkpt>
      <trkpt lat="43.476" lon="6.2765">
        <ele>170</ele>
        <time>2023-04-28T13:57:11Z</time>
      </trkpt>
      <trkpt lat="43.47599" lon="6.27651">
        <ele>170</ele>
        <time>2023-04-28T13:57:12Z</time>
      </trkpt>
      <trkpt lat="43.47598" lon="6.27652">
        <ele>170</ele>
        <time>2023-04-28T13:57:13Z</time>
      </trkpt>
      <trkpt lat="43.47598" lon="6.27653">
        <ele>170</ele>
        <time>2023-04-28T13:57:14Z</time>
      </trkpt>
      <trkpt lat="43.47597" lon="6.27654">
        <ele>170</ele>
        <time>2023-04-28T13:57:15Z</time>
      </trkpt>
      <trkpt lat="43.47596" lon="6.27655">
        <ele>169</ele>
        <time>2023-04-28T13:57:16Z</time>
      </trkpt>
      <trkpt lat="43.47596" lon="6.27655">
        <ele>168</ele>
        <time>2023-04-28T13:57:17Z</time>
      </trkpt>
      <trkpt lat="43.47595" lon="6.27656">
        <ele>168</ele>
        <time>2023-04-28T13:57:18Z</time>
      </trkpt>
      <trkpt lat="43.47595" lon="6.27656">
        <ele>168</ele>
        <time>2023-04-28T13:57:19Z</time>
      </trkpt>
      <trkpt lat="43.47594" lon="6.27657">
        <ele>168</ele>
        <time>2023-04-28T13:57:20Z</time>
      </trkpt>
      <trkpt lat="43.47593" lon="6.27659">
        <ele>168</ele>
        <time>2023-04-28T13:57:21Z</time>
      </trkpt>
      <trkpt lat="43.47592" lon="6.2766">
        <ele>168</ele>
        <time>2023-04-28T13:57:22Z</time>
      </trkpt>
      <trkpt lat="43.47592" lon="6.27662">
        <ele>168</ele>
        <time>2023-04-28T13:57:23Z</time>
      </trkpt>
      <trkpt lat="43.47591" lon="6.27663">
        <ele>168</ele>
        <time>2023-04-28T13:57:24Z</time>
      </trkpt>
      <trkpt lat="43.47591" lon="6.27665">
        <ele>168</ele>
        <time>2023-04-28T13:57:25Z</time>
      </trkpt>
      <trkpt lat="43.4759" lon="6.27666">
        <ele>168</ele>
        <time>2023-04-28T13:57:26Z</time>
      </trkpt>
      <trkpt lat="43.47589" lon="6.27667">
        <ele>168</ele>
        <time>2023-04-28T13:57:27Z</time>
      </trkpt>
      <trkpt lat="43.47589" lon="6.27669">
        <ele>168</ele>
        <time>2023-04-28T13:57:28Z</time>
      </trkpt>
      <trkpt lat="43.47589" lon="6.2767">
        <ele>168</ele>
        <time>2023-04-28T13:57:29Z</time>
      </trkpt>
      <trkpt lat="43.47588" lon="6.27671">
        <ele>168</ele>
        <time>2023-04-28T13:57:30Z</time>
      </trkpt>
      <trkpt lat="43.47588" lon="6.27672">
        <ele>168</ele>
        <time>2023-04-28T13:57:31Z</time>
      </trkpt>
      <trkpt lat="43.47587" lon="6.27673">
        <ele>168</ele>
        <time>2023-04-28T13:57:32Z</time>
      </trkpt>
      <trkpt lat="43.47587" lon="6.27674">
        <ele>167</ele>
        <time>2023-04-28T13:57:33Z</time>
      </trkpt>
      <trkpt lat="43.47586" lon="6.27675">
        <ele>167</ele>
        <time>2023-04-28T13:57:34Z</time>
      </trkpt>
      <trkpt lat="43.47586" lon="6.27676">
        <ele>167</ele>
        <time>2023-04-28T13:57:35Z</time>
      </trkpt>
      <trkpt lat="43.47585" lon="6.27677">
        <ele>168</ele>
        <time>2023-04-28T13:57:36Z</time>
      </trkpt>
      <trkpt lat="43.47584" lon="6.27679">
        <ele>168</ele>
        <time>2023-04-28T13:57:37Z</time>
      </trkpt>
      <trkpt lat="43.47583" lon="6.2768">
        <ele>168</ele>
        <time>2023-04-28T13:57:38Z</time>
      </trkpt>
      <trkpt lat="43.47583" lon="6.27681">
        <ele>168</ele>
        <time>2023-04-28T13:57:39Z</time>
      </trkpt>
      <trkpt lat="43.47582" lon="6.27682">
        <ele>168</ele>
        <time>2023-04-28T13:57:40Z</time>
      </trkpt>
      <trkpt lat="43.47582" lon="6.27683">
        <ele>168</ele>
        <time>2023-04-28T13:57:41Z</time>
      </trkpt>
      <trkpt lat="43.47581" lon="6.27685">
        <ele>168</ele>
        <time>2023-04-28T13:57:42Z</time>
      </trkpt>
      <trkpt lat="43.4758" lon="6.27687">
        <ele>168</ele>
        <time>2023-04-28T13:57:43Z</time>
      </trkpt>
      <trkpt lat="43.47579" lon="6.2769">
        <ele>168</ele>
        <time>2023-04-28T13:57:44Z</time>
      </trkpt>
      <trkpt lat="43.47578" lon="6.27692">
        <ele>169</ele>
        <time>2023-04-28T13:57:45Z</time>
      </trkpt>
      <trkpt lat="43.47577" lon="6.27694">
        <ele>169</ele>
        <time>2023-04-28T13:57:46Z</time>
      </trkpt>
      <trkpt lat="43.47577" lon="6.27696">
        <ele>169</ele>
        <time>2023-04-28T13:57:47Z</time>
      </trkpt>
      <trkpt lat="43.47576" lon="6.27697">
        <ele>169</ele>
        <time>2023-04-28T13:57:48Z</time>
      </trkpt>
      <trkpt lat="43.47575" lon="6.27699">
        <ele>169</ele>
        <time>2023-04-28T13:57:49Z</time>
      </trkpt>
      <trkpt lat="43.47575" lon="6.27701">
        <ele>169</ele>
        <time>2023-04-28T13:57:50Z</time>
      </trkpt>
      <trkpt lat="43.47574" lon="6.27702">
        <ele>169</ele>
        <time>2023-04-28T13:57:51Z</time>
      </trkpt>
      <trkpt lat="43.47574" lon="6.27703">
        <ele>169</ele>
        <time>2023-04-28T13:57:52Z</time>
      </trkpt>
      <trkpt lat="43.47573" lon="6.27705">
        <ele>168</ele>
        <time>2023-04-28T13:57:53Z</time>
      </trkpt>
      <trkpt lat="43.47572" lon="6.27706">
        <ele>168</ele>
        <time>2023-04-28T13:57:54Z</time>
      </trkpt>
      <trkpt lat="43.47572" lon="6.27707">
        <ele>168</ele>
        <time>2023-04-28T13:57:55Z</time>
      </trkpt>
      <trkpt lat="43.47571" lon="6.27708">
        <ele>168</ele>
        <time>2023-04-28T13:57:56Z</time>
      </trkpt>
      <trkpt lat="43.47571" lon="6.27709">
        <ele>168</ele>
        <time>2023-04-28T13:57:57Z</time>
      </trkpt>
      <trkpt lat="43.4757" lon="6.2771">
        <ele>167</ele>
        <time>2023-04-28T13:57:58Z</time>
      </trkpt>
      <trkpt lat="43.47569" lon="6.27711">
        <ele>167</ele>
        <time>2023-04-28T13:57:59Z</time>
      </trkpt>
      <trkpt lat="43.47569" lon="6.27712">
        <ele>167</ele>
        <time>2023-04-28T13:58:00Z</time>
      </trkpt>
      <trkpt lat="43.47568" lon="6.27714">
        <ele>167</ele>
        <time>2023-04-28T13:58:01Z</time>
      </trkpt>
      <trkpt lat="43.47567" lon="6.27715">
        <ele>168</ele>
        <time>2023-04-28T13:58:02Z</time>
      </trkpt>
      <trkpt lat="43.47567" lon="6.27716">
        <ele>168</ele>
        <time>2023-04-28T13:58:03Z</time>
      </trkpt>
      <trkpt lat="43.47566" lon="6.27716">
        <ele>168</ele>
        <time>2023-04-28T13:58:04Z</time>
      </trkpt>
      <trkpt lat="43.47566" lon="6.27717">
        <ele>168</ele>
        <time>2023-04-28T13:58:05Z</time>
      </trkpt>
      <trkpt lat="43.47565" lon="6.27718">
        <ele>168</ele>
        <time>2023-04-28T13:58:06Z</time>
      </trkpt>
      <trkpt lat="43.47564" lon="6.27719">
        <ele>168</ele>
        <time>2023-04-28T13:58:07Z</time>
      </trkpt>
      <trkpt lat="43.47563" lon="6.2772">
        <ele>168</ele>
        <time>2023-04-28T13:58:08Z</time>
      </trkpt>
      <trkpt lat="43.47563" lon="6.27721">
        <ele>168</ele>
        <time>2023-04-28T13:58:09Z</time>
      </trkpt>
      <trkpt lat="43.47562" lon="6.27721">
        <ele>168</ele>
        <time>2023-04-28T13:58:10Z</time>
      </trkpt>
      <trkpt lat="43.47561" lon="6.27721">
        <ele>168</ele>
        <time>2023-04-28T13:58:11Z</time>
      </trkpt>
      <trkpt lat="43.4756" lon="6.27722">
        <ele>168</ele>
        <time>2023-04-28T13:58:12Z</time>
      </trkpt>
      <trkpt lat="43.47559" lon="6.27722">
        <ele>169</ele>
        <time>2023-04-28T13:58:13Z</time>
      </trkpt>
      <trkpt lat="43.47558" lon="6.27723">
        <ele>169</ele>
        <time>2023-04-28T13:58:14Z</time>
      </trkpt>
      <trkpt lat="43.47558" lon="6.27723">
        <ele>169</ele>
        <time>2023-04-28T13:58:15Z</time>
      </trkpt>
      <trkpt lat="43.47557" lon="6.27724">
        <ele>170</ele>
        <time>2023-04-28T13:58:16Z</time>
      </trkpt>
      <trkpt lat="43.47556" lon="6.27725">
        <ele>170</ele>
        <time>2023-04-28T13:58:17Z</time>
      </trkpt>
      <trkpt lat="43.47555" lon="6.27725">
        <ele>170</ele>
        <time>2023-04-28T13:58:18Z</time>
      </trkpt>
      <trkpt lat="43.47554" lon="6.27726">
        <ele>170</ele>
        <time>2023-04-28T13:58:19Z</time>
      </trkpt>
      <trkpt lat="43.47554" lon="6.27727">
        <ele>170</ele>
        <time>2023-04-28T13:58:20Z</time>
      </trkpt>
      <trkpt lat="43.47553" lon="6.27728">
        <ele>169</ele>
        <time>2023-04-28T13:58:21Z</time>
      </trkpt>
      <trkpt lat="43.47552" lon="6.27728">
        <ele>169</ele>
        <time>2023-04-28T13:58:22Z</time>
      </trkpt>
      <trkpt lat="43.47551" lon="6.27729">
        <ele>169</ele>
        <time>2023-04-28T13:58:23Z</time>
      </trkpt>
      <trkpt lat="43.47551" lon="6.2773">
        <ele>169</ele>
        <time>2023-04-28T13:58:24Z</time>
      </trkpt>
      <trkpt lat="43.4755" lon="6.27731">
        <ele>169</ele>
        <time>2023-04-28T13:58:25Z</time>
      </trkpt>
      <trkpt lat="43.4755" lon="6.27732">
        <ele>169</ele>
        <time>2023-04-28T13:58:26Z</time>
      </trkpt>
      <trkpt lat="43.47549" lon="6.27733">
        <ele>169</ele>
        <time>2023-04-28T13:58:27Z</time>
      </trkpt>
      <trkpt lat="43.47548" lon="6.27734">
        <ele>169</ele>
        <time>2023-04-28T13:58:28Z</time>
      </trkpt>
      <trkpt lat="43.47548" lon="6.27735">
        <ele>169</ele>
        <time>2023-04-28T13:58:29Z</time>
      </trkpt>
      <trkpt lat="43.47547" lon="6.27735">
        <ele>169</ele>
        <time>2023-04-28T13:58:30Z</time>
      </trkpt>
      <trkpt lat="43.47547" lon="6.27736">
        <ele>169</ele>
        <time>2023-04-28T13:58:31Z</time>
      </trkpt>
      <trkpt lat="43.47546" lon="6.27737">
        <ele>169</ele>
        <time>2023-04-28T13:58:32Z</time>
      </trkpt>
      <trkpt lat="43.47546" lon="6.27738">
        <ele>169</ele>
        <time>2023-04-28T13:58:33Z</time>
      </trkpt>
      <trkpt lat="43.47545" lon="6.27739">
        <ele>169</ele>
        <time>2023-04-28T13:58:34Z</time>
      </trkpt>
      <trkpt lat="43.47545" lon="6.2774">
        <ele>169</ele>
        <time>2023-04-28T13:58:35Z</time>
      </trkpt>
      <trkpt lat="43.47545" lon="6.27741">
        <ele>169</ele>
        <time>2023-04-28T13:58:36Z</time>
      </trkpt>
      <trkpt lat="43.47544" lon="6.27742">
        <ele>169</ele>
        <time>2023-04-28T13:58:37Z</time>
      </trkpt>
      <trkpt lat="43.47544" lon="6.27743">
        <ele>169</ele>
        <time>2023-04-28T13:58:38Z</time>
      </trkpt>
      <trkpt lat="43.47543" lon="6.27744">
        <ele>170</ele>
        <time>2023-04-28T13:58:39Z</time>
      </trkpt>
      <trkpt lat="43.47543" lon="6.27745">
        <ele>170</ele>
        <time>2023-04-28T13:58:40Z</time>
      </trkpt>
      <trkpt lat="43.47543" lon="6.27746">
        <ele>171</ele>
        <time>2023-04-28T13:58:41Z</time>
      </trkpt>
      <trkpt lat="43.47542" lon="6.27747">
        <ele>171</ele>
        <time>2023-04-28T13:58:42Z</time>
      </trkpt>
      <trkpt lat="43.47542" lon="6.27747">
        <ele>171</ele>
        <time>2023-04-28T13:58:43Z</time>
      </trkpt>
      <trkpt lat="43.47542" lon="6.27748">
        <ele>171</ele>
        <time>2023-04-28T13:58:44Z</time>
      </trkpt>
      <trkpt lat="43.47541" lon="6.27749">
        <ele>171</ele>
        <time>2023-04-28T13:58:45Z</time>
      </trkpt>
      <trkpt lat="43.47541" lon="6.2775">
        <ele>172</ele>
        <time>2023-04-28T13:58:46Z</time>
      </trkpt>
      <trkpt lat="43.47541" lon="6.2775">
        <ele>172</ele>
        <time>2023-04-28T13:58:47Z</time>
      </trkpt>
      <trkpt lat="43.4754" lon="6.27751">
        <ele>172</ele>
        <time>2023-04-28T13:58:48Z</time>
      </trkpt>
      <trkpt lat="43.4754" lon="6.27752">
        <ele>172</ele>
        <time>2023-04-28T13:58:49Z</time>
      </trkpt>
      <trkpt lat="43.4754" lon="6.27753">
        <ele>172</ele>
        <time>2023-04-28T13:58:50Z</time>
      </trkpt>
      <trkpt lat="43.47539" lon="6.27754">
        <ele>172</ele>
        <time>2023-04-28T13:58:51Z</time>
      </trkpt>
      <trkpt lat="43.47538" lon="6.27755">
        <ele>172</ele>
        <time>2023-04-28T13:58:52Z</time>
      </trkpt>
      <trkpt lat="43.47538" lon="6.27756">
        <ele>172</ele>
        <time>2023-04-28T13:58:53Z</time>
      </trkpt>
      <trkpt lat="43.47537" lon="6.27757">
        <ele>172</ele>
        <time>2023-04-28T13:58:54Z</time>
      </trkpt>
      <trkpt lat="43.47537" lon="6.27757">
        <ele>172</ele>
        <time>2023-04-28T13:58:55Z</time>
      </trkpt>
      <trkpt lat="43.47537" lon="6.27758">
        <ele>173</ele>
        <time>2023-04-28T13:58:56Z</time>
      </trkpt>
      <trkpt lat="43.47536" lon="6.27759">
        <ele>173</ele>
        <time>2023-04-28T13:58:57Z</time>
      </trkpt>
      <trkpt lat="43.47536" lon="6.2776">
        <ele>173</ele>
        <time>2023-04-28T13:58:58Z</time>
      </trkpt>
      <trkpt lat="43.47536" lon="6.27761">
        <ele>173</ele>
        <time>2023-04-28T13:58:59Z</time>
      </trkpt>
      <trkpt lat="43.47535" lon="6.27762">
        <ele>174</ele>
        <time>2023-04-28T13:59:00Z</time>
      </trkpt>
      <trkpt lat="43.47535" lon="6.27763">
        <ele>174</ele>
        <time>2023-04-28T13:59:01Z</time>
      </trkpt>
      <trkpt lat="43.47535" lon="6.27765">
        <ele>175</ele>
        <time>2023-04-28T13:59:02Z</time>
      </trkpt>
      <trkpt lat="43.47534" lon="6.27766">
        <ele>175</ele>
        <time>2023-04-28T13:59:03Z</time>
      </trkpt>
      <trkpt lat="43.47534" lon="6.27767">
        <ele>175</ele>
        <time>2023-04-28T13:59:04Z</time>
      </trkpt>
      <trkpt lat="43.47534" lon="6.27769">
        <ele>175</ele>
        <time>2023-04-28T13:59:05Z</time>
      </trkpt>
      <trkpt lat="43.47533" lon="6.2777">
        <ele>175</ele>
        <time>2023-04-28T13:59:06Z</time>
      </trkpt>
      <trkpt lat="43.47533" lon="6.27771">
        <ele>175</ele>
        <time>2023-04-28T13:59:07Z</time>
      </trkpt>
      <trkpt lat="43.47533" lon="6.27773">
        <ele>175</ele>
        <time>2023-04-28T13:59:08Z</time>
      </trkpt>
      <trkpt lat="43.47532" lon="6.27775">
        <ele>175</ele>
        <time>2023-04-28T13:59:09Z</time>
      </trkpt>
      <trkpt lat="43.47532" lon="6.27776">
        <ele>175</ele>
        <time>2023-04-28T13:59:10Z</time>
      </trkpt>
      <trkpt lat="43.47531" lon="6.27778">
        <ele>175</ele>
        <time>2023-04-28T13:59:11Z</time>
      </trkpt>
      <trkpt lat="43.47531" lon="6.27779">
        <ele>175</ele>
        <time>2023-04-28T13:59:12Z</time>
      </trkpt>
      <trkpt lat="43.4753" lon="6.2778">
        <ele>175</ele>
        <time>2023-04-28T13:59:13Z</time>
      </trkpt>
      <trkpt lat="43.4753" lon="6.27781">
        <ele>176</ele>
        <time>2023-04-28T13:59:14Z</time>
      </trkpt>
      <trkpt lat="43.47529" lon="6.27782">
        <ele>176</ele>
        <time>2023-04-28T13:59:15Z</time>
      </trkpt>
      <trkpt lat="43.47529" lon="6.27782">
        <ele>176</ele>
        <time>2023-04-28T13:59:16Z</time>
      </trkpt>
      <trkpt lat="43.47529" lon="6.27783">
        <ele>176</ele>
        <time>2023-04-28T13:59:17Z</time>
      </trkpt>
      <trkpt lat="43.47529" lon="6.27784">
        <ele>176</ele>
        <time>2023-04-28T13:59:18Z</time>
      </trkpt>
      <trkpt lat="43.47529" lon="6.27785">
        <ele>176</ele>
        <time>2023-04-28T13:59:19Z</time>
      </trkpt>
      <trkpt lat="43.47528" lon="6.27786">
        <ele>176</ele>
        <time>2023-04-28T13:59:20Z</time>
      </trkpt>
      <trkpt lat="43.47528" lon="6.27787">
        <ele>176</ele>
        <time>2023-04-28T13:59:21Z</time>
      </trkpt>
      <trkpt lat="43.47528" lon="6.27787">
        <ele>176</ele>
        <time>2023-04-28T13:59:22Z</time>
      </trkpt>
      <trkpt lat="43.47528" lon="6.27788">
        <ele>176</ele>
        <time>2023-04-28T13:59:23Z</time>
      </trkpt>
      <trkpt lat="43.47527" lon="6.27788">
        <ele>176</ele>
        <time>2023-04-28T13:59:24Z</time>
      </trkpt>
      <trkpt lat="43.47527" lon="6.27787">
        <ele>177</ele>
        <time>2023-04-28T13:59:25Z</time>
      </trkpt>
      <trkpt lat="43.47527" lon="6.27787">
        <ele>177</ele>
        <time>2023-04-28T13:59:26Z</time>
      </trkpt>
      <trkpt lat="43.47526" lon="6.27787">
        <ele>177</ele>
        <time>2023-04-28T13:59:27Z</time>
      </trkpt>
      <trkpt lat="43.47525" lon="6.27788">
        <ele>177</ele>
        <time>2023-04-28T13:59:28Z</time>
      </trkpt>
      <trkpt lat="43.47525" lon="6.27788">
        <ele>177</ele>
        <time>2023-04-28T13:59:29Z</time>
      </trkpt>
      <trkpt lat="43.47525" lon="6.27789">
        <ele>178</ele>
        <time>2023-04-28T13:59:30Z</time>
      </trkpt>
      <trkpt lat="43.47524" lon="6.27789">
        <ele>178</ele>
        <time>2023-04-28T13:59:31Z</time>
      </trkpt>
      <trkpt lat="43.47524" lon="6.2779">
        <ele>178</ele>
        <time>2023-04-28T13:59:32Z</time>
      </trkpt>
      <trkpt lat="43.47524" lon="6.2779">
        <ele>179</ele>
        <time>2023-04-28T13:59:33Z</time>
      </trkpt>
      <trkpt lat="43.47523" lon="6.2779">
        <ele>179</ele>
        <time>2023-04-28T13:59:34Z</time>
      </trkpt>
      <trkpt lat="43.47523" lon="6.27791">
        <ele>179</ele>
        <time>2023-04-28T13:59:35Z</time>
      </trkpt>
      <trkpt lat="43.47523" lon="6.27791">
        <ele>179</ele>
        <time>2023-04-28T13:59:36Z</time>
      </trkpt>
      <trkpt lat="43.47523" lon="6.27792">
        <ele>182</ele>
        <time>2023-04-28T13:59:37Z</time>
      </trkpt>
      <trkpt lat="43.47523" lon="6.27792">
        <ele>183</ele>
        <time>2023-04-28T13:59:38Z</time>
      </trkpt>
      <trkpt lat="43.47523" lon="6.27792">
        <ele>183</ele>
        <time>2023-04-28T13:59:39Z</time>
      </trkpt>
      <trkpt lat="43.47523" lon="6.27792">
        <ele>183</ele>
        <time>2023-04-28T13:59:40Z</time>
      </trkpt>
      <trkpt lat="43.47523" lon="6.27792">
        <ele>184</ele>
        <time>2023-04-28T13:59:41Z</time>
      </trkpt>
      <trkpt lat="43.47523" lon="6.27792">
        <ele>184</ele>
        <time>2023-04-28T13:59:42Z</time>
      </trkpt>
      <trkpt lat="43.47523" lon="6.27792">
        <ele>184</ele>
        <time>2023-04-28T13:59:43Z</time>
      </trkpt>
      <trkpt lat="43.47523" lon="6.27792">
        <ele>184</ele>
        <time>2023-04-28T13:59:44Z</time>
      </trkpt>
      <trkpt lat="43.47523" lon="6.27792">
        <ele>184</ele>
        <time>2023-04-28T13:59:45Z</time>
      </trkpt>
      <trkpt lat="43.47523" lon="6.27792">
        <ele>184</ele>
        <time>2023-04-28T13:59:46Z</time>
      </trkpt>
      <trkpt lat="43.47523" lon="6.27792">
        <ele>184</ele>
        <time>2023-04-28T13:59:47Z</time>
      </trkpt>
      <trkpt lat="43.47523" lon="6.27793">
        <ele>184</ele>
        <time>2023-04-28T13:59:48Z</time>
      </trkpt>
      <trkpt lat="43.47522" lon="6.27793">
        <ele>184</ele>
        <time>2023-04-28T13:59:49Z</time>
      </trkpt>
      <trkpt lat="43.47522" lon="6.27793">
        <ele>184</ele>
        <time>2023-04-28T13:59:50Z</time>
      </trkpt>
      <trkpt lat="43.47522" lon="6.27793">
        <ele>184</ele>
        <time>2023-04-28T13:59:51Z</time>
      </trkpt>
      <trkpt lat="43.47522" lon="6.27793">
        <ele>184</ele>
        <time>2023-04-28T13:59:52Z</time>
      </trkpt>
      <trkpt lat="43.47522" lon="6.27793">
        <ele>184</ele>
        <time>2023-04-28T13:59:53Z</time>
      </trkpt>
      <trkpt lat="43.47522" lon="6.27793">
        <ele>184</ele>
        <time>2023-04-28T13:59:54Z</time>
      </trkpt>
      <trkpt lat="43.47522" lon="6.27793">
        <ele>184</ele>
        <time>2023-04-28T13:59:55Z</time>
      </trkpt>
      <trkpt lat="43.47522" lon="6.27792">
        <ele>184</ele>
        <time>2023-04-28T13:59:56Z</time>
      </trkpt>
      <trkpt lat="43.47522" lon="6.27792">
        <ele>184</ele>
        <time>2023-04-28T13:59:57Z</time>
      </trkpt>
      <trkpt lat="43.47522" lon="6.27792">
        <ele>184</ele>
        <time>2023-04-28T13:59:58Z</time>
      </trkpt>
      <trkpt lat="43.47522" lon="6.27792">
        <ele>184</ele>
        <time>2023-04-28T13:59:59Z</time>
      </trkpt>
      <trkpt lat="43.47522" lon="6.27792">
        <ele>184</ele>
        <time>2023-04-28T14:00:00Z</time>
      </trkpt>
      <trkpt lat="43.47522" lon="6.27792">
        <ele>184</ele>
        <time>2023-04-28T14:00:01Z</time>
      </trkpt>
      <trkpt lat="43.47522" lon="6.27792">
        <ele>184</ele>
        <time>2023-04-28T14:00:02Z</time>
      </trkpt>
      <trkpt lat="43.47522" lon="6.27792">
        <ele>184</ele>
        <time>2023-04-28T14:00:03Z</time>
      </trkpt>
      <trkpt lat="43.47522" lon="6.27792">
        <ele>184</ele>
        <time>2023-04-28T14:00:04Z</time>
      </trkpt>
      <trkpt lat="43.47522" lon="6.27792">
        <ele>184</ele>
        <time>2023-04-28T14:00:05Z</time>
      </trkpt>
      <trkpt lat="43.47522" lon="6.27792">
        <ele>184</ele>
        <time>2023-04-28T14:00:06Z</time>
      </trkpt>
      <trkpt lat="43.47522" lon="6.27792">
        <ele>184</ele>
        <time>2023-04-28T14:00:07Z</time>
      </trkpt>
      <trkpt lat="43.47522" lon="6.27792">
        <ele>184</ele>
        <time>2023-04-28T14:00:08Z</time>
      </trkpt>
      <trkpt lat="43.47522" lon="6.27792">
        <ele>184</ele>
        <time>2023-04-28T14:00:09Z</time>
      </trkpt>
      <trkpt lat="43.47522" lon="6.27792">
        <ele>184</ele>
        <time>2023-04-28T14:00:10Z</time>
      </trkpt>
      <trkpt lat="43.47522" lon="6.27792">
        <ele>184</ele>
        <time>2023-04-28T14:00:11Z</time>
      </trkpt>
      <trkpt lat="43.47522" lon="6.27792">
        <ele>184</ele>
        <time>2023-04-28T14:00:12Z</time>
      </trkpt>
      <trkpt lat="43.47522" lon="6.27792">
        <ele>184</ele>
        <time>2023-04-28T14:00:13Z</time>
      </trkpt>
      <trkpt lat="43.47522" lon="6.27792">
        <ele>184</ele>
        <time>2023-04-28T14:00:14Z</time>
      </trkpt>
      <trkpt lat="43.47522" lon="6.27792">
        <ele>184</ele>
        <time>2023-04-28T14:00:15Z</time>
      </trkpt>
      <trkpt lat="43.47522" lon="6.27792">
        <ele>184</ele>
        <time>2023-04-28T14:00:16Z</time>
      </trkpt>
      <trkpt lat="43.47522" lon="6.27792">
        <ele>184</ele>
        <time>2023-04-28T14:00:17Z</time>
      </trkpt>
      <trkpt lat="43.47522" lon="6.27792">
        <ele>184</ele>
        <time>2023-04-28T14:00:18Z</time>
      </trkpt>
      <trkpt lat="43.47522" lon="6.27792">
        <ele>184</ele>
        <time>2023-04-28T14:00:19Z</time>
      </trkpt>
      <trkpt lat="43.47522" lon="6.27792">
        <ele>184</ele>
        <time>2023-04-28T14:00:20Z</time>
      </trkpt>
      <trkpt lat="43.47522" lon="6.27792">
        <ele>184</ele>
        <time>2023-04-28T14:00:21Z</time>
      </trkpt>
      <trkpt lat="43.47522" lon="6.27792">
        <ele>184</ele>
        <time>2023-04-28T14:00:22Z</time>
      </trkpt>
      <trkpt lat="43.4752" lon="6.27786">
        <ele>184</ele>
        <time>2023-04-28T14:00:23Z</time>
      </trkpt>
      <trkpt lat="43.4752" lon="6.27786">
        <ele>184</ele>
        <time>2023-04-28T14:00:24Z</time>
      </trkpt>
      <trkpt lat="43.4752" lon="6.27786">
        <ele>185</ele>
        <time>2023-04-28T14:00:25Z</time>
      </trkpt>
      <trkpt lat="43.4752" lon="6.27787">
        <ele>185</ele>
        <time>2023-04-28T14:00:26Z</time>
      </trkpt>
      <trkpt lat="43.47519" lon="6.27787">
        <ele>185</ele>
        <time>2023-04-28T14:00:27Z</time>
      </trkpt>
      <trkpt lat="43.47519" lon="6.27788">
        <ele>185</ele>
        <time>2023-04-28T14:00:28Z</time>
      </trkpt>
      <trkpt lat="43.47519" lon="6.27788">
        <ele>185</ele>
        <time>2023-04-28T14:00:29Z</time>
      </trkpt>
      <trkpt lat="43.47519" lon="6.27788">
        <ele>186</ele>
        <time>2023-04-28T14:00:30Z</time>
      </trkpt>
      <trkpt lat="43.47519" lon="6.27789">
        <ele>186</ele>
        <time>2023-04-28T14:00:31Z</time>
      </trkpt>
      <trkpt lat="43.47519" lon="6.27789">
        <ele>186</ele>
        <time>2023-04-28T14:00:32Z</time>
      </trkpt>
      <trkpt lat="43.47519" lon="6.27789">
        <ele>186</ele>
        <time>2023-04-28T14:00:33Z</time>
      </trkpt>
      <trkpt lat="43.47519" lon="6.2779">
        <ele>186</ele>
        <time>2023-04-28T14:00:34Z</time>
      </trkpt>
      <trkpt lat="43.47519" lon="6.27791">
        <ele>186</ele>
        <time>2023-04-28T14:00:35Z</time>
      </trkpt>
      <trkpt lat="43.47519" lon="6.27792">
        <ele>186</ele>
        <time>2023-04-28T14:00:36Z</time>
      </trkpt>
      <trkpt lat="43.47519" lon="6.27793">
        <ele>186</ele>
        <time>2023-04-28T14:00:37Z</time>
      </trkpt>
      <trkpt lat="43.47519" lon="6.27795">
        <ele>186</ele>
        <time>2023-04-28T14:00:38Z</time>
      </trkpt>
      <trkpt lat="43.47518" lon="6.27797">
        <ele>186</ele>
        <time>2023-04-28T14:00:39Z</time>
      </trkpt>
      <trkpt lat="43.47518" lon="6.27798">
        <ele>186</ele>
        <time>2023-04-28T14:00:40Z</time>
      </trkpt>
      <trkpt lat="43.47518" lon="6.278">
        <ele>186</ele>
        <time>2023-04-28T14:00:41Z</time>
      </trkpt>
      <trkpt lat="43.47518" lon="6.27801">
        <ele>186</ele>
        <time>2023-04-28T14:00:42Z</time>
      </trkpt>
      <trkpt lat="43.47518" lon="6.27802">
        <ele>187</ele>
        <time>2023-04-28T14:00:43Z</time>
      </trkpt>
      <trkpt lat="43.47517" lon="6.27804">
        <ele>187</ele>
        <time>2023-04-28T14:00:44Z</time>
      </trkpt>
      <trkpt lat="43.47517" lon="6.27806">
        <ele>188</ele>
        <time>2023-04-28T14:00:45Z</time>
      </trkpt>
      <trkpt lat="43.47517" lon="6.27808">
        <ele>189</ele>
        <time>2023-04-28T14:00:46Z</time>
      </trkpt>
      <trkpt lat="43.47516" lon="6.27809">
        <ele>189</ele>
        <time>2023-04-28T14:00:47Z</time>
      </trkpt>
      <trkpt lat="43.47516" lon="6.2781">
        <ele>189</ele>
        <time>2023-04-28T14:00:48Z</time>
      </trkpt>
      <trkpt lat="43.47516" lon="6.27811">
        <ele>189</ele>
        <time>2023-04-28T14:00:49Z</time>
      </trkpt>
      <trkpt lat="43.47516" lon="6.27812">
        <ele>189</ele>
        <time>2023-04-28T14:00:50Z</time>
      </trkpt>
      <trkpt lat="43.47515" lon="6.27812">
        <ele>189</ele>
        <time>2023-04-28T14:00:51Z</time>
      </trkpt>
      <trkpt lat="43.47515" lon="6.27812">
        <ele>190</ele>
        <time>2023-04-28T14:00:52Z</time>
      </trkpt>
      <trkpt lat="43.47515" lon="6.27812">
        <ele>190</ele>
        <time>2023-04-28T14:00:53Z</time>
      </trkpt>
      <trkpt lat="43.47515" lon="6.27812">
        <ele>190</ele>
        <time>2023-04-28T14:00:54Z</time>
      </trkpt>
      <trkpt lat="43.47515" lon="6.27813">
        <ele>190</ele>
        <time>2023-04-28T14:00:55Z</time>
      </trkpt>
      <trkpt lat="43.47515" lon="6.27813">
        <ele>190</ele>
        <time>2023-04-28T14:00:56Z</time>
      </trkpt>
      <trkpt lat="43.47515" lon="6.27813">
        <ele>190</ele>
        <time>2023-04-28T14:00:57Z</time>
      </trkpt>
      <trkpt lat="43.47515" lon="6.27813">
        <ele>190</ele>
        <time>2023-04-28T14:00:58Z</time>
      </trkpt>
      <trkpt lat="43.47515" lon="6.27814">
        <ele>190</ele>
        <time>2023-04-28T14:00:59Z</time>
      </trkpt>
      <trkpt lat="43.47514" lon="6.27814">
        <ele>192</ele>
        <time>2023-04-28T14:01:00Z</time>
      </trkpt>
      <trkpt lat="43.47514" lon="6.27814">
        <ele>192</ele>
        <time>2023-04-28T14:01:01Z</time>
      </trkpt>
      <trkpt lat="43.47514" lon="6.27815">
        <ele>192</ele>
        <time>2023-04-28T14:01:02Z</time>
      </trkpt>
      <trkpt lat="43.47513" lon="6.27815">
        <ele>193</ele>
        <time>2023-04-28T14:01:03Z</time>
      </trkpt>
      <trkpt lat="43.47513" lon="6.27816">
        <ele>193</ele>
        <time>2023-04-28T14:01:04Z</time>
      </trkpt>
      <trkpt lat="43.47511" lon="6.27818">
        <ele>193</ele>
        <time>2023-04-28T14:01:05Z</time>
      </trkpt>
      <trkpt lat="43.4751" lon="6.27819">
        <ele>193</ele>
        <time>2023-04-28T14:01:06Z</time>
      </trkpt>
      <trkpt lat="43.4751" lon="6.2782">
        <ele>193</ele>
        <time>2023-04-28T14:01:07Z</time>
      </trkpt>
      <trkpt lat="43.47509" lon="6.2782">
        <ele>193</ele>
        <time>2023-04-28T14:01:08Z</time>
      </trkpt>
      <trkpt lat="43.47509" lon="6.27821">
        <ele>193</ele>
        <time>2023-04-28T14:01:09Z</time>
      </trkpt>
      <trkpt lat="43.47508" lon="6.27822">
        <ele>193</ele>
        <time>2023-04-28T14:01:10Z</time>
      </trkpt>
      <trkpt lat="43.47508" lon="6.27823">
        <ele>194</ele>
        <time>2023-04-28T14:01:11Z</time>
      </trkpt>
      <trkpt lat="43.47507" lon="6.27824">
        <ele>194</ele>
        <time>2023-04-28T14:01:12Z</time>
      </trkpt>
      <trkpt lat="43.47506" lon="6.27825">
        <ele>194</ele>
        <time>2023-04-28T14:01:13Z</time>
      </trkpt>
      <trkpt lat="43.47506" lon="6.27827">
        <ele>194</ele>
        <time>2023-04-28T14:01:14Z</time>
      </trkpt>
      <trkpt lat="43.47505" lon="6.27828">
        <ele>194</ele>
        <time>2023-04-28T14:01:15Z</time>
      </trkpt>
      <trkpt lat="43.47505" lon="6.27829">
        <ele>195</ele>
        <time>2023-04-28T14:01:16Z</time>
      </trkpt>
      <trkpt lat="43.47504" lon="6.27829">
        <ele>195</ele>
        <time>2023-04-28T14:01:17Z</time>
      </trkpt>
      <trkpt lat="43.47504" lon="6.2783">
        <ele>195</ele>
        <time>2023-04-28T14:01:18Z</time>
      </trkpt>
      <trkpt lat="43.47504" lon="6.2783">
        <ele>195</ele>
        <time>2023-04-28T14:01:19Z</time>
      </trkpt>
      <trkpt lat="43.47503" lon="6.2783">
        <ele>195</ele>
        <time>2023-04-28T14:01:20Z</time>
      </trkpt>
      <trkpt lat="43.47503" lon="6.27831">
        <ele>195</ele>
        <time>2023-04-28T14:01:21Z</time>
      </trkpt>
      <trkpt lat="43.47502" lon="6.27832">
        <ele>195</ele>
        <time>2023-04-28T14:01:22Z</time>
      </trkpt>
      <trkpt lat="43.47502" lon="6.27833">
        <ele>195</ele>
        <time>2023-04-28T14:01:23Z</time>
      </trkpt>
      <trkpt lat="43.47501" lon="6.27835">
        <ele>195</ele>
        <time>2023-04-28T14:01:24Z</time>
      </trkpt>
      <trkpt lat="43.47501" lon="6.27836">
        <ele>195</ele>
        <time>2023-04-28T14:01:25Z</time>
      </trkpt>
      <trkpt lat="43.475" lon="6.27837">
        <ele>195</ele>
        <time>2023-04-28T14:01:26Z</time>
      </trkpt>
      <trkpt lat="43.475" lon="6.27838">
        <ele>194</ele>
        <time>2023-04-28T14:01:27Z</time>
      </trkpt>
      <trkpt lat="43.47499" lon="6.2784">
        <ele>194</ele>
        <time>2023-04-28T14:01:28Z</time>
      </trkpt>
      <trkpt lat="43.47499" lon="6.27841">
        <ele>194</ele>
        <time>2023-04-28T14:01:29Z</time>
      </trkpt>
      <trkpt lat="43.47498" lon="6.27843">
        <ele>194</ele>
        <time>2023-04-28T14:01:30Z</time>
      </trkpt>
      <trkpt lat="43.47498" lon="6.27844">
        <ele>194</ele>
        <time>2023-04-28T14:01:31Z</time>
      </trkpt>
      <trkpt lat="43.47497" lon="6.27845">
        <ele>194</ele>
        <time>2023-04-28T14:01:32Z</time>
      </trkpt>
      <trkpt lat="43.47497" lon="6.27846">
        <ele>194</ele>
        <time>2023-04-28T14:01:33Z</time>
      </trkpt>
      <trkpt lat="43.47496" lon="6.27847">
        <ele>194</ele>
        <time>2023-04-28T14:01:34Z</time>
      </trkpt>
      <trkpt lat="43.47496" lon="6.27848">
        <ele>194</ele>
        <time>2023-04-28T14:01:35Z</time>
      </trkpt>
      <trkpt lat="43.47495" lon="6.27849">
        <ele>194</ele>
        <time>2023-04-28T14:01:36Z</time>
      </trkpt>
      <trkpt lat="43.47495" lon="6.2785">
        <ele>194</ele>
        <time>2023-04-28T14:01:37Z</time>
      </trkpt>
      <trkpt lat="43.47495" lon="6.27851">
        <ele>194</ele>
        <time>2023-04-28T14:01:38Z</time>
      </trkpt>
      <trkpt lat="43.47494" lon="6.27853">
        <ele>194</ele>
        <time>2023-04-28T14:01:39Z</time>
      </trkpt>
      <trkpt lat="43.47493" lon="6.27855">
        <ele>194</ele>
        <time>2023-04-28T14:01:40Z</time>
      </trkpt>
      <trkpt lat="43.47492" lon="6.27857">
        <ele>194</ele>
        <time>2023-04-28T14:01:41Z</time>
      </trkpt>
      <trkpt lat="43.47491" lon="6.27858">
        <ele>194</ele>
        <time>2023-04-28T14:01:42Z</time>
      </trkpt>
      <trkpt lat="43.4749" lon="6.2786">
        <ele>195</ele>
        <time>2023-04-28T14:01:43Z</time>
      </trkpt>
      <trkpt lat="43.47489" lon="6.27861">
        <ele>195</ele>
        <time>2023-04-28T14:01:44Z</time>
      </trkpt>
      <trkpt lat="43.47488" lon="6.27862">
        <ele>195</ele>
        <time>2023-04-28T14:01:45Z</time>
      </trkpt>
      <trkpt lat="43.47487" lon="6.27862">
        <ele>196</ele>
        <time>2023-04-28T14:01:46Z</time>
      </trkpt>
      <trkpt lat="43.47486" lon="6.27863">
        <ele>196</ele>
        <time>2023-04-28T14:01:47Z</time>
      </trkpt>
      <trkpt lat="43.47486" lon="6.27863">
        <ele>196</ele>
        <time>2023-04-28T14:01:48Z</time>
      </trkpt>
      <trkpt lat="43.47484" lon="6.27863">
        <ele>196</ele>
        <time>2023-04-28T14:01:49Z</time>
      </trkpt>
      <trkpt lat="43.47483" lon="6.27863">
        <ele>196</ele>
        <time>2023-04-28T14:01:50Z</time>
      </trkpt>
      <trkpt lat="43.47482" lon="6.27864">
        <ele>196</ele>
        <time>2023-04-28T14:01:51Z</time>
      </trkpt>
      <trkpt lat="43.47481" lon="6.27864">
        <ele>196</ele>
        <time>2023-04-28T14:01:52Z</time>
      </trkpt>
      <trkpt lat="43.47479" lon="6.27864">
        <ele>197</ele>
        <time>2023-04-28T14:01:53Z</time>
      </trkpt>
      <trkpt lat="43.47478" lon="6.27864">
        <ele>197</ele>
        <time>2023-04-28T14:01:54Z</time>
      </trkpt>
      <trkpt lat="43.47477" lon="6.27865">
        <ele>197</ele>
        <time>2023-04-28T14:01:55Z</time>
      </trkpt>
      <trkpt lat="43.47476" lon="6.27865">
        <ele>197</ele>
        <time>2023-04-28T14:01:56Z</time>
      </trkpt>
      <trkpt lat="43.47475" lon="6.27865">
        <ele>197</ele>
        <time>2023-04-28T14:01:57Z</time>
      </trkpt>
      <trkpt lat="43.47474" lon="6.27865">
        <ele>199</ele>
        <time>2023-04-28T14:01:58Z</time>
      </trkpt>
      <trkpt lat="43.47474" lon="6.27866">
        <ele>199</ele>
        <time>2023-04-28T14:01:59Z</time>
      </trkpt>
      <trkpt lat="43.47473" lon="6.27866">
        <ele>201</ele>
        <time>2023-04-28T14:02:00Z</time>
      </trkpt>
      <trkpt lat="43.47472" lon="6.27866">
        <ele>201</ele>
        <time>2023-04-28T14:02:01Z</time>
      </trkpt>
      <trkpt lat="43.47472" lon="6.27866">
        <ele>202</ele>
        <time>2023-04-28T14:02:02Z</time>
      </trkpt>
      <trkpt lat="43.47472" lon="6.27866">
        <ele>203</ele>
        <time>2023-04-28T14:02:03Z</time>
      </trkpt>
      <trkpt lat="43.47471" lon="6.27866">
        <ele>203</ele>
        <time>2023-04-28T14:02:04Z</time>
      </trkpt>
      <trkpt lat="43.4747" lon="6.27866">
        <ele>203</ele>
        <time>2023-04-28T14:02:05Z</time>
      </trkpt>
      <trkpt lat="43.4747" lon="6.27866">
        <ele>203</ele>
        <time>2023-04-28T14:02:06Z</time>
      </trkpt>
      <trkpt lat="43.4747" lon="6.27866">
        <ele>204</ele>
        <time>2023-04-28T14:02:07Z</time>
      </trkpt>
      <trkpt lat="43.47469" lon="6.27866">
        <ele>204</ele>
        <time>2023-04-28T14:02:08Z</time>
      </trkpt>
      <trkpt lat="43.47468" lon="6.27866">
        <ele>204</ele>
        <time>2023-04-28T14:02:09Z</time>
      </trkpt>
      <trkpt lat="43.47468" lon="6.27865">
        <ele>204</ele>
        <time>2023-04-28T14:02:10Z</time>
      </trkpt>
      <trkpt lat="43.47468" lon="6.27865">
        <ele>204</ele>
        <time>2023-04-28T14:02:11Z</time>
      </trkpt>
      <trkpt lat="43.47467" lon="6.27865">
        <ele>204</ele>
        <time>2023-04-28T14:02:12Z</time>
      </trkpt>
      <trkpt lat="43.47466" lon="6.27865">
        <ele>205</ele>
        <time>2023-04-28T14:02:13Z</time>
      </trkpt>
      <trkpt lat="43.47466" lon="6.27865">
        <ele>205</ele>
        <time>2023-04-28T14:02:14Z</time>
      </trkpt>
      <trkpt lat="43.47465" lon="6.27865">
        <ele>205</ele>
        <time>2023-04-28T14:02:15Z</time>
      </trkpt>
      <trkpt lat="43.47464" lon="6.27865">
        <ele>207</ele>
        <time>2023-04-28T14:02:16Z</time>
      </trkpt>
      <trkpt lat="43.47464" lon="6.27866">
        <ele>207</ele>
        <time>2023-04-28T14:02:17Z</time>
      </trkpt>
      <trkpt lat="43.47463" lon="6.27866">
        <ele>207</ele>
        <time>2023-04-28T14:02:18Z</time>
      </trkpt>
      <trkpt lat="43.47463" lon="6.27866">
        <ele>207</ele>
        <time>2023-04-28T14:02:19Z</time>
      </trkpt>
      <trkpt lat="43.47462" lon="6.27867">
        <ele>207</ele>
        <time>2023-04-28T14:02:20Z</time>
      </trkpt>
      <trkpt lat="43.47461" lon="6.27868">
        <ele>207</ele>
        <time>2023-04-28T14:02:21Z</time>
      </trkpt>
      <trkpt lat="43.47461" lon="6.27869">
        <ele>207</ele>
        <time>2023-04-28T14:02:22Z</time>
      </trkpt>
      <trkpt lat="43.4746" lon="6.2787">
        <ele>208</ele>
        <time>2023-04-28T14:02:23Z</time>
      </trkpt>
      <trkpt lat="43.4746" lon="6.27871">
        <ele>208</ele>
        <time>2023-04-28T14:02:24Z</time>
      </trkpt>
      <trkpt lat="43.47459" lon="6.27872">
        <ele>208</ele>
        <time>2023-04-28T14:02:25Z</time>
      </trkpt>
      <trkpt lat="43.47458" lon="6.27873">
        <ele>208</ele>
        <time>2023-04-28T14:02:26Z</time>
      </trkpt>
      <trkpt lat="43.47458" lon="6.27874">
        <ele>208</ele>
        <time>2023-04-28T14:02:27Z</time>
      </trkpt>
      <trkpt lat="43.47457" lon="6.27875">
        <ele>208</ele>
        <time>2023-04-28T14:02:28Z</time>
      </trkpt>
      <trkpt lat="43.47456" lon="6.27876">
        <ele>208</ele>
        <time>2023-04-28T14:02:29Z</time>
      </trkpt>
      <trkpt lat="43.47456" lon="6.27877">
        <ele>208</ele>
        <time>2023-04-28T14:02:30Z</time>
      </trkpt>
      <trkpt lat="43.47455" lon="6.27878">
        <ele>208</ele>
        <time>2023-04-28T14:02:31Z</time>
      </trkpt>
      <trkpt lat="43.47454" lon="6.27879">
        <ele>208</ele>
        <time>2023-04-28T14:02:32Z</time>
      </trkpt>
      <trkpt lat="43.47453" lon="6.2788">
        <ele>208</ele>
        <time>2023-04-28T14:02:33Z</time>
      </trkpt>
      <trkpt lat="43.47453" lon="6.27881">
        <ele>207</ele>
        <time>2023-04-28T14:02:34Z</time>
      </trkpt>
      <trkpt lat="43.47452" lon="6.27882">
        <ele>207</ele>
        <time>2023-04-28T14:02:35Z</time>
      </trkpt>
      <trkpt lat="43.47452" lon="6.27884">
        <ele>207</ele>
        <time>2023-04-28T14:02:36Z</time>
      </trkpt>
      <trkpt lat="43.47451" lon="6.27885">
        <ele>207</ele>
        <time>2023-04-28T14:02:37Z</time>
      </trkpt>
      <trkpt lat="43.4745" lon="6.27887">
        <ele>207</ele>
        <time>2023-04-28T14:02:38Z</time>
      </trkpt>
      <trkpt lat="43.47449" lon="6.27888">
        <ele>207</ele>
        <time>2023-04-28T14:02:39Z</time>
      </trkpt>
      <trkpt lat="43.47449" lon="6.27889">
        <ele>207</ele>
        <time>2023-04-28T14:02:40Z</time>
      </trkpt>
      <trkpt lat="43.47448" lon="6.2789">
        <ele>207</ele>
        <time>2023-04-28T14:02:41Z</time>
      </trkpt>
      <trkpt lat="43.47447" lon="6.27891">
        <ele>207</ele>
        <time>2023-04-28T14:02:42Z</time>
      </trkpt>
      <trkpt lat="43.47446" lon="6.27891">
        <ele>207</ele>
        <time>2023-04-28T14:02:43Z</time>
      </trkpt>
      <trkpt lat="43.47445" lon="6.27892">
        <ele>207</ele>
        <time>2023-04-28T14:02:44Z</time>
      </trkpt>
      <trkpt lat="43.47444" lon="6.27893">
        <ele>207</ele>
        <time>2023-04-28T14:02:45Z</time>
      </trkpt>
      <trkpt lat="43.47443" lon="6.27893">
        <ele>207</ele>
        <time>2023-04-28T14:02:46Z</time>
      </trkpt>
      <trkpt lat="43.47442" lon="6.27894">
        <ele>207</ele>
        <time>2023-04-28T14:02:47Z</time>
      </trkpt>
      <trkpt lat="43.47442" lon="6.27895">
        <ele>207</ele>
        <time>2023-04-28T14:02:48Z</time>
      </trkpt>
      <trkpt lat="43.47441" lon="6.27896">
        <ele>207</ele>
        <time>2023-04-28T14:02:49Z</time>
      </trkpt>
      <trkpt lat="43.4744" lon="6.27896">
        <ele>207</ele>
        <time>2023-04-28T14:02:50Z</time>
      </trkpt>
      <trkpt lat="43.47439" lon="6.27897">
        <ele>207</ele>
        <time>2023-04-28T14:02:51Z</time>
      </trkpt>
      <trkpt lat="43.47438" lon="6.27897">
        <ele>207</ele>
        <time>2023-04-28T14:02:52Z</time>
      </trkpt>
      <trkpt lat="43.47437" lon="6.27898">
        <ele>207</ele>
        <time>2023-04-28T14:02:53Z</time>
      </trkpt>
      <trkpt lat="43.47436" lon="6.27899">
        <ele>207</ele>
        <time>2023-04-28T14:02:54Z</time>
      </trkpt>
      <trkpt lat="43.47436" lon="6.279">
        <ele>207</ele>
        <time>2023-04-28T14:02:55Z</time>
      </trkpt>
      <trkpt lat="43.47435" lon="6.279">
        <ele>207</ele>
        <time>2023-04-28T14:02:56Z</time>
      </trkpt>
      <trkpt lat="43.47434" lon="6.279">
        <ele>207</ele>
        <time>2023-04-28T14:02:57Z</time>
      </trkpt>
      <trkpt lat="43.47433" lon="6.27901">
        <ele>207</ele>
        <time>2023-04-28T14:02:58Z</time>
      </trkpt>
      <trkpt lat="43.47432" lon="6.27902">
        <ele>207</ele>
        <time>2023-04-28T14:02:59Z</time>
      </trkpt>
      <trkpt lat="43.47432" lon="6.27902">
        <ele>207</ele>
        <time>2023-04-28T14:03:00Z</time>
      </trkpt>
      <trkpt lat="43.47431" lon="6.27902">
        <ele>207</ele>
        <time>2023-04-28T14:03:01Z</time>
      </trkpt>
      <trkpt lat="43.4743" lon="6.27903">
        <ele>207</ele>
        <time>2023-04-28T14:03:02Z</time>
      </trkpt>
      <trkpt lat="43.47429" lon="6.27904">
        <ele>208</ele>
        <time>2023-04-28T14:03:03Z</time>
      </trkpt>
      <trkpt lat="43.47429" lon="6.27904">
        <ele>208</ele>
        <time>2023-04-28T14:03:04Z</time>
      </trkpt>
      <trkpt lat="43.47428" lon="6.27905">
        <ele>208</ele>
        <time>2023-04-28T14:03:05Z</time>
      </trkpt>
      <trkpt lat="43.47427" lon="6.27906">
        <ele>208</ele>
        <time>2023-04-28T14:03:06Z</time>
      </trkpt>
      <trkpt lat="43.47426" lon="6.27906">
        <ele>208</ele>
        <time>2023-04-28T14:03:07Z</time>
      </trkpt>
      <trkpt lat="43.47425" lon="6.27907">
        <ele>208</ele>
        <time>2023-04-28T14:03:08Z</time>
      </trkpt>
      <trkpt lat="43.47424" lon="6.27908">
        <ele>208</ele>
        <time>2023-04-28T14:03:09Z</time>
      </trkpt>
      <trkpt lat="43.47423" lon="6.27909">
        <ele>208</ele>
        <time>2023-04-28T14:03:10Z</time>
      </trkpt>
      <trkpt lat="43.47422" lon="6.27911">
        <ele>208</ele>
        <time>2023-04-28T14:03:11Z</time>
      </trkpt>
      <trkpt lat="43.47421" lon="6.27912">
        <ele>208</ele>
        <time>2023-04-28T14:03:12Z</time>
      </trkpt>
      <trkpt lat="43.47421" lon="6.27913">
        <ele>208</ele>
        <time>2023-04-28T14:03:13Z</time>
      </trkpt>
      <trkpt lat="43.4742" lon="6.27914">
        <ele>208</ele>
        <time>2023-04-28T14:03:14Z</time>
      </trkpt>
      <trkpt lat="43.4742" lon="6.27915">
        <ele>208</ele>
        <time>2023-04-28T14:03:15Z</time>
      </trkpt>
      <trkpt lat="43.47419" lon="6.27916">
        <ele>208</ele>
        <time>2023-04-28T14:03:16Z</time>
      </trkpt>
      <trkpt lat="43.47419" lon="6.27917">
        <ele>207</ele>
        <time>2023-04-28T14:03:17Z</time>
      </trkpt>
      <trkpt lat="43.47418" lon="6.27918">
        <ele>207</ele>
        <time>2023-04-28T14:03:18Z</time>
      </trkpt>
      <trkpt lat="43.47417" lon="6.2792">
        <ele>207</ele>
        <time>2023-04-28T14:03:19Z</time>
      </trkpt>
      <trkpt lat="43.47417" lon="6.27921">
        <ele>207</ele>
        <time>2023-04-28T14:03:20Z</time>
      </trkpt>
      <trkpt lat="43.47416" lon="6.27922">
        <ele>207</ele>
        <time>2023-04-28T14:03:21Z</time>
      </trkpt>
      <trkpt lat="43.47415" lon="6.27924">
        <ele>207</ele>
        <time>2023-04-28T14:03:22Z</time>
      </trkpt>
      <trkpt lat="43.47415" lon="6.27925">
        <ele>207</ele>
        <time>2023-04-28T14:03:23Z</time>
      </trkpt>
      <trkpt lat="43.47414" lon="6.27927">
        <ele>207</ele>
        <time>2023-04-28T14:03:24Z</time>
      </trkpt>
      <trkpt lat="43.47413" lon="6.27928">
        <ele>207</ele>
        <time>2023-04-28T14:03:25Z</time>
      </trkpt>
      <trkpt lat="43.47413" lon="6.2793">
        <ele>207</ele>
        <time>2023-04-28T14:03:26Z</time>
      </trkpt>
      <trkpt lat="43.47412" lon="6.27931">
        <ele>207</ele>
        <time>2023-04-28T14:03:27Z</time>
      </trkpt>
      <trkpt lat="43.47411" lon="6.27932">
        <ele>207</ele>
        <time>2023-04-28T14:03:28Z</time>
      </trkpt>
      <trkpt lat="43.47411" lon="6.27934">
        <ele>207</ele>
        <time>2023-04-28T14:03:29Z</time>
      </trkpt>
      <trkpt lat="43.4741" lon="6.27935">
        <ele>207</ele>
        <time>2023-04-28T14:03:30Z</time>
      </trkpt>
      <trkpt lat="43.4741" lon="6.27936">
        <ele>207</ele>
        <time>2023-04-28T14:03:31Z</time>
      </trkpt>
      <trkpt lat="43.47409" lon="6.27937">
        <ele>207</ele>
        <time>2023-04-28T14:03:32Z</time>
      </trkpt>
      <trkpt lat="43.47409" lon="6.27939">
        <ele>207</ele>
        <time>2023-04-28T14:03:33Z</time>
      </trkpt>
      <trkpt lat="43.47408" lon="6.2794">
        <ele>207</ele>
        <time>2023-04-28T14:03:34Z</time>
      </trkpt>
      <trkpt lat="43.47408" lon="6.27941">
        <ele>206</ele>
        <time>2023-04-28T14:03:35Z</time>
      </trkpt>
      <trkpt lat="43.47407" lon="6.27942">
        <ele>206</ele>
        <time>2023-04-28T14:03:36Z</time>
      </trkpt>
      <trkpt lat="43.47406" lon="6.27943">
        <ele>206</ele>
        <time>2023-04-28T14:03:37Z</time>
      </trkpt>
      <trkpt lat="43.47406" lon="6.27945">
        <ele>206</ele>
        <time>2023-04-28T14:03:38Z</time>
      </trkpt>
      <trkpt lat="43.47405" lon="6.27946">
        <ele>206</ele>
        <time>2023-04-28T14:03:39Z</time>
      </trkpt>
      <trkpt lat="43.47405" lon="6.27948">
        <ele>207</ele>
        <time>2023-04-28T14:03:40Z</time>
      </trkpt>
      <trkpt lat="43.47404" lon="6.27949">
        <ele>207</ele>
        <time>2023-04-28T14:03:41Z</time>
      </trkpt>
      <trkpt lat="43.47404" lon="6.2795">
        <ele>207</ele>
        <time>2023-04-28T14:03:42Z</time>
      </trkpt>
      <trkpt lat="43.47403" lon="6.27952">
        <ele>207</ele>
        <time>2023-04-28T14:03:43Z</time>
      </trkpt>
      <trkpt lat="43.47403" lon="6.27952">
        <ele>207</ele>
        <time>2023-04-28T14:03:44Z</time>
      </trkpt>
      <trkpt lat="43.47402" lon="6.27953">
        <ele>208</ele>
        <time>2023-04-28T14:03:45Z</time>
      </trkpt>
      <trkpt lat="43.47401" lon="6.27953">
        <ele>208</ele>
        <time>2023-04-28T14:03:46Z</time>
      </trkpt>
      <trkpt lat="43.474" lon="6.27953">
        <ele>208</ele>
        <time>2023-04-28T14:03:47Z</time>
      </trkpt>
      <trkpt lat="43.47399" lon="6.27954">
        <ele>208</ele>
        <time>2023-04-28T14:03:48Z</time>
      </trkpt>
      <trkpt lat="43.47398" lon="6.27954">
        <ele>208</ele>
        <time>2023-04-28T14:03:49Z</time>
      </trkpt>
      <trkpt lat="43.47397" lon="6.27955">
        <ele>208</ele>
        <time>2023-04-28T14:03:50Z</time>
      </trkpt>
      <trkpt lat="43.47397" lon="6.27954">
        <ele>208</ele>
        <time>2023-04-28T14:03:51Z</time>
      </trkpt>
      <trkpt lat="43.47397" lon="6.27954">
        <ele>208</ele>
        <time>2023-04-28T14:03:52Z</time>
      </trkpt>
      <trkpt lat="43.47397" lon="6.27953">
        <ele>208</ele>
        <time>2023-04-28T14:03:53Z</time>
      </trkpt>
      <trkpt lat="43.47397" lon="6.27953">
        <ele>208</ele>
        <time>2023-04-28T14:03:54Z</time>
      </trkpt>
      <trkpt lat="43.47397" lon="6.27953">
        <ele>208</ele>
        <time>2023-04-28T14:03:55Z</time>
      </trkpt>
      <trkpt lat="43.47397" lon="6.27953">
        <ele>207</ele>
        <time>2023-04-28T14:03:56Z</time>
      </trkpt>
      <trkpt lat="43.47398" lon="6.27953">
        <ele>207</ele>
        <time>2023-04-28T14:03:57Z</time>
      </trkpt>
      <trkpt lat="43.47398" lon="6.27953">
        <ele>207</ele>
        <time>2023-04-28T14:03:58Z</time>
      </trkpt>
      <trkpt lat="43.47398" lon="6.27952">
        <ele>207</ele>
        <time>2023-04-28T14:03:59Z</time>
      </trkpt>
      <trkpt lat="43.47398" lon="6.27952">
        <ele>207</ele>
        <time>2023-04-28T14:04:00Z</time>
      </trkpt>
      <trkpt lat="43.47398" lon="6.27952">
        <ele>207</ele>
        <time>2023-04-28T14:04:01Z</time>
      </trkpt>
      <trkpt lat="43.47398" lon="6.27952">
        <ele>207</ele>
        <time>2023-04-28T14:04:02Z</time>
      </trkpt>
      <trkpt lat="43.47398" lon="6.27952">
        <ele>207</ele>
        <time>2023-04-28T14:04:03Z</time>
      </trkpt>
      <trkpt lat="43.47398" lon="6.27952">
        <ele>207</ele>
        <time>2023-04-28T14:04:04Z</time>
      </trkpt>
      <trkpt lat="43.47398" lon="6.27952">
        <ele>207</ele>
        <time>2023-04-28T14:04:05Z</time>
      </trkpt>
      <trkpt lat="43.47398" lon="6.27952">
        <ele>207</ele>
        <time>2023-04-28T14:04:06Z</time>
      </trkpt>
      <trkpt lat="43.47398" lon="6.27952">
        <ele>207</ele>
        <time>2023-04-28T14:04:07Z</time>
      </trkpt>
      <trkpt lat="43.47398" lon="6.27952">
        <ele>207</ele>
        <time>2023-04-28T14:04:08Z</time>
      </trkpt>
      <trkpt lat="43.47398" lon="6.27952">
        <ele>207</ele>
        <time>2023-04-28T14:04:09Z</time>
      </trkpt>
      <trkpt lat="43.47398" lon="6.27952">
        <ele>207</ele>
        <time>2023-04-28T14:04:10Z</time>
      </trkpt>
      <trkpt lat="43.47398" lon="6.27952">
        <ele>207</ele>
        <time>2023-04-28T14:04:11Z</time>
      </trkpt>
      <trkpt lat="43.47398" lon="6.27952">
        <ele>207</ele>
        <time>2023-04-28T14:04:12Z</time>
      </trkpt>
      <trkpt lat="43.47398" lon="6.27952">
        <ele>207</ele>
        <time>2023-04-28T14:04:13Z</time>
      </trkpt>
      <trkpt lat="43.47398" lon="6.27952">
        <ele>207</ele>
        <time>2023-04-28T14:04:14Z</time>
      </trkpt>
      <trkpt lat="43.47398" lon="6.27952">
        <ele>207</ele>
        <time>2023-04-28T14:04:15Z</time>
      </trkpt>
      <trkpt lat="43.47398" lon="6.27952">
        <ele>207</ele>
        <time>2023-04-28T14:04:16Z</time>
      </trkpt>
      <trkpt lat="43.47398" lon="6.27952">
        <ele>207</ele>
        <time>2023-04-28T14:04:17Z</time>
      </trkpt>
      <trkpt lat="43.47398" lon="6.27952">
        <ele>207</ele>
        <time>2023-04-28T14:04:18Z</time>
      </trkpt>
      <trkpt lat="43.47398" lon="6.27952">
        <ele>207</ele>
        <time>2023-04-28T14:04:19Z</time>
      </trkpt>
      <trkpt lat="43.47398" lon="6.27952">
        <ele>207</ele>
        <time>2023-04-28T14:04:20Z</time>
      </trkpt>
      <trkpt lat="43.47398" lon="6.27952">
        <ele>207</ele>
        <time>2023-04-28T14:04:21Z</time>
      </trkpt>
      <trkpt lat="43.47398" lon="6.27952">
        <ele>207</ele>
        <time>2023-04-28T14:04:22Z</time>
      </trkpt>
      <trkpt lat="43.47398" lon="6.27952">
        <ele>207</ele>
        <time>2023-04-28T14:04:23Z</time>
      </trkpt>
      <trkpt lat="43.47398" lon="6.27952">
        <ele>207</ele>
        <time>2023-04-28T14:04:24Z</time>
      </trkpt>
      <trkpt lat="43.47398" lon="6.27952">
        <ele>207</ele>
        <time>2023-04-28T14:04:25Z</time>
      </trkpt>
      <trkpt lat="43.47398" lon="6.27952">
        <ele>207</ele>
        <time>2023-04-28T14:04:26Z</time>
      </trkpt>
      <trkpt lat="43.47398" lon="6.27952">
        <ele>207</ele>
        <time>2023-04-28T14:04:27Z</time>
      </trkpt>
      <trkpt lat="43.47398" lon="6.27952">
        <ele>207</ele>
        <time>2023-04-28T14:04:28Z</time>
      </trkpt>
      <trkpt lat="43.47398" lon="6.27952">
        <ele>207</ele>
        <time>2023-04-28T14:04:29Z</time>
      </trkpt>
      <trkpt lat="43.47398" lon="6.27952">
        <ele>207</ele>
        <time>2023-04-28T14:04:30Z</time>
      </trkpt>
      <trkpt lat="43.47398" lon="6.27952">
        <ele>206</ele>
        <time>2023-04-28T14:04:31Z</time>
      </trkpt>
      <trkpt lat="43.47398" lon="6.27952">
        <ele>206</ele>
        <time>2023-04-28T14:04:32Z</time>
      </trkpt>
      <trkpt lat="43.47398" lon="6.27952">
        <ele>206</ele>
        <time>2023-04-28T14:04:33Z</time>
      </trkpt>
      <trkpt lat="43.47398" lon="6.27952">
        <ele>206</ele>
        <time>2023-04-28T14:04:34Z</time>
      </trkpt>
      <trkpt lat="43.47398" lon="6.27952">
        <ele>206</ele>
        <time>2023-04-28T14:04:35Z</time>
      </trkpt>
      <trkpt lat="43.47398" lon="6.27952">
        <ele>206</ele>
        <time>2023-04-28T14:04:36Z</time>
      </trkpt>
      <trkpt lat="43.47398" lon="6.27952">
        <ele>206</ele>
        <time>2023-04-28T14:04:37Z</time>
      </trkpt>
      <trkpt lat="43.47398" lon="6.27952">
        <ele>206</ele>
        <time>2023-04-28T14:04:38Z</time>
      </trkpt>
      <trkpt lat="43.47398" lon="6.27952">
        <ele>206</ele>
        <time>2023-04-28T14:04:39Z</time>
      </trkpt>
      <trkpt lat="43.47398" lon="6.27952">
        <ele>206</ele>
        <time>2023-04-28T14:04:40Z</time>
      </trkpt>
      <trkpt lat="43.47398" lon="6.27952">
        <ele>206</ele>
        <time>2023-04-28T14:04:41Z</time>
      </trkpt>
      <trkpt lat="43.47398" lon="6.27952">
        <ele>206</ele>
        <time>2023-04-28T14:04:42Z</time>
      </trkpt>
      <trkpt lat="43.47398" lon="6.27952">
        <ele>206</ele>
        <time>2023-04-28T14:04:43Z</time>
      </trkpt>
      <trkpt lat="43.47398" lon="6.27952">
        <ele>206</ele>
        <time>2023-04-28T14:04:44Z</time>
      </trkpt>
      <trkpt lat="43.47398" lon="6.27952">
        <ele>206</ele>
        <time>2023-04-28T14:04:45Z</time>
      </trkpt>
      <trkpt lat="43.47398" lon="6.27952">
        <ele>206</ele>
        <time>2023-04-28T14:04:46Z</time>
      </trkpt>
      <trkpt lat="43.47398" lon="6.27952">
        <ele>206</ele>
        <time>2023-04-28T14:04:47Z</time>
      </trkpt>
      <trkpt lat="43.47398" lon="6.27952">
        <ele>206</ele>
        <time>2023-04-28T14:04:48Z</time>
      </trkpt>
      <trkpt lat="43.47398" lon="6.27952">
        <ele>206</ele>
        <time>2023-04-28T14:04:49Z</time>
      </trkpt>
      <trkpt lat="43.47398" lon="6.27952">
        <ele>206</ele>
        <time>2023-04-28T14:04:50Z</time>
      </trkpt>
      <trkpt lat="43.47398" lon="6.27952">
        <ele>206</ele>
        <time>2023-04-28T14:04:51Z</time>
      </trkpt>
      <trkpt lat="43.47398" lon="6.27953">
        <ele>206</ele>
        <time>2023-04-28T14:04:52Z</time>
      </trkpt>
      <trkpt lat="43.47398" lon="6.27953">
        <ele>206</ele>
        <time>2023-04-28T14:04:53Z</time>
      </trkpt>
      <trkpt lat="43.47398" lon="6.27953">
        <ele>206</ele>
        <time>2023-04-28T14:04:54Z</time>
      </trkpt>
      <trkpt lat="43.47398" lon="6.27953">
        <ele>206</ele>
        <time>2023-04-28T14:04:55Z</time>
      </trkpt>
      <trkpt lat="43.47398" lon="6.27953">
        <ele>206</ele>
        <time>2023-04-28T14:04:56Z</time>
      </trkpt>
      <trkpt lat="43.47398" lon="6.27953">
        <ele>206</ele>
        <time>2023-04-28T14:04:57Z</time>
      </trkpt>
      <trkpt lat="43.47398" lon="6.27953">
        <ele>206</ele>
        <time>2023-04-28T14:04:58Z</time>
      </trkpt>
      <trkpt lat="43.47398" lon="6.27953">
        <ele>206</ele>
        <time>2023-04-28T14:04:59Z</time>
      </trkpt>
      <trkpt lat="43.47398" lon="6.27953">
        <ele>206</ele>
        <time>2023-04-28T14:05:00Z</time>
      </trkpt>
      <trkpt lat="43.47398" lon="6.27953">
        <ele>206</ele>
        <time>2023-04-28T14:05:01Z</time>
      </trkpt>
      <trkpt lat="43.47398" lon="6.27953">
        <ele>206</ele>
        <time>2023-04-28T14:05:02Z</time>
      </trkpt>
      <trkpt lat="43.47398" lon="6.27953">
        <ele>206</ele>
        <time>2023-04-28T14:05:03Z</time>
      </trkpt>
      <trkpt lat="43.47398" lon="6.27953">
        <ele>206</ele>
        <time>2023-04-28T14:05:04Z</time>
      </trkpt>
      <trkpt lat="43.47398" lon="6.27953">
        <ele>206</ele>
        <time>2023-04-28T14:05:05Z</time>
      </trkpt>
      <trkpt lat="43.47398" lon="6.27953">
        <ele>206</ele>
        <time>2023-04-28T14:05:06Z</time>
      </trkpt>
      <trkpt lat="43.47398" lon="6.27953">
        <ele>206</ele>
        <time>2023-04-28T14:05:07Z</time>
      </trkpt>
      <trkpt lat="43.47398" lon="6.27953">
        <ele>206</ele>
        <time>2023-04-28T14:05:08Z</time>
      </trkpt>
      <trkpt lat="43.47398" lon="6.27953">
        <ele>206</ele>
        <time>2023-04-28T14:05:09Z</time>
      </trkpt>
      <trkpt lat="43.47398" lon="6.27953">
        <ele>206</ele>
        <time>2023-04-28T14:05:10Z</time>
      </trkpt>
      <trkpt lat="43.47398" lon="6.27953">
        <ele>206</ele>
        <time>2023-04-28T14:05:11Z</time>
      </trkpt>
      <trkpt lat="43.47398" lon="6.27953">
        <ele>206</ele>
        <time>2023-04-28T14:05:12Z</time>
      </trkpt>
      <trkpt lat="43.47398" lon="6.27953">
        <ele>206</ele>
        <time>2023-04-28T14:05:13Z</time>
      </trkpt>
      <trkpt lat="43.47398" lon="6.27953">
        <ele>206</ele>
        <time>2023-04-28T14:05:14Z</time>
      </trkpt>
      <trkpt lat="43.47398" lon="6.27953">
        <ele>206</ele>
        <time>2023-04-28T14:05:15Z</time>
      </trkpt>
      <trkpt lat="43.47398" lon="6.27953">
        <ele>206</ele>
        <time>2023-04-28T14:05:16Z</time>
      </trkpt>
      <trkpt lat="43.47398" lon="6.27953">
        <ele>206</ele>
        <time>2023-04-28T14:05:17Z</time>
      </trkpt>
      <trkpt lat="43.47398" lon="6.27953">
        <ele>206</ele>
        <time>2023-04-28T14:05:18Z</time>
      </trkpt>
      <trkpt lat="43.47398" lon="6.27953">
        <ele>206</ele>
        <time>2023-04-28T14:05:19Z</time>
      </trkpt>
      <trkpt lat="43.47398" lon="6.27953">
        <ele>206</ele>
        <time>2023-04-28T14:05:20Z</time>
      </trkpt>
      <trkpt lat="43.47398" lon="6.27953">
        <ele>206</ele>
        <time>2023-04-28T14:05:21Z</time>
      </trkpt>
      <trkpt lat="43.47398" lon="6.27953">
        <ele>206</ele>
        <time>2023-04-28T14:05:22Z</time>
      </trkpt>
      <trkpt lat="43.47398" lon="6.27953">
        <ele>206</ele>
        <time>2023-04-28T14:05:23Z</time>
      </trkpt>
      <trkpt lat="43.47398" lon="6.27953">
        <ele>206</ele>
        <time>2023-04-28T14:05:24Z</time>
      </trkpt>
      <trkpt lat="43.47398" lon="6.27953">
        <ele>206</ele>
        <time>2023-04-28T14:05:25Z</time>
      </trkpt>
      <trkpt lat="43.47398" lon="6.27953">
        <ele>206</ele>
        <time>2023-04-28T14:05:26Z</time>
      </trkpt>
      <trkpt lat="43.47398" lon="6.27953">
        <ele>206</ele>
        <time>2023-04-28T14:05:27Z</time>
      </trkpt>
      <trkpt lat="43.47398" lon="6.27953">
        <ele>206</ele>
        <time>2023-04-28T14:05:28Z</time>
      </trkpt>
      <trkpt lat="43.47398" lon="6.27953">
        <ele>206</ele>
        <time>2023-04-28T14:05:29Z</time>
      </trkpt>
      <trkpt lat="43.47398" lon="6.27953">
        <ele>206</ele>
        <time>2023-04-28T14:05:30Z</time>
      </trkpt>
      <trkpt lat="43.47397" lon="6.27953">
        <ele>206</ele>
        <time>2023-04-28T14:05:31Z</time>
      </trkpt>
      <trkpt lat="43.47397" lon="6.27953">
        <ele>206</ele>
        <time>2023-04-28T14:05:32Z</time>
      </trkpt>
      <trkpt lat="43.47397" lon="6.27953">
        <ele>206</ele>
        <time>2023-04-28T14:05:33Z</time>
      </trkpt>
      <trkpt lat="43.47396" lon="6.27953">
        <ele>206</ele>
        <time>2023-04-28T14:05:34Z</time>
      </trkpt>
      <trkpt lat="43.47396" lon="6.27952">
        <ele>206</ele>
        <time>2023-04-28T14:05:35Z</time>
      </trkpt>
      <trkpt lat="43.47395" lon="6.27952">
        <ele>206</ele>
        <time>2023-04-28T14:05:36Z</time>
      </trkpt>
      <trkpt lat="43.47395" lon="6.27952">
        <ele>206</ele>
        <time>2023-04-28T14:05:37Z</time>
      </trkpt>
      <trkpt lat="43.47394" lon="6.27952">
        <ele>206</ele>
        <time>2023-04-28T14:05:38Z</time>
      </trkpt>
      <trkpt lat="43.47394" lon="6.27952">
        <ele>206</ele>
        <time>2023-04-28T14:05:39Z</time>
      </trkpt>
      <trkpt lat="43.47394" lon="6.27952">
        <ele>206</ele>
        <time>2023-04-28T14:05:40Z</time>
      </trkpt>
      <trkpt lat="43.47394" lon="6.27952">
        <ele>206</ele>
        <time>2023-04-28T14:05:41Z</time>
      </trkpt>
      <trkpt lat="43.47394" lon="6.27952">
        <ele>206</ele>
        <time>2023-04-28T14:05:42Z</time>
      </trkpt>
      <trkpt lat="43.47394" lon="6.27952">
        <ele>206</ele>
        <time>2023-04-28T14:05:43Z</time>
      </trkpt>
      <trkpt lat="43.47393" lon="6.27952">
        <ele>206</ele>
        <time>2023-04-28T14:05:44Z</time>
      </trkpt>
      <trkpt lat="43.47393" lon="6.27951">
        <ele>206</ele>
        <time>2023-04-28T14:05:45Z</time>
      </trkpt>
      <trkpt lat="43.47392" lon="6.27952">
        <ele>206</ele>
        <time>2023-04-28T14:05:46Z</time>
      </trkpt>
      <trkpt lat="43.47391" lon="6.27952">
        <ele>206</ele>
        <time>2023-04-28T14:05:47Z</time>
      </trkpt>
      <trkpt lat="43.4739" lon="6.27953">
        <ele>206</ele>
        <time>2023-04-28T14:05:48Z</time>
      </trkpt>
      <trkpt lat="43.47389" lon="6.27953">
        <ele>206</ele>
        <time>2023-04-28T14:05:49Z</time>
      </trkpt>
      <trkpt lat="43.47389" lon="6.27953">
        <ele>205</ele>
        <time>2023-04-28T14:05:50Z</time>
      </trkpt>
      <trkpt lat="43.47389" lon="6.27953">
        <ele>205</ele>
        <time>2023-04-28T14:05:51Z</time>
      </trkpt>
      <trkpt lat="43.47389" lon="6.27953">
        <ele>205</ele>
        <time>2023-04-28T14:05:52Z</time>
      </trkpt>
      <trkpt lat="43.47388" lon="6.27953">
        <ele>205</ele>
        <time>2023-04-28T14:05:53Z</time>
      </trkpt>
      <trkpt lat="43.47388" lon="6.27953">
        <ele>205</ele>
        <time>2023-04-28T14:05:54Z</time>
      </trkpt>
      <trkpt lat="43.47388" lon="6.27953">
        <ele>205</ele>
        <time>2023-04-28T14:05:55Z</time>
      </trkpt>
      <trkpt lat="43.47386" lon="6.27952">
        <ele>204</ele>
        <time>2023-04-28T14:05:56Z</time>
      </trkpt>
      <trkpt lat="43.47386" lon="6.27952">
        <ele>204</ele>
        <time>2023-04-28T14:05:57Z</time>
      </trkpt>
      <trkpt lat="43.47385" lon="6.27952">
        <ele>204</ele>
        <time>2023-04-28T14:05:58Z</time>
      </trkpt>
      <trkpt lat="43.47385" lon="6.27952">
        <ele>204</ele>
        <time>2023-04-28T14:05:59Z</time>
      </trkpt>
      <trkpt lat="43.47384" lon="6.27952">
        <ele>203</ele>
        <time>2023-04-28T14:06:00Z</time>
      </trkpt>
      <trkpt lat="43.47384" lon="6.27952">
        <ele>203</ele>
        <time>2023-04-28T14:06:01Z</time>
      </trkpt>
      <trkpt lat="43.47384" lon="6.27952">
        <ele>203</ele>
        <time>2023-04-28T14:06:02Z</time>
      </trkpt>
      <trkpt lat="43.47383" lon="6.27952">
        <ele>203</ele>
        <time>2023-04-28T14:06:03Z</time>
      </trkpt>
      <trkpt lat="43.47383" lon="6.27952">
        <ele>203</ele>
        <time>2023-04-28T14:06:04Z</time>
      </trkpt>
      <trkpt lat="43.47383" lon="6.27951">
        <ele>203</ele>
        <time>2023-04-28T14:06:05Z</time>
      </trkpt>
      <trkpt lat="43.47382" lon="6.27951">
        <ele>203</ele>
        <time>2023-04-28T14:06:06Z</time>
      </trkpt>
      <trkpt lat="43.4738" lon="6.27951">
        <ele>203</ele>
        <time>2023-04-28T14:06:07Z</time>
      </trkpt>
      <trkpt lat="43.47379" lon="6.27951">
        <ele>204</ele>
        <time>2023-04-28T14:06:08Z</time>
      </trkpt>
      <trkpt lat="43.47378" lon="6.27951">
        <ele>204</ele>
        <time>2023-04-28T14:06:09Z</time>
      </trkpt>
      <trkpt lat="43.47377" lon="6.27951">
        <ele>204</ele>
        <time>2023-04-28T14:06:10Z</time>
      </trkpt>
      <trkpt lat="43.47376" lon="6.27951">
        <ele>204</ele>
        <time>2023-04-28T14:06:11Z</time>
      </trkpt>
      <trkpt lat="43.47375" lon="6.27951">
        <ele>204</ele>
        <time>2023-04-28T14:06:12Z</time>
      </trkpt>
      <trkpt lat="43.47374" lon="6.27951">
        <ele>204</ele>
        <time>2023-04-28T14:06:13Z</time>
      </trkpt>
      <trkpt lat="43.47373" lon="6.27951">
        <ele>204</ele>
        <time>2023-04-28T14:06:14Z</time>
      </trkpt>
      <trkpt lat="43.47372" lon="6.27951">
        <ele>205</ele>
        <time>2023-04-28T14:06:15Z</time>
      </trkpt>
      <trkpt lat="43.4737" lon="6.27951">
        <ele>205</ele>
        <time>2023-04-28T14:06:16Z</time>
      </trkpt>
      <trkpt lat="43.47369" lon="6.27951">
        <ele>205</ele>
        <time>2023-04-28T14:06:17Z</time>
      </trkpt>
      <trkpt lat="43.47368" lon="6.27952">
        <ele>205</ele>
        <time>2023-04-28T14:06:18Z</time>
      </trkpt>
      <trkpt lat="43.47367" lon="6.27952">
        <ele>205</ele>
        <time>2023-04-28T14:06:19Z</time>
      </trkpt>
      <trkpt lat="43.47366" lon="6.27952">
        <ele>205</ele>
        <time>2023-04-28T14:06:20Z</time>
      </trkpt>
      <trkpt lat="43.47365" lon="6.27952">
        <ele>206</ele>
        <time>2023-04-28T14:06:21Z</time>
      </trkpt>
      <trkpt lat="43.47364" lon="6.27952">
        <ele>206</ele>
        <time>2023-04-28T14:06:22Z</time>
      </trkpt>
      <trkpt lat="43.47363" lon="6.27952">
        <ele>206</ele>
        <time>2023-04-28T14:06:23Z</time>
      </trkpt>
      <trkpt lat="43.47362" lon="6.27952">
        <ele>206</ele>
        <time>2023-04-28T14:06:24Z</time>
      </trkpt>
      <trkpt lat="43.47362" lon="6.27952">
        <ele>206</ele>
        <time>2023-04-28T14:06:25Z</time>
      </trkpt>
      <trkpt lat="43.47361" lon="6.27952">
        <ele>206</ele>
        <time>2023-04-28T14:06:26Z</time>
      </trkpt>
      <trkpt lat="43.47361" lon="6.27952">
        <ele>206</ele>
        <time>2023-04-28T14:06:27Z</time>
      </trkpt>
      <trkpt lat="43.4736" lon="6.27952">
        <ele>206</ele>
        <time>2023-04-28T14:06:28Z</time>
      </trkpt>
      <trkpt lat="43.4736" lon="6.27952">
        <ele>206</ele>
        <time>2023-04-28T14:06:29Z</time>
      </trkpt>
      <trkpt lat="43.47359" lon="6.27952">
        <ele>207</ele>
        <time>2023-04-28T14:06:30Z</time>
      </trkpt>
      <trkpt lat="43.47359" lon="6.27952">
        <ele>207</ele>
        <time>2023-04-28T14:06:31Z</time>
      </trkpt>
      <trkpt lat="43.47358" lon="6.27952">
        <ele>207</ele>
        <time>2023-04-28T14:06:32Z</time>
      </trkpt>
      <trkpt lat="43.47357" lon="6.27952">
        <ele>207</ele>
        <time>2023-04-28T14:06:33Z</time>
      </trkpt>
      <trkpt lat="43.47356" lon="6.27953">
        <ele>207</ele>
        <time>2023-04-28T14:06:34Z</time>
      </trkpt>
      <trkpt lat="43.47355" lon="6.27953">
        <ele>207</ele>
        <time>2023-04-28T14:06:35Z</time>
      </trkpt>
      <trkpt lat="43.47354" lon="6.27953">
        <ele>207</ele>
        <time>2023-04-28T14:06:36Z</time>
      </trkpt>
      <trkpt lat="43.47352" lon="6.27953">
        <ele>206</ele>
        <time>2023-04-28T14:06:37Z</time>
      </trkpt>
      <trkpt lat="43.47351" lon="6.27953">
        <ele>206</ele>
        <time>2023-04-28T14:06:38Z</time>
      </trkpt>
      <trkpt lat="43.4735" lon="6.27953">
        <ele>206</ele>
        <time>2023-04-28T14:06:39Z</time>
      </trkpt>
      <trkpt lat="43.47349" lon="6.27953">
        <ele>206</ele>
        <time>2023-04-28T14:06:40Z</time>
      </trkpt>
      <trkpt lat="43.47349" lon="6.27954">
        <ele>206</ele>
        <time>2023-04-28T14:06:41Z</time>
      </trkpt>
      <trkpt lat="43.47349" lon="6.27954">
        <ele>206</ele>
        <time>2023-04-28T14:06:42Z</time>
      </trkpt>
      <trkpt lat="43.47348" lon="6.27954">
        <ele>206</ele>
        <time>2023-04-28T14:06:43Z</time>
      </trkpt>
      <trkpt lat="43.47348" lon="6.27954">
        <ele>206</ele>
        <time>2023-04-28T14:06:44Z</time>
      </trkpt>
      <trkpt lat="43.47348" lon="6.27954">
        <ele>206</ele>
        <time>2023-04-28T14:06:45Z</time>
      </trkpt>
      <trkpt lat="43.47348" lon="6.27955">
        <ele>206</ele>
        <time>2023-04-28T14:06:46Z</time>
      </trkpt>
      <trkpt lat="43.47347" lon="6.27955">
        <ele>206</ele>
        <time>2023-04-28T14:06:47Z</time>
      </trkpt>
      <trkpt lat="43.47346" lon="6.27955">
        <ele>206</ele>
        <time>2023-04-28T14:06:48Z</time>
      </trkpt>
      <trkpt lat="43.47345" lon="6.27956">
        <ele>206</ele>
        <time>2023-04-28T14:06:49Z</time>
      </trkpt>
      <trkpt lat="43.47344" lon="6.27957">
        <ele>206</ele>
        <time>2023-04-28T14:06:50Z</time>
      </trkpt>
      <trkpt lat="43.47344" lon="6.27957">
        <ele>206</ele>
        <time>2023-04-28T14:06:51Z</time>
      </trkpt>
      <trkpt lat="43.47343" lon="6.27958">
        <ele>206</ele>
        <time>2023-04-28T14:06:52Z</time>
      </trkpt>
      <trkpt lat="43.47342" lon="6.27958">
        <ele>206</ele>
        <time>2023-04-28T14:06:53Z</time>
      </trkpt>
      <trkpt lat="43.47342" lon="6.27958">
        <ele>207</ele>
        <time>2023-04-28T14:06:54Z</time>
      </trkpt>
      <trkpt lat="43.47341" lon="6.27958">
        <ele>207</ele>
        <time>2023-04-28T14:06:55Z</time>
      </trkpt>
      <trkpt lat="43.47341" lon="6.27958">
        <ele>207</ele>
        <time>2023-04-28T14:06:56Z</time>
      </trkpt>
      <trkpt lat="43.47341" lon="6.27958">
        <ele>207</ele>
        <time>2023-04-28T14:06:57Z</time>
      </trkpt>
      <trkpt lat="43.4734" lon="6.27959">
        <ele>207</ele>
        <time>2023-04-28T14:06:58Z</time>
      </trkpt>
      <trkpt lat="43.4734" lon="6.27959">
        <ele>207</ele>
        <time>2023-04-28T14:06:59Z</time>
      </trkpt>
      <trkpt lat="43.4734" lon="6.27959">
        <ele>208</ele>
        <time>2023-04-28T14:07:00Z</time>
      </trkpt>
      <trkpt lat="43.4734" lon="6.27959">
        <ele>209</ele>
        <time>2023-04-28T14:07:01Z</time>
      </trkpt>
      <trkpt lat="43.47339" lon="6.27959">
        <ele>209</ele>
        <time>2023-04-28T14:07:02Z</time>
      </trkpt>
      <trkpt lat="43.47339" lon="6.27959">
        <ele>209</ele>
        <time>2023-04-28T14:07:03Z</time>
      </trkpt>
      <trkpt lat="43.47339" lon="6.2796">
        <ele>209</ele>
        <time>2023-04-28T14:07:04Z</time>
      </trkpt>
      <trkpt lat="43.47338" lon="6.2796">
        <ele>209</ele>
        <time>2023-04-28T14:07:05Z</time>
      </trkpt>
      <trkpt lat="43.47338" lon="6.2796">
        <ele>209</ele>
        <time>2023-04-28T14:07:06Z</time>
      </trkpt>
      <trkpt lat="43.47338" lon="6.27961">
        <ele>209</ele>
        <time>2023-04-28T14:07:07Z</time>
      </trkpt>
      <trkpt lat="43.47337" lon="6.27961">
        <ele>209</ele>
        <time>2023-04-28T14:07:08Z</time>
      </trkpt>
      <trkpt lat="43.47336" lon="6.27961">
        <ele>209</ele>
        <time>2023-04-28T14:07:09Z</time>
      </trkpt>
      <trkpt lat="43.47335" lon="6.27962">
        <ele>209</ele>
        <time>2023-04-28T14:07:10Z</time>
      </trkpt>
      <trkpt lat="43.47334" lon="6.27962">
        <ele>209</ele>
        <time>2023-04-28T14:07:11Z</time>
      </trkpt>
      <trkpt lat="43.47332" lon="6.27963">
        <ele>209</ele>
        <time>2023-04-28T14:07:12Z</time>
      </trkpt>
      <trkpt lat="43.47331" lon="6.27963">
        <ele>209</ele>
        <time>2023-04-28T14:07:13Z</time>
      </trkpt>
      <trkpt lat="43.4733" lon="6.27963">
        <ele>209</ele>
        <time>2023-04-28T14:07:14Z</time>
      </trkpt>
      <trkpt lat="43.4733" lon="6.27963">
        <ele>209</ele>
        <time>2023-04-28T14:07:15Z</time>
      </trkpt>
      <trkpt lat="43.47329" lon="6.27963">
        <ele>210</ele>
        <time>2023-04-28T14:07:16Z</time>
      </trkpt>
      <trkpt lat="43.47329" lon="6.27963">
        <ele>210</ele>
        <time>2023-04-28T14:07:17Z</time>
      </trkpt>
      <trkpt lat="43.47329" lon="6.27963">
        <ele>210</ele>
        <time>2023-04-28T14:07:18Z</time>
      </trkpt>
      <trkpt lat="43.47329" lon="6.27963">
        <ele>210</ele>
        <time>2023-04-28T14:07:19Z</time>
      </trkpt>
      <trkpt lat="43.47328" lon="6.27963">
        <ele>210</ele>
        <time>2023-04-28T14:07:20Z</time>
      </trkpt>
      <trkpt lat="43.47328" lon="6.27963">
        <ele>210</ele>
        <time>2023-04-28T14:07:21Z</time>
      </trkpt>
      <trkpt lat="43.47326" lon="6.27963">
        <ele>210</ele>
        <time>2023-04-28T14:07:22Z</time>
      </trkpt>
      <trkpt lat="43.47325" lon="6.27963">
        <ele>210</ele>
        <time>2023-04-28T14:07:23Z</time>
      </trkpt>
      <trkpt lat="43.47324" lon="6.27963">
        <ele>210</ele>
        <time>2023-04-28T14:07:24Z</time>
      </trkpt>
      <trkpt lat="43.47323" lon="6.27963">
        <ele>210</ele>
        <time>2023-04-28T14:07:25Z</time>
      </trkpt>
      <trkpt lat="43.47322" lon="6.27964">
        <ele>210</ele>
        <time>2023-04-28T14:07:26Z</time>
      </trkpt>
      <trkpt lat="43.47321" lon="6.27964">
        <ele>210</ele>
        <time>2023-04-28T14:07:27Z</time>
      </trkpt>
      <trkpt lat="43.4732" lon="6.27964">
        <ele>210</ele>
        <time>2023-04-28T14:07:28Z</time>
      </trkpt>
      <trkpt lat="43.47319" lon="6.27964">
        <ele>210</ele>
        <time>2023-04-28T14:07:29Z</time>
      </trkpt>
      <trkpt lat="43.47318" lon="6.27964">
        <ele>210</ele>
        <time>2023-04-28T14:07:30Z</time>
      </trkpt>
      <trkpt lat="43.47317" lon="6.27964">
        <ele>210</ele>
        <time>2023-04-28T14:07:31Z</time>
      </trkpt>
      <trkpt lat="43.47317" lon="6.27964">
        <ele>210</ele>
        <time>2023-04-28T14:07:32Z</time>
      </trkpt>
      <trkpt lat="43.47316" lon="6.27964">
        <ele>210</ele>
        <time>2023-04-28T14:07:33Z</time>
      </trkpt>
      <trkpt lat="43.47315" lon="6.27964">
        <ele>210</ele>
        <time>2023-04-28T14:07:34Z</time>
      </trkpt>
      <trkpt lat="43.47314" lon="6.27964">
        <ele>210</ele>
        <time>2023-04-28T14:07:35Z</time>
      </trkpt>
      <trkpt lat="43.47312" lon="6.27964">
        <ele>210</ele>
        <time>2023-04-28T14:07:36Z</time>
      </trkpt>
      <trkpt lat="43.47311" lon="6.27965">
        <ele>210</ele>
        <time>2023-04-28T14:07:37Z</time>
      </trkpt>
      <trkpt lat="43.47309" lon="6.27965">
        <ele>211</ele>
        <time>2023-04-28T14:07:38Z</time>
      </trkpt>
      <trkpt lat="43.47308" lon="6.27965">
        <ele>211</ele>
        <time>2023-04-28T14:07:39Z</time>
      </trkpt>
      <trkpt lat="43.47306" lon="6.27965">
        <ele>211</ele>
        <time>2023-04-28T14:07:40Z</time>
      </trkpt>
      <trkpt lat="43.47305" lon="6.27965">
        <ele>211</ele>
        <time>2023-04-28T14:07:41Z</time>
      </trkpt>
      <trkpt lat="43.47304" lon="6.27965">
        <ele>211</ele>
        <time>2023-04-28T14:07:42Z</time>
      </trkpt>
      <trkpt lat="43.47303" lon="6.27966">
        <ele>211</ele>
        <time>2023-04-28T14:07:43Z</time>
      </trkpt>
      <trkpt lat="43.47303" lon="6.27966">
        <ele>211</ele>
        <time>2023-04-28T14:07:44Z</time>
      </trkpt>
      <trkpt lat="43.47302" lon="6.27966">
        <ele>211</ele>
        <time>2023-04-28T14:07:45Z</time>
      </trkpt>
      <trkpt lat="43.47301" lon="6.27966">
        <ele>211</ele>
        <time>2023-04-28T14:07:46Z</time>
      </trkpt>
      <trkpt lat="43.473" lon="6.27966">
        <ele>212</ele>
        <time>2023-04-28T14:07:47Z</time>
      </trkpt>
      <trkpt lat="43.47299" lon="6.27966">
        <ele>212</ele>
        <time>2023-04-28T14:07:48Z</time>
      </trkpt>
      <trkpt lat="43.47298" lon="6.27966">
        <ele>212</ele>
        <time>2023-04-28T14:07:49Z</time>
      </trkpt>
      <trkpt lat="43.47297" lon="6.27967">
        <ele>213</ele>
        <time>2023-04-28T14:07:50Z</time>
      </trkpt>
      <trkpt lat="43.47297" lon="6.27967">
        <ele>213</ele>
        <time>2023-04-28T14:07:51Z</time>
      </trkpt>
      <trkpt lat="43.47296" lon="6.27967">
        <ele>213</ele>
        <time>2023-04-28T14:07:52Z</time>
      </trkpt>
      <trkpt lat="43.47295" lon="6.27968">
        <ele>213</ele>
        <time>2023-04-28T14:07:53Z</time>
      </trkpt>
      <trkpt lat="43.47295" lon="6.27968">
        <ele>213</ele>
        <time>2023-04-28T14:07:54Z</time>
      </trkpt>
      <trkpt lat="43.47294" lon="6.27968">
        <ele>213</ele>
        <time>2023-04-28T14:07:55Z</time>
      </trkpt>
      <trkpt lat="43.47294" lon="6.27968">
        <ele>213</ele>
        <time>2023-04-28T14:07:56Z</time>
      </trkpt>
      <trkpt lat="43.47293" lon="6.27968">
        <ele>213</ele>
        <time>2023-04-28T14:07:57Z</time>
      </trkpt>
      <trkpt lat="43.47292" lon="6.27968">
        <ele>214</ele>
        <time>2023-04-28T14:07:58Z</time>
      </trkpt>
      <trkpt lat="43.47292" lon="6.27967">
        <ele>214</ele>
        <time>2023-04-28T14:07:59Z</time>
      </trkpt>
      <trkpt lat="43.47291" lon="6.27968">
        <ele>215</ele>
        <time>2023-04-28T14:08:00Z</time>
      </trkpt>
      <trkpt lat="43.4729" lon="6.27968">
        <ele>215</ele>
        <time>2023-04-28T14:08:01Z</time>
      </trkpt>
      <trkpt lat="43.47289" lon="6.27968">
        <ele>215</ele>
        <time>2023-04-28T14:08:02Z</time>
      </trkpt>
      <trkpt lat="43.47288" lon="6.27968">
        <ele>215</ele>
        <time>2023-04-28T14:08:03Z</time>
      </trkpt>
      <trkpt lat="43.47288" lon="6.27969">
        <ele>215</ele>
        <time>2023-04-28T14:08:04Z</time>
      </trkpt>
      <trkpt lat="43.47287" lon="6.27969">
        <ele>216</ele>
        <time>2023-04-28T14:08:05Z</time>
      </trkpt>
      <trkpt lat="43.47286" lon="6.27969">
        <ele>216</ele>
        <time>2023-04-28T14:08:06Z</time>
      </trkpt>
      <trkpt lat="43.47285" lon="6.27969">
        <ele>216</ele>
        <time>2023-04-28T14:08:07Z</time>
      </trkpt>
      <trkpt lat="43.47284" lon="6.27968">
        <ele>216</ele>
        <time>2023-04-28T14:08:08Z</time>
      </trkpt>
      <trkpt lat="43.47283" lon="6.27968">
        <ele>216</ele>
        <time>2023-04-28T14:08:09Z</time>
      </trkpt>
      <trkpt lat="43.47282" lon="6.27968">
        <ele>216</ele>
        <time>2023-04-28T14:08:10Z</time>
      </trkpt>
      <trkpt lat="43.47281" lon="6.27968">
        <ele>216</ele>
        <time>2023-04-28T14:08:11Z</time>
      </trkpt>
      <trkpt lat="43.4728" lon="6.27969">
        <ele>216</ele>
        <time>2023-04-28T14:08:12Z</time>
      </trkpt>
      <trkpt lat="43.47279" lon="6.27969">
        <ele>216</ele>
        <time>2023-04-28T14:08:13Z</time>
      </trkpt>
      <trkpt lat="43.47278" lon="6.27969">
        <ele>216</ele>
        <time>2023-04-28T14:08:14Z</time>
      </trkpt>
      <trkpt lat="43.47277" lon="6.2797">
        <ele>216</ele>
        <time>2023-04-28T14:08:15Z</time>
      </trkpt>
      <trkpt lat="43.47276" lon="6.2797">
        <ele>216</ele>
        <time>2023-04-28T14:08:16Z</time>
      </trkpt>
      <trkpt lat="43.47275" lon="6.27971">
        <ele>217</ele>
        <time>2023-04-28T14:08:17Z</time>
      </trkpt>
      <trkpt lat="43.47274" lon="6.27971">
        <ele>217</ele>
        <time>2023-04-28T14:08:18Z</time>
      </trkpt>
      <trkpt lat="43.47273" lon="6.27972">
        <ele>217</ele>
        <time>2023-04-28T14:08:19Z</time>
      </trkpt>
      <trkpt lat="43.47272" lon="6.27972">
        <ele>217</ele>
        <time>2023-04-28T14:08:20Z</time>
      </trkpt>
      <trkpt lat="43.47271" lon="6.27973">
        <ele>217</ele>
        <time>2023-04-28T14:08:21Z</time>
      </trkpt>
      <trkpt lat="43.4727" lon="6.27974">
        <ele>217</ele>
        <time>2023-04-28T14:08:22Z</time>
      </trkpt>
      <trkpt lat="43.47269" lon="6.27974">
        <ele>217</ele>
        <time>2023-04-28T14:08:23Z</time>
      </trkpt>
      <trkpt lat="43.47268" lon="6.27975">
        <ele>217</ele>
        <time>2023-04-28T14:08:24Z</time>
      </trkpt>
      <trkpt lat="43.47267" lon="6.27976">
        <ele>217</ele>
        <time>2023-04-28T14:08:25Z</time>
      </trkpt>
      <trkpt lat="43.47266" lon="6.27977">
        <ele>217</ele>
        <time>2023-04-28T14:08:26Z</time>
      </trkpt>
      <trkpt lat="43.47265" lon="6.27977">
        <ele>217</ele>
        <time>2023-04-28T14:08:27Z</time>
      </trkpt>
      <trkpt lat="43.47265" lon="6.27978">
        <ele>217</ele>
        <time>2023-04-28T14:08:28Z</time>
      </trkpt>
      <trkpt lat="43.47264" lon="6.27979">
        <ele>217</ele>
        <time>2023-04-28T14:08:29Z</time>
      </trkpt>
      <trkpt lat="43.47262" lon="6.2798">
        <ele>217</ele>
        <time>2023-04-28T14:08:30Z</time>
      </trkpt>
      <trkpt lat="43.47261" lon="6.2798">
        <ele>217</ele>
        <time>2023-04-28T14:08:31Z</time>
      </trkpt>
      <trkpt lat="43.4726" lon="6.27981">
        <ele>218</ele>
        <time>2023-04-28T14:08:32Z</time>
      </trkpt>
      <trkpt lat="43.4726" lon="6.27982">
        <ele>218</ele>
        <time>2023-04-28T14:08:33Z</time>
      </trkpt>
      <trkpt lat="43.47259" lon="6.27982">
        <ele>218</ele>
        <time>2023-04-28T14:08:34Z</time>
      </trkpt>
      <trkpt lat="43.47258" lon="6.27983">
        <ele>218</ele>
        <time>2023-04-28T14:08:35Z</time>
      </trkpt>
      <trkpt lat="43.47256" lon="6.27984">
        <ele>218</ele>
        <time>2023-04-28T14:08:36Z</time>
      </trkpt>
      <trkpt lat="43.47255" lon="6.27985">
        <ele>218</ele>
        <time>2023-04-28T14:08:37Z</time>
      </trkpt>
      <trkpt lat="43.47254" lon="6.27986">
        <ele>218</ele>
        <time>2023-04-28T14:08:38Z</time>
      </trkpt>
      <trkpt lat="43.47253" lon="6.27986">
        <ele>218</ele>
        <time>2023-04-28T14:08:39Z</time>
      </trkpt>
      <trkpt lat="43.47252" lon="6.27987">
        <ele>218</ele>
        <time>2023-04-28T14:08:40Z</time>
      </trkpt>
      <trkpt lat="43.47251" lon="6.27987">
        <ele>218</ele>
        <time>2023-04-28T14:08:41Z</time>
      </trkpt>
      <trkpt lat="43.4725" lon="6.27988">
        <ele>218</ele>
        <time>2023-04-28T14:08:42Z</time>
      </trkpt>
      <trkpt lat="43.47249" lon="6.27988">
        <ele>217</ele>
        <time>2023-04-28T14:08:43Z</time>
      </trkpt>
      <trkpt lat="43.47248" lon="6.27989">
        <ele>217</ele>
        <time>2023-04-28T14:08:44Z</time>
      </trkpt>
      <trkpt lat="43.47246" lon="6.2799">
        <ele>217</ele>
        <time>2023-04-28T14:08:45Z</time>
      </trkpt>
      <trkpt lat="43.47246" lon="6.2799">
        <ele>217</ele>
        <time>2023-04-28T14:08:46Z</time>
      </trkpt>
      <trkpt lat="43.47245" lon="6.27991">
        <ele>217</ele>
        <time>2023-04-28T14:08:47Z</time>
      </trkpt>
      <trkpt lat="43.47244" lon="6.27991">
        <ele>217</ele>
        <time>2023-04-28T14:08:48Z</time>
      </trkpt>
      <trkpt lat="43.47243" lon="6.27992">
        <ele>217</ele>
        <time>2023-04-28T14:08:49Z</time>
      </trkpt>
      <trkpt lat="43.47242" lon="6.27992">
        <ele>217</ele>
        <time>2023-04-28T14:08:50Z</time>
      </trkpt>
      <trkpt lat="43.47241" lon="6.27993">
        <ele>217</ele>
        <time>2023-04-28T14:08:51Z</time>
      </trkpt>
      <trkpt lat="43.4724" lon="6.27994">
        <ele>217</ele>
        <time>2023-04-28T14:08:52Z</time>
      </trkpt>
      <trkpt lat="43.47239" lon="6.27994">
        <ele>217</ele>
        <time>2023-04-28T14:08:53Z</time>
      </trkpt>
      <trkpt lat="43.47238" lon="6.27995">
        <ele>217</ele>
        <time>2023-04-28T14:08:54Z</time>
      </trkpt>
      <trkpt lat="43.47237" lon="6.27995">
        <ele>217</ele>
        <time>2023-04-28T14:08:55Z</time>
      </trkpt>
      <trkpt lat="43.47236" lon="6.27996">
        <ele>218</ele>
        <time>2023-04-28T14:08:56Z</time>
      </trkpt>
      <trkpt lat="43.47235" lon="6.27996">
        <ele>218</ele>
        <time>2023-04-28T14:08:57Z</time>
      </trkpt>
      <trkpt lat="43.47235" lon="6.27997">
        <ele>218</ele>
        <time>2023-04-28T14:08:58Z</time>
      </trkpt>
      <trkpt lat="43.47234" lon="6.27997">
        <ele>218</ele>
        <time>2023-04-28T14:08:59Z</time>
      </trkpt>
      <trkpt lat="43.47233" lon="6.27998">
        <ele>219</ele>
        <time>2023-04-28T14:09:00Z</time>
      </trkpt>
      <trkpt lat="43.47232" lon="6.27998">
        <ele>219</ele>
        <time>2023-04-28T14:09:01Z</time>
      </trkpt>
      <trkpt lat="43.47231" lon="6.27999">
        <ele>219</ele>
        <time>2023-04-28T14:09:02Z</time>
      </trkpt>
      <trkpt lat="43.47229" lon="6.27999">
        <ele>219</ele>
        <time>2023-04-28T14:09:03Z</time>
      </trkpt>
      <trkpt lat="43.47229" lon="6.27999">
        <ele>219</ele>
        <time>2023-04-28T14:09:04Z</time>
      </trkpt>
      <trkpt lat="43.47228" lon="6.28">
        <ele>219</ele>
        <time>2023-04-28T14:09:05Z</time>
      </trkpt>
      <trkpt lat="43.47227" lon="6.28">
        <ele>220</ele>
        <time>2023-04-28T14:09:06Z</time>
      </trkpt>
      <trkpt lat="43.47226" lon="6.28">
        <ele>220</ele>
        <time>2023-04-28T14:09:07Z</time>
      </trkpt>
      <trkpt lat="43.47225" lon="6.28001">
        <ele>220</ele>
        <time>2023-04-28T14:09:08Z</time>
      </trkpt>
      <trkpt lat="43.47224" lon="6.28001">
        <ele>220</ele>
        <time>2023-04-28T14:09:09Z</time>
      </trkpt>
      <trkpt lat="43.47223" lon="6.28001">
        <ele>220</ele>
        <time>2023-04-28T14:09:10Z</time>
      </trkpt>
      <trkpt lat="43.47222" lon="6.28002">
        <ele>220</ele>
        <time>2023-04-28T14:09:11Z</time>
      </trkpt>
      <trkpt lat="43.47222" lon="6.28002">
        <ele>220</ele>
        <time>2023-04-28T14:09:12Z</time>
      </trkpt>
      <trkpt lat="43.47221" lon="6.28003">
        <ele>220</ele>
        <time>2023-04-28T14:09:13Z</time>
      </trkpt>
      <trkpt lat="43.4722" lon="6.28004">
        <ele>220</ele>
        <time>2023-04-28T14:09:14Z</time>
      </trkpt>
      <trkpt lat="43.4722" lon="6.28004">
        <ele>220</ele>
        <time>2023-04-28T14:09:15Z</time>
      </trkpt>
      <trkpt lat="43.47219" lon="6.28005">
        <ele>219</ele>
        <time>2023-04-28T14:09:16Z</time>
      </trkpt>
      <trkpt lat="43.47218" lon="6.28005">
        <ele>219</ele>
        <time>2023-04-28T14:09:17Z</time>
      </trkpt>
      <trkpt lat="43.47218" lon="6.28006">
        <ele>219</ele>
        <time>2023-04-28T14:09:18Z</time>
      </trkpt>
      <trkpt lat="43.47217" lon="6.28006">
        <ele>219</ele>
        <time>2023-04-28T14:09:19Z</time>
      </trkpt>
      <trkpt lat="43.47216" lon="6.28007">
        <ele>219</ele>
        <time>2023-04-28T14:09:20Z</time>
      </trkpt>
      <trkpt lat="43.47216" lon="6.28007">
        <ele>219</ele>
        <time>2023-04-28T14:09:21Z</time>
      </trkpt>
      <trkpt lat="43.47215" lon="6.28007">
        <ele>219</ele>
        <time>2023-04-28T14:09:22Z</time>
      </trkpt>
      <trkpt lat="43.47215" lon="6.28008">
        <ele>219</ele>
        <time>2023-04-28T14:09:23Z</time>
      </trkpt>
      <trkpt lat="43.47214" lon="6.28008">
        <ele>219</ele>
        <time>2023-04-28T14:09:24Z</time>
      </trkpt>
      <trkpt lat="43.47213" lon="6.28008">
        <ele>219</ele>
        <time>2023-04-28T14:09:25Z</time>
      </trkpt>
      <trkpt lat="43.47213" lon="6.28009">
        <ele>219</ele>
        <time>2023-04-28T14:09:26Z</time>
      </trkpt>
      <trkpt lat="43.47212" lon="6.28009">
        <ele>219</ele>
        <time>2023-04-28T14:09:27Z</time>
      </trkpt>
      <trkpt lat="43.47211" lon="6.2801">
        <ele>219</ele>
        <time>2023-04-28T14:09:28Z</time>
      </trkpt>
      <trkpt lat="43.47211" lon="6.2801">
        <ele>219</ele>
        <time>2023-04-28T14:09:29Z</time>
      </trkpt>
      <trkpt lat="43.4721" lon="6.28011">
        <ele>218</ele>
        <time>2023-04-28T14:09:30Z</time>
      </trkpt>
      <trkpt lat="43.47209" lon="6.28011">
        <ele>218</ele>
        <time>2023-04-28T14:09:31Z</time>
      </trkpt>
      <trkpt lat="43.47209" lon="6.28012">
        <ele>218</ele>
        <time>2023-04-28T14:09:32Z</time>
      </trkpt>
      <trkpt lat="43.47208" lon="6.28012">
        <ele>218</ele>
        <time>2023-04-28T14:09:33Z</time>
      </trkpt>
      <trkpt lat="43.47207" lon="6.28012">
        <ele>218</ele>
        <time>2023-04-28T14:09:34Z</time>
      </trkpt>
      <trkpt lat="43.47206" lon="6.28012">
        <ele>218</ele>
        <time>2023-04-28T14:09:35Z</time>
      </trkpt>
      <trkpt lat="43.47205" lon="6.28012">
        <ele>218</ele>
        <time>2023-04-28T14:09:36Z</time>
      </trkpt>
      <trkpt lat="43.47205" lon="6.28013">
        <ele>218</ele>
        <time>2023-04-28T14:09:37Z</time>
      </trkpt>
      <trkpt lat="43.47204" lon="6.28013">
        <ele>218</ele>
        <time>2023-04-28T14:09:38Z</time>
      </trkpt>
      <trkpt lat="43.47203" lon="6.28014">
        <ele>218</ele>
        <time>2023-04-28T14:09:39Z</time>
      </trkpt>
      <trkpt lat="43.47202" lon="6.28014">
        <ele>218</ele>
        <time>2023-04-28T14:09:40Z</time>
      </trkpt>
      <trkpt lat="43.47202" lon="6.28015">
        <ele>218</ele>
        <time>2023-04-28T14:09:41Z</time>
      </trkpt>
      <trkpt lat="43.47201" lon="6.28016">
        <ele>218</ele>
        <time>2023-04-28T14:09:42Z</time>
      </trkpt>
      <trkpt lat="43.47201" lon="6.28016">
        <ele>218</ele>
        <time>2023-04-28T14:09:43Z</time>
      </trkpt>
      <trkpt lat="43.472" lon="6.28017">
        <ele>218</ele>
        <time>2023-04-28T14:09:44Z</time>
      </trkpt>
      <trkpt lat="43.47199" lon="6.28017">
        <ele>218</ele>
        <time>2023-04-28T14:09:45Z</time>
      </trkpt>
      <trkpt lat="43.47199" lon="6.28017">
        <ele>218</ele>
        <time>2023-04-28T14:09:46Z</time>
      </trkpt>
      <trkpt lat="43.47198" lon="6.28017">
        <ele>218</ele>
        <time>2023-04-28T14:09:47Z</time>
      </trkpt>
      <trkpt lat="43.47197" lon="6.28018">
        <ele>219</ele>
        <time>2023-04-28T14:09:48Z</time>
      </trkpt>
      <trkpt lat="43.47196" lon="6.28018">
        <ele>219</ele>
        <time>2023-04-28T14:09:49Z</time>
      </trkpt>
      <trkpt lat="43.47196" lon="6.28018">
        <ele>219</ele>
        <time>2023-04-28T14:09:50Z</time>
      </trkpt>
      <trkpt lat="43.47195" lon="6.28019">
        <ele>219</ele>
        <time>2023-04-28T14:09:51Z</time>
      </trkpt>
      <trkpt lat="43.47194" lon="6.28019">
        <ele>219</ele>
        <time>2023-04-28T14:09:52Z</time>
      </trkpt>
      <trkpt lat="43.47193" lon="6.28019">
        <ele>219</ele>
        <time>2023-04-28T14:09:53Z</time>
      </trkpt>
      <trkpt lat="43.47192" lon="6.2802">
        <ele>219</ele>
        <time>2023-04-28T14:09:54Z</time>
      </trkpt>
      <trkpt lat="43.47192" lon="6.2802">
        <ele>220</ele>
        <time>2023-04-28T14:09:55Z</time>
      </trkpt>
      <trkpt lat="43.47191" lon="6.2802">
        <ele>221</ele>
        <time>2023-04-28T14:09:56Z</time>
      </trkpt>
      <trkpt lat="43.4719" lon="6.28021">
        <ele>222</ele>
        <time>2023-04-28T14:09:57Z</time>
      </trkpt>
      <trkpt lat="43.47189" lon="6.28021">
        <ele>222</ele>
        <time>2023-04-28T14:09:58Z</time>
      </trkpt>
      <trkpt lat="43.47189" lon="6.28021">
        <ele>223</ele>
        <time>2023-04-28T14:09:59Z</time>
      </trkpt>
      <trkpt lat="43.47188" lon="6.28021">
        <ele>224</ele>
        <time>2023-04-28T14:10:00Z</time>
      </trkpt>
      <trkpt lat="43.47187" lon="6.28022">
        <ele>225</ele>
        <time>2023-04-28T14:10:01Z</time>
      </trkpt>
      <trkpt lat="43.47186" lon="6.28022">
        <ele>225</ele>
        <time>2023-04-28T14:10:02Z</time>
      </trkpt>
      <trkpt lat="43.47185" lon="6.28022">
        <ele>225</ele>
        <time>2023-04-28T14:10:03Z</time>
      </trkpt>
      <trkpt lat="43.47185" lon="6.28023">
        <ele>225</ele>
        <time>2023-04-28T14:10:04Z</time>
      </trkpt>
      <trkpt lat="43.47184" lon="6.28023">
        <ele>225</ele>
        <time>2023-04-28T14:10:05Z</time>
      </trkpt>
      <trkpt lat="43.47183" lon="6.28023">
        <ele>225</ele>
        <time>2023-04-28T14:10:06Z</time>
      </trkpt>
      <trkpt lat="43.47182" lon="6.28024">
        <ele>226</ele>
        <time>2023-04-28T14:10:07Z</time>
      </trkpt>
      <trkpt lat="43.47181" lon="6.28024">
        <ele>226</ele>
        <time>2023-04-28T14:10:08Z</time>
      </trkpt>
      <trkpt lat="43.4718" lon="6.28024">
        <ele>226</ele>
        <time>2023-04-28T14:10:09Z</time>
      </trkpt>
      <trkpt lat="43.4718" lon="6.28025">
        <ele>226</ele>
        <time>2023-04-28T14:10:10Z</time>
      </trkpt>
      <trkpt lat="43.47179" lon="6.28025">
        <ele>226</ele>
        <time>2023-04-28T14:10:11Z</time>
      </trkpt>
      <trkpt lat="43.47178" lon="6.28026">
        <ele>226</ele>
        <time>2023-04-28T14:10:12Z</time>
      </trkpt>
      <trkpt lat="43.47178" lon="6.28026">
        <ele>227</ele>
        <time>2023-04-28T14:10:13Z</time>
      </trkpt>
      <trkpt lat="43.47177" lon="6.28027">
        <ele>227</ele>
        <time>2023-04-28T14:10:14Z</time>
      </trkpt>
      <trkpt lat="43.47177" lon="6.28028">
        <ele>227</ele>
        <time>2023-04-28T14:10:15Z</time>
      </trkpt>
      <trkpt lat="43.47176" lon="6.28028">
        <ele>227</ele>
        <time>2023-04-28T14:10:16Z</time>
      </trkpt>
      <trkpt lat="43.47176" lon="6.28029">
        <ele>227</ele>
        <time>2023-04-28T14:10:17Z</time>
      </trkpt>
      <trkpt lat="43.47175" lon="6.28029">
        <ele>227</ele>
        <time>2023-04-28T14:10:18Z</time>
      </trkpt>
      <trkpt lat="43.47174" lon="6.2803">
        <ele>227</ele>
        <time>2023-04-28T14:10:19Z</time>
      </trkpt>
      <trkpt lat="43.47174" lon="6.2803">
        <ele>227</ele>
        <time>2023-04-28T14:10:20Z</time>
      </trkpt>
      <trkpt lat="43.47173" lon="6.2803">
        <ele>227</ele>
        <time>2023-04-28T14:10:21Z</time>
      </trkpt>
      <trkpt lat="43.47172" lon="6.28031">
        <ele>227</ele>
        <time>2023-04-28T14:10:22Z</time>
      </trkpt>
      <trkpt lat="43.47172" lon="6.28031">
        <ele>227</ele>
        <time>2023-04-28T14:10:23Z</time>
      </trkpt>
      <trkpt lat="43.47171" lon="6.28031">
        <ele>227</ele>
        <time>2023-04-28T14:10:24Z</time>
      </trkpt>
      <trkpt lat="43.47171" lon="6.28032">
        <ele>227</ele>
        <time>2023-04-28T14:10:25Z</time>
      </trkpt>
      <trkpt lat="43.4717" lon="6.28032">
        <ele>227</ele>
        <time>2023-04-28T14:10:26Z</time>
      </trkpt>
      <trkpt lat="43.4717" lon="6.28032">
        <ele>227</ele>
        <time>2023-04-28T14:10:27Z</time>
      </trkpt>
      <trkpt lat="43.47169" lon="6.28033">
        <ele>227</ele>
        <time>2023-04-28T14:10:28Z</time>
      </trkpt>
      <trkpt lat="43.47169" lon="6.28033">
        <ele>227</ele>
        <time>2023-04-28T14:10:29Z</time>
      </trkpt>
      <trkpt lat="43.47169" lon="6.28033">
        <ele>227</ele>
        <time>2023-04-28T14:10:30Z</time>
      </trkpt>
      <trkpt lat="43.47169" lon="6.28033">
        <ele>227</ele>
        <time>2023-04-28T14:10:31Z</time>
      </trkpt>
      <trkpt lat="43.47169" lon="6.28033">
        <ele>227</ele>
        <time>2023-04-28T14:10:32Z</time>
      </trkpt>
      <trkpt lat="43.47169" lon="6.28033">
        <ele>228</ele>
        <time>2023-04-28T14:10:33Z</time>
      </trkpt>
      <trkpt lat="43.47168" lon="6.28033">
        <ele>228</ele>
        <time>2023-04-28T14:10:34Z</time>
      </trkpt>
      <trkpt lat="43.47168" lon="6.28033">
        <ele>228</ele>
        <time>2023-04-28T14:10:35Z</time>
      </trkpt>
      <trkpt lat="43.47168" lon="6.28034">
        <ele>228</ele>
        <time>2023-04-28T14:10:36Z</time>
      </trkpt>
      <trkpt lat="43.47167" lon="6.28034">
        <ele>228</ele>
        <time>2023-04-28T14:10:37Z</time>
      </trkpt>
      <trkpt lat="43.47167" lon="6.28034">
        <ele>228</ele>
        <time>2023-04-28T14:10:38Z</time>
      </trkpt>
      <trkpt lat="43.47167" lon="6.28034">
        <ele>228</ele>
        <time>2023-04-28T14:10:39Z</time>
      </trkpt>
      <trkpt lat="43.47167" lon="6.28034">
        <ele>228</ele>
        <time>2023-04-28T14:10:40Z</time>
      </trkpt>
      <trkpt lat="43.47167" lon="6.28034">
        <ele>228</ele>
        <time>2023-04-28T14:10:41Z</time>
      </trkpt>
      <trkpt lat="43.47167" lon="6.28034">
        <ele>228</ele>
        <time>2023-04-28T14:10:42Z</time>
      </trkpt>
      <trkpt lat="43.47167" lon="6.28033">
        <ele>228</ele>
        <time>2023-04-28T14:10:43Z</time>
      </trkpt>
      <trkpt lat="43.47167" lon="6.28033">
        <ele>228</ele>
        <time>2023-04-28T14:10:44Z</time>
      </trkpt>
      <trkpt lat="43.47167" lon="6.28032">
        <ele>228</ele>
        <time>2023-04-28T14:10:45Z</time>
      </trkpt>
      <trkpt lat="43.47168" lon="6.28032">
        <ele>228</ele>
        <time>2023-04-28T14:10:46Z</time>
      </trkpt>
      <trkpt lat="43.47168" lon="6.28032">
        <ele>228</ele>
        <time>2023-04-28T14:10:47Z</time>
      </trkpt>
      <trkpt lat="43.47168" lon="6.28032">
        <ele>228</ele>
        <time>2023-04-28T14:10:48Z</time>
      </trkpt>
      <trkpt lat="43.47168" lon="6.28032">
        <ele>228</ele>
        <time>2023-04-28T14:10:49Z</time>
      </trkpt>
      <trkpt lat="43.47168" lon="6.28031">
        <ele>228</ele>
        <time>2023-04-28T14:10:50Z</time>
      </trkpt>
      <trkpt lat="43.47168" lon="6.28031">
        <ele>228</ele>
        <time>2023-04-28T14:10:51Z</time>
      </trkpt>
      <trkpt lat="43.47168" lon="6.28032">
        <ele>228</ele>
        <time>2023-04-28T14:10:52Z</time>
      </trkpt>
      <trkpt lat="43.47168" lon="6.28032">
        <ele>228</ele>
        <time>2023-04-28T14:10:53Z</time>
      </trkpt>
      <trkpt lat="43.47168" lon="6.28033">
        <ele>228</ele>
        <time>2023-04-28T14:10:54Z</time>
      </trkpt>
      <trkpt lat="43.47167" lon="6.28034">
        <ele>229</ele>
        <time>2023-04-28T14:10:55Z</time>
      </trkpt>
      <trkpt lat="43.47167" lon="6.28036">
        <ele>229</ele>
        <time>2023-04-28T14:10:56Z</time>
      </trkpt>
      <trkpt lat="43.47167" lon="6.28037">
        <ele>229</ele>
        <time>2023-04-28T14:10:57Z</time>
      </trkpt>
      <trkpt lat="43.47166" lon="6.28038">
        <ele>229</ele>
        <time>2023-04-28T14:10:58Z</time>
      </trkpt>
      <trkpt lat="43.47166" lon="6.28039">
        <ele>229</ele>
        <time>2023-04-28T14:10:59Z</time>
      </trkpt>
      <trkpt lat="43.47166" lon="6.28039">
        <ele>231</ele>
        <time>2023-04-28T14:11:00Z</time>
      </trkpt>
      <trkpt lat="43.47166" lon="6.2804">
        <ele>230</ele>
        <time>2023-04-28T14:11:01Z</time>
      </trkpt>
      <trkpt lat="43.47166" lon="6.2804">
        <ele>230</ele>
        <time>2023-04-28T14:11:02Z</time>
      </trkpt>
      <trkpt lat="43.47166" lon="6.28041">
        <ele>230</ele>
        <time>2023-04-28T14:11:03Z</time>
      </trkpt>
      <trkpt lat="43.47166" lon="6.28042">
        <ele>230</ele>
        <time>2023-04-28T14:11:04Z</time>
      </trkpt>
      <trkpt lat="43.47166" lon="6.28042">
        <ele>230</ele>
        <time>2023-04-28T14:11:05Z</time>
      </trkpt>
      <trkpt lat="43.47165" lon="6.28043">
        <ele>230</ele>
        <time>2023-04-28T14:11:06Z</time>
      </trkpt>
      <trkpt lat="43.47165" lon="6.28044">
        <ele>230</ele>
        <time>2023-04-28T14:11:07Z</time>
      </trkpt>
      <trkpt lat="43.47164" lon="6.28045">
        <ele>230</ele>
        <time>2023-04-28T14:11:08Z</time>
      </trkpt>
      <trkpt lat="43.47163" lon="6.28045">
        <ele>230</ele>
        <time>2023-04-28T14:11:09Z</time>
      </trkpt>
      <trkpt lat="43.47162" lon="6.28046">
        <ele>230</ele>
        <time>2023-04-28T14:11:10Z</time>
      </trkpt>
      <trkpt lat="43.47162" lon="6.28047">
        <ele>230</ele>
        <time>2023-04-28T14:11:11Z</time>
      </trkpt>
      <trkpt lat="43.47161" lon="6.28047">
        <ele>230</ele>
        <time>2023-04-28T14:11:12Z</time>
      </trkpt>
      <trkpt lat="43.47161" lon="6.28047">
        <ele>230</ele>
        <time>2023-04-28T14:11:13Z</time>
      </trkpt>
      <trkpt lat="43.4716" lon="6.28048">
        <ele>230</ele>
        <time>2023-04-28T14:11:14Z</time>
      </trkpt>
      <trkpt lat="43.4716" lon="6.28049">
        <ele>230</ele>
        <time>2023-04-28T14:11:15Z</time>
      </trkpt>
      <trkpt lat="43.47159" lon="6.28049">
        <ele>230</ele>
        <time>2023-04-28T14:11:16Z</time>
      </trkpt>
      <trkpt lat="43.47158" lon="6.2805">
        <ele>230</ele>
        <time>2023-04-28T14:11:17Z</time>
      </trkpt>
      <trkpt lat="43.47158" lon="6.28051">
        <ele>230</ele>
        <time>2023-04-28T14:11:18Z</time>
      </trkpt>
      <trkpt lat="43.47157" lon="6.28052">
        <ele>230</ele>
        <time>2023-04-28T14:11:19Z</time>
      </trkpt>
      <trkpt lat="43.47156" lon="6.28053">
        <ele>230</ele>
        <time>2023-04-28T14:11:20Z</time>
      </trkpt>
      <trkpt lat="43.47155" lon="6.28054">
        <ele>230</ele>
        <time>2023-04-28T14:11:21Z</time>
      </trkpt>
      <trkpt lat="43.47155" lon="6.28055">
        <ele>230</ele>
        <time>2023-04-28T14:11:22Z</time>
      </trkpt>
      <trkpt lat="43.47154" lon="6.28056">
        <ele>230</ele>
        <time>2023-04-28T14:11:23Z</time>
      </trkpt>
      <trkpt lat="43.47154" lon="6.28056">
        <ele>230</ele>
        <time>2023-04-28T14:11:24Z</time>
      </trkpt>
      <trkpt lat="43.47153" lon="6.28057">
        <ele>230</ele>
        <time>2023-04-28T14:11:25Z</time>
      </trkpt>
      <trkpt lat="43.47153" lon="6.28058">
        <ele>230</ele>
        <time>2023-04-28T14:11:26Z</time>
      </trkpt>
      <trkpt lat="43.47153" lon="6.28058">
        <ele>230</ele>
        <time>2023-04-28T14:11:27Z</time>
      </trkpt>
      <trkpt lat="43.47152" lon="6.28059">
        <ele>231</ele>
        <time>2023-04-28T14:11:28Z</time>
      </trkpt>
      <trkpt lat="43.47152" lon="6.28061">
        <ele>231</ele>
        <time>2023-04-28T14:11:29Z</time>
      </trkpt>
      <trkpt lat="43.47151" lon="6.28062">
        <ele>231</ele>
        <time>2023-04-28T14:11:30Z</time>
      </trkpt>
      <trkpt lat="43.47151" lon="6.28063">
        <ele>231</ele>
        <time>2023-04-28T14:11:31Z</time>
      </trkpt>
      <trkpt lat="43.4715" lon="6.28065">
        <ele>231</ele>
        <time>2023-04-28T14:11:32Z</time>
      </trkpt>
      <trkpt lat="43.4715" lon="6.28066">
        <ele>233</ele>
        <time>2023-04-28T14:11:33Z</time>
      </trkpt>
      <trkpt lat="43.4715" lon="6.28067">
        <ele>233</ele>
        <time>2023-04-28T14:11:34Z</time>
      </trkpt>
      <trkpt lat="43.4715" lon="6.28067">
        <ele>233</ele>
        <time>2023-04-28T14:11:35Z</time>
      </trkpt>
      <trkpt lat="43.47149" lon="6.28068">
        <ele>233</ele>
        <time>2023-04-28T14:11:36Z</time>
      </trkpt>
      <trkpt lat="43.47149" lon="6.28069">
        <ele>234</ele>
        <time>2023-04-28T14:11:37Z</time>
      </trkpt>
      <trkpt lat="43.47148" lon="6.2807">
        <ele>234</ele>
        <time>2023-04-28T14:11:38Z</time>
      </trkpt>
      <trkpt lat="43.47148" lon="6.28072">
        <ele>234</ele>
        <time>2023-04-28T14:11:39Z</time>
      </trkpt>
      <trkpt lat="43.47147" lon="6.28073">
        <ele>234</ele>
        <time>2023-04-28T14:11:40Z</time>
      </trkpt>
      <trkpt lat="43.47147" lon="6.28073">
        <ele>234</ele>
        <time>2023-04-28T14:11:41Z</time>
      </trkpt>
      <trkpt lat="43.47147" lon="6.28073">
        <ele>234</ele>
        <time>2023-04-28T14:11:42Z</time>
      </trkpt>
      <trkpt lat="43.47147" lon="6.28074">
        <ele>234</ele>
        <time>2023-04-28T14:11:43Z</time>
      </trkpt>
      <trkpt lat="43.47147" lon="6.28074">
        <ele>234</ele>
        <time>2023-04-28T14:11:44Z</time>
      </trkpt>
      <trkpt lat="43.47146" lon="6.28075">
        <ele>234</ele>
        <time>2023-04-28T14:11:45Z</time>
      </trkpt>
      <trkpt lat="43.47146" lon="6.28076">
        <ele>235</ele>
        <time>2023-04-28T14:11:46Z</time>
      </trkpt>
      <trkpt lat="43.47145" lon="6.28077">
        <ele>235</ele>
        <time>2023-04-28T14:11:47Z</time>
      </trkpt>
      <trkpt lat="43.47145" lon="6.28078">
        <ele>236</ele>
        <time>2023-04-28T14:11:48Z</time>
      </trkpt>
      <trkpt lat="43.47144" lon="6.28078">
        <ele>236</ele>
        <time>2023-04-28T14:11:49Z</time>
      </trkpt>
      <trkpt lat="43.47144" lon="6.28079">
        <ele>236</ele>
        <time>2023-04-28T14:11:50Z</time>
      </trkpt>
      <trkpt lat="43.47144" lon="6.2808">
        <ele>236</ele>
        <time>2023-04-28T14:11:51Z</time>
      </trkpt>
      <trkpt lat="43.47143" lon="6.28081">
        <ele>236</ele>
        <time>2023-04-28T14:11:52Z</time>
      </trkpt>
      <trkpt lat="43.47143" lon="6.28082">
        <ele>238</ele>
        <time>2023-04-28T14:11:53Z</time>
      </trkpt>
      <trkpt lat="43.47143" lon="6.28083">
        <ele>238</ele>
        <time>2023-04-28T14:11:54Z</time>
      </trkpt>
      <trkpt lat="43.47142" lon="6.28083">
        <ele>238</ele>
        <time>2023-04-28T14:11:55Z</time>
      </trkpt>
      <trkpt lat="43.47142" lon="6.28084">
        <ele>238</ele>
        <time>2023-04-28T14:11:56Z</time>
      </trkpt>
      <trkpt lat="43.47142" lon="6.28084">
        <ele>238</ele>
        <time>2023-04-28T14:11:57Z</time>
      </trkpt>
      <trkpt lat="43.47142" lon="6.28085">
        <ele>238</ele>
        <time>2023-04-28T14:11:58Z</time>
      </trkpt>
      <trkpt lat="43.47142" lon="6.28085">
        <ele>238</ele>
        <time>2023-04-28T14:11:59Z</time>
      </trkpt>
      <trkpt lat="43.47141" lon="6.28086">
        <ele>238</ele>
        <time>2023-04-28T14:12:00Z</time>
      </trkpt>
      <trkpt lat="43.4714" lon="6.28088">
        <ele>238</ele>
        <time>2023-04-28T14:12:01Z</time>
      </trkpt>
      <trkpt lat="43.4714" lon="6.28089">
        <ele>238</ele>
        <time>2023-04-28T14:12:02Z</time>
      </trkpt>
      <trkpt lat="43.4714" lon="6.2809">
        <ele>238</ele>
        <time>2023-04-28T14:12:03Z</time>
      </trkpt>
      <trkpt lat="43.47139" lon="6.2809">
        <ele>238</ele>
        <time>2023-04-28T14:12:04Z</time>
      </trkpt>
      <trkpt lat="43.47139" lon="6.28091">
        <ele>238</ele>
        <time>2023-04-28T14:12:05Z</time>
      </trkpt>
      <trkpt lat="43.47139" lon="6.28091">
        <ele>238</ele>
        <time>2023-04-28T14:12:06Z</time>
      </trkpt>
      <trkpt lat="43.47139" lon="6.28091">
        <ele>238</ele>
        <time>2023-04-28T14:12:07Z</time>
      </trkpt>
      <trkpt lat="43.47139" lon="6.28092">
        <ele>238</ele>
        <time>2023-04-28T14:12:08Z</time>
      </trkpt>
      <trkpt lat="43.47139" lon="6.28092">
        <ele>238</ele>
        <time>2023-04-28T14:12:09Z</time>
      </trkpt>
      <trkpt lat="43.47139" lon="6.28092">
        <ele>238</ele>
        <time>2023-04-28T14:12:10Z</time>
      </trkpt>
      <trkpt lat="43.47139" lon="6.28092">
        <ele>238</ele>
        <time>2023-04-28T14:12:11Z</time>
      </trkpt>
      <trkpt lat="43.47139" lon="6.28092">
        <ele>238</ele>
        <time>2023-04-28T14:12:12Z</time>
      </trkpt>
      <trkpt lat="43.47139" lon="6.28092">
        <ele>238</ele>
        <time>2023-04-28T14:12:13Z</time>
      </trkpt>
      <trkpt lat="43.47138" lon="6.28095">
        <ele>237</ele>
        <time>2023-04-28T14:12:14Z</time>
      </trkpt>
      <trkpt lat="43.47138" lon="6.28097">
        <ele>237</ele>
        <time>2023-04-28T14:12:15Z</time>
      </trkpt>
      <trkpt lat="43.47138" lon="6.28098">
        <ele>237</ele>
        <time>2023-04-28T14:12:16Z</time>
      </trkpt>
      <trkpt lat="43.47138" lon="6.28099">
        <ele>237</ele>
        <time>2023-04-28T14:12:17Z</time>
      </trkpt>
      <trkpt lat="43.47138" lon="6.28101">
        <ele>237</ele>
        <time>2023-04-28T14:12:18Z</time>
      </trkpt>
      <trkpt lat="43.47138" lon="6.28102">
        <ele>237</ele>
        <time>2023-04-28T14:12:19Z</time>
      </trkpt>
      <trkpt lat="43.47138" lon="6.28103">
        <ele>237</ele>
        <time>2023-04-28T14:12:20Z</time>
      </trkpt>
      <trkpt lat="43.47138" lon="6.28104">
        <ele>237</ele>
        <time>2023-04-28T14:12:21Z</time>
      </trkpt>
      <trkpt lat="43.47138" lon="6.28106">
        <ele>237</ele>
        <time>2023-04-28T14:12:22Z</time>
      </trkpt>
      <trkpt lat="43.47138" lon="6.28106">
        <ele>237</ele>
        <time>2023-04-28T14:12:23Z</time>
      </trkpt>
      <trkpt lat="43.47138" lon="6.28106">
        <ele>237</ele>
        <time>2023-04-28T14:12:24Z</time>
      </trkpt>
      <trkpt lat="43.47138" lon="6.28106">
        <ele>237</ele>
        <time>2023-04-28T14:12:25Z</time>
      </trkpt>
      <trkpt lat="43.47138" lon="6.28106">
        <ele>237</ele>
        <time>2023-04-28T14:12:26Z</time>
      </trkpt>
      <trkpt lat="43.47138" lon="6.28106">
        <ele>237</ele>
        <time>2023-04-28T14:12:27Z</time>
      </trkpt>
      <trkpt lat="43.47138" lon="6.28106">
        <ele>237</ele>
        <time>2023-04-28T14:12:28Z</time>
      </trkpt>
      <trkpt lat="43.47138" lon="6.28106">
        <ele>237</ele>
        <time>2023-04-28T14:12:29Z</time>
      </trkpt>
      <trkpt lat="43.47138" lon="6.28106">
        <ele>237</ele>
        <time>2023-04-28T14:12:30Z</time>
      </trkpt>
      <trkpt lat="43.47138" lon="6.28106">
        <ele>237</ele>
        <time>2023-04-28T14:12:31Z</time>
      </trkpt>
      <trkpt lat="43.47138" lon="6.28106">
        <ele>237</ele>
        <time>2023-04-28T14:12:32Z</time>
      </trkpt>
      <trkpt lat="43.47138" lon="6.28114">
        <ele>237</ele>
        <time>2023-04-28T14:12:33Z</time>
      </trkpt>
      <trkpt lat="43.47138" lon="6.28115">
        <ele>237</ele>
        <time>2023-04-28T14:12:34Z</time>
      </trkpt>
      <trkpt lat="43.47138" lon="6.28115">
        <ele>237</ele>
        <time>2023-04-28T14:12:35Z</time>
      </trkpt>
      <trkpt lat="43.47138" lon="6.28115">
        <ele>237</ele>
        <time>2023-04-28T14:12:36Z</time>
      </trkpt>
      <trkpt lat="43.47138" lon="6.28116">
        <ele>237</ele>
        <time>2023-04-28T14:12:37Z</time>
      </trkpt>
      <trkpt lat="43.47138" lon="6.28116">
        <ele>237</ele>
        <time>2023-04-28T14:12:38Z</time>
      </trkpt>
      <trkpt lat="43.47138" lon="6.28116">
        <ele>237</ele>
        <time>2023-04-28T14:12:39Z</time>
      </trkpt>
      <trkpt lat="43.47138" lon="6.28116">
        <ele>237</ele>
        <time>2023-04-28T14:12:40Z</time>
      </trkpt>
      <trkpt lat="43.47138" lon="6.28116">
        <ele>237</ele>
        <time>2023-04-28T14:12:41Z</time>
      </trkpt>
      <trkpt lat="43.47138" lon="6.28116">
        <ele>237</ele>
        <time>2023-04-28T14:12:42Z</time>
      </trkpt>
      <trkpt lat="43.47138" lon="6.28117">
        <ele>237</ele>
        <time>2023-04-28T14:12:43Z</time>
      </trkpt>
      <trkpt lat="43.47138" lon="6.28117">
        <ele>237</ele>
        <time>2023-04-28T14:12:44Z</time>
      </trkpt>
      <trkpt lat="43.47138" lon="6.28117">
        <ele>237</ele>
        <time>2023-04-28T14:12:45Z</time>
      </trkpt>
      <trkpt lat="43.47138" lon="6.28117">
        <ele>237</ele>
        <time>2023-04-28T14:12:46Z</time>
      </trkpt>
      <trkpt lat="43.47138" lon="6.28117">
        <ele>237</ele>
        <time>2023-04-28T14:12:47Z</time>
      </trkpt>
      <trkpt lat="43.47137" lon="6.28117">
        <ele>237</ele>
        <time>2023-04-28T14:12:48Z</time>
      </trkpt>
      <trkpt lat="43.47137" lon="6.28118">
        <ele>237</ele>
        <time>2023-04-28T14:12:49Z</time>
      </trkpt>
      <trkpt lat="43.47137" lon="6.28118">
        <ele>237</ele>
        <time>2023-04-28T14:12:50Z</time>
      </trkpt>
      <trkpt lat="43.47137" lon="6.28119">
        <ele>237</ele>
        <time>2023-04-28T14:12:51Z</time>
      </trkpt>
      <trkpt lat="43.47138" lon="6.28119">
        <ele>237</ele>
        <time>2023-04-28T14:12:52Z</time>
      </trkpt>
      <trkpt lat="43.47138" lon="6.2812">
        <ele>237</ele>
        <time>2023-04-28T14:12:53Z</time>
      </trkpt>
      <trkpt lat="43.47138" lon="6.28121">
        <ele>237</ele>
        <time>2023-04-28T14:12:54Z</time>
      </trkpt>
      <trkpt lat="43.47137" lon="6.28123">
        <ele>237</ele>
        <time>2023-04-28T14:12:55Z</time>
      </trkpt>
      <trkpt lat="43.47137" lon="6.28124">
        <ele>237</ele>
        <time>2023-04-28T14:12:56Z</time>
      </trkpt>
      <trkpt lat="43.47137" lon="6.28125">
        <ele>237</ele>
        <time>2023-04-28T14:12:57Z</time>
      </trkpt>
      <trkpt lat="43.47137" lon="6.28126">
        <ele>237</ele>
        <time>2023-04-28T14:12:58Z</time>
      </trkpt>
      <trkpt lat="43.47137" lon="6.28127">
        <ele>236</ele>
        <time>2023-04-28T14:12:59Z</time>
      </trkpt>
      <trkpt lat="43.47138" lon="6.28127">
        <ele>235</ele>
        <time>2023-04-28T14:13:00Z</time>
      </trkpt>
      <trkpt lat="43.47138" lon="6.28128">
        <ele>235</ele>
        <time>2023-04-28T14:13:01Z</time>
      </trkpt>
      <trkpt lat="43.47138" lon="6.28129">
        <ele>235</ele>
        <time>2023-04-28T14:13:02Z</time>
      </trkpt>
      <trkpt lat="43.47138" lon="6.2813">
        <ele>235</ele>
        <time>2023-04-28T14:13:03Z</time>
      </trkpt>
      <trkpt lat="43.47138" lon="6.28131">
        <ele>235</ele>
        <time>2023-04-28T14:13:04Z</time>
      </trkpt>
      <trkpt lat="43.47139" lon="6.28133">
        <ele>235</ele>
        <time>2023-04-28T14:13:05Z</time>
      </trkpt>
      <trkpt lat="43.47139" lon="6.28134">
        <ele>235</ele>
        <time>2023-04-28T14:13:06Z</time>
      </trkpt>
      <trkpt lat="43.4714" lon="6.28135">
        <ele>235</ele>
        <time>2023-04-28T14:13:07Z</time>
      </trkpt>
      <trkpt lat="43.4714" lon="6.28136">
        <ele>235</ele>
        <time>2023-04-28T14:13:08Z</time>
      </trkpt>
      <trkpt lat="43.4714" lon="6.28137">
        <ele>235</ele>
        <time>2023-04-28T14:13:09Z</time>
      </trkpt>
      <trkpt lat="43.4714" lon="6.28137">
        <ele>235</ele>
        <time>2023-04-28T14:13:10Z</time>
      </trkpt>
      <trkpt lat="43.4714" lon="6.28138">
        <ele>235</ele>
        <time>2023-04-28T14:13:11Z</time>
      </trkpt>
      <trkpt lat="43.4714" lon="6.28138">
        <ele>235</ele>
        <time>2023-04-28T14:13:12Z</time>
      </trkpt>
      <trkpt lat="43.4714" lon="6.28138">
        <ele>235</ele>
        <time>2023-04-28T14:13:13Z</time>
      </trkpt>
      <trkpt lat="43.4714" lon="6.28139">
        <ele>235</ele>
        <time>2023-04-28T14:13:14Z</time>
      </trkpt>
      <trkpt lat="43.47141" lon="6.28139">
        <ele>235</ele>
        <time>2023-04-28T14:13:15Z</time>
      </trkpt>
      <trkpt lat="43.47141" lon="6.28139">
        <ele>237</ele>
        <time>2023-04-28T14:13:16Z</time>
      </trkpt>
      <trkpt lat="43.47141" lon="6.2814">
        <ele>237</ele>
        <time>2023-04-28T14:13:17Z</time>
      </trkpt>
      <trkpt lat="43.47142" lon="6.2814">
        <ele>237</ele>
        <time>2023-04-28T14:13:18Z</time>
      </trkpt>
      <trkpt lat="43.47142" lon="6.2814">
        <ele>237</ele>
        <time>2023-04-28T14:13:19Z</time>
      </trkpt>
      <trkpt lat="43.47143" lon="6.2814">
        <ele>237</ele>
        <time>2023-04-28T14:13:20Z</time>
      </trkpt>
      <trkpt lat="43.47143" lon="6.2814">
        <ele>237</ele>
        <time>2023-04-28T14:13:21Z</time>
      </trkpt>
      <trkpt lat="43.47143" lon="6.2814">
        <ele>237</ele>
        <time>2023-04-28T14:13:22Z</time>
      </trkpt>
      <trkpt lat="43.47143" lon="6.28141">
        <ele>237</ele>
        <time>2023-04-28T14:13:23Z</time>
      </trkpt>
      <trkpt lat="43.47144" lon="6.28141">
        <ele>237</ele>
        <time>2023-04-28T14:13:24Z</time>
      </trkpt>
      <trkpt lat="43.47144" lon="6.28141">
        <ele>237</ele>
        <time>2023-04-28T14:13:25Z</time>
      </trkpt>
      <trkpt lat="43.47144" lon="6.28141">
        <ele>237</ele>
        <time>2023-04-28T14:13:26Z</time>
      </trkpt>
      <trkpt lat="43.47144" lon="6.28141">
        <ele>237</ele>
        <time>2023-04-28T14:13:27Z</time>
      </trkpt>
      <trkpt lat="43.47144" lon="6.28141">
        <ele>237</ele>
        <time>2023-04-28T14:13:28Z</time>
      </trkpt>
      <trkpt lat="43.47144" lon="6.28141">
        <ele>237</ele>
        <time>2023-04-28T14:13:29Z</time>
      </trkpt>
      <trkpt lat="43.47144" lon="6.28141">
        <ele>237</ele>
        <time>2023-04-28T14:13:30Z</time>
      </trkpt>
      <trkpt lat="43.47144" lon="6.28141">
        <ele>238</ele>
        <time>2023-04-28T14:13:31Z</time>
      </trkpt>
      <trkpt lat="43.47143" lon="6.28141">
        <ele>238</ele>
        <time>2023-04-28T14:13:32Z</time>
      </trkpt>
      <trkpt lat="43.47143" lon="6.28142">
        <ele>238</ele>
        <time>2023-04-28T14:13:33Z</time>
      </trkpt>
      <trkpt lat="43.47143" lon="6.28142">
        <ele>238</ele>
        <time>2023-04-28T14:13:34Z</time>
      </trkpt>
      <trkpt lat="43.47142" lon="6.28142">
        <ele>238</ele>
        <time>2023-04-28T14:13:35Z</time>
      </trkpt>
      <trkpt lat="43.47142" lon="6.28142">
        <ele>238</ele>
        <time>2023-04-28T14:13:36Z</time>
      </trkpt>
      <trkpt lat="43.47141" lon="6.28142">
        <ele>238</ele>
        <time>2023-04-28T14:13:37Z</time>
      </trkpt>
      <trkpt lat="43.47141" lon="6.28142">
        <ele>238</ele>
        <time>2023-04-28T14:13:38Z</time>
      </trkpt>
      <trkpt lat="43.4714" lon="6.28142">
        <ele>238</ele>
        <time>2023-04-28T14:13:39Z</time>
      </trkpt>
      <trkpt lat="43.4714" lon="6.28142">
        <ele>239</ele>
        <time>2023-04-28T14:13:40Z</time>
      </trkpt>
      <trkpt lat="43.47139" lon="6.28143">
        <ele>239</ele>
        <time>2023-04-28T14:13:41Z</time>
      </trkpt>
      <trkpt lat="43.47139" lon="6.28143">
        <ele>239</ele>
        <time>2023-04-28T14:13:42Z</time>
      </trkpt>
      <trkpt lat="43.47138" lon="6.28143">
        <ele>239</ele>
        <time>2023-04-28T14:13:43Z</time>
      </trkpt>
      <trkpt lat="43.47137" lon="6.28143">
        <ele>239</ele>
        <time>2023-04-28T14:13:44Z</time>
      </trkpt>
      <trkpt lat="43.47137" lon="6.28144">
        <ele>239</ele>
        <time>2023-04-28T14:13:45Z</time>
      </trkpt>
      <trkpt lat="43.47136" lon="6.28144">
        <ele>240</ele>
        <time>2023-04-28T14:13:46Z</time>
      </trkpt>
      <trkpt lat="43.47136" lon="6.28144">
        <ele>240</ele>
        <time>2023-04-28T14:13:47Z</time>
      </trkpt>
      <trkpt lat="43.47135" lon="6.28145">
        <ele>240</ele>
        <time>2023-04-28T14:13:48Z</time>
      </trkpt>
      <trkpt lat="43.47135" lon="6.28145">
        <ele>240</ele>
        <time>2023-04-28T14:13:49Z</time>
      </trkpt>
      <trkpt lat="43.47134" lon="6.28145">
        <ele>240</ele>
        <time>2023-04-28T14:13:50Z</time>
      </trkpt>
      <trkpt lat="43.47133" lon="6.28146">
        <ele>245</ele>
        <time>2023-04-28T14:13:51Z</time>
      </trkpt>
      <trkpt lat="43.47133" lon="6.28146">
        <ele>247</ele>
        <time>2023-04-28T14:13:52Z</time>
      </trkpt>
      <trkpt lat="43.47132" lon="6.28146">
        <ele>248</ele>
        <time>2023-04-28T14:13:53Z</time>
      </trkpt>
      <trkpt lat="43.47132" lon="6.28147">
        <ele>248</ele>
        <time>2023-04-28T14:13:54Z</time>
      </trkpt>
      <trkpt lat="43.47131" lon="6.28148">
        <ele>249</ele>
        <time>2023-04-28T14:13:55Z</time>
      </trkpt>
      <trkpt lat="43.47131" lon="6.28148">
        <ele>249</ele>
        <time>2023-04-28T14:13:56Z</time>
      </trkpt>
      <trkpt lat="43.4713" lon="6.28149">
        <ele>249</ele>
        <time>2023-04-28T14:13:57Z</time>
      </trkpt>
      <trkpt lat="43.4713" lon="6.28149">
        <ele>250</ele>
        <time>2023-04-28T14:13:58Z</time>
      </trkpt>
      <trkpt lat="43.47129" lon="6.2815">
        <ele>250</ele>
        <time>2023-04-28T14:13:59Z</time>
      </trkpt>
      <trkpt lat="43.47129" lon="6.28151">
        <ele>251</ele>
        <time>2023-04-28T14:14:00Z</time>
      </trkpt>
      <trkpt lat="43.47128" lon="6.28151">
        <ele>251</ele>
        <time>2023-04-28T14:14:01Z</time>
      </trkpt>
      <trkpt lat="43.47128" lon="6.28151">
        <ele>251</ele>
        <time>2023-04-28T14:14:02Z</time>
      </trkpt>
      <trkpt lat="43.47127" lon="6.28152">
        <ele>250</ele>
        <time>2023-04-28T14:14:03Z</time>
      </trkpt>
      <trkpt lat="43.47127" lon="6.28153">
        <ele>250</ele>
        <time>2023-04-28T14:14:04Z</time>
      </trkpt>
      <trkpt lat="43.47127" lon="6.28153">
        <ele>250</ele>
        <time>2023-04-28T14:14:05Z</time>
      </trkpt>
      <trkpt lat="43.47126" lon="6.28154">
        <ele>250</ele>
        <time>2023-04-28T14:14:06Z</time>
      </trkpt>
      <trkpt lat="43.47126" lon="6.28155">
        <ele>250</ele>
        <time>2023-04-28T14:14:07Z</time>
      </trkpt>
      <trkpt lat="43.47126" lon="6.28155">
        <ele>250</ele>
        <time>2023-04-28T14:14:08Z</time>
      </trkpt>
      <trkpt lat="43.47125" lon="6.28156">
        <ele>250</ele>
        <time>2023-04-28T14:14:09Z</time>
      </trkpt>
      <trkpt lat="43.47125" lon="6.28156">
        <ele>250</ele>
        <time>2023-04-28T14:14:10Z</time>
      </trkpt>
      <trkpt lat="43.47125" lon="6.28157">
        <ele>250</ele>
        <time>2023-04-28T14:14:11Z</time>
      </trkpt>
      <trkpt lat="43.47125" lon="6.28157">
        <ele>250</ele>
        <time>2023-04-28T14:14:12Z</time>
      </trkpt>
      <trkpt lat="43.47124" lon="6.28158">
        <ele>250</ele>
        <time>2023-04-28T14:14:13Z</time>
      </trkpt>
      <trkpt lat="43.47124" lon="6.28158">
        <ele>249</ele>
        <time>2023-04-28T14:14:14Z</time>
      </trkpt>
      <trkpt lat="43.47123" lon="6.28159">
        <ele>249</ele>
        <time>2023-04-28T14:14:15Z</time>
      </trkpt>
      <trkpt lat="43.47123" lon="6.28159">
        <ele>248</ele>
        <time>2023-04-28T14:14:16Z</time>
      </trkpt>
      <trkpt lat="43.47122" lon="6.2816">
        <ele>248</ele>
        <time>2023-04-28T14:14:17Z</time>
      </trkpt>
      <trkpt lat="43.47122" lon="6.2816">
        <ele>248</ele>
        <time>2023-04-28T14:14:18Z</time>
      </trkpt>
      <trkpt lat="43.47121" lon="6.28161">
        <ele>248</ele>
        <time>2023-04-28T14:14:19Z</time>
      </trkpt>
      <trkpt lat="43.47121" lon="6.28161">
        <ele>248</ele>
        <time>2023-04-28T14:14:20Z</time>
      </trkpt>
      <trkpt lat="43.4712" lon="6.28162">
        <ele>248</ele>
        <time>2023-04-28T14:14:21Z</time>
      </trkpt>
      <trkpt lat="43.4712" lon="6.28163">
        <ele>248</ele>
        <time>2023-04-28T14:14:22Z</time>
      </trkpt>
      <trkpt lat="43.47119" lon="6.28163">
        <ele>248</ele>
        <time>2023-04-28T14:14:23Z</time>
      </trkpt>
      <trkpt lat="43.47119" lon="6.28164">
        <ele>248</ele>
        <time>2023-04-28T14:14:24Z</time>
      </trkpt>
      <trkpt lat="43.47118" lon="6.28165">
        <ele>248</ele>
        <time>2023-04-28T14:14:25Z</time>
      </trkpt>
      <trkpt lat="43.47117" lon="6.28165">
        <ele>248</ele>
        <time>2023-04-28T14:14:26Z</time>
      </trkpt>
      <trkpt lat="43.47117" lon="6.28166">
        <ele>248</ele>
        <time>2023-04-28T14:14:27Z</time>
      </trkpt>
      <trkpt lat="43.47116" lon="6.28166">
        <ele>248</ele>
        <time>2023-04-28T14:14:28Z</time>
      </trkpt>
      <trkpt lat="43.47116" lon="6.28166">
        <ele>248</ele>
        <time>2023-04-28T14:14:29Z</time>
      </trkpt>
      <trkpt lat="43.47115" lon="6.28167">
        <ele>247</ele>
        <time>2023-04-28T14:14:30Z</time>
      </trkpt>
      <trkpt lat="43.47114" lon="6.28167">
        <ele>247</ele>
        <time>2023-04-28T14:14:31Z</time>
      </trkpt>
      <trkpt lat="43.47114" lon="6.28168">
        <ele>247</ele>
        <time>2023-04-28T14:14:32Z</time>
      </trkpt>
      <trkpt lat="43.47113" lon="6.28168">
        <ele>247</ele>
        <time>2023-04-28T14:14:33Z</time>
      </trkpt>
      <trkpt lat="43.47113" lon="6.28169">
        <ele>247</ele>
        <time>2023-04-28T14:14:34Z</time>
      </trkpt>
      <trkpt lat="43.47112" lon="6.28169">
        <ele>247</ele>
        <time>2023-04-28T14:14:35Z</time>
      </trkpt>
      <trkpt lat="43.47111" lon="6.2817">
        <ele>247</ele>
        <time>2023-04-28T14:14:36Z</time>
      </trkpt>
      <trkpt lat="43.47111" lon="6.2817">
        <ele>247</ele>
        <time>2023-04-28T14:14:37Z</time>
      </trkpt>
      <trkpt lat="43.4711" lon="6.28171">
        <ele>247</ele>
        <time>2023-04-28T14:14:38Z</time>
      </trkpt>
      <trkpt lat="43.4711" lon="6.28171">
        <ele>247</ele>
        <time>2023-04-28T14:14:39Z</time>
      </trkpt>
      <trkpt lat="43.47109" lon="6.28172">
        <ele>247</ele>
        <time>2023-04-28T14:14:40Z</time>
      </trkpt>
      <trkpt lat="43.47108" lon="6.28172">
        <ele>245</ele>
        <time>2023-04-28T14:14:41Z</time>
      </trkpt>
      <trkpt lat="43.47108" lon="6.28172">
        <ele>245</ele>
        <time>2023-04-28T14:14:42Z</time>
      </trkpt>
      <trkpt lat="43.47107" lon="6.28173">
        <ele>245</ele>
        <time>2023-04-28T14:14:43Z</time>
      </trkpt>
      <trkpt lat="43.47107" lon="6.28173">
        <ele>245</ele>
        <time>2023-04-28T14:14:44Z</time>
      </trkpt>
      <trkpt lat="43.47107" lon="6.28173">
        <ele>245</ele>
        <time>2023-04-28T14:14:45Z</time>
      </trkpt>
      <trkpt lat="43.47106" lon="6.28174">
        <ele>245</ele>
        <time>2023-04-28T14:14:46Z</time>
      </trkpt>
      <trkpt lat="43.47106" lon="6.28174">
        <ele>245</ele>
        <time>2023-04-28T14:14:47Z</time>
      </trkpt>
      <trkpt lat="43.47105" lon="6.28174">
        <ele>245</ele>
        <time>2023-04-28T14:14:48Z</time>
      </trkpt>
      <trkpt lat="43.47105" lon="6.28175">
        <ele>245</ele>
        <time>2023-04-28T14:14:49Z</time>
      </trkpt>
      <trkpt lat="43.47104" lon="6.28175">
        <ele>245</ele>
        <time>2023-04-28T14:14:50Z</time>
      </trkpt>
      <trkpt lat="43.47104" lon="6.28175">
        <ele>245</ele>
        <time>2023-04-28T14:14:51Z</time>
      </trkpt>
      <trkpt lat="43.47103" lon="6.28176">
        <ele>245</ele>
        <time>2023-04-28T14:14:52Z</time>
      </trkpt>
      <trkpt lat="43.47103" lon="6.28176">
        <ele>245</ele>
        <time>2023-04-28T14:14:53Z</time>
      </trkpt>
      <trkpt lat="43.47102" lon="6.28176">
        <ele>245</ele>
        <time>2023-04-28T14:14:54Z</time>
      </trkpt>
      <trkpt lat="43.47102" lon="6.28177">
        <ele>245</ele>
        <time>2023-04-28T14:14:55Z</time>
      </trkpt>
      <trkpt lat="43.47101" lon="6.28177">
        <ele>245</ele>
        <time>2023-04-28T14:14:56Z</time>
      </trkpt>
      <trkpt lat="43.471" lon="6.28177">
        <ele>245</ele>
        <time>2023-04-28T14:14:57Z</time>
      </trkpt>
      <trkpt lat="43.471" lon="6.28178">
        <ele>245</ele>
        <time>2023-04-28T14:14:58Z</time>
      </trkpt>
      <trkpt lat="43.47099" lon="6.28178">
        <ele>245</ele>
        <time>2023-04-28T14:14:59Z</time>
      </trkpt>
      <trkpt lat="43.47098" lon="6.28179">
        <ele>246</ele>
        <time>2023-04-28T14:15:00Z</time>
      </trkpt>
      <trkpt lat="43.47098" lon="6.28179">
        <ele>246</ele>
        <time>2023-04-28T14:15:01Z</time>
      </trkpt>
      <trkpt lat="43.47097" lon="6.28179">
        <ele>245</ele>
        <time>2023-04-28T14:15:02Z</time>
      </trkpt>
      <trkpt lat="43.47096" lon="6.2818">
        <ele>245</ele>
        <time>2023-04-28T14:15:03Z</time>
      </trkpt>
      <trkpt lat="43.47096" lon="6.28181">
        <ele>245</ele>
        <time>2023-04-28T14:15:04Z</time>
      </trkpt>
      <trkpt lat="43.47095" lon="6.28181">
        <ele>245</ele>
        <time>2023-04-28T14:15:05Z</time>
      </trkpt>
      <trkpt lat="43.47094" lon="6.28182">
        <ele>245</ele>
        <time>2023-04-28T14:15:06Z</time>
      </trkpt>
      <trkpt lat="43.47093" lon="6.28183">
        <ele>245</ele>
        <time>2023-04-28T14:15:07Z</time>
      </trkpt>
      <trkpt lat="43.47093" lon="6.28184">
        <ele>245</ele>
        <time>2023-04-28T14:15:08Z</time>
      </trkpt>
      <trkpt lat="43.47092" lon="6.28184">
        <ele>245</ele>
        <time>2023-04-28T14:15:09Z</time>
      </trkpt>
      <trkpt lat="43.47091" lon="6.28185">
        <ele>245</ele>
        <time>2023-04-28T14:15:10Z</time>
      </trkpt>
      <trkpt lat="43.47091" lon="6.28186">
        <ele>245</ele>
        <time>2023-04-28T14:15:11Z</time>
      </trkpt>
      <trkpt lat="43.4709" lon="6.28186">
        <ele>245</ele>
        <time>2023-04-28T14:15:12Z</time>
      </trkpt>
      <trkpt lat="43.47089" lon="6.28187">
        <ele>245</ele>
        <time>2023-04-28T14:15:13Z</time>
      </trkpt>
      <trkpt lat="43.47089" lon="6.28187">
        <ele>245</ele>
        <time>2023-04-28T14:15:14Z</time>
      </trkpt>
      <trkpt lat="43.47088" lon="6.28188">
        <ele>245</ele>
        <time>2023-04-28T14:15:15Z</time>
      </trkpt>
      <trkpt lat="43.47087" lon="6.28189">
        <ele>245</ele>
        <time>2023-04-28T14:15:16Z</time>
      </trkpt>
      <trkpt lat="43.47087" lon="6.28189">
        <ele>245</ele>
        <time>2023-04-28T14:15:17Z</time>
      </trkpt>
      <trkpt lat="43.47086" lon="6.2819">
        <ele>245</ele>
        <time>2023-04-28T14:15:18Z</time>
      </trkpt>
      <trkpt lat="43.47086" lon="6.2819">
        <ele>245</ele>
        <time>2023-04-28T14:15:19Z</time>
      </trkpt>
      <trkpt lat="43.47085" lon="6.2819">
        <ele>245</ele>
        <time>2023-04-28T14:15:20Z</time>
      </trkpt>
      <trkpt lat="43.47085" lon="6.28191">
        <ele>245</ele>
        <time>2023-04-28T14:15:21Z</time>
      </trkpt>
      <trkpt lat="43.47084" lon="6.28191">
        <ele>245</ele>
        <time>2023-04-28T14:15:22Z</time>
      </trkpt>
      <trkpt lat="43.47084" lon="6.28191">
        <ele>245</ele>
        <time>2023-04-28T14:15:23Z</time>
      </trkpt>
      <trkpt lat="43.47084" lon="6.28191">
        <ele>245</ele>
        <time>2023-04-28T14:15:24Z</time>
      </trkpt>
      <trkpt lat="43.47084" lon="6.28191">
        <ele>245</ele>
        <time>2023-04-28T14:15:25Z</time>
      </trkpt>
      <trkpt lat="43.47084" lon="6.28191">
        <ele>245</ele>
        <time>2023-04-28T14:15:26Z</time>
      </trkpt>
      <trkpt lat="43.47084" lon="6.28191">
        <ele>245</ele>
        <time>2023-04-28T14:15:27Z</time>
      </trkpt>
      <trkpt lat="43.47084" lon="6.28191">
        <ele>245</ele>
        <time>2023-04-28T14:15:28Z</time>
      </trkpt>
      <trkpt lat="43.47084" lon="6.28191">
        <ele>245</ele>
        <time>2023-04-28T14:15:29Z</time>
      </trkpt>
      <trkpt lat="43.47084" lon="6.28191">
        <ele>245</ele>
        <time>2023-04-28T14:15:30Z</time>
      </trkpt>
      <trkpt lat="43.47084" lon="6.28191">
        <ele>245</ele>
        <time>2023-04-28T14:15:31Z</time>
      </trkpt>
      <trkpt lat="43.47084" lon="6.28191">
        <ele>245</ele>
        <time>2023-04-28T14:15:32Z</time>
      </trkpt>
      <trkpt lat="43.47084" lon="6.28191">
        <ele>245</ele>
        <time>2023-04-28T14:15:33Z</time>
      </trkpt>
      <trkpt lat="43.47084" lon="6.28191">
        <ele>245</ele>
        <time>2023-04-28T14:15:34Z</time>
      </trkpt>
      <trkpt lat="43.47084" lon="6.28191">
        <ele>245</ele>
        <time>2023-04-28T14:15:35Z</time>
      </trkpt>
      <trkpt lat="43.47084" lon="6.28191">
        <ele>245</ele>
        <time>2023-04-28T14:15:36Z</time>
      </trkpt>
      <trkpt lat="43.47084" lon="6.28191">
        <ele>245</ele>
        <time>2023-04-28T14:15:37Z</time>
      </trkpt>
      <trkpt lat="43.47084" lon="6.28191">
        <ele>245</ele>
        <time>2023-04-28T14:15:38Z</time>
      </trkpt>
      <trkpt lat="43.47083" lon="6.28192">
        <ele>245</ele>
        <time>2023-04-28T14:15:39Z</time>
      </trkpt>
      <trkpt lat="43.47083" lon="6.28192">
        <ele>245</ele>
        <time>2023-04-28T14:15:40Z</time>
      </trkpt>
      <trkpt lat="43.47083" lon="6.28192">
        <ele>245</ele>
        <time>2023-04-28T14:15:41Z</time>
      </trkpt>
      <trkpt lat="43.47083" lon="6.28192">
        <ele>245</ele>
        <time>2023-04-28T14:15:42Z</time>
      </trkpt>
      <trkpt lat="43.47083" lon="6.28192">
        <ele>245</ele>
        <time>2023-04-28T14:15:43Z</time>
      </trkpt>
      <trkpt lat="43.47083" lon="6.28192">
        <ele>245</ele>
        <time>2023-04-28T14:15:44Z</time>
      </trkpt>
      <trkpt lat="43.47083" lon="6.28192">
        <ele>245</ele>
        <time>2023-04-28T14:15:45Z</time>
      </trkpt>
      <trkpt lat="43.47083" lon="6.28192">
        <ele>245</ele>
        <time>2023-04-28T14:15:46Z</time>
      </trkpt>
      <trkpt lat="43.47083" lon="6.28192">
        <ele>245</ele>
        <time>2023-04-28T14:15:47Z</time>
      </trkpt>
      <trkpt lat="43.47083" lon="6.28192">
        <ele>245</ele>
        <time>2023-04-28T14:15:48Z</time>
      </trkpt>
      <trkpt lat="43.47083" lon="6.28192">
        <ele>245</ele>
        <time>2023-04-28T14:15:49Z</time>
      </trkpt>
      <trkpt lat="43.47083" lon="6.28192">
        <ele>245</ele>
        <time>2023-04-28T14:15:50Z</time>
      </trkpt>
      <trkpt lat="43.47083" lon="6.28192">
        <ele>245</ele>
        <time>2023-04-28T14:15:51Z</time>
      </trkpt>
      <trkpt lat="43.47082" lon="6.28192">
        <ele>245</ele>
        <time>2023-04-28T14:15:52Z</time>
      </trkpt>
      <trkpt lat="43.47082" lon="6.28193">
        <ele>245</ele>
        <time>2023-04-28T14:15:53Z</time>
      </trkpt>
      <trkpt lat="43.47082" lon="6.28193">
        <ele>245</ele>
        <time>2023-04-28T14:15:54Z</time>
      </trkpt>
      <trkpt lat="43.47081" lon="6.28193">
        <ele>245</ele>
        <time>2023-04-28T14:15:55Z</time>
      </trkpt>
      <trkpt lat="43.47081" lon="6.28193">
        <ele>245</ele>
        <time>2023-04-28T14:15:56Z</time>
      </trkpt>
      <trkpt lat="43.47081" lon="6.28193">
        <ele>245</ele>
        <time>2023-04-28T14:15:57Z</time>
      </trkpt>
      <trkpt lat="43.47081" lon="6.28193">
        <ele>245</ele>
        <time>2023-04-28T14:15:58Z</time>
      </trkpt>
      <trkpt lat="43.47081" lon="6.28193">
        <ele>245</ele>
        <time>2023-04-28T14:15:59Z</time>
      </trkpt>
      <trkpt lat="43.47081" lon="6.28193">
        <ele>245</ele>
        <time>2023-04-28T14:16:00Z</time>
      </trkpt>
      <trkpt lat="43.47081" lon="6.28193">
        <ele>245</ele>
        <time>2023-04-28T14:16:01Z</time>
      </trkpt>
      <trkpt lat="43.47081" lon="6.28194">
        <ele>245</ele>
        <time>2023-04-28T14:16:02Z</time>
      </trkpt>
      <trkpt lat="43.47081" lon="6.28194">
        <ele>245</ele>
        <time>2023-04-28T14:16:03Z</time>
      </trkpt>
      <trkpt lat="43.4708" lon="6.28194">
        <ele>245</ele>
        <time>2023-04-28T14:16:04Z</time>
      </trkpt>
      <trkpt lat="43.4708" lon="6.28194">
        <ele>245</ele>
        <time>2023-04-28T14:16:05Z</time>
      </trkpt>
      <trkpt lat="43.4708" lon="6.28194">
        <ele>245</ele>
        <time>2023-04-28T14:16:06Z</time>
      </trkpt>
      <trkpt lat="43.4708" lon="6.28194">
        <ele>245</ele>
        <time>2023-04-28T14:16:07Z</time>
      </trkpt>
      <trkpt lat="43.4708" lon="6.28194">
        <ele>245</ele>
        <time>2023-04-28T14:16:08Z</time>
      </trkpt>
      <trkpt lat="43.4708" lon="6.28194">
        <ele>245</ele>
        <time>2023-04-28T14:16:09Z</time>
      </trkpt>
      <trkpt lat="43.4708" lon="6.28194">
        <ele>245</ele>
        <time>2023-04-28T14:16:10Z</time>
      </trkpt>
      <trkpt lat="43.4708" lon="6.28194">
        <ele>245</ele>
        <time>2023-04-28T14:16:11Z</time>
      </trkpt>
      <trkpt lat="43.4708" lon="6.28195">
        <ele>245</ele>
        <time>2023-04-28T14:16:12Z</time>
      </trkpt>
      <trkpt lat="43.47079" lon="6.28195">
        <ele>245</ele>
        <time>2023-04-28T14:16:13Z</time>
      </trkpt>
      <trkpt lat="43.47079" lon="6.28195">
        <ele>245</ele>
        <time>2023-04-28T14:16:14Z</time>
      </trkpt>
      <trkpt lat="43.47078" lon="6.28196">
        <ele>245</ele>
        <time>2023-04-28T14:16:15Z</time>
      </trkpt>
      <trkpt lat="43.47077" lon="6.28196">
        <ele>245</ele>
        <time>2023-04-28T14:16:16Z</time>
      </trkpt>
      <trkpt lat="43.47076" lon="6.28196">
        <ele>245</ele>
        <time>2023-04-28T14:16:17Z</time>
      </trkpt>
      <trkpt lat="43.47075" lon="6.28197">
        <ele>245</ele>
        <time>2023-04-28T14:16:18Z</time>
      </trkpt>
      <trkpt lat="43.47074" lon="6.28198">
        <ele>245</ele>
        <time>2023-04-28T14:16:19Z</time>
      </trkpt>
      <trkpt lat="43.47073" lon="6.28198">
        <ele>245</ele>
        <time>2023-04-28T14:16:20Z</time>
      </trkpt>
      <trkpt lat="43.47072" lon="6.28199">
        <ele>246</ele>
        <time>2023-04-28T14:16:21Z</time>
      </trkpt>
      <trkpt lat="43.47071" lon="6.282">
        <ele>246</ele>
        <time>2023-04-28T14:16:22Z</time>
      </trkpt>
      <trkpt lat="43.4707" lon="6.282">
        <ele>246</ele>
        <time>2023-04-28T14:16:23Z</time>
      </trkpt>
      <trkpt lat="43.47069" lon="6.28201">
        <ele>246</ele>
        <time>2023-04-28T14:16:24Z</time>
      </trkpt>
      <trkpt lat="43.47068" lon="6.28202">
        <ele>246</ele>
        <time>2023-04-28T14:16:25Z</time>
      </trkpt>
      <trkpt lat="43.47067" lon="6.28203">
        <ele>246</ele>
        <time>2023-04-28T14:16:26Z</time>
      </trkpt>
      <trkpt lat="43.47066" lon="6.28203">
        <ele>247</ele>
        <time>2023-04-28T14:16:27Z</time>
      </trkpt>
      <trkpt lat="43.47065" lon="6.28204">
        <ele>247</ele>
        <time>2023-04-28T14:16:28Z</time>
      </trkpt>
      <trkpt lat="43.47064" lon="6.28205">
        <ele>248</ele>
        <time>2023-04-28T14:16:29Z</time>
      </trkpt>
      <trkpt lat="43.47063" lon="6.28206">
        <ele>249</ele>
        <time>2023-04-28T14:16:30Z</time>
      </trkpt>
      <trkpt lat="43.47063" lon="6.28206">
        <ele>249</ele>
        <time>2023-04-28T14:16:31Z</time>
      </trkpt>
      <trkpt lat="43.47063" lon="6.28207">
        <ele>249</ele>
        <time>2023-04-28T14:16:32Z</time>
      </trkpt>
      <trkpt lat="43.47062" lon="6.28207">
        <ele>249</ele>
        <time>2023-04-28T14:16:33Z</time>
      </trkpt>
      <trkpt lat="43.47062" lon="6.28207">
        <ele>249</ele>
        <time>2023-04-28T14:16:34Z</time>
      </trkpt>
      <trkpt lat="43.47062" lon="6.28208">
        <ele>249</ele>
        <time>2023-04-28T14:16:35Z</time>
      </trkpt>
      <trkpt lat="43.47062" lon="6.28208">
        <ele>249</ele>
        <time>2023-04-28T14:16:36Z</time>
      </trkpt>
      <trkpt lat="43.47061" lon="6.28209">
        <ele>249</ele>
        <time>2023-04-28T14:16:37Z</time>
      </trkpt>
      <trkpt lat="43.47061" lon="6.2821">
        <ele>249</ele>
        <time>2023-04-28T14:16:38Z</time>
      </trkpt>
      <trkpt lat="43.4706" lon="6.28211">
        <ele>249</ele>
        <time>2023-04-28T14:16:39Z</time>
      </trkpt>
      <trkpt lat="43.47059" lon="6.28211">
        <ele>249</ele>
        <time>2023-04-28T14:16:40Z</time>
      </trkpt>
      <trkpt lat="43.47058" lon="6.28212">
        <ele>249</ele>
        <time>2023-04-28T14:16:41Z</time>
      </trkpt>
      <trkpt lat="43.47057" lon="6.28214">
        <ele>249</ele>
        <time>2023-04-28T14:16:42Z</time>
      </trkpt>
      <trkpt lat="43.47056" lon="6.28215">
        <ele>249</ele>
        <time>2023-04-28T14:16:43Z</time>
      </trkpt>
      <trkpt lat="43.47055" lon="6.28217">
        <ele>249</ele>
        <time>2023-04-28T14:16:44Z</time>
      </trkpt>
      <trkpt lat="43.47054" lon="6.28218">
        <ele>250</ele>
        <time>2023-04-28T14:16:45Z</time>
      </trkpt>
      <trkpt lat="43.47053" lon="6.28219">
        <ele>250</ele>
        <time>2023-04-28T14:16:46Z</time>
      </trkpt>
      <trkpt lat="43.47053" lon="6.28219">
        <ele>250</ele>
        <time>2023-04-28T14:16:47Z</time>
      </trkpt>
      <trkpt lat="43.47052" lon="6.2822">
        <ele>250</ele>
        <time>2023-04-28T14:16:48Z</time>
      </trkpt>
      <trkpt lat="43.47052" lon="6.28221">
        <ele>250</ele>
        <time>2023-04-28T14:16:49Z</time>
      </trkpt>
      <trkpt lat="43.47051" lon="6.28221">
        <ele>250</ele>
        <time>2023-04-28T14:16:50Z</time>
      </trkpt>
      <trkpt lat="43.47051" lon="6.28222">
        <ele>250</ele>
        <time>2023-04-28T14:16:51Z</time>
      </trkpt>
      <trkpt lat="43.47051" lon="6.28222">
        <ele>250</ele>
        <time>2023-04-28T14:16:52Z</time>
      </trkpt>
      <trkpt lat="43.4705" lon="6.28222">
        <ele>250</ele>
        <time>2023-04-28T14:16:53Z</time>
      </trkpt>
      <trkpt lat="43.4705" lon="6.28223">
        <ele>250</ele>
        <time>2023-04-28T14:16:54Z</time>
      </trkpt>
      <trkpt lat="43.47049" lon="6.28224">
        <ele>250</ele>
        <time>2023-04-28T14:16:55Z</time>
      </trkpt>
      <trkpt lat="43.47049" lon="6.28225">
        <ele>250</ele>
        <time>2023-04-28T14:16:56Z</time>
      </trkpt>
      <trkpt lat="43.47048" lon="6.28227">
        <ele>250</ele>
        <time>2023-04-28T14:16:57Z</time>
      </trkpt>
      <trkpt lat="43.47047" lon="6.28228">
        <ele>250</ele>
        <time>2023-04-28T14:16:58Z</time>
      </trkpt>
      <trkpt lat="43.47046" lon="6.2823">
        <ele>250</ele>
        <time>2023-04-28T14:16:59Z</time>
      </trkpt>
      <trkpt lat="43.47046" lon="6.28231">
        <ele>251</ele>
        <time>2023-04-28T14:17:00Z</time>
      </trkpt>
      <trkpt lat="43.47045" lon="6.28232">
        <ele>251</ele>
        <time>2023-04-28T14:17:01Z</time>
      </trkpt>
      <trkpt lat="43.47044" lon="6.28232">
        <ele>251</ele>
        <time>2023-04-28T14:17:02Z</time>
      </trkpt>
      <trkpt lat="43.47044" lon="6.28233">
        <ele>251</ele>
        <time>2023-04-28T14:17:03Z</time>
      </trkpt>
      <trkpt lat="43.47043" lon="6.28234">
        <ele>251</ele>
        <time>2023-04-28T14:17:04Z</time>
      </trkpt>
      <trkpt lat="43.47042" lon="6.28235">
        <ele>251</ele>
        <time>2023-04-28T14:17:05Z</time>
      </trkpt>
      <trkpt lat="43.47042" lon="6.28235">
        <ele>251</ele>
        <time>2023-04-28T14:17:06Z</time>
      </trkpt>
      <trkpt lat="43.47042" lon="6.28236">
        <ele>251</ele>
        <time>2023-04-28T14:17:07Z</time>
      </trkpt>
      <trkpt lat="43.47041" lon="6.28236">
        <ele>251</ele>
        <time>2023-04-28T14:17:08Z</time>
      </trkpt>
      <trkpt lat="43.4704" lon="6.28237">
        <ele>251</ele>
        <time>2023-04-28T14:17:09Z</time>
      </trkpt>
      <trkpt lat="43.4704" lon="6.28238">
        <ele>251</ele>
        <time>2023-04-28T14:17:10Z</time>
      </trkpt>
      <trkpt lat="43.47039" lon="6.28239">
        <ele>251</ele>
        <time>2023-04-28T14:17:11Z</time>
      </trkpt>
      <trkpt lat="43.47038" lon="6.2824">
        <ele>251</ele>
        <time>2023-04-28T14:17:12Z</time>
      </trkpt>
      <trkpt lat="43.47038" lon="6.2824">
        <ele>251</ele>
        <time>2023-04-28T14:17:13Z</time>
      </trkpt>
      <trkpt lat="43.47037" lon="6.28241">
        <ele>251</ele>
        <time>2023-04-28T14:17:14Z</time>
      </trkpt>
      <trkpt lat="43.47036" lon="6.28242">
        <ele>251</ele>
        <time>2023-04-28T14:17:15Z</time>
      </trkpt>
      <trkpt lat="43.47036" lon="6.28243">
        <ele>251</ele>
        <time>2023-04-28T14:17:16Z</time>
      </trkpt>
      <trkpt lat="43.47035" lon="6.28243">
        <ele>251</ele>
        <time>2023-04-28T14:17:17Z</time>
      </trkpt>
      <trkpt lat="43.47034" lon="6.28244">
        <ele>251</ele>
        <time>2023-04-28T14:17:18Z</time>
      </trkpt>
      <trkpt lat="43.47034" lon="6.28244">
        <ele>251</ele>
        <time>2023-04-28T14:17:19Z</time>
      </trkpt>
      <trkpt lat="43.47033" lon="6.28244">
        <ele>251</ele>
        <time>2023-04-28T14:17:20Z</time>
      </trkpt>
      <trkpt lat="43.47033" lon="6.28245">
        <ele>251</ele>
        <time>2023-04-28T14:17:21Z</time>
      </trkpt>
      <trkpt lat="43.47032" lon="6.28245">
        <ele>252</ele>
        <time>2023-04-28T14:17:22Z</time>
      </trkpt>
      <trkpt lat="43.47031" lon="6.28246">
        <ele>252</ele>
        <time>2023-04-28T14:17:23Z</time>
      </trkpt>
      <trkpt lat="43.4703" lon="6.28247">
        <ele>252</ele>
        <time>2023-04-28T14:17:24Z</time>
      </trkpt>
      <trkpt lat="43.4703" lon="6.28247">
        <ele>252</ele>
        <time>2023-04-28T14:17:25Z</time>
      </trkpt>
      <trkpt lat="43.47029" lon="6.28248">
        <ele>252</ele>
        <time>2023-04-28T14:17:26Z</time>
      </trkpt>
      <trkpt lat="43.47028" lon="6.28248">
        <ele>252</ele>
        <time>2023-04-28T14:17:27Z</time>
      </trkpt>
      <trkpt lat="43.47027" lon="6.28249">
        <ele>252</ele>
        <time>2023-04-28T14:17:28Z</time>
      </trkpt>
      <trkpt lat="43.47026" lon="6.28249">
        <ele>252</ele>
        <time>2023-04-28T14:17:29Z</time>
      </trkpt>
      <trkpt lat="43.47026" lon="6.2825">
        <ele>252</ele>
        <time>2023-04-28T14:17:30Z</time>
      </trkpt>
      <trkpt lat="43.47025" lon="6.2825">
        <ele>252</ele>
        <time>2023-04-28T14:17:31Z</time>
      </trkpt>
      <trkpt lat="43.47024" lon="6.28251">
        <ele>253</ele>
        <time>2023-04-28T14:17:32Z</time>
      </trkpt>
      <trkpt lat="43.47023" lon="6.28252">
        <ele>253</ele>
        <time>2023-04-28T14:17:33Z</time>
      </trkpt>
      <trkpt lat="43.47022" lon="6.28253">
        <ele>254</ele>
        <time>2023-04-28T14:17:34Z</time>
      </trkpt>
      <trkpt lat="43.47021" lon="6.28254">
        <ele>254</ele>
        <time>2023-04-28T14:17:35Z</time>
      </trkpt>
      <trkpt lat="43.4702" lon="6.28255">
        <ele>254</ele>
        <time>2023-04-28T14:17:36Z</time>
      </trkpt>
      <trkpt lat="43.47019" lon="6.28256">
        <ele>254</ele>
        <time>2023-04-28T14:17:37Z</time>
      </trkpt>
      <trkpt lat="43.47018" lon="6.28258">
        <ele>254</ele>
        <time>2023-04-28T14:17:38Z</time>
      </trkpt>
      <trkpt lat="43.47017" lon="6.28258">
        <ele>254</ele>
        <time>2023-04-28T14:17:39Z</time>
      </trkpt>
      <trkpt lat="43.47016" lon="6.28259">
        <ele>254</ele>
        <time>2023-04-28T14:17:40Z</time>
      </trkpt>
      <trkpt lat="43.47015" lon="6.2826">
        <ele>254</ele>
        <time>2023-04-28T14:17:41Z</time>
      </trkpt>
      <trkpt lat="43.47014" lon="6.2826">
        <ele>254</ele>
        <time>2023-04-28T14:17:42Z</time>
      </trkpt>
      <trkpt lat="43.47013" lon="6.2826">
        <ele>254</ele>
        <time>2023-04-28T14:17:43Z</time>
      </trkpt>
      <trkpt lat="43.47012" lon="6.28261">
        <ele>254</ele>
        <time>2023-04-28T14:17:44Z</time>
      </trkpt>
      <trkpt lat="43.47012" lon="6.28261">
        <ele>255</ele>
        <time>2023-04-28T14:17:45Z</time>
      </trkpt>
      <trkpt lat="43.47011" lon="6.28262">
        <ele>255</ele>
        <time>2023-04-28T14:17:46Z</time>
      </trkpt>
      <trkpt lat="43.4701" lon="6.28262">
        <ele>256</ele>
        <time>2023-04-28T14:17:47Z</time>
      </trkpt>
      <trkpt lat="43.47009" lon="6.28263">
        <ele>256</ele>
        <time>2023-04-28T14:17:48Z</time>
      </trkpt>
      <trkpt lat="43.47008" lon="6.28263">
        <ele>256</ele>
        <time>2023-04-28T14:17:49Z</time>
      </trkpt>
      <trkpt lat="43.47007" lon="6.28263">
        <ele>257</ele>
        <time>2023-04-28T14:17:50Z</time>
      </trkpt>
      <trkpt lat="43.47007" lon="6.28263">
        <ele>257</ele>
        <time>2023-04-28T14:17:51Z</time>
      </trkpt>
      <trkpt lat="43.47006" lon="6.28264">
        <ele>257</ele>
        <time>2023-04-28T14:17:52Z</time>
      </trkpt>
      <trkpt lat="43.47005" lon="6.28265">
        <ele>257</ele>
        <time>2023-04-28T14:17:53Z</time>
      </trkpt>
      <trkpt lat="43.47004" lon="6.28265">
        <ele>257</ele>
        <time>2023-04-28T14:17:54Z</time>
      </trkpt>
      <trkpt lat="43.47004" lon="6.28266">
        <ele>257</ele>
        <time>2023-04-28T14:17:55Z</time>
      </trkpt>
      <trkpt lat="43.47003" lon="6.28267">
        <ele>257</ele>
        <time>2023-04-28T14:17:56Z</time>
      </trkpt>
      <trkpt lat="43.47002" lon="6.28268">
        <ele>258</ele>
        <time>2023-04-28T14:17:57Z</time>
      </trkpt>
      <trkpt lat="43.47001" lon="6.28268">
        <ele>258</ele>
        <time>2023-04-28T14:17:58Z</time>
      </trkpt>
      <trkpt lat="43.47001" lon="6.28269">
        <ele>258</ele>
        <time>2023-04-28T14:17:59Z</time>
      </trkpt>
      <trkpt lat="43.47" lon="6.2827">
        <ele>259</ele>
        <time>2023-04-28T14:18:00Z</time>
      </trkpt>
      <trkpt lat="43.46999" lon="6.28271">
        <ele>259</ele>
        <time>2023-04-28T14:18:01Z</time>
      </trkpt>
      <trkpt lat="43.46999" lon="6.28272">
        <ele>259</ele>
        <time>2023-04-28T14:18:02Z</time>
      </trkpt>
      <trkpt lat="43.46998" lon="6.28273">
        <ele>259</ele>
        <time>2023-04-28T14:18:03Z</time>
      </trkpt>
      <trkpt lat="43.46998" lon="6.28274">
        <ele>259</ele>
        <time>2023-04-28T14:18:04Z</time>
      </trkpt>
      <trkpt lat="43.46997" lon="6.28275">
        <ele>259</ele>
        <time>2023-04-28T14:18:05Z</time>
      </trkpt>
      <trkpt lat="43.46996" lon="6.28276">
        <ele>259</ele>
        <time>2023-04-28T14:18:06Z</time>
      </trkpt>
      <trkpt lat="43.46996" lon="6.28277">
        <ele>259</ele>
        <time>2023-04-28T14:18:07Z</time>
      </trkpt>
      <trkpt lat="43.46995" lon="6.28277">
        <ele>259</ele>
        <time>2023-04-28T14:18:08Z</time>
      </trkpt>
      <trkpt lat="43.46994" lon="6.28278">
        <ele>259</ele>
        <time>2023-04-28T14:18:09Z</time>
      </trkpt>
      <trkpt lat="43.46994" lon="6.28279">
        <ele>259</ele>
        <time>2023-04-28T14:18:10Z</time>
      </trkpt>
      <trkpt lat="43.46993" lon="6.28279">
        <ele>259</ele>
        <time>2023-04-28T14:18:11Z</time>
      </trkpt>
      <trkpt lat="43.46993" lon="6.2828">
        <ele>259</ele>
        <time>2023-04-28T14:18:12Z</time>
      </trkpt>
      <trkpt lat="43.46993" lon="6.2828">
        <ele>259</ele>
        <time>2023-04-28T14:18:13Z</time>
      </trkpt>
      <trkpt lat="43.46992" lon="6.2828">
        <ele>259</ele>
        <time>2023-04-28T14:18:14Z</time>
      </trkpt>
      <trkpt lat="43.46992" lon="6.28281">
        <ele>259</ele>
        <time>2023-04-28T14:18:15Z</time>
      </trkpt>
      <trkpt lat="43.46991" lon="6.28281">
        <ele>260</ele>
        <time>2023-04-28T14:18:16Z</time>
      </trkpt>
      <trkpt lat="43.46991" lon="6.28281">
        <ele>261</ele>
        <time>2023-04-28T14:18:17Z</time>
      </trkpt>
      <trkpt lat="43.4699" lon="6.28282">
        <ele>261</ele>
        <time>2023-04-28T14:18:18Z</time>
      </trkpt>
      <trkpt lat="43.4699" lon="6.28282">
        <ele>261</ele>
        <time>2023-04-28T14:18:19Z</time>
      </trkpt>
      <trkpt lat="43.46989" lon="6.28283">
        <ele>261</ele>
        <time>2023-04-28T14:18:20Z</time>
      </trkpt>
      <trkpt lat="43.46989" lon="6.28283">
        <ele>261</ele>
        <time>2023-04-28T14:18:21Z</time>
      </trkpt>
      <trkpt lat="43.46988" lon="6.28283">
        <ele>261</ele>
        <time>2023-04-28T14:18:22Z</time>
      </trkpt>
      <trkpt lat="43.46987" lon="6.28284">
        <ele>261</ele>
        <time>2023-04-28T14:18:23Z</time>
      </trkpt>
      <trkpt lat="43.46987" lon="6.28284">
        <ele>262</ele>
        <time>2023-04-28T14:18:24Z</time>
      </trkpt>
      <trkpt lat="43.46986" lon="6.28285">
        <ele>262</ele>
        <time>2023-04-28T14:18:25Z</time>
      </trkpt>
      <trkpt lat="43.46985" lon="6.28285">
        <ele>262</ele>
        <time>2023-04-28T14:18:26Z</time>
      </trkpt>
      <trkpt lat="43.46984" lon="6.28286">
        <ele>262</ele>
        <time>2023-04-28T14:18:27Z</time>
      </trkpt>
      <trkpt lat="43.46984" lon="6.28286">
        <ele>262</ele>
        <time>2023-04-28T14:18:28Z</time>
      </trkpt>
      <trkpt lat="43.46983" lon="6.28286">
        <ele>262</ele>
        <time>2023-04-28T14:18:29Z</time>
      </trkpt>
      <trkpt lat="43.46982" lon="6.28287">
        <ele>262</ele>
        <time>2023-04-28T14:18:30Z</time>
      </trkpt>
      <trkpt lat="43.46981" lon="6.28287">
        <ele>262</ele>
        <time>2023-04-28T14:18:31Z</time>
      </trkpt>
      <trkpt lat="43.4698" lon="6.28287">
        <ele>262</ele>
        <time>2023-04-28T14:18:32Z</time>
      </trkpt>
      <trkpt lat="43.46979" lon="6.28288">
        <ele>262</ele>
        <time>2023-04-28T14:18:33Z</time>
      </trkpt>
      <trkpt lat="43.46979" lon="6.28288">
        <ele>262</ele>
        <time>2023-04-28T14:18:34Z</time>
      </trkpt>
      <trkpt lat="43.46978" lon="6.28289">
        <ele>262</ele>
        <time>2023-04-28T14:18:35Z</time>
      </trkpt>
      <trkpt lat="43.46977" lon="6.28289">
        <ele>262</ele>
        <time>2023-04-28T14:18:36Z</time>
      </trkpt>
      <trkpt lat="43.46976" lon="6.28289">
        <ele>262</ele>
        <time>2023-04-28T14:18:37Z</time>
      </trkpt>
      <trkpt lat="43.46976" lon="6.28289">
        <ele>262</ele>
        <time>2023-04-28T14:18:38Z</time>
      </trkpt>
      <trkpt lat="43.46975" lon="6.28289">
        <ele>262</ele>
        <time>2023-04-28T14:18:39Z</time>
      </trkpt>
      <trkpt lat="43.46974" lon="6.2829">
        <ele>263</ele>
        <time>2023-04-28T14:18:40Z</time>
      </trkpt>
      <trkpt lat="43.46973" lon="6.2829">
        <ele>263</ele>
        <time>2023-04-28T14:18:41Z</time>
      </trkpt>
      <trkpt lat="43.46973" lon="6.2829">
        <ele>263</ele>
        <time>2023-04-28T14:18:42Z</time>
      </trkpt>
      <trkpt lat="43.46973" lon="6.2829">
        <ele>263</ele>
        <time>2023-04-28T14:18:43Z</time>
      </trkpt>
      <trkpt lat="43.46973" lon="6.28291">
        <ele>263</ele>
        <time>2023-04-28T14:18:44Z</time>
      </trkpt>
      <trkpt lat="43.46972" lon="6.28291">
        <ele>263</ele>
        <time>2023-04-28T14:18:45Z</time>
      </trkpt>
      <trkpt lat="43.46972" lon="6.28291">
        <ele>263</ele>
        <time>2023-04-28T14:18:46Z</time>
      </trkpt>
      <trkpt lat="43.46971" lon="6.28291">
        <ele>263</ele>
        <time>2023-04-28T14:18:47Z</time>
      </trkpt>
      <trkpt lat="43.4697" lon="6.28291">
        <ele>263</ele>
        <time>2023-04-28T14:18:48Z</time>
      </trkpt>
      <trkpt lat="43.4697" lon="6.28291">
        <ele>263</ele>
        <time>2023-04-28T14:18:49Z</time>
      </trkpt>
      <trkpt lat="43.46969" lon="6.28291">
        <ele>263</ele>
        <time>2023-04-28T14:18:50Z</time>
      </trkpt>
      <trkpt lat="43.46968" lon="6.28291">
        <ele>263</ele>
        <time>2023-04-28T14:18:51Z</time>
      </trkpt>
      <trkpt lat="43.46968" lon="6.28291">
        <ele>263</ele>
        <time>2023-04-28T14:18:52Z</time>
      </trkpt>
      <trkpt lat="43.46967" lon="6.28291">
        <ele>264</ele>
        <time>2023-04-28T14:18:53Z</time>
      </trkpt>
      <trkpt lat="43.46966" lon="6.28291">
        <ele>264</ele>
        <time>2023-04-28T14:18:54Z</time>
      </trkpt>
      <trkpt lat="43.46965" lon="6.28291">
        <ele>264</ele>
        <time>2023-04-28T14:18:55Z</time>
      </trkpt>
      <trkpt lat="43.46965" lon="6.28291">
        <ele>264</ele>
        <time>2023-04-28T14:18:56Z</time>
      </trkpt>
      <trkpt lat="43.46964" lon="6.28291">
        <ele>264</ele>
        <time>2023-04-28T14:18:57Z</time>
      </trkpt>
      <trkpt lat="43.46964" lon="6.28291">
        <ele>264</ele>
        <time>2023-04-28T14:18:58Z</time>
      </trkpt>
      <trkpt lat="43.46964" lon="6.28291">
        <ele>264</ele>
        <time>2023-04-28T14:18:59Z</time>
      </trkpt>
      <trkpt lat="43.46963" lon="6.28291">
        <ele>264</ele>
        <time>2023-04-28T14:19:00Z</time>
      </trkpt>
      <trkpt lat="43.46963" lon="6.28291">
        <ele>264</ele>
        <time>2023-04-28T14:19:01Z</time>
      </trkpt>
      <trkpt lat="43.46962" lon="6.28291">
        <ele>264</ele>
        <time>2023-04-28T14:19:02Z</time>
      </trkpt>
      <trkpt lat="43.46962" lon="6.28291">
        <ele>264</ele>
        <time>2023-04-28T14:19:03Z</time>
      </trkpt>
      <trkpt lat="43.46961" lon="6.2829">
        <ele>264</ele>
        <time>2023-04-28T14:19:04Z</time>
      </trkpt>
      <trkpt lat="43.46961" lon="6.2829">
        <ele>264</ele>
        <time>2023-04-28T14:19:05Z</time>
      </trkpt>
      <trkpt lat="43.4696" lon="6.2829">
        <ele>264</ele>
        <time>2023-04-28T14:19:06Z</time>
      </trkpt>
      <trkpt lat="43.46959" lon="6.28289">
        <ele>264</ele>
        <time>2023-04-28T14:19:07Z</time>
      </trkpt>
      <trkpt lat="43.46959" lon="6.28288">
        <ele>264</ele>
        <time>2023-04-28T14:19:08Z</time>
      </trkpt>
      <trkpt lat="43.46959" lon="6.28288">
        <ele>264</ele>
        <time>2023-04-28T14:19:09Z</time>
      </trkpt>
      <trkpt lat="43.46958" lon="6.28287">
        <ele>265</ele>
        <time>2023-04-28T14:19:10Z</time>
      </trkpt>
      <trkpt lat="43.46958" lon="6.28286">
        <ele>265</ele>
        <time>2023-04-28T14:19:11Z</time>
      </trkpt>
      <trkpt lat="43.46957" lon="6.28286">
        <ele>265</ele>
        <time>2023-04-28T14:19:12Z</time>
      </trkpt>
      <trkpt lat="43.46957" lon="6.28285">
        <ele>265</ele>
        <time>2023-04-28T14:19:13Z</time>
      </trkpt>
      <trkpt lat="43.46957" lon="6.28284">
        <ele>265</ele>
        <time>2023-04-28T14:19:14Z</time>
      </trkpt>
      <trkpt lat="43.46956" lon="6.28284">
        <ele>265</ele>
        <time>2023-04-28T14:19:15Z</time>
      </trkpt>
      <trkpt lat="43.46956" lon="6.28283">
        <ele>265</ele>
        <time>2023-04-28T14:19:16Z</time>
      </trkpt>
      <trkpt lat="43.46956" lon="6.28282">
        <ele>265</ele>
        <time>2023-04-28T14:19:17Z</time>
      </trkpt>
      <trkpt lat="43.46956" lon="6.28282">
        <ele>266</ele>
        <time>2023-04-28T14:19:18Z</time>
      </trkpt>
      <trkpt lat="43.46956" lon="6.28281">
        <ele>266</ele>
        <time>2023-04-28T14:19:19Z</time>
      </trkpt>
      <trkpt lat="43.46957" lon="6.28281">
        <ele>266</ele>
        <time>2023-04-28T14:19:20Z</time>
      </trkpt>
      <trkpt lat="43.46956" lon="6.2828">
        <ele>266</ele>
        <time>2023-04-28T14:19:21Z</time>
      </trkpt>
      <trkpt lat="43.46956" lon="6.28279">
        <ele>266</ele>
        <time>2023-04-28T14:19:22Z</time>
      </trkpt>
      <trkpt lat="43.46956" lon="6.28278">
        <ele>267</ele>
        <time>2023-04-28T14:19:23Z</time>
      </trkpt>
      <trkpt lat="43.46955" lon="6.28277">
        <ele>267</ele>
        <time>2023-04-28T14:19:24Z</time>
      </trkpt>
      <trkpt lat="43.46955" lon="6.28276">
        <ele>267</ele>
        <time>2023-04-28T14:19:25Z</time>
      </trkpt>
      <trkpt lat="43.46955" lon="6.28275">
        <ele>267</ele>
        <time>2023-04-28T14:19:26Z</time>
      </trkpt>
      <trkpt lat="43.46955" lon="6.28274">
        <ele>267</ele>
        <time>2023-04-28T14:19:27Z</time>
      </trkpt>
      <trkpt lat="43.46954" lon="6.28273">
        <ele>267</ele>
        <time>2023-04-28T14:19:28Z</time>
      </trkpt>
      <trkpt lat="43.46954" lon="6.28272">
        <ele>268</ele>
        <time>2023-04-28T14:19:29Z</time>
      </trkpt>
      <trkpt lat="43.46954" lon="6.28271">
        <ele>268</ele>
        <time>2023-04-28T14:19:30Z</time>
      </trkpt>
      <trkpt lat="43.46953" lon="6.28269">
        <ele>268</ele>
        <time>2023-04-28T14:19:31Z</time>
      </trkpt>
      <trkpt lat="43.46953" lon="6.28268">
        <ele>268</ele>
        <time>2023-04-28T14:19:32Z</time>
      </trkpt>
      <trkpt lat="43.46953" lon="6.28267">
        <ele>269</ele>
        <time>2023-04-28T14:19:33Z</time>
      </trkpt>
      <trkpt lat="43.46952" lon="6.28266">
        <ele>269</ele>
        <time>2023-04-28T14:19:34Z</time>
      </trkpt>
      <trkpt lat="43.46952" lon="6.28265">
        <ele>269</ele>
        <time>2023-04-28T14:19:35Z</time>
      </trkpt>
      <trkpt lat="43.46951" lon="6.28264">
        <ele>269</ele>
        <time>2023-04-28T14:19:36Z</time>
      </trkpt>
      <trkpt lat="43.46951" lon="6.28263">
        <ele>269</ele>
        <time>2023-04-28T14:19:37Z</time>
      </trkpt>
      <trkpt lat="43.4695" lon="6.28263">
        <ele>269</ele>
        <time>2023-04-28T14:19:38Z</time>
      </trkpt>
      <trkpt lat="43.4695" lon="6.28262">
        <ele>269</ele>
        <time>2023-04-28T14:19:39Z</time>
      </trkpt>
      <trkpt lat="43.46949" lon="6.28262">
        <ele>269</ele>
        <time>2023-04-28T14:19:40Z</time>
      </trkpt>
      <trkpt lat="43.46948" lon="6.28262">
        <ele>269</ele>
        <time>2023-04-28T14:19:41Z</time>
      </trkpt>
      <trkpt lat="43.46948" lon="6.28261">
        <ele>269</ele>
        <time>2023-04-28T14:19:42Z</time>
      </trkpt>
      <trkpt lat="43.46947" lon="6.28261">
        <ele>269</ele>
        <time>2023-04-28T14:19:43Z</time>
      </trkpt>
      <trkpt lat="43.46947" lon="6.28261">
        <ele>269</ele>
        <time>2023-04-28T14:19:44Z</time>
      </trkpt>
      <trkpt lat="43.46946" lon="6.28261">
        <ele>269</ele>
        <time>2023-04-28T14:19:45Z</time>
      </trkpt>
      <trkpt lat="43.46946" lon="6.28261">
        <ele>269</ele>
        <time>2023-04-28T14:19:46Z</time>
      </trkpt>
      <trkpt lat="43.46945" lon="6.28261">
        <ele>269</ele>
        <time>2023-04-28T14:19:47Z</time>
      </trkpt>
      <trkpt lat="43.46945" lon="6.28262">
        <ele>269</ele>
        <time>2023-04-28T14:19:48Z</time>
      </trkpt>
      <trkpt lat="43.46944" lon="6.28263">
        <ele>269</ele>
        <time>2023-04-28T14:19:49Z</time>
      </trkpt>
      <trkpt lat="43.46943" lon="6.28263">
        <ele>268</ele>
        <time>2023-04-28T14:19:50Z</time>
      </trkpt>
      <trkpt lat="43.46942" lon="6.28263">
        <ele>268</ele>
        <time>2023-04-28T14:19:51Z</time>
      </trkpt>
      <trkpt lat="43.46941" lon="6.28264">
        <ele>268</ele>
        <time>2023-04-28T14:19:52Z</time>
      </trkpt>
      <trkpt lat="43.46941" lon="6.28264">
        <ele>268</ele>
        <time>2023-04-28T14:19:53Z</time>
      </trkpt>
      <trkpt lat="43.4694" lon="6.28264">
        <ele>269</ele>
        <time>2023-04-28T14:19:54Z</time>
      </trkpt>
      <trkpt lat="43.4694" lon="6.28264">
        <ele>269</ele>
        <time>2023-04-28T14:19:55Z</time>
      </trkpt>
      <trkpt lat="43.46937" lon="6.28262">
        <ele>269</ele>
        <time>2023-04-28T14:20:00Z</time>
      </trkpt>
      <trkpt lat="43.46937" lon="6.28262">
        <ele>270</ele>
        <time>2023-04-28T14:20:01Z</time>
      </trkpt>
      <trkpt lat="43.46936" lon="6.28261">
        <ele>270</ele>
        <time>2023-04-28T14:20:02Z</time>
      </trkpt>
      <trkpt lat="43.46936" lon="6.28262">
        <ele>270</ele>
        <time>2023-04-28T14:20:03Z</time>
      </trkpt>
      <trkpt lat="43.46936" lon="6.28262">
        <ele>270</ele>
        <time>2023-04-28T14:20:04Z</time>
      </trkpt>
      <trkpt lat="43.46936" lon="6.28262">
        <ele>270</ele>
        <time>2023-04-28T14:20:05Z</time>
      </trkpt>
      <trkpt lat="43.46936" lon="6.28262">
        <ele>270</ele>
        <time>2023-04-28T14:20:06Z</time>
      </trkpt>
      <trkpt lat="43.46936" lon="6.28262">
        <ele>270</ele>
        <time>2023-04-28T14:20:07Z</time>
      </trkpt>
      <trkpt lat="43.46936" lon="6.28262">
        <ele>270</ele>
        <time>2023-04-28T14:20:08Z</time>
      </trkpt>
      <trkpt lat="43.46936" lon="6.28262">
        <ele>270</ele>
        <time>2023-04-28T14:20:09Z</time>
      </trkpt>
      <trkpt lat="43.46936" lon="6.28262">
        <ele>270</ele>
        <time>2023-04-28T14:20:10Z</time>
      </trkpt>
      <trkpt lat="43.46936" lon="6.28262">
        <ele>270</ele>
        <time>2023-04-28T14:20:11Z</time>
      </trkpt>
      <trkpt lat="43.46937" lon="6.28261">
        <ele>270</ele>
        <time>2023-04-28T14:20:12Z</time>
      </trkpt>
      <trkpt lat="43.46937" lon="6.28261">
        <ele>270</ele>
        <time>2023-04-28T14:20:13Z</time>
      </trkpt>
      <trkpt lat="43.46937" lon="6.2826">
        <ele>270</ele>
        <time>2023-04-28T14:20:14Z</time>
      </trkpt>
      <trkpt lat="43.46937" lon="6.28259">
        <ele>270</ele>
        <time>2023-04-28T14:20:15Z</time>
      </trkpt>
      <trkpt lat="43.46937" lon="6.28257">
        <ele>270</ele>
        <time>2023-04-28T14:20:16Z</time>
      </trkpt>
      <trkpt lat="43.46937" lon="6.28256">
        <ele>270</ele>
        <time>2023-04-28T14:20:17Z</time>
      </trkpt>
      <trkpt lat="43.46937" lon="6.28255">
        <ele>270</ele>
        <time>2023-04-28T14:20:18Z</time>
      </trkpt>
      <trkpt lat="43.46937" lon="6.28254">
        <ele>270</ele>
        <time>2023-04-28T14:20:19Z</time>
      </trkpt>
      <trkpt lat="43.46937" lon="6.28253">
        <ele>270</ele>
        <time>2023-04-28T14:20:20Z</time>
      </trkpt>
      <trkpt lat="43.46938" lon="6.28253">
        <ele>270</ele>
        <time>2023-04-28T14:20:21Z</time>
      </trkpt>
      <trkpt lat="43.46938" lon="6.28253">
        <ele>270</ele>
        <time>2023-04-28T14:20:22Z</time>
      </trkpt>
      <trkpt lat="43.46938" lon="6.28252">
        <ele>270</ele>
        <time>2023-04-28T14:20:23Z</time>
      </trkpt>
      <trkpt lat="43.46937" lon="6.28252">
        <ele>270</ele>
        <time>2023-04-28T14:20:24Z</time>
      </trkpt>
      <trkpt lat="43.46937" lon="6.28253">
        <ele>270</ele>
        <time>2023-04-28T14:20:25Z</time>
      </trkpt>
      <trkpt lat="43.46937" lon="6.28253">
        <ele>270</ele>
        <time>2023-04-28T14:20:26Z</time>
      </trkpt>
      <trkpt lat="43.46936" lon="6.28253">
        <ele>270</ele>
        <time>2023-04-28T14:20:27Z</time>
      </trkpt>
      <trkpt lat="43.46936" lon="6.28253">
        <ele>270</ele>
        <time>2023-04-28T14:20:28Z</time>
      </trkpt>
      <trkpt lat="43.46936" lon="6.28253">
        <ele>270</ele>
        <time>2023-04-28T14:20:29Z</time>
      </trkpt>
      <trkpt lat="43.46936" lon="6.28253">
        <ele>270</ele>
        <time>2023-04-28T14:20:30Z</time>
      </trkpt>
      <trkpt lat="43.46935" lon="6.28253">
        <ele>270</ele>
        <time>2023-04-28T14:20:31Z</time>
      </trkpt>
      <trkpt lat="43.46935" lon="6.28253">
        <ele>270</ele>
        <time>2023-04-28T14:20:32Z</time>
      </trkpt>
      <trkpt lat="43.46935" lon="6.28253">
        <ele>270</ele>
        <time>2023-04-28T14:20:33Z</time>
      </trkpt>
      <trkpt lat="43.46935" lon="6.28253">
        <ele>270</ele>
        <time>2023-04-28T14:20:34Z</time>
      </trkpt>
      <trkpt lat="43.46935" lon="6.28253">
        <ele>270</ele>
        <time>2023-04-28T14:20:35Z</time>
      </trkpt>
      <trkpt lat="43.46935" lon="6.28253">
        <ele>270</ele>
        <time>2023-04-28T14:20:36Z</time>
      </trkpt>
      <trkpt lat="43.46935" lon="6.28253">
        <ele>270</ele>
        <time>2023-04-28T14:20:37Z</time>
      </trkpt>
      <trkpt lat="43.46934" lon="6.28254">
        <ele>270</ele>
        <time>2023-04-28T14:20:38Z</time>
      </trkpt>
      <trkpt lat="43.46934" lon="6.28254">
        <ele>270</ele>
        <time>2023-04-28T14:20:39Z</time>
      </trkpt>
      <trkpt lat="43.46934" lon="6.28254">
        <ele>270</ele>
        <time>2023-04-28T14:20:40Z</time>
      </trkpt>
      <trkpt lat="43.46934" lon="6.28254">
        <ele>270</ele>
        <time>2023-04-28T14:20:41Z</time>
      </trkpt>
      <trkpt lat="43.46934" lon="6.28254">
        <ele>270</ele>
        <time>2023-04-28T14:20:42Z</time>
      </trkpt>
      <trkpt lat="43.46934" lon="6.28254">
        <ele>270</ele>
        <time>2023-04-28T14:20:43Z</time>
      </trkpt>
      <trkpt lat="43.46934" lon="6.28254">
        <ele>270</ele>
        <time>2023-04-28T14:20:44Z</time>
      </trkpt>
      <trkpt lat="43.46934" lon="6.28254">
        <ele>270</ele>
        <time>2023-04-28T14:20:45Z</time>
      </trkpt>
      <trkpt lat="43.46934" lon="6.28254">
        <ele>270</ele>
        <time>2023-04-28T14:20:46Z</time>
      </trkpt>
      <trkpt lat="43.46934" lon="6.28254">
        <ele>270</ele>
        <time>2023-04-28T14:20:47Z</time>
      </trkpt>
      <trkpt lat="43.46934" lon="6.28254">
        <ele>270</ele>
        <time>2023-04-28T14:20:48Z</time>
      </trkpt>
      <trkpt lat="43.46934" lon="6.28254">
        <ele>270</ele>
        <time>2023-04-28T14:20:49Z</time>
      </trkpt>
      <trkpt lat="43.46934" lon="6.28254">
        <ele>270</ele>
        <time>2023-04-28T14:20:50Z</time>
      </trkpt>
      <trkpt lat="43.46934" lon="6.28254">
        <ele>270</ele>
        <time>2023-04-28T14:20:51Z</time>
      </trkpt>
      <trkpt lat="43.46934" lon="6.28254">
        <ele>270</ele>
        <time>2023-04-28T14:20:52Z</time>
      </trkpt>
      <trkpt lat="43.46934" lon="6.28254">
        <ele>270</ele>
        <time>2023-04-28T14:20:53Z</time>
      </trkpt>
      <trkpt lat="43.46934" lon="6.28254">
        <ele>270</ele>
        <time>2023-04-28T14:20:54Z</time>
      </trkpt>
      <trkpt lat="43.46934" lon="6.28254">
        <ele>270</ele>
        <time>2023-04-28T14:20:55Z</time>
      </trkpt>
      <trkpt lat="43.46934" lon="6.28254">
        <ele>270</ele>
        <time>2023-04-28T14:20:56Z</time>
      </trkpt>
      <trkpt lat="43.46934" lon="6.28254">
        <ele>270</ele>
        <time>2023-04-28T14:20:57Z</time>
      </trkpt>
      <trkpt lat="43.46934" lon="6.28254">
        <ele>270</ele>
        <time>2023-04-28T14:20:58Z</time>
      </trkpt>
      <trkpt lat="43.46934" lon="6.28254">
        <ele>270</ele>
        <time>2023-04-28T14:20:59Z</time>
      </trkpt>
      <trkpt lat="43.46934" lon="6.28254">
        <ele>270</ele>
        <time>2023-04-28T14:21:00Z</time>
      </trkpt>
      <trkpt lat="43.46934" lon="6.28254">
        <ele>270</ele>
        <time>2023-04-28T14:21:01Z</time>
      </trkpt>
      <trkpt lat="43.46934" lon="6.28254">
        <ele>270</ele>
        <time>2023-04-28T14:21:02Z</time>
      </trkpt>
      <trkpt lat="43.46934" lon="6.28254">
        <ele>270</ele>
        <time>2023-04-28T14:21:03Z</time>
      </trkpt>
      <trkpt lat="43.46934" lon="6.28254">
        <ele>270</ele>
        <time>2023-04-28T14:21:04Z</time>
      </trkpt>
      <trkpt lat="43.46934" lon="6.28254">
        <ele>270</ele>
        <time>2023-04-28T14:21:05Z</time>
      </trkpt>
      <trkpt lat="43.46934" lon="6.28254">
        <ele>270</ele>
        <time>2023-04-28T14:21:06Z</time>
      </trkpt>
      <trkpt lat="43.46934" lon="6.28254">
        <ele>270</ele>
        <time>2023-04-28T14:21:07Z</time>
      </trkpt>
      <trkpt lat="43.46934" lon="6.28254">
        <ele>270</ele>
        <time>2023-04-28T14:21:08Z</time>
      </trkpt>
      <trkpt lat="43.46934" lon="6.28254">
        <ele>270</ele>
        <time>2023-04-28T14:21:09Z</time>
      </trkpt>
      <trkpt lat="43.46934" lon="6.28254">
        <ele>270</ele>
        <time>2023-04-28T14:21:10Z</time>
      </trkpt>
      <trkpt lat="43.46934" lon="6.28254">
        <ele>270</ele>
        <time>2023-04-28T14:21:11Z</time>
      </trkpt>
      <trkpt lat="43.46934" lon="6.28254">
        <ele>270</ele>
        <time>2023-04-28T14:21:12Z</time>
      </trkpt>
      <trkpt lat="43.46931" lon="6.28257">
        <ele>270</ele>
        <time>2023-04-28T14:21:13Z</time>
      </trkpt>
      <trkpt lat="43.46931" lon="6.28257">
        <ele>270</ele>
        <time>2023-04-28T14:21:14Z</time>
      </trkpt>
      <trkpt lat="43.46931" lon="6.28257">
        <ele>270</ele>
        <time>2023-04-28T14:21:15Z</time>
      </trkpt>
      <trkpt lat="43.46931" lon="6.28257">
        <ele>270</ele>
        <time>2023-04-28T14:21:16Z</time>
      </trkpt>
      <trkpt lat="43.46931" lon="6.28257">
        <ele>270</ele>
        <time>2023-04-28T14:21:17Z</time>
      </trkpt>
      <trkpt lat="43.46931" lon="6.28257">
        <ele>270</ele>
        <time>2023-04-28T14:21:18Z</time>
      </trkpt>
      <trkpt lat="43.46931" lon="6.28257">
        <ele>270</ele>
        <time>2023-04-28T14:21:19Z</time>
      </trkpt>
      <trkpt lat="43.46931" lon="6.28257">
        <ele>270</ele>
        <time>2023-04-28T14:21:20Z</time>
      </trkpt>
      <trkpt lat="43.46931" lon="6.28257">
        <ele>270</ele>
        <time>2023-04-28T14:21:21Z</time>
      </trkpt>
      <trkpt lat="43.46931" lon="6.28257">
        <ele>270</ele>
        <time>2023-04-28T14:21:22Z</time>
      </trkpt>
      <trkpt lat="43.46931" lon="6.28257">
        <ele>270</ele>
        <time>2023-04-28T14:21:23Z</time>
      </trkpt>
      <trkpt lat="43.46931" lon="6.28257">
        <ele>270</ele>
        <time>2023-04-28T14:21:24Z</time>
      </trkpt>
      <trkpt lat="43.46931" lon="6.28257">
        <ele>270</ele>
        <time>2023-04-28T14:21:25Z</time>
      </trkpt>
      <trkpt lat="43.46931" lon="6.28257">
        <ele>270</ele>
        <time>2023-04-28T14:21:26Z</time>
      </trkpt>
      <trkpt lat="43.46931" lon="6.28257">
        <ele>270</ele>
        <time>2023-04-28T14:21:27Z</time>
      </trkpt>
      <trkpt lat="43.46931" lon="6.28257">
        <ele>270</ele>
        <time>2023-04-28T14:21:28Z</time>
      </trkpt>
      <trkpt lat="43.46931" lon="6.28257">
        <ele>270</ele>
        <time>2023-04-28T14:21:29Z</time>
      </trkpt>
      <trkpt lat="43.46931" lon="6.28257">
        <ele>270</ele>
        <time>2023-04-28T14:21:30Z</time>
      </trkpt>
      <trkpt lat="43.46931" lon="6.28257">
        <ele>270</ele>
        <time>2023-04-28T14:21:31Z</time>
      </trkpt>
      <trkpt lat="43.46931" lon="6.28257">
        <ele>270</ele>
        <time>2023-04-28T14:21:32Z</time>
      </trkpt>
      <trkpt lat="43.46931" lon="6.28257">
        <ele>270</ele>
        <time>2023-04-28T14:21:33Z</time>
      </trkpt>
      <trkpt lat="43.46931" lon="6.28257">
        <ele>270</ele>
        <time>2023-04-28T14:21:34Z</time>
      </trkpt>
      <trkpt lat="43.46931" lon="6.28257">
        <ele>270</ele>
        <time>2023-04-28T14:21:35Z</time>
      </trkpt>
      <trkpt lat="43.46931" lon="6.28257">
        <ele>270</ele>
        <time>2023-04-28T14:21:36Z</time>
      </trkpt>
      <trkpt lat="43.46931" lon="6.28257">
        <ele>270</ele>
        <time>2023-04-28T14:21:37Z</time>
      </trkpt>
      <trkpt lat="43.46931" lon="6.28257">
        <ele>270</ele>
        <time>2023-04-28T14:21:38Z</time>
      </trkpt>
      <trkpt lat="43.46931" lon="6.28257">
        <ele>270</ele>
        <time>2023-04-28T14:21:39Z</time>
      </trkpt>
      <trkpt lat="43.4693" lon="6.28258">
        <ele>270</ele>
        <time>2023-04-28T14:21:40Z</time>
      </trkpt>
      <trkpt lat="43.4693" lon="6.28259">
        <ele>270</ele>
        <time>2023-04-28T14:21:41Z</time>
      </trkpt>
      <trkpt lat="43.46929" lon="6.28259">
        <ele>270</ele>
        <time>2023-04-28T14:21:42Z</time>
      </trkpt>
      <trkpt lat="43.46927" lon="6.2826">
        <ele>270</ele>
        <time>2023-04-28T14:21:43Z</time>
      </trkpt>
      <trkpt lat="43.46926" lon="6.28261">
        <ele>270</ele>
        <time>2023-04-28T14:21:44Z</time>
      </trkpt>
      <trkpt lat="43.46925" lon="6.28261">
        <ele>269</ele>
        <time>2023-04-28T14:21:45Z</time>
      </trkpt>
      <trkpt lat="43.46925" lon="6.28261">
        <ele>269</ele>
        <time>2023-04-28T14:21:46Z</time>
      </trkpt>
      <trkpt lat="43.46925" lon="6.28261">
        <ele>269</ele>
        <time>2023-04-28T14:21:47Z</time>
      </trkpt>
      <trkpt lat="43.46925" lon="6.28261">
        <ele>269</ele>
        <time>2023-04-28T14:21:48Z</time>
      </trkpt>
      <trkpt lat="43.46924" lon="6.28261">
        <ele>269</ele>
        <time>2023-04-28T14:21:49Z</time>
      </trkpt>
      <trkpt lat="43.46924" lon="6.28261">
        <ele>269</ele>
        <time>2023-04-28T14:21:50Z</time>
      </trkpt>
      <trkpt lat="43.46924" lon="6.28261">
        <ele>269</ele>
        <time>2023-04-28T14:21:51Z</time>
      </trkpt>
      <trkpt lat="43.46924" lon="6.28261">
        <ele>269</ele>
        <time>2023-04-28T14:21:52Z</time>
      </trkpt>
      <trkpt lat="43.46924" lon="6.28261">
        <ele>269</ele>
        <time>2023-04-28T14:21:53Z</time>
      </trkpt>
      <trkpt lat="43.46924" lon="6.28261">
        <ele>269</ele>
        <time>2023-04-28T14:21:54Z</time>
      </trkpt>
      <trkpt lat="43.46924" lon="6.28261">
        <ele>269</ele>
        <time>2023-04-28T14:21:55Z</time>
      </trkpt>
      <trkpt lat="43.46923" lon="6.28261">
        <ele>269</ele>
        <time>2023-04-28T14:21:56Z</time>
      </trkpt>
      <trkpt lat="43.46923" lon="6.28261">
        <ele>269</ele>
        <time>2023-04-28T14:21:57Z</time>
      </trkpt>
      <trkpt lat="43.46923" lon="6.28261">
        <ele>269</ele>
        <time>2023-04-28T14:21:58Z</time>
      </trkpt>
      <trkpt lat="43.46923" lon="6.28261">
        <ele>269</ele>
        <time>2023-04-28T14:21:59Z</time>
      </trkpt>
      <trkpt lat="43.46923" lon="6.28261">
        <ele>268</ele>
        <time>2023-04-28T14:22:00Z</time>
      </trkpt>
      <trkpt lat="43.46923" lon="6.28261">
        <ele>268</ele>
        <time>2023-04-28T14:22:01Z</time>
      </trkpt>
      <trkpt lat="43.46923" lon="6.28261">
        <ele>268</ele>
        <time>2023-04-28T14:22:02Z</time>
      </trkpt>
      <trkpt lat="43.46923" lon="6.28261">
        <ele>268</ele>
        <time>2023-04-28T14:22:03Z</time>
      </trkpt>
      <trkpt lat="43.46923" lon="6.28261">
        <ele>268</ele>
        <time>2023-04-28T14:22:04Z</time>
      </trkpt>
      <trkpt lat="43.46923" lon="6.28261">
        <ele>268</ele>
        <time>2023-04-28T14:22:05Z</time>
      </trkpt>
      <trkpt lat="43.46923" lon="6.28261">
        <ele>268</ele>
        <time>2023-04-28T14:22:06Z</time>
      </trkpt>
      <trkpt lat="43.46923" lon="6.28261">
        <ele>268</ele>
        <time>2023-04-28T14:22:07Z</time>
      </trkpt>
      <trkpt lat="43.46923" lon="6.28261">
        <ele>268</ele>
        <time>2023-04-28T14:22:08Z</time>
      </trkpt>
      <trkpt lat="43.46923" lon="6.28261">
        <ele>268</ele>
        <time>2023-04-28T14:22:09Z</time>
      </trkpt>
      <trkpt lat="43.46923" lon="6.28261">
        <ele>268</ele>
        <time>2023-04-28T14:22:10Z</time>
      </trkpt>
      <trkpt lat="43.46923" lon="6.28261">
        <ele>268</ele>
        <time>2023-04-28T14:22:11Z</time>
      </trkpt>
      <trkpt lat="43.46923" lon="6.28261">
        <ele>268</ele>
        <time>2023-04-28T14:22:12Z</time>
      </trkpt>
      <trkpt lat="43.46923" lon="6.28261">
        <ele>268</ele>
        <time>2023-04-28T14:22:13Z</time>
      </trkpt>
      <trkpt lat="43.46923" lon="6.28261">
        <ele>268</ele>
        <time>2023-04-28T14:22:14Z</time>
      </trkpt>
      <trkpt lat="43.46923" lon="6.28261">
        <ele>268</ele>
        <time>2023-04-28T14:22:15Z</time>
      </trkpt>
      <trkpt lat="43.46923" lon="6.28261">
        <ele>268</ele>
        <time>2023-04-28T14:22:16Z</time>
      </trkpt>
      <trkpt lat="43.46923" lon="6.28261">
        <ele>268</ele>
        <time>2023-04-28T14:22:17Z</time>
      </trkpt>
      <trkpt lat="43.46923" lon="6.28261">
        <ele>268</ele>
        <time>2023-04-28T14:22:18Z</time>
      </trkpt>
      <trkpt lat="43.46923" lon="6.28261">
        <ele>268</ele>
        <time>2023-04-28T14:22:19Z</time>
      </trkpt>
      <trkpt lat="43.46923" lon="6.28261">
        <ele>268</ele>
        <time>2023-04-28T14:22:20Z</time>
      </trkpt>
      <trkpt lat="43.46923" lon="6.28261">
        <ele>268</ele>
        <time>2023-04-28T14:22:21Z</time>
      </trkpt>
      <trkpt lat="43.46923" lon="6.28261">
        <ele>268</ele>
        <time>2023-04-28T14:22:22Z</time>
      </trkpt>
      <trkpt lat="43.46923" lon="6.28261">
        <ele>268</ele>
        <time>2023-04-28T14:22:23Z</time>
      </trkpt>
      <trkpt lat="43.46923" lon="6.28261">
        <ele>268</ele>
        <time>2023-04-28T14:22:24Z</time>
      </trkpt>
      <trkpt lat="43.46923" lon="6.28261">
        <ele>268</ele>
        <time>2023-04-28T14:22:25Z</time>
      </trkpt>
      <trkpt lat="43.46846" lon="6.28296">
        <ele>268</ele>
        <time>2023-04-28T14:22:25Z</time>
      </trkpt>
      <trkpt lat="43.46828" lon="6.2834">
        <ele>268</ele>
        <time>2023-04-28T14:22:25Z</time>
      </trkpt>
      <trkpt lat="43.46777" lon="6.28458">
        <ele>268</ele>
        <time>2023-04-28T14:22:25Z</time>
      </trkpt>
      <trkpt lat="43.46722" lon="6.28581">
        <ele>268</ele>
        <time>2023-04-28T14:22:25Z</time>
      </trkpt>
      <trkpt lat="43.46671" lon="6.28573">
        <ele>268</ele>
        <time>2023-04-28T14:22:26Z</time>
      </trkpt>
      <trkpt lat="43.46642" lon="6.28598">
        <ele>204.5</ele>
        <time>2023-04-28T11:56:46Z</time>
      </trkpt>
      <trkpt lat="43.46561" lon="6.2869">
        <ele>210.4</ele>
        <time>2023-04-28T11:56:46Z</time>
      </trkpt>
      <trkpt lat="43.46515" lon="6.28703">
        <ele>268</ele>
        <time>2023-04-28T14:22:26Z</time>
      </trkpt>
      <trkpt lat="43.46513" lon="6.28703">
        <ele>268</ele>
        <time>2023-04-28T14:22:26Z</time>
      </trkpt>
      <trkpt lat="43.46471" lon="6.28772">
        <ele>210.4</ele>
        <time>2023-04-28T11:56:46Z</time>
      </trkpt>
      <trkpt lat="43.46418" lon="6.28997">
        <ele>222.7</ele>
        <time>2023-04-28T11:56:46Z</time>
      </trkpt>
      <trkpt lat="43.46409" lon="6.29081">
        <ele>225.9</ele>
        <time>2023-04-28T11:56:46Z</time>
      </trkpt>
      <trkpt lat="43.46336" lon="6.29214">
        <ele>228.7</ele>
        <time>2023-04-28T11:56:46Z</time>
      </trkpt>
      <trkpt lat="43.4629" lon="6.29254">
        <ele>268</ele>
        <time>2023-04-28T14:22:26Z</time>
      </trkpt>
      <trkpt lat="43.46245" lon="6.29319">
        <ele>224.8</ele>
        <time>2023-04-28T11:56:46Z</time>
      </trkpt>
      <trkpt lat="43.46136" lon="6.29452">
        <ele>224.3</ele>
        <time>2023-04-28T11:56:46Z</time>
      </trkpt>
      <trkpt lat="43.46016" lon="6.2966">
        <ele>210.3</ele>
        <time>2023-04-28T11:56:46Z</time>
      </trkpt>
      <trkpt lat="43.4599" lon="6.29688">
        <ele>268</ele>
        <time>2023-04-28T14:22:26Z</time>
      </trkpt>
      <trkpt lat="43.45963" lon="6.29746">
        <ele>204</ele>
        <time>2023-04-28T11:56:46Z</time>
      </trkpt>
      <trkpt lat="43.4592" lon="6.29855">
        <ele>194.6</ele>
        <time>2023-04-28T11:56:46Z</time>
      </trkpt>
      <trkpt lat="43.45893" lon="6.29883">
        <ele>193</ele>
        <time>2023-04-28T11:56:46Z</time>
      </trkpt>
      <trkpt lat="43.4587" lon="6.29924">
        <ele>190.6</ele>
        <time>2023-04-28T11:56:46Z</time>
      </trkpt>
      <trkpt lat="43.45906" lon="6.29967">
        <ele>182.3</ele>
        <time>2023-04-28T11:56:46Z</time>
      </trkpt>
      <trkpt lat="43.46005" lon="6.29954">
        <ele>180.8</ele>
        <time>2023-04-28T11:56:46Z</time>
      </trkpt>
      <trkpt lat="43.4601" lon="6.2999">
        <ele>177.1</ele>
        <time>2023-04-28T11:56:46Z</time>
      </trkpt>
      <trkpt lat="43.45991" lon="6.30033">
        <ele>175.8</ele>
        <time>2023-04-28T11:56:46Z</time>
      </trkpt>
      <trkpt lat="43.45991" lon="6.30021">
        <ele>268</ele>
        <time>2023-04-28T14:22:26Z</time>
      </trkpt>
      <trkpt lat="43.45985" lon="6.30057">
        <ele>175</ele>
        <time>2023-04-28T11:56:46Z</time>
      </trkpt>
      <trkpt lat="43.45984" lon="6.30113">
        <ele>268</ele>
        <time>2023-04-28T14:22:26Z</time>
      </trkpt>
      <trkpt lat="43.4601" lon="6.30087">
        <ele>172.1</ele>
        <time>2023-04-28T11:56:46Z</time>
      </trkpt>
      <trkpt lat="43.46037" lon="6.30057">
        <ele>170.3</ele>
        <time>2023-04-28T11:56:46Z</time>
      </trkpt>
      <trkpt lat="43.46065" lon="6.30036">
        <ele>268</ele>
        <time>2023-04-28T14:22:26Z</time>
      </trkpt>
    </trkseg>
  </trk>
</gpx>